<?xml version="1.0" encoding="UTF-8" standalone="no" ?>
<gpx xmlns="http://www.topografix.com/GPX/1/1" xmlns:xsi="http://www.w3.org/2001/XMLSchema-instance" xsi:schemaLocation="http://www.topografix.com/GPX/1/1 http://www.topografix.com/GPX/1/1/gpx.xsd" version="1.1" creator="VisuGPX - https://www.visugpx.com">
  <metadata>
    <name>25-08-06</name>
    <desc><![CDATA[TDF-USMétro]]></desc>
  </metadata>
  <trk>
    <name><![CDATA[25-08-06_1]]></name>
    <trkseg>
      <trkpt lat="48.42171" lon="7.64281">
        <ele>149.6</ele>
        <time>2025-08-06T05:43:31Z</time>
      </trkpt>
      <trkpt lat="48.42171" lon="7.64281">
        <ele>159.6</ele>
        <time>2025-08-06T05:43:32Z</time>
      </trkpt>
      <trkpt lat="48.42165" lon="7.64286">
        <ele>162.6</ele>
        <time>2025-08-06T05:43:43Z</time>
      </trkpt>
      <trkpt lat="48.42163" lon="7.6429">
        <ele>162.8</ele>
        <time>2025-08-06T05:43:45Z</time>
      </trkpt>
      <trkpt lat="48.42162" lon="7.64292">
        <ele>162.8</ele>
        <time>2025-08-06T05:43:46Z</time>
      </trkpt>
      <trkpt lat="48.42162" lon="7.64294">
        <ele>162.8</ele>
        <time>2025-08-06T05:43:47Z</time>
      </trkpt>
      <trkpt lat="48.42163" lon="7.64299">
        <ele>162.8</ele>
        <time>2025-08-06T05:43:49Z</time>
      </trkpt>
      <trkpt lat="48.42162" lon="7.64304">
        <ele>162.6</ele>
        <time>2025-08-06T05:43:51Z</time>
      </trkpt>
      <trkpt lat="48.4216" lon="7.6432">
        <ele>162.6</ele>
        <time>2025-08-06T05:43:56Z</time>
      </trkpt>
      <trkpt lat="48.42162" lon="7.64332">
        <ele>162.6</ele>
        <time>2025-08-06T05:44:00Z</time>
      </trkpt>
      <trkpt lat="48.42179" lon="7.64343">
        <ele>162.8</ele>
        <time>2025-08-06T05:44:07Z</time>
      </trkpt>
      <trkpt lat="48.42193" lon="7.64344">
        <ele>162.8</ele>
        <time>2025-08-06T05:44:12Z</time>
      </trkpt>
      <trkpt lat="48.42198" lon="7.64346">
        <ele>163</ele>
        <time>2025-08-06T05:44:15Z</time>
      </trkpt>
      <trkpt lat="48.42198" lon="7.64346">
        <ele>163</ele>
        <time>2025-08-06T05:44:16Z</time>
      </trkpt>
      <trkpt lat="48.42198" lon="7.64345">
        <ele>163</ele>
        <time>2025-08-06T05:44:17Z</time>
      </trkpt>
      <trkpt lat="48.42204" lon="7.64345">
        <ele>162.8</ele>
        <time>2025-08-06T05:44:34Z</time>
      </trkpt>
      <trkpt lat="48.42206" lon="7.64341">
        <ele>162.8</ele>
        <time>2025-08-06T05:44:35Z</time>
      </trkpt>
      <trkpt lat="48.42208" lon="7.64336">
        <ele>163</ele>
        <time>2025-08-06T05:44:36Z</time>
      </trkpt>
      <trkpt lat="48.42217" lon="7.64294">
        <ele>163</ele>
        <time>2025-08-06T05:44:43Z</time>
      </trkpt>
      <trkpt lat="48.42228" lon="7.64246">
        <ele>163.2</ele>
        <time>2025-08-06T05:44:50Z</time>
      </trkpt>
      <trkpt lat="48.42233" lon="7.64221">
        <ele>163.6</ele>
        <time>2025-08-06T05:44:54Z</time>
      </trkpt>
      <trkpt lat="48.42236" lon="7.64214">
        <ele>163.8</ele>
        <time>2025-08-06T05:44:55Z</time>
      </trkpt>
      <trkpt lat="48.42239" lon="7.64209">
        <ele>163.8</ele>
        <time>2025-08-06T05:44:56Z</time>
      </trkpt>
      <trkpt lat="48.42243" lon="7.64203">
        <ele>164</ele>
        <time>2025-08-06T05:44:57Z</time>
      </trkpt>
      <trkpt lat="48.42247" lon="7.64191">
        <ele>164.2</ele>
        <time>2025-08-06T05:44:59Z</time>
      </trkpt>
      <trkpt lat="48.42248" lon="7.64182">
        <ele>164.4</ele>
        <time>2025-08-06T05:45:00Z</time>
      </trkpt>
      <trkpt lat="48.42248" lon="7.64175">
        <ele>164.6</ele>
        <time>2025-08-06T05:45:01Z</time>
      </trkpt>
      <trkpt lat="48.42246" lon="7.64162">
        <ele>164.8</ele>
        <time>2025-08-06T05:45:03Z</time>
      </trkpt>
      <trkpt lat="48.42243" lon="7.64156">
        <ele>165</ele>
        <time>2025-08-06T05:45:04Z</time>
      </trkpt>
      <trkpt lat="48.42239" lon="7.64151">
        <ele>165</ele>
        <time>2025-08-06T05:45:05Z</time>
      </trkpt>
      <trkpt lat="48.42229" lon="7.64145">
        <ele>165.2</ele>
        <time>2025-08-06T05:45:07Z</time>
      </trkpt>
      <trkpt lat="48.4222" lon="7.64148">
        <ele>165.2</ele>
        <time>2025-08-06T05:45:09Z</time>
      </trkpt>
      <trkpt lat="48.42208" lon="7.64154">
        <ele>165.2</ele>
        <time>2025-08-06T05:45:11Z</time>
      </trkpt>
      <trkpt lat="48.42203" lon="7.64157">
        <ele>165.2</ele>
        <time>2025-08-06T05:45:12Z</time>
      </trkpt>
      <trkpt lat="48.42193" lon="7.64159">
        <ele>165.2</ele>
        <time>2025-08-06T05:45:14Z</time>
      </trkpt>
      <trkpt lat="48.42188" lon="7.64158">
        <ele>165.2</ele>
        <time>2025-08-06T05:45:15Z</time>
      </trkpt>
      <trkpt lat="48.42181" lon="7.64156">
        <ele>165</ele>
        <time>2025-08-06T05:45:16Z</time>
      </trkpt>
      <trkpt lat="48.42163" lon="7.64147">
        <ele>165</ele>
        <time>2025-08-06T05:45:19Z</time>
      </trkpt>
      <trkpt lat="48.42118" lon="7.64127">
        <ele>164</ele>
        <time>2025-08-06T05:45:26Z</time>
      </trkpt>
      <trkpt lat="48.42087" lon="7.64116">
        <ele>163.6</ele>
        <time>2025-08-06T05:45:31Z</time>
      </trkpt>
      <trkpt lat="48.42056" lon="7.64106">
        <ele>163.6</ele>
        <time>2025-08-06T05:45:36Z</time>
      </trkpt>
      <trkpt lat="48.41999" lon="7.64092">
        <ele>164</ele>
        <time>2025-08-06T05:45:45Z</time>
      </trkpt>
      <trkpt lat="48.41993" lon="7.64091">
        <ele>164</ele>
        <time>2025-08-06T05:45:46Z</time>
      </trkpt>
      <trkpt lat="48.41935" lon="7.64087">
        <ele>164.2</ele>
        <time>2025-08-06T05:45:55Z</time>
      </trkpt>
      <trkpt lat="48.41922" lon="7.64088">
        <ele>164.2</ele>
        <time>2025-08-06T05:45:57Z</time>
      </trkpt>
      <trkpt lat="48.41864" lon="7.64098">
        <ele>164.2</ele>
        <time>2025-08-06T05:46:06Z</time>
      </trkpt>
      <trkpt lat="48.41809" lon="7.64119">
        <ele>164.2</ele>
        <time>2025-08-06T05:46:15Z</time>
      </trkpt>
      <trkpt lat="48.4176" lon="7.64147">
        <ele>164.2</ele>
        <time>2025-08-06T05:46:23Z</time>
      </trkpt>
      <trkpt lat="48.41708" lon="7.64188">
        <ele>164.2</ele>
        <time>2025-08-06T05:46:32Z</time>
      </trkpt>
      <trkpt lat="48.41697" lon="7.64199">
        <ele>164.2</ele>
        <time>2025-08-06T05:46:34Z</time>
      </trkpt>
      <trkpt lat="48.41651" lon="7.64252">
        <ele>164.4</ele>
        <time>2025-08-06T05:46:43Z</time>
      </trkpt>
      <trkpt lat="48.4161" lon="7.64311">
        <ele>164.4</ele>
        <time>2025-08-06T05:46:52Z</time>
      </trkpt>
      <trkpt lat="48.41606" lon="7.64318">
        <ele>164.4</ele>
        <time>2025-08-06T05:46:53Z</time>
      </trkpt>
      <trkpt lat="48.41571" lon="7.64386">
        <ele>164.4</ele>
        <time>2025-08-06T05:47:02Z</time>
      </trkpt>
      <trkpt lat="48.41568" lon="7.64394">
        <ele>164.4</ele>
        <time>2025-08-06T05:47:03Z</time>
      </trkpt>
      <trkpt lat="48.41538" lon="7.64467">
        <ele>164.4</ele>
        <time>2025-08-06T05:47:12Z</time>
      </trkpt>
      <trkpt lat="48.4151" lon="7.64545">
        <ele>164.4</ele>
        <time>2025-08-06T05:47:21Z</time>
      </trkpt>
      <trkpt lat="48.41483" lon="7.64622">
        <ele>164.4</ele>
        <time>2025-08-06T05:47:30Z</time>
      </trkpt>
      <trkpt lat="48.4147" lon="7.64657">
        <ele>164.4</ele>
        <time>2025-08-06T05:47:34Z</time>
      </trkpt>
      <trkpt lat="48.41442" lon="7.64734">
        <ele>164.4</ele>
        <time>2025-08-06T05:47:43Z</time>
      </trkpt>
      <trkpt lat="48.41435" lon="7.64752">
        <ele>164.4</ele>
        <time>2025-08-06T05:47:45Z</time>
      </trkpt>
      <trkpt lat="48.41406" lon="7.64832">
        <ele>164.4</ele>
        <time>2025-08-06T05:47:54Z</time>
      </trkpt>
      <trkpt lat="48.41397" lon="7.64858">
        <ele>164.6</ele>
        <time>2025-08-06T05:47:57Z</time>
      </trkpt>
      <trkpt lat="48.41368" lon="7.64937">
        <ele>164.6</ele>
        <time>2025-08-06T05:48:06Z</time>
      </trkpt>
      <trkpt lat="48.41352" lon="7.64982">
        <ele>164.6</ele>
        <time>2025-08-06T05:48:11Z</time>
      </trkpt>
      <trkpt lat="48.41323" lon="7.65061">
        <ele>164.6</ele>
        <time>2025-08-06T05:48:20Z</time>
      </trkpt>
      <trkpt lat="48.41308" lon="7.65106">
        <ele>164.6</ele>
        <time>2025-08-06T05:48:25Z</time>
      </trkpt>
      <trkpt lat="48.41279" lon="7.65185">
        <ele>164.6</ele>
        <time>2025-08-06T05:48:34Z</time>
      </trkpt>
      <trkpt lat="48.41276" lon="7.65194">
        <ele>164.6</ele>
        <time>2025-08-06T05:48:35Z</time>
      </trkpt>
      <trkpt lat="48.41248" lon="7.65275">
        <ele>164.6</ele>
        <time>2025-08-06T05:48:44Z</time>
      </trkpt>
      <trkpt lat="48.41242" lon="7.65292">
        <ele>164.6</ele>
        <time>2025-08-06T05:48:46Z</time>
      </trkpt>
      <trkpt lat="48.41231" lon="7.65322">
        <ele>164.4</ele>
        <time>2025-08-06T05:48:50Z</time>
      </trkpt>
      <trkpt lat="48.41229" lon="7.65325">
        <ele>164.4</ele>
        <time>2025-08-06T05:48:51Z</time>
      </trkpt>
      <trkpt lat="48.41221" lon="7.65332">
        <ele>164.4</ele>
        <time>2025-08-06T05:48:55Z</time>
      </trkpt>
      <trkpt lat="48.41214" lon="7.65339">
        <ele>164.4</ele>
        <time>2025-08-06T05:48:57Z</time>
      </trkpt>
      <trkpt lat="48.41209" lon="7.65351">
        <ele>164.4</ele>
        <time>2025-08-06T05:48:59Z</time>
      </trkpt>
      <trkpt lat="48.41208" lon="7.65375">
        <ele>164.4</ele>
        <time>2025-08-06T05:49:02Z</time>
      </trkpt>
      <trkpt lat="48.4121" lon="7.65384">
        <ele>164.4</ele>
        <time>2025-08-06T05:49:03Z</time>
      </trkpt>
      <trkpt lat="48.41211" lon="7.65393">
        <ele>164.4</ele>
        <time>2025-08-06T05:49:04Z</time>
      </trkpt>
      <trkpt lat="48.41212" lon="7.65412">
        <ele>164.4</ele>
        <time>2025-08-06T05:49:06Z</time>
      </trkpt>
      <trkpt lat="48.4121" lon="7.65421">
        <ele>164.6</ele>
        <time>2025-08-06T05:49:07Z</time>
      </trkpt>
      <trkpt lat="48.41199" lon="7.65487">
        <ele>164.6</ele>
        <time>2025-08-06T05:49:14Z</time>
      </trkpt>
      <trkpt lat="48.41197" lon="7.65496">
        <ele>164.6</ele>
        <time>2025-08-06T05:49:15Z</time>
      </trkpt>
      <trkpt lat="48.4118" lon="7.65577">
        <ele>164.6</ele>
        <time>2025-08-06T05:49:24Z</time>
      </trkpt>
      <trkpt lat="48.41171" lon="7.65614">
        <ele>164.6</ele>
        <time>2025-08-06T05:49:28Z</time>
      </trkpt>
      <trkpt lat="48.41152" lon="7.65697">
        <ele>164.6</ele>
        <time>2025-08-06T05:49:37Z</time>
      </trkpt>
      <trkpt lat="48.41143" lon="7.65735">
        <ele>164.6</ele>
        <time>2025-08-06T05:49:41Z</time>
      </trkpt>
      <trkpt lat="48.41124" lon="7.6582">
        <ele>164.6</ele>
        <time>2025-08-06T05:49:50Z</time>
      </trkpt>
      <trkpt lat="48.41115" lon="7.65858">
        <ele>164.6</ele>
        <time>2025-08-06T05:49:54Z</time>
      </trkpt>
      <trkpt lat="48.41098" lon="7.65935">
        <ele>164.4</ele>
        <time>2025-08-06T05:50:02Z</time>
      </trkpt>
      <trkpt lat="48.4108" lon="7.66014">
        <ele>164.2</ele>
        <time>2025-08-06T05:50:10Z</time>
      </trkpt>
      <trkpt lat="48.41078" lon="7.66024">
        <ele>164.2</ele>
        <time>2025-08-06T05:50:11Z</time>
      </trkpt>
      <trkpt lat="48.41061" lon="7.66102">
        <ele>164.2</ele>
        <time>2025-08-06T05:50:19Z</time>
      </trkpt>
      <trkpt lat="48.41054" lon="7.6613">
        <ele>164</ele>
        <time>2025-08-06T05:50:22Z</time>
      </trkpt>
      <trkpt lat="48.41043" lon="7.66178">
        <ele>164</ele>
        <time>2025-08-06T05:50:27Z</time>
      </trkpt>
      <trkpt lat="48.41038" lon="7.66198">
        <ele>164.2</ele>
        <time>2025-08-06T05:50:29Z</time>
      </trkpt>
      <trkpt lat="48.41026" lon="7.66258">
        <ele>164.2</ele>
        <time>2025-08-06T05:50:35Z</time>
      </trkpt>
      <trkpt lat="48.41007" lon="7.66339">
        <ele>164</ele>
        <time>2025-08-06T05:50:43Z</time>
      </trkpt>
      <trkpt lat="48.41003" lon="7.66358">
        <ele>164</ele>
        <time>2025-08-06T05:50:45Z</time>
      </trkpt>
      <trkpt lat="48.40988" lon="7.66426">
        <ele>163.8</ele>
        <time>2025-08-06T05:50:52Z</time>
      </trkpt>
      <trkpt lat="48.40969" lon="7.66504">
        <ele>163.4</ele>
        <time>2025-08-06T05:51:00Z</time>
      </trkpt>
      <trkpt lat="48.40954" lon="7.66572">
        <ele>163.2</ele>
        <time>2025-08-06T05:51:07Z</time>
      </trkpt>
      <trkpt lat="48.40951" lon="7.66581">
        <ele>163.2</ele>
        <time>2025-08-06T05:51:08Z</time>
      </trkpt>
      <trkpt lat="48.40935" lon="7.66661">
        <ele>162.8</ele>
        <time>2025-08-06T05:51:16Z</time>
      </trkpt>
      <trkpt lat="48.40929" lon="7.66701">
        <ele>162.8</ele>
        <time>2025-08-06T05:51:20Z</time>
      </trkpt>
      <trkpt lat="48.40921" lon="7.66781">
        <ele>162.6</ele>
        <time>2025-08-06T05:51:28Z</time>
      </trkpt>
      <trkpt lat="48.40921" lon="7.66792">
        <ele>162.4</ele>
        <time>2025-08-06T05:51:29Z</time>
      </trkpt>
      <trkpt lat="48.40926" lon="7.66872">
        <ele>162.2</ele>
        <time>2025-08-06T05:51:37Z</time>
      </trkpt>
      <trkpt lat="48.40941" lon="7.66938">
        <ele>162.4</ele>
        <time>2025-08-06T05:51:44Z</time>
      </trkpt>
      <trkpt lat="48.40964" lon="7.67001">
        <ele>162</ele>
        <time>2025-08-06T05:51:51Z</time>
      </trkpt>
      <trkpt lat="48.41" lon="7.67061">
        <ele>162</ele>
        <time>2025-08-06T05:51:59Z</time>
      </trkpt>
      <trkpt lat="48.41033" lon="7.67098">
        <ele>162</ele>
        <time>2025-08-06T05:52:05Z</time>
      </trkpt>
      <trkpt lat="48.41075" lon="7.67129">
        <ele>162</ele>
        <time>2025-08-06T05:52:12Z</time>
      </trkpt>
      <trkpt lat="48.41125" lon="7.67153">
        <ele>162.2</ele>
        <time>2025-08-06T05:52:20Z</time>
      </trkpt>
      <trkpt lat="48.41136" lon="7.67158">
        <ele>162.2</ele>
        <time>2025-08-06T05:52:22Z</time>
      </trkpt>
      <trkpt lat="48.41145" lon="7.67168">
        <ele>162.2</ele>
        <time>2025-08-06T05:52:24Z</time>
      </trkpt>
      <trkpt lat="48.41148" lon="7.67184">
        <ele>162.4</ele>
        <time>2025-08-06T05:52:26Z</time>
      </trkpt>
      <trkpt lat="48.41147" lon="7.67193">
        <ele>162.4</ele>
        <time>2025-08-06T05:52:27Z</time>
      </trkpt>
      <trkpt lat="48.41133" lon="7.67254">
        <ele>162.4</ele>
        <time>2025-08-06T05:52:34Z</time>
      </trkpt>
      <trkpt lat="48.41122" lon="7.67283">
        <ele>162.4</ele>
        <time>2025-08-06T05:52:39Z</time>
      </trkpt>
      <trkpt lat="48.41115" lon="7.67283">
        <ele>162.6</ele>
        <time>2025-08-06T05:52:43Z</time>
      </trkpt>
      <trkpt lat="48.41114" lon="7.67284">
        <ele>162.6</ele>
        <time>2025-08-06T05:52:46Z</time>
      </trkpt>
      <trkpt lat="48.41112" lon="7.67289">
        <ele>162.6</ele>
        <time>2025-08-06T05:52:49Z</time>
      </trkpt>
      <trkpt lat="48.41112" lon="7.67291">
        <ele>162.6</ele>
        <time>2025-08-06T05:52:50Z</time>
      </trkpt>
      <trkpt lat="48.41111" lon="7.67292">
        <ele>162.6</ele>
        <time>2025-08-06T05:52:51Z</time>
      </trkpt>
      <trkpt lat="48.41111" lon="7.67293">
        <ele>162.6</ele>
        <time>2025-08-06T05:52:53Z</time>
      </trkpt>
      <trkpt lat="48.41112" lon="7.67298">
        <ele>162.4</ele>
        <time>2025-08-06T05:53:53Z</time>
      </trkpt>
      <trkpt lat="48.41107" lon="7.67314">
        <ele>162.6</ele>
        <time>2025-08-06T05:53:59Z</time>
      </trkpt>
      <trkpt lat="48.41099" lon="7.67334">
        <ele>162.6</ele>
        <time>2025-08-06T05:54:04Z</time>
      </trkpt>
      <trkpt lat="48.41085" lon="7.6737">
        <ele>162.8</ele>
        <time>2025-08-06T05:54:11Z</time>
      </trkpt>
      <trkpt lat="48.41066" lon="7.67418">
        <ele>163</ele>
        <time>2025-08-06T05:54:18Z</time>
      </trkpt>
      <trkpt lat="48.41052" lon="7.67459">
        <ele>163</ele>
        <time>2025-08-06T05:54:23Z</time>
      </trkpt>
      <trkpt lat="48.41041" lon="7.6751">
        <ele>162.8</ele>
        <time>2025-08-06T05:54:28Z</time>
      </trkpt>
      <trkpt lat="48.41031" lon="7.67598">
        <ele>162</ele>
        <time>2025-08-06T05:54:36Z</time>
      </trkpt>
      <trkpt lat="48.4103" lon="7.67608">
        <ele>162</ele>
        <time>2025-08-06T05:54:37Z</time>
      </trkpt>
      <trkpt lat="48.41023" lon="7.67695">
        <ele>161.8</ele>
        <time>2025-08-06T05:54:45Z</time>
      </trkpt>
      <trkpt lat="48.41018" lon="7.67779">
        <ele>161.6</ele>
        <time>2025-08-06T05:54:53Z</time>
      </trkpt>
      <trkpt lat="48.41013" lon="7.67863">
        <ele>161.6</ele>
        <time>2025-08-06T05:55:01Z</time>
      </trkpt>
      <trkpt lat="48.41011" lon="7.67892">
        <ele>161.6</ele>
        <time>2025-08-06T05:55:04Z</time>
      </trkpt>
      <trkpt lat="48.41006" lon="7.67979">
        <ele>161.6</ele>
        <time>2025-08-06T05:55:12Z</time>
      </trkpt>
      <trkpt lat="48.41004" lon="7.68019">
        <ele>161.6</ele>
        <time>2025-08-06T05:55:16Z</time>
      </trkpt>
      <trkpt lat="48.40998" lon="7.6809">
        <ele>161.6</ele>
        <time>2025-08-06T05:55:23Z</time>
      </trkpt>
      <trkpt lat="48.40997" lon="7.681">
        <ele>161.6</ele>
        <time>2025-08-06T05:55:24Z</time>
      </trkpt>
      <trkpt lat="48.40985" lon="7.68161">
        <ele>161.6</ele>
        <time>2025-08-06T05:55:30Z</time>
      </trkpt>
      <trkpt lat="48.40981" lon="7.68179">
        <ele>161.4</ele>
        <time>2025-08-06T05:55:32Z</time>
      </trkpt>
      <trkpt lat="48.40962" lon="7.6825">
        <ele>161.4</ele>
        <time>2025-08-06T05:55:39Z</time>
      </trkpt>
      <trkpt lat="48.40938" lon="7.68331">
        <ele>161.6</ele>
        <time>2025-08-06T05:55:48Z</time>
      </trkpt>
      <trkpt lat="48.40935" lon="7.6834">
        <ele>161.6</ele>
        <time>2025-08-06T05:55:49Z</time>
      </trkpt>
      <trkpt lat="48.40914" lon="7.68413">
        <ele>161.8</ele>
        <time>2025-08-06T05:55:57Z</time>
      </trkpt>
      <trkpt lat="48.40898" lon="7.68475">
        <ele>161.8</ele>
        <time>2025-08-06T05:56:03Z</time>
      </trkpt>
      <trkpt lat="48.40886" lon="7.68541">
        <ele>161.4</ele>
        <time>2025-08-06T05:56:09Z</time>
      </trkpt>
      <trkpt lat="48.40869" lon="7.68627">
        <ele>161.2</ele>
        <time>2025-08-06T05:56:17Z</time>
      </trkpt>
      <trkpt lat="48.40854" lon="7.68714">
        <ele>161</ele>
        <time>2025-08-06T05:56:25Z</time>
      </trkpt>
      <trkpt lat="48.40852" lon="7.68725">
        <ele>161</ele>
        <time>2025-08-06T05:56:26Z</time>
      </trkpt>
      <trkpt lat="48.4083" lon="7.68793">
        <ele>161.2</ele>
        <time>2025-08-06T05:56:33Z</time>
      </trkpt>
      <trkpt lat="48.40813" lon="7.68833">
        <ele>161.2</ele>
        <time>2025-08-06T05:56:38Z</time>
      </trkpt>
      <trkpt lat="48.40802" lon="7.68858">
        <ele>161.4</ele>
        <time>2025-08-06T05:56:42Z</time>
      </trkpt>
      <trkpt lat="48.40798" lon="7.68863">
        <ele>161.4</ele>
        <time>2025-08-06T05:56:43Z</time>
      </trkpt>
      <trkpt lat="48.40795" lon="7.68869">
        <ele>161.4</ele>
        <time>2025-08-06T05:56:44Z</time>
      </trkpt>
      <trkpt lat="48.40784" lon="7.68898">
        <ele>161.6</ele>
        <time>2025-08-06T05:56:48Z</time>
      </trkpt>
      <trkpt lat="48.40772" lon="7.68932">
        <ele>161.8</ele>
        <time>2025-08-06T05:56:53Z</time>
      </trkpt>
      <trkpt lat="48.40769" lon="7.68947">
        <ele>161.8</ele>
        <time>2025-08-06T05:56:55Z</time>
      </trkpt>
      <trkpt lat="48.40767" lon="7.68993">
        <ele>162.2</ele>
        <time>2025-08-06T05:57:01Z</time>
      </trkpt>
      <trkpt lat="48.40766" lon="7.69025">
        <ele>162.4</ele>
        <time>2025-08-06T05:57:05Z</time>
      </trkpt>
      <trkpt lat="48.40766" lon="7.6904">
        <ele>162.6</ele>
        <time>2025-08-06T05:57:07Z</time>
      </trkpt>
      <trkpt lat="48.40766" lon="7.69091">
        <ele>163.6</ele>
        <time>2025-08-06T05:57:14Z</time>
      </trkpt>
      <trkpt lat="48.40766" lon="7.69099">
        <ele>163.8</ele>
        <time>2025-08-06T05:57:15Z</time>
      </trkpt>
      <trkpt lat="48.40766" lon="7.69113">
        <ele>164.2</ele>
        <time>2025-08-06T05:57:17Z</time>
      </trkpt>
      <trkpt lat="48.40765" lon="7.69141">
        <ele>164.8</ele>
        <time>2025-08-06T05:57:21Z</time>
      </trkpt>
      <trkpt lat="48.40764" lon="7.69154">
        <ele>165</ele>
        <time>2025-08-06T05:57:23Z</time>
      </trkpt>
      <trkpt lat="48.40764" lon="7.6916">
        <ele>165.2</ele>
        <time>2025-08-06T05:57:24Z</time>
      </trkpt>
      <trkpt lat="48.40761" lon="7.69175">
        <ele>165.8</ele>
        <time>2025-08-06T05:57:28Z</time>
      </trkpt>
      <trkpt lat="48.40751" lon="7.69175">
        <ele>165.8</ele>
        <time>2025-08-06T05:57:31Z</time>
      </trkpt>
      <trkpt lat="48.40738" lon="7.69177">
        <ele>165.8</ele>
        <time>2025-08-06T05:57:34Z</time>
      </trkpt>
      <trkpt lat="48.40733" lon="7.69177">
        <ele>165.6</ele>
        <time>2025-08-06T05:57:35Z</time>
      </trkpt>
      <trkpt lat="48.40709" lon="7.69174">
        <ele>164.8</ele>
        <time>2025-08-06T05:57:39Z</time>
      </trkpt>
      <trkpt lat="48.40702" lon="7.69175">
        <ele>164.8</ele>
        <time>2025-08-06T05:57:40Z</time>
      </trkpt>
      <trkpt lat="48.40695" lon="7.69175">
        <ele>164.4</ele>
        <time>2025-08-06T05:57:41Z</time>
      </trkpt>
      <trkpt lat="48.40681" lon="7.6917">
        <ele>163.8</ele>
        <time>2025-08-06T05:57:43Z</time>
      </trkpt>
      <trkpt lat="48.40668" lon="7.69165">
        <ele>163.2</ele>
        <time>2025-08-06T05:57:45Z</time>
      </trkpt>
      <trkpt lat="48.4063" lon="7.6915">
        <ele>162.6</ele>
        <time>2025-08-06T05:57:51Z</time>
      </trkpt>
      <trkpt lat="48.40579" lon="7.69131">
        <ele>162.4</ele>
        <time>2025-08-06T05:57:59Z</time>
      </trkpt>
      <trkpt lat="48.40542" lon="7.69118">
        <ele>163</ele>
        <time>2025-08-06T05:58:05Z</time>
      </trkpt>
      <trkpt lat="48.40538" lon="7.69116">
        <ele>163</ele>
        <time>2025-08-06T05:58:06Z</time>
      </trkpt>
      <trkpt lat="48.40486" lon="7.69095">
        <ele>162.8</ele>
        <time>2025-08-06T05:58:14Z</time>
      </trkpt>
      <trkpt lat="48.40439" lon="7.69077">
        <ele>162.6</ele>
        <time>2025-08-06T05:58:21Z</time>
      </trkpt>
      <trkpt lat="48.40392" lon="7.69061">
        <ele>162.8</ele>
        <time>2025-08-06T05:58:28Z</time>
      </trkpt>
      <trkpt lat="48.4034" lon="7.69039">
        <ele>162.8</ele>
        <time>2025-08-06T05:58:36Z</time>
      </trkpt>
      <trkpt lat="48.40333" lon="7.69037">
        <ele>162.8</ele>
        <time>2025-08-06T05:58:37Z</time>
      </trkpt>
      <trkpt lat="48.40281" lon="7.69016">
        <ele>163</ele>
        <time>2025-08-06T05:58:45Z</time>
      </trkpt>
      <trkpt lat="48.40227" lon="7.68996">
        <ele>163</ele>
        <time>2025-08-06T05:58:53Z</time>
      </trkpt>
      <trkpt lat="48.40176" lon="7.68975">
        <ele>163</ele>
        <time>2025-08-06T05:59:01Z</time>
      </trkpt>
      <trkpt lat="48.40123" lon="7.68955">
        <ele>163.2</ele>
        <time>2025-08-06T05:59:09Z</time>
      </trkpt>
      <trkpt lat="48.40071" lon="7.68935">
        <ele>163.2</ele>
        <time>2025-08-06T05:59:17Z</time>
      </trkpt>
      <trkpt lat="48.40024" lon="7.68917">
        <ele>163.2</ele>
        <time>2025-08-06T05:59:24Z</time>
      </trkpt>
      <trkpt lat="48.3998" lon="7.68899">
        <ele>163.2</ele>
        <time>2025-08-06T05:59:31Z</time>
      </trkpt>
      <trkpt lat="48.39926" lon="7.68879">
        <ele>163.2</ele>
        <time>2025-08-06T05:59:39Z</time>
      </trkpt>
      <trkpt lat="48.39912" lon="7.68874">
        <ele>163.2</ele>
        <time>2025-08-06T05:59:41Z</time>
      </trkpt>
      <trkpt lat="48.39859" lon="7.68853">
        <ele>163.2</ele>
        <time>2025-08-06T05:59:49Z</time>
      </trkpt>
      <trkpt lat="48.39846" lon="7.68848">
        <ele>163.2</ele>
        <time>2025-08-06T05:59:51Z</time>
      </trkpt>
      <trkpt lat="48.39799" lon="7.68831">
        <ele>163.2</ele>
        <time>2025-08-06T05:59:58Z</time>
      </trkpt>
      <trkpt lat="48.39759" lon="7.68816">
        <ele>163</ele>
        <time>2025-08-06T06:00:04Z</time>
      </trkpt>
      <trkpt lat="48.39706" lon="7.68797">
        <ele>163</ele>
        <time>2025-08-06T06:00:12Z</time>
      </trkpt>
      <trkpt lat="48.39699" lon="7.68794">
        <ele>163</ele>
        <time>2025-08-06T06:00:13Z</time>
      </trkpt>
      <trkpt lat="48.39646" lon="7.68773">
        <ele>163</ele>
        <time>2025-08-06T06:00:21Z</time>
      </trkpt>
      <trkpt lat="48.39633" lon="7.68768">
        <ele>163</ele>
        <time>2025-08-06T06:00:23Z</time>
      </trkpt>
      <trkpt lat="48.39627" lon="7.68765">
        <ele>163</ele>
        <time>2025-08-06T06:00:24Z</time>
      </trkpt>
      <trkpt lat="48.39574" lon="7.68745">
        <ele>163.2</ele>
        <time>2025-08-06T06:00:32Z</time>
      </trkpt>
      <trkpt lat="48.39568" lon="7.68743">
        <ele>163.2</ele>
        <time>2025-08-06T06:00:33Z</time>
      </trkpt>
      <trkpt lat="48.39514" lon="7.68723">
        <ele>163.2</ele>
        <time>2025-08-06T06:00:41Z</time>
      </trkpt>
      <trkpt lat="48.39501" lon="7.68719">
        <ele>163.4</ele>
        <time>2025-08-06T06:00:43Z</time>
      </trkpt>
      <trkpt lat="48.39448" lon="7.68697">
        <ele>163.4</ele>
        <time>2025-08-06T06:00:51Z</time>
      </trkpt>
      <trkpt lat="48.39442" lon="7.68694">
        <ele>163.4</ele>
        <time>2025-08-06T06:00:52Z</time>
      </trkpt>
      <trkpt lat="48.39388" lon="7.68673">
        <ele>163.4</ele>
        <time>2025-08-06T06:01:00Z</time>
      </trkpt>
      <trkpt lat="48.39369" lon="7.68665">
        <ele>163.4</ele>
        <time>2025-08-06T06:01:03Z</time>
      </trkpt>
      <trkpt lat="48.39315" lon="7.68645">
        <ele>163.4</ele>
        <time>2025-08-06T06:01:11Z</time>
      </trkpt>
      <trkpt lat="48.39302" lon="7.6864">
        <ele>163.4</ele>
        <time>2025-08-06T06:01:13Z</time>
      </trkpt>
      <trkpt lat="48.3925" lon="7.68619">
        <ele>163.6</ele>
        <time>2025-08-06T06:01:21Z</time>
      </trkpt>
      <trkpt lat="48.39223" lon="7.68609">
        <ele>163.6</ele>
        <time>2025-08-06T06:01:25Z</time>
      </trkpt>
      <trkpt lat="48.3917" lon="7.68587">
        <ele>163.4</ele>
        <time>2025-08-06T06:01:33Z</time>
      </trkpt>
      <trkpt lat="48.39157" lon="7.68582">
        <ele>163.4</ele>
        <time>2025-08-06T06:01:35Z</time>
      </trkpt>
      <trkpt lat="48.39099" lon="7.68559">
        <ele>163.8</ele>
        <time>2025-08-06T06:01:44Z</time>
      </trkpt>
      <trkpt lat="48.39067" lon="7.68546">
        <ele>164</ele>
        <time>2025-08-06T06:01:50Z</time>
      </trkpt>
      <trkpt lat="48.39059" lon="7.68543">
        <ele>164.4</ele>
        <time>2025-08-06T06:01:52Z</time>
      </trkpt>
      <trkpt lat="48.39048" lon="7.68542">
        <ele>165.2</ele>
        <time>2025-08-06T06:01:55Z</time>
      </trkpt>
      <trkpt lat="48.39045" lon="7.68542">
        <ele>165.4</ele>
        <time>2025-08-06T06:01:56Z</time>
      </trkpt>
      <trkpt lat="48.39036" lon="7.68542">
        <ele>166.2</ele>
        <time>2025-08-06T06:01:59Z</time>
      </trkpt>
      <trkpt lat="48.39028" lon="7.68539">
        <ele>166.8</ele>
        <time>2025-08-06T06:02:01Z</time>
      </trkpt>
      <trkpt lat="48.39017" lon="7.68534">
        <ele>166.8</ele>
        <time>2025-08-06T06:02:03Z</time>
      </trkpt>
      <trkpt lat="48.38986" lon="7.68518">
        <ele>166.6</ele>
        <time>2025-08-06T06:02:08Z</time>
      </trkpt>
      <trkpt lat="48.38947" lon="7.685">
        <ele>166</ele>
        <time>2025-08-06T06:02:14Z</time>
      </trkpt>
      <trkpt lat="48.38893" lon="7.68479">
        <ele>166</ele>
        <time>2025-08-06T06:02:22Z</time>
      </trkpt>
      <trkpt lat="48.38887" lon="7.68476">
        <ele>166</ele>
        <time>2025-08-06T06:02:23Z</time>
      </trkpt>
      <trkpt lat="48.3883" lon="7.68455">
        <ele>165.8</ele>
        <time>2025-08-06T06:02:31Z</time>
      </trkpt>
      <trkpt lat="48.38823" lon="7.68452">
        <ele>165.8</ele>
        <time>2025-08-06T06:02:32Z</time>
      </trkpt>
      <trkpt lat="48.38767" lon="7.68432">
        <ele>165.8</ele>
        <time>2025-08-06T06:02:40Z</time>
      </trkpt>
      <trkpt lat="48.38747" lon="7.68423">
        <ele>165.8</ele>
        <time>2025-08-06T06:02:43Z</time>
      </trkpt>
      <trkpt lat="48.38699" lon="7.68406">
        <ele>165.8</ele>
        <time>2025-08-06T06:02:50Z</time>
      </trkpt>
      <trkpt lat="48.38672" lon="7.68396">
        <ele>165.8</ele>
        <time>2025-08-06T06:02:54Z</time>
      </trkpt>
      <trkpt lat="48.38653" lon="7.68393">
        <ele>165.8</ele>
        <time>2025-08-06T06:02:57Z</time>
      </trkpt>
      <trkpt lat="48.38639" lon="7.68388">
        <ele>166</ele>
        <time>2025-08-06T06:02:59Z</time>
      </trkpt>
      <trkpt lat="48.38626" lon="7.68381">
        <ele>166</ele>
        <time>2025-08-06T06:03:01Z</time>
      </trkpt>
      <trkpt lat="48.38572" lon="7.68357">
        <ele>166</ele>
        <time>2025-08-06T06:03:09Z</time>
      </trkpt>
      <trkpt lat="48.38566" lon="7.68354">
        <ele>166</ele>
        <time>2025-08-06T06:03:10Z</time>
      </trkpt>
      <trkpt lat="48.38512" lon="7.68333">
        <ele>166.2</ele>
        <time>2025-08-06T06:03:18Z</time>
      </trkpt>
      <trkpt lat="48.38505" lon="7.68331">
        <ele>166.2</ele>
        <time>2025-08-06T06:03:19Z</time>
      </trkpt>
      <trkpt lat="48.3846" lon="7.68314">
        <ele>166.2</ele>
        <time>2025-08-06T06:03:26Z</time>
      </trkpt>
      <trkpt lat="48.38405" lon="7.68293">
        <ele>166.4</ele>
        <time>2025-08-06T06:03:34Z</time>
      </trkpt>
      <trkpt lat="48.38398" lon="7.68291">
        <ele>166.4</ele>
        <time>2025-08-06T06:03:35Z</time>
      </trkpt>
      <trkpt lat="48.38345" lon="7.6827">
        <ele>166.4</ele>
        <time>2025-08-06T06:03:43Z</time>
      </trkpt>
      <trkpt lat="48.38331" lon="7.68266">
        <ele>166.4</ele>
        <time>2025-08-06T06:03:45Z</time>
      </trkpt>
      <trkpt lat="48.38277" lon="7.68243">
        <ele>166.6</ele>
        <time>2025-08-06T06:03:53Z</time>
      </trkpt>
      <trkpt lat="48.38224" lon="7.68223">
        <ele>166.4</ele>
        <time>2025-08-06T06:04:01Z</time>
      </trkpt>
      <trkpt lat="48.38171" lon="7.68201">
        <ele>166.4</ele>
        <time>2025-08-06T06:04:09Z</time>
      </trkpt>
      <trkpt lat="48.38165" lon="7.68198">
        <ele>166.4</ele>
        <time>2025-08-06T06:04:10Z</time>
      </trkpt>
      <trkpt lat="48.38112" lon="7.68178">
        <ele>166.6</ele>
        <time>2025-08-06T06:04:18Z</time>
      </trkpt>
      <trkpt lat="48.38105" lon="7.68176">
        <ele>166.6</ele>
        <time>2025-08-06T06:04:19Z</time>
      </trkpt>
      <trkpt lat="48.38049" lon="7.68155">
        <ele>166.4</ele>
        <time>2025-08-06T06:04:27Z</time>
      </trkpt>
      <trkpt lat="48.38035" lon="7.6815">
        <ele>166.4</ele>
        <time>2025-08-06T06:04:29Z</time>
      </trkpt>
      <trkpt lat="48.3798" lon="7.68128">
        <ele>166.6</ele>
        <time>2025-08-06T06:04:37Z</time>
      </trkpt>
      <trkpt lat="48.37967" lon="7.68123">
        <ele>166.6</ele>
        <time>2025-08-06T06:04:39Z</time>
      </trkpt>
      <trkpt lat="48.37912" lon="7.68102">
        <ele>166.6</ele>
        <time>2025-08-06T06:04:47Z</time>
      </trkpt>
      <trkpt lat="48.37898" lon="7.68097">
        <ele>166.6</ele>
        <time>2025-08-06T06:04:49Z</time>
      </trkpt>
      <trkpt lat="48.37844" lon="7.68075">
        <ele>166.6</ele>
        <time>2025-08-06T06:04:57Z</time>
      </trkpt>
      <trkpt lat="48.37837" lon="7.68073">
        <ele>166.4</ele>
        <time>2025-08-06T06:04:58Z</time>
      </trkpt>
      <trkpt lat="48.37784" lon="7.68052">
        <ele>166.8</ele>
        <time>2025-08-06T06:05:06Z</time>
      </trkpt>
      <trkpt lat="48.37771" lon="7.68046">
        <ele>166.8</ele>
        <time>2025-08-06T06:05:08Z</time>
      </trkpt>
      <trkpt lat="48.37714" lon="7.68024">
        <ele>167</ele>
        <time>2025-08-06T06:05:16Z</time>
      </trkpt>
      <trkpt lat="48.37692" lon="7.68016">
        <ele>166.8</ele>
        <time>2025-08-06T06:05:19Z</time>
      </trkpt>
      <trkpt lat="48.37651" lon="7.68004">
        <ele>166.8</ele>
        <time>2025-08-06T06:05:25Z</time>
      </trkpt>
      <trkpt lat="48.37644" lon="7.68001">
        <ele>166.8</ele>
        <time>2025-08-06T06:05:26Z</time>
      </trkpt>
      <trkpt lat="48.37637" lon="7.67997">
        <ele>166.8</ele>
        <time>2025-08-06T06:05:27Z</time>
      </trkpt>
      <trkpt lat="48.37609" lon="7.67985">
        <ele>166.6</ele>
        <time>2025-08-06T06:05:31Z</time>
      </trkpt>
      <trkpt lat="48.37552" lon="7.67962">
        <ele>166.6</ele>
        <time>2025-08-06T06:05:39Z</time>
      </trkpt>
      <trkpt lat="48.37545" lon="7.6796">
        <ele>166.6</ele>
        <time>2025-08-06T06:05:40Z</time>
      </trkpt>
      <trkpt lat="48.3749" lon="7.67939">
        <ele>166.6</ele>
        <time>2025-08-06T06:05:48Z</time>
      </trkpt>
      <trkpt lat="48.37476" lon="7.67934">
        <ele>166.8</ele>
        <time>2025-08-06T06:05:50Z</time>
      </trkpt>
      <trkpt lat="48.3742" lon="7.67913">
        <ele>166.8</ele>
        <time>2025-08-06T06:05:58Z</time>
      </trkpt>
      <trkpt lat="48.37413" lon="7.67911">
        <ele>166.8</ele>
        <time>2025-08-06T06:05:59Z</time>
      </trkpt>
      <trkpt lat="48.37365" lon="7.67891">
        <ele>166.8</ele>
        <time>2025-08-06T06:06:06Z</time>
      </trkpt>
      <trkpt lat="48.3731" lon="7.67868">
        <ele>166.8</ele>
        <time>2025-08-06T06:06:14Z</time>
      </trkpt>
      <trkpt lat="48.37254" lon="7.67846">
        <ele>166.8</ele>
        <time>2025-08-06T06:06:22Z</time>
      </trkpt>
      <trkpt lat="48.37234" lon="7.67838">
        <ele>166.8</ele>
        <time>2025-08-06T06:06:25Z</time>
      </trkpt>
      <trkpt lat="48.37179" lon="7.67817">
        <ele>166.8</ele>
        <time>2025-08-06T06:06:33Z</time>
      </trkpt>
      <trkpt lat="48.37158" lon="7.67809">
        <ele>166.8</ele>
        <time>2025-08-06T06:06:36Z</time>
      </trkpt>
      <trkpt lat="48.37103" lon="7.67787">
        <ele>167</ele>
        <time>2025-08-06T06:06:44Z</time>
      </trkpt>
      <trkpt lat="48.37096" lon="7.67785">
        <ele>167</ele>
        <time>2025-08-06T06:06:45Z</time>
      </trkpt>
      <trkpt lat="48.37041" lon="7.67763">
        <ele>167</ele>
        <time>2025-08-06T06:06:53Z</time>
      </trkpt>
      <trkpt lat="48.37" lon="7.67749">
        <ele>167</ele>
        <time>2025-08-06T06:06:59Z</time>
      </trkpt>
      <trkpt lat="48.3696" lon="7.67733">
        <ele>167.2</ele>
        <time>2025-08-06T06:07:05Z</time>
      </trkpt>
      <trkpt lat="48.36911" lon="7.67716">
        <ele>167</ele>
        <time>2025-08-06T06:07:12Z</time>
      </trkpt>
      <trkpt lat="48.36898" lon="7.67711">
        <ele>167.2</ele>
        <time>2025-08-06T06:07:14Z</time>
      </trkpt>
      <trkpt lat="48.36877" lon="7.67702">
        <ele>167.2</ele>
        <time>2025-08-06T06:07:17Z</time>
      </trkpt>
      <trkpt lat="48.3683" lon="7.67682">
        <ele>167.4</ele>
        <time>2025-08-06T06:07:24Z</time>
      </trkpt>
      <trkpt lat="48.36775" lon="7.67661">
        <ele>167.4</ele>
        <time>2025-08-06T06:07:32Z</time>
      </trkpt>
      <trkpt lat="48.36761" lon="7.67655">
        <ele>167.4</ele>
        <time>2025-08-06T06:07:34Z</time>
      </trkpt>
      <trkpt lat="48.36708" lon="7.67636">
        <ele>167.4</ele>
        <time>2025-08-06T06:07:42Z</time>
      </trkpt>
      <trkpt lat="48.36701" lon="7.67634">
        <ele>167.4</ele>
        <time>2025-08-06T06:07:43Z</time>
      </trkpt>
      <trkpt lat="48.36654" lon="7.67618">
        <ele>167.4</ele>
        <time>2025-08-06T06:07:50Z</time>
      </trkpt>
      <trkpt lat="48.36619" lon="7.67605">
        <ele>167.8</ele>
        <time>2025-08-06T06:07:56Z</time>
      </trkpt>
      <trkpt lat="48.36597" lon="7.67598">
        <ele>168.4</ele>
        <time>2025-08-06T06:08:00Z</time>
      </trkpt>
      <trkpt lat="48.36579" lon="7.67591">
        <ele>168.6</ele>
        <time>2025-08-06T06:08:03Z</time>
      </trkpt>
      <trkpt lat="48.36573" lon="7.67588">
        <ele>168.8</ele>
        <time>2025-08-06T06:08:04Z</time>
      </trkpt>
      <trkpt lat="48.36542" lon="7.67573">
        <ele>169</ele>
        <time>2025-08-06T06:08:09Z</time>
      </trkpt>
      <trkpt lat="48.36504" lon="7.67558">
        <ele>169</ele>
        <time>2025-08-06T06:08:15Z</time>
      </trkpt>
      <trkpt lat="48.36452" lon="7.67537">
        <ele>169</ele>
        <time>2025-08-06T06:08:23Z</time>
      </trkpt>
      <trkpt lat="48.36404" lon="7.6752">
        <ele>168.8</ele>
        <time>2025-08-06T06:08:30Z</time>
      </trkpt>
      <trkpt lat="48.3635" lon="7.67499">
        <ele>168.8</ele>
        <time>2025-08-06T06:08:38Z</time>
      </trkpt>
      <trkpt lat="48.36302" lon="7.67481">
        <ele>169</ele>
        <time>2025-08-06T06:08:45Z</time>
      </trkpt>
      <trkpt lat="48.36247" lon="7.67461">
        <ele>168.8</ele>
        <time>2025-08-06T06:08:53Z</time>
      </trkpt>
      <trkpt lat="48.36241" lon="7.67458">
        <ele>168.8</ele>
        <time>2025-08-06T06:08:54Z</time>
      </trkpt>
      <trkpt lat="48.36192" lon="7.6744">
        <ele>168.8</ele>
        <time>2025-08-06T06:09:01Z</time>
      </trkpt>
      <trkpt lat="48.36137" lon="7.67421">
        <ele>169.2</ele>
        <time>2025-08-06T06:09:09Z</time>
      </trkpt>
      <trkpt lat="48.36097" lon="7.67406">
        <ele>169.2</ele>
        <time>2025-08-06T06:09:15Z</time>
      </trkpt>
      <trkpt lat="48.36045" lon="7.67386">
        <ele>169.2</ele>
        <time>2025-08-06T06:09:23Z</time>
      </trkpt>
      <trkpt lat="48.35993" lon="7.67365">
        <ele>169.2</ele>
        <time>2025-08-06T06:09:31Z</time>
      </trkpt>
      <trkpt lat="48.35973" lon="7.67357">
        <ele>169</ele>
        <time>2025-08-06T06:09:34Z</time>
      </trkpt>
      <trkpt lat="48.35954" lon="7.6735">
        <ele>169</ele>
        <time>2025-08-06T06:09:37Z</time>
      </trkpt>
      <trkpt lat="48.35947" lon="7.67347">
        <ele>169.2</ele>
        <time>2025-08-06T06:09:38Z</time>
      </trkpt>
      <trkpt lat="48.35894" lon="7.67327">
        <ele>169.2</ele>
        <time>2025-08-06T06:09:46Z</time>
      </trkpt>
      <trkpt lat="48.3584" lon="7.67306">
        <ele>169</ele>
        <time>2025-08-06T06:09:54Z</time>
      </trkpt>
      <trkpt lat="48.35785" lon="7.67285">
        <ele>169</ele>
        <time>2025-08-06T06:10:02Z</time>
      </trkpt>
      <trkpt lat="48.35778" lon="7.67282">
        <ele>169</ele>
        <time>2025-08-06T06:10:03Z</time>
      </trkpt>
      <trkpt lat="48.35724" lon="7.67261">
        <ele>169.2</ele>
        <time>2025-08-06T06:10:11Z</time>
      </trkpt>
      <trkpt lat="48.35711" lon="7.67256">
        <ele>169.2</ele>
        <time>2025-08-06T06:10:13Z</time>
      </trkpt>
      <trkpt lat="48.35658" lon="7.67236">
        <ele>169</ele>
        <time>2025-08-06T06:10:21Z</time>
      </trkpt>
      <trkpt lat="48.35603" lon="7.67216">
        <ele>169.2</ele>
        <time>2025-08-06T06:10:29Z</time>
      </trkpt>
      <trkpt lat="48.35596" lon="7.67213">
        <ele>169.2</ele>
        <time>2025-08-06T06:10:30Z</time>
      </trkpt>
      <trkpt lat="48.3555" lon="7.67195">
        <ele>169.2</ele>
        <time>2025-08-06T06:10:37Z</time>
      </trkpt>
      <trkpt lat="48.35497" lon="7.67175">
        <ele>169.2</ele>
        <time>2025-08-06T06:10:45Z</time>
      </trkpt>
      <trkpt lat="48.35476" lon="7.67167">
        <ele>169.4</ele>
        <time>2025-08-06T06:10:48Z</time>
      </trkpt>
      <trkpt lat="48.35423" lon="7.67144">
        <ele>169.4</ele>
        <time>2025-08-06T06:10:56Z</time>
      </trkpt>
      <trkpt lat="48.35416" lon="7.67142">
        <ele>169.2</ele>
        <time>2025-08-06T06:10:57Z</time>
      </trkpt>
      <trkpt lat="48.35362" lon="7.67121">
        <ele>169.2</ele>
        <time>2025-08-06T06:11:05Z</time>
      </trkpt>
      <trkpt lat="48.35327" lon="7.67109">
        <ele>169</ele>
        <time>2025-08-06T06:11:10Z</time>
      </trkpt>
      <trkpt lat="48.35272" lon="7.67087">
        <ele>169</ele>
        <time>2025-08-06T06:11:18Z</time>
      </trkpt>
      <trkpt lat="48.35219" lon="7.67067">
        <ele>169.2</ele>
        <time>2025-08-06T06:11:26Z</time>
      </trkpt>
      <trkpt lat="48.35199" lon="7.67059">
        <ele>169.4</ele>
        <time>2025-08-06T06:11:29Z</time>
      </trkpt>
      <trkpt lat="48.35146" lon="7.67039">
        <ele>169.4</ele>
        <time>2025-08-06T06:11:37Z</time>
      </trkpt>
      <trkpt lat="48.35132" lon="7.67034">
        <ele>169.6</ele>
        <time>2025-08-06T06:11:39Z</time>
      </trkpt>
      <trkpt lat="48.35078" lon="7.67013">
        <ele>169.6</ele>
        <time>2025-08-06T06:11:47Z</time>
      </trkpt>
      <trkpt lat="48.35057" lon="7.67006">
        <ele>169.4</ele>
        <time>2025-08-06T06:11:50Z</time>
      </trkpt>
      <trkpt lat="48.35" lon="7.66984">
        <ele>169.4</ele>
        <time>2025-08-06T06:11:58Z</time>
      </trkpt>
      <trkpt lat="48.34985" lon="7.66978">
        <ele>169.4</ele>
        <time>2025-08-06T06:12:00Z</time>
      </trkpt>
      <trkpt lat="48.34929" lon="7.66956">
        <ele>169.4</ele>
        <time>2025-08-06T06:12:08Z</time>
      </trkpt>
      <trkpt lat="48.34902" lon="7.66944">
        <ele>169.4</ele>
        <time>2025-08-06T06:12:12Z</time>
      </trkpt>
      <trkpt lat="48.34847" lon="7.66923">
        <ele>169.6</ele>
        <time>2025-08-06T06:12:20Z</time>
      </trkpt>
      <trkpt lat="48.34827" lon="7.66915">
        <ele>169.6</ele>
        <time>2025-08-06T06:12:23Z</time>
      </trkpt>
      <trkpt lat="48.34771" lon="7.66895">
        <ele>169.4</ele>
        <time>2025-08-06T06:12:31Z</time>
      </trkpt>
      <trkpt lat="48.34737" lon="7.66883">
        <ele>169.6</ele>
        <time>2025-08-06T06:12:36Z</time>
      </trkpt>
      <trkpt lat="48.34684" lon="7.66862">
        <ele>169.6</ele>
        <time>2025-08-06T06:12:44Z</time>
      </trkpt>
      <trkpt lat="48.3467" lon="7.66857">
        <ele>169.8</ele>
        <time>2025-08-06T06:12:46Z</time>
      </trkpt>
      <trkpt lat="48.34657" lon="7.66852">
        <ele>170</ele>
        <time>2025-08-06T06:12:48Z</time>
      </trkpt>
      <trkpt lat="48.34602" lon="7.66831">
        <ele>170</ele>
        <time>2025-08-06T06:12:56Z</time>
      </trkpt>
      <trkpt lat="48.34546" lon="7.66809">
        <ele>169.6</ele>
        <time>2025-08-06T06:13:04Z</time>
      </trkpt>
      <trkpt lat="48.34539" lon="7.66806">
        <ele>169.8</ele>
        <time>2025-08-06T06:13:05Z</time>
      </trkpt>
      <trkpt lat="48.34483" lon="7.66783">
        <ele>169.6</ele>
        <time>2025-08-06T06:13:13Z</time>
      </trkpt>
      <trkpt lat="48.34456" lon="7.66773">
        <ele>169.8</ele>
        <time>2025-08-06T06:13:17Z</time>
      </trkpt>
      <trkpt lat="48.34401" lon="7.66752">
        <ele>170</ele>
        <time>2025-08-06T06:13:25Z</time>
      </trkpt>
      <trkpt lat="48.34367" lon="7.66739">
        <ele>170</ele>
        <time>2025-08-06T06:13:30Z</time>
      </trkpt>
      <trkpt lat="48.34312" lon="7.66719">
        <ele>167.8</ele>
        <time>2025-08-06T06:13:38Z</time>
      </trkpt>
      <trkpt lat="48.34305" lon="7.66716">
        <ele>170</ele>
        <time>2025-08-06T06:13:39Z</time>
      </trkpt>
      <trkpt lat="48.3425" lon="7.66696">
        <ele>170.2</ele>
        <time>2025-08-06T06:13:47Z</time>
      </trkpt>
      <trkpt lat="48.34236" lon="7.66691">
        <ele>170.2</ele>
        <time>2025-08-06T06:13:49Z</time>
      </trkpt>
      <trkpt lat="48.34181" lon="7.66669">
        <ele>170</ele>
        <time>2025-08-06T06:13:57Z</time>
      </trkpt>
      <trkpt lat="48.34155" lon="7.66657">
        <ele>170</ele>
        <time>2025-08-06T06:14:01Z</time>
      </trkpt>
      <trkpt lat="48.341" lon="7.66634">
        <ele>170.2</ele>
        <time>2025-08-06T06:14:09Z</time>
      </trkpt>
      <trkpt lat="48.34072" lon="7.66622">
        <ele>170.2</ele>
        <time>2025-08-06T06:14:13Z</time>
      </trkpt>
      <trkpt lat="48.34025" lon="7.66593">
        <ele>170</ele>
        <time>2025-08-06T06:14:20Z</time>
      </trkpt>
      <trkpt lat="48.33974" lon="7.66555">
        <ele>170</ele>
        <time>2025-08-06T06:14:28Z</time>
      </trkpt>
      <trkpt lat="48.33961" lon="7.66546">
        <ele>170.2</ele>
        <time>2025-08-06T06:14:30Z</time>
      </trkpt>
      <trkpt lat="48.33937" lon="7.66527">
        <ele>170.4</ele>
        <time>2025-08-06T06:14:34Z</time>
      </trkpt>
      <trkpt lat="48.33885" lon="7.66487">
        <ele>170.2</ele>
        <time>2025-08-06T06:14:42Z</time>
      </trkpt>
      <trkpt lat="48.33859" lon="7.66467">
        <ele>170</ele>
        <time>2025-08-06T06:14:46Z</time>
      </trkpt>
      <trkpt lat="48.33815" lon="7.66434">
        <ele>169.8</ele>
        <time>2025-08-06T06:14:53Z</time>
      </trkpt>
      <trkpt lat="48.33774" lon="7.66403">
        <ele>170</ele>
        <time>2025-08-06T06:15:00Z</time>
      </trkpt>
      <trkpt lat="48.33769" lon="7.66398">
        <ele>170</ele>
        <time>2025-08-06T06:15:01Z</time>
      </trkpt>
      <trkpt lat="48.33752" lon="7.66369">
        <ele>170.2</ele>
        <time>2025-08-06T06:15:06Z</time>
      </trkpt>
      <trkpt lat="48.33747" lon="7.6636">
        <ele>170.8</ele>
        <time>2025-08-06T06:15:09Z</time>
      </trkpt>
      <trkpt lat="48.33745" lon="7.66361">
        <ele>171</ele>
        <time>2025-08-06T06:15:10Z</time>
      </trkpt>
      <trkpt lat="48.33742" lon="7.66363">
        <ele>171.4</ele>
        <time>2025-08-06T06:15:11Z</time>
      </trkpt>
      <trkpt lat="48.33737" lon="7.66375">
        <ele>172.2</ele>
        <time>2025-08-06T06:15:14Z</time>
      </trkpt>
      <trkpt lat="48.33736" lon="7.6638">
        <ele>172.6</ele>
        <time>2025-08-06T06:15:15Z</time>
      </trkpt>
      <trkpt lat="48.33727" lon="7.66409">
        <ele>173.2</ele>
        <time>2025-08-06T06:15:21Z</time>
      </trkpt>
      <trkpt lat="48.33725" lon="7.66411">
        <ele>173.2</ele>
        <time>2025-08-06T06:15:22Z</time>
      </trkpt>
      <trkpt lat="48.3372" lon="7.66408">
        <ele>173</ele>
        <time>2025-08-06T06:15:24Z</time>
      </trkpt>
      <trkpt lat="48.33713" lon="7.66394">
        <ele>172.8</ele>
        <time>2025-08-06T06:15:27Z</time>
      </trkpt>
      <trkpt lat="48.33708" lon="7.66389">
        <ele>172.6</ele>
        <time>2025-08-06T06:15:28Z</time>
      </trkpt>
      <trkpt lat="48.33704" lon="7.66385">
        <ele>172.6</ele>
        <time>2025-08-06T06:15:29Z</time>
      </trkpt>
      <trkpt lat="48.33685" lon="7.66372">
        <ele>172.4</ele>
        <time>2025-08-06T06:15:32Z</time>
      </trkpt>
      <trkpt lat="48.33643" lon="7.6634">
        <ele>171.6</ele>
        <time>2025-08-06T06:15:39Z</time>
      </trkpt>
      <trkpt lat="48.33637" lon="7.66336">
        <ele>171.6</ele>
        <time>2025-08-06T06:15:40Z</time>
      </trkpt>
      <trkpt lat="48.33595" lon="7.66305">
        <ele>171.4</ele>
        <time>2025-08-06T06:15:47Z</time>
      </trkpt>
      <trkpt lat="48.33558" lon="7.66279">
        <ele>171.4</ele>
        <time>2025-08-06T06:15:53Z</time>
      </trkpt>
      <trkpt lat="48.33545" lon="7.66269">
        <ele>171.2</ele>
        <time>2025-08-06T06:15:55Z</time>
      </trkpt>
      <trkpt lat="48.33525" lon="7.66254">
        <ele>171.2</ele>
        <time>2025-08-06T06:15:58Z</time>
      </trkpt>
      <trkpt lat="48.33473" lon="7.6621">
        <ele>171</ele>
        <time>2025-08-06T06:16:06Z</time>
      </trkpt>
      <trkpt lat="48.3343" lon="7.66177">
        <ele>171.2</ele>
        <time>2025-08-06T06:16:13Z</time>
      </trkpt>
      <trkpt lat="48.334" lon="7.66154">
        <ele>171.4</ele>
        <time>2025-08-06T06:16:18Z</time>
      </trkpt>
      <trkpt lat="48.33362" lon="7.66125">
        <ele>171.2</ele>
        <time>2025-08-06T06:16:24Z</time>
      </trkpt>
      <trkpt lat="48.33326" lon="7.661">
        <ele>171.2</ele>
        <time>2025-08-06T06:16:30Z</time>
      </trkpt>
      <trkpt lat="48.33289" lon="7.66066">
        <ele>171.6</ele>
        <time>2025-08-06T06:16:36Z</time>
      </trkpt>
      <trkpt lat="48.3324" lon="7.6603">
        <ele>171.6</ele>
        <time>2025-08-06T06:16:43Z</time>
      </trkpt>
      <trkpt lat="48.33221" lon="7.66014">
        <ele>171.6</ele>
        <time>2025-08-06T06:16:46Z</time>
      </trkpt>
      <trkpt lat="48.33202" lon="7.65999">
        <ele>171.6</ele>
        <time>2025-08-06T06:16:49Z</time>
      </trkpt>
      <trkpt lat="48.33151" lon="7.6596">
        <ele>171.6</ele>
        <time>2025-08-06T06:16:57Z</time>
      </trkpt>
      <trkpt lat="48.33145" lon="7.65955">
        <ele>171.6</ele>
        <time>2025-08-06T06:16:58Z</time>
      </trkpt>
      <trkpt lat="48.33097" lon="7.65918">
        <ele>171.6</ele>
        <time>2025-08-06T06:17:06Z</time>
      </trkpt>
      <trkpt lat="48.3309" lon="7.65914">
        <ele>171.6</ele>
        <time>2025-08-06T06:17:07Z</time>
      </trkpt>
      <trkpt lat="48.3304" lon="7.65874">
        <ele>171.6</ele>
        <time>2025-08-06T06:17:15Z</time>
      </trkpt>
      <trkpt lat="48.3299" lon="7.65834">
        <ele>171.6</ele>
        <time>2025-08-06T06:17:23Z</time>
      </trkpt>
      <trkpt lat="48.3297" lon="7.6582">
        <ele>171.4</ele>
        <time>2025-08-06T06:17:26Z</time>
      </trkpt>
      <trkpt lat="48.3292" lon="7.65782">
        <ele>171.4</ele>
        <time>2025-08-06T06:17:34Z</time>
      </trkpt>
      <trkpt lat="48.32867" lon="7.65742">
        <ele>171.4</ele>
        <time>2025-08-06T06:17:42Z</time>
      </trkpt>
      <trkpt lat="48.32834" lon="7.65717">
        <ele>171.4</ele>
        <time>2025-08-06T06:17:47Z</time>
      </trkpt>
      <trkpt lat="48.32828" lon="7.65713">
        <ele>171.4</ele>
        <time>2025-08-06T06:17:48Z</time>
      </trkpt>
      <trkpt lat="48.32801" lon="7.65693">
        <ele>171.4</ele>
        <time>2025-08-06T06:17:51Z</time>
      </trkpt>
      <trkpt lat="48.3279" lon="7.65682">
        <ele>171.4</ele>
        <time>2025-08-06T06:17:54Z</time>
      </trkpt>
      <trkpt lat="48.32776" lon="7.65672">
        <ele>171.4</ele>
        <time>2025-08-06T06:17:55Z</time>
      </trkpt>
      <trkpt lat="48.32753" lon="7.65656">
        <ele>171.4</ele>
        <time>2025-08-06T06:17:58Z</time>
      </trkpt>
      <trkpt lat="48.32747" lon="7.65651">
        <ele>171.4</ele>
        <time>2025-08-06T06:18:00Z</time>
      </trkpt>
      <trkpt lat="48.3272" lon="7.65625">
        <ele>171.4</ele>
        <time>2025-08-06T06:18:04Z</time>
      </trkpt>
      <trkpt lat="48.32701" lon="7.6561">
        <ele>171.4</ele>
        <time>2025-08-06T06:18:07Z</time>
      </trkpt>
      <trkpt lat="48.32656" lon="7.65576">
        <ele>171.6</ele>
        <time>2025-08-06T06:18:15Z</time>
      </trkpt>
      <trkpt lat="48.32618" lon="7.65546">
        <ele>171.6</ele>
        <time>2025-08-06T06:18:20Z</time>
      </trkpt>
      <trkpt lat="48.32586" lon="7.65522">
        <ele>171.4</ele>
        <time>2025-08-06T06:18:25Z</time>
      </trkpt>
      <trkpt lat="48.32547" lon="7.65496">
        <ele>171.4</ele>
        <time>2025-08-06T06:18:31Z</time>
      </trkpt>
      <trkpt lat="48.32514" lon="7.6547">
        <ele>171.4</ele>
        <time>2025-08-06T06:18:36Z</time>
      </trkpt>
      <trkpt lat="48.32478" lon="7.6544">
        <ele>171.4</ele>
        <time>2025-08-06T06:18:42Z</time>
      </trkpt>
      <trkpt lat="48.32425" lon="7.65401">
        <ele>171.4</ele>
        <time>2025-08-06T06:18:49Z</time>
      </trkpt>
      <trkpt lat="48.32379" lon="7.65365">
        <ele>171.4</ele>
        <time>2025-08-06T06:18:56Z</time>
      </trkpt>
      <trkpt lat="48.32339" lon="7.65335">
        <ele>171.4</ele>
        <time>2025-08-06T06:19:03Z</time>
      </trkpt>
      <trkpt lat="48.3229" lon="7.65297">
        <ele>171.4</ele>
        <time>2025-08-06T06:19:11Z</time>
      </trkpt>
      <trkpt lat="48.32283" lon="7.65292">
        <ele>171.4</ele>
        <time>2025-08-06T06:19:12Z</time>
      </trkpt>
      <trkpt lat="48.32257" lon="7.65274">
        <ele>171.6</ele>
        <time>2025-08-06T06:19:16Z</time>
      </trkpt>
      <trkpt lat="48.3222" lon="7.65245">
        <ele>171.8</ele>
        <time>2025-08-06T06:19:23Z</time>
      </trkpt>
      <trkpt lat="48.3217" lon="7.65204">
        <ele>171.6</ele>
        <time>2025-08-06T06:19:30Z</time>
      </trkpt>
      <trkpt lat="48.32117" lon="7.65163">
        <ele>171.4</ele>
        <time>2025-08-06T06:19:38Z</time>
      </trkpt>
      <trkpt lat="48.32065" lon="7.65124">
        <ele>171</ele>
        <time>2025-08-06T06:19:46Z</time>
      </trkpt>
      <trkpt lat="48.32046" lon="7.65109">
        <ele>171</ele>
        <time>2025-08-06T06:19:49Z</time>
      </trkpt>
      <trkpt lat="48.31995" lon="7.6507">
        <ele>170.8</ele>
        <time>2025-08-06T06:19:57Z</time>
      </trkpt>
      <trkpt lat="48.31971" lon="7.65051">
        <ele>170.8</ele>
        <time>2025-08-06T06:20:01Z</time>
      </trkpt>
      <trkpt lat="48.31943" lon="7.65035">
        <ele>171.2</ele>
        <time>2025-08-06T06:20:06Z</time>
      </trkpt>
      <trkpt lat="48.3193" lon="7.65026">
        <ele>172</ele>
        <time>2025-08-06T06:20:11Z</time>
      </trkpt>
      <trkpt lat="48.31931" lon="7.65016">
        <ele>173.2</ele>
        <time>2025-08-06T06:20:14Z</time>
      </trkpt>
      <trkpt lat="48.31932" lon="7.65011">
        <ele>173.4</ele>
        <time>2025-08-06T06:20:15Z</time>
      </trkpt>
      <trkpt lat="48.31938" lon="7.64999">
        <ele>174.4</ele>
        <time>2025-08-06T06:20:18Z</time>
      </trkpt>
      <trkpt lat="48.31943" lon="7.64989">
        <ele>174.6</ele>
        <time>2025-08-06T06:20:21Z</time>
      </trkpt>
      <trkpt lat="48.31951" lon="7.64994">
        <ele>174.6</ele>
        <time>2025-08-06T06:20:24Z</time>
      </trkpt>
      <trkpt lat="48.31963" lon="7.65005">
        <ele>174.6</ele>
        <time>2025-08-06T06:20:28Z</time>
      </trkpt>
      <trkpt lat="48.31967" lon="7.65011">
        <ele>174.4</ele>
        <time>2025-08-06T06:20:29Z</time>
      </trkpt>
      <trkpt lat="48.31967" lon="7.65014">
        <ele>173.8</ele>
        <time>2025-08-06T06:20:30Z</time>
      </trkpt>
      <trkpt lat="48.31965" lon="7.65016">
        <ele>173.4</ele>
        <time>2025-08-06T06:20:31Z</time>
      </trkpt>
      <trkpt lat="48.31959" lon="7.65013">
        <ele>172.2</ele>
        <time>2025-08-06T06:20:33Z</time>
      </trkpt>
      <trkpt lat="48.31953" lon="7.65006">
        <ele>171.2</ele>
        <time>2025-08-06T06:20:35Z</time>
      </trkpt>
      <trkpt lat="48.31941" lon="7.64999">
        <ele>170.8</ele>
        <time>2025-08-06T06:20:38Z</time>
      </trkpt>
      <trkpt lat="48.31932" lon="7.64995">
        <ele>170.6</ele>
        <time>2025-08-06T06:20:40Z</time>
      </trkpt>
      <trkpt lat="48.31925" lon="7.64989">
        <ele>170.8</ele>
        <time>2025-08-06T06:20:42Z</time>
      </trkpt>
      <trkpt lat="48.31909" lon="7.64976">
        <ele>171.4</ele>
        <time>2025-08-06T06:20:46Z</time>
      </trkpt>
      <trkpt lat="48.31903" lon="7.64968">
        <ele>171.8</ele>
        <time>2025-08-06T06:20:48Z</time>
      </trkpt>
      <trkpt lat="48.31898" lon="7.64958">
        <ele>172.2</ele>
        <time>2025-08-06T06:20:50Z</time>
      </trkpt>
      <trkpt lat="48.31891" lon="7.6495">
        <ele>172.4</ele>
        <time>2025-08-06T06:20:52Z</time>
      </trkpt>
      <trkpt lat="48.31882" lon="7.64942">
        <ele>172.6</ele>
        <time>2025-08-06T06:20:54Z</time>
      </trkpt>
      <trkpt lat="48.3186" lon="7.64924">
        <ele>172.8</ele>
        <time>2025-08-06T06:20:59Z</time>
      </trkpt>
      <trkpt lat="48.31841" lon="7.64908">
        <ele>172.8</ele>
        <time>2025-08-06T06:21:03Z</time>
      </trkpt>
      <trkpt lat="48.31837" lon="7.64905">
        <ele>172.8</ele>
        <time>2025-08-06T06:21:04Z</time>
      </trkpt>
      <trkpt lat="48.3182" lon="7.64891">
        <ele>173.2</ele>
        <time>2025-08-06T06:21:09Z</time>
      </trkpt>
      <trkpt lat="48.31803" lon="7.64879">
        <ele>173.2</ele>
        <time>2025-08-06T06:21:11Z</time>
      </trkpt>
      <trkpt lat="48.31784" lon="7.64868">
        <ele>173.2</ele>
        <time>2025-08-06T06:21:14Z</time>
      </trkpt>
      <trkpt lat="48.31778" lon="7.64865">
        <ele>173.2</ele>
        <time>2025-08-06T06:21:15Z</time>
      </trkpt>
      <trkpt lat="48.31754" lon="7.6485">
        <ele>173.2</ele>
        <time>2025-08-06T06:21:19Z</time>
      </trkpt>
      <trkpt lat="48.31723" lon="7.64828">
        <ele>173</ele>
        <time>2025-08-06T06:21:24Z</time>
      </trkpt>
      <trkpt lat="48.3171" lon="7.6482">
        <ele>173</ele>
        <time>2025-08-06T06:21:26Z</time>
      </trkpt>
      <trkpt lat="48.31669" lon="7.64788">
        <ele>173.2</ele>
        <time>2025-08-06T06:21:33Z</time>
      </trkpt>
      <trkpt lat="48.31628" lon="7.64756">
        <ele>173.2</ele>
        <time>2025-08-06T06:21:40Z</time>
      </trkpt>
      <trkpt lat="48.31579" lon="7.64718">
        <ele>173</ele>
        <time>2025-08-06T06:21:48Z</time>
      </trkpt>
      <trkpt lat="48.31567" lon="7.64709">
        <ele>173</ele>
        <time>2025-08-06T06:21:50Z</time>
      </trkpt>
      <trkpt lat="48.31531" lon="7.6468">
        <ele>173.2</ele>
        <time>2025-08-06T06:21:56Z</time>
      </trkpt>
      <trkpt lat="48.31483" lon="7.64642">
        <ele>173.2</ele>
        <time>2025-08-06T06:22:04Z</time>
      </trkpt>
      <trkpt lat="48.31435" lon="7.64603">
        <ele>173.4</ele>
        <time>2025-08-06T06:22:12Z</time>
      </trkpt>
      <trkpt lat="48.31379" lon="7.64562">
        <ele>173.4</ele>
        <time>2025-08-06T06:22:21Z</time>
      </trkpt>
      <trkpt lat="48.31331" lon="7.64525">
        <ele>173.6</ele>
        <time>2025-08-06T06:22:29Z</time>
      </trkpt>
      <trkpt lat="48.31282" lon="7.64488">
        <ele>173.6</ele>
        <time>2025-08-06T06:22:37Z</time>
      </trkpt>
      <trkpt lat="48.31264" lon="7.64474">
        <ele>173.6</ele>
        <time>2025-08-06T06:22:40Z</time>
      </trkpt>
      <trkpt lat="48.31234" lon="7.64451">
        <ele>173.4</ele>
        <time>2025-08-06T06:22:45Z</time>
      </trkpt>
      <trkpt lat="48.31181" lon="7.64409">
        <ele>173.6</ele>
        <time>2025-08-06T06:22:54Z</time>
      </trkpt>
      <trkpt lat="48.31146" lon="7.64382">
        <ele>173.8</ele>
        <time>2025-08-06T06:23:00Z</time>
      </trkpt>
      <trkpt lat="48.31141" lon="7.64378">
        <ele>173.8</ele>
        <time>2025-08-06T06:23:02Z</time>
      </trkpt>
      <trkpt lat="48.31114" lon="7.64356">
        <ele>173.8</ele>
        <time>2025-08-06T06:23:07Z</time>
      </trkpt>
      <trkpt lat="48.31062" lon="7.64318">
        <ele>173.8</ele>
        <time>2025-08-06T06:23:14Z</time>
      </trkpt>
      <trkpt lat="48.3101" lon="7.64278">
        <ele>173.8</ele>
        <time>2025-08-06T06:23:22Z</time>
      </trkpt>
      <trkpt lat="48.30986" lon="7.64258">
        <ele>173.8</ele>
        <time>2025-08-06T06:23:26Z</time>
      </trkpt>
      <trkpt lat="48.30942" lon="7.64227">
        <ele>173.8</ele>
        <time>2025-08-06T06:23:33Z</time>
      </trkpt>
      <trkpt lat="48.3089" lon="7.64185">
        <ele>174</ele>
        <time>2025-08-06T06:23:42Z</time>
      </trkpt>
      <trkpt lat="48.30848" lon="7.64152">
        <ele>174</ele>
        <time>2025-08-06T06:23:49Z</time>
      </trkpt>
      <trkpt lat="48.308" lon="7.64114">
        <ele>174</ele>
        <time>2025-08-06T06:23:57Z</time>
      </trkpt>
      <trkpt lat="48.30794" lon="7.64109">
        <ele>174</ele>
        <time>2025-08-06T06:23:58Z</time>
      </trkpt>
      <trkpt lat="48.30765" lon="7.64087">
        <ele>174.2</ele>
        <time>2025-08-06T06:24:03Z</time>
      </trkpt>
      <trkpt lat="48.30726" lon="7.64057">
        <ele>174.2</ele>
        <time>2025-08-06T06:24:09Z</time>
      </trkpt>
      <trkpt lat="48.30692" lon="7.64028">
        <ele>174.2</ele>
        <time>2025-08-06T06:24:15Z</time>
      </trkpt>
      <trkpt lat="48.30672" lon="7.6401">
        <ele>174.2</ele>
        <time>2025-08-06T06:24:19Z</time>
      </trkpt>
      <trkpt lat="48.30633" lon="7.63982">
        <ele>174.4</ele>
        <time>2025-08-06T06:24:25Z</time>
      </trkpt>
      <trkpt lat="48.30613" lon="7.6397">
        <ele>174.2</ele>
        <time>2025-08-06T06:24:28Z</time>
      </trkpt>
      <trkpt lat="48.30599" lon="7.63962">
        <ele>174.4</ele>
        <time>2025-08-06T06:24:30Z</time>
      </trkpt>
      <trkpt lat="48.30592" lon="7.63958">
        <ele>174.4</ele>
        <time>2025-08-06T06:24:31Z</time>
      </trkpt>
      <trkpt lat="48.30568" lon="7.63943">
        <ele>174.4</ele>
        <time>2025-08-06T06:24:35Z</time>
      </trkpt>
      <trkpt lat="48.30553" lon="7.63938">
        <ele>174.4</ele>
        <time>2025-08-06T06:24:38Z</time>
      </trkpt>
      <trkpt lat="48.30549" lon="7.63933">
        <ele>174.6</ele>
        <time>2025-08-06T06:24:39Z</time>
      </trkpt>
      <trkpt lat="48.30534" lon="7.6392">
        <ele>174.8</ele>
        <time>2025-08-06T06:24:42Z</time>
      </trkpt>
      <trkpt lat="48.30524" lon="7.63911">
        <ele>175</ele>
        <time>2025-08-06T06:24:44Z</time>
      </trkpt>
      <trkpt lat="48.3052" lon="7.63906">
        <ele>175.2</ele>
        <time>2025-08-06T06:24:45Z</time>
      </trkpt>
      <trkpt lat="48.30516" lon="7.63901">
        <ele>175.4</ele>
        <time>2025-08-06T06:24:46Z</time>
      </trkpt>
      <trkpt lat="48.30496" lon="7.63883">
        <ele>175.8</ele>
        <time>2025-08-06T06:24:50Z</time>
      </trkpt>
      <trkpt lat="48.30454" lon="7.63848">
        <ele>176.2</ele>
        <time>2025-08-06T06:24:58Z</time>
      </trkpt>
      <trkpt lat="48.30411" lon="7.63816">
        <ele>176.2</ele>
        <time>2025-08-06T06:25:05Z</time>
      </trkpt>
      <trkpt lat="48.30405" lon="7.63812">
        <ele>176.4</ele>
        <time>2025-08-06T06:25:06Z</time>
      </trkpt>
      <trkpt lat="48.30374" lon="7.63788">
        <ele>176.4</ele>
        <time>2025-08-06T06:25:11Z</time>
      </trkpt>
      <trkpt lat="48.30322" lon="7.63745">
        <ele>176.6</ele>
        <time>2025-08-06T06:25:20Z</time>
      </trkpt>
      <trkpt lat="48.30316" lon="7.6374">
        <ele>176.6</ele>
        <time>2025-08-06T06:25:21Z</time>
      </trkpt>
      <trkpt lat="48.30275" lon="7.63705">
        <ele>176.6</ele>
        <time>2025-08-06T06:25:28Z</time>
      </trkpt>
      <trkpt lat="48.30237" lon="7.63681">
        <ele>176.8</ele>
        <time>2025-08-06T06:25:34Z</time>
      </trkpt>
      <trkpt lat="48.30193" lon="7.63649">
        <ele>176.6</ele>
        <time>2025-08-06T06:25:41Z</time>
      </trkpt>
      <trkpt lat="48.30154" lon="7.63622">
        <ele>176.6</ele>
        <time>2025-08-06T06:25:47Z</time>
      </trkpt>
      <trkpt lat="48.30134" lon="7.63607">
        <ele>176.8</ele>
        <time>2025-08-06T06:25:50Z</time>
      </trkpt>
      <trkpt lat="48.30128" lon="7.63601">
        <ele>177</ele>
        <time>2025-08-06T06:25:51Z</time>
      </trkpt>
      <trkpt lat="48.30078" lon="7.63561">
        <ele>176.8</ele>
        <time>2025-08-06T06:25:59Z</time>
      </trkpt>
      <trkpt lat="48.30072" lon="7.63556">
        <ele>176.6</ele>
        <time>2025-08-06T06:26:00Z</time>
      </trkpt>
      <trkpt lat="48.3003" lon="7.63522">
        <ele>176.6</ele>
        <time>2025-08-06T06:26:07Z</time>
      </trkpt>
      <trkpt lat="48.29994" lon="7.63495">
        <ele>176.6</ele>
        <time>2025-08-06T06:26:13Z</time>
      </trkpt>
      <trkpt lat="48.2995" lon="7.63461">
        <ele>176.6</ele>
        <time>2025-08-06T06:26:20Z</time>
      </trkpt>
      <trkpt lat="48.29901" lon="7.63423">
        <ele>176.4</ele>
        <time>2025-08-06T06:26:28Z</time>
      </trkpt>
      <trkpt lat="48.29888" lon="7.63413">
        <ele>176.4</ele>
        <time>2025-08-06T06:26:30Z</time>
      </trkpt>
      <trkpt lat="48.2984" lon="7.63376">
        <ele>176.6</ele>
        <time>2025-08-06T06:26:38Z</time>
      </trkpt>
      <trkpt lat="48.29828" lon="7.63366">
        <ele>176.8</ele>
        <time>2025-08-06T06:26:40Z</time>
      </trkpt>
      <trkpt lat="48.29791" lon="7.63339">
        <ele>177</ele>
        <time>2025-08-06T06:26:46Z</time>
      </trkpt>
      <trkpt lat="48.29739" lon="7.63298">
        <ele>177.2</ele>
        <time>2025-08-06T06:26:55Z</time>
      </trkpt>
      <trkpt lat="48.29733" lon="7.63293">
        <ele>177.2</ele>
        <time>2025-08-06T06:26:56Z</time>
      </trkpt>
      <trkpt lat="48.29707" lon="7.6327">
        <ele>177.2</ele>
        <time>2025-08-06T06:27:01Z</time>
      </trkpt>
      <trkpt lat="48.29668" lon="7.63242">
        <ele>177</ele>
        <time>2025-08-06T06:27:08Z</time>
      </trkpt>
      <trkpt lat="48.29624" lon="7.6321">
        <ele>177.2</ele>
        <time>2025-08-06T06:27:14Z</time>
      </trkpt>
      <trkpt lat="48.2958" lon="7.63179">
        <ele>177.2</ele>
        <time>2025-08-06T06:27:21Z</time>
      </trkpt>
      <trkpt lat="48.29538" lon="7.63145">
        <ele>177.2</ele>
        <time>2025-08-06T06:27:28Z</time>
      </trkpt>
      <trkpt lat="48.29488" lon="7.63107">
        <ele>177.2</ele>
        <time>2025-08-06T06:27:36Z</time>
      </trkpt>
      <trkpt lat="48.29482" lon="7.63103">
        <ele>177.2</ele>
        <time>2025-08-06T06:27:37Z</time>
      </trkpt>
      <trkpt lat="48.29433" lon="7.63065">
        <ele>177.2</ele>
        <time>2025-08-06T06:27:45Z</time>
      </trkpt>
      <trkpt lat="48.29421" lon="7.63055">
        <ele>177.2</ele>
        <time>2025-08-06T06:27:47Z</time>
      </trkpt>
      <trkpt lat="48.29375" lon="7.63018">
        <ele>177.2</ele>
        <time>2025-08-06T06:27:55Z</time>
      </trkpt>
      <trkpt lat="48.29326" lon="7.6298">
        <ele>177</ele>
        <time>2025-08-06T06:28:03Z</time>
      </trkpt>
      <trkpt lat="48.29282" lon="7.62948">
        <ele>177.4</ele>
        <time>2025-08-06T06:28:10Z</time>
      </trkpt>
      <trkpt lat="48.29233" lon="7.62911">
        <ele>177.2</ele>
        <time>2025-08-06T06:28:18Z</time>
      </trkpt>
      <trkpt lat="48.29184" lon="7.62874">
        <ele>177.2</ele>
        <time>2025-08-06T06:28:26Z</time>
      </trkpt>
      <trkpt lat="48.29177" lon="7.62869">
        <ele>177.2</ele>
        <time>2025-08-06T06:28:27Z</time>
      </trkpt>
      <trkpt lat="48.29125" lon="7.62826">
        <ele>177.2</ele>
        <time>2025-08-06T06:28:36Z</time>
      </trkpt>
      <trkpt lat="48.29083" lon="7.62794">
        <ele>177.2</ele>
        <time>2025-08-06T06:28:43Z</time>
      </trkpt>
      <trkpt lat="48.29037" lon="7.6276">
        <ele>177.2</ele>
        <time>2025-08-06T06:28:50Z</time>
      </trkpt>
      <trkpt lat="48.28988" lon="7.62722">
        <ele>177.2</ele>
        <time>2025-08-06T06:28:58Z</time>
      </trkpt>
      <trkpt lat="48.28964" lon="7.62704">
        <ele>177.2</ele>
        <time>2025-08-06T06:29:02Z</time>
      </trkpt>
      <trkpt lat="48.28921" lon="7.62672">
        <ele>177.2</ele>
        <time>2025-08-06T06:29:09Z</time>
      </trkpt>
      <trkpt lat="48.2888" lon="7.6264">
        <ele>177.4</ele>
        <time>2025-08-06T06:29:16Z</time>
      </trkpt>
      <trkpt lat="48.2883" lon="7.62602">
        <ele>177.2</ele>
        <time>2025-08-06T06:29:24Z</time>
      </trkpt>
      <trkpt lat="48.28801" lon="7.62579">
        <ele>177.4</ele>
        <time>2025-08-06T06:29:29Z</time>
      </trkpt>
      <trkpt lat="48.2876" lon="7.62545">
        <ele>177.4</ele>
        <time>2025-08-06T06:29:36Z</time>
      </trkpt>
      <trkpt lat="48.28729" lon="7.62522">
        <ele>177.4</ele>
        <time>2025-08-06T06:29:41Z</time>
      </trkpt>
      <trkpt lat="48.2868" lon="7.62482">
        <ele>177.2</ele>
        <time>2025-08-06T06:29:49Z</time>
      </trkpt>
      <trkpt lat="48.28667" lon="7.62473">
        <ele>177.2</ele>
        <time>2025-08-06T06:29:51Z</time>
      </trkpt>
      <trkpt lat="48.28622" lon="7.6244">
        <ele>177.2</ele>
        <time>2025-08-06T06:29:58Z</time>
      </trkpt>
      <trkpt lat="48.28573" lon="7.62403">
        <ele>177.2</ele>
        <time>2025-08-06T06:30:06Z</time>
      </trkpt>
      <trkpt lat="48.28523" lon="7.62365">
        <ele>177.2</ele>
        <time>2025-08-06T06:30:14Z</time>
      </trkpt>
      <trkpt lat="48.28474" lon="7.62327">
        <ele>177.2</ele>
        <time>2025-08-06T06:30:22Z</time>
      </trkpt>
      <trkpt lat="48.28468" lon="7.62322">
        <ele>177</ele>
        <time>2025-08-06T06:30:23Z</time>
      </trkpt>
      <trkpt lat="48.28435" lon="7.62294">
        <ele>177.2</ele>
        <time>2025-08-06T06:30:29Z</time>
      </trkpt>
      <trkpt lat="48.28394" lon="7.62263">
        <ele>177.4</ele>
        <time>2025-08-06T06:30:36Z</time>
      </trkpt>
      <trkpt lat="48.28389" lon="7.62258">
        <ele>177.4</ele>
        <time>2025-08-06T06:30:37Z</time>
      </trkpt>
      <trkpt lat="48.28358" lon="7.62235">
        <ele>177.4</ele>
        <time>2025-08-06T06:30:42Z</time>
      </trkpt>
      <trkpt lat="48.2831" lon="7.62197">
        <ele>177.2</ele>
        <time>2025-08-06T06:30:50Z</time>
      </trkpt>
      <trkpt lat="48.28258" lon="7.62159">
        <ele>177.6</ele>
        <time>2025-08-06T06:30:58Z</time>
      </trkpt>
      <trkpt lat="48.28204" lon="7.6212">
        <ele>177.2</ele>
        <time>2025-08-06T06:31:06Z</time>
      </trkpt>
      <trkpt lat="48.28191" lon="7.62111">
        <ele>177.2</ele>
        <time>2025-08-06T06:31:08Z</time>
      </trkpt>
      <trkpt lat="48.28139" lon="7.62069">
        <ele>177</ele>
        <time>2025-08-06T06:31:17Z</time>
      </trkpt>
      <trkpt lat="48.2812" lon="7.62055">
        <ele>177</ele>
        <time>2025-08-06T06:31:21Z</time>
      </trkpt>
      <trkpt lat="48.28118" lon="7.6205">
        <ele>177</ele>
        <time>2025-08-06T06:31:22Z</time>
      </trkpt>
      <trkpt lat="48.28118" lon="7.62045">
        <ele>177</ele>
        <time>2025-08-06T06:31:23Z</time>
      </trkpt>
      <trkpt lat="48.28119" lon="7.62039">
        <ele>177</ele>
        <time>2025-08-06T06:31:25Z</time>
      </trkpt>
      <trkpt lat="48.28119" lon="7.62036">
        <ele>176.8</ele>
        <time>2025-08-06T06:31:29Z</time>
      </trkpt>
      <trkpt lat="48.28122" lon="7.62029">
        <ele>176.6</ele>
        <time>2025-08-06T06:32:43Z</time>
      </trkpt>
      <trkpt lat="48.28125" lon="7.62021">
        <ele>176.6</ele>
        <time>2025-08-06T06:32:45Z</time>
      </trkpt>
      <trkpt lat="48.2813" lon="7.61987">
        <ele>176.2</ele>
        <time>2025-08-06T06:32:52Z</time>
      </trkpt>
      <trkpt lat="48.28132" lon="7.61967">
        <ele>176.2</ele>
        <time>2025-08-06T06:32:55Z</time>
      </trkpt>
      <trkpt lat="48.28131" lon="7.61953">
        <ele>176.2</ele>
        <time>2025-08-06T06:32:57Z</time>
      </trkpt>
      <trkpt lat="48.28124" lon="7.61914">
        <ele>176.4</ele>
        <time>2025-08-06T06:33:03Z</time>
      </trkpt>
      <trkpt lat="48.28123" lon="7.61908">
        <ele>176.6</ele>
        <time>2025-08-06T06:33:04Z</time>
      </trkpt>
      <trkpt lat="48.28118" lon="7.61894">
        <ele>177.4</ele>
        <time>2025-08-06T06:33:08Z</time>
      </trkpt>
      <trkpt lat="48.28114" lon="7.61878">
        <ele>178</ele>
        <time>2025-08-06T06:33:12Z</time>
      </trkpt>
      <trkpt lat="48.2811" lon="7.61842">
        <ele>177.6</ele>
        <time>2025-08-06T06:33:17Z</time>
      </trkpt>
      <trkpt lat="48.28112" lon="7.61784">
        <ele>177.4</ele>
        <time>2025-08-06T06:33:24Z</time>
      </trkpt>
      <trkpt lat="48.28123" lon="7.61714">
        <ele>176.8</ele>
        <time>2025-08-06T06:33:32Z</time>
      </trkpt>
      <trkpt lat="48.28139" lon="7.61634">
        <ele>176.8</ele>
        <time>2025-08-06T06:33:41Z</time>
      </trkpt>
      <trkpt lat="48.28155" lon="7.61575">
        <ele>176.6</ele>
        <time>2025-08-06T06:33:48Z</time>
      </trkpt>
      <trkpt lat="48.28157" lon="7.61567">
        <ele>176.6</ele>
        <time>2025-08-06T06:33:49Z</time>
      </trkpt>
      <trkpt lat="48.28171" lon="7.6151">
        <ele>176.8</ele>
        <time>2025-08-06T06:33:56Z</time>
      </trkpt>
      <trkpt lat="48.28177" lon="7.61485">
        <ele>177</ele>
        <time>2025-08-06T06:33:59Z</time>
      </trkpt>
      <trkpt lat="48.28184" lon="7.6146">
        <ele>177</ele>
        <time>2025-08-06T06:34:02Z</time>
      </trkpt>
      <trkpt lat="48.28198" lon="7.61411">
        <ele>176.8</ele>
        <time>2025-08-06T06:34:08Z</time>
      </trkpt>
      <trkpt lat="48.28217" lon="7.61332">
        <ele>176.8</ele>
        <time>2025-08-06T06:34:17Z</time>
      </trkpt>
      <trkpt lat="48.28231" lon="7.61263">
        <ele>177</ele>
        <time>2025-08-06T06:34:25Z</time>
      </trkpt>
      <trkpt lat="48.28246" lon="7.61181">
        <ele>176.6</ele>
        <time>2025-08-06T06:34:34Z</time>
      </trkpt>
      <trkpt lat="48.2826" lon="7.61102">
        <ele>176.8</ele>
        <time>2025-08-06T06:34:43Z</time>
      </trkpt>
      <trkpt lat="48.28274" lon="7.61022">
        <ele>177</ele>
        <time>2025-08-06T06:34:52Z</time>
      </trkpt>
      <trkpt lat="48.28286" lon="7.60968">
        <ele>176.6</ele>
        <time>2025-08-06T06:34:58Z</time>
      </trkpt>
      <trkpt lat="48.28306" lon="7.60889">
        <ele>176.6</ele>
        <time>2025-08-06T06:35:07Z</time>
      </trkpt>
      <trkpt lat="48.28309" lon="7.6088">
        <ele>176.6</ele>
        <time>2025-08-06T06:35:08Z</time>
      </trkpt>
      <trkpt lat="48.28319" lon="7.60845">
        <ele>176.6</ele>
        <time>2025-08-06T06:35:12Z</time>
      </trkpt>
      <trkpt lat="48.28331" lon="7.60803">
        <ele>176.4</ele>
        <time>2025-08-06T06:35:17Z</time>
      </trkpt>
      <trkpt lat="48.28341" lon="7.60772">
        <ele>176.4</ele>
        <time>2025-08-06T06:35:21Z</time>
      </trkpt>
      <trkpt lat="48.2835" lon="7.60749">
        <ele>176.6</ele>
        <time>2025-08-06T06:35:24Z</time>
      </trkpt>
      <trkpt lat="48.28374" lon="7.60705">
        <ele>177</ele>
        <time>2025-08-06T06:35:30Z</time>
      </trkpt>
      <trkpt lat="48.28383" lon="7.60693">
        <ele>177</ele>
        <time>2025-08-06T06:35:32Z</time>
      </trkpt>
      <trkpt lat="48.28408" lon="7.60662">
        <ele>176.8</ele>
        <time>2025-08-06T06:35:37Z</time>
      </trkpt>
      <trkpt lat="48.28444" lon="7.6061">
        <ele>176.6</ele>
        <time>2025-08-06T06:35:45Z</time>
      </trkpt>
      <trkpt lat="48.28447" lon="7.60602">
        <ele>176.6</ele>
        <time>2025-08-06T06:35:46Z</time>
      </trkpt>
      <trkpt lat="48.2845" lon="7.60594">
        <ele>176.6</ele>
        <time>2025-08-06T06:35:47Z</time>
      </trkpt>
      <trkpt lat="48.28453" lon="7.60575">
        <ele>176.6</ele>
        <time>2025-08-06T06:35:49Z</time>
      </trkpt>
      <trkpt lat="48.28454" lon="7.60566">
        <ele>176.6</ele>
        <time>2025-08-06T06:35:50Z</time>
      </trkpt>
      <trkpt lat="48.28461" lon="7.60482">
        <ele>176.8</ele>
        <time>2025-08-06T06:35:59Z</time>
      </trkpt>
      <trkpt lat="48.28461" lon="7.60473">
        <ele>177</ele>
        <time>2025-08-06T06:36:00Z</time>
      </trkpt>
      <trkpt lat="48.28468" lon="7.60388">
        <ele>177.2</ele>
        <time>2025-08-06T06:36:09Z</time>
      </trkpt>
      <trkpt lat="48.28474" lon="7.60332">
        <ele>177.2</ele>
        <time>2025-08-06T06:36:15Z</time>
      </trkpt>
      <trkpt lat="48.28475" lon="7.60323">
        <ele>177.2</ele>
        <time>2025-08-06T06:36:16Z</time>
      </trkpt>
      <trkpt lat="48.28479" lon="7.60285">
        <ele>177</ele>
        <time>2025-08-06T06:36:20Z</time>
      </trkpt>
      <trkpt lat="48.2848" lon="7.60275">
        <ele>177</ele>
        <time>2025-08-06T06:36:21Z</time>
      </trkpt>
      <trkpt lat="48.28486" lon="7.60237">
        <ele>176.8</ele>
        <time>2025-08-06T06:36:25Z</time>
      </trkpt>
      <trkpt lat="48.28496" lon="7.6015">
        <ele>177</ele>
        <time>2025-08-06T06:36:34Z</time>
      </trkpt>
      <trkpt lat="48.28497" lon="7.6014">
        <ele>177</ele>
        <time>2025-08-06T06:36:35Z</time>
      </trkpt>
      <trkpt lat="48.28506" lon="7.60056">
        <ele>177.2</ele>
        <time>2025-08-06T06:36:44Z</time>
      </trkpt>
      <trkpt lat="48.28516" lon="7.59969">
        <ele>177.4</ele>
        <time>2025-08-06T06:36:53Z</time>
      </trkpt>
      <trkpt lat="48.28517" lon="7.5996">
        <ele>177.4</ele>
        <time>2025-08-06T06:36:54Z</time>
      </trkpt>
      <trkpt lat="48.28534" lon="7.59883">
        <ele>177.6</ele>
        <time>2025-08-06T06:37:02Z</time>
      </trkpt>
      <trkpt lat="48.28557" lon="7.59802">
        <ele>177.4</ele>
        <time>2025-08-06T06:37:11Z</time>
      </trkpt>
      <trkpt lat="48.2856" lon="7.59793">
        <ele>177.4</ele>
        <time>2025-08-06T06:37:12Z</time>
      </trkpt>
      <trkpt lat="48.2858" lon="7.59725">
        <ele>177.2</ele>
        <time>2025-08-06T06:37:20Z</time>
      </trkpt>
      <trkpt lat="48.28594" lon="7.59669">
        <ele>177.2</ele>
        <time>2025-08-06T06:37:26Z</time>
      </trkpt>
      <trkpt lat="48.28608" lon="7.59599">
        <ele>177.2</ele>
        <time>2025-08-06T06:37:33Z</time>
      </trkpt>
      <trkpt lat="48.28623" lon="7.59517">
        <ele>177.4</ele>
        <time>2025-08-06T06:37:41Z</time>
      </trkpt>
      <trkpt lat="48.28625" lon="7.59507">
        <ele>177.4</ele>
        <time>2025-08-06T06:37:42Z</time>
      </trkpt>
      <trkpt lat="48.28639" lon="7.59429">
        <ele>177.2</ele>
        <time>2025-08-06T06:37:50Z</time>
      </trkpt>
      <trkpt lat="48.28655" lon="7.59343">
        <ele>177</ele>
        <time>2025-08-06T06:37:59Z</time>
      </trkpt>
      <trkpt lat="48.28657" lon="7.59333">
        <ele>177</ele>
        <time>2025-08-06T06:38:00Z</time>
      </trkpt>
      <trkpt lat="48.28674" lon="7.59246">
        <ele>176.8</ele>
        <time>2025-08-06T06:38:09Z</time>
      </trkpt>
      <trkpt lat="48.28677" lon="7.59229">
        <ele>177</ele>
        <time>2025-08-06T06:38:11Z</time>
      </trkpt>
      <trkpt lat="48.28692" lon="7.59145">
        <ele>177.4</ele>
        <time>2025-08-06T06:38:20Z</time>
      </trkpt>
      <trkpt lat="48.28697" lon="7.59117">
        <ele>177.4</ele>
        <time>2025-08-06T06:38:23Z</time>
      </trkpt>
      <trkpt lat="48.28712" lon="7.59032">
        <ele>177.2</ele>
        <time>2025-08-06T06:38:32Z</time>
      </trkpt>
      <trkpt lat="48.28729" lon="7.58946">
        <ele>177.4</ele>
        <time>2025-08-06T06:38:41Z</time>
      </trkpt>
      <trkpt lat="48.28744" lon="7.58862">
        <ele>177.6</ele>
        <time>2025-08-06T06:38:50Z</time>
      </trkpt>
      <trkpt lat="48.28746" lon="7.5885">
        <ele>177.6</ele>
        <time>2025-08-06T06:38:51Z</time>
      </trkpt>
      <trkpt lat="48.28762" lon="7.58764">
        <ele>177.8</ele>
        <time>2025-08-06T06:39:00Z</time>
      </trkpt>
      <trkpt lat="48.28768" lon="7.58734">
        <ele>177.6</ele>
        <time>2025-08-06T06:39:03Z</time>
      </trkpt>
      <trkpt lat="48.28785" lon="7.58654">
        <ele>177.8</ele>
        <time>2025-08-06T06:39:11Z</time>
      </trkpt>
      <trkpt lat="48.28789" lon="7.58637">
        <ele>177.6</ele>
        <time>2025-08-06T06:39:13Z</time>
      </trkpt>
      <trkpt lat="48.28806" lon="7.58554">
        <ele>177.4</ele>
        <time>2025-08-06T06:39:21Z</time>
      </trkpt>
      <trkpt lat="48.28808" lon="7.58546">
        <ele>177.4</ele>
        <time>2025-08-06T06:39:22Z</time>
      </trkpt>
      <trkpt lat="48.28825" lon="7.58467">
        <ele>177.4</ele>
        <time>2025-08-06T06:39:30Z</time>
      </trkpt>
      <trkpt lat="48.28836" lon="7.58416">
        <ele>177.6</ele>
        <time>2025-08-06T06:39:35Z</time>
      </trkpt>
      <trkpt lat="48.28846" lon="7.58366">
        <ele>177.8</ele>
        <time>2025-08-06T06:39:40Z</time>
      </trkpt>
      <trkpt lat="48.28859" lon="7.58295">
        <ele>178</ele>
        <time>2025-08-06T06:39:47Z</time>
      </trkpt>
      <trkpt lat="48.28873" lon="7.58215">
        <ele>177.8</ele>
        <time>2025-08-06T06:39:55Z</time>
      </trkpt>
      <trkpt lat="48.28881" lon="7.58175">
        <ele>177.6</ele>
        <time>2025-08-06T06:39:59Z</time>
      </trkpt>
      <trkpt lat="48.28899" lon="7.58088">
        <ele>178</ele>
        <time>2025-08-06T06:40:08Z</time>
      </trkpt>
      <trkpt lat="48.28902" lon="7.58079">
        <ele>178</ele>
        <time>2025-08-06T06:40:09Z</time>
      </trkpt>
      <trkpt lat="48.28919" lon="7.58001">
        <ele>177.8</ele>
        <time>2025-08-06T06:40:17Z</time>
      </trkpt>
      <trkpt lat="48.28931" lon="7.57952">
        <ele>177.8</ele>
        <time>2025-08-06T06:40:22Z</time>
      </trkpt>
      <trkpt lat="48.28952" lon="7.57867">
        <ele>177.6</ele>
        <time>2025-08-06T06:40:31Z</time>
      </trkpt>
      <trkpt lat="48.28959" lon="7.57828">
        <ele>177.6</ele>
        <time>2025-08-06T06:40:35Z</time>
      </trkpt>
      <trkpt lat="48.28971" lon="7.57747">
        <ele>178</ele>
        <time>2025-08-06T06:40:43Z</time>
      </trkpt>
      <trkpt lat="48.28972" lon="7.57739">
        <ele>178</ele>
        <time>2025-08-06T06:40:44Z</time>
      </trkpt>
      <trkpt lat="48.28983" lon="7.5765">
        <ele>178</ele>
        <time>2025-08-06T06:40:53Z</time>
      </trkpt>
      <trkpt lat="48.28984" lon="7.5764">
        <ele>178</ele>
        <time>2025-08-06T06:40:54Z</time>
      </trkpt>
      <trkpt lat="48.28991" lon="7.57559">
        <ele>177.8</ele>
        <time>2025-08-06T06:41:02Z</time>
      </trkpt>
      <trkpt lat="48.28992" lon="7.57539">
        <ele>177.8</ele>
        <time>2025-08-06T06:41:04Z</time>
      </trkpt>
      <trkpt lat="48.28998" lon="7.57457">
        <ele>177.6</ele>
        <time>2025-08-06T06:41:12Z</time>
      </trkpt>
      <trkpt lat="48.29" lon="7.57414">
        <ele>177.6</ele>
        <time>2025-08-06T06:41:16Z</time>
      </trkpt>
      <trkpt lat="48.29003" lon="7.57328">
        <ele>177.6</ele>
        <time>2025-08-06T06:41:25Z</time>
      </trkpt>
      <trkpt lat="48.29002" lon="7.57319">
        <ele>177.6</ele>
        <time>2025-08-06T06:41:26Z</time>
      </trkpt>
      <trkpt lat="48.28997" lon="7.57271">
        <ele>177.6</ele>
        <time>2025-08-06T06:41:31Z</time>
      </trkpt>
      <trkpt lat="48.28987" lon="7.5719">
        <ele>177.4</ele>
        <time>2025-08-06T06:41:39Z</time>
      </trkpt>
      <trkpt lat="48.28987" lon="7.57182">
        <ele>177.4</ele>
        <time>2025-08-06T06:41:40Z</time>
      </trkpt>
      <trkpt lat="48.28987" lon="7.57153">
        <ele>177.4</ele>
        <time>2025-08-06T06:41:43Z</time>
      </trkpt>
      <trkpt lat="48.28991" lon="7.57133">
        <ele>177.4</ele>
        <time>2025-08-06T06:41:45Z</time>
      </trkpt>
      <trkpt lat="48.28993" lon="7.57123">
        <ele>177.4</ele>
        <time>2025-08-06T06:41:46Z</time>
      </trkpt>
      <trkpt lat="48.29005" lon="7.57085">
        <ele>177.4</ele>
        <time>2025-08-06T06:41:50Z</time>
      </trkpt>
      <trkpt lat="48.29026" lon="7.57011">
        <ele>177.2</ele>
        <time>2025-08-06T06:41:58Z</time>
      </trkpt>
      <trkpt lat="48.29034" lon="7.56982">
        <ele>177.2</ele>
        <time>2025-08-06T06:42:01Z</time>
      </trkpt>
      <trkpt lat="48.29045" lon="7.56914">
        <ele>177.4</ele>
        <time>2025-08-06T06:42:08Z</time>
      </trkpt>
      <trkpt lat="48.29057" lon="7.56835">
        <ele>177.4</ele>
        <time>2025-08-06T06:42:16Z</time>
      </trkpt>
      <trkpt lat="48.29058" lon="7.56825">
        <ele>177.2</ele>
        <time>2025-08-06T06:42:17Z</time>
      </trkpt>
      <trkpt lat="48.29058" lon="7.56775">
        <ele>177</ele>
        <time>2025-08-06T06:42:22Z</time>
      </trkpt>
      <trkpt lat="48.29053" lon="7.56723">
        <ele>177</ele>
        <time>2025-08-06T06:42:27Z</time>
      </trkpt>
      <trkpt lat="48.29053" lon="7.56713">
        <ele>176.8</ele>
        <time>2025-08-06T06:42:28Z</time>
      </trkpt>
      <trkpt lat="48.29053" lon="7.56691">
        <ele>177</ele>
        <time>2025-08-06T06:42:30Z</time>
      </trkpt>
      <trkpt lat="48.29053" lon="7.56627">
        <ele>177</ele>
        <time>2025-08-06T06:42:36Z</time>
      </trkpt>
      <trkpt lat="48.29051" lon="7.56544">
        <ele>177.4</ele>
        <time>2025-08-06T06:42:44Z</time>
      </trkpt>
      <trkpt lat="48.29051" lon="7.56533">
        <ele>177.4</ele>
        <time>2025-08-06T06:42:45Z</time>
      </trkpt>
      <trkpt lat="48.29049" lon="7.56501">
        <ele>177.4</ele>
        <time>2025-08-06T06:42:48Z</time>
      </trkpt>
      <trkpt lat="48.29044" lon="7.56471">
        <ele>177.6</ele>
        <time>2025-08-06T06:42:51Z</time>
      </trkpt>
      <trkpt lat="48.29035" lon="7.56445">
        <ele>177.4</ele>
        <time>2025-08-06T06:42:54Z</time>
      </trkpt>
      <trkpt lat="48.2903" lon="7.56437">
        <ele>177.4</ele>
        <time>2025-08-06T06:42:55Z</time>
      </trkpt>
      <trkpt lat="48.29002" lon="7.56388">
        <ele>177.2</ele>
        <time>2025-08-06T06:43:02Z</time>
      </trkpt>
      <trkpt lat="48.28997" lon="7.5638">
        <ele>177</ele>
        <time>2025-08-06T06:43:03Z</time>
      </trkpt>
      <trkpt lat="48.28972" lon="7.56349">
        <ele>177</ele>
        <time>2025-08-06T06:43:08Z</time>
      </trkpt>
      <trkpt lat="48.28941" lon="7.5631">
        <ele>177.2</ele>
        <time>2025-08-06T06:43:14Z</time>
      </trkpt>
      <trkpt lat="48.28904" lon="7.56267">
        <ele>177.2</ele>
        <time>2025-08-06T06:43:21Z</time>
      </trkpt>
      <trkpt lat="48.2889" lon="7.56258">
        <ele>177.2</ele>
        <time>2025-08-06T06:43:23Z</time>
      </trkpt>
      <trkpt lat="48.28872" lon="7.56251">
        <ele>177.2</ele>
        <time>2025-08-06T06:43:26Z</time>
      </trkpt>
      <trkpt lat="48.28823" lon="7.5624">
        <ele>177.2</ele>
        <time>2025-08-06T06:43:33Z</time>
      </trkpt>
      <trkpt lat="48.28816" lon="7.56239">
        <ele>177.2</ele>
        <time>2025-08-06T06:43:34Z</time>
      </trkpt>
      <trkpt lat="48.28782" lon="7.56231">
        <ele>177.2</ele>
        <time>2025-08-06T06:43:39Z</time>
      </trkpt>
      <trkpt lat="48.28745" lon="7.5622">
        <ele>177.2</ele>
        <time>2025-08-06T06:43:45Z</time>
      </trkpt>
      <trkpt lat="48.28704" lon="7.56208">
        <ele>177.6</ele>
        <time>2025-08-06T06:43:52Z</time>
      </trkpt>
      <trkpt lat="48.28693" lon="7.56202">
        <ele>177.6</ele>
        <time>2025-08-06T06:43:54Z</time>
      </trkpt>
      <trkpt lat="48.28668" lon="7.5619">
        <ele>177.6</ele>
        <time>2025-08-06T06:43:58Z</time>
      </trkpt>
      <trkpt lat="48.28623" lon="7.56169">
        <ele>177.4</ele>
        <time>2025-08-06T06:44:05Z</time>
      </trkpt>
      <trkpt lat="48.28603" lon="7.56157">
        <ele>177.2</ele>
        <time>2025-08-06T06:44:08Z</time>
      </trkpt>
      <trkpt lat="48.2859" lon="7.56148">
        <ele>177.2</ele>
        <time>2025-08-06T06:44:10Z</time>
      </trkpt>
      <trkpt lat="48.28554" lon="7.56118">
        <ele>177</ele>
        <time>2025-08-06T06:44:16Z</time>
      </trkpt>
      <trkpt lat="48.2852" lon="7.56087">
        <ele>177</ele>
        <time>2025-08-06T06:44:22Z</time>
      </trkpt>
      <trkpt lat="48.2848" lon="7.56051">
        <ele>177.2</ele>
        <time>2025-08-06T06:44:29Z</time>
      </trkpt>
      <trkpt lat="48.28454" lon="7.56019">
        <ele>177.2</ele>
        <time>2025-08-06T06:44:34Z</time>
      </trkpt>
      <trkpt lat="48.28448" lon="7.56013">
        <ele>177.2</ele>
        <time>2025-08-06T06:44:35Z</time>
      </trkpt>
      <trkpt lat="48.28407" lon="7.55974">
        <ele>177.2</ele>
        <time>2025-08-06T06:44:42Z</time>
      </trkpt>
      <trkpt lat="48.28402" lon="7.55967">
        <ele>177.2</ele>
        <time>2025-08-06T06:44:43Z</time>
      </trkpt>
      <trkpt lat="48.28393" lon="7.55952">
        <ele>177.2</ele>
        <time>2025-08-06T06:44:45Z</time>
      </trkpt>
      <trkpt lat="48.28387" lon="7.55947">
        <ele>177.2</ele>
        <time>2025-08-06T06:44:46Z</time>
      </trkpt>
      <trkpt lat="48.28374" lon="7.5594">
        <ele>177</ele>
        <time>2025-08-06T06:44:48Z</time>
      </trkpt>
      <trkpt lat="48.28362" lon="7.55928">
        <ele>176.8</ele>
        <time>2025-08-06T06:44:50Z</time>
      </trkpt>
      <trkpt lat="48.28315" lon="7.55875">
        <ele>176.6</ele>
        <time>2025-08-06T06:44:58Z</time>
      </trkpt>
      <trkpt lat="48.2831" lon="7.55869">
        <ele>176.6</ele>
        <time>2025-08-06T06:44:59Z</time>
      </trkpt>
      <trkpt lat="48.28271" lon="7.55825">
        <ele>176.6</ele>
        <time>2025-08-06T06:45:06Z</time>
      </trkpt>
      <trkpt lat="48.28261" lon="7.55814">
        <ele>176.6</ele>
        <time>2025-08-06T06:45:08Z</time>
      </trkpt>
      <trkpt lat="48.28215" lon="7.55764">
        <ele>177</ele>
        <time>2025-08-06T06:45:16Z</time>
      </trkpt>
      <trkpt lat="48.28209" lon="7.55758">
        <ele>177</ele>
        <time>2025-08-06T06:45:17Z</time>
      </trkpt>
      <trkpt lat="48.28161" lon="7.55705">
        <ele>177.2</ele>
        <time>2025-08-06T06:45:25Z</time>
      </trkpt>
      <trkpt lat="48.28112" lon="7.55652">
        <ele>176.8</ele>
        <time>2025-08-06T06:45:33Z</time>
      </trkpt>
      <trkpt lat="48.281" lon="7.55639">
        <ele>176.6</ele>
        <time>2025-08-06T06:45:35Z</time>
      </trkpt>
      <trkpt lat="48.28064" lon="7.55585">
        <ele>176.6</ele>
        <time>2025-08-06T06:45:42Z</time>
      </trkpt>
      <trkpt lat="48.2803" lon="7.55509">
        <ele>176.6</ele>
        <time>2025-08-06T06:45:50Z</time>
      </trkpt>
      <trkpt lat="48.2801" lon="7.55437">
        <ele>176.6</ele>
        <time>2025-08-06T06:45:57Z</time>
      </trkpt>
      <trkpt lat="48.28" lon="7.5535">
        <ele>177</ele>
        <time>2025-08-06T06:46:05Z</time>
      </trkpt>
      <trkpt lat="48.28" lon="7.55263">
        <ele>177.2</ele>
        <time>2025-08-06T06:46:13Z</time>
      </trkpt>
      <trkpt lat="48.28" lon="7.5523">
        <ele>177.2</ele>
        <time>2025-08-06T06:46:16Z</time>
      </trkpt>
      <trkpt lat="48.27995" lon="7.55157">
        <ele>177.4</ele>
        <time>2025-08-06T06:46:23Z</time>
      </trkpt>
      <trkpt lat="48.27978" lon="7.55077">
        <ele>177.6</ele>
        <time>2025-08-06T06:46:31Z</time>
      </trkpt>
      <trkpt lat="48.27953" lon="7.55011">
        <ele>177.6</ele>
        <time>2025-08-06T06:46:38Z</time>
      </trkpt>
      <trkpt lat="48.27935" lon="7.54966">
        <ele>178</ele>
        <time>2025-08-06T06:46:43Z</time>
      </trkpt>
      <trkpt lat="48.27927" lon="7.54947">
        <ele>178.2</ele>
        <time>2025-08-06T06:46:45Z</time>
      </trkpt>
      <trkpt lat="48.27897" lon="7.54876">
        <ele>178.4</ele>
        <time>2025-08-06T06:46:53Z</time>
      </trkpt>
      <trkpt lat="48.27889" lon="7.54858">
        <ele>178.4</ele>
        <time>2025-08-06T06:46:55Z</time>
      </trkpt>
      <trkpt lat="48.27862" lon="7.54785">
        <ele>178.4</ele>
        <time>2025-08-06T06:47:03Z</time>
      </trkpt>
      <trkpt lat="48.27859" lon="7.54776">
        <ele>178.4</ele>
        <time>2025-08-06T06:47:04Z</time>
      </trkpt>
      <trkpt lat="48.27844" lon="7.54696">
        <ele>178.6</ele>
        <time>2025-08-06T06:47:12Z</time>
      </trkpt>
      <trkpt lat="48.2783" lon="7.54613">
        <ele>178.4</ele>
        <time>2025-08-06T06:47:20Z</time>
      </trkpt>
      <trkpt lat="48.27825" lon="7.54592">
        <ele>178.2</ele>
        <time>2025-08-06T06:47:22Z</time>
      </trkpt>
      <trkpt lat="48.27802" lon="7.54513">
        <ele>178</ele>
        <time>2025-08-06T06:47:30Z</time>
      </trkpt>
      <trkpt lat="48.27771" lon="7.54455">
        <ele>177.8</ele>
        <time>2025-08-06T06:47:37Z</time>
      </trkpt>
      <trkpt lat="48.27739" lon="7.54413">
        <ele>177.8</ele>
        <time>2025-08-06T06:47:43Z</time>
      </trkpt>
      <trkpt lat="48.27691" lon="7.54363">
        <ele>177.6</ele>
        <time>2025-08-06T06:47:51Z</time>
      </trkpt>
      <trkpt lat="48.27679" lon="7.5435">
        <ele>177.6</ele>
        <time>2025-08-06T06:47:53Z</time>
      </trkpt>
      <trkpt lat="48.27642" lon="7.54298">
        <ele>177.6</ele>
        <time>2025-08-06T06:48:00Z</time>
      </trkpt>
      <trkpt lat="48.27611" lon="7.54237">
        <ele>177.8</ele>
        <time>2025-08-06T06:48:07Z</time>
      </trkpt>
      <trkpt lat="48.27578" lon="7.54165">
        <ele>177.6</ele>
        <time>2025-08-06T06:48:15Z</time>
      </trkpt>
      <trkpt lat="48.27574" lon="7.54157">
        <ele>177.6</ele>
        <time>2025-08-06T06:48:16Z</time>
      </trkpt>
      <trkpt lat="48.27542" lon="7.54087">
        <ele>177.8</ele>
        <time>2025-08-06T06:48:24Z</time>
      </trkpt>
      <trkpt lat="48.27514" lon="7.54026">
        <ele>177.8</ele>
        <time>2025-08-06T06:48:31Z</time>
      </trkpt>
      <trkpt lat="48.27481" lon="7.53957">
        <ele>177.8</ele>
        <time>2025-08-06T06:48:39Z</time>
      </trkpt>
      <trkpt lat="48.27466" lon="7.53924">
        <ele>178</ele>
        <time>2025-08-06T06:48:43Z</time>
      </trkpt>
      <trkpt lat="48.27435" lon="7.53856">
        <ele>178.6</ele>
        <time>2025-08-06T06:48:51Z</time>
      </trkpt>
      <trkpt lat="48.27424" lon="7.5383">
        <ele>178.8</ele>
        <time>2025-08-06T06:48:54Z</time>
      </trkpt>
      <trkpt lat="48.27394" lon="7.5376">
        <ele>178.8</ele>
        <time>2025-08-06T06:49:02Z</time>
      </trkpt>
      <trkpt lat="48.27377" lon="7.53725">
        <ele>178.8</ele>
        <time>2025-08-06T06:49:06Z</time>
      </trkpt>
      <trkpt lat="48.27339" lon="7.53661">
        <ele>178.8</ele>
        <time>2025-08-06T06:49:14Z</time>
      </trkpt>
      <trkpt lat="48.27299" lon="7.53603">
        <ele>178.8</ele>
        <time>2025-08-06T06:49:22Z</time>
      </trkpt>
      <trkpt lat="48.2727" lon="7.53577">
        <ele>178.8</ele>
        <time>2025-08-06T06:49:27Z</time>
      </trkpt>
      <trkpt lat="48.27219" lon="7.53541">
        <ele>178.2</ele>
        <time>2025-08-06T06:49:35Z</time>
      </trkpt>
      <trkpt lat="48.27213" lon="7.53537">
        <ele>178.4</ele>
        <time>2025-08-06T06:49:36Z</time>
      </trkpt>
      <trkpt lat="48.27168" lon="7.53514">
        <ele>178.6</ele>
        <time>2025-08-06T06:49:43Z</time>
      </trkpt>
      <trkpt lat="48.27129" lon="7.53495">
        <ele>178.8</ele>
        <time>2025-08-06T06:49:49Z</time>
      </trkpt>
      <trkpt lat="48.27078" lon="7.53471">
        <ele>179</ele>
        <time>2025-08-06T06:49:57Z</time>
      </trkpt>
      <trkpt lat="48.27032" lon="7.53451">
        <ele>179</ele>
        <time>2025-08-06T06:50:04Z</time>
      </trkpt>
      <trkpt lat="48.26978" lon="7.5343">
        <ele>178.6</ele>
        <time>2025-08-06T06:50:12Z</time>
      </trkpt>
      <trkpt lat="48.26922" lon="7.53414">
        <ele>178.6</ele>
        <time>2025-08-06T06:50:20Z</time>
      </trkpt>
      <trkpt lat="48.26873" lon="7.53399">
        <ele>178.6</ele>
        <time>2025-08-06T06:50:27Z</time>
      </trkpt>
      <trkpt lat="48.26853" lon="7.53393">
        <ele>178.6</ele>
        <time>2025-08-06T06:50:30Z</time>
      </trkpt>
      <trkpt lat="48.26804" lon="7.53376">
        <ele>178.4</ele>
        <time>2025-08-06T06:50:37Z</time>
      </trkpt>
      <trkpt lat="48.26771" lon="7.5336">
        <ele>178.4</ele>
        <time>2025-08-06T06:50:42Z</time>
      </trkpt>
      <trkpt lat="48.26753" lon="7.53351">
        <ele>178.4</ele>
        <time>2025-08-06T06:50:46Z</time>
      </trkpt>
      <trkpt lat="48.26743" lon="7.53336">
        <ele>178.4</ele>
        <time>2025-08-06T06:50:49Z</time>
      </trkpt>
      <trkpt lat="48.26741" lon="7.53328">
        <ele>178.4</ele>
        <time>2025-08-06T06:50:50Z</time>
      </trkpt>
      <trkpt lat="48.26734" lon="7.53296">
        <ele>178.4</ele>
        <time>2025-08-06T06:50:54Z</time>
      </trkpt>
      <trkpt lat="48.26731" lon="7.53288">
        <ele>178.4</ele>
        <time>2025-08-06T06:50:55Z</time>
      </trkpt>
      <trkpt lat="48.26715" lon="7.53236">
        <ele>178.4</ele>
        <time>2025-08-06T06:51:01Z</time>
      </trkpt>
      <trkpt lat="48.26693" lon="7.53176">
        <ele>178.6</ele>
        <time>2025-08-06T06:51:08Z</time>
      </trkpt>
      <trkpt lat="48.26686" lon="7.53159">
        <ele>178.6</ele>
        <time>2025-08-06T06:51:10Z</time>
      </trkpt>
      <trkpt lat="48.26674" lon="7.53136">
        <ele>178.8</ele>
        <time>2025-08-06T06:51:13Z</time>
      </trkpt>
      <trkpt lat="48.26671" lon="7.53127">
        <ele>178.8</ele>
        <time>2025-08-06T06:51:14Z</time>
      </trkpt>
      <trkpt lat="48.26664" lon="7.531">
        <ele>178.8</ele>
        <time>2025-08-06T06:51:17Z</time>
      </trkpt>
      <trkpt lat="48.26663" lon="7.53091">
        <ele>178.8</ele>
        <time>2025-08-06T06:51:18Z</time>
      </trkpt>
      <trkpt lat="48.26663" lon="7.53073">
        <ele>178.8</ele>
        <time>2025-08-06T06:51:20Z</time>
      </trkpt>
      <trkpt lat="48.26664" lon="7.53064">
        <ele>178.8</ele>
        <time>2025-08-06T06:51:21Z</time>
      </trkpt>
      <trkpt lat="48.26666" lon="7.53055">
        <ele>178.8</ele>
        <time>2025-08-06T06:51:22Z</time>
      </trkpt>
      <trkpt lat="48.26675" lon="7.5303">
        <ele>178.8</ele>
        <time>2025-08-06T06:51:25Z</time>
      </trkpt>
      <trkpt lat="48.26684" lon="7.53016">
        <ele>178.8</ele>
        <time>2025-08-06T06:51:27Z</time>
      </trkpt>
      <trkpt lat="48.26695" lon="7.53004">
        <ele>179</ele>
        <time>2025-08-06T06:51:29Z</time>
      </trkpt>
      <trkpt lat="48.26731" lon="7.52959">
        <ele>178.8</ele>
        <time>2025-08-06T06:51:36Z</time>
      </trkpt>
      <trkpt lat="48.26749" lon="7.52918">
        <ele>178.8</ele>
        <time>2025-08-06T06:51:41Z</time>
      </trkpt>
      <trkpt lat="48.26769" lon="7.52864">
        <ele>178.8</ele>
        <time>2025-08-06T06:51:47Z</time>
      </trkpt>
      <trkpt lat="48.26772" lon="7.52855">
        <ele>178.8</ele>
        <time>2025-08-06T06:51:48Z</time>
      </trkpt>
      <trkpt lat="48.26781" lon="7.52817">
        <ele>178.8</ele>
        <time>2025-08-06T06:51:52Z</time>
      </trkpt>
      <trkpt lat="48.26785" lon="7.52756">
        <ele>178.8</ele>
        <time>2025-08-06T06:51:58Z</time>
      </trkpt>
      <trkpt lat="48.26788" lon="7.52671">
        <ele>178.8</ele>
        <time>2025-08-06T06:52:06Z</time>
      </trkpt>
      <trkpt lat="48.26788" lon="7.52661">
        <ele>178.8</ele>
        <time>2025-08-06T06:52:07Z</time>
      </trkpt>
      <trkpt lat="48.26792" lon="7.52605">
        <ele>179</ele>
        <time>2025-08-06T06:52:13Z</time>
      </trkpt>
      <trkpt lat="48.26799" lon="7.52549">
        <ele>179.6</ele>
        <time>2025-08-06T06:52:19Z</time>
      </trkpt>
      <trkpt lat="48.26817" lon="7.52484">
        <ele>179.8</ele>
        <time>2025-08-06T06:52:26Z</time>
      </trkpt>
      <trkpt lat="48.26838" lon="7.52409">
        <ele>179.6</ele>
        <time>2025-08-06T06:52:34Z</time>
      </trkpt>
      <trkpt lat="48.26848" lon="7.52371">
        <ele>179.4</ele>
        <time>2025-08-06T06:52:38Z</time>
      </trkpt>
      <trkpt lat="48.26868" lon="7.52297">
        <ele>179.6</ele>
        <time>2025-08-06T06:52:46Z</time>
      </trkpt>
      <trkpt lat="48.2688" lon="7.52253">
        <ele>180</ele>
        <time>2025-08-06T06:52:51Z</time>
      </trkpt>
      <trkpt lat="48.26892" lon="7.52208">
        <ele>180.2</ele>
        <time>2025-08-06T06:52:56Z</time>
      </trkpt>
      <trkpt lat="48.26898" lon="7.52184">
        <ele>180.2</ele>
        <time>2025-08-06T06:52:59Z</time>
      </trkpt>
      <trkpt lat="48.269" lon="7.52167">
        <ele>180</ele>
        <time>2025-08-06T06:53:01Z</time>
      </trkpt>
      <trkpt lat="48.26902" lon="7.52158">
        <ele>180</ele>
        <time>2025-08-06T06:53:02Z</time>
      </trkpt>
      <trkpt lat="48.26908" lon="7.52141">
        <ele>179.8</ele>
        <time>2025-08-06T06:53:04Z</time>
      </trkpt>
      <trkpt lat="48.26922" lon="7.52097">
        <ele>179.2</ele>
        <time>2025-08-06T06:53:09Z</time>
      </trkpt>
      <trkpt lat="48.26941" lon="7.52023">
        <ele>179.2</ele>
        <time>2025-08-06T06:53:17Z</time>
      </trkpt>
      <trkpt lat="48.26966" lon="7.5195">
        <ele>179</ele>
        <time>2025-08-06T06:53:25Z</time>
      </trkpt>
      <trkpt lat="48.26973" lon="7.51932">
        <ele>179</ele>
        <time>2025-08-06T06:53:27Z</time>
      </trkpt>
      <trkpt lat="48.26986" lon="7.51886">
        <ele>179</ele>
        <time>2025-08-06T06:53:32Z</time>
      </trkpt>
      <trkpt lat="48.26998" lon="7.51832">
        <ele>179.6</ele>
        <time>2025-08-06T06:53:38Z</time>
      </trkpt>
      <trkpt lat="48.27003" lon="7.51807">
        <ele>180</ele>
        <time>2025-08-06T06:53:41Z</time>
      </trkpt>
      <trkpt lat="48.27005" lon="7.51799">
        <ele>180</ele>
        <time>2025-08-06T06:53:42Z</time>
      </trkpt>
      <trkpt lat="48.27007" lon="7.51782">
        <ele>180.2</ele>
        <time>2025-08-06T06:53:44Z</time>
      </trkpt>
      <trkpt lat="48.27008" lon="7.51773">
        <ele>180.2</ele>
        <time>2025-08-06T06:53:45Z</time>
      </trkpt>
      <trkpt lat="48.27014" lon="7.51728">
        <ele>179.8</ele>
        <time>2025-08-06T06:53:50Z</time>
      </trkpt>
      <trkpt lat="48.27021" lon="7.51679">
        <ele>179.2</ele>
        <time>2025-08-06T06:53:56Z</time>
      </trkpt>
      <trkpt lat="48.27031" lon="7.51615">
        <ele>179.8</ele>
        <time>2025-08-06T06:54:03Z</time>
      </trkpt>
      <trkpt lat="48.2704" lon="7.51556">
        <ele>179.8</ele>
        <time>2025-08-06T06:54:09Z</time>
      </trkpt>
      <trkpt lat="48.27048" lon="7.51486">
        <ele>179.6</ele>
        <time>2025-08-06T06:54:16Z</time>
      </trkpt>
      <trkpt lat="48.27047" lon="7.51405">
        <ele>179.8</ele>
        <time>2025-08-06T06:54:24Z</time>
      </trkpt>
      <trkpt lat="48.27043" lon="7.51321">
        <ele>179.8</ele>
        <time>2025-08-06T06:54:32Z</time>
      </trkpt>
      <trkpt lat="48.27036" lon="7.5129">
        <ele>179.8</ele>
        <time>2025-08-06T06:54:35Z</time>
      </trkpt>
      <trkpt lat="48.27032" lon="7.51281">
        <ele>179.8</ele>
        <time>2025-08-06T06:54:36Z</time>
      </trkpt>
      <trkpt lat="48.27024" lon="7.51264">
        <ele>179.8</ele>
        <time>2025-08-06T06:54:38Z</time>
      </trkpt>
      <trkpt lat="48.2701" lon="7.5124">
        <ele>179.8</ele>
        <time>2025-08-06T06:54:41Z</time>
      </trkpt>
      <trkpt lat="48.26969" lon="7.51178">
        <ele>179.6</ele>
        <time>2025-08-06T06:54:49Z</time>
      </trkpt>
      <trkpt lat="48.26945" lon="7.51138">
        <ele>179.6</ele>
        <time>2025-08-06T06:54:54Z</time>
      </trkpt>
      <trkpt lat="48.26906" lon="7.51077">
        <ele>179.6</ele>
        <time>2025-08-06T06:55:02Z</time>
      </trkpt>
      <trkpt lat="48.26901" lon="7.51069">
        <ele>179.4</ele>
        <time>2025-08-06T06:55:03Z</time>
      </trkpt>
      <trkpt lat="48.2686" lon="7.51004">
        <ele>179.6</ele>
        <time>2025-08-06T06:55:11Z</time>
      </trkpt>
      <trkpt lat="48.2685" lon="7.50988">
        <ele>179.6</ele>
        <time>2025-08-06T06:55:13Z</time>
      </trkpt>
      <trkpt lat="48.2681" lon="7.50924">
        <ele>179.2</ele>
        <time>2025-08-06T06:55:21Z</time>
      </trkpt>
      <trkpt lat="48.26795" lon="7.509">
        <ele>179.2</ele>
        <time>2025-08-06T06:55:24Z</time>
      </trkpt>
      <trkpt lat="48.26755" lon="7.50836">
        <ele>179.2</ele>
        <time>2025-08-06T06:55:32Z</time>
      </trkpt>
      <trkpt lat="48.26745" lon="7.50821">
        <ele>179.2</ele>
        <time>2025-08-06T06:55:34Z</time>
      </trkpt>
      <trkpt lat="48.26711" lon="7.50767">
        <ele>179.6</ele>
        <time>2025-08-06T06:55:41Z</time>
      </trkpt>
      <trkpt lat="48.26673" lon="7.50706">
        <ele>179.8</ele>
        <time>2025-08-06T06:55:49Z</time>
      </trkpt>
      <trkpt lat="48.26653" lon="7.50675">
        <ele>179.8</ele>
        <time>2025-08-06T06:55:53Z</time>
      </trkpt>
      <trkpt lat="48.26614" lon="7.50613">
        <ele>180</ele>
        <time>2025-08-06T06:56:01Z</time>
      </trkpt>
      <trkpt lat="48.26605" lon="7.50596">
        <ele>180</ele>
        <time>2025-08-06T06:56:03Z</time>
      </trkpt>
      <trkpt lat="48.26575" lon="7.50535">
        <ele>180.2</ele>
        <time>2025-08-06T06:56:10Z</time>
      </trkpt>
      <trkpt lat="48.26547" lon="7.5046">
        <ele>180.2</ele>
        <time>2025-08-06T06:56:18Z</time>
      </trkpt>
      <trkpt lat="48.26536" lon="7.50432">
        <ele>180.2</ele>
        <time>2025-08-06T06:56:21Z</time>
      </trkpt>
      <trkpt lat="48.26508" lon="7.50356">
        <ele>180.6</ele>
        <time>2025-08-06T06:56:29Z</time>
      </trkpt>
      <trkpt lat="48.26504" lon="7.50347">
        <ele>180.6</ele>
        <time>2025-08-06T06:56:30Z</time>
      </trkpt>
      <trkpt lat="48.26476" lon="7.50272">
        <ele>180.8</ele>
        <time>2025-08-06T06:56:38Z</time>
      </trkpt>
      <trkpt lat="48.26472" lon="7.50263">
        <ele>180.6</ele>
        <time>2025-08-06T06:56:39Z</time>
      </trkpt>
      <trkpt lat="48.26443" lon="7.50187">
        <ele>180.8</ele>
        <time>2025-08-06T06:56:47Z</time>
      </trkpt>
      <trkpt lat="48.26432" lon="7.50158">
        <ele>180.8</ele>
        <time>2025-08-06T06:56:50Z</time>
      </trkpt>
      <trkpt lat="48.26404" lon="7.50083">
        <ele>180.6</ele>
        <time>2025-08-06T06:56:58Z</time>
      </trkpt>
      <trkpt lat="48.26393" lon="7.50055">
        <ele>180.8</ele>
        <time>2025-08-06T06:57:01Z</time>
      </trkpt>
      <trkpt lat="48.26372" lon="7.5">
        <ele>181.2</ele>
        <time>2025-08-06T06:57:07Z</time>
      </trkpt>
      <trkpt lat="48.26364" lon="7.49972">
        <ele>181.2</ele>
        <time>2025-08-06T06:57:10Z</time>
      </trkpt>
      <trkpt lat="48.26359" lon="7.49943">
        <ele>181.4</ele>
        <time>2025-08-06T06:57:13Z</time>
      </trkpt>
      <trkpt lat="48.26358" lon="7.49923">
        <ele>181.4</ele>
        <time>2025-08-06T06:57:15Z</time>
      </trkpt>
      <trkpt lat="48.26359" lon="7.49913">
        <ele>181.6</ele>
        <time>2025-08-06T06:57:16Z</time>
      </trkpt>
      <trkpt lat="48.26364" lon="7.49874">
        <ele>182</ele>
        <time>2025-08-06T06:57:20Z</time>
      </trkpt>
      <trkpt lat="48.26373" lon="7.49827">
        <ele>182.2</ele>
        <time>2025-08-06T06:57:25Z</time>
      </trkpt>
      <trkpt lat="48.26376" lon="7.49807">
        <ele>182.2</ele>
        <time>2025-08-06T06:57:27Z</time>
      </trkpt>
      <trkpt lat="48.26388" lon="7.49732">
        <ele>182.2</ele>
        <time>2025-08-06T06:57:35Z</time>
      </trkpt>
      <trkpt lat="48.26399" lon="7.49652">
        <ele>182.2</ele>
        <time>2025-08-06T06:57:43Z</time>
      </trkpt>
      <trkpt lat="48.264" lon="7.49642">
        <ele>182.2</ele>
        <time>2025-08-06T06:57:44Z</time>
      </trkpt>
      <trkpt lat="48.2641" lon="7.49568">
        <ele>182.4</ele>
        <time>2025-08-06T06:57:51Z</time>
      </trkpt>
      <trkpt lat="48.26421" lon="7.49484">
        <ele>182.6</ele>
        <time>2025-08-06T06:57:59Z</time>
      </trkpt>
      <trkpt lat="48.2643" lon="7.49422">
        <ele>182.4</ele>
        <time>2025-08-06T06:58:05Z</time>
      </trkpt>
      <trkpt lat="48.26436" lon="7.49391">
        <ele>182.6</ele>
        <time>2025-08-06T06:58:08Z</time>
      </trkpt>
      <trkpt lat="48.26437" lon="7.4938">
        <ele>182.6</ele>
        <time>2025-08-06T06:58:09Z</time>
      </trkpt>
      <trkpt lat="48.26438" lon="7.49369">
        <ele>182.6</ele>
        <time>2025-08-06T06:58:10Z</time>
      </trkpt>
      <trkpt lat="48.26438" lon="7.49324">
        <ele>182.6</ele>
        <time>2025-08-06T06:58:14Z</time>
      </trkpt>
      <trkpt lat="48.26437" lon="7.49302">
        <ele>182.6</ele>
        <time>2025-08-06T06:58:16Z</time>
      </trkpt>
      <trkpt lat="48.26436" lon="7.49271">
        <ele>182.8</ele>
        <time>2025-08-06T06:58:19Z</time>
      </trkpt>
      <trkpt lat="48.26434" lon="7.49223">
        <ele>183</ele>
        <time>2025-08-06T06:58:24Z</time>
      </trkpt>
      <trkpt lat="48.26433" lon="7.49204">
        <ele>183</ele>
        <time>2025-08-06T06:58:26Z</time>
      </trkpt>
      <trkpt lat="48.26432" lon="7.49174">
        <ele>183</ele>
        <time>2025-08-06T06:58:29Z</time>
      </trkpt>
      <trkpt lat="48.26431" lon="7.49123">
        <ele>183</ele>
        <time>2025-08-06T06:58:34Z</time>
      </trkpt>
      <trkpt lat="48.26432" lon="7.49113">
        <ele>183</ele>
        <time>2025-08-06T06:58:35Z</time>
      </trkpt>
      <trkpt lat="48.26431" lon="7.49054">
        <ele>182.8</ele>
        <time>2025-08-06T06:58:41Z</time>
      </trkpt>
      <trkpt lat="48.26432" lon="7.49046">
        <ele>182.8</ele>
        <time>2025-08-06T06:58:42Z</time>
      </trkpt>
      <trkpt lat="48.26432" lon="7.49036">
        <ele>182.8</ele>
        <time>2025-08-06T06:58:43Z</time>
      </trkpt>
      <trkpt lat="48.26432" lon="7.49007">
        <ele>183</ele>
        <time>2025-08-06T06:58:46Z</time>
      </trkpt>
      <trkpt lat="48.26426" lon="7.4894">
        <ele>182.8</ele>
        <time>2025-08-06T06:58:52Z</time>
      </trkpt>
      <trkpt lat="48.26417" lon="7.48854">
        <ele>182.8</ele>
        <time>2025-08-06T06:59:00Z</time>
      </trkpt>
      <trkpt lat="48.26406" lon="7.4877">
        <ele>182.8</ele>
        <time>2025-08-06T06:59:08Z</time>
      </trkpt>
      <trkpt lat="48.26403" lon="7.4875">
        <ele>182.6</ele>
        <time>2025-08-06T06:59:10Z</time>
      </trkpt>
      <trkpt lat="48.2639" lon="7.48669">
        <ele>182.6</ele>
        <time>2025-08-06T06:59:18Z</time>
      </trkpt>
      <trkpt lat="48.26376" lon="7.48583">
        <ele>182.4</ele>
        <time>2025-08-06T06:59:26Z</time>
      </trkpt>
      <trkpt lat="48.26373" lon="7.48564">
        <ele>182.4</ele>
        <time>2025-08-06T06:59:28Z</time>
      </trkpt>
      <trkpt lat="48.26359" lon="7.48479">
        <ele>182.6</ele>
        <time>2025-08-06T06:59:36Z</time>
      </trkpt>
      <trkpt lat="48.26351" lon="7.48427">
        <ele>182.6</ele>
        <time>2025-08-06T06:59:41Z</time>
      </trkpt>
      <trkpt lat="48.26338" lon="7.48344">
        <ele>182.4</ele>
        <time>2025-08-06T06:59:49Z</time>
      </trkpt>
      <trkpt lat="48.26331" lon="7.48302">
        <ele>182.4</ele>
        <time>2025-08-06T06:59:53Z</time>
      </trkpt>
      <trkpt lat="48.2632" lon="7.48219">
        <ele>182.2</ele>
        <time>2025-08-06T07:00:01Z</time>
      </trkpt>
      <trkpt lat="48.2632" lon="7.48208">
        <ele>182.2</ele>
        <time>2025-08-06T07:00:02Z</time>
      </trkpt>
      <trkpt lat="48.2632" lon="7.48126">
        <ele>182.4</ele>
        <time>2025-08-06T07:00:10Z</time>
      </trkpt>
      <trkpt lat="48.26321" lon="7.48115">
        <ele>182.4</ele>
        <time>2025-08-06T07:00:11Z</time>
      </trkpt>
      <trkpt lat="48.26324" lon="7.48033">
        <ele>182.4</ele>
        <time>2025-08-06T07:00:19Z</time>
      </trkpt>
      <trkpt lat="48.26325" lon="7.48004">
        <ele>182.4</ele>
        <time>2025-08-06T07:00:22Z</time>
      </trkpt>
      <trkpt lat="48.26329" lon="7.4792">
        <ele>183</ele>
        <time>2025-08-06T07:00:30Z</time>
      </trkpt>
      <trkpt lat="48.26333" lon="7.47869">
        <ele>183.2</ele>
        <time>2025-08-06T07:00:35Z</time>
      </trkpt>
      <trkpt lat="48.26338" lon="7.47789">
        <ele>183.2</ele>
        <time>2025-08-06T07:00:43Z</time>
      </trkpt>
      <trkpt lat="48.26342" lon="7.477">
        <ele>183.2</ele>
        <time>2025-08-06T07:00:52Z</time>
      </trkpt>
      <trkpt lat="48.26343" lon="7.4769">
        <ele>183.2</ele>
        <time>2025-08-06T07:00:53Z</time>
      </trkpt>
      <trkpt lat="48.26343" lon="7.4766">
        <ele>183.4</ele>
        <time>2025-08-06T07:00:56Z</time>
      </trkpt>
      <trkpt lat="48.26344" lon="7.47629">
        <ele>183.6</ele>
        <time>2025-08-06T07:00:59Z</time>
      </trkpt>
      <trkpt lat="48.26345" lon="7.47547">
        <ele>183.6</ele>
        <time>2025-08-06T07:01:07Z</time>
      </trkpt>
      <trkpt lat="48.26345" lon="7.47537">
        <ele>183.6</ele>
        <time>2025-08-06T07:01:08Z</time>
      </trkpt>
      <trkpt lat="48.26345" lon="7.47448">
        <ele>183.6</ele>
        <time>2025-08-06T07:01:17Z</time>
      </trkpt>
      <trkpt lat="48.26346" lon="7.47428">
        <ele>183.6</ele>
        <time>2025-08-06T07:01:19Z</time>
      </trkpt>
      <trkpt lat="48.26347" lon="7.47339">
        <ele>183.6</ele>
        <time>2025-08-06T07:01:28Z</time>
      </trkpt>
      <trkpt lat="48.26348" lon="7.47268">
        <ele>183.8</ele>
        <time>2025-08-06T07:01:35Z</time>
      </trkpt>
      <trkpt lat="48.26349" lon="7.47248">
        <ele>183.8</ele>
        <time>2025-08-06T07:01:37Z</time>
      </trkpt>
      <trkpt lat="48.26347" lon="7.47197">
        <ele>184</ele>
        <time>2025-08-06T07:01:42Z</time>
      </trkpt>
      <trkpt lat="48.26347" lon="7.47116">
        <ele>184.2</ele>
        <time>2025-08-06T07:01:50Z</time>
      </trkpt>
      <trkpt lat="48.26347" lon="7.47106">
        <ele>184.2</ele>
        <time>2025-08-06T07:01:51Z</time>
      </trkpt>
      <trkpt lat="48.26346" lon="7.47022">
        <ele>184.2</ele>
        <time>2025-08-06T07:01:59Z</time>
      </trkpt>
      <trkpt lat="48.26345" lon="7.47001">
        <ele>184</ele>
        <time>2025-08-06T07:02:01Z</time>
      </trkpt>
      <trkpt lat="48.26342" lon="7.46911">
        <ele>184.4</ele>
        <time>2025-08-06T07:02:10Z</time>
      </trkpt>
      <trkpt lat="48.26342" lon="7.46901">
        <ele>184.4</ele>
        <time>2025-08-06T07:02:11Z</time>
      </trkpt>
      <trkpt lat="48.26342" lon="7.46861">
        <ele>184.6</ele>
        <time>2025-08-06T07:02:15Z</time>
      </trkpt>
      <trkpt lat="48.26342" lon="7.4683">
        <ele>184.6</ele>
        <time>2025-08-06T07:02:18Z</time>
      </trkpt>
      <trkpt lat="48.26343" lon="7.4682">
        <ele>184.6</ele>
        <time>2025-08-06T07:02:19Z</time>
      </trkpt>
      <trkpt lat="48.26343" lon="7.46768">
        <ele>184.6</ele>
        <time>2025-08-06T07:02:24Z</time>
      </trkpt>
      <trkpt lat="48.26343" lon="7.46683">
        <ele>184.2</ele>
        <time>2025-08-06T07:02:32Z</time>
      </trkpt>
      <trkpt lat="48.26347" lon="7.46604">
        <ele>184</ele>
        <time>2025-08-06T07:02:40Z</time>
      </trkpt>
      <trkpt lat="48.26351" lon="7.46588">
        <ele>184.2</ele>
        <time>2025-08-06T07:02:42Z</time>
      </trkpt>
      <trkpt lat="48.2635" lon="7.46571">
        <ele>184.2</ele>
        <time>2025-08-06T07:02:44Z</time>
      </trkpt>
      <trkpt lat="48.26349" lon="7.46553">
        <ele>184.2</ele>
        <time>2025-08-06T07:02:46Z</time>
      </trkpt>
      <trkpt lat="48.2635" lon="7.46526">
        <ele>184.2</ele>
        <time>2025-08-06T07:02:49Z</time>
      </trkpt>
      <trkpt lat="48.2635" lon="7.46517">
        <ele>184.2</ele>
        <time>2025-08-06T07:02:50Z</time>
      </trkpt>
      <trkpt lat="48.26348" lon="7.4649">
        <ele>184.2</ele>
        <time>2025-08-06T07:02:53Z</time>
      </trkpt>
      <trkpt lat="48.26354" lon="7.46442">
        <ele>184.2</ele>
        <time>2025-08-06T07:02:58Z</time>
      </trkpt>
      <trkpt lat="48.26361" lon="7.46393">
        <ele>184.4</ele>
        <time>2025-08-06T07:03:03Z</time>
      </trkpt>
      <trkpt lat="48.26366" lon="7.46374">
        <ele>184.6</ele>
        <time>2025-08-06T07:03:05Z</time>
      </trkpt>
      <trkpt lat="48.26378" lon="7.46308">
        <ele>185.2</ele>
        <time>2025-08-06T07:03:12Z</time>
      </trkpt>
      <trkpt lat="48.26391" lon="7.46231">
        <ele>185.2</ele>
        <time>2025-08-06T07:03:20Z</time>
      </trkpt>
      <trkpt lat="48.26402" lon="7.46163">
        <ele>185.2</ele>
        <time>2025-08-06T07:03:27Z</time>
      </trkpt>
      <trkpt lat="48.2641" lon="7.46083">
        <ele>185.2</ele>
        <time>2025-08-06T07:03:35Z</time>
      </trkpt>
      <trkpt lat="48.26414" lon="7.46053">
        <ele>185.4</ele>
        <time>2025-08-06T07:03:38Z</time>
      </trkpt>
      <trkpt lat="48.2642" lon="7.45992">
        <ele>185.4</ele>
        <time>2025-08-06T07:03:44Z</time>
      </trkpt>
      <trkpt lat="48.26426" lon="7.45944">
        <ele>185.4</ele>
        <time>2025-08-06T07:03:50Z</time>
      </trkpt>
      <trkpt lat="48.26437" lon="7.45924">
        <ele>185.4</ele>
        <time>2025-08-06T07:03:55Z</time>
      </trkpt>
      <trkpt lat="48.26442" lon="7.45899">
        <ele>185.6</ele>
        <time>2025-08-06T07:03:59Z</time>
      </trkpt>
      <trkpt lat="48.26442" lon="7.45883">
        <ele>185.8</ele>
        <time>2025-08-06T07:04:01Z</time>
      </trkpt>
      <trkpt lat="48.26443" lon="7.45866">
        <ele>185.6</ele>
        <time>2025-08-06T07:04:03Z</time>
      </trkpt>
      <trkpt lat="48.26449" lon="7.4581">
        <ele>185.6</ele>
        <time>2025-08-06T07:04:09Z</time>
      </trkpt>
      <trkpt lat="48.26454" lon="7.45765">
        <ele>185.6</ele>
        <time>2025-08-06T07:04:14Z</time>
      </trkpt>
      <trkpt lat="48.26457" lon="7.45747">
        <ele>185.8</ele>
        <time>2025-08-06T07:04:16Z</time>
      </trkpt>
      <trkpt lat="48.26467" lon="7.45665">
        <ele>186.6</ele>
        <time>2025-08-06T07:04:25Z</time>
      </trkpt>
      <trkpt lat="48.26469" lon="7.45656">
        <ele>186.8</ele>
        <time>2025-08-06T07:04:26Z</time>
      </trkpt>
      <trkpt lat="48.26482" lon="7.45585">
        <ele>187.2</ele>
        <time>2025-08-06T07:04:34Z</time>
      </trkpt>
      <trkpt lat="48.26496" lon="7.45503">
        <ele>187.4</ele>
        <time>2025-08-06T07:04:43Z</time>
      </trkpt>
      <trkpt lat="48.26503" lon="7.45434">
        <ele>187.4</ele>
        <time>2025-08-06T07:04:50Z</time>
      </trkpt>
      <trkpt lat="48.26514" lon="7.45354">
        <ele>187.4</ele>
        <time>2025-08-06T07:04:59Z</time>
      </trkpt>
      <trkpt lat="48.26516" lon="7.45344">
        <ele>187.2</ele>
        <time>2025-08-06T07:05:00Z</time>
      </trkpt>
      <trkpt lat="48.26518" lon="7.45322">
        <ele>187.2</ele>
        <time>2025-08-06T07:05:04Z</time>
      </trkpt>
      <trkpt lat="48.26518" lon="7.4532">
        <ele>187.2</ele>
        <time>2025-08-06T07:05:05Z</time>
      </trkpt>
      <trkpt lat="48.26518" lon="7.4532">
        <ele>187.2</ele>
        <time>2025-08-06T07:05:07Z</time>
      </trkpt>
      <trkpt lat="48.26519" lon="7.45317">
        <ele>187.4</ele>
        <time>2025-08-06T07:05:52Z</time>
      </trkpt>
      <trkpt lat="48.26521" lon="7.45309">
        <ele>187.2</ele>
        <time>2025-08-06T07:05:54Z</time>
      </trkpt>
      <trkpt lat="48.26526" lon="7.45277">
        <ele>187.2</ele>
        <time>2025-08-06T07:05:59Z</time>
      </trkpt>
      <trkpt lat="48.2653" lon="7.45246">
        <ele>187</ele>
        <time>2025-08-06T07:06:03Z</time>
      </trkpt>
      <trkpt lat="48.26534" lon="7.45231">
        <ele>187</ele>
        <time>2025-08-06T07:06:05Z</time>
      </trkpt>
      <trkpt lat="48.26551" lon="7.45165">
        <ele>187.2</ele>
        <time>2025-08-06T07:06:13Z</time>
      </trkpt>
      <trkpt lat="48.26559" lon="7.4513">
        <ele>187.6</ele>
        <time>2025-08-06T07:06:17Z</time>
      </trkpt>
      <trkpt lat="48.26564" lon="7.45101">
        <ele>187.8</ele>
        <time>2025-08-06T07:06:20Z</time>
      </trkpt>
      <trkpt lat="48.26573" lon="7.45032">
        <ele>188</ele>
        <time>2025-08-06T07:06:27Z</time>
      </trkpt>
      <trkpt lat="48.26586" lon="7.44949">
        <ele>188</ele>
        <time>2025-08-06T07:06:36Z</time>
      </trkpt>
      <trkpt lat="48.26597" lon="7.449">
        <ele>188.2</ele>
        <time>2025-08-06T07:06:42Z</time>
      </trkpt>
      <trkpt lat="48.26602" lon="7.44882">
        <ele>188.8</ele>
        <time>2025-08-06T07:06:45Z</time>
      </trkpt>
      <trkpt lat="48.26608" lon="7.44857">
        <ele>190</ele>
        <time>2025-08-06T07:06:49Z</time>
      </trkpt>
      <trkpt lat="48.26611" lon="7.44844">
        <ele>190.6</ele>
        <time>2025-08-06T07:06:51Z</time>
      </trkpt>
      <trkpt lat="48.26613" lon="7.44834">
        <ele>191.2</ele>
        <time>2025-08-06T07:06:53Z</time>
      </trkpt>
      <trkpt lat="48.2662" lon="7.44806">
        <ele>192.2</ele>
        <time>2025-08-06T07:06:58Z</time>
      </trkpt>
      <trkpt lat="48.2662" lon="7.44806">
        <ele>192.4</ele>
        <time>2025-08-06T07:06:59Z</time>
      </trkpt>
      <trkpt lat="48.26626" lon="7.44775">
        <ele>193.2</ele>
        <time>2025-08-06T07:07:04Z</time>
      </trkpt>
      <trkpt lat="48.26631" lon="7.44746">
        <ele>194.4</ele>
        <time>2025-08-06T07:07:09Z</time>
      </trkpt>
      <trkpt lat="48.26633" lon="7.44737">
        <ele>194.4</ele>
        <time>2025-08-06T07:07:11Z</time>
      </trkpt>
      <trkpt lat="48.26637" lon="7.44711">
        <ele>194.4</ele>
        <time>2025-08-06T07:07:16Z</time>
      </trkpt>
      <trkpt lat="48.26638" lon="7.44705">
        <ele>194.2</ele>
        <time>2025-08-06T07:07:17Z</time>
      </trkpt>
      <trkpt lat="48.26644" lon="7.44671">
        <ele>194.2</ele>
        <time>2025-08-06T07:07:22Z</time>
      </trkpt>
      <trkpt lat="48.26651" lon="7.44633">
        <ele>194</ele>
        <time>2025-08-06T07:07:27Z</time>
      </trkpt>
      <trkpt lat="48.26657" lon="7.44595">
        <ele>193.4</ele>
        <time>2025-08-06T07:07:31Z</time>
      </trkpt>
      <trkpt lat="48.2666" lon="7.44573">
        <ele>192.8</ele>
        <time>2025-08-06T07:07:33Z</time>
      </trkpt>
      <trkpt lat="48.26666" lon="7.44533">
        <ele>192.2</ele>
        <time>2025-08-06T07:07:37Z</time>
      </trkpt>
      <trkpt lat="48.26667" lon="7.44519">
        <ele>191.8</ele>
        <time>2025-08-06T07:07:39Z</time>
      </trkpt>
      <trkpt lat="48.26675" lon="7.44465">
        <ele>190.8</ele>
        <time>2025-08-06T07:07:43Z</time>
      </trkpt>
      <trkpt lat="48.2668" lon="7.44428">
        <ele>190.2</ele>
        <time>2025-08-06T07:07:46Z</time>
      </trkpt>
      <trkpt lat="48.26681" lon="7.44408">
        <ele>189.8</ele>
        <time>2025-08-06T07:07:48Z</time>
      </trkpt>
      <trkpt lat="48.26684" lon="7.44366">
        <ele>189.4</ele>
        <time>2025-08-06T07:07:52Z</time>
      </trkpt>
      <trkpt lat="48.26687" lon="7.44347">
        <ele>189.2</ele>
        <time>2025-08-06T07:07:54Z</time>
      </trkpt>
      <trkpt lat="48.26693" lon="7.44333">
        <ele>189</ele>
        <time>2025-08-06T07:07:56Z</time>
      </trkpt>
      <trkpt lat="48.26695" lon="7.44318">
        <ele>189</ele>
        <time>2025-08-06T07:07:58Z</time>
      </trkpt>
      <trkpt lat="48.26687" lon="7.44309">
        <ele>189</ele>
        <time>2025-08-06T07:08:00Z</time>
      </trkpt>
      <trkpt lat="48.26681" lon="7.44307">
        <ele>189</ele>
        <time>2025-08-06T07:08:01Z</time>
      </trkpt>
      <trkpt lat="48.26656" lon="7.44296">
        <ele>188.8</ele>
        <time>2025-08-06T07:08:06Z</time>
      </trkpt>
      <trkpt lat="48.26649" lon="7.44291">
        <ele>188.6</ele>
        <time>2025-08-06T07:08:07Z</time>
      </trkpt>
      <trkpt lat="48.26646" lon="7.44289">
        <ele>188.6</ele>
        <time>2025-08-06T07:08:08Z</time>
      </trkpt>
      <trkpt lat="48.26627" lon="7.44279">
        <ele>188.6</ele>
        <time>2025-08-06T07:08:13Z</time>
      </trkpt>
      <trkpt lat="48.26622" lon="7.44277">
        <ele>188.6</ele>
        <time>2025-08-06T07:08:14Z</time>
      </trkpt>
      <trkpt lat="48.26601" lon="7.44267">
        <ele>188.6</ele>
        <time>2025-08-06T07:08:18Z</time>
      </trkpt>
      <trkpt lat="48.26576" lon="7.44253">
        <ele>188.6</ele>
        <time>2025-08-06T07:08:23Z</time>
      </trkpt>
      <trkpt lat="48.26572" lon="7.44249">
        <ele>188.6</ele>
        <time>2025-08-06T07:08:24Z</time>
      </trkpt>
      <trkpt lat="48.26564" lon="7.44244">
        <ele>188.6</ele>
        <time>2025-08-06T07:08:26Z</time>
      </trkpt>
      <trkpt lat="48.26554" lon="7.44238">
        <ele>188.6</ele>
        <time>2025-08-06T07:08:28Z</time>
      </trkpt>
      <trkpt lat="48.26543" lon="7.44233">
        <ele>188.6</ele>
        <time>2025-08-06T07:08:30Z</time>
      </trkpt>
      <trkpt lat="48.26526" lon="7.44229">
        <ele>188.6</ele>
        <time>2025-08-06T07:08:33Z</time>
      </trkpt>
      <trkpt lat="48.26491" lon="7.44212">
        <ele>189</ele>
        <time>2025-08-06T07:08:39Z</time>
      </trkpt>
      <trkpt lat="48.26446" lon="7.44181">
        <ele>189.4</ele>
        <time>2025-08-06T07:08:47Z</time>
      </trkpt>
      <trkpt lat="48.26438" lon="7.44173">
        <ele>189.6</ele>
        <time>2025-08-06T07:08:49Z</time>
      </trkpt>
      <trkpt lat="48.26433" lon="7.44164">
        <ele>189.6</ele>
        <time>2025-08-06T07:08:51Z</time>
      </trkpt>
      <trkpt lat="48.26435" lon="7.44148">
        <ele>189.6</ele>
        <time>2025-08-06T07:08:54Z</time>
      </trkpt>
      <trkpt lat="48.26441" lon="7.44132">
        <ele>189.8</ele>
        <time>2025-08-06T07:08:57Z</time>
      </trkpt>
      <trkpt lat="48.26442" lon="7.44118">
        <ele>190</ele>
        <time>2025-08-06T07:09:00Z</time>
      </trkpt>
      <trkpt lat="48.26437" lon="7.44092">
        <ele>190.2</ele>
        <time>2025-08-06T07:09:06Z</time>
      </trkpt>
      <trkpt lat="48.26435" lon="7.44089">
        <ele>190</ele>
        <time>2025-08-06T07:09:08Z</time>
      </trkpt>
      <trkpt lat="48.26434" lon="7.44086">
        <ele>190.2</ele>
        <time>2025-08-06T07:09:10Z</time>
      </trkpt>
      <trkpt lat="48.26433" lon="7.44083">
        <ele>190.2</ele>
        <time>2025-08-06T07:09:15Z</time>
      </trkpt>
      <trkpt lat="48.26424" lon="7.44075">
        <ele>191</ele>
        <time>2025-08-06T07:22:58Z</time>
      </trkpt>
      <trkpt lat="48.26418" lon="7.44067">
        <ele>191</ele>
        <time>2025-08-06T07:23:00Z</time>
      </trkpt>
      <trkpt lat="48.26413" lon="7.44066">
        <ele>191</ele>
        <time>2025-08-06T07:23:02Z</time>
      </trkpt>
      <trkpt lat="48.26401" lon="7.44073">
        <ele>191</ele>
        <time>2025-08-06T07:23:06Z</time>
      </trkpt>
      <trkpt lat="48.26383" lon="7.44095">
        <ele>190.6</ele>
        <time>2025-08-06T07:23:13Z</time>
      </trkpt>
      <trkpt lat="48.26375" lon="7.44105">
        <ele>190.6</ele>
        <time>2025-08-06T07:23:17Z</time>
      </trkpt>
      <trkpt lat="48.26375" lon="7.44109">
        <ele>190.6</ele>
        <time>2025-08-06T07:23:18Z</time>
      </trkpt>
      <trkpt lat="48.26376" lon="7.44113">
        <ele>190.6</ele>
        <time>2025-08-06T07:23:19Z</time>
      </trkpt>
      <trkpt lat="48.26381" lon="7.44118">
        <ele>190.6</ele>
        <time>2025-08-06T07:23:21Z</time>
      </trkpt>
      <trkpt lat="48.26397" lon="7.44118">
        <ele>190.8</ele>
        <time>2025-08-06T07:23:26Z</time>
      </trkpt>
      <trkpt lat="48.26421" lon="7.44125">
        <ele>191</ele>
        <time>2025-08-06T07:23:33Z</time>
      </trkpt>
      <trkpt lat="48.26427" lon="7.44132">
        <ele>191</ele>
        <time>2025-08-06T07:23:35Z</time>
      </trkpt>
      <trkpt lat="48.26429" lon="7.44136">
        <ele>191</ele>
        <time>2025-08-06T07:23:36Z</time>
      </trkpt>
      <trkpt lat="48.2643" lon="7.44145">
        <ele>191</ele>
        <time>2025-08-06T07:23:38Z</time>
      </trkpt>
      <trkpt lat="48.26428" lon="7.44148">
        <ele>191</ele>
        <time>2025-08-06T07:23:39Z</time>
      </trkpt>
      <trkpt lat="48.26413" lon="7.4415">
        <ele>191</ele>
        <time>2025-08-06T07:23:43Z</time>
      </trkpt>
      <trkpt lat="48.26409" lon="7.44148">
        <ele>191</ele>
        <time>2025-08-06T07:23:44Z</time>
      </trkpt>
      <trkpt lat="48.26401" lon="7.44141">
        <ele>190.8</ele>
        <time>2025-08-06T07:23:47Z</time>
      </trkpt>
      <trkpt lat="48.26364" lon="7.44117">
        <ele>190.8</ele>
        <time>2025-08-06T07:23:54Z</time>
      </trkpt>
      <trkpt lat="48.26315" lon="7.44098">
        <ele>191.2</ele>
        <time>2025-08-06T07:24:04Z</time>
      </trkpt>
      <trkpt lat="48.26278" lon="7.4408">
        <ele>191.4</ele>
        <time>2025-08-06T07:24:11Z</time>
      </trkpt>
      <trkpt lat="48.26273" lon="7.44079">
        <ele>191.4</ele>
        <time>2025-08-06T07:24:12Z</time>
      </trkpt>
      <trkpt lat="48.26237" lon="7.44074">
        <ele>191.2</ele>
        <time>2025-08-06T07:24:19Z</time>
      </trkpt>
      <trkpt lat="48.26214" lon="7.4407">
        <ele>190.6</ele>
        <time>2025-08-06T07:24:26Z</time>
      </trkpt>
      <trkpt lat="48.26208" lon="7.44067">
        <ele>190.6</ele>
        <time>2025-08-06T07:24:30Z</time>
      </trkpt>
      <trkpt lat="48.26208" lon="7.44067">
        <ele>190.6</ele>
        <time>2025-08-06T07:24:31Z</time>
      </trkpt>
      <trkpt lat="48.26205" lon="7.44067">
        <ele>191</ele>
        <time>2025-08-06T07:25:02Z</time>
      </trkpt>
      <trkpt lat="48.262" lon="7.44066">
        <ele>191</ele>
        <time>2025-08-06T07:25:04Z</time>
      </trkpt>
      <trkpt lat="48.26181" lon="7.44062">
        <ele>190.8</ele>
        <time>2025-08-06T07:25:09Z</time>
      </trkpt>
      <trkpt lat="48.26172" lon="7.44059">
        <ele>190.8</ele>
        <time>2025-08-06T07:25:11Z</time>
      </trkpt>
      <trkpt lat="48.26157" lon="7.44056">
        <ele>190.8</ele>
        <time>2025-08-06T07:25:14Z</time>
      </trkpt>
      <trkpt lat="48.26116" lon="7.44046">
        <ele>191</ele>
        <time>2025-08-06T07:25:22Z</time>
      </trkpt>
      <trkpt lat="48.26062" lon="7.44031">
        <ele>191.8</ele>
        <time>2025-08-06T07:25:32Z</time>
      </trkpt>
      <trkpt lat="48.26051" lon="7.44028">
        <ele>191.8</ele>
        <time>2025-08-06T07:25:34Z</time>
      </trkpt>
      <trkpt lat="48.2603" lon="7.44023">
        <ele>192</ele>
        <time>2025-08-06T07:25:38Z</time>
      </trkpt>
      <trkpt lat="48.2602" lon="7.4402">
        <ele>192.4</ele>
        <time>2025-08-06T07:25:40Z</time>
      </trkpt>
      <trkpt lat="48.25999" lon="7.44012">
        <ele>192.8</ele>
        <time>2025-08-06T07:25:44Z</time>
      </trkpt>
      <trkpt lat="48.2599" lon="7.44004">
        <ele>192.8</ele>
        <time>2025-08-06T07:25:46Z</time>
      </trkpt>
      <trkpt lat="48.25976" lon="7.43989">
        <ele>193</ele>
        <time>2025-08-06T07:25:49Z</time>
      </trkpt>
      <trkpt lat="48.25954" lon="7.43956">
        <ele>192.6</ele>
        <time>2025-08-06T07:25:54Z</time>
      </trkpt>
      <trkpt lat="48.25926" lon="7.43912">
        <ele>192</ele>
        <time>2025-08-06T07:26:00Z</time>
      </trkpt>
      <trkpt lat="48.25913" lon="7.43899">
        <ele>191.4</ele>
        <time>2025-08-06T07:26:02Z</time>
      </trkpt>
      <trkpt lat="48.25901" lon="7.43892">
        <ele>191</ele>
        <time>2025-08-06T07:26:04Z</time>
      </trkpt>
      <trkpt lat="48.25886" lon="7.43885">
        <ele>190.8</ele>
        <time>2025-08-06T07:26:06Z</time>
      </trkpt>
      <trkpt lat="48.25873" lon="7.43879">
        <ele>190.2</ele>
        <time>2025-08-06T07:26:08Z</time>
      </trkpt>
      <trkpt lat="48.25861" lon="7.43869">
        <ele>189.8</ele>
        <time>2025-08-06T07:26:10Z</time>
      </trkpt>
      <trkpt lat="48.25853" lon="7.43853">
        <ele>189.8</ele>
        <time>2025-08-06T07:26:12Z</time>
      </trkpt>
      <trkpt lat="48.25851" lon="7.43844">
        <ele>189.6</ele>
        <time>2025-08-06T07:26:13Z</time>
      </trkpt>
      <trkpt lat="48.25848" lon="7.43835">
        <ele>189.6</ele>
        <time>2025-08-06T07:26:14Z</time>
      </trkpt>
      <trkpt lat="48.25845" lon="7.43828">
        <ele>189.4</ele>
        <time>2025-08-06T07:26:16Z</time>
      </trkpt>
      <trkpt lat="48.25836" lon="7.43814">
        <ele>189</ele>
        <time>2025-08-06T07:26:18Z</time>
      </trkpt>
      <trkpt lat="48.25833" lon="7.43814">
        <ele>188.8</ele>
        <time>2025-08-06T07:26:19Z</time>
      </trkpt>
      <trkpt lat="48.25832" lon="7.43815">
        <ele>188.6</ele>
        <time>2025-08-06T07:26:20Z</time>
      </trkpt>
      <trkpt lat="48.25832" lon="7.43819">
        <ele>188.6</ele>
        <time>2025-08-06T07:26:21Z</time>
      </trkpt>
      <trkpt lat="48.25827" lon="7.43837">
        <ele>188.4</ele>
        <time>2025-08-06T07:26:25Z</time>
      </trkpt>
      <trkpt lat="48.25824" lon="7.43842">
        <ele>188.4</ele>
        <time>2025-08-06T07:26:26Z</time>
      </trkpt>
      <trkpt lat="48.25815" lon="7.43844">
        <ele>188.4</ele>
        <time>2025-08-06T07:26:28Z</time>
      </trkpt>
      <trkpt lat="48.25792" lon="7.4383">
        <ele>188.4</ele>
        <time>2025-08-06T07:26:33Z</time>
      </trkpt>
      <trkpt lat="48.25781" lon="7.43821">
        <ele>188.2</ele>
        <time>2025-08-06T07:26:37Z</time>
      </trkpt>
      <trkpt lat="48.25775" lon="7.4382">
        <ele>188</ele>
        <time>2025-08-06T07:26:41Z</time>
      </trkpt>
      <trkpt lat="48.25775" lon="7.43821">
        <ele>188</ele>
        <time>2025-08-06T07:26:42Z</time>
      </trkpt>
      <trkpt lat="48.25784" lon="7.4383">
        <ele>187.8</ele>
        <time>2025-08-06T07:26:47Z</time>
      </trkpt>
      <trkpt lat="48.25807" lon="7.43847">
        <ele>188.2</ele>
        <time>2025-08-06T07:26:54Z</time>
      </trkpt>
      <trkpt lat="48.25814" lon="7.43851">
        <ele>188.2</ele>
        <time>2025-08-06T07:26:56Z</time>
      </trkpt>
      <trkpt lat="48.2583" lon="7.43856">
        <ele>188.2</ele>
        <time>2025-08-06T07:27:00Z</time>
      </trkpt>
      <trkpt lat="48.25843" lon="7.43854">
        <ele>188.2</ele>
        <time>2025-08-06T07:27:03Z</time>
      </trkpt>
      <trkpt lat="48.25846" lon="7.4385">
        <ele>188.4</ele>
        <time>2025-08-06T07:27:05Z</time>
      </trkpt>
      <trkpt lat="48.25848" lon="7.43839">
        <ele>188.4</ele>
        <time>2025-08-06T07:27:06Z</time>
      </trkpt>
      <trkpt lat="48.25847" lon="7.43832">
        <ele>188.4</ele>
        <time>2025-08-06T07:27:07Z</time>
      </trkpt>
      <trkpt lat="48.25844" lon="7.43827">
        <ele>188.4</ele>
        <time>2025-08-06T07:27:08Z</time>
      </trkpt>
      <trkpt lat="48.25836" lon="7.43815">
        <ele>188.4</ele>
        <time>2025-08-06T07:27:10Z</time>
      </trkpt>
      <trkpt lat="48.25833" lon="7.43807">
        <ele>188.4</ele>
        <time>2025-08-06T07:27:11Z</time>
      </trkpt>
      <trkpt lat="48.25813" lon="7.43761">
        <ele>188.2</ele>
        <time>2025-08-06T07:27:17Z</time>
      </trkpt>
      <trkpt lat="48.25784" lon="7.43699">
        <ele>188.2</ele>
        <time>2025-08-06T07:27:25Z</time>
      </trkpt>
      <trkpt lat="48.25781" lon="7.43691">
        <ele>188.2</ele>
        <time>2025-08-06T07:27:26Z</time>
      </trkpt>
      <trkpt lat="48.25775" lon="7.43675">
        <ele>188.2</ele>
        <time>2025-08-06T07:27:28Z</time>
      </trkpt>
      <trkpt lat="48.25769" lon="7.4365">
        <ele>188.4</ele>
        <time>2025-08-06T07:27:31Z</time>
      </trkpt>
      <trkpt lat="48.25763" lon="7.436">
        <ele>188.6</ele>
        <time>2025-08-06T07:27:37Z</time>
      </trkpt>
      <trkpt lat="48.25758" lon="7.43531">
        <ele>189</ele>
        <time>2025-08-06T07:27:45Z</time>
      </trkpt>
      <trkpt lat="48.25753" lon="7.43489">
        <ele>189.2</ele>
        <time>2025-08-06T07:27:50Z</time>
      </trkpt>
      <trkpt lat="48.25749" lon="7.43472">
        <ele>189.2</ele>
        <time>2025-08-06T07:27:52Z</time>
      </trkpt>
      <trkpt lat="48.25738" lon="7.43426">
        <ele>189</ele>
        <time>2025-08-06T07:27:57Z</time>
      </trkpt>
      <trkpt lat="48.25736" lon="7.43407">
        <ele>189</ele>
        <time>2025-08-06T07:27:59Z</time>
      </trkpt>
      <trkpt lat="48.25738" lon="7.43369">
        <ele>189</ele>
        <time>2025-08-06T07:28:03Z</time>
      </trkpt>
      <trkpt lat="48.2574" lon="7.43351">
        <ele>189.2</ele>
        <time>2025-08-06T07:28:05Z</time>
      </trkpt>
      <trkpt lat="48.25745" lon="7.43305">
        <ele>189.8</ele>
        <time>2025-08-06T07:28:10Z</time>
      </trkpt>
      <trkpt lat="48.25745" lon="7.43286">
        <ele>189.8</ele>
        <time>2025-08-06T07:28:12Z</time>
      </trkpt>
      <trkpt lat="48.25745" lon="7.43277">
        <ele>189.8</ele>
        <time>2025-08-06T07:28:13Z</time>
      </trkpt>
      <trkpt lat="48.25745" lon="7.43259">
        <ele>190</ele>
        <time>2025-08-06T07:28:15Z</time>
      </trkpt>
      <trkpt lat="48.25743" lon="7.4325">
        <ele>190</ele>
        <time>2025-08-06T07:28:16Z</time>
      </trkpt>
      <trkpt lat="48.25741" lon="7.43241">
        <ele>190</ele>
        <time>2025-08-06T07:28:17Z</time>
      </trkpt>
      <trkpt lat="48.25735" lon="7.43225">
        <ele>190</ele>
        <time>2025-08-06T07:28:19Z</time>
      </trkpt>
      <trkpt lat="48.25731" lon="7.43217">
        <ele>190</ele>
        <time>2025-08-06T07:28:21Z</time>
      </trkpt>
      <trkpt lat="48.25694" lon="7.43145">
        <ele>189.8</ele>
        <time>2025-08-06T07:28:29Z</time>
      </trkpt>
      <trkpt lat="48.25687" lon="7.4313">
        <ele>189.8</ele>
        <time>2025-08-06T07:28:31Z</time>
      </trkpt>
      <trkpt lat="48.25681" lon="7.43114">
        <ele>189.8</ele>
        <time>2025-08-06T07:28:33Z</time>
      </trkpt>
      <trkpt lat="48.2568" lon="7.43105">
        <ele>189.8</ele>
        <time>2025-08-06T07:28:34Z</time>
      </trkpt>
      <trkpt lat="48.25681" lon="7.43033">
        <ele>189.8</ele>
        <time>2025-08-06T07:28:42Z</time>
      </trkpt>
      <trkpt lat="48.2569" lon="7.4296">
        <ele>189.8</ele>
        <time>2025-08-06T07:28:50Z</time>
      </trkpt>
      <trkpt lat="48.25695" lon="7.42893">
        <ele>189.8</ele>
        <time>2025-08-06T07:28:57Z</time>
      </trkpt>
      <trkpt lat="48.25695" lon="7.42806">
        <ele>189.8</ele>
        <time>2025-08-06T07:29:06Z</time>
      </trkpt>
      <trkpt lat="48.25695" lon="7.42785">
        <ele>189.8</ele>
        <time>2025-08-06T07:29:08Z</time>
      </trkpt>
      <trkpt lat="48.25696" lon="7.42757">
        <ele>189.8</ele>
        <time>2025-08-06T07:29:11Z</time>
      </trkpt>
      <trkpt lat="48.25694" lon="7.42748">
        <ele>189.8</ele>
        <time>2025-08-06T07:29:12Z</time>
      </trkpt>
      <trkpt lat="48.25691" lon="7.42739">
        <ele>189.8</ele>
        <time>2025-08-06T07:29:13Z</time>
      </trkpt>
      <trkpt lat="48.25686" lon="7.42722">
        <ele>189.8</ele>
        <time>2025-08-06T07:29:15Z</time>
      </trkpt>
      <trkpt lat="48.25685" lon="7.42713">
        <ele>189.8</ele>
        <time>2025-08-06T07:29:16Z</time>
      </trkpt>
      <trkpt lat="48.25675" lon="7.42659">
        <ele>190</ele>
        <time>2025-08-06T07:29:22Z</time>
      </trkpt>
      <trkpt lat="48.25659" lon="7.42572">
        <ele>189.8</ele>
        <time>2025-08-06T07:29:31Z</time>
      </trkpt>
      <trkpt lat="48.25658" lon="7.42562">
        <ele>189.8</ele>
        <time>2025-08-06T07:29:32Z</time>
      </trkpt>
      <trkpt lat="48.25653" lon="7.42508">
        <ele>189.8</ele>
        <time>2025-08-06T07:29:38Z</time>
      </trkpt>
      <trkpt lat="48.25654" lon="7.425">
        <ele>189.8</ele>
        <time>2025-08-06T07:29:39Z</time>
      </trkpt>
      <trkpt lat="48.25655" lon="7.42493">
        <ele>189.8</ele>
        <time>2025-08-06T07:29:40Z</time>
      </trkpt>
      <trkpt lat="48.25659" lon="7.4248">
        <ele>189.8</ele>
        <time>2025-08-06T07:29:42Z</time>
      </trkpt>
      <trkpt lat="48.25662" lon="7.42473">
        <ele>190</ele>
        <time>2025-08-06T07:29:43Z</time>
      </trkpt>
      <trkpt lat="48.25668" lon="7.42459">
        <ele>190</ele>
        <time>2025-08-06T07:29:45Z</time>
      </trkpt>
      <trkpt lat="48.2567" lon="7.42442">
        <ele>190.2</ele>
        <time>2025-08-06T07:29:47Z</time>
      </trkpt>
      <trkpt lat="48.25668" lon="7.42425">
        <ele>190.2</ele>
        <time>2025-08-06T07:29:49Z</time>
      </trkpt>
      <trkpt lat="48.25666" lon="7.42418">
        <ele>190.4</ele>
        <time>2025-08-06T07:29:50Z</time>
      </trkpt>
      <trkpt lat="48.25662" lon="7.42411">
        <ele>190.4</ele>
        <time>2025-08-06T07:29:51Z</time>
      </trkpt>
      <trkpt lat="48.25649" lon="7.42392">
        <ele>190.6</ele>
        <time>2025-08-06T07:29:54Z</time>
      </trkpt>
      <trkpt lat="48.25643" lon="7.42374">
        <ele>190.6</ele>
        <time>2025-08-06T07:29:56Z</time>
      </trkpt>
      <trkpt lat="48.25642" lon="7.42365">
        <ele>190.8</ele>
        <time>2025-08-06T07:29:57Z</time>
      </trkpt>
      <trkpt lat="48.25639" lon="7.42326">
        <ele>190.8</ele>
        <time>2025-08-06T07:30:01Z</time>
      </trkpt>
      <trkpt lat="48.25638" lon="7.42307">
        <ele>190.8</ele>
        <time>2025-08-06T07:30:03Z</time>
      </trkpt>
      <trkpt lat="48.25638" lon="7.42225">
        <ele>190.8</ele>
        <time>2025-08-06T07:30:11Z</time>
      </trkpt>
      <trkpt lat="48.25634" lon="7.42145">
        <ele>191.4</ele>
        <time>2025-08-06T07:30:19Z</time>
      </trkpt>
      <trkpt lat="48.25626" lon="7.42055">
        <ele>191.6</ele>
        <time>2025-08-06T07:30:28Z</time>
      </trkpt>
      <trkpt lat="48.25626" lon="7.42045">
        <ele>191.8</ele>
        <time>2025-08-06T07:30:29Z</time>
      </trkpt>
      <trkpt lat="48.25624" lon="7.42015">
        <ele>191.8</ele>
        <time>2025-08-06T07:30:32Z</time>
      </trkpt>
      <trkpt lat="48.25627" lon="7.41996">
        <ele>192</ele>
        <time>2025-08-06T07:30:34Z</time>
      </trkpt>
      <trkpt lat="48.2563" lon="7.41987">
        <ele>192</ele>
        <time>2025-08-06T07:30:35Z</time>
      </trkpt>
      <trkpt lat="48.25632" lon="7.41978">
        <ele>192</ele>
        <time>2025-08-06T07:30:36Z</time>
      </trkpt>
      <trkpt lat="48.25632" lon="7.41959">
        <ele>192.2</ele>
        <time>2025-08-06T07:30:38Z</time>
      </trkpt>
      <trkpt lat="48.25625" lon="7.41942">
        <ele>192.2</ele>
        <time>2025-08-06T07:30:40Z</time>
      </trkpt>
      <trkpt lat="48.2562" lon="7.41934">
        <ele>192.2</ele>
        <time>2025-08-06T07:30:41Z</time>
      </trkpt>
      <trkpt lat="48.2561" lon="7.41919">
        <ele>192.4</ele>
        <time>2025-08-06T07:30:43Z</time>
      </trkpt>
      <trkpt lat="48.25603" lon="7.41901">
        <ele>192.2</ele>
        <time>2025-08-06T07:30:45Z</time>
      </trkpt>
      <trkpt lat="48.256" lon="7.41892">
        <ele>192.2</ele>
        <time>2025-08-06T07:30:46Z</time>
      </trkpt>
      <trkpt lat="48.25581" lon="7.41815">
        <ele>192.2</ele>
        <time>2025-08-06T07:30:54Z</time>
      </trkpt>
      <trkpt lat="48.25563" lon="7.41737">
        <ele>192.4</ele>
        <time>2025-08-06T07:31:02Z</time>
      </trkpt>
      <trkpt lat="48.25544" lon="7.41656">
        <ele>192.6</ele>
        <time>2025-08-06T07:31:10Z</time>
      </trkpt>
      <trkpt lat="48.25537" lon="7.41626">
        <ele>192.8</ele>
        <time>2025-08-06T07:31:13Z</time>
      </trkpt>
      <trkpt lat="48.25533" lon="7.41606">
        <ele>193</ele>
        <time>2025-08-06T07:31:15Z</time>
      </trkpt>
      <trkpt lat="48.25516" lon="7.41525">
        <ele>193.6</ele>
        <time>2025-08-06T07:31:23Z</time>
      </trkpt>
      <trkpt lat="48.25506" lon="7.41444">
        <ele>193.6</ele>
        <time>2025-08-06T07:31:31Z</time>
      </trkpt>
      <trkpt lat="48.25505" lon="7.41434">
        <ele>193.8</ele>
        <time>2025-08-06T07:31:32Z</time>
      </trkpt>
      <trkpt lat="48.25503" lon="7.41354">
        <ele>194.2</ele>
        <time>2025-08-06T07:31:40Z</time>
      </trkpt>
      <trkpt lat="48.25502" lon="7.41269">
        <ele>195.2</ele>
        <time>2025-08-06T07:31:49Z</time>
      </trkpt>
      <trkpt lat="48.25502" lon="7.41261">
        <ele>195.2</ele>
        <time>2025-08-06T07:31:50Z</time>
      </trkpt>
      <trkpt lat="48.25502" lon="7.41245">
        <ele>195.4</ele>
        <time>2025-08-06T07:31:52Z</time>
      </trkpt>
      <trkpt lat="48.25507" lon="7.41231">
        <ele>195.4</ele>
        <time>2025-08-06T07:31:54Z</time>
      </trkpt>
      <trkpt lat="48.25516" lon="7.41215">
        <ele>195.4</ele>
        <time>2025-08-06T07:31:57Z</time>
      </trkpt>
      <trkpt lat="48.25519" lon="7.41204">
        <ele>195.4</ele>
        <time>2025-08-06T07:31:59Z</time>
      </trkpt>
      <trkpt lat="48.25516" lon="7.41167">
        <ele>195.4</ele>
        <time>2025-08-06T07:32:04Z</time>
      </trkpt>
      <trkpt lat="48.2551" lon="7.41133">
        <ele>195.6</ele>
        <time>2025-08-06T07:32:08Z</time>
      </trkpt>
      <trkpt lat="48.25509" lon="7.41124">
        <ele>195.6</ele>
        <time>2025-08-06T07:32:09Z</time>
      </trkpt>
      <trkpt lat="48.25508" lon="7.41107">
        <ele>195.6</ele>
        <time>2025-08-06T07:32:11Z</time>
      </trkpt>
      <trkpt lat="48.25507" lon="7.41073">
        <ele>195.8</ele>
        <time>2025-08-06T07:32:15Z</time>
      </trkpt>
      <trkpt lat="48.25508" lon="7.41001">
        <ele>196.4</ele>
        <time>2025-08-06T07:32:23Z</time>
      </trkpt>
      <trkpt lat="48.25508" lon="7.40992">
        <ele>196.4</ele>
        <time>2025-08-06T07:32:24Z</time>
      </trkpt>
      <trkpt lat="48.25508" lon="7.40906">
        <ele>196.6</ele>
        <time>2025-08-06T07:32:33Z</time>
      </trkpt>
      <trkpt lat="48.25509" lon="7.40835">
        <ele>197</ele>
        <time>2025-08-06T07:32:41Z</time>
      </trkpt>
      <trkpt lat="48.25507" lon="7.40782">
        <ele>197.4</ele>
        <time>2025-08-06T07:32:47Z</time>
      </trkpt>
      <trkpt lat="48.25508" lon="7.40765">
        <ele>197.6</ele>
        <time>2025-08-06T07:32:49Z</time>
      </trkpt>
      <trkpt lat="48.2551" lon="7.40695">
        <ele>198</ele>
        <time>2025-08-06T07:32:57Z</time>
      </trkpt>
      <trkpt lat="48.2551" lon="7.40687">
        <ele>198</ele>
        <time>2025-08-06T07:32:58Z</time>
      </trkpt>
      <trkpt lat="48.25511" lon="7.40669">
        <ele>198</ele>
        <time>2025-08-06T07:33:00Z</time>
      </trkpt>
      <trkpt lat="48.2551" lon="7.40652">
        <ele>198</ele>
        <time>2025-08-06T07:33:02Z</time>
      </trkpt>
      <trkpt lat="48.25507" lon="7.40638">
        <ele>198</ele>
        <time>2025-08-06T07:33:04Z</time>
      </trkpt>
      <trkpt lat="48.25504" lon="7.40626">
        <ele>198</ele>
        <time>2025-08-06T07:33:06Z</time>
      </trkpt>
      <trkpt lat="48.25508" lon="7.40611">
        <ele>198</ele>
        <time>2025-08-06T07:33:09Z</time>
      </trkpt>
      <trkpt lat="48.25511" lon="7.40598">
        <ele>198.4</ele>
        <time>2025-08-06T07:33:12Z</time>
      </trkpt>
      <trkpt lat="48.2551" lon="7.40593">
        <ele>198.6</ele>
        <time>2025-08-06T07:33:13Z</time>
      </trkpt>
      <trkpt lat="48.2551" lon="7.40593">
        <ele>198.6</ele>
        <time>2025-08-06T07:33:14Z</time>
      </trkpt>
      <trkpt lat="48.25501" lon="7.40569">
        <ele>198.6</ele>
        <time>2025-08-06T07:33:17Z</time>
      </trkpt>
      <trkpt lat="48.25499" lon="7.40562">
        <ele>198.8</ele>
        <time>2025-08-06T07:33:18Z</time>
      </trkpt>
      <trkpt lat="48.25499" lon="7.40555">
        <ele>198.8</ele>
        <time>2025-08-06T07:33:19Z</time>
      </trkpt>
      <trkpt lat="48.25501" lon="7.40533">
        <ele>198.8</ele>
        <time>2025-08-06T07:33:22Z</time>
      </trkpt>
      <trkpt lat="48.25508" lon="7.40472">
        <ele>199.4</ele>
        <time>2025-08-06T07:33:30Z</time>
      </trkpt>
      <trkpt lat="48.25508" lon="7.40464">
        <ele>199.8</ele>
        <time>2025-08-06T07:33:31Z</time>
      </trkpt>
      <trkpt lat="48.25513" lon="7.40413">
        <ele>200.8</ele>
        <time>2025-08-06T07:33:38Z</time>
      </trkpt>
      <trkpt lat="48.25513" lon="7.40406">
        <ele>201</ele>
        <time>2025-08-06T07:33:39Z</time>
      </trkpt>
      <trkpt lat="48.25512" lon="7.40378">
        <ele>201.4</ele>
        <time>2025-08-06T07:33:43Z</time>
      </trkpt>
      <trkpt lat="48.25513" lon="7.40356">
        <ele>201.8</ele>
        <time>2025-08-06T07:33:46Z</time>
      </trkpt>
      <trkpt lat="48.25514" lon="7.40348">
        <ele>201.8</ele>
        <time>2025-08-06T07:33:47Z</time>
      </trkpt>
      <trkpt lat="48.25519" lon="7.40294">
        <ele>202.6</ele>
        <time>2025-08-06T07:33:54Z</time>
      </trkpt>
      <trkpt lat="48.25522" lon="7.40257">
        <ele>202.6</ele>
        <time>2025-08-06T07:33:59Z</time>
      </trkpt>
      <trkpt lat="48.25522" lon="7.40251">
        <ele>202.8</ele>
        <time>2025-08-06T07:34:00Z</time>
      </trkpt>
      <trkpt lat="48.25523" lon="7.40231">
        <ele>203</ele>
        <time>2025-08-06T07:34:03Z</time>
      </trkpt>
      <trkpt lat="48.25524" lon="7.40216">
        <ele>203.2</ele>
        <time>2025-08-06T07:34:06Z</time>
      </trkpt>
      <trkpt lat="48.25525" lon="7.4018">
        <ele>203.6</ele>
        <time>2025-08-06T07:34:12Z</time>
      </trkpt>
      <trkpt lat="48.25527" lon="7.40161">
        <ele>204</ele>
        <time>2025-08-06T07:34:15Z</time>
      </trkpt>
      <trkpt lat="48.2553" lon="7.40129">
        <ele>204.2</ele>
        <time>2025-08-06T07:34:20Z</time>
      </trkpt>
      <trkpt lat="48.25532" lon="7.40103">
        <ele>205.2</ele>
        <time>2025-08-06T07:34:24Z</time>
      </trkpt>
      <trkpt lat="48.25535" lon="7.40069">
        <ele>205.4</ele>
        <time>2025-08-06T07:34:29Z</time>
      </trkpt>
      <trkpt lat="48.25535" lon="7.40063">
        <ele>205.4</ele>
        <time>2025-08-06T07:34:30Z</time>
      </trkpt>
      <trkpt lat="48.25537" lon="7.40033">
        <ele>206.2</ele>
        <time>2025-08-06T07:34:35Z</time>
      </trkpt>
      <trkpt lat="48.25538" lon="7.40028">
        <ele>206.6</ele>
        <time>2025-08-06T07:34:36Z</time>
      </trkpt>
      <trkpt lat="48.2554" lon="7.39999">
        <ele>207.2</ele>
        <time>2025-08-06T07:34:41Z</time>
      </trkpt>
      <trkpt lat="48.25548" lon="7.39964">
        <ele>208.4</ele>
        <time>2025-08-06T07:34:48Z</time>
      </trkpt>
      <trkpt lat="48.25548" lon="7.39959">
        <ele>208.6</ele>
        <time>2025-08-06T07:34:49Z</time>
      </trkpt>
      <trkpt lat="48.25543" lon="7.39942">
        <ele>209.2</ele>
        <time>2025-08-06T07:34:53Z</time>
      </trkpt>
      <trkpt lat="48.25532" lon="7.39935">
        <ele>209.4</ele>
        <time>2025-08-06T07:34:56Z</time>
      </trkpt>
      <trkpt lat="48.25527" lon="7.39934">
        <ele>209.4</ele>
        <time>2025-08-06T07:34:57Z</time>
      </trkpt>
      <trkpt lat="48.255" lon="7.39933">
        <ele>209.6</ele>
        <time>2025-08-06T07:35:02Z</time>
      </trkpt>
      <trkpt lat="48.2549" lon="7.3993">
        <ele>209.4</ele>
        <time>2025-08-06T07:35:04Z</time>
      </trkpt>
      <trkpt lat="48.25446" lon="7.39918">
        <ele>209.2</ele>
        <time>2025-08-06T07:35:12Z</time>
      </trkpt>
      <trkpt lat="48.25401" lon="7.399">
        <ele>209</ele>
        <time>2025-08-06T07:35:20Z</time>
      </trkpt>
      <trkpt lat="48.25372" lon="7.39885">
        <ele>208.8</ele>
        <time>2025-08-06T07:35:26Z</time>
      </trkpt>
      <trkpt lat="48.25362" lon="7.39876">
        <ele>208.6</ele>
        <time>2025-08-06T07:35:30Z</time>
      </trkpt>
      <trkpt lat="48.2536" lon="7.39872">
        <ele>208.4</ele>
        <time>2025-08-06T07:35:31Z</time>
      </trkpt>
      <trkpt lat="48.25361" lon="7.39862">
        <ele>208.2</ele>
        <time>2025-08-06T07:35:33Z</time>
      </trkpt>
      <trkpt lat="48.2537" lon="7.39837">
        <ele>208.2</ele>
        <time>2025-08-06T07:35:38Z</time>
      </trkpt>
      <trkpt lat="48.25381" lon="7.39803">
        <ele>208.4</ele>
        <time>2025-08-06T07:35:44Z</time>
      </trkpt>
      <trkpt lat="48.25395" lon="7.39762">
        <ele>209.2</ele>
        <time>2025-08-06T07:35:51Z</time>
      </trkpt>
      <trkpt lat="48.25398" lon="7.39756">
        <ele>209.4</ele>
        <time>2025-08-06T07:35:53Z</time>
      </trkpt>
      <trkpt lat="48.25413" lon="7.39709">
        <ele>210.6</ele>
        <time>2025-08-06T07:36:00Z</time>
      </trkpt>
      <trkpt lat="48.25424" lon="7.39681">
        <ele>211.2</ele>
        <time>2025-08-06T07:36:05Z</time>
      </trkpt>
      <trkpt lat="48.25431" lon="7.3966">
        <ele>211.6</ele>
        <time>2025-08-06T07:36:09Z</time>
      </trkpt>
      <trkpt lat="48.2544" lon="7.39634">
        <ele>212.8</ele>
        <time>2025-08-06T07:36:14Z</time>
      </trkpt>
      <trkpt lat="48.25451" lon="7.39603">
        <ele>213.6</ele>
        <time>2025-08-06T07:36:20Z</time>
      </trkpt>
      <trkpt lat="48.25456" lon="7.39594">
        <ele>214</ele>
        <time>2025-08-06T07:36:22Z</time>
      </trkpt>
      <trkpt lat="48.25464" lon="7.39577">
        <ele>214.6</ele>
        <time>2025-08-06T07:36:26Z</time>
      </trkpt>
      <trkpt lat="48.25467" lon="7.39569">
        <ele>215.2</ele>
        <time>2025-08-06T07:36:28Z</time>
      </trkpt>
      <trkpt lat="48.25473" lon="7.39553">
        <ele>215.6</ele>
        <time>2025-08-06T07:36:32Z</time>
      </trkpt>
      <trkpt lat="48.25478" lon="7.39541">
        <ele>216.2</ele>
        <time>2025-08-06T07:36:35Z</time>
      </trkpt>
      <trkpt lat="48.25484" lon="7.3953">
        <ele>216.6</ele>
        <time>2025-08-06T07:36:38Z</time>
      </trkpt>
      <trkpt lat="48.25486" lon="7.39529">
        <ele>216.8</ele>
        <time>2025-08-06T07:36:39Z</time>
      </trkpt>
      <trkpt lat="48.25489" lon="7.39527">
        <ele>217.2</ele>
        <time>2025-08-06T07:36:40Z</time>
      </trkpt>
      <trkpt lat="48.25491" lon="7.39526">
        <ele>217.4</ele>
        <time>2025-08-06T07:36:41Z</time>
      </trkpt>
      <trkpt lat="48.25494" lon="7.39527">
        <ele>217.6</ele>
        <time>2025-08-06T07:36:42Z</time>
      </trkpt>
      <trkpt lat="48.255" lon="7.39528">
        <ele>218</ele>
        <time>2025-08-06T07:36:44Z</time>
      </trkpt>
      <trkpt lat="48.25506" lon="7.39528">
        <ele>218.4</ele>
        <time>2025-08-06T07:36:46Z</time>
      </trkpt>
      <trkpt lat="48.25518" lon="7.39524">
        <ele>218.8</ele>
        <time>2025-08-06T07:36:49Z</time>
      </trkpt>
      <trkpt lat="48.25525" lon="7.3951">
        <ele>218.8</ele>
        <time>2025-08-06T07:36:53Z</time>
      </trkpt>
      <trkpt lat="48.25535" lon="7.39491">
        <ele>219.6</ele>
        <time>2025-08-06T07:36:58Z</time>
      </trkpt>
      <trkpt lat="48.25541" lon="7.39479">
        <ele>220</ele>
        <time>2025-08-06T07:37:01Z</time>
      </trkpt>
      <trkpt lat="48.2555" lon="7.39464">
        <ele>220.8</ele>
        <time>2025-08-06T07:37:05Z</time>
      </trkpt>
      <trkpt lat="48.25555" lon="7.39451">
        <ele>221.2</ele>
        <time>2025-08-06T07:37:08Z</time>
      </trkpt>
      <trkpt lat="48.25562" lon="7.39434">
        <ele>221.8</ele>
        <time>2025-08-06T07:37:12Z</time>
      </trkpt>
      <trkpt lat="48.25569" lon="7.39418">
        <ele>222.8</ele>
        <time>2025-08-06T07:37:16Z</time>
      </trkpt>
      <trkpt lat="48.25571" lon="7.39415">
        <ele>223</ele>
        <time>2025-08-06T07:37:17Z</time>
      </trkpt>
      <trkpt lat="48.25582" lon="7.3939">
        <ele>223.8</ele>
        <time>2025-08-06T07:37:23Z</time>
      </trkpt>
      <trkpt lat="48.25586" lon="7.39383">
        <ele>224.2</ele>
        <time>2025-08-06T07:37:25Z</time>
      </trkpt>
      <trkpt lat="48.25597" lon="7.39362">
        <ele>225</ele>
        <time>2025-08-06T07:37:31Z</time>
      </trkpt>
      <trkpt lat="48.25601" lon="7.39355">
        <ele>225.2</ele>
        <time>2025-08-06T07:37:33Z</time>
      </trkpt>
      <trkpt lat="48.25609" lon="7.39341">
        <ele>226</ele>
        <time>2025-08-06T07:37:37Z</time>
      </trkpt>
      <trkpt lat="48.25611" lon="7.39337">
        <ele>226.2</ele>
        <time>2025-08-06T07:37:38Z</time>
      </trkpt>
      <trkpt lat="48.2562" lon="7.39311">
        <ele>227.4</ele>
        <time>2025-08-06T07:37:44Z</time>
      </trkpt>
      <trkpt lat="48.25621" lon="7.39307">
        <ele>227.4</ele>
        <time>2025-08-06T07:37:45Z</time>
      </trkpt>
      <trkpt lat="48.25632" lon="7.39278">
        <ele>228.4</ele>
        <time>2025-08-06T07:37:52Z</time>
      </trkpt>
      <trkpt lat="48.25634" lon="7.39273">
        <ele>228.6</ele>
        <time>2025-08-06T07:37:53Z</time>
      </trkpt>
      <trkpt lat="48.2564" lon="7.39251">
        <ele>229.4</ele>
        <time>2025-08-06T07:37:58Z</time>
      </trkpt>
      <trkpt lat="48.25643" lon="7.39239">
        <ele>230</ele>
        <time>2025-08-06T07:38:01Z</time>
      </trkpt>
      <trkpt lat="48.25645" lon="7.39225">
        <ele>230.4</ele>
        <time>2025-08-06T07:38:04Z</time>
      </trkpt>
      <trkpt lat="48.25645" lon="7.39207">
        <ele>231.4</ele>
        <time>2025-08-06T07:38:08Z</time>
      </trkpt>
      <trkpt lat="48.25645" lon="7.39203">
        <ele>231.6</ele>
        <time>2025-08-06T07:38:09Z</time>
      </trkpt>
      <trkpt lat="48.25643" lon="7.39169">
        <ele>232.6</ele>
        <time>2025-08-06T07:38:16Z</time>
      </trkpt>
      <trkpt lat="48.25642" lon="7.39144">
        <ele>233.6</ele>
        <time>2025-08-06T07:38:21Z</time>
      </trkpt>
      <trkpt lat="48.2564" lon="7.39116">
        <ele>234.6</ele>
        <time>2025-08-06T07:38:27Z</time>
      </trkpt>
      <trkpt lat="48.25639" lon="7.39111">
        <ele>234.6</ele>
        <time>2025-08-06T07:38:28Z</time>
      </trkpt>
      <trkpt lat="48.25638" lon="7.39088">
        <ele>235.4</ele>
        <time>2025-08-06T07:38:33Z</time>
      </trkpt>
      <trkpt lat="48.25637" lon="7.39079">
        <ele>235.8</ele>
        <time>2025-08-06T07:38:35Z</time>
      </trkpt>
      <trkpt lat="48.25637" lon="7.39056">
        <ele>236.6</ele>
        <time>2025-08-06T07:38:40Z</time>
      </trkpt>
      <trkpt lat="48.25635" lon="7.39043">
        <ele>237</ele>
        <time>2025-08-06T07:38:43Z</time>
      </trkpt>
      <trkpt lat="48.25635" lon="7.39035">
        <ele>237.4</ele>
        <time>2025-08-06T07:38:45Z</time>
      </trkpt>
      <trkpt lat="48.25636" lon="7.39032">
        <ele>237.6</ele>
        <time>2025-08-06T07:38:46Z</time>
      </trkpt>
      <trkpt lat="48.25637" lon="7.39015">
        <ele>238.4</ele>
        <time>2025-08-06T07:38:50Z</time>
      </trkpt>
      <trkpt lat="48.25637" lon="7.39008">
        <ele>238.8</ele>
        <time>2025-08-06T07:38:52Z</time>
      </trkpt>
      <trkpt lat="48.25633" lon="7.38991">
        <ele>240</ele>
        <time>2025-08-06T07:38:57Z</time>
      </trkpt>
      <trkpt lat="48.25632" lon="7.38988">
        <ele>240.2</ele>
        <time>2025-08-06T07:38:58Z</time>
      </trkpt>
      <trkpt lat="48.25626" lon="7.38974">
        <ele>241</ele>
        <time>2025-08-06T07:39:02Z</time>
      </trkpt>
      <trkpt lat="48.2562" lon="7.38966">
        <ele>241.4</ele>
        <time>2025-08-06T07:39:05Z</time>
      </trkpt>
      <trkpt lat="48.2561" lon="7.3896">
        <ele>242.2</ele>
        <time>2025-08-06T07:39:09Z</time>
      </trkpt>
      <trkpt lat="48.25607" lon="7.38958">
        <ele>242.4</ele>
        <time>2025-08-06T07:39:10Z</time>
      </trkpt>
      <trkpt lat="48.25591" lon="7.38952">
        <ele>243.2</ele>
        <time>2025-08-06T07:39:15Z</time>
      </trkpt>
      <trkpt lat="48.25582" lon="7.3895">
        <ele>243.6</ele>
        <time>2025-08-06T07:39:18Z</time>
      </trkpt>
      <trkpt lat="48.25571" lon="7.38945">
        <ele>244.2</ele>
        <time>2025-08-06T07:39:22Z</time>
      </trkpt>
      <trkpt lat="48.25562" lon="7.38935">
        <ele>244.6</ele>
        <time>2025-08-06T07:39:26Z</time>
      </trkpt>
      <trkpt lat="48.25553" lon="7.38926">
        <ele>245.2</ele>
        <time>2025-08-06T07:39:30Z</time>
      </trkpt>
      <trkpt lat="48.25542" lon="7.38913">
        <ele>246.6</ele>
        <time>2025-08-06T07:39:36Z</time>
      </trkpt>
      <trkpt lat="48.25529" lon="7.38897">
        <ele>247.6</ele>
        <time>2025-08-06T07:39:43Z</time>
      </trkpt>
      <trkpt lat="48.25525" lon="7.38892">
        <ele>248</ele>
        <time>2025-08-06T07:39:45Z</time>
      </trkpt>
      <trkpt lat="48.25521" lon="7.38886">
        <ele>248.6</ele>
        <time>2025-08-06T07:39:47Z</time>
      </trkpt>
      <trkpt lat="48.25513" lon="7.38873">
        <ele>249.6</ele>
        <time>2025-08-06T07:39:51Z</time>
      </trkpt>
      <trkpt lat="48.25509" lon="7.38863">
        <ele>250.4</ele>
        <time>2025-08-06T07:39:54Z</time>
      </trkpt>
      <trkpt lat="48.25504" lon="7.38854">
        <ele>251</ele>
        <time>2025-08-06T07:39:57Z</time>
      </trkpt>
      <trkpt lat="48.25497" lon="7.38838">
        <ele>251.8</ele>
        <time>2025-08-06T07:40:02Z</time>
      </trkpt>
      <trkpt lat="48.25491" lon="7.38823">
        <ele>253</ele>
        <time>2025-08-06T07:40:07Z</time>
      </trkpt>
      <trkpt lat="48.25489" lon="7.38819">
        <ele>253.2</ele>
        <time>2025-08-06T07:40:08Z</time>
      </trkpt>
      <trkpt lat="48.25486" lon="7.38809">
        <ele>254</ele>
        <time>2025-08-06T07:40:11Z</time>
      </trkpt>
      <trkpt lat="48.25483" lon="7.38796">
        <ele>254.6</ele>
        <time>2025-08-06T07:40:15Z</time>
      </trkpt>
      <trkpt lat="48.25483" lon="7.38792">
        <ele>255</ele>
        <time>2025-08-06T07:40:16Z</time>
      </trkpt>
      <trkpt lat="48.25481" lon="7.38772">
        <ele>256.2</ele>
        <time>2025-08-06T07:40:21Z</time>
      </trkpt>
      <trkpt lat="48.25482" lon="7.38757">
        <ele>257</ele>
        <time>2025-08-06T07:40:25Z</time>
      </trkpt>
      <trkpt lat="48.25482" lon="7.38753">
        <ele>257.2</ele>
        <time>2025-08-06T07:40:26Z</time>
      </trkpt>
      <trkpt lat="48.25483" lon="7.38734">
        <ele>258.2</ele>
        <time>2025-08-06T07:40:31Z</time>
      </trkpt>
      <trkpt lat="48.25483" lon="7.38727">
        <ele>258.8</ele>
        <time>2025-08-06T07:40:33Z</time>
      </trkpt>
      <trkpt lat="48.25483" lon="7.3872">
        <ele>259.2</ele>
        <time>2025-08-06T07:40:35Z</time>
      </trkpt>
      <trkpt lat="48.25486" lon="7.38707">
        <ele>259.4</ele>
        <time>2025-08-06T07:40:39Z</time>
      </trkpt>
      <trkpt lat="48.25487" lon="7.38693">
        <ele>260.2</ele>
        <time>2025-08-06T07:40:43Z</time>
      </trkpt>
      <trkpt lat="48.25488" lon="7.38687">
        <ele>260.6</ele>
        <time>2025-08-06T07:40:45Z</time>
      </trkpt>
      <trkpt lat="48.25491" lon="7.38673">
        <ele>261.4</ele>
        <time>2025-08-06T07:40:49Z</time>
      </trkpt>
      <trkpt lat="48.25493" lon="7.38666">
        <ele>261.8</ele>
        <time>2025-08-06T07:40:51Z</time>
      </trkpt>
      <trkpt lat="48.25494" lon="7.38662">
        <ele>262.2</ele>
        <time>2025-08-06T07:40:52Z</time>
      </trkpt>
      <trkpt lat="48.25495" lon="7.3866">
        <ele>262.4</ele>
        <time>2025-08-06T07:40:53Z</time>
      </trkpt>
      <trkpt lat="48.25495" lon="7.38652">
        <ele>263</ele>
        <time>2025-08-06T07:40:55Z</time>
      </trkpt>
      <trkpt lat="48.25496" lon="7.38647">
        <ele>263.4</ele>
        <time>2025-08-06T07:40:56Z</time>
      </trkpt>
      <trkpt lat="48.255" lon="7.38622">
        <ele>264.8</ele>
        <time>2025-08-06T07:41:02Z</time>
      </trkpt>
      <trkpt lat="48.25501" lon="7.38617">
        <ele>264.8</ele>
        <time>2025-08-06T07:41:03Z</time>
      </trkpt>
      <trkpt lat="48.25502" lon="7.38608">
        <ele>265.2</ele>
        <time>2025-08-06T07:41:05Z</time>
      </trkpt>
      <trkpt lat="48.25503" lon="7.38601">
        <ele>265.4</ele>
        <time>2025-08-06T07:41:07Z</time>
      </trkpt>
      <trkpt lat="48.25503" lon="7.38597">
        <ele>265.8</ele>
        <time>2025-08-06T07:41:08Z</time>
      </trkpt>
      <trkpt lat="48.25502" lon="7.38579">
        <ele>266.4</ele>
        <time>2025-08-06T07:41:12Z</time>
      </trkpt>
      <trkpt lat="48.25506" lon="7.38576">
        <ele>266.8</ele>
        <time>2025-08-06T07:41:14Z</time>
      </trkpt>
      <trkpt lat="48.25512" lon="7.38562">
        <ele>267.8</ele>
        <time>2025-08-06T07:41:18Z</time>
      </trkpt>
      <trkpt lat="48.25515" lon="7.38556">
        <ele>268</ele>
        <time>2025-08-06T07:41:20Z</time>
      </trkpt>
      <trkpt lat="48.25518" lon="7.38551">
        <ele>268.6</ele>
        <time>2025-08-06T07:41:22Z</time>
      </trkpt>
      <trkpt lat="48.25518" lon="7.38548">
        <ele>268.6</ele>
        <time>2025-08-06T07:41:23Z</time>
      </trkpt>
      <trkpt lat="48.25521" lon="7.38537">
        <ele>269.2</ele>
        <time>2025-08-06T07:41:26Z</time>
      </trkpt>
      <trkpt lat="48.25526" lon="7.38522">
        <ele>269.8</ele>
        <time>2025-08-06T07:41:30Z</time>
      </trkpt>
      <trkpt lat="48.25527" lon="7.38518">
        <ele>269.8</ele>
        <time>2025-08-06T07:41:31Z</time>
      </trkpt>
      <trkpt lat="48.25534" lon="7.38499">
        <ele>270.8</ele>
        <time>2025-08-06T07:41:37Z</time>
      </trkpt>
      <trkpt lat="48.25534" lon="7.38496">
        <ele>270.8</ele>
        <time>2025-08-06T07:41:38Z</time>
      </trkpt>
      <trkpt lat="48.25527" lon="7.38473">
        <ele>271.4</ele>
        <time>2025-08-06T07:41:43Z</time>
      </trkpt>
      <trkpt lat="48.25516" lon="7.3846">
        <ele>271.8</ele>
        <time>2025-08-06T07:41:47Z</time>
      </trkpt>
      <trkpt lat="48.2551" lon="7.38455">
        <ele>272</ele>
        <time>2025-08-06T07:41:49Z</time>
      </trkpt>
      <trkpt lat="48.25502" lon="7.38455">
        <ele>272.4</ele>
        <time>2025-08-06T07:41:53Z</time>
      </trkpt>
      <trkpt lat="48.25496" lon="7.38462">
        <ele>272.6</ele>
        <time>2025-08-06T07:41:56Z</time>
      </trkpt>
      <trkpt lat="48.25491" lon="7.38468">
        <ele>273</ele>
        <time>2025-08-06T07:41:59Z</time>
      </trkpt>
      <trkpt lat="48.25481" lon="7.38485">
        <ele>273.8</ele>
        <time>2025-08-06T07:42:05Z</time>
      </trkpt>
      <trkpt lat="48.2548" lon="7.38488">
        <ele>274</ele>
        <time>2025-08-06T07:42:06Z</time>
      </trkpt>
      <trkpt lat="48.25472" lon="7.38507">
        <ele>274.8</ele>
        <time>2025-08-06T07:42:11Z</time>
      </trkpt>
      <trkpt lat="48.25469" lon="7.38511">
        <ele>275</ele>
        <time>2025-08-06T07:42:12Z</time>
      </trkpt>
      <trkpt lat="48.25461" lon="7.38531">
        <ele>275.8</ele>
        <time>2025-08-06T07:42:17Z</time>
      </trkpt>
      <trkpt lat="48.25459" lon="7.38536">
        <ele>276.2</ele>
        <time>2025-08-06T07:42:18Z</time>
      </trkpt>
      <trkpt lat="48.25452" lon="7.38555">
        <ele>277</ele>
        <time>2025-08-06T07:42:22Z</time>
      </trkpt>
      <trkpt lat="48.25448" lon="7.38569">
        <ele>277.6</ele>
        <time>2025-08-06T07:42:25Z</time>
      </trkpt>
      <trkpt lat="48.25442" lon="7.38584">
        <ele>278</ele>
        <time>2025-08-06T07:42:29Z</time>
      </trkpt>
      <trkpt lat="48.2544" lon="7.38586">
        <ele>278.2</ele>
        <time>2025-08-06T07:42:30Z</time>
      </trkpt>
      <trkpt lat="48.2543" lon="7.38587">
        <ele>278.6</ele>
        <time>2025-08-06T07:42:34Z</time>
      </trkpt>
      <trkpt lat="48.25428" lon="7.38585">
        <ele>278.8</ele>
        <time>2025-08-06T07:42:35Z</time>
      </trkpt>
      <trkpt lat="48.25427" lon="7.38583">
        <ele>279.2</ele>
        <time>2025-08-06T07:42:36Z</time>
      </trkpt>
      <trkpt lat="48.25425" lon="7.38576">
        <ele>279.6</ele>
        <time>2025-08-06T07:42:38Z</time>
      </trkpt>
      <trkpt lat="48.25425" lon="7.38572">
        <ele>280</ele>
        <time>2025-08-06T07:42:39Z</time>
      </trkpt>
      <trkpt lat="48.25426" lon="7.38569">
        <ele>280.2</ele>
        <time>2025-08-06T07:42:40Z</time>
      </trkpt>
      <trkpt lat="48.25428" lon="7.3856">
        <ele>281.2</ele>
        <time>2025-08-06T07:42:42Z</time>
      </trkpt>
      <trkpt lat="48.25429" lon="7.38556">
        <ele>281.4</ele>
        <time>2025-08-06T07:42:43Z</time>
      </trkpt>
      <trkpt lat="48.25434" lon="7.3854">
        <ele>282.4</ele>
        <time>2025-08-06T07:42:47Z</time>
      </trkpt>
      <trkpt lat="48.25435" lon="7.38535">
        <ele>282.6</ele>
        <time>2025-08-06T07:42:48Z</time>
      </trkpt>
      <trkpt lat="48.25441" lon="7.38516">
        <ele>283.4</ele>
        <time>2025-08-06T07:42:53Z</time>
      </trkpt>
      <trkpt lat="48.25443" lon="7.38512">
        <ele>283.6</ele>
        <time>2025-08-06T07:42:54Z</time>
      </trkpt>
      <trkpt lat="48.25448" lon="7.38492">
        <ele>284.6</ele>
        <time>2025-08-06T07:42:58Z</time>
      </trkpt>
      <trkpt lat="48.25456" lon="7.38471">
        <ele>285.8</ele>
        <time>2025-08-06T07:43:03Z</time>
      </trkpt>
      <trkpt lat="48.25458" lon="7.38464">
        <ele>286.2</ele>
        <time>2025-08-06T07:43:05Z</time>
      </trkpt>
      <trkpt lat="48.25468" lon="7.3844">
        <ele>286.8</ele>
        <time>2025-08-06T07:43:12Z</time>
      </trkpt>
      <trkpt lat="48.25474" lon="7.38423">
        <ele>288</ele>
        <time>2025-08-06T07:43:17Z</time>
      </trkpt>
      <trkpt lat="48.25477" lon="7.38413">
        <ele>288.6</ele>
        <time>2025-08-06T07:43:20Z</time>
      </trkpt>
      <trkpt lat="48.25479" lon="7.38405">
        <ele>289</ele>
        <time>2025-08-06T07:43:22Z</time>
      </trkpt>
      <trkpt lat="48.25481" lon="7.38391">
        <ele>290.2</ele>
        <time>2025-08-06T07:43:26Z</time>
      </trkpt>
      <trkpt lat="48.25482" lon="7.38384">
        <ele>290.4</ele>
        <time>2025-08-06T07:43:28Z</time>
      </trkpt>
      <trkpt lat="48.25483" lon="7.38367">
        <ele>291.2</ele>
        <time>2025-08-06T07:43:32Z</time>
      </trkpt>
      <trkpt lat="48.25484" lon="7.38344">
        <ele>292.4</ele>
        <time>2025-08-06T07:43:37Z</time>
      </trkpt>
      <trkpt lat="48.25484" lon="7.38339">
        <ele>292.4</ele>
        <time>2025-08-06T07:43:38Z</time>
      </trkpt>
      <trkpt lat="48.25484" lon="7.38316">
        <ele>293.6</ele>
        <time>2025-08-06T07:43:43Z</time>
      </trkpt>
      <trkpt lat="48.25484" lon="7.38311">
        <ele>293.8</ele>
        <time>2025-08-06T07:43:44Z</time>
      </trkpt>
      <trkpt lat="48.25488" lon="7.38293">
        <ele>294.6</ele>
        <time>2025-08-06T07:43:48Z</time>
      </trkpt>
      <trkpt lat="48.25494" lon="7.38273">
        <ele>295.6</ele>
        <time>2025-08-06T07:43:53Z</time>
      </trkpt>
      <trkpt lat="48.25495" lon="7.38269">
        <ele>295.6</ele>
        <time>2025-08-06T07:43:54Z</time>
      </trkpt>
      <trkpt lat="48.25499" lon="7.38253">
        <ele>296.8</ele>
        <time>2025-08-06T07:43:58Z</time>
      </trkpt>
      <trkpt lat="48.255" lon="7.38249">
        <ele>297</ele>
        <time>2025-08-06T07:43:59Z</time>
      </trkpt>
      <trkpt lat="48.25502" lon="7.38241">
        <ele>297.8</ele>
        <time>2025-08-06T07:44:01Z</time>
      </trkpt>
      <trkpt lat="48.25507" lon="7.38227">
        <ele>298.6</ele>
        <time>2025-08-06T07:44:05Z</time>
      </trkpt>
      <trkpt lat="48.2551" lon="7.3822">
        <ele>299.2</ele>
        <time>2025-08-06T07:44:07Z</time>
      </trkpt>
      <trkpt lat="48.25513" lon="7.38209">
        <ele>299.6</ele>
        <time>2025-08-06T07:44:10Z</time>
      </trkpt>
      <trkpt lat="48.25514" lon="7.38201">
        <ele>300.2</ele>
        <time>2025-08-06T07:44:12Z</time>
      </trkpt>
      <trkpt lat="48.25517" lon="7.38187">
        <ele>301</ele>
        <time>2025-08-06T07:44:16Z</time>
      </trkpt>
      <trkpt lat="48.25518" lon="7.38184">
        <ele>301.2</ele>
        <time>2025-08-06T07:44:17Z</time>
      </trkpt>
      <trkpt lat="48.25525" lon="7.38162">
        <ele>302.2</ele>
        <time>2025-08-06T07:44:23Z</time>
      </trkpt>
      <trkpt lat="48.25528" lon="7.38151">
        <ele>303</ele>
        <time>2025-08-06T07:44:26Z</time>
      </trkpt>
      <trkpt lat="48.25529" lon="7.38144">
        <ele>303.2</ele>
        <time>2025-08-06T07:44:28Z</time>
      </trkpt>
      <trkpt lat="48.25529" lon="7.38133">
        <ele>304.2</ele>
        <time>2025-08-06T07:44:31Z</time>
      </trkpt>
      <trkpt lat="48.2553" lon="7.38129">
        <ele>304.6</ele>
        <time>2025-08-06T07:44:32Z</time>
      </trkpt>
      <trkpt lat="48.25535" lon="7.38108">
        <ele>305.6</ele>
        <time>2025-08-06T07:44:37Z</time>
      </trkpt>
      <trkpt lat="48.25535" lon="7.38104">
        <ele>306</ele>
        <time>2025-08-06T07:44:38Z</time>
      </trkpt>
      <trkpt lat="48.25536" lon="7.38098">
        <ele>306.4</ele>
        <time>2025-08-06T07:44:40Z</time>
      </trkpt>
      <trkpt lat="48.25537" lon="7.38096">
        <ele>306.8</ele>
        <time>2025-08-06T07:44:41Z</time>
      </trkpt>
      <trkpt lat="48.25539" lon="7.3809">
        <ele>307</ele>
        <time>2025-08-06T07:44:43Z</time>
      </trkpt>
      <trkpt lat="48.25537" lon="7.38083">
        <ele>307.6</ele>
        <time>2025-08-06T07:44:45Z</time>
      </trkpt>
      <trkpt lat="48.25537" lon="7.3808">
        <ele>307.6</ele>
        <time>2025-08-06T07:44:46Z</time>
      </trkpt>
      <trkpt lat="48.25536" lon="7.38075">
        <ele>307.8</ele>
        <time>2025-08-06T07:44:47Z</time>
      </trkpt>
      <trkpt lat="48.25536" lon="7.38053">
        <ele>308.8</ele>
        <time>2025-08-06T07:44:52Z</time>
      </trkpt>
      <trkpt lat="48.25537" lon="7.38025">
        <ele>310.2</ele>
        <time>2025-08-06T07:44:58Z</time>
      </trkpt>
      <trkpt lat="48.25538" lon="7.38022">
        <ele>310.4</ele>
        <time>2025-08-06T07:44:59Z</time>
      </trkpt>
      <trkpt lat="48.2554" lon="7.38013">
        <ele>310.6</ele>
        <time>2025-08-06T07:45:01Z</time>
      </trkpt>
      <trkpt lat="48.25541" lon="7.38005">
        <ele>311.2</ele>
        <time>2025-08-06T07:45:03Z</time>
      </trkpt>
      <trkpt lat="48.25543" lon="7.3799">
        <ele>311.6</ele>
        <time>2025-08-06T07:45:06Z</time>
      </trkpt>
      <trkpt lat="48.25543" lon="7.37986">
        <ele>311.8</ele>
        <time>2025-08-06T07:45:07Z</time>
      </trkpt>
      <trkpt lat="48.25544" lon="7.37978">
        <ele>312.4</ele>
        <time>2025-08-06T07:45:09Z</time>
      </trkpt>
      <trkpt lat="48.2555" lon="7.37971">
        <ele>312.8</ele>
        <time>2025-08-06T07:45:11Z</time>
      </trkpt>
      <trkpt lat="48.25552" lon="7.37955">
        <ele>313.6</ele>
        <time>2025-08-06T07:45:15Z</time>
      </trkpt>
      <trkpt lat="48.25553" lon="7.37949">
        <ele>314.2</ele>
        <time>2025-08-06T07:45:17Z</time>
      </trkpt>
      <trkpt lat="48.25555" lon="7.37942">
        <ele>314.6</ele>
        <time>2025-08-06T07:45:19Z</time>
      </trkpt>
      <trkpt lat="48.25558" lon="7.37923">
        <ele>315.4</ele>
        <time>2025-08-06T07:45:24Z</time>
      </trkpt>
      <trkpt lat="48.25559" lon="7.37919">
        <ele>315.6</ele>
        <time>2025-08-06T07:45:25Z</time>
      </trkpt>
      <trkpt lat="48.25564" lon="7.37905">
        <ele>316.8</ele>
        <time>2025-08-06T07:45:29Z</time>
      </trkpt>
      <trkpt lat="48.25572" lon="7.37886">
        <ele>318</ele>
        <time>2025-08-06T07:45:34Z</time>
      </trkpt>
      <trkpt lat="48.25575" lon="7.37879">
        <ele>318.4</ele>
        <time>2025-08-06T07:45:36Z</time>
      </trkpt>
      <trkpt lat="48.25581" lon="7.37865">
        <ele>318.8</ele>
        <time>2025-08-06T07:45:40Z</time>
      </trkpt>
      <trkpt lat="48.25591" lon="7.37849">
        <ele>319.8</ele>
        <time>2025-08-06T07:45:45Z</time>
      </trkpt>
      <trkpt lat="48.25594" lon="7.37847">
        <ele>320</ele>
        <time>2025-08-06T07:45:46Z</time>
      </trkpt>
      <trkpt lat="48.25602" lon="7.37838">
        <ele>321.2</ele>
        <time>2025-08-06T07:45:50Z</time>
      </trkpt>
      <trkpt lat="48.25604" lon="7.37837">
        <ele>321.2</ele>
        <time>2025-08-06T07:45:51Z</time>
      </trkpt>
      <trkpt lat="48.2561" lon="7.37829">
        <ele>322.2</ele>
        <time>2025-08-06T07:45:55Z</time>
      </trkpt>
      <trkpt lat="48.25615" lon="7.37821">
        <ele>322.8</ele>
        <time>2025-08-06T07:45:58Z</time>
      </trkpt>
      <trkpt lat="48.25618" lon="7.37816">
        <ele>323.4</ele>
        <time>2025-08-06T07:46:00Z</time>
      </trkpt>
      <trkpt lat="48.25625" lon="7.37805">
        <ele>324.2</ele>
        <time>2025-08-06T07:46:04Z</time>
      </trkpt>
      <trkpt lat="48.25627" lon="7.37802">
        <ele>324.6</ele>
        <time>2025-08-06T07:46:05Z</time>
      </trkpt>
      <trkpt lat="48.25635" lon="7.37775">
        <ele>325.8</ele>
        <time>2025-08-06T07:46:12Z</time>
      </trkpt>
      <trkpt lat="48.25639" lon="7.37757">
        <ele>327</ele>
        <time>2025-08-06T07:46:17Z</time>
      </trkpt>
      <trkpt lat="48.25645" lon="7.37739">
        <ele>327.6</ele>
        <time>2025-08-06T07:46:21Z</time>
      </trkpt>
      <trkpt lat="48.25648" lon="7.37731">
        <ele>328</ele>
        <time>2025-08-06T07:46:23Z</time>
      </trkpt>
      <trkpt lat="48.25649" lon="7.37727">
        <ele>328.2</ele>
        <time>2025-08-06T07:46:24Z</time>
      </trkpt>
      <trkpt lat="48.25657" lon="7.37701">
        <ele>329.2</ele>
        <time>2025-08-06T07:46:30Z</time>
      </trkpt>
      <trkpt lat="48.25658" lon="7.37697">
        <ele>329.2</ele>
        <time>2025-08-06T07:46:31Z</time>
      </trkpt>
      <trkpt lat="48.25663" lon="7.37679">
        <ele>330.4</ele>
        <time>2025-08-06T07:46:37Z</time>
      </trkpt>
      <trkpt lat="48.25664" lon="7.37676">
        <ele>330.8</ele>
        <time>2025-08-06T07:46:38Z</time>
      </trkpt>
      <trkpt lat="48.25664" lon="7.37672">
        <ele>330.8</ele>
        <time>2025-08-06T07:46:39Z</time>
      </trkpt>
      <trkpt lat="48.25667" lon="7.37665">
        <ele>331.6</ele>
        <time>2025-08-06T07:46:41Z</time>
      </trkpt>
      <trkpt lat="48.25672" lon="7.3765">
        <ele>332.8</ele>
        <time>2025-08-06T07:46:46Z</time>
      </trkpt>
      <trkpt lat="48.25673" lon="7.37647">
        <ele>333.2</ele>
        <time>2025-08-06T07:46:47Z</time>
      </trkpt>
      <trkpt lat="48.25678" lon="7.37635">
        <ele>333.6</ele>
        <time>2025-08-06T07:46:51Z</time>
      </trkpt>
      <trkpt lat="48.25681" lon="7.37632">
        <ele>333.8</ele>
        <time>2025-08-06T07:46:52Z</time>
      </trkpt>
      <trkpt lat="48.25684" lon="7.3763">
        <ele>334</ele>
        <time>2025-08-06T07:46:53Z</time>
      </trkpt>
      <trkpt lat="48.25687" lon="7.3763">
        <ele>334.2</ele>
        <time>2025-08-06T07:46:54Z</time>
      </trkpt>
      <trkpt lat="48.25693" lon="7.37633">
        <ele>334.6</ele>
        <time>2025-08-06T07:46:56Z</time>
      </trkpt>
      <trkpt lat="48.25695" lon="7.37635">
        <ele>334.6</ele>
        <time>2025-08-06T07:46:57Z</time>
      </trkpt>
      <trkpt lat="48.25703" lon="7.37652">
        <ele>334.8</ele>
        <time>2025-08-06T07:47:01Z</time>
      </trkpt>
      <trkpt lat="48.25704" lon="7.37657">
        <ele>335.2</ele>
        <time>2025-08-06T07:47:02Z</time>
      </trkpt>
      <trkpt lat="48.25707" lon="7.37666">
        <ele>335.8</ele>
        <time>2025-08-06T07:47:05Z</time>
      </trkpt>
      <trkpt lat="48.2571" lon="7.37681">
        <ele>336.8</ele>
        <time>2025-08-06T07:47:09Z</time>
      </trkpt>
      <trkpt lat="48.2571" lon="7.37686">
        <ele>337</ele>
        <time>2025-08-06T07:47:10Z</time>
      </trkpt>
      <trkpt lat="48.25712" lon="7.37705">
        <ele>338</ele>
        <time>2025-08-06T07:47:14Z</time>
      </trkpt>
      <trkpt lat="48.25713" lon="7.37727">
        <ele>339</ele>
        <time>2025-08-06T07:47:19Z</time>
      </trkpt>
      <trkpt lat="48.25713" lon="7.37742">
        <ele>340.2</ele>
        <time>2025-08-06T07:47:23Z</time>
      </trkpt>
      <trkpt lat="48.25713" lon="7.3775">
        <ele>340.6</ele>
        <time>2025-08-06T07:47:25Z</time>
      </trkpt>
      <trkpt lat="48.25713" lon="7.37761">
        <ele>341.4</ele>
        <time>2025-08-06T07:47:28Z</time>
      </trkpt>
      <trkpt lat="48.25712" lon="7.3778">
        <ele>342.2</ele>
        <time>2025-08-06T07:47:33Z</time>
      </trkpt>
      <trkpt lat="48.25712" lon="7.37784">
        <ele>342.4</ele>
        <time>2025-08-06T07:47:34Z</time>
      </trkpt>
      <trkpt lat="48.25712" lon="7.37799">
        <ele>343.4</ele>
        <time>2025-08-06T07:47:38Z</time>
      </trkpt>
      <trkpt lat="48.25711" lon="7.37803">
        <ele>343.6</ele>
        <time>2025-08-06T07:47:39Z</time>
      </trkpt>
      <trkpt lat="48.25711" lon="7.37825">
        <ele>344.6</ele>
        <time>2025-08-06T07:47:45Z</time>
      </trkpt>
      <trkpt lat="48.25711" lon="7.37837">
        <ele>345.4</ele>
        <time>2025-08-06T07:47:48Z</time>
      </trkpt>
      <trkpt lat="48.25711" lon="7.37849">
        <ele>345.8</ele>
        <time>2025-08-06T07:47:51Z</time>
      </trkpt>
      <trkpt lat="48.25708" lon="7.3787">
        <ele>346.8</ele>
        <time>2025-08-06T07:47:56Z</time>
      </trkpt>
      <trkpt lat="48.25707" lon="7.37874">
        <ele>347</ele>
        <time>2025-08-06T07:47:57Z</time>
      </trkpt>
      <trkpt lat="48.25701" lon="7.37895">
        <ele>348</ele>
        <time>2025-08-06T07:48:03Z</time>
      </trkpt>
      <trkpt lat="48.25696" lon="7.37914">
        <ele>349</ele>
        <time>2025-08-06T07:48:08Z</time>
      </trkpt>
      <trkpt lat="48.2569" lon="7.3793">
        <ele>350</ele>
        <time>2025-08-06T07:48:13Z</time>
      </trkpt>
      <trkpt lat="48.25689" lon="7.37934">
        <ele>350.2</ele>
        <time>2025-08-06T07:48:14Z</time>
      </trkpt>
      <trkpt lat="48.25689" lon="7.37955">
        <ele>351.2</ele>
        <time>2025-08-06T07:48:19Z</time>
      </trkpt>
      <trkpt lat="48.25691" lon="7.37959">
        <ele>351.4</ele>
        <time>2025-08-06T07:48:20Z</time>
      </trkpt>
      <trkpt lat="48.25704" lon="7.37968">
        <ele>352.2</ele>
        <time>2025-08-06T07:48:25Z</time>
      </trkpt>
      <trkpt lat="48.25718" lon="7.37962">
        <ele>353</ele>
        <time>2025-08-06T07:48:30Z</time>
      </trkpt>
      <trkpt lat="48.25725" lon="7.3795">
        <ele>353.2</ele>
        <time>2025-08-06T07:48:33Z</time>
      </trkpt>
      <trkpt lat="48.25729" lon="7.37941">
        <ele>353.6</ele>
        <time>2025-08-06T07:48:35Z</time>
      </trkpt>
      <trkpt lat="48.25736" lon="7.37914">
        <ele>354.4</ele>
        <time>2025-08-06T07:48:41Z</time>
      </trkpt>
      <trkpt lat="48.25738" lon="7.37909">
        <ele>354.6</ele>
        <time>2025-08-06T07:48:42Z</time>
      </trkpt>
      <trkpt lat="48.25744" lon="7.37887">
        <ele>355.4</ele>
        <time>2025-08-06T07:48:47Z</time>
      </trkpt>
      <trkpt lat="48.25747" lon="7.37873">
        <ele>355.8</ele>
        <time>2025-08-06T07:48:50Z</time>
      </trkpt>
      <trkpt lat="48.25752" lon="7.37855">
        <ele>356.2</ele>
        <time>2025-08-06T07:48:54Z</time>
      </trkpt>
      <trkpt lat="48.25757" lon="7.37838">
        <ele>356.8</ele>
        <time>2025-08-06T07:48:58Z</time>
      </trkpt>
      <trkpt lat="48.25759" lon="7.37825">
        <ele>357.4</ele>
        <time>2025-08-06T07:49:01Z</time>
      </trkpt>
      <trkpt lat="48.25762" lon="7.37806">
        <ele>357.8</ele>
        <time>2025-08-06T07:49:05Z</time>
      </trkpt>
      <trkpt lat="48.25764" lon="7.37798">
        <ele>358.2</ele>
        <time>2025-08-06T07:49:07Z</time>
      </trkpt>
      <trkpt lat="48.25768" lon="7.37781">
        <ele>359</ele>
        <time>2025-08-06T07:49:11Z</time>
      </trkpt>
      <trkpt lat="48.25771" lon="7.3776">
        <ele>360.2</ele>
        <time>2025-08-06T07:49:16Z</time>
      </trkpt>
      <trkpt lat="48.25776" lon="7.37738">
        <ele>361.2</ele>
        <time>2025-08-06T07:49:21Z</time>
      </trkpt>
      <trkpt lat="48.25782" lon="7.37715">
        <ele>362.2</ele>
        <time>2025-08-06T07:49:27Z</time>
      </trkpt>
      <trkpt lat="48.25784" lon="7.37711">
        <ele>362.4</ele>
        <time>2025-08-06T07:49:28Z</time>
      </trkpt>
      <trkpt lat="48.25788" lon="7.37701">
        <ele>363.2</ele>
        <time>2025-08-06T07:49:31Z</time>
      </trkpt>
      <trkpt lat="48.25793" lon="7.37693">
        <ele>364</ele>
        <time>2025-08-06T07:49:34Z</time>
      </trkpt>
      <trkpt lat="48.25795" lon="7.3769">
        <ele>364.2</ele>
        <time>2025-08-06T07:49:35Z</time>
      </trkpt>
      <trkpt lat="48.25805" lon="7.37676">
        <ele>365.6</ele>
        <time>2025-08-06T07:49:40Z</time>
      </trkpt>
      <trkpt lat="48.25807" lon="7.37674">
        <ele>365.6</ele>
        <time>2025-08-06T07:49:41Z</time>
      </trkpt>
      <trkpt lat="48.25811" lon="7.37668">
        <ele>366.2</ele>
        <time>2025-08-06T07:49:43Z</time>
      </trkpt>
      <trkpt lat="48.25815" lon="7.37664">
        <ele>366.6</ele>
        <time>2025-08-06T07:49:45Z</time>
      </trkpt>
      <trkpt lat="48.25818" lon="7.37661">
        <ele>366.8</ele>
        <time>2025-08-06T07:49:46Z</time>
      </trkpt>
      <trkpt lat="48.25828" lon="7.37647">
        <ele>367.6</ele>
        <time>2025-08-06T07:49:51Z</time>
      </trkpt>
      <trkpt lat="48.25831" lon="7.3764">
        <ele>368</ele>
        <time>2025-08-06T07:49:53Z</time>
      </trkpt>
      <trkpt lat="48.25833" lon="7.3763">
        <ele>368.8</ele>
        <time>2025-08-06T07:49:57Z</time>
      </trkpt>
      <trkpt lat="48.25831" lon="7.37626">
        <ele>369.2</ele>
        <time>2025-08-06T07:49:59Z</time>
      </trkpt>
      <trkpt lat="48.25828" lon="7.37618">
        <ele>369.6</ele>
        <time>2025-08-06T07:50:01Z</time>
      </trkpt>
      <trkpt lat="48.25825" lon="7.37606">
        <ele>370</ele>
        <time>2025-08-06T07:50:03Z</time>
      </trkpt>
      <trkpt lat="48.25824" lon="7.37603">
        <ele>370.2</ele>
        <time>2025-08-06T07:50:04Z</time>
      </trkpt>
      <trkpt lat="48.25822" lon="7.37593">
        <ele>371</ele>
        <time>2025-08-06T07:50:07Z</time>
      </trkpt>
      <trkpt lat="48.25817" lon="7.37574">
        <ele>371.8</ele>
        <time>2025-08-06T07:50:11Z</time>
      </trkpt>
      <trkpt lat="48.25817" lon="7.37568">
        <ele>372.2</ele>
        <time>2025-08-06T07:50:12Z</time>
      </trkpt>
      <trkpt lat="48.25814" lon="7.37547">
        <ele>373</ele>
        <time>2025-08-06T07:50:17Z</time>
      </trkpt>
      <trkpt lat="48.25814" lon="7.37543">
        <ele>373.2</ele>
        <time>2025-08-06T07:50:18Z</time>
      </trkpt>
      <trkpt lat="48.25811" lon="7.37521">
        <ele>374.2</ele>
        <time>2025-08-06T07:50:23Z</time>
      </trkpt>
      <trkpt lat="48.25811" lon="7.37518">
        <ele>374.4</ele>
        <time>2025-08-06T07:50:24Z</time>
      </trkpt>
      <trkpt lat="48.2581" lon="7.37516">
        <ele>374.6</ele>
        <time>2025-08-06T07:50:25Z</time>
      </trkpt>
      <trkpt lat="48.25809" lon="7.37503">
        <ele>375</ele>
        <time>2025-08-06T07:50:28Z</time>
      </trkpt>
      <trkpt lat="48.25808" lon="7.37496">
        <ele>375.4</ele>
        <time>2025-08-06T07:50:30Z</time>
      </trkpt>
      <trkpt lat="48.25806" lon="7.37479">
        <ele>376.6</ele>
        <time>2025-08-06T07:50:35Z</time>
      </trkpt>
      <trkpt lat="48.25806" lon="7.37471">
        <ele>377</ele>
        <time>2025-08-06T07:50:37Z</time>
      </trkpt>
      <trkpt lat="48.25805" lon="7.37454">
        <ele>377.6</ele>
        <time>2025-08-06T07:50:41Z</time>
      </trkpt>
      <trkpt lat="48.25805" lon="7.3744">
        <ele>378.2</ele>
        <time>2025-08-06T07:50:44Z</time>
      </trkpt>
      <trkpt lat="48.25805" lon="7.37429">
        <ele>378.8</ele>
        <time>2025-08-06T07:50:47Z</time>
      </trkpt>
      <trkpt lat="48.25804" lon="7.37422">
        <ele>379.4</ele>
        <time>2025-08-06T07:50:49Z</time>
      </trkpt>
      <trkpt lat="48.25802" lon="7.37407">
        <ele>380</ele>
        <time>2025-08-06T07:50:52Z</time>
      </trkpt>
      <trkpt lat="48.258" lon="7.37383">
        <ele>380.8</ele>
        <time>2025-08-06T07:50:57Z</time>
      </trkpt>
      <trkpt lat="48.25798" lon="7.37375">
        <ele>381</ele>
        <time>2025-08-06T07:50:59Z</time>
      </trkpt>
      <trkpt lat="48.25796" lon="7.37349">
        <ele>382.2</ele>
        <time>2025-08-06T07:51:04Z</time>
      </trkpt>
      <trkpt lat="48.25795" lon="7.3734">
        <ele>382.8</ele>
        <time>2025-08-06T07:51:06Z</time>
      </trkpt>
      <trkpt lat="48.25794" lon="7.37324">
        <ele>383.2</ele>
        <time>2025-08-06T07:51:09Z</time>
      </trkpt>
      <trkpt lat="48.25791" lon="7.37306">
        <ele>384</ele>
        <time>2025-08-06T07:51:13Z</time>
      </trkpt>
      <trkpt lat="48.25791" lon="7.37294">
        <ele>384.4</ele>
        <time>2025-08-06T07:51:16Z</time>
      </trkpt>
      <trkpt lat="48.25788" lon="7.37277">
        <ele>385.6</ele>
        <time>2025-08-06T07:51:21Z</time>
      </trkpt>
      <trkpt lat="48.25785" lon="7.37253">
        <ele>386.8</ele>
        <time>2025-08-06T07:51:27Z</time>
      </trkpt>
      <trkpt lat="48.25784" lon="7.37241">
        <ele>387.4</ele>
        <time>2025-08-06T07:51:30Z</time>
      </trkpt>
      <trkpt lat="48.25782" lon="7.3723">
        <ele>388</ele>
        <time>2025-08-06T07:51:33Z</time>
      </trkpt>
      <trkpt lat="48.25782" lon="7.37214">
        <ele>388.8</ele>
        <time>2025-08-06T07:51:37Z</time>
      </trkpt>
      <trkpt lat="48.25782" lon="7.37207">
        <ele>389.2</ele>
        <time>2025-08-06T07:51:39Z</time>
      </trkpt>
      <trkpt lat="48.25783" lon="7.37189">
        <ele>390.2</ele>
        <time>2025-08-06T07:51:44Z</time>
      </trkpt>
      <trkpt lat="48.25779" lon="7.3716">
        <ele>391.6</ele>
        <time>2025-08-06T07:51:50Z</time>
      </trkpt>
      <trkpt lat="48.25777" lon="7.37131">
        <ele>392.6</ele>
        <time>2025-08-06T07:51:56Z</time>
      </trkpt>
      <trkpt lat="48.25777" lon="7.37121">
        <ele>393.2</ele>
        <time>2025-08-06T07:51:58Z</time>
      </trkpt>
      <trkpt lat="48.25773" lon="7.37111">
        <ele>393.8</ele>
        <time>2025-08-06T07:52:00Z</time>
      </trkpt>
      <trkpt lat="48.2577" lon="7.37084">
        <ele>395</ele>
        <time>2025-08-06T07:52:06Z</time>
      </trkpt>
      <trkpt lat="48.25769" lon="7.3708">
        <ele>395.4</ele>
        <time>2025-08-06T07:52:07Z</time>
      </trkpt>
      <trkpt lat="48.25768" lon="7.37058">
        <ele>396.2</ele>
        <time>2025-08-06T07:52:12Z</time>
      </trkpt>
      <trkpt lat="48.25766" lon="7.37042">
        <ele>396.6</ele>
        <time>2025-08-06T07:52:15Z</time>
      </trkpt>
      <trkpt lat="48.25756" lon="7.37011">
        <ele>397</ele>
        <time>2025-08-06T07:52:21Z</time>
      </trkpt>
      <trkpt lat="48.25754" lon="7.37006">
        <ele>397.2</ele>
        <time>2025-08-06T07:52:22Z</time>
      </trkpt>
      <trkpt lat="48.25736" lon="7.3697">
        <ele>397.8</ele>
        <time>2025-08-06T07:52:29Z</time>
      </trkpt>
      <trkpt lat="48.25718" lon="7.36947">
        <ele>398.2</ele>
        <time>2025-08-06T07:52:35Z</time>
      </trkpt>
      <trkpt lat="48.25701" lon="7.36926">
        <ele>398.8</ele>
        <time>2025-08-06T07:52:40Z</time>
      </trkpt>
      <trkpt lat="48.25691" lon="7.36918">
        <ele>399.2</ele>
        <time>2025-08-06T07:52:43Z</time>
      </trkpt>
      <trkpt lat="48.2567" lon="7.36891">
        <ele>400.4</ele>
        <time>2025-08-06T07:52:50Z</time>
      </trkpt>
      <trkpt lat="48.2565" lon="7.36864">
        <ele>401.4</ele>
        <time>2025-08-06T07:52:57Z</time>
      </trkpt>
      <trkpt lat="48.25647" lon="7.3686">
        <ele>401.6</ele>
        <time>2025-08-06T07:52:58Z</time>
      </trkpt>
      <trkpt lat="48.25633" lon="7.36841">
        <ele>402.4</ele>
        <time>2025-08-06T07:53:03Z</time>
      </trkpt>
      <trkpt lat="48.25625" lon="7.36829">
        <ele>403</ele>
        <time>2025-08-06T07:53:06Z</time>
      </trkpt>
      <trkpt lat="48.25615" lon="7.36814">
        <ele>403.4</ele>
        <time>2025-08-06T07:53:10Z</time>
      </trkpt>
      <trkpt lat="48.25605" lon="7.36801">
        <ele>404.4</ele>
        <time>2025-08-06T07:53:14Z</time>
      </trkpt>
      <trkpt lat="48.25598" lon="7.36794">
        <ele>404.8</ele>
        <time>2025-08-06T07:53:16Z</time>
      </trkpt>
      <trkpt lat="48.25591" lon="7.36779">
        <ele>406</ele>
        <time>2025-08-06T07:53:20Z</time>
      </trkpt>
      <trkpt lat="48.25584" lon="7.36769">
        <ele>406.4</ele>
        <time>2025-08-06T07:53:23Z</time>
      </trkpt>
      <trkpt lat="48.25577" lon="7.36761">
        <ele>407.2</ele>
        <time>2025-08-06T07:53:26Z</time>
      </trkpt>
      <trkpt lat="48.25563" lon="7.3674">
        <ele>408.2</ele>
        <time>2025-08-06T07:53:32Z</time>
      </trkpt>
      <trkpt lat="48.2556" lon="7.36736">
        <ele>408.4</ele>
        <time>2025-08-06T07:53:33Z</time>
      </trkpt>
      <trkpt lat="48.25544" lon="7.36713">
        <ele>409.6</ele>
        <time>2025-08-06T07:53:40Z</time>
      </trkpt>
      <trkpt lat="48.25531" lon="7.36697">
        <ele>410.6</ele>
        <time>2025-08-06T07:53:45Z</time>
      </trkpt>
      <trkpt lat="48.25526" lon="7.3669">
        <ele>411</ele>
        <time>2025-08-06T07:53:47Z</time>
      </trkpt>
      <trkpt lat="48.25516" lon="7.36676">
        <ele>411.6</ele>
        <time>2025-08-06T07:53:51Z</time>
      </trkpt>
      <trkpt lat="48.25506" lon="7.36663">
        <ele>412.4</ele>
        <time>2025-08-06T07:53:55Z</time>
      </trkpt>
      <trkpt lat="48.25501" lon="7.36655">
        <ele>412.8</ele>
        <time>2025-08-06T07:53:57Z</time>
      </trkpt>
      <trkpt lat="48.2549" lon="7.36638">
        <ele>413.8</ele>
        <time>2025-08-06T07:54:02Z</time>
      </trkpt>
      <trkpt lat="48.25485" lon="7.36631">
        <ele>414.2</ele>
        <time>2025-08-06T07:54:04Z</time>
      </trkpt>
      <trkpt lat="48.2548" lon="7.3662">
        <ele>415</ele>
        <time>2025-08-06T07:54:07Z</time>
      </trkpt>
      <trkpt lat="48.25472" lon="7.36603">
        <ele>416</ele>
        <time>2025-08-06T07:54:12Z</time>
      </trkpt>
      <trkpt lat="48.25467" lon="7.36591">
        <ele>416.8</ele>
        <time>2025-08-06T07:54:16Z</time>
      </trkpt>
      <trkpt lat="48.25466" lon="7.36587">
        <ele>417</ele>
        <time>2025-08-06T07:54:17Z</time>
      </trkpt>
      <trkpt lat="48.25461" lon="7.36578">
        <ele>418</ele>
        <time>2025-08-06T07:54:20Z</time>
      </trkpt>
      <trkpt lat="48.25458" lon="7.3657">
        <ele>418.8</ele>
        <time>2025-08-06T07:54:23Z</time>
      </trkpt>
      <trkpt lat="48.25453" lon="7.36562">
        <ele>419.2</ele>
        <time>2025-08-06T07:54:25Z</time>
      </trkpt>
      <trkpt lat="48.25444" lon="7.36543">
        <ele>420.4</ele>
        <time>2025-08-06T07:54:30Z</time>
      </trkpt>
      <trkpt lat="48.25441" lon="7.36536">
        <ele>421</ele>
        <time>2025-08-06T07:54:32Z</time>
      </trkpt>
      <trkpt lat="48.25437" lon="7.36528">
        <ele>421.4</ele>
        <time>2025-08-06T07:54:34Z</time>
      </trkpt>
      <trkpt lat="48.25431" lon="7.36508">
        <ele>422.6</ele>
        <time>2025-08-06T07:54:39Z</time>
      </trkpt>
      <trkpt lat="48.25424" lon="7.36491">
        <ele>423.6</ele>
        <time>2025-08-06T07:54:43Z</time>
      </trkpt>
      <trkpt lat="48.25417" lon="7.36478">
        <ele>424</ele>
        <time>2025-08-06T07:54:46Z</time>
      </trkpt>
      <trkpt lat="48.25413" lon="7.36466">
        <ele>424.8</ele>
        <time>2025-08-06T07:54:49Z</time>
      </trkpt>
      <trkpt lat="48.25407" lon="7.36454">
        <ele>425.6</ele>
        <time>2025-08-06T07:54:52Z</time>
      </trkpt>
      <trkpt lat="48.25404" lon="7.36446">
        <ele>426.2</ele>
        <time>2025-08-06T07:54:54Z</time>
      </trkpt>
      <trkpt lat="48.25396" lon="7.36426">
        <ele>427.2</ele>
        <time>2025-08-06T07:54:59Z</time>
      </trkpt>
      <trkpt lat="48.25393" lon="7.36419">
        <ele>427.8</ele>
        <time>2025-08-06T07:55:01Z</time>
      </trkpt>
      <trkpt lat="48.25388" lon="7.36407">
        <ele>428.4</ele>
        <time>2025-08-06T07:55:04Z</time>
      </trkpt>
      <trkpt lat="48.25383" lon="7.36396">
        <ele>429</ele>
        <time>2025-08-06T07:55:07Z</time>
      </trkpt>
      <trkpt lat="48.25379" lon="7.36384">
        <ele>429.2</ele>
        <time>2025-08-06T07:55:10Z</time>
      </trkpt>
      <trkpt lat="48.25369" lon="7.36359">
        <ele>430.4</ele>
        <time>2025-08-06T07:55:16Z</time>
      </trkpt>
      <trkpt lat="48.25359" lon="7.36335">
        <ele>431.4</ele>
        <time>2025-08-06T07:55:22Z</time>
      </trkpt>
      <trkpt lat="48.25357" lon="7.36332">
        <ele>431.8</ele>
        <time>2025-08-06T07:55:23Z</time>
      </trkpt>
      <trkpt lat="48.25352" lon="7.3632">
        <ele>432.6</ele>
        <time>2025-08-06T07:55:26Z</time>
      </trkpt>
      <trkpt lat="48.25343" lon="7.36302">
        <ele>433.4</ele>
        <time>2025-08-06T07:55:31Z</time>
      </trkpt>
      <trkpt lat="48.25341" lon="7.36297">
        <ele>433.6</ele>
        <time>2025-08-06T07:55:32Z</time>
      </trkpt>
      <trkpt lat="48.25335" lon="7.36281">
        <ele>434.6</ele>
        <time>2025-08-06T07:55:36Z</time>
      </trkpt>
      <trkpt lat="48.25325" lon="7.36264">
        <ele>435.4</ele>
        <time>2025-08-06T07:55:41Z</time>
      </trkpt>
      <trkpt lat="48.25321" lon="7.36256">
        <ele>436</ele>
        <time>2025-08-06T07:55:43Z</time>
      </trkpt>
      <trkpt lat="48.25311" lon="7.36231">
        <ele>436.8</ele>
        <time>2025-08-06T07:55:49Z</time>
      </trkpt>
      <trkpt lat="48.25309" lon="7.36227">
        <ele>437.2</ele>
        <time>2025-08-06T07:55:50Z</time>
      </trkpt>
      <trkpt lat="48.25299" lon="7.36203">
        <ele>438</ele>
        <time>2025-08-06T07:55:55Z</time>
      </trkpt>
      <trkpt lat="48.25295" lon="7.36195">
        <ele>438.2</ele>
        <time>2025-08-06T07:55:57Z</time>
      </trkpt>
      <trkpt lat="48.25287" lon="7.3617">
        <ele>439.2</ele>
        <time>2025-08-06T07:56:02Z</time>
      </trkpt>
      <trkpt lat="48.25285" lon="7.36166">
        <ele>439.4</ele>
        <time>2025-08-06T07:56:03Z</time>
      </trkpt>
      <trkpt lat="48.25277" lon="7.36144">
        <ele>439.8</ele>
        <time>2025-08-06T07:56:07Z</time>
      </trkpt>
      <trkpt lat="48.2527" lon="7.3613">
        <ele>440.4</ele>
        <time>2025-08-06T07:56:10Z</time>
      </trkpt>
      <trkpt lat="48.25269" lon="7.36121">
        <ele>440.6</ele>
        <time>2025-08-06T07:56:12Z</time>
      </trkpt>
      <trkpt lat="48.25263" lon="7.36109">
        <ele>441</ele>
        <time>2025-08-06T07:56:15Z</time>
      </trkpt>
      <trkpt lat="48.25258" lon="7.36096">
        <ele>441.6</ele>
        <time>2025-08-06T07:56:18Z</time>
      </trkpt>
      <trkpt lat="48.25242" lon="7.36068">
        <ele>442.4</ele>
        <time>2025-08-06T07:56:24Z</time>
      </trkpt>
      <trkpt lat="48.25239" lon="7.36064">
        <ele>442.4</ele>
        <time>2025-08-06T07:56:25Z</time>
      </trkpt>
      <trkpt lat="48.25218" lon="7.36034">
        <ele>443.4</ele>
        <time>2025-08-06T07:56:32Z</time>
      </trkpt>
      <trkpt lat="48.25216" lon="7.36029">
        <ele>443.4</ele>
        <time>2025-08-06T07:56:33Z</time>
      </trkpt>
      <trkpt lat="48.25199" lon="7.35997">
        <ele>444.4</ele>
        <time>2025-08-06T07:56:39Z</time>
      </trkpt>
      <trkpt lat="48.25195" lon="7.35992">
        <ele>444.6</ele>
        <time>2025-08-06T07:56:40Z</time>
      </trkpt>
      <trkpt lat="48.25175" lon="7.3596">
        <ele>445.6</ele>
        <time>2025-08-06T07:56:47Z</time>
      </trkpt>
      <trkpt lat="48.25173" lon="7.35957">
        <ele>445.8</ele>
        <time>2025-08-06T07:56:48Z</time>
      </trkpt>
      <trkpt lat="48.25162" lon="7.35938">
        <ele>446.6</ele>
        <time>2025-08-06T07:56:53Z</time>
      </trkpt>
      <trkpt lat="48.25147" lon="7.35912">
        <ele>447.6</ele>
        <time>2025-08-06T07:56:59Z</time>
      </trkpt>
      <trkpt lat="48.25145" lon="7.35908">
        <ele>447.8</ele>
        <time>2025-08-06T07:57:00Z</time>
      </trkpt>
      <trkpt lat="48.25132" lon="7.35889">
        <ele>448.8</ele>
        <time>2025-08-06T07:57:05Z</time>
      </trkpt>
      <trkpt lat="48.25127" lon="7.3588">
        <ele>449.2</ele>
        <time>2025-08-06T07:57:07Z</time>
      </trkpt>
      <trkpt lat="48.25116" lon="7.35863">
        <ele>450</ele>
        <time>2025-08-06T07:57:11Z</time>
      </trkpt>
      <trkpt lat="48.25109" lon="7.35852">
        <ele>450.4</ele>
        <time>2025-08-06T07:57:14Z</time>
      </trkpt>
      <trkpt lat="48.251" lon="7.35831">
        <ele>451</ele>
        <time>2025-08-06T07:57:19Z</time>
      </trkpt>
      <trkpt lat="48.25099" lon="7.35828">
        <ele>451.2</ele>
        <time>2025-08-06T07:57:20Z</time>
      </trkpt>
      <trkpt lat="48.25094" lon="7.35808">
        <ele>452.2</ele>
        <time>2025-08-06T07:57:24Z</time>
      </trkpt>
      <trkpt lat="48.2509" lon="7.35796">
        <ele>452.4</ele>
        <time>2025-08-06T07:57:26Z</time>
      </trkpt>
      <trkpt lat="48.25085" lon="7.35782">
        <ele>453.2</ele>
        <time>2025-08-06T07:57:29Z</time>
      </trkpt>
      <trkpt lat="48.2508" lon="7.35768">
        <ele>453.8</ele>
        <time>2025-08-06T07:57:32Z</time>
      </trkpt>
      <trkpt lat="48.25078" lon="7.35758">
        <ele>454.4</ele>
        <time>2025-08-06T07:57:34Z</time>
      </trkpt>
      <trkpt lat="48.25074" lon="7.35742">
        <ele>455.4</ele>
        <time>2025-08-06T07:57:38Z</time>
      </trkpt>
      <trkpt lat="48.25072" lon="7.35738">
        <ele>455.4</ele>
        <time>2025-08-06T07:57:39Z</time>
      </trkpt>
      <trkpt lat="48.25064" lon="7.35715">
        <ele>456.8</ele>
        <time>2025-08-06T07:57:45Z</time>
      </trkpt>
      <trkpt lat="48.25063" lon="7.35713">
        <ele>457</ele>
        <time>2025-08-06T07:57:46Z</time>
      </trkpt>
      <trkpt lat="48.25051" lon="7.35695">
        <ele>458.2</ele>
        <time>2025-08-06T07:57:52Z</time>
      </trkpt>
      <trkpt lat="48.25049" lon="7.35692">
        <ele>458.6</ele>
        <time>2025-08-06T07:57:53Z</time>
      </trkpt>
      <trkpt lat="48.2504" lon="7.35682">
        <ele>459.4</ele>
        <time>2025-08-06T07:57:57Z</time>
      </trkpt>
      <trkpt lat="48.25033" lon="7.35677">
        <ele>460</ele>
        <time>2025-08-06T07:58:00Z</time>
      </trkpt>
      <trkpt lat="48.25024" lon="7.3567">
        <ele>460.4</ele>
        <time>2025-08-06T07:58:03Z</time>
      </trkpt>
      <trkpt lat="48.25012" lon="7.35659">
        <ele>461.4</ele>
        <time>2025-08-06T07:58:08Z</time>
      </trkpt>
      <trkpt lat="48.2501" lon="7.35657">
        <ele>461.6</ele>
        <time>2025-08-06T07:58:09Z</time>
      </trkpt>
      <trkpt lat="48.24999" lon="7.35649">
        <ele>462.6</ele>
        <time>2025-08-06T07:58:13Z</time>
      </trkpt>
      <trkpt lat="48.24996" lon="7.35646">
        <ele>463</ele>
        <time>2025-08-06T07:58:15Z</time>
      </trkpt>
      <trkpt lat="48.24989" lon="7.35641">
        <ele>463.6</ele>
        <time>2025-08-06T07:58:18Z</time>
      </trkpt>
      <trkpt lat="48.24981" lon="7.35635">
        <ele>464.6</ele>
        <time>2025-08-06T07:58:22Z</time>
      </trkpt>
      <trkpt lat="48.24979" lon="7.35634">
        <ele>464.8</ele>
        <time>2025-08-06T07:58:23Z</time>
      </trkpt>
      <trkpt lat="48.24966" lon="7.35626">
        <ele>465.8</ele>
        <time>2025-08-06T07:58:28Z</time>
      </trkpt>
      <trkpt lat="48.24949" lon="7.35626">
        <ele>467</ele>
        <time>2025-08-06T07:58:34Z</time>
      </trkpt>
      <trkpt lat="48.24947" lon="7.35627">
        <ele>467.2</ele>
        <time>2025-08-06T07:58:35Z</time>
      </trkpt>
      <trkpt lat="48.24945" lon="7.35629">
        <ele>467.6</ele>
        <time>2025-08-06T07:58:36Z</time>
      </trkpt>
      <trkpt lat="48.24942" lon="7.35633">
        <ele>467.8</ele>
        <time>2025-08-06T07:58:38Z</time>
      </trkpt>
      <trkpt lat="48.2494" lon="7.35636">
        <ele>468</ele>
        <time>2025-08-06T07:58:39Z</time>
      </trkpt>
      <trkpt lat="48.24938" lon="7.35637">
        <ele>468</ele>
        <time>2025-08-06T07:58:40Z</time>
      </trkpt>
      <trkpt lat="48.24929" lon="7.35655">
        <ele>469.2</ele>
        <time>2025-08-06T07:58:45Z</time>
      </trkpt>
      <trkpt lat="48.24926" lon="7.35659">
        <ele>469.6</ele>
        <time>2025-08-06T07:58:46Z</time>
      </trkpt>
      <trkpt lat="48.24918" lon="7.3568">
        <ele>470.4</ele>
        <time>2025-08-06T07:58:50Z</time>
      </trkpt>
      <trkpt lat="48.24918" lon="7.35687">
        <ele>470.6</ele>
        <time>2025-08-06T07:58:51Z</time>
      </trkpt>
      <trkpt lat="48.24909" lon="7.35705">
        <ele>471.4</ele>
        <time>2025-08-06T07:58:57Z</time>
      </trkpt>
      <trkpt lat="48.24908" lon="7.35709">
        <ele>471.6</ele>
        <time>2025-08-06T07:58:58Z</time>
      </trkpt>
      <trkpt lat="48.24901" lon="7.35732">
        <ele>472.8</ele>
        <time>2025-08-06T07:59:04Z</time>
      </trkpt>
      <trkpt lat="48.24893" lon="7.35754">
        <ele>473.8</ele>
        <time>2025-08-06T07:59:10Z</time>
      </trkpt>
      <trkpt lat="48.24888" lon="7.35771">
        <ele>474.8</ele>
        <time>2025-08-06T07:59:15Z</time>
      </trkpt>
      <trkpt lat="48.24882" lon="7.35792">
        <ele>475.6</ele>
        <time>2025-08-06T07:59:20Z</time>
      </trkpt>
      <trkpt lat="48.24879" lon="7.35804">
        <ele>475.8</ele>
        <time>2025-08-06T07:59:22Z</time>
      </trkpt>
      <trkpt lat="48.24872" lon="7.35819">
        <ele>476.4</ele>
        <time>2025-08-06T07:59:27Z</time>
      </trkpt>
      <trkpt lat="48.24867" lon="7.35824">
        <ele>476.8</ele>
        <time>2025-08-06T07:59:29Z</time>
      </trkpt>
      <trkpt lat="48.24856" lon="7.35826">
        <ele>477.4</ele>
        <time>2025-08-06T07:59:33Z</time>
      </trkpt>
      <trkpt lat="48.24853" lon="7.35822">
        <ele>477.8</ele>
        <time>2025-08-06T07:59:35Z</time>
      </trkpt>
      <trkpt lat="48.2485" lon="7.35817">
        <ele>478</ele>
        <time>2025-08-06T07:59:37Z</time>
      </trkpt>
      <trkpt lat="48.24849" lon="7.35809">
        <ele>478.8</ele>
        <time>2025-08-06T07:59:39Z</time>
      </trkpt>
      <trkpt lat="48.2485" lon="7.35801">
        <ele>479.2</ele>
        <time>2025-08-06T07:59:41Z</time>
      </trkpt>
      <trkpt lat="48.24854" lon="7.35787">
        <ele>480</ele>
        <time>2025-08-06T07:59:44Z</time>
      </trkpt>
      <trkpt lat="48.24859" lon="7.35774">
        <ele>480.6</ele>
        <time>2025-08-06T07:59:47Z</time>
      </trkpt>
      <trkpt lat="48.24868" lon="7.35754">
        <ele>481</ele>
        <time>2025-08-06T07:59:52Z</time>
      </trkpt>
      <trkpt lat="48.24872" lon="7.3574">
        <ele>481.4</ele>
        <time>2025-08-06T07:59:55Z</time>
      </trkpt>
      <trkpt lat="48.24875" lon="7.35727">
        <ele>482.2</ele>
        <time>2025-08-06T07:59:58Z</time>
      </trkpt>
      <trkpt lat="48.24877" lon="7.35713">
        <ele>483</ele>
        <time>2025-08-06T08:00:01Z</time>
      </trkpt>
      <trkpt lat="48.24878" lon="7.35708">
        <ele>483.4</ele>
        <time>2025-08-06T08:00:02Z</time>
      </trkpt>
      <trkpt lat="48.2488" lon="7.35682">
        <ele>484.8</ele>
        <time>2025-08-06T08:00:07Z</time>
      </trkpt>
      <trkpt lat="48.24884" lon="7.35659">
        <ele>485.8</ele>
        <time>2025-08-06T08:00:12Z</time>
      </trkpt>
      <trkpt lat="48.24885" lon="7.35654">
        <ele>486</ele>
        <time>2025-08-06T08:00:13Z</time>
      </trkpt>
      <trkpt lat="48.24884" lon="7.35635">
        <ele>487</ele>
        <time>2025-08-06T08:00:17Z</time>
      </trkpt>
      <trkpt lat="48.24885" lon="7.35623">
        <ele>488</ele>
        <time>2025-08-06T08:00:20Z</time>
      </trkpt>
      <trkpt lat="48.24883" lon="7.35618">
        <ele>488</ele>
        <time>2025-08-06T08:00:21Z</time>
      </trkpt>
      <trkpt lat="48.2488" lon="7.35599">
        <ele>488.8</ele>
        <time>2025-08-06T08:00:25Z</time>
      </trkpt>
      <trkpt lat="48.24881" lon="7.35595">
        <ele>489.2</ele>
        <time>2025-08-06T08:00:26Z</time>
      </trkpt>
      <trkpt lat="48.24881" lon="7.35574">
        <ele>490.4</ele>
        <time>2025-08-06T08:00:31Z</time>
      </trkpt>
      <trkpt lat="48.24881" lon="7.35564">
        <ele>490.6</ele>
        <time>2025-08-06T08:00:33Z</time>
      </trkpt>
      <trkpt lat="48.24877" lon="7.35551">
        <ele>491.4</ele>
        <time>2025-08-06T08:00:36Z</time>
      </trkpt>
      <trkpt lat="48.24874" lon="7.35534">
        <ele>492.2</ele>
        <time>2025-08-06T08:00:40Z</time>
      </trkpt>
      <trkpt lat="48.24873" lon="7.3553">
        <ele>492.6</ele>
        <time>2025-08-06T08:00:41Z</time>
      </trkpt>
      <trkpt lat="48.24872" lon="7.35507">
        <ele>493.6</ele>
        <time>2025-08-06T08:00:47Z</time>
      </trkpt>
      <trkpt lat="48.24871" lon="7.35498">
        <ele>494</ele>
        <time>2025-08-06T08:00:49Z</time>
      </trkpt>
      <trkpt lat="48.2487" lon="7.35489">
        <ele>494.6</ele>
        <time>2025-08-06T08:00:52Z</time>
      </trkpt>
      <trkpt lat="48.24867" lon="7.35458">
        <ele>495.8</ele>
        <time>2025-08-06T08:00:58Z</time>
      </trkpt>
      <trkpt lat="48.24866" lon="7.35453">
        <ele>496</ele>
        <time>2025-08-06T08:00:59Z</time>
      </trkpt>
      <trkpt lat="48.24864" lon="7.35439">
        <ele>497</ele>
        <time>2025-08-06T08:01:02Z</time>
      </trkpt>
      <trkpt lat="48.24863" lon="7.35422">
        <ele>497.8</ele>
        <time>2025-08-06T08:01:06Z</time>
      </trkpt>
      <trkpt lat="48.24863" lon="7.35417">
        <ele>498.2</ele>
        <time>2025-08-06T08:01:07Z</time>
      </trkpt>
      <trkpt lat="48.24864" lon="7.35396">
        <ele>499.2</ele>
        <time>2025-08-06T08:01:12Z</time>
      </trkpt>
      <trkpt lat="48.24866" lon="7.35387">
        <ele>499.6</ele>
        <time>2025-08-06T08:01:14Z</time>
      </trkpt>
      <trkpt lat="48.24867" lon="7.35374">
        <ele>500.4</ele>
        <time>2025-08-06T08:01:17Z</time>
      </trkpt>
      <trkpt lat="48.24868" lon="7.35362">
        <ele>501</ele>
        <time>2025-08-06T08:01:20Z</time>
      </trkpt>
      <trkpt lat="48.24868" lon="7.35354">
        <ele>501.6</ele>
        <time>2025-08-06T08:01:22Z</time>
      </trkpt>
      <trkpt lat="48.24869" lon="7.35338">
        <ele>502.6</ele>
        <time>2025-08-06T08:01:26Z</time>
      </trkpt>
      <trkpt lat="48.24869" lon="7.35333">
        <ele>502.8</ele>
        <time>2025-08-06T08:01:27Z</time>
      </trkpt>
      <trkpt lat="48.24869" lon="7.35313">
        <ele>503.8</ele>
        <time>2025-08-06T08:01:32Z</time>
      </trkpt>
      <trkpt lat="48.24869" lon="7.35304">
        <ele>504.2</ele>
        <time>2025-08-06T08:01:34Z</time>
      </trkpt>
      <trkpt lat="48.24868" lon="7.35284">
        <ele>505</ele>
        <time>2025-08-06T08:01:38Z</time>
      </trkpt>
      <trkpt lat="48.24867" lon="7.35269">
        <ele>506</ele>
        <time>2025-08-06T08:01:41Z</time>
      </trkpt>
      <trkpt lat="48.24865" lon="7.35259">
        <ele>506.2</ele>
        <time>2025-08-06T08:01:43Z</time>
      </trkpt>
      <trkpt lat="48.24863" lon="7.35243">
        <ele>507</ele>
        <time>2025-08-06T08:01:47Z</time>
      </trkpt>
      <trkpt lat="48.24863" lon="7.35238">
        <ele>507.4</ele>
        <time>2025-08-06T08:01:48Z</time>
      </trkpt>
      <trkpt lat="48.24863" lon="7.35215">
        <ele>508.6</ele>
        <time>2025-08-06T08:01:53Z</time>
      </trkpt>
      <trkpt lat="48.24862" lon="7.35194">
        <ele>509.6</ele>
        <time>2025-08-06T08:01:58Z</time>
      </trkpt>
      <trkpt lat="48.24862" lon="7.3518">
        <ele>510.6</ele>
        <time>2025-08-06T08:02:02Z</time>
      </trkpt>
      <trkpt lat="48.24862" lon="7.35171">
        <ele>510.8</ele>
        <time>2025-08-06T08:02:04Z</time>
      </trkpt>
      <trkpt lat="48.24867" lon="7.35148">
        <ele>511.8</ele>
        <time>2025-08-06T08:02:09Z</time>
      </trkpt>
      <trkpt lat="48.2488" lon="7.35133">
        <ele>512.6</ele>
        <time>2025-08-06T08:02:14Z</time>
      </trkpt>
      <trkpt lat="48.24883" lon="7.35131">
        <ele>513</ele>
        <time>2025-08-06T08:02:15Z</time>
      </trkpt>
      <trkpt lat="48.24895" lon="7.35126">
        <ele>514</ele>
        <time>2025-08-06T08:02:19Z</time>
      </trkpt>
      <trkpt lat="48.24907" lon="7.35123">
        <ele>515.2</ele>
        <time>2025-08-06T08:02:24Z</time>
      </trkpt>
      <trkpt lat="48.24918" lon="7.3512">
        <ele>516.4</ele>
        <time>2025-08-06T08:02:29Z</time>
      </trkpt>
      <trkpt lat="48.24931" lon="7.35116">
        <ele>517.4</ele>
        <time>2025-08-06T08:02:34Z</time>
      </trkpt>
      <trkpt lat="48.24941" lon="7.35113">
        <ele>518.2</ele>
        <time>2025-08-06T08:02:38Z</time>
      </trkpt>
      <trkpt lat="48.24945" lon="7.35113">
        <ele>518.6</ele>
        <time>2025-08-06T08:02:40Z</time>
      </trkpt>
      <trkpt lat="48.24958" lon="7.3511">
        <ele>519.6</ele>
        <time>2025-08-06T08:02:45Z</time>
      </trkpt>
      <trkpt lat="48.2496" lon="7.35108">
        <ele>520</ele>
        <time>2025-08-06T08:02:46Z</time>
      </trkpt>
      <trkpt lat="48.24968" lon="7.35103">
        <ele>520.8</ele>
        <time>2025-08-06T08:02:49Z</time>
      </trkpt>
      <trkpt lat="48.24978" lon="7.35096">
        <ele>521.8</ele>
        <time>2025-08-06T08:02:53Z</time>
      </trkpt>
      <trkpt lat="48.2498" lon="7.35094">
        <ele>521.8</ele>
        <time>2025-08-06T08:02:54Z</time>
      </trkpt>
      <trkpt lat="48.24992" lon="7.35081">
        <ele>523</ele>
        <time>2025-08-06T08:02:59Z</time>
      </trkpt>
      <trkpt lat="48.24994" lon="7.35079">
        <ele>523.2</ele>
        <time>2025-08-06T08:03:00Z</time>
      </trkpt>
      <trkpt lat="48.25005" lon="7.35068">
        <ele>523.8</ele>
        <time>2025-08-06T08:03:04Z</time>
      </trkpt>
      <trkpt lat="48.2502" lon="7.35059">
        <ele>524.6</ele>
        <time>2025-08-06T08:03:09Z</time>
      </trkpt>
      <trkpt lat="48.25023" lon="7.35057">
        <ele>524.8</ele>
        <time>2025-08-06T08:03:10Z</time>
      </trkpt>
      <trkpt lat="48.25037" lon="7.35051">
        <ele>525.8</ele>
        <time>2025-08-06T08:03:14Z</time>
      </trkpt>
      <trkpt lat="48.2504" lon="7.35049">
        <ele>526</ele>
        <time>2025-08-06T08:03:15Z</time>
      </trkpt>
      <trkpt lat="48.25058" lon="7.35044">
        <ele>527</ele>
        <time>2025-08-06T08:03:21Z</time>
      </trkpt>
      <trkpt lat="48.25062" lon="7.35043">
        <ele>527.2</ele>
        <time>2025-08-06T08:03:22Z</time>
      </trkpt>
      <trkpt lat="48.25078" lon="7.35037">
        <ele>528.2</ele>
        <time>2025-08-06T08:03:27Z</time>
      </trkpt>
      <trkpt lat="48.25084" lon="7.35031">
        <ele>528.6</ele>
        <time>2025-08-06T08:03:29Z</time>
      </trkpt>
      <trkpt lat="48.25091" lon="7.35013">
        <ele>529.2</ele>
        <time>2025-08-06T08:03:33Z</time>
      </trkpt>
      <trkpt lat="48.25091" lon="7.35008">
        <ele>529.4</ele>
        <time>2025-08-06T08:03:34Z</time>
      </trkpt>
      <trkpt lat="48.25089" lon="7.34999">
        <ele>529.6</ele>
        <time>2025-08-06T08:03:36Z</time>
      </trkpt>
      <trkpt lat="48.25084" lon="7.34993">
        <ele>529.8</ele>
        <time>2025-08-06T08:03:38Z</time>
      </trkpt>
      <trkpt lat="48.25073" lon="7.34989">
        <ele>530.4</ele>
        <time>2025-08-06T08:03:41Z</time>
      </trkpt>
      <trkpt lat="48.2507" lon="7.3499">
        <ele>530.6</ele>
        <time>2025-08-06T08:03:42Z</time>
      </trkpt>
      <trkpt lat="48.25057" lon="7.34997">
        <ele>531.2</ele>
        <time>2025-08-06T08:03:46Z</time>
      </trkpt>
      <trkpt lat="48.25051" lon="7.35003">
        <ele>531.8</ele>
        <time>2025-08-06T08:03:48Z</time>
      </trkpt>
      <trkpt lat="48.25043" lon="7.35011">
        <ele>532.2</ele>
        <time>2025-08-06T08:03:51Z</time>
      </trkpt>
      <trkpt lat="48.25034" lon="7.35017">
        <ele>532.8</ele>
        <time>2025-08-06T08:03:54Z</time>
      </trkpt>
      <trkpt lat="48.25021" lon="7.35021">
        <ele>533.4</ele>
        <time>2025-08-06T08:03:58Z</time>
      </trkpt>
      <trkpt lat="48.25011" lon="7.35025">
        <ele>534.4</ele>
        <time>2025-08-06T08:04:01Z</time>
      </trkpt>
      <trkpt lat="48.25008" lon="7.35027">
        <ele>534.6</ele>
        <time>2025-08-06T08:04:02Z</time>
      </trkpt>
      <trkpt lat="48.24996" lon="7.35032">
        <ele>535.6</ele>
        <time>2025-08-06T08:04:06Z</time>
      </trkpt>
      <trkpt lat="48.24981" lon="7.35041">
        <ele>536.6</ele>
        <time>2025-08-06T08:04:11Z</time>
      </trkpt>
      <trkpt lat="48.24978" lon="7.35043">
        <ele>537</ele>
        <time>2025-08-06T08:04:12Z</time>
      </trkpt>
      <trkpt lat="48.24966" lon="7.35046">
        <ele>538</ele>
        <time>2025-08-06T08:04:16Z</time>
      </trkpt>
      <trkpt lat="48.24963" lon="7.35045">
        <ele>538.2</ele>
        <time>2025-08-06T08:04:17Z</time>
      </trkpt>
      <trkpt lat="48.24954" lon="7.35042">
        <ele>539</ele>
        <time>2025-08-06T08:04:20Z</time>
      </trkpt>
      <trkpt lat="48.24937" lon="7.3504">
        <ele>540.4</ele>
        <time>2025-08-06T08:04:25Z</time>
      </trkpt>
      <trkpt lat="48.2492" lon="7.35046">
        <ele>541.4</ele>
        <time>2025-08-06T08:04:30Z</time>
      </trkpt>
      <trkpt lat="48.2491" lon="7.35047">
        <ele>541.8</ele>
        <time>2025-08-06T08:04:33Z</time>
      </trkpt>
      <trkpt lat="48.24897" lon="7.35047">
        <ele>542.8</ele>
        <time>2025-08-06T08:04:37Z</time>
      </trkpt>
      <trkpt lat="48.24891" lon="7.35045">
        <ele>543.2</ele>
        <time>2025-08-06T08:04:39Z</time>
      </trkpt>
      <trkpt lat="48.24882" lon="7.35039">
        <ele>544</ele>
        <time>2025-08-06T08:04:42Z</time>
      </trkpt>
      <trkpt lat="48.24875" lon="7.35032">
        <ele>544.6</ele>
        <time>2025-08-06T08:04:45Z</time>
      </trkpt>
      <trkpt lat="48.2487" lon="7.35027">
        <ele>545</ele>
        <time>2025-08-06T08:04:47Z</time>
      </trkpt>
      <trkpt lat="48.24856" lon="7.35017">
        <ele>546.2</ele>
        <time>2025-08-06T08:04:52Z</time>
      </trkpt>
      <trkpt lat="48.24838" lon="7.35014">
        <ele>547.4</ele>
        <time>2025-08-06T08:04:58Z</time>
      </trkpt>
      <trkpt lat="48.24825" lon="7.35002">
        <ele>548.4</ele>
        <time>2025-08-06T08:05:03Z</time>
      </trkpt>
      <trkpt lat="48.24818" lon="7.34994">
        <ele>549.2</ele>
        <time>2025-08-06T08:05:06Z</time>
      </trkpt>
      <trkpt lat="48.24814" lon="7.34988">
        <ele>549.6</ele>
        <time>2025-08-06T08:05:08Z</time>
      </trkpt>
      <trkpt lat="48.24807" lon="7.34973">
        <ele>550.6</ele>
        <time>2025-08-06T08:05:12Z</time>
      </trkpt>
      <trkpt lat="48.24806" lon="7.34969">
        <ele>550.8</ele>
        <time>2025-08-06T08:05:13Z</time>
      </trkpt>
      <trkpt lat="48.24797" lon="7.34951">
        <ele>551.8</ele>
        <time>2025-08-06T08:05:18Z</time>
      </trkpt>
      <trkpt lat="48.24792" lon="7.34938">
        <ele>552.4</ele>
        <time>2025-08-06T08:05:22Z</time>
      </trkpt>
      <trkpt lat="48.24789" lon="7.34931">
        <ele>553</ele>
        <time>2025-08-06T08:05:24Z</time>
      </trkpt>
      <trkpt lat="48.24781" lon="7.34915">
        <ele>554</ele>
        <time>2025-08-06T08:05:29Z</time>
      </trkpt>
      <trkpt lat="48.24778" lon="7.34908">
        <ele>554.6</ele>
        <time>2025-08-06T08:05:31Z</time>
      </trkpt>
      <trkpt lat="48.24774" lon="7.34897">
        <ele>555.2</ele>
        <time>2025-08-06T08:05:34Z</time>
      </trkpt>
      <trkpt lat="48.24765" lon="7.34876">
        <ele>556.2</ele>
        <time>2025-08-06T08:05:40Z</time>
      </trkpt>
      <trkpt lat="48.24756" lon="7.34855">
        <ele>557.2</ele>
        <time>2025-08-06T08:05:46Z</time>
      </trkpt>
      <trkpt lat="48.24749" lon="7.34841">
        <ele>558.2</ele>
        <time>2025-08-06T08:05:50Z</time>
      </trkpt>
      <trkpt lat="48.24748" lon="7.34838">
        <ele>558.4</ele>
        <time>2025-08-06T08:05:51Z</time>
      </trkpt>
      <trkpt lat="48.24739" lon="7.3482">
        <ele>559.4</ele>
        <time>2025-08-06T08:05:56Z</time>
      </trkpt>
      <trkpt lat="48.24731" lon="7.34802">
        <ele>560.4</ele>
        <time>2025-08-06T08:06:01Z</time>
      </trkpt>
      <trkpt lat="48.24729" lon="7.34799">
        <ele>560.6</ele>
        <time>2025-08-06T08:06:02Z</time>
      </trkpt>
      <trkpt lat="48.24723" lon="7.34785">
        <ele>561.4</ele>
        <time>2025-08-06T08:06:06Z</time>
      </trkpt>
      <trkpt lat="48.2472" lon="7.34778">
        <ele>561.6</ele>
        <time>2025-08-06T08:06:08Z</time>
      </trkpt>
      <trkpt lat="48.24714" lon="7.34765">
        <ele>562.8</ele>
        <time>2025-08-06T08:06:12Z</time>
      </trkpt>
      <trkpt lat="48.24708" lon="7.34757">
        <ele>563.6</ele>
        <time>2025-08-06T08:06:15Z</time>
      </trkpt>
      <trkpt lat="48.24703" lon="7.34749">
        <ele>564</ele>
        <time>2025-08-06T08:06:17Z</time>
      </trkpt>
      <trkpt lat="48.24692" lon="7.3473">
        <ele>565.2</ele>
        <time>2025-08-06T08:06:22Z</time>
      </trkpt>
      <trkpt lat="48.24689" lon="7.34724">
        <ele>565.4</ele>
        <time>2025-08-06T08:06:24Z</time>
      </trkpt>
      <trkpt lat="48.24684" lon="7.34712">
        <ele>566.2</ele>
        <time>2025-08-06T08:06:27Z</time>
      </trkpt>
      <trkpt lat="48.24679" lon="7.34691">
        <ele>567.6</ele>
        <time>2025-08-06T08:06:32Z</time>
      </trkpt>
      <trkpt lat="48.24677" lon="7.3467">
        <ele>568.8</ele>
        <time>2025-08-06T08:06:37Z</time>
      </trkpt>
      <trkpt lat="48.24678" lon="7.34658">
        <ele>569.2</ele>
        <time>2025-08-06T08:06:40Z</time>
      </trkpt>
      <trkpt lat="48.24678" lon="7.3465">
        <ele>569.8</ele>
        <time>2025-08-06T08:06:42Z</time>
      </trkpt>
      <trkpt lat="48.24677" lon="7.34628">
        <ele>570.8</ele>
        <time>2025-08-06T08:06:48Z</time>
      </trkpt>
      <trkpt lat="48.24677" lon="7.34623">
        <ele>571</ele>
        <time>2025-08-06T08:06:49Z</time>
      </trkpt>
      <trkpt lat="48.24676" lon="7.34607">
        <ele>571.8</ele>
        <time>2025-08-06T08:06:53Z</time>
      </trkpt>
      <trkpt lat="48.24676" lon="7.34595">
        <ele>572.8</ele>
        <time>2025-08-06T08:06:56Z</time>
      </trkpt>
      <trkpt lat="48.24676" lon="7.34592">
        <ele>573</ele>
        <time>2025-08-06T08:06:57Z</time>
      </trkpt>
      <trkpt lat="48.24675" lon="7.34576">
        <ele>574.2</ele>
        <time>2025-08-06T08:07:01Z</time>
      </trkpt>
      <trkpt lat="48.24673" lon="7.34555">
        <ele>575.2</ele>
        <time>2025-08-06T08:07:06Z</time>
      </trkpt>
      <trkpt lat="48.24672" lon="7.34551">
        <ele>575.4</ele>
        <time>2025-08-06T08:07:07Z</time>
      </trkpt>
      <trkpt lat="48.24671" lon="7.34533">
        <ele>576.4</ele>
        <time>2025-08-06T08:07:12Z</time>
      </trkpt>
      <trkpt lat="48.24671" lon="7.34509">
        <ele>577.6</ele>
        <time>2025-08-06T08:07:17Z</time>
      </trkpt>
      <trkpt lat="48.24671" lon="7.34506">
        <ele>577.6</ele>
        <time>2025-08-06T08:07:18Z</time>
      </trkpt>
      <trkpt lat="48.2467" lon="7.34489">
        <ele>578.6</ele>
        <time>2025-08-06T08:07:22Z</time>
      </trkpt>
      <trkpt lat="48.24669" lon="7.34482">
        <ele>579.2</ele>
        <time>2025-08-06T08:07:24Z</time>
      </trkpt>
      <trkpt lat="48.24667" lon="7.3447">
        <ele>579.8</ele>
        <time>2025-08-06T08:07:27Z</time>
      </trkpt>
      <trkpt lat="48.24665" lon="7.34456">
        <ele>580.8</ele>
        <time>2025-08-06T08:07:31Z</time>
      </trkpt>
      <trkpt lat="48.24664" lon="7.34451">
        <ele>581</ele>
        <time>2025-08-06T08:07:32Z</time>
      </trkpt>
      <trkpt lat="48.24666" lon="7.34421">
        <ele>582.2</ele>
        <time>2025-08-06T08:07:37Z</time>
      </trkpt>
      <trkpt lat="48.24666" lon="7.34412">
        <ele>582.6</ele>
        <time>2025-08-06T08:07:39Z</time>
      </trkpt>
      <trkpt lat="48.24667" lon="7.34399">
        <ele>583.4</ele>
        <time>2025-08-06T08:07:43Z</time>
      </trkpt>
      <trkpt lat="48.24666" lon="7.34383">
        <ele>584.4</ele>
        <time>2025-08-06T08:07:47Z</time>
      </trkpt>
      <trkpt lat="48.24667" lon="7.34376">
        <ele>584.8</ele>
        <time>2025-08-06T08:07:49Z</time>
      </trkpt>
      <trkpt lat="48.24668" lon="7.3437">
        <ele>585.4</ele>
        <time>2025-08-06T08:07:51Z</time>
      </trkpt>
      <trkpt lat="48.24668" lon="7.34351">
        <ele>586.2</ele>
        <time>2025-08-06T08:07:56Z</time>
      </trkpt>
      <trkpt lat="48.24668" lon="7.34344">
        <ele>586.6</ele>
        <time>2025-08-06T08:07:58Z</time>
      </trkpt>
      <trkpt lat="48.24668" lon="7.3433">
        <ele>587.4</ele>
        <time>2025-08-06T08:08:02Z</time>
      </trkpt>
      <trkpt lat="48.24664" lon="7.34307">
        <ele>588.6</ele>
        <time>2025-08-06T08:08:08Z</time>
      </trkpt>
      <trkpt lat="48.24663" lon="7.34304">
        <ele>588.8</ele>
        <time>2025-08-06T08:08:09Z</time>
      </trkpt>
      <trkpt lat="48.24662" lon="7.34291">
        <ele>589.6</ele>
        <time>2025-08-06T08:08:13Z</time>
      </trkpt>
      <trkpt lat="48.24661" lon="7.34272">
        <ele>590.8</ele>
        <time>2025-08-06T08:08:17Z</time>
      </trkpt>
      <trkpt lat="48.24659" lon="7.34263">
        <ele>591</ele>
        <time>2025-08-06T08:08:19Z</time>
      </trkpt>
      <trkpt lat="48.24659" lon="7.34262">
        <ele>591.2</ele>
        <time>2025-08-06T08:08:20Z</time>
      </trkpt>
      <trkpt lat="48.24658" lon="7.34251">
        <ele>591.8</ele>
        <time>2025-08-06T08:08:23Z</time>
      </trkpt>
      <trkpt lat="48.24656" lon="7.34234">
        <ele>593</ele>
        <time>2025-08-06T08:08:27Z</time>
      </trkpt>
      <trkpt lat="48.24653" lon="7.34203">
        <ele>594</ele>
        <time>2025-08-06T08:08:32Z</time>
      </trkpt>
      <trkpt lat="48.24654" lon="7.34197">
        <ele>594.6</ele>
        <time>2025-08-06T08:08:34Z</time>
      </trkpt>
      <trkpt lat="48.24656" lon="7.34184">
        <ele>595</ele>
        <time>2025-08-06T08:08:37Z</time>
      </trkpt>
      <trkpt lat="48.2466" lon="7.34164">
        <ele>596</ele>
        <time>2025-08-06T08:08:42Z</time>
      </trkpt>
      <trkpt lat="48.24661" lon="7.34146">
        <ele>597.2</ele>
        <time>2025-08-06T08:08:46Z</time>
      </trkpt>
      <trkpt lat="48.2466" lon="7.34133">
        <ele>597.6</ele>
        <time>2025-08-06T08:08:49Z</time>
      </trkpt>
      <trkpt lat="48.24661" lon="7.34125">
        <ele>598.2</ele>
        <time>2025-08-06T08:08:51Z</time>
      </trkpt>
      <trkpt lat="48.24665" lon="7.34113">
        <ele>599.2</ele>
        <time>2025-08-06T08:08:56Z</time>
      </trkpt>
      <trkpt lat="48.24664" lon="7.34109">
        <ele>599.4</ele>
        <time>2025-08-06T08:08:57Z</time>
      </trkpt>
      <trkpt lat="48.24664" lon="7.34087">
        <ele>600.8</ele>
        <time>2025-08-06T08:09:02Z</time>
      </trkpt>
      <trkpt lat="48.24663" lon="7.34063">
        <ele>602</ele>
        <time>2025-08-06T08:09:07Z</time>
      </trkpt>
      <trkpt lat="48.24663" lon="7.34061">
        <ele>602.2</ele>
        <time>2025-08-06T08:09:08Z</time>
      </trkpt>
      <trkpt lat="48.24661" lon="7.34048">
        <ele>603</ele>
        <time>2025-08-06T08:09:11Z</time>
      </trkpt>
      <trkpt lat="48.24661" lon="7.34037">
        <ele>603.4</ele>
        <time>2025-08-06T08:09:13Z</time>
      </trkpt>
      <trkpt lat="48.24663" lon="7.3403">
        <ele>604</ele>
        <time>2025-08-06T08:09:15Z</time>
      </trkpt>
      <trkpt lat="48.24664" lon="7.34009">
        <ele>605</ele>
        <time>2025-08-06T08:09:20Z</time>
      </trkpt>
      <trkpt lat="48.24665" lon="7.34005">
        <ele>605.2</ele>
        <time>2025-08-06T08:09:21Z</time>
      </trkpt>
      <trkpt lat="48.24665" lon="7.33983">
        <ele>606.6</ele>
        <time>2025-08-06T08:09:26Z</time>
      </trkpt>
      <trkpt lat="48.24665" lon="7.33979">
        <ele>606.6</ele>
        <time>2025-08-06T08:09:27Z</time>
      </trkpt>
      <trkpt lat="48.24666" lon="7.3396">
        <ele>607.6</ele>
        <time>2025-08-06T08:09:31Z</time>
      </trkpt>
      <trkpt lat="48.24666" lon="7.33945">
        <ele>608.2</ele>
        <time>2025-08-06T08:09:34Z</time>
      </trkpt>
      <trkpt lat="48.24667" lon="7.33938">
        <ele>608.6</ele>
        <time>2025-08-06T08:09:36Z</time>
      </trkpt>
      <trkpt lat="48.24667" lon="7.33917">
        <ele>609.2</ele>
        <time>2025-08-06T08:09:40Z</time>
      </trkpt>
      <trkpt lat="48.24668" lon="7.33904">
        <ele>610</ele>
        <time>2025-08-06T08:09:43Z</time>
      </trkpt>
      <trkpt lat="48.2467" lon="7.33897">
        <ele>610.2</ele>
        <time>2025-08-06T08:09:45Z</time>
      </trkpt>
      <trkpt lat="48.24669" lon="7.33879">
        <ele>611</ele>
        <time>2025-08-06T08:09:49Z</time>
      </trkpt>
      <trkpt lat="48.24671" lon="7.33867">
        <ele>611.8</ele>
        <time>2025-08-06T08:09:52Z</time>
      </trkpt>
      <trkpt lat="48.24671" lon="7.33864">
        <ele>612.2</ele>
        <time>2025-08-06T08:09:53Z</time>
      </trkpt>
      <trkpt lat="48.24671" lon="7.33846">
        <ele>613</ele>
        <time>2025-08-06T08:09:57Z</time>
      </trkpt>
      <trkpt lat="48.24672" lon="7.33843">
        <ele>613.2</ele>
        <time>2025-08-06T08:09:58Z</time>
      </trkpt>
      <trkpt lat="48.24675" lon="7.33829">
        <ele>614.2</ele>
        <time>2025-08-06T08:10:03Z</time>
      </trkpt>
      <trkpt lat="48.24676" lon="7.33825">
        <ele>614.4</ele>
        <time>2025-08-06T08:10:04Z</time>
      </trkpt>
      <trkpt lat="48.24677" lon="7.33807">
        <ele>615.6</ele>
        <time>2025-08-06T08:10:09Z</time>
      </trkpt>
      <trkpt lat="48.24678" lon="7.33804">
        <ele>615.8</ele>
        <time>2025-08-06T08:10:10Z</time>
      </trkpt>
      <trkpt lat="48.24678" lon="7.33788">
        <ele>616.6</ele>
        <time>2025-08-06T08:10:14Z</time>
      </trkpt>
      <trkpt lat="48.24678" lon="7.33779">
        <ele>617</ele>
        <time>2025-08-06T08:10:16Z</time>
      </trkpt>
      <trkpt lat="48.2468" lon="7.33768">
        <ele>617.8</ele>
        <time>2025-08-06T08:10:19Z</time>
      </trkpt>
      <trkpt lat="48.2468" lon="7.33759">
        <ele>618.2</ele>
        <time>2025-08-06T08:10:21Z</time>
      </trkpt>
      <trkpt lat="48.24678" lon="7.33747">
        <ele>619</ele>
        <time>2025-08-06T08:10:24Z</time>
      </trkpt>
      <trkpt lat="48.24679" lon="7.33737">
        <ele>619.6</ele>
        <time>2025-08-06T08:10:27Z</time>
      </trkpt>
      <trkpt lat="48.24679" lon="7.33728">
        <ele>620.2</ele>
        <time>2025-08-06T08:10:29Z</time>
      </trkpt>
      <trkpt lat="48.24677" lon="7.33705">
        <ele>621.2</ele>
        <time>2025-08-06T08:10:35Z</time>
      </trkpt>
      <trkpt lat="48.24678" lon="7.33694">
        <ele>621.8</ele>
        <time>2025-08-06T08:10:37Z</time>
      </trkpt>
      <trkpt lat="48.24676" lon="7.33684">
        <ele>622.2</ele>
        <time>2025-08-06T08:10:39Z</time>
      </trkpt>
      <trkpt lat="48.24676" lon="7.33669">
        <ele>623.2</ele>
        <time>2025-08-06T08:10:43Z</time>
      </trkpt>
      <trkpt lat="48.24677" lon="7.33659">
        <ele>623.4</ele>
        <time>2025-08-06T08:10:45Z</time>
      </trkpt>
      <trkpt lat="48.24676" lon="7.33638">
        <ele>624.6</ele>
        <time>2025-08-06T08:10:50Z</time>
      </trkpt>
      <trkpt lat="48.24678" lon="7.33629">
        <ele>625</ele>
        <time>2025-08-06T08:10:52Z</time>
      </trkpt>
      <trkpt lat="48.2468" lon="7.33609">
        <ele>625.6</ele>
        <time>2025-08-06T08:10:57Z</time>
      </trkpt>
      <trkpt lat="48.24681" lon="7.33605">
        <ele>625.8</ele>
        <time>2025-08-06T08:10:58Z</time>
      </trkpt>
      <trkpt lat="48.24681" lon="7.3359">
        <ele>627</ele>
        <time>2025-08-06T08:11:02Z</time>
      </trkpt>
      <trkpt lat="48.24681" lon="7.33582">
        <ele>627.4</ele>
        <time>2025-08-06T08:11:04Z</time>
      </trkpt>
      <trkpt lat="48.24683" lon="7.33568">
        <ele>628</ele>
        <time>2025-08-06T08:11:08Z</time>
      </trkpt>
      <trkpt lat="48.24684" lon="7.33552">
        <ele>628.8</ele>
        <time>2025-08-06T08:11:12Z</time>
      </trkpt>
      <trkpt lat="48.24683" lon="7.33543">
        <ele>629.2</ele>
        <time>2025-08-06T08:11:14Z</time>
      </trkpt>
      <trkpt lat="48.24684" lon="7.33524">
        <ele>630</ele>
        <time>2025-08-06T08:11:19Z</time>
      </trkpt>
      <trkpt lat="48.24686" lon="7.33517">
        <ele>630.4</ele>
        <time>2025-08-06T08:11:21Z</time>
      </trkpt>
      <trkpt lat="48.24687" lon="7.335">
        <ele>631</ele>
        <time>2025-08-06T08:11:25Z</time>
      </trkpt>
      <trkpt lat="48.24688" lon="7.33493">
        <ele>631.4</ele>
        <time>2025-08-06T08:11:27Z</time>
      </trkpt>
      <trkpt lat="48.24689" lon="7.33479">
        <ele>632.6</ele>
        <time>2025-08-06T08:11:31Z</time>
      </trkpt>
      <trkpt lat="48.24691" lon="7.33453">
        <ele>633.6</ele>
        <time>2025-08-06T08:11:37Z</time>
      </trkpt>
      <trkpt lat="48.24694" lon="7.33437">
        <ele>634.8</ele>
        <time>2025-08-06T08:11:41Z</time>
      </trkpt>
      <trkpt lat="48.24694" lon="7.33432">
        <ele>635</ele>
        <time>2025-08-06T08:11:42Z</time>
      </trkpt>
      <trkpt lat="48.24697" lon="7.33416">
        <ele>635.8</ele>
        <time>2025-08-06T08:11:46Z</time>
      </trkpt>
      <trkpt lat="48.24698" lon="7.33412">
        <ele>636.2</ele>
        <time>2025-08-06T08:11:47Z</time>
      </trkpt>
      <trkpt lat="48.24701" lon="7.3339">
        <ele>637.2</ele>
        <time>2025-08-06T08:11:52Z</time>
      </trkpt>
      <trkpt lat="48.24703" lon="7.33382">
        <ele>637.6</ele>
        <time>2025-08-06T08:11:54Z</time>
      </trkpt>
      <trkpt lat="48.24709" lon="7.33367">
        <ele>638.2</ele>
        <time>2025-08-06T08:11:58Z</time>
      </trkpt>
      <trkpt lat="48.24715" lon="7.33358">
        <ele>639</ele>
        <time>2025-08-06T08:12:01Z</time>
      </trkpt>
      <trkpt lat="48.24717" lon="7.33356">
        <ele>639.6</ele>
        <time>2025-08-06T08:12:02Z</time>
      </trkpt>
      <trkpt lat="48.2473" lon="7.33348">
        <ele>640.6</ele>
        <time>2025-08-06T08:12:07Z</time>
      </trkpt>
      <trkpt lat="48.24743" lon="7.33347">
        <ele>641.8</ele>
        <time>2025-08-06T08:12:12Z</time>
      </trkpt>
      <trkpt lat="48.24748" lon="7.33348">
        <ele>642.2</ele>
        <time>2025-08-06T08:12:14Z</time>
      </trkpt>
      <trkpt lat="48.24755" lon="7.33351">
        <ele>643</ele>
        <time>2025-08-06T08:12:17Z</time>
      </trkpt>
      <trkpt lat="48.24764" lon="7.33361">
        <ele>644</ele>
        <time>2025-08-06T08:12:21Z</time>
      </trkpt>
      <trkpt lat="48.24772" lon="7.33372">
        <ele>645.2</ele>
        <time>2025-08-06T08:12:26Z</time>
      </trkpt>
      <trkpt lat="48.24773" lon="7.33374">
        <ele>645.4</ele>
        <time>2025-08-06T08:12:27Z</time>
      </trkpt>
      <trkpt lat="48.24781" lon="7.33384">
        <ele>646.4</ele>
        <time>2025-08-06T08:12:31Z</time>
      </trkpt>
      <trkpt lat="48.24786" lon="7.3339">
        <ele>647</ele>
        <time>2025-08-06T08:12:34Z</time>
      </trkpt>
      <trkpt lat="48.2479" lon="7.33393">
        <ele>647.6</ele>
        <time>2025-08-06T08:12:36Z</time>
      </trkpt>
      <trkpt lat="48.24797" lon="7.33399">
        <ele>648.2</ele>
        <time>2025-08-06T08:12:39Z</time>
      </trkpt>
      <trkpt lat="48.24805" lon="7.33408">
        <ele>648.8</ele>
        <time>2025-08-06T08:12:42Z</time>
      </trkpt>
      <trkpt lat="48.24814" lon="7.33416">
        <ele>649.4</ele>
        <time>2025-08-06T08:12:45Z</time>
      </trkpt>
      <trkpt lat="48.24818" lon="7.3342">
        <ele>649.8</ele>
        <time>2025-08-06T08:12:47Z</time>
      </trkpt>
      <trkpt lat="48.24826" lon="7.33435">
        <ele>650.6</ele>
        <time>2025-08-06T08:12:51Z</time>
      </trkpt>
      <trkpt lat="48.24828" lon="7.33439">
        <ele>650.8</ele>
        <time>2025-08-06T08:12:52Z</time>
      </trkpt>
      <trkpt lat="48.24839" lon="7.33449">
        <ele>651.8</ele>
        <time>2025-08-06T08:12:56Z</time>
      </trkpt>
      <trkpt lat="48.24845" lon="7.33459">
        <ele>652.6</ele>
        <time>2025-08-06T08:12:59Z</time>
      </trkpt>
      <trkpt lat="48.24847" lon="7.33467">
        <ele>652.8</ele>
        <time>2025-08-06T08:13:01Z</time>
      </trkpt>
      <trkpt lat="48.24848" lon="7.33475">
        <ele>653.4</ele>
        <time>2025-08-06T08:13:03Z</time>
      </trkpt>
      <trkpt lat="48.24842" lon="7.33484">
        <ele>654.2</ele>
        <time>2025-08-06T08:13:06Z</time>
      </trkpt>
      <trkpt lat="48.24837" lon="7.33487">
        <ele>654.6</ele>
        <time>2025-08-06T08:13:08Z</time>
      </trkpt>
      <trkpt lat="48.24828" lon="7.33489">
        <ele>655.6</ele>
        <time>2025-08-06T08:13:11Z</time>
      </trkpt>
      <trkpt lat="48.24821" lon="7.33488">
        <ele>656</ele>
        <time>2025-08-06T08:13:13Z</time>
      </trkpt>
      <trkpt lat="48.24812" lon="7.33488">
        <ele>657.2</ele>
        <time>2025-08-06T08:13:16Z</time>
      </trkpt>
      <trkpt lat="48.24805" lon="7.33486">
        <ele>657.6</ele>
        <time>2025-08-06T08:13:18Z</time>
      </trkpt>
      <trkpt lat="48.24797" lon="7.33484">
        <ele>658.4</ele>
        <time>2025-08-06T08:13:21Z</time>
      </trkpt>
      <trkpt lat="48.24786" lon="7.33485">
        <ele>659.2</ele>
        <time>2025-08-06T08:13:24Z</time>
      </trkpt>
      <trkpt lat="48.24783" lon="7.33487">
        <ele>659.4</ele>
        <time>2025-08-06T08:13:25Z</time>
      </trkpt>
      <trkpt lat="48.24767" lon="7.335">
        <ele>660.2</ele>
        <time>2025-08-06T08:13:31Z</time>
      </trkpt>
      <trkpt lat="48.24764" lon="7.33506">
        <ele>660.6</ele>
        <time>2025-08-06T08:13:33Z</time>
      </trkpt>
      <trkpt lat="48.24762" lon="7.33524">
        <ele>661.2</ele>
        <time>2025-08-06T08:13:37Z</time>
      </trkpt>
      <trkpt lat="48.2476" lon="7.33539">
        <ele>661.6</ele>
        <time>2025-08-06T08:13:40Z</time>
      </trkpt>
      <trkpt lat="48.2476" lon="7.33564">
        <ele>662.4</ele>
        <time>2025-08-06T08:13:45Z</time>
      </trkpt>
      <trkpt lat="48.24761" lon="7.33574">
        <ele>662.8</ele>
        <time>2025-08-06T08:13:47Z</time>
      </trkpt>
      <trkpt lat="48.24761" lon="7.33594">
        <ele>663.8</ele>
        <time>2025-08-06T08:13:51Z</time>
      </trkpt>
      <trkpt lat="48.24761" lon="7.336">
        <ele>664</ele>
        <time>2025-08-06T08:13:52Z</time>
      </trkpt>
      <trkpt lat="48.24762" lon="7.33625">
        <ele>664.8</ele>
        <time>2025-08-06T08:13:57Z</time>
      </trkpt>
      <trkpt lat="48.24763" lon="7.33633">
        <ele>665.4</ele>
        <time>2025-08-06T08:13:59Z</time>
      </trkpt>
      <trkpt lat="48.24765" lon="7.33656">
        <ele>666.4</ele>
        <time>2025-08-06T08:14:04Z</time>
      </trkpt>
      <trkpt lat="48.24768" lon="7.33685">
        <ele>667.4</ele>
        <time>2025-08-06T08:14:10Z</time>
      </trkpt>
      <trkpt lat="48.24769" lon="7.33694">
        <ele>667.8</ele>
        <time>2025-08-06T08:14:12Z</time>
      </trkpt>
      <trkpt lat="48.2477" lon="7.33707">
        <ele>668.4</ele>
        <time>2025-08-06T08:14:15Z</time>
      </trkpt>
      <trkpt lat="48.24774" lon="7.3373">
        <ele>669.2</ele>
        <time>2025-08-06T08:14:20Z</time>
      </trkpt>
      <trkpt lat="48.24775" lon="7.33734">
        <ele>669.4</ele>
        <time>2025-08-06T08:14:21Z</time>
      </trkpt>
      <trkpt lat="48.24779" lon="7.33765">
        <ele>670.6</ele>
        <time>2025-08-06T08:14:27Z</time>
      </trkpt>
      <trkpt lat="48.2478" lon="7.33776">
        <ele>671</ele>
        <time>2025-08-06T08:14:29Z</time>
      </trkpt>
      <trkpt lat="48.24781" lon="7.33786">
        <ele>671.6</ele>
        <time>2025-08-06T08:14:31Z</time>
      </trkpt>
      <trkpt lat="48.24784" lon="7.3381">
        <ele>672.4</ele>
        <time>2025-08-06T08:14:36Z</time>
      </trkpt>
      <trkpt lat="48.24785" lon="7.3382">
        <ele>672.8</ele>
        <time>2025-08-06T08:14:38Z</time>
      </trkpt>
      <trkpt lat="48.24788" lon="7.33838">
        <ele>673.8</ele>
        <time>2025-08-06T08:14:42Z</time>
      </trkpt>
      <trkpt lat="48.24789" lon="7.33843">
        <ele>674</ele>
        <time>2025-08-06T08:14:43Z</time>
      </trkpt>
      <trkpt lat="48.24794" lon="7.33871">
        <ele>675</ele>
        <time>2025-08-06T08:14:49Z</time>
      </trkpt>
      <trkpt lat="48.24796" lon="7.33887">
        <ele>675.8</ele>
        <time>2025-08-06T08:14:52Z</time>
      </trkpt>
      <trkpt lat="48.24797" lon="7.33897">
        <ele>676.2</ele>
        <time>2025-08-06T08:14:54Z</time>
      </trkpt>
      <trkpt lat="48.24801" lon="7.33917">
        <ele>677.2</ele>
        <time>2025-08-06T08:14:58Z</time>
      </trkpt>
      <trkpt lat="48.24802" lon="7.33922">
        <ele>677.2</ele>
        <time>2025-08-06T08:14:59Z</time>
      </trkpt>
      <trkpt lat="48.24806" lon="7.33947">
        <ele>678.2</ele>
        <time>2025-08-06T08:15:04Z</time>
      </trkpt>
      <trkpt lat="48.24807" lon="7.33951">
        <ele>678.4</ele>
        <time>2025-08-06T08:15:05Z</time>
      </trkpt>
      <trkpt lat="48.24812" lon="7.33969">
        <ele>679</ele>
        <time>2025-08-06T08:15:09Z</time>
      </trkpt>
      <trkpt lat="48.24814" lon="7.33977">
        <ele>679.6</ele>
        <time>2025-08-06T08:15:11Z</time>
      </trkpt>
      <trkpt lat="48.24816" lon="7.33991">
        <ele>679.8</ele>
        <time>2025-08-06T08:15:14Z</time>
      </trkpt>
      <trkpt lat="48.24817" lon="7.34">
        <ele>680.4</ele>
        <time>2025-08-06T08:15:16Z</time>
      </trkpt>
      <trkpt lat="48.24819" lon="7.34015">
        <ele>681.2</ele>
        <time>2025-08-06T08:15:19Z</time>
      </trkpt>
      <trkpt lat="48.24821" lon="7.34023">
        <ele>681.6</ele>
        <time>2025-08-06T08:15:21Z</time>
      </trkpt>
      <trkpt lat="48.24825" lon="7.34045">
        <ele>682.8</ele>
        <time>2025-08-06T08:15:26Z</time>
      </trkpt>
      <trkpt lat="48.24827" lon="7.34067">
        <ele>683.8</ele>
        <time>2025-08-06T08:15:31Z</time>
      </trkpt>
      <trkpt lat="48.24827" lon="7.34073">
        <ele>683.8</ele>
        <time>2025-08-06T08:15:32Z</time>
      </trkpt>
      <trkpt lat="48.24827" lon="7.34084">
        <ele>684.4</ele>
        <time>2025-08-06T08:15:35Z</time>
      </trkpt>
      <trkpt lat="48.24829" lon="7.34093">
        <ele>685</ele>
        <time>2025-08-06T08:15:37Z</time>
      </trkpt>
      <trkpt lat="48.2483" lon="7.3411">
        <ele>686</ele>
        <time>2025-08-06T08:15:41Z</time>
      </trkpt>
      <trkpt lat="48.24833" lon="7.34131">
        <ele>687.2</ele>
        <time>2025-08-06T08:15:46Z</time>
      </trkpt>
      <trkpt lat="48.24837" lon="7.34152">
        <ele>688</ele>
        <time>2025-08-06T08:15:51Z</time>
      </trkpt>
      <trkpt lat="48.24839" lon="7.34164">
        <ele>689</ele>
        <time>2025-08-06T08:15:54Z</time>
      </trkpt>
      <trkpt lat="48.2484" lon="7.34169">
        <ele>689.2</ele>
        <time>2025-08-06T08:15:55Z</time>
      </trkpt>
      <trkpt lat="48.24843" lon="7.34189">
        <ele>690.4</ele>
        <time>2025-08-06T08:16:00Z</time>
      </trkpt>
      <trkpt lat="48.24846" lon="7.34213">
        <ele>691.6</ele>
        <time>2025-08-06T08:16:05Z</time>
      </trkpt>
      <trkpt lat="48.24847" lon="7.34218">
        <ele>691.8</ele>
        <time>2025-08-06T08:16:06Z</time>
      </trkpt>
      <trkpt lat="48.24848" lon="7.34238">
        <ele>693</ele>
        <time>2025-08-06T08:16:10Z</time>
      </trkpt>
      <trkpt lat="48.24848" lon="7.34248">
        <ele>693.4</ele>
        <time>2025-08-06T08:16:12Z</time>
      </trkpt>
      <trkpt lat="48.2485" lon="7.3426">
        <ele>694</ele>
        <time>2025-08-06T08:16:15Z</time>
      </trkpt>
      <trkpt lat="48.24852" lon="7.34277">
        <ele>695</ele>
        <time>2025-08-06T08:16:19Z</time>
      </trkpt>
      <trkpt lat="48.24853" lon="7.3428">
        <ele>695.2</ele>
        <time>2025-08-06T08:16:20Z</time>
      </trkpt>
      <trkpt lat="48.24855" lon="7.34301">
        <ele>696.2</ele>
        <time>2025-08-06T08:16:25Z</time>
      </trkpt>
      <trkpt lat="48.24856" lon="7.34305">
        <ele>696.2</ele>
        <time>2025-08-06T08:16:26Z</time>
      </trkpt>
      <trkpt lat="48.24861" lon="7.34326">
        <ele>697.4</ele>
        <time>2025-08-06T08:16:31Z</time>
      </trkpt>
      <trkpt lat="48.24863" lon="7.34338">
        <ele>698</ele>
        <time>2025-08-06T08:16:34Z</time>
      </trkpt>
      <trkpt lat="48.24864" lon="7.34347">
        <ele>698.6</ele>
        <time>2025-08-06T08:16:36Z</time>
      </trkpt>
      <trkpt lat="48.24868" lon="7.34364">
        <ele>699.6</ele>
        <time>2025-08-06T08:16:40Z</time>
      </trkpt>
      <trkpt lat="48.24872" lon="7.34381">
        <ele>700.4</ele>
        <time>2025-08-06T08:16:44Z</time>
      </trkpt>
      <trkpt lat="48.24873" lon="7.34386">
        <ele>700.8</ele>
        <time>2025-08-06T08:16:45Z</time>
      </trkpt>
      <trkpt lat="48.24877" lon="7.344">
        <ele>701.8</ele>
        <time>2025-08-06T08:16:48Z</time>
      </trkpt>
      <trkpt lat="48.24879" lon="7.34414">
        <ele>702.4</ele>
        <time>2025-08-06T08:16:51Z</time>
      </trkpt>
      <trkpt lat="48.24881" lon="7.34423">
        <ele>702.8</ele>
        <time>2025-08-06T08:16:53Z</time>
      </trkpt>
      <trkpt lat="48.24884" lon="7.3444">
        <ele>704</ele>
        <time>2025-08-06T08:16:57Z</time>
      </trkpt>
      <trkpt lat="48.24889" lon="7.34465">
        <ele>705.2</ele>
        <time>2025-08-06T08:17:02Z</time>
      </trkpt>
      <trkpt lat="48.24891" lon="7.34472">
        <ele>705.4</ele>
        <time>2025-08-06T08:17:04Z</time>
      </trkpt>
      <trkpt lat="48.24896" lon="7.34492">
        <ele>706.4</ele>
        <time>2025-08-06T08:17:09Z</time>
      </trkpt>
      <trkpt lat="48.24899" lon="7.34505">
        <ele>707.2</ele>
        <time>2025-08-06T08:17:12Z</time>
      </trkpt>
      <trkpt lat="48.249" lon="7.34509">
        <ele>707.6</ele>
        <time>2025-08-06T08:17:13Z</time>
      </trkpt>
      <trkpt lat="48.24904" lon="7.34523">
        <ele>708.2</ele>
        <time>2025-08-06T08:17:17Z</time>
      </trkpt>
      <trkpt lat="48.24905" lon="7.34532">
        <ele>708.6</ele>
        <time>2025-08-06T08:17:19Z</time>
      </trkpt>
      <trkpt lat="48.24908" lon="7.34545">
        <ele>709.4</ele>
        <time>2025-08-06T08:17:22Z</time>
      </trkpt>
      <trkpt lat="48.24912" lon="7.34554">
        <ele>709.8</ele>
        <time>2025-08-06T08:17:24Z</time>
      </trkpt>
      <trkpt lat="48.24921" lon="7.34581">
        <ele>710.6</ele>
        <time>2025-08-06T08:17:30Z</time>
      </trkpt>
      <trkpt lat="48.24923" lon="7.34584">
        <ele>710.8</ele>
        <time>2025-08-06T08:17:31Z</time>
      </trkpt>
      <trkpt lat="48.24929" lon="7.34599">
        <ele>711.4</ele>
        <time>2025-08-06T08:17:35Z</time>
      </trkpt>
      <trkpt lat="48.24934" lon="7.3461">
        <ele>712</ele>
        <time>2025-08-06T08:17:38Z</time>
      </trkpt>
      <trkpt lat="48.24944" lon="7.34624">
        <ele>712.8</ele>
        <time>2025-08-06T08:17:43Z</time>
      </trkpt>
      <trkpt lat="48.24947" lon="7.34624">
        <ele>712.8</ele>
        <time>2025-08-06T08:17:44Z</time>
      </trkpt>
      <trkpt lat="48.24951" lon="7.34621">
        <ele>713</ele>
        <time>2025-08-06T08:17:46Z</time>
      </trkpt>
      <trkpt lat="48.24949" lon="7.34614">
        <ele>713.2</ele>
        <time>2025-08-06T08:17:49Z</time>
      </trkpt>
      <trkpt lat="48.24947" lon="7.3461">
        <ele>713.8</ele>
        <time>2025-08-06T08:17:52Z</time>
      </trkpt>
      <trkpt lat="48.24943" lon="7.34607">
        <ele>714</ele>
        <time>2025-08-06T08:17:54Z</time>
      </trkpt>
      <trkpt lat="48.24943" lon="7.34604">
        <ele>714.2</ele>
        <time>2025-08-06T08:17:56Z</time>
      </trkpt>
      <trkpt lat="48.24943" lon="7.34604">
        <ele>714.4</ele>
        <time>2025-08-06T08:17:58Z</time>
      </trkpt>
      <trkpt lat="48.24946" lon="7.34616">
        <ele>715.6</ele>
        <time>2025-08-06T08:30:59Z</time>
      </trkpt>
      <trkpt lat="48.24962" lon="7.34611">
        <ele>715.6</ele>
        <time>2025-08-06T08:31:04Z</time>
      </trkpt>
      <trkpt lat="48.24971" lon="7.34604">
        <ele>715.8</ele>
        <time>2025-08-06T08:31:07Z</time>
      </trkpt>
      <trkpt lat="48.24974" lon="7.34601">
        <ele>715.6</ele>
        <time>2025-08-06T08:31:09Z</time>
      </trkpt>
      <trkpt lat="48.24985" lon="7.34571">
        <ele>715.4</ele>
        <time>2025-08-06T08:31:15Z</time>
      </trkpt>
      <trkpt lat="48.24995" lon="7.34538">
        <ele>714.8</ele>
        <time>2025-08-06T08:31:21Z</time>
      </trkpt>
      <trkpt lat="48.25006" lon="7.34486">
        <ele>714.6</ele>
        <time>2025-08-06T08:31:28Z</time>
      </trkpt>
      <trkpt lat="48.25006" lon="7.34486">
        <ele>714.6</ele>
        <time>2025-08-06T08:31:29Z</time>
      </trkpt>
      <trkpt lat="48.25008" lon="7.34456">
        <ele>714.4</ele>
        <time>2025-08-06T08:31:32Z</time>
      </trkpt>
      <trkpt lat="48.2501" lon="7.34432">
        <ele>714</ele>
        <time>2025-08-06T08:31:35Z</time>
      </trkpt>
      <trkpt lat="48.25012" lon="7.34414">
        <ele>713.8</ele>
        <time>2025-08-06T08:31:37Z</time>
      </trkpt>
      <trkpt lat="48.25014" lon="7.34394">
        <ele>713</ele>
        <time>2025-08-06T08:31:40Z</time>
      </trkpt>
      <trkpt lat="48.25016" lon="7.34348">
        <ele>712.4</ele>
        <time>2025-08-06T08:31:43Z</time>
      </trkpt>
      <trkpt lat="48.25017" lon="7.34326">
        <ele>712</ele>
        <time>2025-08-06T08:31:45Z</time>
      </trkpt>
      <trkpt lat="48.25017" lon="7.34316">
        <ele>711.2</ele>
        <time>2025-08-06T08:31:46Z</time>
      </trkpt>
      <trkpt lat="48.25017" lon="7.3429">
        <ele>710</ele>
        <time>2025-08-06T08:31:48Z</time>
      </trkpt>
      <trkpt lat="48.25017" lon="7.34269">
        <ele>709</ele>
        <time>2025-08-06T08:31:50Z</time>
      </trkpt>
      <trkpt lat="48.25018" lon="7.34243">
        <ele>707.6</ele>
        <time>2025-08-06T08:31:52Z</time>
      </trkpt>
      <trkpt lat="48.25019" lon="7.34231">
        <ele>706.4</ele>
        <time>2025-08-06T08:31:54Z</time>
      </trkpt>
      <trkpt lat="48.25018" lon="7.34197">
        <ele>705.2</ele>
        <time>2025-08-06T08:31:56Z</time>
      </trkpt>
      <trkpt lat="48.25019" lon="7.34183">
        <ele>704.4</ele>
        <time>2025-08-06T08:31:58Z</time>
      </trkpt>
      <trkpt lat="48.2502" lon="7.34171">
        <ele>703.6</ele>
        <time>2025-08-06T08:31:59Z</time>
      </trkpt>
      <trkpt lat="48.25023" lon="7.34136">
        <ele>702.6</ele>
        <time>2025-08-06T08:32:01Z</time>
      </trkpt>
      <trkpt lat="48.25025" lon="7.34099">
        <ele>701.2</ele>
        <time>2025-08-06T08:32:04Z</time>
      </trkpt>
      <trkpt lat="48.25026" lon="7.34074">
        <ele>699.6</ele>
        <time>2025-08-06T08:32:06Z</time>
      </trkpt>
      <trkpt lat="48.25027" lon="7.34049">
        <ele>698.4</ele>
        <time>2025-08-06T08:32:08Z</time>
      </trkpt>
      <trkpt lat="48.25029" lon="7.34024">
        <ele>697.2</ele>
        <time>2025-08-06T08:32:10Z</time>
      </trkpt>
      <trkpt lat="48.25029" lon="7.34012">
        <ele>695.8</ele>
        <time>2025-08-06T08:32:12Z</time>
      </trkpt>
      <trkpt lat="48.2503" lon="7.33988">
        <ele>694.8</ele>
        <time>2025-08-06T08:32:13Z</time>
      </trkpt>
      <trkpt lat="48.2503" lon="7.33962">
        <ele>693.6</ele>
        <time>2025-08-06T08:32:15Z</time>
      </trkpt>
      <trkpt lat="48.2503" lon="7.33949">
        <ele>692</ele>
        <time>2025-08-06T08:32:17Z</time>
      </trkpt>
      <trkpt lat="48.2503" lon="7.33908">
        <ele>690.4</ele>
        <time>2025-08-06T08:32:19Z</time>
      </trkpt>
      <trkpt lat="48.25029" lon="7.33894">
        <ele>690</ele>
        <time>2025-08-06T08:32:20Z</time>
      </trkpt>
      <trkpt lat="48.25028" lon="7.33881">
        <ele>689.4</ele>
        <time>2025-08-06T08:32:21Z</time>
      </trkpt>
      <trkpt lat="48.25027" lon="7.33868">
        <ele>688.4</ele>
        <time>2025-08-06T08:32:22Z</time>
      </trkpt>
      <trkpt lat="48.25027" lon="7.3384">
        <ele>686.8</ele>
        <time>2025-08-06T08:32:24Z</time>
      </trkpt>
      <trkpt lat="48.25026" lon="7.33812">
        <ele>685.8</ele>
        <time>2025-08-06T08:32:26Z</time>
      </trkpt>
      <trkpt lat="48.25024" lon="7.33782">
        <ele>684.8</ele>
        <time>2025-08-06T08:32:28Z</time>
      </trkpt>
      <trkpt lat="48.25023" lon="7.33767">
        <ele>683.8</ele>
        <time>2025-08-06T08:32:29Z</time>
      </trkpt>
      <trkpt lat="48.25021" lon="7.33755">
        <ele>683.2</ele>
        <time>2025-08-06T08:32:30Z</time>
      </trkpt>
      <trkpt lat="48.25013" lon="7.33726">
        <ele>681.4</ele>
        <time>2025-08-06T08:32:32Z</time>
      </trkpt>
      <trkpt lat="48.25009" lon="7.33713">
        <ele>680.8</ele>
        <time>2025-08-06T08:32:33Z</time>
      </trkpt>
      <trkpt lat="48.25004" lon="7.33701">
        <ele>679.6</ele>
        <time>2025-08-06T08:32:34Z</time>
      </trkpt>
      <trkpt lat="48.24998" lon="7.33689">
        <ele>679.2</ele>
        <time>2025-08-06T08:32:35Z</time>
      </trkpt>
      <trkpt lat="48.24992" lon="7.3368">
        <ele>678.2</ele>
        <time>2025-08-06T08:32:36Z</time>
      </trkpt>
      <trkpt lat="48.24976" lon="7.33655">
        <ele>676.6</ele>
        <time>2025-08-06T08:32:38Z</time>
      </trkpt>
      <trkpt lat="48.2497" lon="7.33643">
        <ele>675.6</ele>
        <time>2025-08-06T08:32:39Z</time>
      </trkpt>
      <trkpt lat="48.24956" lon="7.3362">
        <ele>674.2</ele>
        <time>2025-08-06T08:32:41Z</time>
      </trkpt>
      <trkpt lat="48.24949" lon="7.33608">
        <ele>673.2</ele>
        <time>2025-08-06T08:32:43Z</time>
      </trkpt>
      <trkpt lat="48.24935" lon="7.33585">
        <ele>671.8</ele>
        <time>2025-08-06T08:32:45Z</time>
      </trkpt>
      <trkpt lat="48.24921" lon="7.33565">
        <ele>671</ele>
        <time>2025-08-06T08:32:46Z</time>
      </trkpt>
      <trkpt lat="48.24913" lon="7.33555">
        <ele>670.4</ele>
        <time>2025-08-06T08:32:47Z</time>
      </trkpt>
      <trkpt lat="48.24897" lon="7.33534">
        <ele>669</ele>
        <time>2025-08-06T08:32:49Z</time>
      </trkpt>
      <trkpt lat="48.24889" lon="7.33523">
        <ele>668.2</ele>
        <time>2025-08-06T08:32:50Z</time>
      </trkpt>
      <trkpt lat="48.24884" lon="7.33511">
        <ele>667.2</ele>
        <time>2025-08-06T08:32:51Z</time>
      </trkpt>
      <trkpt lat="48.24879" lon="7.33499">
        <ele>665.6</ele>
        <time>2025-08-06T08:32:53Z</time>
      </trkpt>
      <trkpt lat="48.24862" lon="7.33463">
        <ele>663.8</ele>
        <time>2025-08-06T08:32:55Z</time>
      </trkpt>
      <trkpt lat="48.24856" lon="7.33451">
        <ele>662</ele>
        <time>2025-08-06T08:32:57Z</time>
      </trkpt>
      <trkpt lat="48.24841" lon="7.33432">
        <ele>660.8</ele>
        <time>2025-08-06T08:32:58Z</time>
      </trkpt>
      <trkpt lat="48.24826" lon="7.33412">
        <ele>659.4</ele>
        <time>2025-08-06T08:33:00Z</time>
      </trkpt>
      <trkpt lat="48.24826" lon="7.33412">
        <ele>659</ele>
        <time>2025-08-06T08:33:01Z</time>
      </trkpt>
      <trkpt lat="48.24816" lon="7.33403">
        <ele>658.2</ele>
        <time>2025-08-06T08:33:02Z</time>
      </trkpt>
      <trkpt lat="48.24797" lon="7.33386">
        <ele>656.4</ele>
        <time>2025-08-06T08:33:04Z</time>
      </trkpt>
      <trkpt lat="48.24779" lon="7.33368">
        <ele>655</ele>
        <time>2025-08-06T08:33:06Z</time>
      </trkpt>
      <trkpt lat="48.24773" lon="7.33362">
        <ele>653.8</ele>
        <time>2025-08-06T08:33:07Z</time>
      </trkpt>
      <trkpt lat="48.24754" lon="7.33345">
        <ele>653.4</ele>
        <time>2025-08-06T08:33:08Z</time>
      </trkpt>
      <trkpt lat="48.24746" lon="7.33339">
        <ele>652.6</ele>
        <time>2025-08-06T08:33:09Z</time>
      </trkpt>
      <trkpt lat="48.24737" lon="7.33335">
        <ele>652</ele>
        <time>2025-08-06T08:33:10Z</time>
      </trkpt>
      <trkpt lat="48.24728" lon="7.33333">
        <ele>650.6</ele>
        <time>2025-08-06T08:33:11Z</time>
      </trkpt>
      <trkpt lat="48.24721" lon="7.33333">
        <ele>649.4</ele>
        <time>2025-08-06T08:33:12Z</time>
      </trkpt>
      <trkpt lat="48.24711" lon="7.33337">
        <ele>649.2</ele>
        <time>2025-08-06T08:33:13Z</time>
      </trkpt>
      <trkpt lat="48.24703" lon="7.33346">
        <ele>648.4</ele>
        <time>2025-08-06T08:33:14Z</time>
      </trkpt>
      <trkpt lat="48.24696" lon="7.33356">
        <ele>647</ele>
        <time>2025-08-06T08:33:16Z</time>
      </trkpt>
      <trkpt lat="48.24687" lon="7.33383">
        <ele>645.8</ele>
        <time>2025-08-06T08:33:17Z</time>
      </trkpt>
      <trkpt lat="48.24681" lon="7.33414">
        <ele>644.6</ele>
        <time>2025-08-06T08:33:19Z</time>
      </trkpt>
      <trkpt lat="48.24677" lon="7.33448">
        <ele>643</ele>
        <time>2025-08-06T08:33:21Z</time>
      </trkpt>
      <trkpt lat="48.24676" lon="7.33483">
        <ele>641.8</ele>
        <time>2025-08-06T08:33:23Z</time>
      </trkpt>
      <trkpt lat="48.24676" lon="7.33483">
        <ele>640.8</ele>
        <time>2025-08-06T08:33:24Z</time>
      </trkpt>
      <trkpt lat="48.24676" lon="7.3352">
        <ele>640.4</ele>
        <time>2025-08-06T08:33:25Z</time>
      </trkpt>
      <trkpt lat="48.24676" lon="7.3352">
        <ele>639.2</ele>
        <time>2025-08-06T08:33:26Z</time>
      </trkpt>
      <trkpt lat="48.24678" lon="7.33575">
        <ele>637.6</ele>
        <time>2025-08-06T08:33:28Z</time>
      </trkpt>
      <trkpt lat="48.24676" lon="7.33613">
        <ele>636</ele>
        <time>2025-08-06T08:33:30Z</time>
      </trkpt>
      <trkpt lat="48.24676" lon="7.33631">
        <ele>635</ele>
        <time>2025-08-06T08:33:31Z</time>
      </trkpt>
      <trkpt lat="48.24675" lon="7.33674">
        <ele>633</ele>
        <time>2025-08-06T08:33:33Z</time>
      </trkpt>
      <trkpt lat="48.24677" lon="7.33709">
        <ele>631.2</ele>
        <time>2025-08-06T08:33:35Z</time>
      </trkpt>
      <trkpt lat="48.24678" lon="7.3373">
        <ele>630</ele>
        <time>2025-08-06T08:33:36Z</time>
      </trkpt>
      <trkpt lat="48.2468" lon="7.33774">
        <ele>628.2</ele>
        <time>2025-08-06T08:33:38Z</time>
      </trkpt>
      <trkpt lat="48.24679" lon="7.3381">
        <ele>626.4</ele>
        <time>2025-08-06T08:33:40Z</time>
      </trkpt>
      <trkpt lat="48.24677" lon="7.33853">
        <ele>624.6</ele>
        <time>2025-08-06T08:33:42Z</time>
      </trkpt>
      <trkpt lat="48.24676" lon="7.33869">
        <ele>623.6</ele>
        <time>2025-08-06T08:33:43Z</time>
      </trkpt>
      <trkpt lat="48.24674" lon="7.33906">
        <ele>621.6</ele>
        <time>2025-08-06T08:33:45Z</time>
      </trkpt>
      <trkpt lat="48.2467" lon="7.33947">
        <ele>619.6</ele>
        <time>2025-08-06T08:33:47Z</time>
      </trkpt>
      <trkpt lat="48.24668" lon="7.33982">
        <ele>617.8</ele>
        <time>2025-08-06T08:33:49Z</time>
      </trkpt>
      <trkpt lat="48.24667" lon="7.34">
        <ele>616.2</ele>
        <time>2025-08-06T08:33:50Z</time>
      </trkpt>
      <trkpt lat="48.24667" lon="7.34014">
        <ele>614.4</ele>
        <time>2025-08-06T08:33:52Z</time>
      </trkpt>
      <trkpt lat="48.24666" lon="7.34066">
        <ele>612.8</ele>
        <time>2025-08-06T08:33:54Z</time>
      </trkpt>
      <trkpt lat="48.24662" lon="7.34101">
        <ele>610.6</ele>
        <time>2025-08-06T08:33:56Z</time>
      </trkpt>
      <trkpt lat="48.24662" lon="7.34101">
        <ele>609.6</ele>
        <time>2025-08-06T08:33:57Z</time>
      </trkpt>
      <trkpt lat="48.24659" lon="7.34135">
        <ele>609.2</ele>
        <time>2025-08-06T08:33:58Z</time>
      </trkpt>
      <trkpt lat="48.24658" lon="7.34152">
        <ele>607.8</ele>
        <time>2025-08-06T08:33:59Z</time>
      </trkpt>
      <trkpt lat="48.24656" lon="7.34188">
        <ele>606.6</ele>
        <time>2025-08-06T08:34:01Z</time>
      </trkpt>
      <trkpt lat="48.24656" lon="7.34188">
        <ele>605.2</ele>
        <time>2025-08-06T08:34:02Z</time>
      </trkpt>
      <trkpt lat="48.24656" lon="7.34244">
        <ele>603.6</ele>
        <time>2025-08-06T08:34:04Z</time>
      </trkpt>
      <trkpt lat="48.24658" lon="7.34277">
        <ele>602.2</ele>
        <time>2025-08-06T08:34:06Z</time>
      </trkpt>
      <trkpt lat="48.24661" lon="7.34317">
        <ele>600</ele>
        <time>2025-08-06T08:34:08Z</time>
      </trkpt>
      <trkpt lat="48.24661" lon="7.34317">
        <ele>598.6</ele>
        <time>2025-08-06T08:34:09Z</time>
      </trkpt>
      <trkpt lat="48.24662" lon="7.34353">
        <ele>597.8</ele>
        <time>2025-08-06T08:34:10Z</time>
      </trkpt>
      <trkpt lat="48.24662" lon="7.34368">
        <ele>596.4</ele>
        <time>2025-08-06T08:34:11Z</time>
      </trkpt>
      <trkpt lat="48.24662" lon="7.34407">
        <ele>594.6</ele>
        <time>2025-08-06T08:34:13Z</time>
      </trkpt>
      <trkpt lat="48.24662" lon="7.34443">
        <ele>592.8</ele>
        <time>2025-08-06T08:34:15Z</time>
      </trkpt>
      <trkpt lat="48.24662" lon="7.34443">
        <ele>591.8</ele>
        <time>2025-08-06T08:34:16Z</time>
      </trkpt>
      <trkpt lat="48.24664" lon="7.3449">
        <ele>589.8</ele>
        <time>2025-08-06T08:34:18Z</time>
      </trkpt>
      <trkpt lat="48.24667" lon="7.34524">
        <ele>587.8</ele>
        <time>2025-08-06T08:34:20Z</time>
      </trkpt>
      <trkpt lat="48.24667" lon="7.34537">
        <ele>586.2</ele>
        <time>2025-08-06T08:34:21Z</time>
      </trkpt>
      <trkpt lat="48.24669" lon="7.34566">
        <ele>584.6</ele>
        <time>2025-08-06T08:34:23Z</time>
      </trkpt>
      <trkpt lat="48.2467" lon="7.34584">
        <ele>584</ele>
        <time>2025-08-06T08:34:24Z</time>
      </trkpt>
      <trkpt lat="48.2467" lon="7.34595">
        <ele>582.8</ele>
        <time>2025-08-06T08:34:25Z</time>
      </trkpt>
      <trkpt lat="48.24671" lon="7.34625">
        <ele>581.2</ele>
        <time>2025-08-06T08:34:27Z</time>
      </trkpt>
      <trkpt lat="48.2467" lon="7.34638">
        <ele>580</ele>
        <time>2025-08-06T08:34:28Z</time>
      </trkpt>
      <trkpt lat="48.2467" lon="7.34648">
        <ele>579.6</ele>
        <time>2025-08-06T08:34:29Z</time>
      </trkpt>
      <trkpt lat="48.24671" lon="7.34661">
        <ele>578.8</ele>
        <time>2025-08-06T08:34:30Z</time>
      </trkpt>
      <trkpt lat="48.24671" lon="7.34672">
        <ele>577.2</ele>
        <time>2025-08-06T08:34:32Z</time>
      </trkpt>
      <trkpt lat="48.2467" lon="7.3469">
        <ele>576.8</ele>
        <time>2025-08-06T08:34:33Z</time>
      </trkpt>
      <trkpt lat="48.24668" lon="7.34697">
        <ele>575.6</ele>
        <time>2025-08-06T08:34:34Z</time>
      </trkpt>
      <trkpt lat="48.24665" lon="7.34701">
        <ele>574.6</ele>
        <time>2025-08-06T08:34:35Z</time>
      </trkpt>
      <trkpt lat="48.24662" lon="7.34702">
        <ele>574</ele>
        <time>2025-08-06T08:34:36Z</time>
      </trkpt>
      <trkpt lat="48.24656" lon="7.34698">
        <ele>572.8</ele>
        <time>2025-08-06T08:34:37Z</time>
      </trkpt>
      <trkpt lat="48.24652" lon="7.34691">
        <ele>572.2</ele>
        <time>2025-08-06T08:34:38Z</time>
      </trkpt>
      <trkpt lat="48.2465" lon="7.34681">
        <ele>571.4</ele>
        <time>2025-08-06T08:34:39Z</time>
      </trkpt>
      <trkpt lat="48.2465" lon="7.34671">
        <ele>570.6</ele>
        <time>2025-08-06T08:34:40Z</time>
      </trkpt>
      <trkpt lat="48.24651" lon="7.3466">
        <ele>570</ele>
        <time>2025-08-06T08:34:41Z</time>
      </trkpt>
      <trkpt lat="48.24654" lon="7.34638">
        <ele>568.6</ele>
        <time>2025-08-06T08:34:43Z</time>
      </trkpt>
      <trkpt lat="48.24654" lon="7.3462">
        <ele>568</ele>
        <time>2025-08-06T08:34:45Z</time>
      </trkpt>
      <trkpt lat="48.24654" lon="7.3461">
        <ele>567.6</ele>
        <time>2025-08-06T08:34:47Z</time>
      </trkpt>
      <trkpt lat="48.24644" lon="7.34544">
        <ele>567.6</ele>
        <time>2025-08-06T08:34:52Z</time>
      </trkpt>
      <trkpt lat="48.24638" lon="7.34512">
        <ele>567.6</ele>
        <time>2025-08-06T08:34:55Z</time>
      </trkpt>
      <trkpt lat="48.24626" lon="7.34481">
        <ele>567.6</ele>
        <time>2025-08-06T08:34:58Z</time>
      </trkpt>
      <trkpt lat="48.24607" lon="7.34434">
        <ele>567.6</ele>
        <time>2025-08-06T08:35:03Z</time>
      </trkpt>
      <trkpt lat="48.24601" lon="7.34416">
        <ele>567.6</ele>
        <time>2025-08-06T08:35:05Z</time>
      </trkpt>
      <trkpt lat="48.24577" lon="7.34357">
        <ele>566.4</ele>
        <time>2025-08-06T08:35:11Z</time>
      </trkpt>
      <trkpt lat="48.24577" lon="7.34357">
        <ele>566.4</ele>
        <time>2025-08-06T08:35:12Z</time>
      </trkpt>
      <trkpt lat="48.24573" lon="7.34335">
        <ele>566</ele>
        <time>2025-08-06T08:35:13Z</time>
      </trkpt>
      <trkpt lat="48.24569" lon="7.34302">
        <ele>565.8</ele>
        <time>2025-08-06T08:35:16Z</time>
      </trkpt>
      <trkpt lat="48.24568" lon="7.3429">
        <ele>565.2</ele>
        <time>2025-08-06T08:35:18Z</time>
      </trkpt>
      <trkpt lat="48.24566" lon="7.34239">
        <ele>564</ele>
        <time>2025-08-06T08:35:22Z</time>
      </trkpt>
      <trkpt lat="48.24564" lon="7.34209">
        <ele>563.8</ele>
        <time>2025-08-06T08:35:23Z</time>
      </trkpt>
      <trkpt lat="48.24561" lon="7.34179">
        <ele>562.8</ele>
        <time>2025-08-06T08:35:25Z</time>
      </trkpt>
      <trkpt lat="48.24555" lon="7.34136">
        <ele>561.6</ele>
        <time>2025-08-06T08:35:28Z</time>
      </trkpt>
      <trkpt lat="48.24553" lon="7.34121">
        <ele>561</ele>
        <time>2025-08-06T08:35:29Z</time>
      </trkpt>
      <trkpt lat="48.24549" lon="7.34106">
        <ele>560</ele>
        <time>2025-08-06T08:35:30Z</time>
      </trkpt>
      <trkpt lat="48.24543" lon="7.34076">
        <ele>558.6</ele>
        <time>2025-08-06T08:35:33Z</time>
      </trkpt>
      <trkpt lat="48.24532" lon="7.34033">
        <ele>557.4</ele>
        <time>2025-08-06T08:35:35Z</time>
      </trkpt>
      <trkpt lat="48.24529" lon="7.34018">
        <ele>555.6</ele>
        <time>2025-08-06T08:35:37Z</time>
      </trkpt>
      <trkpt lat="48.24523" lon="7.33987">
        <ele>555.2</ele>
        <time>2025-08-06T08:35:38Z</time>
      </trkpt>
      <trkpt lat="48.24523" lon="7.3397">
        <ele>554.4</ele>
        <time>2025-08-06T08:35:39Z</time>
      </trkpt>
      <trkpt lat="48.24523" lon="7.33954">
        <ele>554</ele>
        <time>2025-08-06T08:35:40Z</time>
      </trkpt>
      <trkpt lat="48.24523" lon="7.33938">
        <ele>552.6</ele>
        <time>2025-08-06T08:35:41Z</time>
      </trkpt>
      <trkpt lat="48.24523" lon="7.33938">
        <ele>551.6</ele>
        <time>2025-08-06T08:35:42Z</time>
      </trkpt>
      <trkpt lat="48.24526" lon="7.33889">
        <ele>550</ele>
        <time>2025-08-06T08:35:44Z</time>
      </trkpt>
      <trkpt lat="48.24526" lon="7.33874">
        <ele>549.4</ele>
        <time>2025-08-06T08:35:45Z</time>
      </trkpt>
      <trkpt lat="48.24523" lon="7.3386">
        <ele>548.8</ele>
        <time>2025-08-06T08:35:46Z</time>
      </trkpt>
      <trkpt lat="48.24511" lon="7.33835">
        <ele>547.8</ele>
        <time>2025-08-06T08:35:48Z</time>
      </trkpt>
      <trkpt lat="48.24506" lon="7.33826">
        <ele>546.8</ele>
        <time>2025-08-06T08:35:49Z</time>
      </trkpt>
      <trkpt lat="48.24493" lon="7.33806">
        <ele>545.8</ele>
        <time>2025-08-06T08:35:51Z</time>
      </trkpt>
      <trkpt lat="48.24489" lon="7.33794">
        <ele>545.4</ele>
        <time>2025-08-06T08:35:52Z</time>
      </trkpt>
      <trkpt lat="48.24487" lon="7.3378">
        <ele>544.6</ele>
        <time>2025-08-06T08:35:53Z</time>
      </trkpt>
      <trkpt lat="48.24485" lon="7.33751">
        <ele>543.6</ele>
        <time>2025-08-06T08:35:55Z</time>
      </trkpt>
      <trkpt lat="48.24484" lon="7.33737">
        <ele>542.2</ele>
        <time>2025-08-06T08:35:57Z</time>
      </trkpt>
      <trkpt lat="48.2448" lon="7.33707">
        <ele>541.2</ele>
        <time>2025-08-06T08:35:58Z</time>
      </trkpt>
      <trkpt lat="48.24478" lon="7.33694">
        <ele>541</ele>
        <time>2025-08-06T08:35:59Z</time>
      </trkpt>
      <trkpt lat="48.24476" lon="7.33683">
        <ele>539.8</ele>
        <time>2025-08-06T08:36:00Z</time>
      </trkpt>
      <trkpt lat="48.24475" lon="7.3367">
        <ele>539</ele>
        <time>2025-08-06T08:36:01Z</time>
      </trkpt>
      <trkpt lat="48.24475" lon="7.33646">
        <ele>538.4</ele>
        <time>2025-08-06T08:36:03Z</time>
      </trkpt>
      <trkpt lat="48.24478" lon="7.33627">
        <ele>538.2</ele>
        <time>2025-08-06T08:36:05Z</time>
      </trkpt>
      <trkpt lat="48.24482" lon="7.33607">
        <ele>538.2</ele>
        <time>2025-08-06T08:36:08Z</time>
      </trkpt>
      <trkpt lat="48.24482" lon="7.33607">
        <ele>538.2</ele>
        <time>2025-08-06T08:36:09Z</time>
      </trkpt>
      <trkpt lat="48.24484" lon="7.33598">
        <ele>538.6</ele>
        <time>2025-08-06T08:36:10Z</time>
      </trkpt>
      <trkpt lat="48.24488" lon="7.33584">
        <ele>539.2</ele>
        <time>2025-08-06T08:36:13Z</time>
      </trkpt>
      <trkpt lat="48.24489" lon="7.3358">
        <ele>539.4</ele>
        <time>2025-08-06T08:36:14Z</time>
      </trkpt>
      <trkpt lat="48.2449" lon="7.33571">
        <ele>540.6</ele>
        <time>2025-08-06T08:36:17Z</time>
      </trkpt>
      <trkpt lat="48.24493" lon="7.33557">
        <ele>541.2</ele>
        <time>2025-08-06T08:36:20Z</time>
      </trkpt>
      <trkpt lat="48.24494" lon="7.33551">
        <ele>542</ele>
        <time>2025-08-06T08:36:22Z</time>
      </trkpt>
      <trkpt lat="48.24496" lon="7.33541">
        <ele>542.6</ele>
        <time>2025-08-06T08:36:25Z</time>
      </trkpt>
      <trkpt lat="48.24497" lon="7.33531">
        <ele>543</ele>
        <time>2025-08-06T08:36:28Z</time>
      </trkpt>
      <trkpt lat="48.24495" lon="7.33512">
        <ele>543.8</ele>
        <time>2025-08-06T08:36:33Z</time>
      </trkpt>
      <trkpt lat="48.24496" lon="7.33508">
        <ele>544</ele>
        <time>2025-08-06T08:36:34Z</time>
      </trkpt>
      <trkpt lat="48.24494" lon="7.3349">
        <ele>545.2</ele>
        <time>2025-08-06T08:36:39Z</time>
      </trkpt>
      <trkpt lat="48.24494" lon="7.33484">
        <ele>545.6</ele>
        <time>2025-08-06T08:36:41Z</time>
      </trkpt>
      <trkpt lat="48.24494" lon="7.33473">
        <ele>546.4</ele>
        <time>2025-08-06T08:36:44Z</time>
      </trkpt>
      <trkpt lat="48.24494" lon="7.33454">
        <ele>547.4</ele>
        <time>2025-08-06T08:36:50Z</time>
      </trkpt>
      <trkpt lat="48.24494" lon="7.3345">
        <ele>547.8</ele>
        <time>2025-08-06T08:36:51Z</time>
      </trkpt>
      <trkpt lat="48.24494" lon="7.33439">
        <ele>548.6</ele>
        <time>2025-08-06T08:36:54Z</time>
      </trkpt>
      <trkpt lat="48.24493" lon="7.33426">
        <ele>549.6</ele>
        <time>2025-08-06T08:36:58Z</time>
      </trkpt>
      <trkpt lat="48.24492" lon="7.33418">
        <ele>549.8</ele>
        <time>2025-08-06T08:37:00Z</time>
      </trkpt>
      <trkpt lat="48.24492" lon="7.334">
        <ele>550.6</ele>
        <time>2025-08-06T08:37:05Z</time>
      </trkpt>
      <trkpt lat="48.24491" lon="7.3338">
        <ele>551.6</ele>
        <time>2025-08-06T08:37:09Z</time>
      </trkpt>
      <trkpt lat="48.2449" lon="7.33377">
        <ele>551.6</ele>
        <time>2025-08-06T08:37:10Z</time>
      </trkpt>
      <trkpt lat="48.24488" lon="7.33367">
        <ele>552.4</ele>
        <time>2025-08-06T08:37:14Z</time>
      </trkpt>
      <trkpt lat="48.24489" lon="7.33357">
        <ele>552.8</ele>
        <time>2025-08-06T08:37:16Z</time>
      </trkpt>
      <trkpt lat="48.24489" lon="7.33354">
        <ele>553</ele>
        <time>2025-08-06T08:37:17Z</time>
      </trkpt>
      <trkpt lat="48.24485" lon="7.33343">
        <ele>553.6</ele>
        <time>2025-08-06T08:37:20Z</time>
      </trkpt>
      <trkpt lat="48.2448" lon="7.33327">
        <ele>554.4</ele>
        <time>2025-08-06T08:37:25Z</time>
      </trkpt>
      <trkpt lat="48.24479" lon="7.33322">
        <ele>554.8</ele>
        <time>2025-08-06T08:37:26Z</time>
      </trkpt>
      <trkpt lat="48.24482" lon="7.33301">
        <ele>555.8</ele>
        <time>2025-08-06T08:37:32Z</time>
      </trkpt>
      <trkpt lat="48.2448" lon="7.33295">
        <ele>556.4</ele>
        <time>2025-08-06T08:37:34Z</time>
      </trkpt>
      <trkpt lat="48.24481" lon="7.33288">
        <ele>557</ele>
        <time>2025-08-06T08:37:36Z</time>
      </trkpt>
      <trkpt lat="48.24483" lon="7.3327">
        <ele>557.8</ele>
        <time>2025-08-06T08:37:42Z</time>
      </trkpt>
      <trkpt lat="48.24484" lon="7.33267">
        <ele>558</ele>
        <time>2025-08-06T08:37:43Z</time>
      </trkpt>
      <trkpt lat="48.24484" lon="7.33263">
        <ele>558.2</ele>
        <time>2025-08-06T08:37:44Z</time>
      </trkpt>
      <trkpt lat="48.24485" lon="7.33254">
        <ele>558.8</ele>
        <time>2025-08-06T08:37:47Z</time>
      </trkpt>
      <trkpt lat="48.24486" lon="7.33251">
        <ele>559</ele>
        <time>2025-08-06T08:37:48Z</time>
      </trkpt>
      <trkpt lat="48.24489" lon="7.33234">
        <ele>560</ele>
        <time>2025-08-06T08:37:54Z</time>
      </trkpt>
      <trkpt lat="48.24492" lon="7.33216">
        <ele>561</ele>
        <time>2025-08-06T08:38:00Z</time>
      </trkpt>
      <trkpt lat="48.24493" lon="7.33196">
        <ele>562.2</ele>
        <time>2025-08-06T08:38:06Z</time>
      </trkpt>
      <trkpt lat="48.24493" lon="7.33189">
        <ele>562.4</ele>
        <time>2025-08-06T08:38:08Z</time>
      </trkpt>
      <trkpt lat="48.24494" lon="7.33184">
        <ele>562.8</ele>
        <time>2025-08-06T08:38:09Z</time>
      </trkpt>
      <trkpt lat="48.24496" lon="7.33176">
        <ele>563.4</ele>
        <time>2025-08-06T08:38:12Z</time>
      </trkpt>
      <trkpt lat="48.24498" lon="7.33162">
        <ele>564.4</ele>
        <time>2025-08-06T08:38:16Z</time>
      </trkpt>
      <trkpt lat="48.24499" lon="7.33155">
        <ele>564.8</ele>
        <time>2025-08-06T08:38:18Z</time>
      </trkpt>
      <trkpt lat="48.24502" lon="7.33143">
        <ele>565.6</ele>
        <time>2025-08-06T08:38:22Z</time>
      </trkpt>
      <trkpt lat="48.24505" lon="7.33138">
        <ele>566</ele>
        <time>2025-08-06T08:38:24Z</time>
      </trkpt>
      <trkpt lat="48.24507" lon="7.33122">
        <ele>566.8</ele>
        <time>2025-08-06T08:38:28Z</time>
      </trkpt>
      <trkpt lat="48.24504" lon="7.33113">
        <ele>567</ele>
        <time>2025-08-06T08:38:30Z</time>
      </trkpt>
      <trkpt lat="48.24505" lon="7.33092">
        <ele>568</ele>
        <time>2025-08-06T08:38:35Z</time>
      </trkpt>
      <trkpt lat="48.24503" lon="7.33083">
        <ele>568.4</ele>
        <time>2025-08-06T08:38:37Z</time>
      </trkpt>
      <trkpt lat="48.24503" lon="7.33079">
        <ele>568.6</ele>
        <time>2025-08-06T08:38:38Z</time>
      </trkpt>
      <trkpt lat="48.24504" lon="7.33068">
        <ele>568.8</ele>
        <time>2025-08-06T08:38:41Z</time>
      </trkpt>
      <trkpt lat="48.24504" lon="7.33064">
        <ele>568.8</ele>
        <time>2025-08-06T08:38:42Z</time>
      </trkpt>
      <trkpt lat="48.24504" lon="7.33048">
        <ele>569.8</ele>
        <time>2025-08-06T08:38:47Z</time>
      </trkpt>
      <trkpt lat="48.24505" lon="7.33037">
        <ele>570.4</ele>
        <time>2025-08-06T08:38:50Z</time>
      </trkpt>
      <trkpt lat="48.24505" lon="7.33027">
        <ele>571</ele>
        <time>2025-08-06T08:38:53Z</time>
      </trkpt>
      <trkpt lat="48.24504" lon="7.33014">
        <ele>571.6</ele>
        <time>2025-08-06T08:38:57Z</time>
      </trkpt>
      <trkpt lat="48.24503" lon="7.33003">
        <ele>572.2</ele>
        <time>2025-08-06T08:39:00Z</time>
      </trkpt>
      <trkpt lat="48.24502" lon="7.32988">
        <ele>573.2</ele>
        <time>2025-08-06T08:39:04Z</time>
      </trkpt>
      <trkpt lat="48.24501" lon="7.32985">
        <ele>573.4</ele>
        <time>2025-08-06T08:39:05Z</time>
      </trkpt>
      <trkpt lat="48.24498" lon="7.32963">
        <ele>574.6</ele>
        <time>2025-08-06T08:39:11Z</time>
      </trkpt>
      <trkpt lat="48.24487" lon="7.3294">
        <ele>575.6</ele>
        <time>2025-08-06T08:39:18Z</time>
      </trkpt>
      <trkpt lat="48.24486" lon="7.32928">
        <ele>576.2</ele>
        <time>2025-08-06T08:39:22Z</time>
      </trkpt>
      <trkpt lat="48.24486" lon="7.32927">
        <ele>576.4</ele>
        <time>2025-08-06T08:39:23Z</time>
      </trkpt>
      <trkpt lat="48.24484" lon="7.32924">
        <ele>576.8</ele>
        <time>2025-08-06T08:39:24Z</time>
      </trkpt>
      <trkpt lat="48.2448" lon="7.32912">
        <ele>577.2</ele>
        <time>2025-08-06T08:39:29Z</time>
      </trkpt>
      <trkpt lat="48.24476" lon="7.32906">
        <ele>577.8</ele>
        <time>2025-08-06T08:39:32Z</time>
      </trkpt>
      <trkpt lat="48.24471" lon="7.32896">
        <ele>578.8</ele>
        <time>2025-08-06T08:39:36Z</time>
      </trkpt>
      <trkpt lat="48.24469" lon="7.32894">
        <ele>579</ele>
        <time>2025-08-06T08:39:37Z</time>
      </trkpt>
      <trkpt lat="48.24463" lon="7.3288">
        <ele>579.8</ele>
        <time>2025-08-06T08:39:42Z</time>
      </trkpt>
      <trkpt lat="48.24461" lon="7.32877">
        <ele>580</ele>
        <time>2025-08-06T08:39:43Z</time>
      </trkpt>
      <trkpt lat="48.2445" lon="7.32858">
        <ele>581</ele>
        <time>2025-08-06T08:39:49Z</time>
      </trkpt>
      <trkpt lat="48.24447" lon="7.32851">
        <ele>581.6</ele>
        <time>2025-08-06T08:39:51Z</time>
      </trkpt>
      <trkpt lat="48.24442" lon="7.32842">
        <ele>582</ele>
        <time>2025-08-06T08:39:54Z</time>
      </trkpt>
      <trkpt lat="48.24438" lon="7.32828">
        <ele>582.8</ele>
        <time>2025-08-06T08:39:58Z</time>
      </trkpt>
      <trkpt lat="48.24437" lon="7.32823">
        <ele>583</ele>
        <time>2025-08-06T08:39:59Z</time>
      </trkpt>
      <trkpt lat="48.24432" lon="7.32807">
        <ele>584.2</ele>
        <time>2025-08-06T08:40:04Z</time>
      </trkpt>
      <trkpt lat="48.2443" lon="7.32795">
        <ele>584.8</ele>
        <time>2025-08-06T08:40:07Z</time>
      </trkpt>
      <trkpt lat="48.24429" lon="7.32786">
        <ele>585.2</ele>
        <time>2025-08-06T08:40:10Z</time>
      </trkpt>
      <trkpt lat="48.24427" lon="7.32774">
        <ele>586</ele>
        <time>2025-08-06T08:40:14Z</time>
      </trkpt>
      <trkpt lat="48.24427" lon="7.32769">
        <ele>586.4</ele>
        <time>2025-08-06T08:40:16Z</time>
      </trkpt>
      <trkpt lat="48.24427" lon="7.3276">
        <ele>587.4</ele>
        <time>2025-08-06T08:40:19Z</time>
      </trkpt>
      <trkpt lat="48.24427" lon="7.32757">
        <ele>587.6</ele>
        <time>2025-08-06T08:40:20Z</time>
      </trkpt>
      <trkpt lat="48.24427" lon="7.32754">
        <ele>587.8</ele>
        <time>2025-08-06T08:40:21Z</time>
      </trkpt>
      <trkpt lat="48.24425" lon="7.32741">
        <ele>588.6</ele>
        <time>2025-08-06T08:40:24Z</time>
      </trkpt>
      <trkpt lat="48.24423" lon="7.32725">
        <ele>589.2</ele>
        <time>2025-08-06T08:40:28Z</time>
      </trkpt>
      <trkpt lat="48.24421" lon="7.3271">
        <ele>589.6</ele>
        <time>2025-08-06T08:40:32Z</time>
      </trkpt>
      <trkpt lat="48.24416" lon="7.32692">
        <ele>590</ele>
        <time>2025-08-06T08:40:37Z</time>
      </trkpt>
      <trkpt lat="48.24406" lon="7.32662">
        <ele>590.8</ele>
        <time>2025-08-06T08:40:45Z</time>
      </trkpt>
      <trkpt lat="48.2441" lon="7.32638">
        <ele>591.4</ele>
        <time>2025-08-06T08:40:52Z</time>
      </trkpt>
      <trkpt lat="48.2441" lon="7.32621">
        <ele>591.6</ele>
        <time>2025-08-06T08:40:57Z</time>
      </trkpt>
      <trkpt lat="48.24411" lon="7.326">
        <ele>591.6</ele>
        <time>2025-08-06T08:41:03Z</time>
      </trkpt>
      <trkpt lat="48.2441" lon="7.32575">
        <ele>591.6</ele>
        <time>2025-08-06T08:41:09Z</time>
      </trkpt>
      <trkpt lat="48.24411" lon="7.32539">
        <ele>591.6</ele>
        <time>2025-08-06T08:41:17Z</time>
      </trkpt>
      <trkpt lat="48.24409" lon="7.32493">
        <ele>591.2</ele>
        <time>2025-08-06T08:41:26Z</time>
      </trkpt>
      <trkpt lat="48.24408" lon="7.32457">
        <ele>590.6</ele>
        <time>2025-08-06T08:41:31Z</time>
      </trkpt>
      <trkpt lat="48.24406" lon="7.32409">
        <ele>589.8</ele>
        <time>2025-08-06T08:41:36Z</time>
      </trkpt>
      <trkpt lat="48.24407" lon="7.324">
        <ele>589.2</ele>
        <time>2025-08-06T08:41:37Z</time>
      </trkpt>
      <trkpt lat="48.24409" lon="7.32379">
        <ele>588.8</ele>
        <time>2025-08-06T08:41:39Z</time>
      </trkpt>
      <trkpt lat="48.24413" lon="7.32368">
        <ele>588.2</ele>
        <time>2025-08-06T08:41:40Z</time>
      </trkpt>
      <trkpt lat="48.24418" lon="7.32361">
        <ele>588</ele>
        <time>2025-08-06T08:41:41Z</time>
      </trkpt>
      <trkpt lat="48.24424" lon="7.32355">
        <ele>587.4</ele>
        <time>2025-08-06T08:41:42Z</time>
      </trkpt>
      <trkpt lat="48.24431" lon="7.32353">
        <ele>586.6</ele>
        <time>2025-08-06T08:41:43Z</time>
      </trkpt>
      <trkpt lat="48.24439" lon="7.32353">
        <ele>586.2</ele>
        <time>2025-08-06T08:41:44Z</time>
      </trkpt>
      <trkpt lat="48.24448" lon="7.32356">
        <ele>585.8</ele>
        <time>2025-08-06T08:41:45Z</time>
      </trkpt>
      <trkpt lat="48.24456" lon="7.3236">
        <ele>585.4</ele>
        <time>2025-08-06T08:41:46Z</time>
      </trkpt>
      <trkpt lat="48.24465" lon="7.32363">
        <ele>584.8</ele>
        <time>2025-08-06T08:41:47Z</time>
      </trkpt>
      <trkpt lat="48.24491" lon="7.32371">
        <ele>583.4</ele>
        <time>2025-08-06T08:41:50Z</time>
      </trkpt>
      <trkpt lat="48.24509" lon="7.32366">
        <ele>582.6</ele>
        <time>2025-08-06T08:41:52Z</time>
      </trkpt>
      <trkpt lat="48.24517" lon="7.32358">
        <ele>582.2</ele>
        <time>2025-08-06T08:41:53Z</time>
      </trkpt>
      <trkpt lat="48.24523" lon="7.32348">
        <ele>581.6</ele>
        <time>2025-08-06T08:41:54Z</time>
      </trkpt>
      <trkpt lat="48.24532" lon="7.32324">
        <ele>580.8</ele>
        <time>2025-08-06T08:41:56Z</time>
      </trkpt>
      <trkpt lat="48.24539" lon="7.32281">
        <ele>579</ele>
        <time>2025-08-06T08:41:59Z</time>
      </trkpt>
      <trkpt lat="48.24541" lon="7.32269">
        <ele>578.6</ele>
        <time>2025-08-06T08:42:00Z</time>
      </trkpt>
      <trkpt lat="48.24544" lon="7.32251">
        <ele>577.8</ele>
        <time>2025-08-06T08:42:01Z</time>
      </trkpt>
      <trkpt lat="48.24548" lon="7.32225">
        <ele>576.8</ele>
        <time>2025-08-06T08:42:03Z</time>
      </trkpt>
      <trkpt lat="48.24551" lon="7.32211">
        <ele>576.2</ele>
        <time>2025-08-06T08:42:04Z</time>
      </trkpt>
      <trkpt lat="48.24551" lon="7.32211">
        <ele>575.6</ele>
        <time>2025-08-06T08:42:05Z</time>
      </trkpt>
      <trkpt lat="48.24561" lon="7.32185">
        <ele>574.6</ele>
        <time>2025-08-06T08:42:06Z</time>
      </trkpt>
      <trkpt lat="48.24568" lon="7.32177">
        <ele>574.2</ele>
        <time>2025-08-06T08:42:07Z</time>
      </trkpt>
      <trkpt lat="48.24576" lon="7.32173">
        <ele>573.2</ele>
        <time>2025-08-06T08:42:08Z</time>
      </trkpt>
      <trkpt lat="48.24595" lon="7.32174">
        <ele>572.2</ele>
        <time>2025-08-06T08:42:10Z</time>
      </trkpt>
      <trkpt lat="48.24604" lon="7.32174">
        <ele>571</ele>
        <time>2025-08-06T08:42:11Z</time>
      </trkpt>
      <trkpt lat="48.24621" lon="7.32167">
        <ele>569.4</ele>
        <time>2025-08-06T08:42:13Z</time>
      </trkpt>
      <trkpt lat="48.24628" lon="7.3216">
        <ele>568.6</ele>
        <time>2025-08-06T08:42:14Z</time>
      </trkpt>
      <trkpt lat="48.24636" lon="7.32151">
        <ele>568.2</ele>
        <time>2025-08-06T08:42:15Z</time>
      </trkpt>
      <trkpt lat="48.24658" lon="7.32122">
        <ele>567.2</ele>
        <time>2025-08-06T08:42:18Z</time>
      </trkpt>
      <trkpt lat="48.24672" lon="7.32102">
        <ele>566.4</ele>
        <time>2025-08-06T08:42:20Z</time>
      </trkpt>
      <trkpt lat="48.2468" lon="7.3209">
        <ele>566</ele>
        <time>2025-08-06T08:42:21Z</time>
      </trkpt>
      <trkpt lat="48.24707" lon="7.32052">
        <ele>564.2</ele>
        <time>2025-08-06T08:42:25Z</time>
      </trkpt>
      <trkpt lat="48.24716" lon="7.32039">
        <ele>563</ele>
        <time>2025-08-06T08:42:26Z</time>
      </trkpt>
      <trkpt lat="48.24723" lon="7.32029">
        <ele>562.4</ele>
        <time>2025-08-06T08:42:27Z</time>
      </trkpt>
      <trkpt lat="48.2473" lon="7.32021">
        <ele>561.8</ele>
        <time>2025-08-06T08:42:28Z</time>
      </trkpt>
      <trkpt lat="48.24752" lon="7.31988">
        <ele>560.8</ele>
        <time>2025-08-06T08:42:31Z</time>
      </trkpt>
      <trkpt lat="48.24758" lon="7.31977">
        <ele>560.4</ele>
        <time>2025-08-06T08:42:32Z</time>
      </trkpt>
      <trkpt lat="48.24763" lon="7.31965">
        <ele>559.6</ele>
        <time>2025-08-06T08:42:33Z</time>
      </trkpt>
      <trkpt lat="48.24767" lon="7.31941">
        <ele>558.8</ele>
        <time>2025-08-06T08:42:35Z</time>
      </trkpt>
      <trkpt lat="48.24766" lon="7.31924">
        <ele>558.6</ele>
        <time>2025-08-06T08:42:36Z</time>
      </trkpt>
      <trkpt lat="48.24763" lon="7.3191">
        <ele>558</ele>
        <time>2025-08-06T08:42:37Z</time>
      </trkpt>
      <trkpt lat="48.24754" lon="7.31889">
        <ele>556.8</ele>
        <time>2025-08-06T08:42:39Z</time>
      </trkpt>
      <trkpt lat="48.24737" lon="7.31868">
        <ele>555.6</ele>
        <time>2025-08-06T08:42:41Z</time>
      </trkpt>
      <trkpt lat="48.24728" lon="7.3186">
        <ele>554.8</ele>
        <time>2025-08-06T08:42:42Z</time>
      </trkpt>
      <trkpt lat="48.24721" lon="7.3185">
        <ele>554.6</ele>
        <time>2025-08-06T08:42:43Z</time>
      </trkpt>
      <trkpt lat="48.24715" lon="7.31839">
        <ele>553.8</ele>
        <time>2025-08-06T08:42:44Z</time>
      </trkpt>
      <trkpt lat="48.24712" lon="7.3183">
        <ele>553</ele>
        <time>2025-08-06T08:42:45Z</time>
      </trkpt>
      <trkpt lat="48.24712" lon="7.31814">
        <ele>552.8</ele>
        <time>2025-08-06T08:42:46Z</time>
      </trkpt>
      <trkpt lat="48.24715" lon="7.31802">
        <ele>552.2</ele>
        <time>2025-08-06T08:42:47Z</time>
      </trkpt>
      <trkpt lat="48.24726" lon="7.31786">
        <ele>551</ele>
        <time>2025-08-06T08:42:49Z</time>
      </trkpt>
      <trkpt lat="48.24734" lon="7.31779">
        <ele>550.6</ele>
        <time>2025-08-06T08:42:50Z</time>
      </trkpt>
      <trkpt lat="48.24743" lon="7.31772">
        <ele>549.6</ele>
        <time>2025-08-06T08:42:51Z</time>
      </trkpt>
      <trkpt lat="48.2477" lon="7.31752">
        <ele>547.8</ele>
        <time>2025-08-06T08:42:54Z</time>
      </trkpt>
      <trkpt lat="48.24798" lon="7.3173">
        <ele>546.4</ele>
        <time>2025-08-06T08:42:57Z</time>
      </trkpt>
      <trkpt lat="48.24831" lon="7.31703">
        <ele>545.2</ele>
        <time>2025-08-06T08:43:01Z</time>
      </trkpt>
      <trkpt lat="48.24841" lon="7.31694">
        <ele>545</ele>
        <time>2025-08-06T08:43:02Z</time>
      </trkpt>
      <trkpt lat="48.24849" lon="7.31687">
        <ele>543.8</ele>
        <time>2025-08-06T08:43:03Z</time>
      </trkpt>
      <trkpt lat="48.24871" lon="7.31663">
        <ele>542.6</ele>
        <time>2025-08-06T08:43:06Z</time>
      </trkpt>
      <trkpt lat="48.24888" lon="7.31643">
        <ele>541.6</ele>
        <time>2025-08-06T08:43:08Z</time>
      </trkpt>
      <trkpt lat="48.24894" lon="7.31636">
        <ele>541.4</ele>
        <time>2025-08-06T08:43:09Z</time>
      </trkpt>
      <trkpt lat="48.24919" lon="7.31605">
        <ele>540.2</ele>
        <time>2025-08-06T08:43:12Z</time>
      </trkpt>
      <trkpt lat="48.2494" lon="7.31574">
        <ele>538.8</ele>
        <time>2025-08-06T08:43:15Z</time>
      </trkpt>
      <trkpt lat="48.24946" lon="7.31567">
        <ele>538</ele>
        <time>2025-08-06T08:43:16Z</time>
      </trkpt>
      <trkpt lat="48.24964" lon="7.31544">
        <ele>537.4</ele>
        <time>2025-08-06T08:43:18Z</time>
      </trkpt>
      <trkpt lat="48.24988" lon="7.31512">
        <ele>535.8</ele>
        <time>2025-08-06T08:43:21Z</time>
      </trkpt>
      <trkpt lat="48.25002" lon="7.31488">
        <ele>534</ele>
        <time>2025-08-06T08:43:23Z</time>
      </trkpt>
      <trkpt lat="48.25023" lon="7.31455">
        <ele>532.8</ele>
        <time>2025-08-06T08:43:26Z</time>
      </trkpt>
      <trkpt lat="48.25043" lon="7.31433">
        <ele>530.8</ele>
        <time>2025-08-06T08:43:28Z</time>
      </trkpt>
      <trkpt lat="48.25059" lon="7.31416">
        <ele>529.8</ele>
        <time>2025-08-06T08:43:30Z</time>
      </trkpt>
      <trkpt lat="48.25067" lon="7.31406">
        <ele>529.4</ele>
        <time>2025-08-06T08:43:31Z</time>
      </trkpt>
      <trkpt lat="48.25073" lon="7.31395">
        <ele>528</ele>
        <time>2025-08-06T08:43:32Z</time>
      </trkpt>
      <trkpt lat="48.2508" lon="7.3138">
        <ele>527.2</ele>
        <time>2025-08-06T08:43:33Z</time>
      </trkpt>
      <trkpt lat="48.25084" lon="7.31366">
        <ele>526.2</ele>
        <time>2025-08-06T08:43:34Z</time>
      </trkpt>
      <trkpt lat="48.25087" lon="7.31351">
        <ele>525.2</ele>
        <time>2025-08-06T08:43:35Z</time>
      </trkpt>
      <trkpt lat="48.25089" lon="7.31336">
        <ele>525</ele>
        <time>2025-08-06T08:43:36Z</time>
      </trkpt>
      <trkpt lat="48.25093" lon="7.3129">
        <ele>523.6</ele>
        <time>2025-08-06T08:43:39Z</time>
      </trkpt>
      <trkpt lat="48.25096" lon="7.31262">
        <ele>522.8</ele>
        <time>2025-08-06T08:43:41Z</time>
      </trkpt>
      <trkpt lat="48.25098" lon="7.31243">
        <ele>522</ele>
        <time>2025-08-06T08:43:42Z</time>
      </trkpt>
      <trkpt lat="48.25102" lon="7.31196">
        <ele>521</ele>
        <time>2025-08-06T08:43:45Z</time>
      </trkpt>
      <trkpt lat="48.25106" lon="7.31164">
        <ele>519.6</ele>
        <time>2025-08-06T08:43:47Z</time>
      </trkpt>
      <trkpt lat="48.25109" lon="7.31131">
        <ele>518.6</ele>
        <time>2025-08-06T08:43:49Z</time>
      </trkpt>
      <trkpt lat="48.25112" lon="7.31099">
        <ele>517.2</ele>
        <time>2025-08-06T08:43:51Z</time>
      </trkpt>
      <trkpt lat="48.25117" lon="7.31053">
        <ele>516</ele>
        <time>2025-08-06T08:43:54Z</time>
      </trkpt>
      <trkpt lat="48.2512" lon="7.31023">
        <ele>514.6</ele>
        <time>2025-08-06T08:43:56Z</time>
      </trkpt>
      <trkpt lat="48.25122" lon="7.31011">
        <ele>514.2</ele>
        <time>2025-08-06T08:43:57Z</time>
      </trkpt>
      <trkpt lat="48.25123" lon="7.30994">
        <ele>513.2</ele>
        <time>2025-08-06T08:43:58Z</time>
      </trkpt>
      <trkpt lat="48.25124" lon="7.30965">
        <ele>512.2</ele>
        <time>2025-08-06T08:44:00Z</time>
      </trkpt>
      <trkpt lat="48.25124" lon="7.30951">
        <ele>511.8</ele>
        <time>2025-08-06T08:44:01Z</time>
      </trkpt>
      <trkpt lat="48.2512" lon="7.30923">
        <ele>511.6</ele>
        <time>2025-08-06T08:44:03Z</time>
      </trkpt>
      <trkpt lat="48.25114" lon="7.30897">
        <ele>510.8</ele>
        <time>2025-08-06T08:44:05Z</time>
      </trkpt>
      <trkpt lat="48.25094" lon="7.30821">
        <ele>509.8</ele>
        <time>2025-08-06T08:44:11Z</time>
      </trkpt>
      <trkpt lat="48.25087" lon="7.30796">
        <ele>509.4</ele>
        <time>2025-08-06T08:44:13Z</time>
      </trkpt>
      <trkpt lat="48.25083" lon="7.3077">
        <ele>509</ele>
        <time>2025-08-06T08:44:15Z</time>
      </trkpt>
      <trkpt lat="48.25083" lon="7.30743">
        <ele>508.8</ele>
        <time>2025-08-06T08:44:17Z</time>
      </trkpt>
      <trkpt lat="48.25086" lon="7.30717">
        <ele>508.2</ele>
        <time>2025-08-06T08:44:19Z</time>
      </trkpt>
      <trkpt lat="48.25092" lon="7.30692">
        <ele>507.8</ele>
        <time>2025-08-06T08:44:21Z</time>
      </trkpt>
      <trkpt lat="48.25096" lon="7.3068">
        <ele>507.4</ele>
        <time>2025-08-06T08:44:22Z</time>
      </trkpt>
      <trkpt lat="48.25114" lon="7.30635">
        <ele>506.4</ele>
        <time>2025-08-06T08:44:26Z</time>
      </trkpt>
      <trkpt lat="48.25119" lon="7.30624">
        <ele>506</ele>
        <time>2025-08-06T08:44:27Z</time>
      </trkpt>
      <trkpt lat="48.25142" lon="7.30584">
        <ele>505.2</ele>
        <time>2025-08-06T08:44:31Z</time>
      </trkpt>
      <trkpt lat="48.25148" lon="7.30573">
        <ele>505</ele>
        <time>2025-08-06T08:44:32Z</time>
      </trkpt>
      <trkpt lat="48.25174" lon="7.30532">
        <ele>504.2</ele>
        <time>2025-08-06T08:44:36Z</time>
      </trkpt>
      <trkpt lat="48.252" lon="7.30489">
        <ele>503</ele>
        <time>2025-08-06T08:44:40Z</time>
      </trkpt>
      <trkpt lat="48.25224" lon="7.30442">
        <ele>501.2</ele>
        <time>2025-08-06T08:44:44Z</time>
      </trkpt>
      <trkpt lat="48.25235" lon="7.30417">
        <ele>500.4</ele>
        <time>2025-08-06T08:44:46Z</time>
      </trkpt>
      <trkpt lat="48.2524" lon="7.30404">
        <ele>500.2</ele>
        <time>2025-08-06T08:44:47Z</time>
      </trkpt>
      <trkpt lat="48.25251" lon="7.30378">
        <ele>499</ele>
        <time>2025-08-06T08:44:49Z</time>
      </trkpt>
      <trkpt lat="48.25263" lon="7.3035">
        <ele>497.6</ele>
        <time>2025-08-06T08:44:51Z</time>
      </trkpt>
      <trkpt lat="48.25269" lon="7.30336">
        <ele>497.2</ele>
        <time>2025-08-06T08:44:52Z</time>
      </trkpt>
      <trkpt lat="48.25275" lon="7.30323">
        <ele>496.4</ele>
        <time>2025-08-06T08:44:53Z</time>
      </trkpt>
      <trkpt lat="48.25289" lon="7.303">
        <ele>495.6</ele>
        <time>2025-08-06T08:44:55Z</time>
      </trkpt>
      <trkpt lat="48.25297" lon="7.30289">
        <ele>494.8</ele>
        <time>2025-08-06T08:44:56Z</time>
      </trkpt>
      <trkpt lat="48.25305" lon="7.3028">
        <ele>494.2</ele>
        <time>2025-08-06T08:44:57Z</time>
      </trkpt>
      <trkpt lat="48.25313" lon="7.30272">
        <ele>492.6</ele>
        <time>2025-08-06T08:44:58Z</time>
      </trkpt>
      <trkpt lat="48.25323" lon="7.30266">
        <ele>491.8</ele>
        <time>2025-08-06T08:44:59Z</time>
      </trkpt>
      <trkpt lat="48.25333" lon="7.30261">
        <ele>490.4</ele>
        <time>2025-08-06T08:45:00Z</time>
      </trkpt>
      <trkpt lat="48.25344" lon="7.30256">
        <ele>489.4</ele>
        <time>2025-08-06T08:45:01Z</time>
      </trkpt>
      <trkpt lat="48.25366" lon="7.30249">
        <ele>487.6</ele>
        <time>2025-08-06T08:45:03Z</time>
      </trkpt>
      <trkpt lat="48.25388" lon="7.30244">
        <ele>486.4</ele>
        <time>2025-08-06T08:45:05Z</time>
      </trkpt>
      <trkpt lat="48.25411" lon="7.30238">
        <ele>484.8</ele>
        <time>2025-08-06T08:45:07Z</time>
      </trkpt>
      <trkpt lat="48.25422" lon="7.30236">
        <ele>483.4</ele>
        <time>2025-08-06T08:45:08Z</time>
      </trkpt>
      <trkpt lat="48.25445" lon="7.30234">
        <ele>482</ele>
        <time>2025-08-06T08:45:10Z</time>
      </trkpt>
      <trkpt lat="48.25468" lon="7.30232">
        <ele>480.6</ele>
        <time>2025-08-06T08:45:12Z</time>
      </trkpt>
      <trkpt lat="48.2549" lon="7.30232">
        <ele>479.6</ele>
        <time>2025-08-06T08:45:14Z</time>
      </trkpt>
      <trkpt lat="48.25501" lon="7.30231">
        <ele>477.4</ele>
        <time>2025-08-06T08:45:15Z</time>
      </trkpt>
      <trkpt lat="48.25512" lon="7.30228">
        <ele>476.8</ele>
        <time>2025-08-06T08:45:16Z</time>
      </trkpt>
      <trkpt lat="48.25523" lon="7.30225">
        <ele>475.6</ele>
        <time>2025-08-06T08:45:17Z</time>
      </trkpt>
      <trkpt lat="48.25546" lon="7.30213">
        <ele>474.2</ele>
        <time>2025-08-06T08:45:19Z</time>
      </trkpt>
      <trkpt lat="48.25556" lon="7.30206">
        <ele>473.4</ele>
        <time>2025-08-06T08:45:20Z</time>
      </trkpt>
      <trkpt lat="48.25567" lon="7.30199">
        <ele>473</ele>
        <time>2025-08-06T08:45:21Z</time>
      </trkpt>
      <trkpt lat="48.25589" lon="7.30183">
        <ele>471.8</ele>
        <time>2025-08-06T08:45:23Z</time>
      </trkpt>
      <trkpt lat="48.256" lon="7.30174">
        <ele>470.2</ele>
        <time>2025-08-06T08:45:24Z</time>
      </trkpt>
      <trkpt lat="48.25611" lon="7.30165">
        <ele>468.2</ele>
        <time>2025-08-06T08:45:25Z</time>
      </trkpt>
      <trkpt lat="48.25633" lon="7.30149">
        <ele>466.4</ele>
        <time>2025-08-06T08:45:27Z</time>
      </trkpt>
      <trkpt lat="48.25654" lon="7.30133">
        <ele>465</ele>
        <time>2025-08-06T08:45:29Z</time>
      </trkpt>
      <trkpt lat="48.25665" lon="7.30125">
        <ele>463.8</ele>
        <time>2025-08-06T08:45:30Z</time>
      </trkpt>
      <trkpt lat="48.25687" lon="7.3011">
        <ele>462.4</ele>
        <time>2025-08-06T08:45:32Z</time>
      </trkpt>
      <trkpt lat="48.25699" lon="7.30105">
        <ele>461.4</ele>
        <time>2025-08-06T08:45:33Z</time>
      </trkpt>
      <trkpt lat="48.2571" lon="7.301">
        <ele>460.4</ele>
        <time>2025-08-06T08:45:34Z</time>
      </trkpt>
      <trkpt lat="48.25722" lon="7.30096">
        <ele>459.8</ele>
        <time>2025-08-06T08:45:35Z</time>
      </trkpt>
      <trkpt lat="48.25734" lon="7.30094">
        <ele>459</ele>
        <time>2025-08-06T08:45:36Z</time>
      </trkpt>
      <trkpt lat="48.25746" lon="7.30093">
        <ele>457</ele>
        <time>2025-08-06T08:45:37Z</time>
      </trkpt>
      <trkpt lat="48.25759" lon="7.30092">
        <ele>456</ele>
        <time>2025-08-06T08:45:38Z</time>
      </trkpt>
      <trkpt lat="48.25771" lon="7.3009">
        <ele>455</ele>
        <time>2025-08-06T08:45:39Z</time>
      </trkpt>
      <trkpt lat="48.25796" lon="7.30085">
        <ele>453.6</ele>
        <time>2025-08-06T08:45:41Z</time>
      </trkpt>
      <trkpt lat="48.25808" lon="7.30083">
        <ele>452.2</ele>
        <time>2025-08-06T08:45:42Z</time>
      </trkpt>
      <trkpt lat="48.25819" lon="7.30081">
        <ele>451.4</ele>
        <time>2025-08-06T08:45:43Z</time>
      </trkpt>
      <trkpt lat="48.2583" lon="7.30081">
        <ele>450.2</ele>
        <time>2025-08-06T08:45:44Z</time>
      </trkpt>
      <trkpt lat="48.25842" lon="7.30083">
        <ele>449.4</ele>
        <time>2025-08-06T08:45:45Z</time>
      </trkpt>
      <trkpt lat="48.25853" lon="7.30084">
        <ele>448.2</ele>
        <time>2025-08-06T08:45:46Z</time>
      </trkpt>
      <trkpt lat="48.25874" lon="7.30087">
        <ele>446.2</ele>
        <time>2025-08-06T08:45:48Z</time>
      </trkpt>
      <trkpt lat="48.25884" lon="7.30084">
        <ele>445.4</ele>
        <time>2025-08-06T08:45:49Z</time>
      </trkpt>
      <trkpt lat="48.25892" lon="7.30079">
        <ele>444.6</ele>
        <time>2025-08-06T08:45:50Z</time>
      </trkpt>
      <trkpt lat="48.259" lon="7.3007">
        <ele>443.2</ele>
        <time>2025-08-06T08:45:51Z</time>
      </trkpt>
      <trkpt lat="48.25907" lon="7.30058">
        <ele>442.8</ele>
        <time>2025-08-06T08:45:52Z</time>
      </trkpt>
      <trkpt lat="48.25912" lon="7.30044">
        <ele>441.4</ele>
        <time>2025-08-06T08:45:53Z</time>
      </trkpt>
      <trkpt lat="48.25922" lon="7.30016">
        <ele>440.2</ele>
        <time>2025-08-06T08:45:55Z</time>
      </trkpt>
      <trkpt lat="48.25927" lon="7.30002">
        <ele>438.8</ele>
        <time>2025-08-06T08:45:56Z</time>
      </trkpt>
      <trkpt lat="48.25938" lon="7.29974">
        <ele>437.2</ele>
        <time>2025-08-06T08:45:58Z</time>
      </trkpt>
      <trkpt lat="48.25952" lon="7.2995">
        <ele>436</ele>
        <time>2025-08-06T08:46:00Z</time>
      </trkpt>
      <trkpt lat="48.2597" lon="7.29933">
        <ele>434.8</ele>
        <time>2025-08-06T08:46:02Z</time>
      </trkpt>
      <trkpt lat="48.2598" lon="7.29927">
        <ele>433.4</ele>
        <time>2025-08-06T08:46:03Z</time>
      </trkpt>
      <trkpt lat="48.2599" lon="7.29922">
        <ele>432.6</ele>
        <time>2025-08-06T08:46:04Z</time>
      </trkpt>
      <trkpt lat="48.26001" lon="7.29919">
        <ele>431.4</ele>
        <time>2025-08-06T08:46:05Z</time>
      </trkpt>
      <trkpt lat="48.26023" lon="7.29914">
        <ele>429.6</ele>
        <time>2025-08-06T08:46:07Z</time>
      </trkpt>
      <trkpt lat="48.26045" lon="7.29908">
        <ele>428.6</ele>
        <time>2025-08-06T08:46:09Z</time>
      </trkpt>
      <trkpt lat="48.26056" lon="7.29906">
        <ele>427.6</ele>
        <time>2025-08-06T08:46:10Z</time>
      </trkpt>
      <trkpt lat="48.26078" lon="7.299">
        <ele>426</ele>
        <time>2025-08-06T08:46:12Z</time>
      </trkpt>
      <trkpt lat="48.261" lon="7.29894">
        <ele>424.8</ele>
        <time>2025-08-06T08:46:14Z</time>
      </trkpt>
      <trkpt lat="48.26122" lon="7.29888">
        <ele>423.4</ele>
        <time>2025-08-06T08:46:16Z</time>
      </trkpt>
      <trkpt lat="48.26144" lon="7.29883">
        <ele>422</ele>
        <time>2025-08-06T08:46:18Z</time>
      </trkpt>
      <trkpt lat="48.26166" lon="7.29882">
        <ele>420.8</ele>
        <time>2025-08-06T08:46:20Z</time>
      </trkpt>
      <trkpt lat="48.26177" lon="7.29883">
        <ele>420.4</ele>
        <time>2025-08-06T08:46:21Z</time>
      </trkpt>
      <trkpt lat="48.26188" lon="7.29884">
        <ele>419.6</ele>
        <time>2025-08-06T08:46:22Z</time>
      </trkpt>
      <trkpt lat="48.2621" lon="7.29888">
        <ele>418.2</ele>
        <time>2025-08-06T08:46:24Z</time>
      </trkpt>
      <trkpt lat="48.26231" lon="7.29893">
        <ele>417</ele>
        <time>2025-08-06T08:46:26Z</time>
      </trkpt>
      <trkpt lat="48.26262" lon="7.29902">
        <ele>415.4</ele>
        <time>2025-08-06T08:46:29Z</time>
      </trkpt>
      <trkpt lat="48.26283" lon="7.2991">
        <ele>413.8</ele>
        <time>2025-08-06T08:46:31Z</time>
      </trkpt>
      <trkpt lat="48.26302" lon="7.29917">
        <ele>412.8</ele>
        <time>2025-08-06T08:46:33Z</time>
      </trkpt>
      <trkpt lat="48.26311" lon="7.2992">
        <ele>411.4</ele>
        <time>2025-08-06T08:46:34Z</time>
      </trkpt>
      <trkpt lat="48.26319" lon="7.2992">
        <ele>411</ele>
        <time>2025-08-06T08:46:35Z</time>
      </trkpt>
      <trkpt lat="48.26327" lon="7.29915">
        <ele>410.4</ele>
        <time>2025-08-06T08:46:36Z</time>
      </trkpt>
      <trkpt lat="48.26333" lon="7.29907">
        <ele>409.6</ele>
        <time>2025-08-06T08:46:37Z</time>
      </trkpt>
      <trkpt lat="48.26338" lon="7.29898">
        <ele>409.4</ele>
        <time>2025-08-06T08:46:38Z</time>
      </trkpt>
      <trkpt lat="48.26342" lon="7.29886">
        <ele>408.6</ele>
        <time>2025-08-06T08:46:39Z</time>
      </trkpt>
      <trkpt lat="48.26343" lon="7.29874">
        <ele>408.2</ele>
        <time>2025-08-06T08:46:40Z</time>
      </trkpt>
      <trkpt lat="48.26339" lon="7.2985">
        <ele>407.6</ele>
        <time>2025-08-06T08:46:42Z</time>
      </trkpt>
      <trkpt lat="48.26335" lon="7.29839">
        <ele>407</ele>
        <time>2025-08-06T08:46:43Z</time>
      </trkpt>
      <trkpt lat="48.26328" lon="7.29831">
        <ele>406.8</ele>
        <time>2025-08-06T08:46:44Z</time>
      </trkpt>
      <trkpt lat="48.2632" lon="7.29826">
        <ele>406.6</ele>
        <time>2025-08-06T08:46:45Z</time>
      </trkpt>
      <trkpt lat="48.26312" lon="7.29824">
        <ele>406.4</ele>
        <time>2025-08-06T08:46:46Z</time>
      </trkpt>
      <trkpt lat="48.26294" lon="7.29827">
        <ele>406</ele>
        <time>2025-08-06T08:46:48Z</time>
      </trkpt>
      <trkpt lat="48.26258" lon="7.29843">
        <ele>405.4</ele>
        <time>2025-08-06T08:46:52Z</time>
      </trkpt>
      <trkpt lat="48.26249" lon="7.29845">
        <ele>405</ele>
        <time>2025-08-06T08:46:53Z</time>
      </trkpt>
      <trkpt lat="48.26231" lon="7.29848">
        <ele>404.6</ele>
        <time>2025-08-06T08:46:55Z</time>
      </trkpt>
      <trkpt lat="48.26221" lon="7.29848">
        <ele>404.4</ele>
        <time>2025-08-06T08:46:56Z</time>
      </trkpt>
      <trkpt lat="48.26211" lon="7.29847">
        <ele>404.2</ele>
        <time>2025-08-06T08:46:57Z</time>
      </trkpt>
      <trkpt lat="48.26182" lon="7.29839">
        <ele>403.2</ele>
        <time>2025-08-06T08:47:00Z</time>
      </trkpt>
      <trkpt lat="48.26153" lon="7.29832">
        <ele>402.2</ele>
        <time>2025-08-06T08:47:03Z</time>
      </trkpt>
      <trkpt lat="48.26143" lon="7.29831">
        <ele>402</ele>
        <time>2025-08-06T08:47:04Z</time>
      </trkpt>
      <trkpt lat="48.26114" lon="7.29831">
        <ele>400.8</ele>
        <time>2025-08-06T08:47:07Z</time>
      </trkpt>
      <trkpt lat="48.26094" lon="7.29831">
        <ele>400.2</ele>
        <time>2025-08-06T08:47:09Z</time>
      </trkpt>
      <trkpt lat="48.26084" lon="7.2983">
        <ele>399.6</ele>
        <time>2025-08-06T08:47:10Z</time>
      </trkpt>
      <trkpt lat="48.26054" lon="7.29832">
        <ele>398.2</ele>
        <time>2025-08-06T08:47:13Z</time>
      </trkpt>
      <trkpt lat="48.26035" lon="7.29832">
        <ele>397</ele>
        <time>2025-08-06T08:47:15Z</time>
      </trkpt>
      <trkpt lat="48.26025" lon="7.29832">
        <ele>396.8</ele>
        <time>2025-08-06T08:47:16Z</time>
      </trkpt>
      <trkpt lat="48.26006" lon="7.29832">
        <ele>396</ele>
        <time>2025-08-06T08:47:18Z</time>
      </trkpt>
      <trkpt lat="48.25976" lon="7.29834">
        <ele>394.6</ele>
        <time>2025-08-06T08:47:21Z</time>
      </trkpt>
      <trkpt lat="48.25957" lon="7.29839">
        <ele>393.8</ele>
        <time>2025-08-06T08:47:23Z</time>
      </trkpt>
      <trkpt lat="48.25947" lon="7.29843">
        <ele>393</ele>
        <time>2025-08-06T08:47:24Z</time>
      </trkpt>
      <trkpt lat="48.25919" lon="7.2986">
        <ele>391.6</ele>
        <time>2025-08-06T08:47:27Z</time>
      </trkpt>
      <trkpt lat="48.2591" lon="7.29867">
        <ele>391.6</ele>
        <time>2025-08-06T08:47:28Z</time>
      </trkpt>
      <trkpt lat="48.25892" lon="7.29881">
        <ele>390.6</ele>
        <time>2025-08-06T08:47:30Z</time>
      </trkpt>
      <trkpt lat="48.25874" lon="7.29895">
        <ele>389.4</ele>
        <time>2025-08-06T08:47:32Z</time>
      </trkpt>
      <trkpt lat="48.25865" lon="7.299">
        <ele>389</ele>
        <time>2025-08-06T08:47:33Z</time>
      </trkpt>
      <trkpt lat="48.25855" lon="7.29905">
        <ele>388.2</ele>
        <time>2025-08-06T08:47:34Z</time>
      </trkpt>
      <trkpt lat="48.25815" lon="7.29918">
        <ele>386.8</ele>
        <time>2025-08-06T08:47:38Z</time>
      </trkpt>
      <trkpt lat="48.25786" lon="7.29924">
        <ele>384.8</ele>
        <time>2025-08-06T08:47:41Z</time>
      </trkpt>
      <trkpt lat="48.25776" lon="7.29925">
        <ele>384.8</ele>
        <time>2025-08-06T08:47:42Z</time>
      </trkpt>
      <trkpt lat="48.25767" lon="7.29923">
        <ele>383.8</ele>
        <time>2025-08-06T08:47:43Z</time>
      </trkpt>
      <trkpt lat="48.25758" lon="7.29919">
        <ele>383.2</ele>
        <time>2025-08-06T08:47:44Z</time>
      </trkpt>
      <trkpt lat="48.25751" lon="7.29911">
        <ele>383</ele>
        <time>2025-08-06T08:47:45Z</time>
      </trkpt>
      <trkpt lat="48.25745" lon="7.29902">
        <ele>381.8</ele>
        <time>2025-08-06T08:47:46Z</time>
      </trkpt>
      <trkpt lat="48.25742" lon="7.2989">
        <ele>381.6</ele>
        <time>2025-08-06T08:47:47Z</time>
      </trkpt>
      <trkpt lat="48.25743" lon="7.29878">
        <ele>380.8</ele>
        <time>2025-08-06T08:47:48Z</time>
      </trkpt>
      <trkpt lat="48.25746" lon="7.29866">
        <ele>380</ele>
        <time>2025-08-06T08:47:49Z</time>
      </trkpt>
      <trkpt lat="48.25752" lon="7.29854">
        <ele>379</ele>
        <time>2025-08-06T08:47:50Z</time>
      </trkpt>
      <trkpt lat="48.25761" lon="7.29845">
        <ele>378.4</ele>
        <time>2025-08-06T08:47:51Z</time>
      </trkpt>
      <trkpt lat="48.25769" lon="7.29839">
        <ele>378</ele>
        <time>2025-08-06T08:47:52Z</time>
      </trkpt>
      <trkpt lat="48.25779" lon="7.29833">
        <ele>377.2</ele>
        <time>2025-08-06T08:47:53Z</time>
      </trkpt>
      <trkpt lat="48.25787" lon="7.29826">
        <ele>377</ele>
        <time>2025-08-06T08:47:54Z</time>
      </trkpt>
      <trkpt lat="48.25796" lon="7.29818">
        <ele>376.2</ele>
        <time>2025-08-06T08:47:55Z</time>
      </trkpt>
      <trkpt lat="48.25804" lon="7.29808">
        <ele>375.6</ele>
        <time>2025-08-06T08:47:56Z</time>
      </trkpt>
      <trkpt lat="48.25811" lon="7.29798">
        <ele>375</ele>
        <time>2025-08-06T08:47:57Z</time>
      </trkpt>
      <trkpt lat="48.25834" lon="7.29764">
        <ele>373.4</ele>
        <time>2025-08-06T08:48:00Z</time>
      </trkpt>
      <trkpt lat="48.25851" lon="7.29743">
        <ele>372</ele>
        <time>2025-08-06T08:48:02Z</time>
      </trkpt>
      <trkpt lat="48.25861" lon="7.29734">
        <ele>371</ele>
        <time>2025-08-06T08:48:03Z</time>
      </trkpt>
      <trkpt lat="48.25872" lon="7.29727">
        <ele>370.6</ele>
        <time>2025-08-06T08:48:04Z</time>
      </trkpt>
      <trkpt lat="48.25894" lon="7.29713">
        <ele>369.4</ele>
        <time>2025-08-06T08:48:06Z</time>
      </trkpt>
      <trkpt lat="48.25916" lon="7.29699">
        <ele>368.4</ele>
        <time>2025-08-06T08:48:08Z</time>
      </trkpt>
      <trkpt lat="48.25928" lon="7.29692">
        <ele>367.2</ele>
        <time>2025-08-06T08:48:09Z</time>
      </trkpt>
      <trkpt lat="48.25939" lon="7.29687">
        <ele>365.8</ele>
        <time>2025-08-06T08:48:10Z</time>
      </trkpt>
      <trkpt lat="48.25962" lon="7.2968">
        <ele>364.4</ele>
        <time>2025-08-06T08:48:12Z</time>
      </trkpt>
      <trkpt lat="48.25985" lon="7.29676">
        <ele>362.8</ele>
        <time>2025-08-06T08:48:14Z</time>
      </trkpt>
      <trkpt lat="48.25997" lon="7.29674">
        <ele>361.6</ele>
        <time>2025-08-06T08:48:15Z</time>
      </trkpt>
      <trkpt lat="48.2602" lon="7.2967">
        <ele>359.8</ele>
        <time>2025-08-06T08:48:17Z</time>
      </trkpt>
      <trkpt lat="48.26044" lon="7.29664">
        <ele>357.8</ele>
        <time>2025-08-06T08:48:19Z</time>
      </trkpt>
      <trkpt lat="48.26067" lon="7.29659">
        <ele>356</ele>
        <time>2025-08-06T08:48:21Z</time>
      </trkpt>
      <trkpt lat="48.26079" lon="7.29659">
        <ele>354.8</ele>
        <time>2025-08-06T08:48:22Z</time>
      </trkpt>
      <trkpt lat="48.2609" lon="7.29661">
        <ele>354.4</ele>
        <time>2025-08-06T08:48:23Z</time>
      </trkpt>
      <trkpt lat="48.26102" lon="7.29664">
        <ele>353</ele>
        <time>2025-08-06T08:48:24Z</time>
      </trkpt>
      <trkpt lat="48.26126" lon="7.29672">
        <ele>350.6</ele>
        <time>2025-08-06T08:48:26Z</time>
      </trkpt>
      <trkpt lat="48.26137" lon="7.29676">
        <ele>349.2</ele>
        <time>2025-08-06T08:48:27Z</time>
      </trkpt>
      <trkpt lat="48.2616" lon="7.29681">
        <ele>347.6</ele>
        <time>2025-08-06T08:48:29Z</time>
      </trkpt>
      <trkpt lat="48.26172" lon="7.2968">
        <ele>347.2</ele>
        <time>2025-08-06T08:48:30Z</time>
      </trkpt>
      <trkpt lat="48.26184" lon="7.29677">
        <ele>345.6</ele>
        <time>2025-08-06T08:48:31Z</time>
      </trkpt>
      <trkpt lat="48.26208" lon="7.29666">
        <ele>343.8</ele>
        <time>2025-08-06T08:48:33Z</time>
      </trkpt>
      <trkpt lat="48.26219" lon="7.29659">
        <ele>342.4</ele>
        <time>2025-08-06T08:48:34Z</time>
      </trkpt>
      <trkpt lat="48.26243" lon="7.29648">
        <ele>339.8</ele>
        <time>2025-08-06T08:48:36Z</time>
      </trkpt>
      <trkpt lat="48.26267" lon="7.29636">
        <ele>337.4</ele>
        <time>2025-08-06T08:48:38Z</time>
      </trkpt>
      <trkpt lat="48.26279" lon="7.2963">
        <ele>336.4</ele>
        <time>2025-08-06T08:48:39Z</time>
      </trkpt>
      <trkpt lat="48.26303" lon="7.29618">
        <ele>334</ele>
        <time>2025-08-06T08:48:41Z</time>
      </trkpt>
      <trkpt lat="48.26326" lon="7.29606">
        <ele>332.6</ele>
        <time>2025-08-06T08:48:43Z</time>
      </trkpt>
      <trkpt lat="48.2635" lon="7.29595">
        <ele>331</ele>
        <time>2025-08-06T08:48:45Z</time>
      </trkpt>
      <trkpt lat="48.26361" lon="7.29589">
        <ele>329.8</ele>
        <time>2025-08-06T08:48:46Z</time>
      </trkpt>
      <trkpt lat="48.26385" lon="7.29578">
        <ele>328.2</ele>
        <time>2025-08-06T08:48:48Z</time>
      </trkpt>
      <trkpt lat="48.26408" lon="7.29567">
        <ele>326.6</ele>
        <time>2025-08-06T08:48:50Z</time>
      </trkpt>
      <trkpt lat="48.2642" lon="7.29562">
        <ele>325</ele>
        <time>2025-08-06T08:48:51Z</time>
      </trkpt>
      <trkpt lat="48.2643" lon="7.29554">
        <ele>324.4</ele>
        <time>2025-08-06T08:48:52Z</time>
      </trkpt>
      <trkpt lat="48.26441" lon="7.29545">
        <ele>323.2</ele>
        <time>2025-08-06T08:48:53Z</time>
      </trkpt>
      <trkpt lat="48.2646" lon="7.29522">
        <ele>321.6</ele>
        <time>2025-08-06T08:48:55Z</time>
      </trkpt>
      <trkpt lat="48.26478" lon="7.29502">
        <ele>320</ele>
        <time>2025-08-06T08:48:57Z</time>
      </trkpt>
      <trkpt lat="48.26485" lon="7.29489">
        <ele>319.2</ele>
        <time>2025-08-06T08:48:58Z</time>
      </trkpt>
      <trkpt lat="48.26491" lon="7.29475">
        <ele>319</ele>
        <time>2025-08-06T08:48:59Z</time>
      </trkpt>
      <trkpt lat="48.26502" lon="7.29445">
        <ele>317.4</ele>
        <time>2025-08-06T08:49:01Z</time>
      </trkpt>
      <trkpt lat="48.26511" lon="7.2941">
        <ele>316.4</ele>
        <time>2025-08-06T08:49:03Z</time>
      </trkpt>
      <trkpt lat="48.26514" lon="7.29396">
        <ele>315.6</ele>
        <time>2025-08-06T08:49:04Z</time>
      </trkpt>
      <trkpt lat="48.26519" lon="7.29377">
        <ele>314.6</ele>
        <time>2025-08-06T08:49:05Z</time>
      </trkpt>
      <trkpt lat="48.26527" lon="7.29345">
        <ele>313</ele>
        <time>2025-08-06T08:49:07Z</time>
      </trkpt>
      <trkpt lat="48.26535" lon="7.29317">
        <ele>312</ele>
        <time>2025-08-06T08:49:09Z</time>
      </trkpt>
      <trkpt lat="48.26541" lon="7.29303">
        <ele>311.4</ele>
        <time>2025-08-06T08:49:10Z</time>
      </trkpt>
      <trkpt lat="48.26558" lon="7.29277">
        <ele>310</ele>
        <time>2025-08-06T08:49:12Z</time>
      </trkpt>
      <trkpt lat="48.26575" lon="7.2926">
        <ele>308.6</ele>
        <time>2025-08-06T08:49:14Z</time>
      </trkpt>
      <trkpt lat="48.26586" lon="7.29248">
        <ele>307.4</ele>
        <time>2025-08-06T08:49:15Z</time>
      </trkpt>
      <trkpt lat="48.26595" lon="7.29239">
        <ele>306.2</ele>
        <time>2025-08-06T08:49:16Z</time>
      </trkpt>
      <trkpt lat="48.26605" lon="7.2923">
        <ele>305.2</ele>
        <time>2025-08-06T08:49:17Z</time>
      </trkpt>
      <trkpt lat="48.26622" lon="7.29213">
        <ele>304.2</ele>
        <time>2025-08-06T08:49:19Z</time>
      </trkpt>
      <trkpt lat="48.2664" lon="7.29195">
        <ele>302.6</ele>
        <time>2025-08-06T08:49:21Z</time>
      </trkpt>
      <trkpt lat="48.26649" lon="7.29187">
        <ele>301.4</ele>
        <time>2025-08-06T08:49:22Z</time>
      </trkpt>
      <trkpt lat="48.26667" lon="7.29171">
        <ele>300.4</ele>
        <time>2025-08-06T08:49:24Z</time>
      </trkpt>
      <trkpt lat="48.26696" lon="7.29144">
        <ele>299.2</ele>
        <time>2025-08-06T08:49:27Z</time>
      </trkpt>
      <trkpt lat="48.2671" lon="7.29127">
        <ele>297.8</ele>
        <time>2025-08-06T08:49:29Z</time>
      </trkpt>
      <trkpt lat="48.26728" lon="7.29112">
        <ele>296.2</ele>
        <time>2025-08-06T08:49:31Z</time>
      </trkpt>
      <trkpt lat="48.26749" lon="7.29105">
        <ele>295.2</ele>
        <time>2025-08-06T08:49:33Z</time>
      </trkpt>
      <trkpt lat="48.2676" lon="7.29103">
        <ele>294.8</ele>
        <time>2025-08-06T08:49:34Z</time>
      </trkpt>
      <trkpt lat="48.26793" lon="7.29105">
        <ele>293.6</ele>
        <time>2025-08-06T08:49:37Z</time>
      </trkpt>
      <trkpt lat="48.26821" lon="7.29106">
        <ele>291.6</ele>
        <time>2025-08-06T08:49:40Z</time>
      </trkpt>
      <trkpt lat="48.26839" lon="7.29107">
        <ele>290.2</ele>
        <time>2025-08-06T08:49:42Z</time>
      </trkpt>
      <trkpt lat="48.26856" lon="7.29109">
        <ele>289.2</ele>
        <time>2025-08-06T08:49:44Z</time>
      </trkpt>
      <trkpt lat="48.26872" lon="7.29111">
        <ele>287.6</ele>
        <time>2025-08-06T08:49:46Z</time>
      </trkpt>
      <trkpt lat="48.26887" lon="7.29112">
        <ele>286.2</ele>
        <time>2025-08-06T08:49:48Z</time>
      </trkpt>
      <trkpt lat="48.26894" lon="7.29113">
        <ele>286</ele>
        <time>2025-08-06T08:49:49Z</time>
      </trkpt>
      <trkpt lat="48.26899" lon="7.29115">
        <ele>285.4</ele>
        <time>2025-08-06T08:49:50Z</time>
      </trkpt>
      <trkpt lat="48.26903" lon="7.29117">
        <ele>285.2</ele>
        <time>2025-08-06T08:49:51Z</time>
      </trkpt>
      <trkpt lat="48.26909" lon="7.29119">
        <ele>284</ele>
        <time>2025-08-06T08:49:53Z</time>
      </trkpt>
      <trkpt lat="48.26911" lon="7.29119">
        <ele>282.6</ele>
        <time>2025-08-06T08:49:55Z</time>
      </trkpt>
      <trkpt lat="48.26912" lon="7.29119">
        <ele>281.8</ele>
        <time>2025-08-06T08:49:57Z</time>
      </trkpt>
      <trkpt lat="48.26912" lon="7.29119">
        <ele>281.6</ele>
        <time>2025-08-06T08:49:58Z</time>
      </trkpt>
      <trkpt lat="48.26914" lon="7.29119">
        <ele>281.2</ele>
        <time>2025-08-06T08:50:17Z</time>
      </trkpt>
      <trkpt lat="48.26918" lon="7.29117">
        <ele>281.2</ele>
        <time>2025-08-06T08:50:19Z</time>
      </trkpt>
      <trkpt lat="48.26919" lon="7.29116">
        <ele>281.2</ele>
        <time>2025-08-06T08:50:20Z</time>
      </trkpt>
      <trkpt lat="48.2692" lon="7.29113">
        <ele>281.2</ele>
        <time>2025-08-06T08:50:23Z</time>
      </trkpt>
      <trkpt lat="48.26921" lon="7.29113">
        <ele>281.2</ele>
        <time>2025-08-06T08:50:26Z</time>
      </trkpt>
      <trkpt lat="48.26919" lon="7.29111">
        <ele>281</ele>
        <time>2025-08-06T08:54:59Z</time>
      </trkpt>
      <trkpt lat="48.26918" lon="7.29108">
        <ele>281</ele>
        <time>2025-08-06T08:55:00Z</time>
      </trkpt>
      <trkpt lat="48.26915" lon="7.29082">
        <ele>280.8</ele>
        <time>2025-08-06T08:55:06Z</time>
      </trkpt>
      <trkpt lat="48.26914" lon="7.2907">
        <ele>280.6</ele>
        <time>2025-08-06T08:55:08Z</time>
      </trkpt>
      <trkpt lat="48.26913" lon="7.29049">
        <ele>280.4</ele>
        <time>2025-08-06T08:55:11Z</time>
      </trkpt>
      <trkpt lat="48.26912" lon="7.28993">
        <ele>280.2</ele>
        <time>2025-08-06T08:55:18Z</time>
      </trkpt>
      <trkpt lat="48.2691" lon="7.28915">
        <ele>280.2</ele>
        <time>2025-08-06T08:55:27Z</time>
      </trkpt>
      <trkpt lat="48.2691" lon="7.28845">
        <ele>280.8</ele>
        <time>2025-08-06T08:55:35Z</time>
      </trkpt>
      <trkpt lat="48.26911" lon="7.28786">
        <ele>281.2</ele>
        <time>2025-08-06T08:55:42Z</time>
      </trkpt>
      <trkpt lat="48.26913" lon="7.28778">
        <ele>281.2</ele>
        <time>2025-08-06T08:55:43Z</time>
      </trkpt>
      <trkpt lat="48.26916" lon="7.28771">
        <ele>281.2</ele>
        <time>2025-08-06T08:55:44Z</time>
      </trkpt>
      <trkpt lat="48.26922" lon="7.28757">
        <ele>281.4</ele>
        <time>2025-08-06T08:55:46Z</time>
      </trkpt>
      <trkpt lat="48.26925" lon="7.28749">
        <ele>281.4</ele>
        <time>2025-08-06T08:55:47Z</time>
      </trkpt>
      <trkpt lat="48.26929" lon="7.28735">
        <ele>281.6</ele>
        <time>2025-08-06T08:55:49Z</time>
      </trkpt>
      <trkpt lat="48.26932" lon="7.28728">
        <ele>281.6</ele>
        <time>2025-08-06T08:55:50Z</time>
      </trkpt>
      <trkpt lat="48.2694" lon="7.28706">
        <ele>281.8</ele>
        <time>2025-08-06T08:55:53Z</time>
      </trkpt>
      <trkpt lat="48.26968" lon="7.28635">
        <ele>281.6</ele>
        <time>2025-08-06T08:56:02Z</time>
      </trkpt>
      <trkpt lat="48.26971" lon="7.28627">
        <ele>281.6</ele>
        <time>2025-08-06T08:56:03Z</time>
      </trkpt>
      <trkpt lat="48.26994" lon="7.28578">
        <ele>281.6</ele>
        <time>2025-08-06T08:56:10Z</time>
      </trkpt>
      <trkpt lat="48.27012" lon="7.28543">
        <ele>282</ele>
        <time>2025-08-06T08:56:15Z</time>
      </trkpt>
      <trkpt lat="48.2702" lon="7.2853">
        <ele>282</ele>
        <time>2025-08-06T08:56:17Z</time>
      </trkpt>
      <trkpt lat="48.27032" lon="7.28499">
        <ele>282.2</ele>
        <time>2025-08-06T08:56:21Z</time>
      </trkpt>
      <trkpt lat="48.27036" lon="7.28482">
        <ele>282.4</ele>
        <time>2025-08-06T08:56:23Z</time>
      </trkpt>
      <trkpt lat="48.27041" lon="7.28446">
        <ele>282.4</ele>
        <time>2025-08-06T08:56:27Z</time>
      </trkpt>
      <trkpt lat="48.27047" lon="7.28374">
        <ele>282.8</ele>
        <time>2025-08-06T08:56:35Z</time>
      </trkpt>
      <trkpt lat="48.27049" lon="7.28332">
        <ele>282.8</ele>
        <time>2025-08-06T08:56:40Z</time>
      </trkpt>
      <trkpt lat="48.27052" lon="7.28324">
        <ele>282.8</ele>
        <time>2025-08-06T08:56:41Z</time>
      </trkpt>
      <trkpt lat="48.27054" lon="7.28319">
        <ele>283</ele>
        <time>2025-08-06T08:56:42Z</time>
      </trkpt>
      <trkpt lat="48.27063" lon="7.28308">
        <ele>283.2</ele>
        <time>2025-08-06T08:56:44Z</time>
      </trkpt>
      <trkpt lat="48.27068" lon="7.28303">
        <ele>283.4</ele>
        <time>2025-08-06T08:56:45Z</time>
      </trkpt>
      <trkpt lat="48.27084" lon="7.28284">
        <ele>283.8</ele>
        <time>2025-08-06T08:56:49Z</time>
      </trkpt>
      <trkpt lat="48.27092" lon="7.28268">
        <ele>283.8</ele>
        <time>2025-08-06T08:56:51Z</time>
      </trkpt>
      <trkpt lat="48.27095" lon="7.28251">
        <ele>284</ele>
        <time>2025-08-06T08:56:53Z</time>
      </trkpt>
      <trkpt lat="48.27097" lon="7.28223">
        <ele>284</ele>
        <time>2025-08-06T08:56:56Z</time>
      </trkpt>
      <trkpt lat="48.27098" lon="7.28204">
        <ele>284</ele>
        <time>2025-08-06T08:56:58Z</time>
      </trkpt>
      <trkpt lat="48.27097" lon="7.28185">
        <ele>284</ele>
        <time>2025-08-06T08:57:00Z</time>
      </trkpt>
      <trkpt lat="48.27095" lon="7.28176">
        <ele>283.8</ele>
        <time>2025-08-06T08:57:01Z</time>
      </trkpt>
      <trkpt lat="48.2709" lon="7.28148">
        <ele>283.8</ele>
        <time>2025-08-06T08:57:04Z</time>
      </trkpt>
      <trkpt lat="48.27088" lon="7.2812">
        <ele>283.8</ele>
        <time>2025-08-06T08:57:07Z</time>
      </trkpt>
      <trkpt lat="48.27083" lon="7.28037">
        <ele>283.8</ele>
        <time>2025-08-06T08:57:16Z</time>
      </trkpt>
      <trkpt lat="48.27082" lon="7.28029">
        <ele>283.8</ele>
        <time>2025-08-06T08:57:17Z</time>
      </trkpt>
      <trkpt lat="48.27076" lon="7.27976">
        <ele>284</ele>
        <time>2025-08-06T08:57:23Z</time>
      </trkpt>
      <trkpt lat="48.27072" lon="7.27933">
        <ele>284.4</ele>
        <time>2025-08-06T08:57:28Z</time>
      </trkpt>
      <trkpt lat="48.27071" lon="7.27917">
        <ele>284.6</ele>
        <time>2025-08-06T08:57:30Z</time>
      </trkpt>
      <trkpt lat="48.27064" lon="7.27833">
        <ele>285.2</ele>
        <time>2025-08-06T08:57:39Z</time>
      </trkpt>
      <trkpt lat="48.27063" lon="7.27824">
        <ele>285.2</ele>
        <time>2025-08-06T08:57:40Z</time>
      </trkpt>
      <trkpt lat="48.27063" lon="7.27817">
        <ele>285.2</ele>
        <time>2025-08-06T08:57:41Z</time>
      </trkpt>
      <trkpt lat="48.2706" lon="7.27752">
        <ele>285.6</ele>
        <time>2025-08-06T08:57:48Z</time>
      </trkpt>
      <trkpt lat="48.27053" lon="7.27671">
        <ele>286</ele>
        <time>2025-08-06T08:57:57Z</time>
      </trkpt>
      <trkpt lat="48.2705" lon="7.27619">
        <ele>286.2</ele>
        <time>2025-08-06T08:58:03Z</time>
      </trkpt>
      <trkpt lat="48.2705" lon="7.2761">
        <ele>286.2</ele>
        <time>2025-08-06T08:58:04Z</time>
      </trkpt>
      <trkpt lat="48.27051" lon="7.27601">
        <ele>286.4</ele>
        <time>2025-08-06T08:58:05Z</time>
      </trkpt>
      <trkpt lat="48.27055" lon="7.27566">
        <ele>286.6</ele>
        <time>2025-08-06T08:58:09Z</time>
      </trkpt>
      <trkpt lat="48.27055" lon="7.27558">
        <ele>286.6</ele>
        <time>2025-08-06T08:58:10Z</time>
      </trkpt>
      <trkpt lat="48.27054" lon="7.2755">
        <ele>286.6</ele>
        <time>2025-08-06T08:58:11Z</time>
      </trkpt>
      <trkpt lat="48.2705" lon="7.27527">
        <ele>287</ele>
        <time>2025-08-06T08:58:14Z</time>
      </trkpt>
      <trkpt lat="48.27045" lon="7.27496">
        <ele>287.4</ele>
        <time>2025-08-06T08:58:18Z</time>
      </trkpt>
      <trkpt lat="48.27045" lon="7.27488">
        <ele>287.6</ele>
        <time>2025-08-06T08:58:19Z</time>
      </trkpt>
      <trkpt lat="48.27045" lon="7.2748">
        <ele>287.8</ele>
        <time>2025-08-06T08:58:20Z</time>
      </trkpt>
      <trkpt lat="48.27049" lon="7.27404">
        <ele>288.4</ele>
        <time>2025-08-06T08:58:29Z</time>
      </trkpt>
      <trkpt lat="48.27049" lon="7.27395">
        <ele>288.4</ele>
        <time>2025-08-06T08:58:30Z</time>
      </trkpt>
      <trkpt lat="48.27043" lon="7.27342">
        <ele>288.6</ele>
        <time>2025-08-06T08:58:36Z</time>
      </trkpt>
      <trkpt lat="48.2703" lon="7.27263">
        <ele>288.8</ele>
        <time>2025-08-06T08:58:45Z</time>
      </trkpt>
      <trkpt lat="48.27021" lon="7.27212">
        <ele>289.6</ele>
        <time>2025-08-06T08:58:51Z</time>
      </trkpt>
      <trkpt lat="48.27014" lon="7.2717">
        <ele>290</ele>
        <time>2025-08-06T08:58:56Z</time>
      </trkpt>
      <trkpt lat="48.27007" lon="7.27101">
        <ele>290.4</ele>
        <time>2025-08-06T08:59:04Z</time>
      </trkpt>
      <trkpt lat="48.27007" lon="7.27094">
        <ele>290.6</ele>
        <time>2025-08-06T08:59:05Z</time>
      </trkpt>
      <trkpt lat="48.27009" lon="7.27023">
        <ele>291.2</ele>
        <time>2025-08-06T08:59:13Z</time>
      </trkpt>
      <trkpt lat="48.2701" lon="7.26999">
        <ele>291.6</ele>
        <time>2025-08-06T08:59:16Z</time>
      </trkpt>
      <trkpt lat="48.27011" lon="7.26968">
        <ele>292.2</ele>
        <time>2025-08-06T08:59:20Z</time>
      </trkpt>
      <trkpt lat="48.27014" lon="7.26921">
        <ele>292.6</ele>
        <time>2025-08-06T08:59:27Z</time>
      </trkpt>
      <trkpt lat="48.27014" lon="7.26915">
        <ele>292.6</ele>
        <time>2025-08-06T08:59:28Z</time>
      </trkpt>
      <trkpt lat="48.27016" lon="7.26896">
        <ele>293</ele>
        <time>2025-08-06T08:59:32Z</time>
      </trkpt>
      <trkpt lat="48.27017" lon="7.26892">
        <ele>293.2</ele>
        <time>2025-08-06T08:59:36Z</time>
      </trkpt>
      <trkpt lat="48.27014" lon="7.2689">
        <ele>293.2</ele>
        <time>2025-08-06T08:59:45Z</time>
      </trkpt>
      <trkpt lat="48.27012" lon="7.26895">
        <ele>293.2</ele>
        <time>2025-08-06T08:59:47Z</time>
      </trkpt>
      <trkpt lat="48.27011" lon="7.2692">
        <ele>293.2</ele>
        <time>2025-08-06T08:59:52Z</time>
      </trkpt>
      <trkpt lat="48.27009" lon="7.26971">
        <ele>293.2</ele>
        <time>2025-08-06T08:59:59Z</time>
      </trkpt>
      <trkpt lat="48.27006" lon="7.27021">
        <ele>293</ele>
        <time>2025-08-06T09:00:05Z</time>
      </trkpt>
      <trkpt lat="48.27004" lon="7.27103">
        <ele>292.6</ele>
        <time>2025-08-06T09:00:14Z</time>
      </trkpt>
      <trkpt lat="48.27011" lon="7.27165">
        <ele>292</ele>
        <time>2025-08-06T09:00:21Z</time>
      </trkpt>
      <trkpt lat="48.27015" lon="7.272">
        <ele>291.4</ele>
        <time>2025-08-06T09:00:26Z</time>
      </trkpt>
      <trkpt lat="48.27012" lon="7.27209">
        <ele>291.2</ele>
        <time>2025-08-06T09:00:28Z</time>
      </trkpt>
      <trkpt lat="48.27009" lon="7.27212">
        <ele>290.8</ele>
        <time>2025-08-06T09:00:29Z</time>
      </trkpt>
      <trkpt lat="48.27007" lon="7.27214">
        <ele>290.8</ele>
        <time>2025-08-06T09:00:30Z</time>
      </trkpt>
      <trkpt lat="48.27006" lon="7.27214">
        <ele>290.4</ele>
        <time>2025-08-06T09:00:32Z</time>
      </trkpt>
      <trkpt lat="48.27006" lon="7.27214">
        <ele>290.4</ele>
        <time>2025-08-06T09:00:33Z</time>
      </trkpt>
      <trkpt lat="48.27" lon="7.27204">
        <ele>290.4</ele>
        <time>2025-08-06T09:00:58Z</time>
      </trkpt>
      <trkpt lat="48.26999" lon="7.27194">
        <ele>290.6</ele>
        <time>2025-08-06T09:01:01Z</time>
      </trkpt>
      <trkpt lat="48.26995" lon="7.27171">
        <ele>290.6</ele>
        <time>2025-08-06T09:01:06Z</time>
      </trkpt>
      <trkpt lat="48.26993" lon="7.27159">
        <ele>290.8</ele>
        <time>2025-08-06T09:01:08Z</time>
      </trkpt>
      <trkpt lat="48.26989" lon="7.27131">
        <ele>290.8</ele>
        <time>2025-08-06T09:01:12Z</time>
      </trkpt>
      <trkpt lat="48.26982" lon="7.27077">
        <ele>291.4</ele>
        <time>2025-08-06T09:01:19Z</time>
      </trkpt>
      <trkpt lat="48.26973" lon="7.27013">
        <ele>292</ele>
        <time>2025-08-06T09:01:27Z</time>
      </trkpt>
      <trkpt lat="48.2697" lon="7.26989">
        <ele>292.4</ele>
        <time>2025-08-06T09:01:30Z</time>
      </trkpt>
      <trkpt lat="48.26964" lon="7.2694">
        <ele>293</ele>
        <time>2025-08-06T09:01:36Z</time>
      </trkpt>
      <trkpt lat="48.26957" lon="7.26892">
        <ele>293.4</ele>
        <time>2025-08-06T09:01:42Z</time>
      </trkpt>
      <trkpt lat="48.26954" lon="7.26876">
        <ele>293.4</ele>
        <time>2025-08-06T09:01:44Z</time>
      </trkpt>
      <trkpt lat="48.26952" lon="7.26859">
        <ele>293.4</ele>
        <time>2025-08-06T09:01:46Z</time>
      </trkpt>
      <trkpt lat="48.2694" lon="7.26774">
        <ele>294.4</ele>
        <time>2025-08-06T09:01:56Z</time>
      </trkpt>
      <trkpt lat="48.26939" lon="7.26765">
        <ele>294.4</ele>
        <time>2025-08-06T09:01:57Z</time>
      </trkpt>
      <trkpt lat="48.26934" lon="7.26705">
        <ele>295.2</ele>
        <time>2025-08-06T09:02:04Z</time>
      </trkpt>
      <trkpt lat="48.26932" lon="7.26688">
        <ele>295.4</ele>
        <time>2025-08-06T09:02:06Z</time>
      </trkpt>
      <trkpt lat="48.26931" lon="7.26635">
        <ele>295.8</ele>
        <time>2025-08-06T09:02:12Z</time>
      </trkpt>
      <trkpt lat="48.26928" lon="7.26559">
        <ele>296.4</ele>
        <time>2025-08-06T09:02:21Z</time>
      </trkpt>
      <trkpt lat="48.26928" lon="7.26515">
        <ele>296.8</ele>
        <time>2025-08-06T09:02:27Z</time>
      </trkpt>
      <trkpt lat="48.26928" lon="7.26435">
        <ele>297.6</ele>
        <time>2025-08-06T09:02:37Z</time>
      </trkpt>
      <trkpt lat="48.26928" lon="7.26373">
        <ele>298</ele>
        <time>2025-08-06T09:02:45Z</time>
      </trkpt>
      <trkpt lat="48.26927" lon="7.26335">
        <ele>298.6</ele>
        <time>2025-08-06T09:02:50Z</time>
      </trkpt>
      <trkpt lat="48.26927" lon="7.26311">
        <ele>299.2</ele>
        <time>2025-08-06T09:02:53Z</time>
      </trkpt>
      <trkpt lat="48.26926" lon="7.26287">
        <ele>299.8</ele>
        <time>2025-08-06T09:02:56Z</time>
      </trkpt>
      <trkpt lat="48.26925" lon="7.26255">
        <ele>299.8</ele>
        <time>2025-08-06T09:03:00Z</time>
      </trkpt>
      <trkpt lat="48.26924" lon="7.26197">
        <ele>300.6</ele>
        <time>2025-08-06T09:03:07Z</time>
      </trkpt>
      <trkpt lat="48.26923" lon="7.26173">
        <ele>300.8</ele>
        <time>2025-08-06T09:03:10Z</time>
      </trkpt>
      <trkpt lat="48.26922" lon="7.26158">
        <ele>301</ele>
        <time>2025-08-06T09:03:12Z</time>
      </trkpt>
      <trkpt lat="48.2692" lon="7.26142">
        <ele>301.2</ele>
        <time>2025-08-06T09:03:14Z</time>
      </trkpt>
      <trkpt lat="48.26912" lon="7.26079">
        <ele>301.4</ele>
        <time>2025-08-06T09:03:22Z</time>
      </trkpt>
      <trkpt lat="48.26903" lon="7.26032">
        <ele>302</ele>
        <time>2025-08-06T09:03:28Z</time>
      </trkpt>
      <trkpt lat="48.26899" lon="7.26016">
        <ele>302</ele>
        <time>2025-08-06T09:03:30Z</time>
      </trkpt>
      <trkpt lat="48.26881" lon="7.25951">
        <ele>302.4</ele>
        <time>2025-08-06T09:03:38Z</time>
      </trkpt>
      <trkpt lat="48.26853" lon="7.25873">
        <ele>302.8</ele>
        <time>2025-08-06T09:03:48Z</time>
      </trkpt>
      <trkpt lat="48.26847" lon="7.25857">
        <ele>303</ele>
        <time>2025-08-06T09:03:50Z</time>
      </trkpt>
      <trkpt lat="48.2682" lon="7.25787">
        <ele>304</ele>
        <time>2025-08-06T09:03:59Z</time>
      </trkpt>
      <trkpt lat="48.26817" lon="7.2578">
        <ele>304.2</ele>
        <time>2025-08-06T09:04:00Z</time>
      </trkpt>
      <trkpt lat="48.26789" lon="7.2571">
        <ele>304.4</ele>
        <time>2025-08-06T09:04:09Z</time>
      </trkpt>
      <trkpt lat="48.26762" lon="7.2564">
        <ele>304.8</ele>
        <time>2025-08-06T09:04:18Z</time>
      </trkpt>
      <trkpt lat="48.26759" lon="7.25633">
        <ele>304.8</ele>
        <time>2025-08-06T09:04:19Z</time>
      </trkpt>
      <trkpt lat="48.26745" lon="7.25595">
        <ele>305.4</ele>
        <time>2025-08-06T09:04:24Z</time>
      </trkpt>
      <trkpt lat="48.26733" lon="7.25565">
        <ele>305.6</ele>
        <time>2025-08-06T09:04:28Z</time>
      </trkpt>
      <trkpt lat="48.26703" lon="7.2549">
        <ele>306.4</ele>
        <time>2025-08-06T09:04:38Z</time>
      </trkpt>
      <trkpt lat="48.26701" lon="7.25484">
        <ele>306.4</ele>
        <time>2025-08-06T09:04:39Z</time>
      </trkpt>
      <trkpt lat="48.26681" lon="7.25433">
        <ele>306.8</ele>
        <time>2025-08-06T09:04:46Z</time>
      </trkpt>
      <trkpt lat="48.26663" lon="7.25388">
        <ele>307.4</ele>
        <time>2025-08-06T09:04:52Z</time>
      </trkpt>
      <trkpt lat="48.2666" lon="7.25381">
        <ele>307.4</ele>
        <time>2025-08-06T09:04:53Z</time>
      </trkpt>
      <trkpt lat="48.2664" lon="7.25329">
        <ele>308.2</ele>
        <time>2025-08-06T09:05:00Z</time>
      </trkpt>
      <trkpt lat="48.26631" lon="7.25307">
        <ele>308.6</ele>
        <time>2025-08-06T09:05:03Z</time>
      </trkpt>
      <trkpt lat="48.26612" lon="7.25257">
        <ele>309.4</ele>
        <time>2025-08-06T09:05:10Z</time>
      </trkpt>
      <trkpt lat="48.26604" lon="7.25235">
        <ele>310</ele>
        <time>2025-08-06T09:05:13Z</time>
      </trkpt>
      <trkpt lat="48.26591" lon="7.25199">
        <ele>310.6</ele>
        <time>2025-08-06T09:05:18Z</time>
      </trkpt>
      <trkpt lat="48.26582" lon="7.25178">
        <ele>311</ele>
        <time>2025-08-06T09:05:21Z</time>
      </trkpt>
      <trkpt lat="48.26565" lon="7.25135">
        <ele>311.2</ele>
        <time>2025-08-06T09:05:27Z</time>
      </trkpt>
      <trkpt lat="48.26536" lon="7.25061">
        <ele>311.6</ele>
        <time>2025-08-06T09:05:37Z</time>
      </trkpt>
      <trkpt lat="48.26531" lon="7.25046">
        <ele>311.8</ele>
        <time>2025-08-06T09:05:39Z</time>
      </trkpt>
      <trkpt lat="48.26523" lon="7.25025">
        <ele>312</ele>
        <time>2025-08-06T09:05:42Z</time>
      </trkpt>
      <trkpt lat="48.26508" lon="7.24991">
        <ele>312.6</ele>
        <time>2025-08-06T09:05:47Z</time>
      </trkpt>
      <trkpt lat="48.26497" lon="7.24963">
        <ele>313.2</ele>
        <time>2025-08-06T09:05:51Z</time>
      </trkpt>
      <trkpt lat="48.26487" lon="7.24933">
        <ele>313.8</ele>
        <time>2025-08-06T09:05:55Z</time>
      </trkpt>
      <trkpt lat="48.26471" lon="7.24888">
        <ele>314.2</ele>
        <time>2025-08-06T09:06:01Z</time>
      </trkpt>
      <trkpt lat="48.26458" lon="7.24849">
        <ele>314.6</ele>
        <time>2025-08-06T09:06:06Z</time>
      </trkpt>
      <trkpt lat="48.26443" lon="7.24784">
        <ele>315.4</ele>
        <time>2025-08-06T09:06:14Z</time>
      </trkpt>
      <trkpt lat="48.2643" lon="7.24697">
        <ele>316</ele>
        <time>2025-08-06T09:06:24Z</time>
      </trkpt>
      <trkpt lat="48.26429" lon="7.24689">
        <ele>316.2</ele>
        <time>2025-08-06T09:06:25Z</time>
      </trkpt>
      <trkpt lat="48.26427" lon="7.24671">
        <ele>316.4</ele>
        <time>2025-08-06T09:06:27Z</time>
      </trkpt>
      <trkpt lat="48.26425" lon="7.24601">
        <ele>317</ele>
        <time>2025-08-06T09:06:35Z</time>
      </trkpt>
      <trkpt lat="48.26428" lon="7.24529">
        <ele>317.6</ele>
        <time>2025-08-06T09:06:43Z</time>
      </trkpt>
      <trkpt lat="48.26433" lon="7.24459">
        <ele>318</ele>
        <time>2025-08-06T09:06:51Z</time>
      </trkpt>
      <trkpt lat="48.26439" lon="7.24383">
        <ele>318.8</ele>
        <time>2025-08-06T09:07:00Z</time>
      </trkpt>
      <trkpt lat="48.2644" lon="7.24375">
        <ele>318.8</ele>
        <time>2025-08-06T09:07:01Z</time>
      </trkpt>
      <trkpt lat="48.26445" lon="7.2431">
        <ele>319.6</ele>
        <time>2025-08-06T09:07:09Z</time>
      </trkpt>
      <trkpt lat="48.26447" lon="7.24286">
        <ele>319.8</ele>
        <time>2025-08-06T09:07:12Z</time>
      </trkpt>
      <trkpt lat="48.26449" lon="7.24254">
        <ele>320.4</ele>
        <time>2025-08-06T09:07:16Z</time>
      </trkpt>
      <trkpt lat="48.26451" lon="7.24217">
        <ele>320.8</ele>
        <time>2025-08-06T09:07:21Z</time>
      </trkpt>
      <trkpt lat="48.26453" lon="7.24195">
        <ele>321.4</ele>
        <time>2025-08-06T09:07:24Z</time>
      </trkpt>
      <trkpt lat="48.26456" lon="7.24151">
        <ele>322</ele>
        <time>2025-08-06T09:07:30Z</time>
      </trkpt>
      <trkpt lat="48.26458" lon="7.24122">
        <ele>322.2</ele>
        <time>2025-08-06T09:07:34Z</time>
      </trkpt>
      <trkpt lat="48.26458" lon="7.24115">
        <ele>322.6</ele>
        <time>2025-08-06T09:07:35Z</time>
      </trkpt>
      <trkpt lat="48.26461" lon="7.24094">
        <ele>322.8</ele>
        <time>2025-08-06T09:07:38Z</time>
      </trkpt>
      <trkpt lat="48.26463" lon="7.24078">
        <ele>323</ele>
        <time>2025-08-06T09:07:40Z</time>
      </trkpt>
      <trkpt lat="48.26464" lon="7.24054">
        <ele>323.2</ele>
        <time>2025-08-06T09:07:43Z</time>
      </trkpt>
      <trkpt lat="48.26466" lon="7.24015">
        <ele>323.6</ele>
        <time>2025-08-06T09:07:48Z</time>
      </trkpt>
      <trkpt lat="48.2647" lon="7.2397">
        <ele>324.2</ele>
        <time>2025-08-06T09:07:54Z</time>
      </trkpt>
      <trkpt lat="48.26471" lon="7.23955">
        <ele>324.4</ele>
        <time>2025-08-06T09:07:56Z</time>
      </trkpt>
      <trkpt lat="48.26472" lon="7.23886">
        <ele>325</ele>
        <time>2025-08-06T09:08:05Z</time>
      </trkpt>
      <trkpt lat="48.26469" lon="7.23847">
        <ele>325.4</ele>
        <time>2025-08-06T09:08:10Z</time>
      </trkpt>
      <trkpt lat="48.26468" lon="7.23834">
        <ele>325.6</ele>
        <time>2025-08-06T09:08:12Z</time>
      </trkpt>
      <trkpt lat="48.26468" lon="7.23828">
        <ele>325.6</ele>
        <time>2025-08-06T09:08:13Z</time>
      </trkpt>
      <trkpt lat="48.26464" lon="7.23795">
        <ele>325.8</ele>
        <time>2025-08-06T09:08:18Z</time>
      </trkpt>
      <trkpt lat="48.26462" lon="7.2378">
        <ele>326</ele>
        <time>2025-08-06T09:08:20Z</time>
      </trkpt>
      <trkpt lat="48.26459" lon="7.23755">
        <ele>326.2</ele>
        <time>2025-08-06T09:08:23Z</time>
      </trkpt>
      <trkpt lat="48.26457" lon="7.2374">
        <ele>326.2</ele>
        <time>2025-08-06T09:08:25Z</time>
      </trkpt>
      <trkpt lat="48.26453" lon="7.23716">
        <ele>326.4</ele>
        <time>2025-08-06T09:08:28Z</time>
      </trkpt>
      <trkpt lat="48.26444" lon="7.23678">
        <ele>326.6</ele>
        <time>2025-08-06T09:08:33Z</time>
      </trkpt>
      <trkpt lat="48.26427" lon="7.23617">
        <ele>327.4</ele>
        <time>2025-08-06T09:08:41Z</time>
      </trkpt>
      <trkpt lat="48.26425" lon="7.2361">
        <ele>327.6</ele>
        <time>2025-08-06T09:08:42Z</time>
      </trkpt>
      <trkpt lat="48.26397" lon="7.23538">
        <ele>328</ele>
        <time>2025-08-06T09:08:52Z</time>
      </trkpt>
      <trkpt lat="48.26394" lon="7.23532">
        <ele>328.4</ele>
        <time>2025-08-06T09:08:53Z</time>
      </trkpt>
      <trkpt lat="48.26385" lon="7.23511">
        <ele>328.8</ele>
        <time>2025-08-06T09:08:56Z</time>
      </trkpt>
      <trkpt lat="48.26367" lon="7.23476">
        <ele>329.4</ele>
        <time>2025-08-06T09:09:02Z</time>
      </trkpt>
      <trkpt lat="48.2636" lon="7.23465">
        <ele>329.4</ele>
        <time>2025-08-06T09:09:04Z</time>
      </trkpt>
      <trkpt lat="48.26353" lon="7.23454">
        <ele>329.6</ele>
        <time>2025-08-06T09:09:06Z</time>
      </trkpt>
      <trkpt lat="48.26346" lon="7.23442">
        <ele>329.6</ele>
        <time>2025-08-06T09:09:08Z</time>
      </trkpt>
      <trkpt lat="48.26339" lon="7.23429">
        <ele>329.8</ele>
        <time>2025-08-06T09:09:10Z</time>
      </trkpt>
      <trkpt lat="48.26318" lon="7.23392">
        <ele>330</ele>
        <time>2025-08-06T09:09:16Z</time>
      </trkpt>
      <trkpt lat="48.26308" lon="7.23373">
        <ele>330.2</ele>
        <time>2025-08-06T09:09:19Z</time>
      </trkpt>
      <trkpt lat="48.26298" lon="7.23355">
        <ele>330.6</ele>
        <time>2025-08-06T09:09:22Z</time>
      </trkpt>
      <trkpt lat="48.26295" lon="7.23349">
        <ele>330.6</ele>
        <time>2025-08-06T09:09:23Z</time>
      </trkpt>
      <trkpt lat="48.26284" lon="7.23331">
        <ele>331</ele>
        <time>2025-08-06T09:09:26Z</time>
      </trkpt>
      <trkpt lat="48.26267" lon="7.23299">
        <ele>331.6</ele>
        <time>2025-08-06T09:09:31Z</time>
      </trkpt>
      <trkpt lat="48.26248" lon="7.23259">
        <ele>332</ele>
        <time>2025-08-06T09:09:37Z</time>
      </trkpt>
      <trkpt lat="48.26237" lon="7.23231">
        <ele>332.2</ele>
        <time>2025-08-06T09:09:41Z</time>
      </trkpt>
      <trkpt lat="48.26216" lon="7.23175">
        <ele>333</ele>
        <time>2025-08-06T09:09:49Z</time>
      </trkpt>
      <trkpt lat="48.26214" lon="7.23168">
        <ele>333</ele>
        <time>2025-08-06T09:09:50Z</time>
      </trkpt>
      <trkpt lat="48.26195" lon="7.2311">
        <ele>333.8</ele>
        <time>2025-08-06T09:09:58Z</time>
      </trkpt>
      <trkpt lat="48.26188" lon="7.23088">
        <ele>334</ele>
        <time>2025-08-06T09:10:01Z</time>
      </trkpt>
      <trkpt lat="48.2617" lon="7.23027">
        <ele>335.2</ele>
        <time>2025-08-06T09:10:09Z</time>
      </trkpt>
      <trkpt lat="48.26166" lon="7.23011">
        <ele>335.4</ele>
        <time>2025-08-06T09:10:11Z</time>
      </trkpt>
      <trkpt lat="48.26152" lon="7.22955">
        <ele>335.4</ele>
        <time>2025-08-06T09:10:18Z</time>
      </trkpt>
      <trkpt lat="48.26137" lon="7.22892">
        <ele>335.4</ele>
        <time>2025-08-06T09:10:26Z</time>
      </trkpt>
      <trkpt lat="48.26127" lon="7.22852">
        <ele>335.4</ele>
        <time>2025-08-06T09:10:32Z</time>
      </trkpt>
      <trkpt lat="48.26124" lon="7.2284">
        <ele>335.4</ele>
        <time>2025-08-06T09:10:35Z</time>
      </trkpt>
      <trkpt lat="48.26122" lon="7.22834">
        <ele>335.4</ele>
        <time>2025-08-06T09:10:36Z</time>
      </trkpt>
      <trkpt lat="48.2612" lon="7.22823">
        <ele>335.4</ele>
        <time>2025-08-06T09:10:38Z</time>
      </trkpt>
      <trkpt lat="48.26112" lon="7.22794">
        <ele>335.4</ele>
        <time>2025-08-06T09:10:42Z</time>
      </trkpt>
      <trkpt lat="48.26102" lon="7.22749">
        <ele>335.6</ele>
        <time>2025-08-06T09:10:48Z</time>
      </trkpt>
      <trkpt lat="48.261" lon="7.22741">
        <ele>335.8</ele>
        <time>2025-08-06T09:10:49Z</time>
      </trkpt>
      <trkpt lat="48.26087" lon="7.22685">
        <ele>336.2</ele>
        <time>2025-08-06T09:10:56Z</time>
      </trkpt>
      <trkpt lat="48.26082" lon="7.22663">
        <ele>336.4</ele>
        <time>2025-08-06T09:10:59Z</time>
      </trkpt>
      <trkpt lat="48.26068" lon="7.22608">
        <ele>336.6</ele>
        <time>2025-08-06T09:11:06Z</time>
      </trkpt>
      <trkpt lat="48.26054" lon="7.22553">
        <ele>337.2</ele>
        <time>2025-08-06T09:11:13Z</time>
      </trkpt>
      <trkpt lat="48.2605" lon="7.22537">
        <ele>337.4</ele>
        <time>2025-08-06T09:11:15Z</time>
      </trkpt>
      <trkpt lat="48.26036" lon="7.22478">
        <ele>338.2</ele>
        <time>2025-08-06T09:11:23Z</time>
      </trkpt>
      <trkpt lat="48.26028" lon="7.22447">
        <ele>338.4</ele>
        <time>2025-08-06T09:11:27Z</time>
      </trkpt>
      <trkpt lat="48.2602" lon="7.2241">
        <ele>339</ele>
        <time>2025-08-06T09:11:32Z</time>
      </trkpt>
      <trkpt lat="48.26006" lon="7.22356">
        <ele>339.6</ele>
        <time>2025-08-06T09:11:39Z</time>
      </trkpt>
      <trkpt lat="48.26001" lon="7.22333">
        <ele>339.8</ele>
        <time>2025-08-06T09:11:42Z</time>
      </trkpt>
      <trkpt lat="48.25982" lon="7.22252">
        <ele>340.6</ele>
        <time>2025-08-06T09:11:53Z</time>
      </trkpt>
      <trkpt lat="48.25981" lon="7.22245">
        <ele>341</ele>
        <time>2025-08-06T09:11:54Z</time>
      </trkpt>
      <trkpt lat="48.25979" lon="7.22238">
        <ele>341</ele>
        <time>2025-08-06T09:11:55Z</time>
      </trkpt>
      <trkpt lat="48.25975" lon="7.22219">
        <ele>341.2</ele>
        <time>2025-08-06T09:11:59Z</time>
      </trkpt>
      <trkpt lat="48.25969" lon="7.22193">
        <ele>341.6</ele>
        <time>2025-08-06T09:12:04Z</time>
      </trkpt>
      <trkpt lat="48.2596" lon="7.22153">
        <ele>341.8</ele>
        <time>2025-08-06T09:12:10Z</time>
      </trkpt>
      <trkpt lat="48.25958" lon="7.22145">
        <ele>342</ele>
        <time>2025-08-06T09:12:11Z</time>
      </trkpt>
      <trkpt lat="48.25942" lon="7.22095">
        <ele>342.4</ele>
        <time>2025-08-06T09:12:18Z</time>
      </trkpt>
      <trkpt lat="48.25919" lon="7.22042">
        <ele>343</ele>
        <time>2025-08-06T09:12:26Z</time>
      </trkpt>
      <trkpt lat="48.25916" lon="7.22037">
        <ele>343</ele>
        <time>2025-08-06T09:12:27Z</time>
      </trkpt>
      <trkpt lat="48.25908" lon="7.22018">
        <ele>343.4</ele>
        <time>2025-08-06T09:12:31Z</time>
      </trkpt>
      <trkpt lat="48.25916" lon="7.22003">
        <ele>343.6</ele>
        <time>2025-08-06T09:12:35Z</time>
      </trkpt>
      <trkpt lat="48.25915" lon="7.21976">
        <ele>343.6</ele>
        <time>2025-08-06T09:12:39Z</time>
      </trkpt>
      <trkpt lat="48.25911" lon="7.21954">
        <ele>343.6</ele>
        <time>2025-08-06T09:12:42Z</time>
      </trkpt>
      <trkpt lat="48.25908" lon="7.2193">
        <ele>343.4</ele>
        <time>2025-08-06T09:12:45Z</time>
      </trkpt>
      <trkpt lat="48.25899" lon="7.21877">
        <ele>342.6</ele>
        <time>2025-08-06T09:12:51Z</time>
      </trkpt>
      <trkpt lat="48.25898" lon="7.21869">
        <ele>342.4</ele>
        <time>2025-08-06T09:12:52Z</time>
      </trkpt>
      <trkpt lat="48.25898" lon="7.21853">
        <ele>341.8</ele>
        <time>2025-08-06T09:12:54Z</time>
      </trkpt>
      <trkpt lat="48.25898" lon="7.21848">
        <ele>341.4</ele>
        <time>2025-08-06T09:12:55Z</time>
      </trkpt>
      <trkpt lat="48.25901" lon="7.21844">
        <ele>341.2</ele>
        <time>2025-08-06T09:12:56Z</time>
      </trkpt>
      <trkpt lat="48.25908" lon="7.21841">
        <ele>340.6</ele>
        <time>2025-08-06T09:12:58Z</time>
      </trkpt>
      <trkpt lat="48.25912" lon="7.2184">
        <ele>340.4</ele>
        <time>2025-08-06T09:12:59Z</time>
      </trkpt>
      <trkpt lat="48.25925" lon="7.21834">
        <ele>340</ele>
        <time>2025-08-06T09:13:02Z</time>
      </trkpt>
      <trkpt lat="48.25928" lon="7.21833">
        <ele>340</ele>
        <time>2025-08-06T09:13:03Z</time>
      </trkpt>
      <trkpt lat="48.25937" lon="7.21828">
        <ele>339.8</ele>
        <time>2025-08-06T09:13:05Z</time>
      </trkpt>
      <trkpt lat="48.25941" lon="7.21826">
        <ele>339.8</ele>
        <time>2025-08-06T09:13:06Z</time>
      </trkpt>
      <trkpt lat="48.25951" lon="7.21817">
        <ele>339.8</ele>
        <time>2025-08-06T09:13:09Z</time>
      </trkpt>
      <trkpt lat="48.25974" lon="7.21796">
        <ele>339.8</ele>
        <time>2025-08-06T09:13:16Z</time>
      </trkpt>
      <trkpt lat="48.25977" lon="7.21793">
        <ele>339.8</ele>
        <time>2025-08-06T09:13:19Z</time>
      </trkpt>
      <trkpt lat="48.25977" lon="7.21786">
        <ele>339.8</ele>
        <time>2025-08-06T09:13:29Z</time>
      </trkpt>
      <trkpt lat="48.25974" lon="7.21778">
        <ele>339.6</ele>
        <time>2025-08-06T09:13:31Z</time>
      </trkpt>
      <trkpt lat="48.25962" lon="7.21759">
        <ele>339.6</ele>
        <time>2025-08-06T09:13:35Z</time>
      </trkpt>
      <trkpt lat="48.25947" lon="7.21736">
        <ele>340</ele>
        <time>2025-08-06T09:13:40Z</time>
      </trkpt>
      <trkpt lat="48.25942" lon="7.21727">
        <ele>340.2</ele>
        <time>2025-08-06T09:13:42Z</time>
      </trkpt>
      <trkpt lat="48.25936" lon="7.21719">
        <ele>340.6</ele>
        <time>2025-08-06T09:13:44Z</time>
      </trkpt>
      <trkpt lat="48.25913" lon="7.21683">
        <ele>340.8</ele>
        <time>2025-08-06T09:13:51Z</time>
      </trkpt>
      <trkpt lat="48.25891" lon="7.21646">
        <ele>341.6</ele>
        <time>2025-08-06T09:13:57Z</time>
      </trkpt>
      <trkpt lat="48.25887" lon="7.21638">
        <ele>341.8</ele>
        <time>2025-08-06T09:13:58Z</time>
      </trkpt>
      <trkpt lat="48.2587" lon="7.21597">
        <ele>342.2</ele>
        <time>2025-08-06T09:14:04Z</time>
      </trkpt>
      <trkpt lat="48.25854" lon="7.21527">
        <ele>342.4</ele>
        <time>2025-08-06T09:14:13Z</time>
      </trkpt>
      <trkpt lat="48.25853" lon="7.2152">
        <ele>342.6</ele>
        <time>2025-08-06T09:14:14Z</time>
      </trkpt>
      <trkpt lat="48.25841" lon="7.21468">
        <ele>343.4</ele>
        <time>2025-08-06T09:14:21Z</time>
      </trkpt>
      <trkpt lat="48.25836" lon="7.21446">
        <ele>343.6</ele>
        <time>2025-08-06T09:14:24Z</time>
      </trkpt>
      <trkpt lat="48.25825" lon="7.21396">
        <ele>344.4</ele>
        <time>2025-08-06T09:14:31Z</time>
      </trkpt>
      <trkpt lat="48.2582" lon="7.21374">
        <ele>344.8</ele>
        <time>2025-08-06T09:14:34Z</time>
      </trkpt>
      <trkpt lat="48.25807" lon="7.21333">
        <ele>345.4</ele>
        <time>2025-08-06T09:14:40Z</time>
      </trkpt>
      <trkpt lat="48.25802" lon="7.21319">
        <ele>345.6</ele>
        <time>2025-08-06T09:14:42Z</time>
      </trkpt>
      <trkpt lat="48.25788" lon="7.21281">
        <ele>346.4</ele>
        <time>2025-08-06T09:14:48Z</time>
      </trkpt>
      <trkpt lat="48.25778" lon="7.21254">
        <ele>346.6</ele>
        <time>2025-08-06T09:14:52Z</time>
      </trkpt>
      <trkpt lat="48.25766" lon="7.2122">
        <ele>347</ele>
        <time>2025-08-06T09:14:57Z</time>
      </trkpt>
      <trkpt lat="48.25756" lon="7.21184">
        <ele>347.4</ele>
        <time>2025-08-06T09:15:02Z</time>
      </trkpt>
      <trkpt lat="48.25745" lon="7.21146">
        <ele>348</ele>
        <time>2025-08-06T09:15:07Z</time>
      </trkpt>
      <trkpt lat="48.25738" lon="7.21117">
        <ele>348.6</ele>
        <time>2025-08-06T09:15:11Z</time>
      </trkpt>
      <trkpt lat="48.25726" lon="7.21074">
        <ele>349.2</ele>
        <time>2025-08-06T09:15:17Z</time>
      </trkpt>
      <trkpt lat="48.25719" lon="7.21045">
        <ele>349.6</ele>
        <time>2025-08-06T09:15:21Z</time>
      </trkpt>
      <trkpt lat="48.25708" lon="7.21001">
        <ele>350.4</ele>
        <time>2025-08-06T09:15:27Z</time>
      </trkpt>
      <trkpt lat="48.25704" lon="7.20988">
        <ele>350.6</ele>
        <time>2025-08-06T09:15:29Z</time>
      </trkpt>
      <trkpt lat="48.25687" lon="7.20922">
        <ele>351</ele>
        <time>2025-08-06T09:15:38Z</time>
      </trkpt>
      <trkpt lat="48.25678" lon="7.20891">
        <ele>351.4</ele>
        <time>2025-08-06T09:15:42Z</time>
      </trkpt>
      <trkpt lat="48.2567" lon="7.20846">
        <ele>352</ele>
        <time>2025-08-06T09:15:48Z</time>
      </trkpt>
      <trkpt lat="48.25666" lon="7.20824">
        <ele>352.4</ele>
        <time>2025-08-06T09:15:51Z</time>
      </trkpt>
      <trkpt lat="48.25658" lon="7.20768">
        <ele>353.6</ele>
        <time>2025-08-06T09:15:59Z</time>
      </trkpt>
      <trkpt lat="48.25651" lon="7.20725">
        <ele>354.8</ele>
        <time>2025-08-06T09:16:05Z</time>
      </trkpt>
      <trkpt lat="48.25647" lon="7.20695">
        <ele>355.2</ele>
        <time>2025-08-06T09:16:09Z</time>
      </trkpt>
      <trkpt lat="48.25637" lon="7.20644">
        <ele>355.8</ele>
        <time>2025-08-06T09:16:16Z</time>
      </trkpt>
      <trkpt lat="48.25631" lon="7.20622">
        <ele>356.2</ele>
        <time>2025-08-06T09:16:19Z</time>
      </trkpt>
      <trkpt lat="48.25619" lon="7.20569">
        <ele>356.6</ele>
        <time>2025-08-06T09:16:26Z</time>
      </trkpt>
      <trkpt lat="48.25604" lon="7.20508">
        <ele>357.8</ele>
        <time>2025-08-06T09:16:34Z</time>
      </trkpt>
      <trkpt lat="48.25603" lon="7.205">
        <ele>357.8</ele>
        <time>2025-08-06T09:16:35Z</time>
      </trkpt>
      <trkpt lat="48.25595" lon="7.20453">
        <ele>358.8</ele>
        <time>2025-08-06T09:16:41Z</time>
      </trkpt>
      <trkpt lat="48.2559" lon="7.20373">
        <ele>359.8</ele>
        <time>2025-08-06T09:16:51Z</time>
      </trkpt>
      <trkpt lat="48.25589" lon="7.20366">
        <ele>359.8</ele>
        <time>2025-08-06T09:16:52Z</time>
      </trkpt>
      <trkpt lat="48.25584" lon="7.2031">
        <ele>360.4</ele>
        <time>2025-08-06T09:16:59Z</time>
      </trkpt>
      <trkpt lat="48.25584" lon="7.20302">
        <ele>360.6</ele>
        <time>2025-08-06T09:17:00Z</time>
      </trkpt>
      <trkpt lat="48.25581" lon="7.2023">
        <ele>361.6</ele>
        <time>2025-08-06T09:17:09Z</time>
      </trkpt>
      <trkpt lat="48.25581" lon="7.20222">
        <ele>361.8</ele>
        <time>2025-08-06T09:17:10Z</time>
      </trkpt>
      <trkpt lat="48.25582" lon="7.20156">
        <ele>362.4</ele>
        <time>2025-08-06T09:17:18Z</time>
      </trkpt>
      <trkpt lat="48.25584" lon="7.20108">
        <ele>362.6</ele>
        <time>2025-08-06T09:17:24Z</time>
      </trkpt>
      <trkpt lat="48.25585" lon="7.20084">
        <ele>363</ele>
        <time>2025-08-06T09:17:27Z</time>
      </trkpt>
      <trkpt lat="48.25586" lon="7.20076">
        <ele>363.2</ele>
        <time>2025-08-06T09:17:28Z</time>
      </trkpt>
      <trkpt lat="48.25588" lon="7.20045">
        <ele>363.4</ele>
        <time>2025-08-06T09:17:32Z</time>
      </trkpt>
      <trkpt lat="48.25588" lon="7.20029">
        <ele>363.8</ele>
        <time>2025-08-06T09:17:34Z</time>
      </trkpt>
      <trkpt lat="48.25591" lon="7.19998">
        <ele>364.6</ele>
        <time>2025-08-06T09:17:38Z</time>
      </trkpt>
      <trkpt lat="48.25592" lon="7.1999">
        <ele>364.6</ele>
        <time>2025-08-06T09:17:39Z</time>
      </trkpt>
      <trkpt lat="48.25594" lon="7.19974">
        <ele>365</ele>
        <time>2025-08-06T09:17:41Z</time>
      </trkpt>
      <trkpt lat="48.25596" lon="7.19959">
        <ele>365.2</ele>
        <time>2025-08-06T09:17:43Z</time>
      </trkpt>
      <trkpt lat="48.25598" lon="7.19905">
        <ele>365.8</ele>
        <time>2025-08-06T09:17:50Z</time>
      </trkpt>
      <trkpt lat="48.25598" lon="7.19897">
        <ele>365.8</ele>
        <time>2025-08-06T09:17:51Z</time>
      </trkpt>
      <trkpt lat="48.25593" lon="7.1984">
        <ele>366</ele>
        <time>2025-08-06T09:17:58Z</time>
      </trkpt>
      <trkpt lat="48.25585" lon="7.1976">
        <ele>366.6</ele>
        <time>2025-08-06T09:18:08Z</time>
      </trkpt>
      <trkpt lat="48.25581" lon="7.1972">
        <ele>367</ele>
        <time>2025-08-06T09:18:13Z</time>
      </trkpt>
      <trkpt lat="48.25577" lon="7.19692">
        <ele>367.6</ele>
        <time>2025-08-06T09:18:17Z</time>
      </trkpt>
      <trkpt lat="48.25573" lon="7.1967">
        <ele>368</ele>
        <time>2025-08-06T09:18:20Z</time>
      </trkpt>
      <trkpt lat="48.25562" lon="7.19628">
        <ele>368.8</ele>
        <time>2025-08-06T09:18:26Z</time>
      </trkpt>
      <trkpt lat="48.25554" lon="7.19607">
        <ele>368.8</ele>
        <time>2025-08-06T09:18:29Z</time>
      </trkpt>
      <trkpt lat="48.25539" lon="7.19583">
        <ele>369</ele>
        <time>2025-08-06T09:18:33Z</time>
      </trkpt>
      <trkpt lat="48.25531" lon="7.19572">
        <ele>369</ele>
        <time>2025-08-06T09:18:35Z</time>
      </trkpt>
      <trkpt lat="48.25518" lon="7.19557">
        <ele>369</ele>
        <time>2025-08-06T09:18:38Z</time>
      </trkpt>
      <trkpt lat="48.25514" lon="7.19551">
        <ele>369</ele>
        <time>2025-08-06T09:18:39Z</time>
      </trkpt>
      <trkpt lat="48.25511" lon="7.19544">
        <ele>369</ele>
        <time>2025-08-06T09:18:40Z</time>
      </trkpt>
      <trkpt lat="48.25508" lon="7.19528">
        <ele>369</ele>
        <time>2025-08-06T09:18:42Z</time>
      </trkpt>
      <trkpt lat="48.25507" lon="7.1952">
        <ele>369</ele>
        <time>2025-08-06T09:18:43Z</time>
      </trkpt>
      <trkpt lat="48.25507" lon="7.19512">
        <ele>369</ele>
        <time>2025-08-06T09:18:44Z</time>
      </trkpt>
      <trkpt lat="48.25502" lon="7.19489">
        <ele>369</ele>
        <time>2025-08-06T09:18:47Z</time>
      </trkpt>
      <trkpt lat="48.25497" lon="7.19466">
        <ele>369.2</ele>
        <time>2025-08-06T09:18:50Z</time>
      </trkpt>
      <trkpt lat="48.25492" lon="7.19452">
        <ele>369.8</ele>
        <time>2025-08-06T09:18:52Z</time>
      </trkpt>
      <trkpt lat="48.25488" lon="7.19446">
        <ele>370</ele>
        <time>2025-08-06T09:18:53Z</time>
      </trkpt>
      <trkpt lat="48.25467" lon="7.19421">
        <ele>370.4</ele>
        <time>2025-08-06T09:18:58Z</time>
      </trkpt>
      <trkpt lat="48.25433" lon="7.19384">
        <ele>371</ele>
        <time>2025-08-06T09:19:06Z</time>
      </trkpt>
      <trkpt lat="48.254" lon="7.19347">
        <ele>372</ele>
        <time>2025-08-06T09:19:14Z</time>
      </trkpt>
      <trkpt lat="48.25395" lon="7.19343">
        <ele>372.2</ele>
        <time>2025-08-06T09:19:15Z</time>
      </trkpt>
      <trkpt lat="48.25383" lon="7.1933">
        <ele>372.4</ele>
        <time>2025-08-06T09:19:18Z</time>
      </trkpt>
      <trkpt lat="48.25363" lon="7.19306">
        <ele>373.2</ele>
        <time>2025-08-06T09:19:23Z</time>
      </trkpt>
      <trkpt lat="48.2535" lon="7.19291">
        <ele>373.6</ele>
        <time>2025-08-06T09:19:26Z</time>
      </trkpt>
      <trkpt lat="48.25306" lon="7.19243">
        <ele>374</ele>
        <time>2025-08-06T09:19:35Z</time>
      </trkpt>
      <trkpt lat="48.25266" lon="7.19205">
        <ele>374.2</ele>
        <time>2025-08-06T09:19:43Z</time>
      </trkpt>
      <trkpt lat="48.25256" lon="7.19196">
        <ele>374.4</ele>
        <time>2025-08-06T09:19:45Z</time>
      </trkpt>
      <trkpt lat="48.25221" lon="7.19162">
        <ele>375.4</ele>
        <time>2025-08-06T09:19:52Z</time>
      </trkpt>
      <trkpt lat="48.25211" lon="7.19152">
        <ele>375.6</ele>
        <time>2025-08-06T09:19:54Z</time>
      </trkpt>
      <trkpt lat="48.25175" lon="7.19119">
        <ele>375.8</ele>
        <time>2025-08-06T09:20:01Z</time>
      </trkpt>
      <trkpt lat="48.25165" lon="7.19111">
        <ele>375.8</ele>
        <time>2025-08-06T09:20:03Z</time>
      </trkpt>
      <trkpt lat="48.25143" lon="7.19098">
        <ele>375.2</ele>
        <time>2025-08-06T09:20:07Z</time>
      </trkpt>
      <trkpt lat="48.25128" lon="7.19089">
        <ele>374.8</ele>
        <time>2025-08-06T09:20:10Z</time>
      </trkpt>
      <trkpt lat="48.25119" lon="7.19079">
        <ele>374.6</ele>
        <time>2025-08-06T09:20:12Z</time>
      </trkpt>
      <trkpt lat="48.25086" lon="7.19044">
        <ele>374.4</ele>
        <time>2025-08-06T09:20:19Z</time>
      </trkpt>
      <trkpt lat="48.25082" lon="7.19039">
        <ele>374.4</ele>
        <time>2025-08-06T09:20:20Z</time>
      </trkpt>
      <trkpt lat="48.25065" lon="7.19017">
        <ele>374.6</ele>
        <time>2025-08-06T09:20:24Z</time>
      </trkpt>
      <trkpt lat="48.25025" lon="7.18972">
        <ele>374.8</ele>
        <time>2025-08-06T09:20:33Z</time>
      </trkpt>
      <trkpt lat="48.24999" lon="7.18943">
        <ele>375.2</ele>
        <time>2025-08-06T09:20:39Z</time>
      </trkpt>
      <trkpt lat="48.24992" lon="7.18935">
        <ele>375.2</ele>
        <time>2025-08-06T09:20:41Z</time>
      </trkpt>
      <trkpt lat="48.24965" lon="7.18903">
        <ele>375.8</ele>
        <time>2025-08-06T09:20:48Z</time>
      </trkpt>
      <trkpt lat="48.24949" lon="7.18885">
        <ele>376.4</ele>
        <time>2025-08-06T09:20:52Z</time>
      </trkpt>
      <trkpt lat="48.24941" lon="7.18876">
        <ele>376.4</ele>
        <time>2025-08-06T09:20:54Z</time>
      </trkpt>
      <trkpt lat="48.24937" lon="7.18872">
        <ele>376.6</ele>
        <time>2025-08-06T09:20:55Z</time>
      </trkpt>
      <trkpt lat="48.24929" lon="7.18864">
        <ele>376.8</ele>
        <time>2025-08-06T09:20:57Z</time>
      </trkpt>
      <trkpt lat="48.24922" lon="7.18856">
        <ele>377</ele>
        <time>2025-08-06T09:20:59Z</time>
      </trkpt>
      <trkpt lat="48.24914" lon="7.18847">
        <ele>377.6</ele>
        <time>2025-08-06T09:21:02Z</time>
      </trkpt>
      <trkpt lat="48.24909" lon="7.18844">
        <ele>377.8</ele>
        <time>2025-08-06T09:21:04Z</time>
      </trkpt>
      <trkpt lat="48.24896" lon="7.18826">
        <ele>378.2</ele>
        <time>2025-08-06T09:21:10Z</time>
      </trkpt>
      <trkpt lat="48.24881" lon="7.18813">
        <ele>378.4</ele>
        <time>2025-08-06T09:21:15Z</time>
      </trkpt>
      <trkpt lat="48.24875" lon="7.18805">
        <ele>378.4</ele>
        <time>2025-08-06T09:21:17Z</time>
      </trkpt>
      <trkpt lat="48.24865" lon="7.18792">
        <ele>378.6</ele>
        <time>2025-08-06T09:21:20Z</time>
      </trkpt>
      <trkpt lat="48.24855" lon="7.18779">
        <ele>378.8</ele>
        <time>2025-08-06T09:21:23Z</time>
      </trkpt>
      <trkpt lat="48.2485" lon="7.1877">
        <ele>379</ele>
        <time>2025-08-06T09:21:25Z</time>
      </trkpt>
      <trkpt lat="48.24847" lon="7.18767">
        <ele>379</ele>
        <time>2025-08-06T09:21:26Z</time>
      </trkpt>
      <trkpt lat="48.24841" lon="7.18759">
        <ele>379.4</ele>
        <time>2025-08-06T09:21:28Z</time>
      </trkpt>
      <trkpt lat="48.24831" lon="7.18751">
        <ele>379.4</ele>
        <time>2025-08-06T09:21:31Z</time>
      </trkpt>
      <trkpt lat="48.24814" lon="7.18736">
        <ele>379.8</ele>
        <time>2025-08-06T09:21:36Z</time>
      </trkpt>
      <trkpt lat="48.2481" lon="7.18732">
        <ele>380</ele>
        <time>2025-08-06T09:21:37Z</time>
      </trkpt>
      <trkpt lat="48.24786" lon="7.18707">
        <ele>380.6</ele>
        <time>2025-08-06T09:21:44Z</time>
      </trkpt>
      <trkpt lat="48.24769" lon="7.18686">
        <ele>380.8</ele>
        <time>2025-08-06T09:21:50Z</time>
      </trkpt>
      <trkpt lat="48.24766" lon="7.18682">
        <ele>380.8</ele>
        <time>2025-08-06T09:21:51Z</time>
      </trkpt>
      <trkpt lat="48.24744" lon="7.18643">
        <ele>381.6</ele>
        <time>2025-08-06T09:22:00Z</time>
      </trkpt>
      <trkpt lat="48.24727" lon="7.18612">
        <ele>381.8</ele>
        <time>2025-08-06T09:22:07Z</time>
      </trkpt>
      <trkpt lat="48.24719" lon="7.18596">
        <ele>382</ele>
        <time>2025-08-06T09:22:12Z</time>
      </trkpt>
      <trkpt lat="48.24719" lon="7.18594">
        <ele>382.2</ele>
        <time>2025-08-06T09:22:13Z</time>
      </trkpt>
      <trkpt lat="48.24719" lon="7.18594">
        <ele>382.2</ele>
        <time>2025-08-06T09:22:15Z</time>
      </trkpt>
      <trkpt lat="48.24716" lon="7.18589">
        <ele>384.4</ele>
        <time>2025-08-06T09:50:35Z</time>
      </trkpt>
      <trkpt lat="48.24712" lon="7.18581">
        <ele>384.4</ele>
        <time>2025-08-06T09:50:38Z</time>
      </trkpt>
      <trkpt lat="48.24704" lon="7.18563">
        <ele>384.8</ele>
        <time>2025-08-06T09:50:43Z</time>
      </trkpt>
      <trkpt lat="48.24702" lon="7.1856">
        <ele>384.8</ele>
        <time>2025-08-06T09:50:44Z</time>
      </trkpt>
      <trkpt lat="48.24689" lon="7.18533">
        <ele>384.8</ele>
        <time>2025-08-06T09:50:51Z</time>
      </trkpt>
      <trkpt lat="48.24675" lon="7.18496">
        <ele>385.2</ele>
        <time>2025-08-06T09:51:00Z</time>
      </trkpt>
      <trkpt lat="48.24667" lon="7.1847">
        <ele>386</ele>
        <time>2025-08-06T09:51:06Z</time>
      </trkpt>
      <trkpt lat="48.24658" lon="7.1845">
        <ele>386.6</ele>
        <time>2025-08-06T09:51:10Z</time>
      </trkpt>
      <trkpt lat="48.24655" lon="7.18442">
        <ele>387</ele>
        <time>2025-08-06T09:51:12Z</time>
      </trkpt>
      <trkpt lat="48.24648" lon="7.18415">
        <ele>387.6</ele>
        <time>2025-08-06T09:51:18Z</time>
      </trkpt>
      <trkpt lat="48.24634" lon="7.1839">
        <ele>388.2</ele>
        <time>2025-08-06T09:51:24Z</time>
      </trkpt>
      <trkpt lat="48.24627" lon="7.18377">
        <ele>388.6</ele>
        <time>2025-08-06T09:51:27Z</time>
      </trkpt>
      <trkpt lat="48.24613" lon="7.18343">
        <ele>388.8</ele>
        <time>2025-08-06T09:51:35Z</time>
      </trkpt>
      <trkpt lat="48.24599" lon="7.18312">
        <ele>389</ele>
        <time>2025-08-06T09:51:42Z</time>
      </trkpt>
      <trkpt lat="48.24597" lon="7.18308">
        <ele>389.2</ele>
        <time>2025-08-06T09:51:43Z</time>
      </trkpt>
      <trkpt lat="48.24587" lon="7.18282">
        <ele>390.4</ele>
        <time>2025-08-06T09:51:49Z</time>
      </trkpt>
      <trkpt lat="48.24585" lon="7.18275">
        <ele>390.8</ele>
        <time>2025-08-06T09:51:51Z</time>
      </trkpt>
      <trkpt lat="48.24578" lon="7.1826">
        <ele>391.4</ele>
        <time>2025-08-06T09:51:55Z</time>
      </trkpt>
      <trkpt lat="48.24571" lon="7.18248">
        <ele>391.6</ele>
        <time>2025-08-06T09:51:58Z</time>
      </trkpt>
      <trkpt lat="48.24566" lon="7.18239">
        <ele>391.8</ele>
        <time>2025-08-06T09:52:00Z</time>
      </trkpt>
      <trkpt lat="48.2456" lon="7.18227">
        <ele>392.2</ele>
        <time>2025-08-06T09:52:04Z</time>
      </trkpt>
      <trkpt lat="48.24557" lon="7.1822">
        <ele>392.6</ele>
        <time>2025-08-06T09:52:06Z</time>
      </trkpt>
      <trkpt lat="48.24552" lon="7.18208">
        <ele>393</ele>
        <time>2025-08-06T09:52:10Z</time>
      </trkpt>
      <trkpt lat="48.24552" lon="7.18205">
        <ele>393</ele>
        <time>2025-08-06T09:52:11Z</time>
      </trkpt>
      <trkpt lat="48.24543" lon="7.18191">
        <ele>393.4</ele>
        <time>2025-08-06T09:52:16Z</time>
      </trkpt>
      <trkpt lat="48.24537" lon="7.18175">
        <ele>393.6</ele>
        <time>2025-08-06T09:52:20Z</time>
      </trkpt>
      <trkpt lat="48.24534" lon="7.18162">
        <ele>393.8</ele>
        <time>2025-08-06T09:52:23Z</time>
      </trkpt>
      <trkpt lat="48.24525" lon="7.1813">
        <ele>394.4</ele>
        <time>2025-08-06T09:52:31Z</time>
      </trkpt>
      <trkpt lat="48.24524" lon="7.18126">
        <ele>394.6</ele>
        <time>2025-08-06T09:52:32Z</time>
      </trkpt>
      <trkpt lat="48.24518" lon="7.18097">
        <ele>395.4</ele>
        <time>2025-08-06T09:52:38Z</time>
      </trkpt>
      <trkpt lat="48.24515" lon="7.18083">
        <ele>395.6</ele>
        <time>2025-08-06T09:52:41Z</time>
      </trkpt>
      <trkpt lat="48.24511" lon="7.18069">
        <ele>395.8</ele>
        <time>2025-08-06T09:52:44Z</time>
      </trkpt>
      <trkpt lat="48.24502" lon="7.1804">
        <ele>396.8</ele>
        <time>2025-08-06T09:52:50Z</time>
      </trkpt>
      <trkpt lat="48.245" lon="7.18035">
        <ele>397</ele>
        <time>2025-08-06T09:52:51Z</time>
      </trkpt>
      <trkpt lat="48.24493" lon="7.18002">
        <ele>397.8</ele>
        <time>2025-08-06T09:52:57Z</time>
      </trkpt>
      <trkpt lat="48.2449" lon="7.17991">
        <ele>398.2</ele>
        <time>2025-08-06T09:52:59Z</time>
      </trkpt>
      <trkpt lat="48.24476" lon="7.1798">
        <ele>398.8</ele>
        <time>2025-08-06T09:53:03Z</time>
      </trkpt>
      <trkpt lat="48.24473" lon="7.17981">
        <ele>399</ele>
        <time>2025-08-06T09:53:04Z</time>
      </trkpt>
      <trkpt lat="48.24464" lon="7.17989">
        <ele>399.2</ele>
        <time>2025-08-06T09:53:07Z</time>
      </trkpt>
      <trkpt lat="48.24435" lon="7.18001">
        <ele>400</ele>
        <time>2025-08-06T09:53:14Z</time>
      </trkpt>
      <trkpt lat="48.24431" lon="7.18003">
        <ele>400</ele>
        <time>2025-08-06T09:53:15Z</time>
      </trkpt>
      <trkpt lat="48.24409" lon="7.18013">
        <ele>400</ele>
        <time>2025-08-06T09:53:20Z</time>
      </trkpt>
      <trkpt lat="48.24405" lon="7.18014">
        <ele>399.8</ele>
        <time>2025-08-06T09:53:21Z</time>
      </trkpt>
      <trkpt lat="48.244" lon="7.18013">
        <ele>399.8</ele>
        <time>2025-08-06T09:53:22Z</time>
      </trkpt>
      <trkpt lat="48.24391" lon="7.1801">
        <ele>399.8</ele>
        <time>2025-08-06T09:53:24Z</time>
      </trkpt>
      <trkpt lat="48.24387" lon="7.1801">
        <ele>399.8</ele>
        <time>2025-08-06T09:53:25Z</time>
      </trkpt>
      <trkpt lat="48.24378" lon="7.18011">
        <ele>399.8</ele>
        <time>2025-08-06T09:53:27Z</time>
      </trkpt>
      <trkpt lat="48.24368" lon="7.18008">
        <ele>399.6</ele>
        <time>2025-08-06T09:53:29Z</time>
      </trkpt>
      <trkpt lat="48.24363" lon="7.18005">
        <ele>399.6</ele>
        <time>2025-08-06T09:53:30Z</time>
      </trkpt>
      <trkpt lat="48.2434" lon="7.17995">
        <ele>400.2</ele>
        <time>2025-08-06T09:53:35Z</time>
      </trkpt>
      <trkpt lat="48.24327" lon="7.17988">
        <ele>400.2</ele>
        <time>2025-08-06T09:53:38Z</time>
      </trkpt>
      <trkpt lat="48.24322" lon="7.17985">
        <ele>400.2</ele>
        <time>2025-08-06T09:53:39Z</time>
      </trkpt>
      <trkpt lat="48.24295" lon="7.17979">
        <ele>400.2</ele>
        <time>2025-08-06T09:53:45Z</time>
      </trkpt>
      <trkpt lat="48.24255" lon="7.17982">
        <ele>400</ele>
        <time>2025-08-06T09:53:53Z</time>
      </trkpt>
      <trkpt lat="48.24219" lon="7.1799">
        <ele>399.8</ele>
        <time>2025-08-06T09:54:00Z</time>
      </trkpt>
      <trkpt lat="48.24191" lon="7.17984">
        <ele>399.4</ele>
        <time>2025-08-06T09:54:06Z</time>
      </trkpt>
      <trkpt lat="48.24181" lon="7.17982">
        <ele>399.4</ele>
        <time>2025-08-06T09:54:08Z</time>
      </trkpt>
      <trkpt lat="48.24173" lon="7.17981">
        <ele>399.6</ele>
        <time>2025-08-06T09:54:10Z</time>
      </trkpt>
      <trkpt lat="48.24168" lon="7.1798">
        <ele>399.6</ele>
        <time>2025-08-06T09:54:11Z</time>
      </trkpt>
      <trkpt lat="48.2415" lon="7.17972">
        <ele>399.8</ele>
        <time>2025-08-06T09:54:15Z</time>
      </trkpt>
      <trkpt lat="48.24142" lon="7.17965">
        <ele>400</ele>
        <time>2025-08-06T09:54:17Z</time>
      </trkpt>
      <trkpt lat="48.24138" lon="7.17961">
        <ele>400</ele>
        <time>2025-08-06T09:54:18Z</time>
      </trkpt>
      <trkpt lat="48.24107" lon="7.17927">
        <ele>400.6</ele>
        <time>2025-08-06T09:54:26Z</time>
      </trkpt>
      <trkpt lat="48.24096" lon="7.17913">
        <ele>400.8</ele>
        <time>2025-08-06T09:54:29Z</time>
      </trkpt>
      <trkpt lat="48.24085" lon="7.17899">
        <ele>401</ele>
        <time>2025-08-06T09:54:32Z</time>
      </trkpt>
      <trkpt lat="48.24082" lon="7.17895">
        <ele>401</ele>
        <time>2025-08-06T09:54:33Z</time>
      </trkpt>
      <trkpt lat="48.24074" lon="7.17887">
        <ele>401.2</ele>
        <time>2025-08-06T09:54:35Z</time>
      </trkpt>
      <trkpt lat="48.24062" lon="7.17874">
        <ele>401.4</ele>
        <time>2025-08-06T09:54:38Z</time>
      </trkpt>
      <trkpt lat="48.24034" lon="7.17846">
        <ele>402.2</ele>
        <time>2025-08-06T09:54:45Z</time>
      </trkpt>
      <trkpt lat="48.24027" lon="7.17837">
        <ele>402.6</ele>
        <time>2025-08-06T09:54:47Z</time>
      </trkpt>
      <trkpt lat="48.24012" lon="7.17818">
        <ele>403.6</ele>
        <time>2025-08-06T09:54:52Z</time>
      </trkpt>
      <trkpt lat="48.24002" lon="7.17806">
        <ele>403.8</ele>
        <time>2025-08-06T09:54:55Z</time>
      </trkpt>
      <trkpt lat="48.23973" lon="7.17777">
        <ele>404.6</ele>
        <time>2025-08-06T09:55:03Z</time>
      </trkpt>
      <trkpt lat="48.23969" lon="7.17774">
        <ele>404.8</ele>
        <time>2025-08-06T09:55:04Z</time>
      </trkpt>
      <trkpt lat="48.23935" lon="7.1774">
        <ele>405.2</ele>
        <time>2025-08-06T09:55:13Z</time>
      </trkpt>
      <trkpt lat="48.23924" lon="7.17727">
        <ele>405.6</ele>
        <time>2025-08-06T09:55:16Z</time>
      </trkpt>
      <trkpt lat="48.23914" lon="7.17715">
        <ele>406</ele>
        <time>2025-08-06T09:55:19Z</time>
      </trkpt>
      <trkpt lat="48.23903" lon="7.17702">
        <ele>406.2</ele>
        <time>2025-08-06T09:55:22Z</time>
      </trkpt>
      <trkpt lat="48.239" lon="7.17698">
        <ele>406.4</ele>
        <time>2025-08-06T09:55:23Z</time>
      </trkpt>
      <trkpt lat="48.23897" lon="7.17692">
        <ele>406.4</ele>
        <time>2025-08-06T09:55:24Z</time>
      </trkpt>
      <trkpt lat="48.23893" lon="7.17681">
        <ele>406.4</ele>
        <time>2025-08-06T09:55:26Z</time>
      </trkpt>
      <trkpt lat="48.2389" lon="7.17668">
        <ele>406.6</ele>
        <time>2025-08-06T09:55:28Z</time>
      </trkpt>
      <trkpt lat="48.23889" lon="7.17656">
        <ele>406.8</ele>
        <time>2025-08-06T09:55:30Z</time>
      </trkpt>
      <trkpt lat="48.23885" lon="7.17618">
        <ele>407.8</ele>
        <time>2025-08-06T09:55:37Z</time>
      </trkpt>
      <trkpt lat="48.23885" lon="7.17613">
        <ele>407.8</ele>
        <time>2025-08-06T09:55:38Z</time>
      </trkpt>
      <trkpt lat="48.23879" lon="7.17579">
        <ele>408.8</ele>
        <time>2025-08-06T09:55:45Z</time>
      </trkpt>
      <trkpt lat="48.23879" lon="7.17575">
        <ele>409</ele>
        <time>2025-08-06T09:55:46Z</time>
      </trkpt>
      <trkpt lat="48.23873" lon="7.17553">
        <ele>410</ele>
        <time>2025-08-06T09:55:51Z</time>
      </trkpt>
      <trkpt lat="48.23871" lon="7.17549">
        <ele>410</ele>
        <time>2025-08-06T09:55:52Z</time>
      </trkpt>
      <trkpt lat="48.23866" lon="7.17524">
        <ele>411</ele>
        <time>2025-08-06T09:55:57Z</time>
      </trkpt>
      <trkpt lat="48.23863" lon="7.1751">
        <ele>411.6</ele>
        <time>2025-08-06T09:56:00Z</time>
      </trkpt>
      <trkpt lat="48.23858" lon="7.17497">
        <ele>412</ele>
        <time>2025-08-06T09:56:03Z</time>
      </trkpt>
      <trkpt lat="48.23856" lon="7.17493">
        <ele>412.2</ele>
        <time>2025-08-06T09:56:04Z</time>
      </trkpt>
      <trkpt lat="48.2384" lon="7.17465">
        <ele>412.8</ele>
        <time>2025-08-06T09:56:10Z</time>
      </trkpt>
      <trkpt lat="48.23833" lon="7.17452">
        <ele>413</ele>
        <time>2025-08-06T09:56:13Z</time>
      </trkpt>
      <trkpt lat="48.23824" lon="7.17433">
        <ele>413.2</ele>
        <time>2025-08-06T09:56:17Z</time>
      </trkpt>
      <trkpt lat="48.23809" lon="7.17402">
        <ele>413.6</ele>
        <time>2025-08-06T09:56:23Z</time>
      </trkpt>
      <trkpt lat="48.23796" lon="7.17374">
        <ele>413.8</ele>
        <time>2025-08-06T09:56:28Z</time>
      </trkpt>
      <trkpt lat="48.23794" lon="7.17369">
        <ele>413.8</ele>
        <time>2025-08-06T09:56:29Z</time>
      </trkpt>
      <trkpt lat="48.23776" lon="7.17328">
        <ele>414.6</ele>
        <time>2025-08-06T09:56:37Z</time>
      </trkpt>
      <trkpt lat="48.23771" lon="7.17307">
        <ele>414.8</ele>
        <time>2025-08-06T09:56:41Z</time>
      </trkpt>
      <trkpt lat="48.23764" lon="7.17287">
        <ele>415</ele>
        <time>2025-08-06T09:56:45Z</time>
      </trkpt>
      <trkpt lat="48.23747" lon="7.17247">
        <ele>415.8</ele>
        <time>2025-08-06T09:56:53Z</time>
      </trkpt>
      <trkpt lat="48.23745" lon="7.17243">
        <ele>416</ele>
        <time>2025-08-06T09:56:54Z</time>
      </trkpt>
      <trkpt lat="48.23737" lon="7.17223">
        <ele>416.4</ele>
        <time>2025-08-06T09:56:58Z</time>
      </trkpt>
      <trkpt lat="48.23731" lon="7.17208">
        <ele>416.6</ele>
        <time>2025-08-06T09:57:01Z</time>
      </trkpt>
      <trkpt lat="48.23727" lon="7.17198">
        <ele>416.8</ele>
        <time>2025-08-06T09:57:03Z</time>
      </trkpt>
      <trkpt lat="48.23717" lon="7.17162">
        <ele>417.6</ele>
        <time>2025-08-06T09:57:10Z</time>
      </trkpt>
      <trkpt lat="48.23712" lon="7.17137">
        <ele>417.6</ele>
        <time>2025-08-06T09:57:15Z</time>
      </trkpt>
      <trkpt lat="48.23709" lon="7.1712">
        <ele>417.8</ele>
        <time>2025-08-06T09:57:18Z</time>
      </trkpt>
      <trkpt lat="48.23704" lon="7.17088">
        <ele>418.8</ele>
        <time>2025-08-06T09:57:24Z</time>
      </trkpt>
      <trkpt lat="48.23703" lon="7.17083">
        <ele>419</ele>
        <time>2025-08-06T09:57:25Z</time>
      </trkpt>
      <trkpt lat="48.23697" lon="7.17049">
        <ele>420</ele>
        <time>2025-08-06T09:57:31Z</time>
      </trkpt>
      <trkpt lat="48.23696" lon="7.17044">
        <ele>420.2</ele>
        <time>2025-08-06T09:57:32Z</time>
      </trkpt>
      <trkpt lat="48.2369" lon="7.17011">
        <ele>421.2</ele>
        <time>2025-08-06T09:57:38Z</time>
      </trkpt>
      <trkpt lat="48.23688" lon="7.17001">
        <ele>421.4</ele>
        <time>2025-08-06T09:57:40Z</time>
      </trkpt>
      <trkpt lat="48.23678" lon="7.16958">
        <ele>422</ele>
        <time>2025-08-06T09:57:48Z</time>
      </trkpt>
      <trkpt lat="48.23668" lon="7.16925">
        <ele>422.4</ele>
        <time>2025-08-06T09:57:54Z</time>
      </trkpt>
      <trkpt lat="48.23663" lon="7.16906">
        <ele>422.6</ele>
        <time>2025-08-06T09:57:57Z</time>
      </trkpt>
      <trkpt lat="48.23657" lon="7.16883">
        <ele>422.6</ele>
        <time>2025-08-06T09:58:01Z</time>
      </trkpt>
      <trkpt lat="48.23649" lon="7.16858">
        <ele>423</ele>
        <time>2025-08-06T09:58:05Z</time>
      </trkpt>
      <trkpt lat="48.23641" lon="7.16835">
        <ele>423.4</ele>
        <time>2025-08-06T09:58:09Z</time>
      </trkpt>
      <trkpt lat="48.2363" lon="7.16805">
        <ele>423.8</ele>
        <time>2025-08-06T09:58:14Z</time>
      </trkpt>
      <trkpt lat="48.23624" lon="7.16781">
        <ele>424.6</ele>
        <time>2025-08-06T09:58:18Z</time>
      </trkpt>
      <trkpt lat="48.2362" lon="7.16755">
        <ele>425</ele>
        <time>2025-08-06T09:58:22Z</time>
      </trkpt>
      <trkpt lat="48.23619" lon="7.16744">
        <ele>425.4</ele>
        <time>2025-08-06T09:58:24Z</time>
      </trkpt>
      <trkpt lat="48.23617" lon="7.16729">
        <ele>425.6</ele>
        <time>2025-08-06T09:58:26Z</time>
      </trkpt>
      <trkpt lat="48.23615" lon="7.16699">
        <ele>426.2</ele>
        <time>2025-08-06T09:58:31Z</time>
      </trkpt>
      <trkpt lat="48.23613" lon="7.16679">
        <ele>426.6</ele>
        <time>2025-08-06T09:58:34Z</time>
      </trkpt>
      <trkpt lat="48.2361" lon="7.16655">
        <ele>427.4</ele>
        <time>2025-08-06T09:58:38Z</time>
      </trkpt>
      <trkpt lat="48.23606" lon="7.16627">
        <ele>428</ele>
        <time>2025-08-06T09:58:42Z</time>
      </trkpt>
      <trkpt lat="48.236" lon="7.16589">
        <ele>428.2</ele>
        <time>2025-08-06T09:58:48Z</time>
      </trkpt>
      <trkpt lat="48.23594" lon="7.16569">
        <ele>428.4</ele>
        <time>2025-08-06T09:58:51Z</time>
      </trkpt>
      <trkpt lat="48.23586" lon="7.16547">
        <ele>429.2</ele>
        <time>2025-08-06T09:58:55Z</time>
      </trkpt>
      <trkpt lat="48.23577" lon="7.16518">
        <ele>430</ele>
        <time>2025-08-06T09:59:00Z</time>
      </trkpt>
      <trkpt lat="48.23574" lon="7.16507">
        <ele>430.2</ele>
        <time>2025-08-06T09:59:02Z</time>
      </trkpt>
      <trkpt lat="48.23569" lon="7.16478">
        <ele>430.6</ele>
        <time>2025-08-06T09:59:07Z</time>
      </trkpt>
      <trkpt lat="48.23566" lon="7.16455">
        <ele>431.2</ele>
        <time>2025-08-06T09:59:11Z</time>
      </trkpt>
      <trkpt lat="48.23559" lon="7.16416">
        <ele>432.4</ele>
        <time>2025-08-06T09:59:18Z</time>
      </trkpt>
      <trkpt lat="48.23548" lon="7.16378">
        <ele>433.4</ele>
        <time>2025-08-06T09:59:25Z</time>
      </trkpt>
      <trkpt lat="48.23527" lon="7.16333">
        <ele>434.4</ele>
        <time>2025-08-06T09:59:34Z</time>
      </trkpt>
      <trkpt lat="48.23524" lon="7.16329">
        <ele>434.6</ele>
        <time>2025-08-06T09:59:35Z</time>
      </trkpt>
      <trkpt lat="48.23501" lon="7.16302">
        <ele>435.4</ele>
        <time>2025-08-06T09:59:42Z</time>
      </trkpt>
      <trkpt lat="48.23497" lon="7.16299">
        <ele>435.4</ele>
        <time>2025-08-06T09:59:43Z</time>
      </trkpt>
      <trkpt lat="48.2347" lon="7.16282">
        <ele>436</ele>
        <time>2025-08-06T09:59:50Z</time>
      </trkpt>
      <trkpt lat="48.23451" lon="7.16271">
        <ele>436.6</ele>
        <time>2025-08-06T09:59:55Z</time>
      </trkpt>
      <trkpt lat="48.23442" lon="7.16267">
        <ele>436.6</ele>
        <time>2025-08-06T09:59:57Z</time>
      </trkpt>
      <trkpt lat="48.23433" lon="7.16261">
        <ele>436.8</ele>
        <time>2025-08-06T09:59:59Z</time>
      </trkpt>
      <trkpt lat="48.23429" lon="7.16258">
        <ele>436.8</ele>
        <time>2025-08-06T10:00:00Z</time>
      </trkpt>
      <trkpt lat="48.23417" lon="7.16248">
        <ele>436.8</ele>
        <time>2025-08-06T10:00:03Z</time>
      </trkpt>
      <trkpt lat="48.23409" lon="7.16239">
        <ele>436.8</ele>
        <time>2025-08-06T10:00:05Z</time>
      </trkpt>
      <trkpt lat="48.23381" lon="7.16208">
        <ele>435.6</ele>
        <time>2025-08-06T10:00:12Z</time>
      </trkpt>
      <trkpt lat="48.23374" lon="7.162">
        <ele>435.4</ele>
        <time>2025-08-06T10:00:14Z</time>
      </trkpt>
      <trkpt lat="48.2337" lon="7.16196">
        <ele>435.4</ele>
        <time>2025-08-06T10:00:15Z</time>
      </trkpt>
      <trkpt lat="48.23359" lon="7.16186">
        <ele>435.2</ele>
        <time>2025-08-06T10:00:18Z</time>
      </trkpt>
      <trkpt lat="48.23329" lon="7.16166">
        <ele>435.4</ele>
        <time>2025-08-06T10:00:26Z</time>
      </trkpt>
      <trkpt lat="48.23325" lon="7.16163">
        <ele>435.6</ele>
        <time>2025-08-06T10:00:27Z</time>
      </trkpt>
      <trkpt lat="48.23301" lon="7.16152">
        <ele>436.2</ele>
        <time>2025-08-06T10:00:33Z</time>
      </trkpt>
      <trkpt lat="48.23293" lon="7.16148">
        <ele>436.4</ele>
        <time>2025-08-06T10:00:35Z</time>
      </trkpt>
      <trkpt lat="48.23259" lon="7.16131">
        <ele>437.4</ele>
        <time>2025-08-06T10:00:44Z</time>
      </trkpt>
      <trkpt lat="48.23255" lon="7.16129">
        <ele>437.6</ele>
        <time>2025-08-06T10:00:45Z</time>
      </trkpt>
      <trkpt lat="48.23227" lon="7.16117">
        <ele>438.4</ele>
        <time>2025-08-06T10:00:52Z</time>
      </trkpt>
      <trkpt lat="48.2321" lon="7.16113">
        <ele>438.6</ele>
        <time>2025-08-06T10:00:56Z</time>
      </trkpt>
      <trkpt lat="48.23188" lon="7.16108">
        <ele>438.6</ele>
        <time>2025-08-06T10:01:01Z</time>
      </trkpt>
      <trkpt lat="48.23179" lon="7.16105">
        <ele>438.8</ele>
        <time>2025-08-06T10:01:03Z</time>
      </trkpt>
      <trkpt lat="48.23162" lon="7.16094">
        <ele>438.8</ele>
        <time>2025-08-06T10:01:07Z</time>
      </trkpt>
      <trkpt lat="48.23153" lon="7.16089">
        <ele>438.8</ele>
        <time>2025-08-06T10:01:09Z</time>
      </trkpt>
      <trkpt lat="48.2314" lon="7.16087">
        <ele>439.4</ele>
        <time>2025-08-06T10:01:12Z</time>
      </trkpt>
      <trkpt lat="48.23136" lon="7.16088">
        <ele>439.6</ele>
        <time>2025-08-06T10:01:13Z</time>
      </trkpt>
      <trkpt lat="48.23128" lon="7.16088">
        <ele>440</ele>
        <time>2025-08-06T10:01:15Z</time>
      </trkpt>
      <trkpt lat="48.23121" lon="7.16089">
        <ele>440.2</ele>
        <time>2025-08-06T10:01:17Z</time>
      </trkpt>
      <trkpt lat="48.23113" lon="7.16089">
        <ele>440.4</ele>
        <time>2025-08-06T10:01:19Z</time>
      </trkpt>
      <trkpt lat="48.23106" lon="7.16089">
        <ele>440.8</ele>
        <time>2025-08-06T10:01:21Z</time>
      </trkpt>
      <trkpt lat="48.23089" lon="7.16083">
        <ele>441.2</ele>
        <time>2025-08-06T10:01:26Z</time>
      </trkpt>
      <trkpt lat="48.23079" lon="7.16075">
        <ele>441.8</ele>
        <time>2025-08-06T10:01:29Z</time>
      </trkpt>
      <trkpt lat="48.23067" lon="7.16062">
        <ele>442.8</ele>
        <time>2025-08-06T10:01:33Z</time>
      </trkpt>
      <trkpt lat="48.23064" lon="7.16058">
        <ele>442.8</ele>
        <time>2025-08-06T10:01:34Z</time>
      </trkpt>
      <trkpt lat="48.23049" lon="7.16041">
        <ele>443.2</ele>
        <time>2025-08-06T10:01:39Z</time>
      </trkpt>
      <trkpt lat="48.23026" lon="7.16012">
        <ele>444</ele>
        <time>2025-08-06T10:01:46Z</time>
      </trkpt>
      <trkpt lat="48.23014" lon="7.15995">
        <ele>444.2</ele>
        <time>2025-08-06T10:01:50Z</time>
      </trkpt>
      <trkpt lat="48.23011" lon="7.1599">
        <ele>444.4</ele>
        <time>2025-08-06T10:01:51Z</time>
      </trkpt>
      <trkpt lat="48.23004" lon="7.15974">
        <ele>445</ele>
        <time>2025-08-06T10:01:54Z</time>
      </trkpt>
      <trkpt lat="48.23001" lon="7.15962">
        <ele>445.2</ele>
        <time>2025-08-06T10:01:56Z</time>
      </trkpt>
      <trkpt lat="48.22994" lon="7.15918">
        <ele>445.8</ele>
        <time>2025-08-06T10:02:03Z</time>
      </trkpt>
      <trkpt lat="48.22992" lon="7.15895">
        <ele>446</ele>
        <time>2025-08-06T10:02:07Z</time>
      </trkpt>
      <trkpt lat="48.2299" lon="7.15867">
        <ele>446.8</ele>
        <time>2025-08-06T10:02:12Z</time>
      </trkpt>
      <trkpt lat="48.22988" lon="7.15849">
        <ele>447.2</ele>
        <time>2025-08-06T10:02:15Z</time>
      </trkpt>
      <trkpt lat="48.22984" lon="7.15827">
        <ele>447.6</ele>
        <time>2025-08-06T10:02:19Z</time>
      </trkpt>
      <trkpt lat="48.22978" lon="7.15794">
        <ele>448.2</ele>
        <time>2025-08-06T10:02:25Z</time>
      </trkpt>
      <trkpt lat="48.22975" lon="7.15776">
        <ele>448.6</ele>
        <time>2025-08-06T10:02:28Z</time>
      </trkpt>
      <trkpt lat="48.22971" lon="7.15755">
        <ele>449</ele>
        <time>2025-08-06T10:02:32Z</time>
      </trkpt>
      <trkpt lat="48.22966" lon="7.15721">
        <ele>449.6</ele>
        <time>2025-08-06T10:02:38Z</time>
      </trkpt>
      <trkpt lat="48.22964" lon="7.15711">
        <ele>450</ele>
        <time>2025-08-06T10:02:40Z</time>
      </trkpt>
      <trkpt lat="48.22959" lon="7.15673">
        <ele>451</ele>
        <time>2025-08-06T10:02:47Z</time>
      </trkpt>
      <trkpt lat="48.22952" lon="7.15631">
        <ele>452</ele>
        <time>2025-08-06T10:02:55Z</time>
      </trkpt>
      <trkpt lat="48.22951" lon="7.1562">
        <ele>452.2</ele>
        <time>2025-08-06T10:02:57Z</time>
      </trkpt>
      <trkpt lat="48.22949" lon="7.15609">
        <ele>452.4</ele>
        <time>2025-08-06T10:02:59Z</time>
      </trkpt>
      <trkpt lat="48.22945" lon="7.15588">
        <ele>453.2</ele>
        <time>2025-08-06T10:03:03Z</time>
      </trkpt>
      <trkpt lat="48.22944" lon="7.15581">
        <ele>453.2</ele>
        <time>2025-08-06T10:03:04Z</time>
      </trkpt>
      <trkpt lat="48.22929" lon="7.15536">
        <ele>453.8</ele>
        <time>2025-08-06T10:03:12Z</time>
      </trkpt>
      <trkpt lat="48.22923" lon="7.15522">
        <ele>454.2</ele>
        <time>2025-08-06T10:03:15Z</time>
      </trkpt>
      <trkpt lat="48.22908" lon="7.1549">
        <ele>455</ele>
        <time>2025-08-06T10:03:22Z</time>
      </trkpt>
      <trkpt lat="48.22906" lon="7.15485">
        <ele>455</ele>
        <time>2025-08-06T10:03:23Z</time>
      </trkpt>
      <trkpt lat="48.22891" lon="7.15447">
        <ele>456.4</ele>
        <time>2025-08-06T10:03:31Z</time>
      </trkpt>
      <trkpt lat="48.22888" lon="7.15443">
        <ele>456.4</ele>
        <time>2025-08-06T10:03:32Z</time>
      </trkpt>
      <trkpt lat="48.2287" lon="7.15414">
        <ele>457.4</ele>
        <time>2025-08-06T10:03:39Z</time>
      </trkpt>
      <trkpt lat="48.22867" lon="7.1541">
        <ele>457.6</ele>
        <time>2025-08-06T10:03:40Z</time>
      </trkpt>
      <trkpt lat="48.22845" lon="7.15382">
        <ele>458.6</ele>
        <time>2025-08-06T10:03:47Z</time>
      </trkpt>
      <trkpt lat="48.22833" lon="7.15367">
        <ele>459</ele>
        <time>2025-08-06T10:03:51Z</time>
      </trkpt>
      <trkpt lat="48.22818" lon="7.15347">
        <ele>459.6</ele>
        <time>2025-08-06T10:03:56Z</time>
      </trkpt>
      <trkpt lat="48.22806" lon="7.15333">
        <ele>460</ele>
        <time>2025-08-06T10:04:00Z</time>
      </trkpt>
      <trkpt lat="48.22789" lon="7.15311">
        <ele>460.8</ele>
        <time>2025-08-06T10:04:06Z</time>
      </trkpt>
      <trkpt lat="48.22777" lon="7.15296">
        <ele>461.4</ele>
        <time>2025-08-06T10:04:10Z</time>
      </trkpt>
      <trkpt lat="48.22768" lon="7.15284">
        <ele>461.6</ele>
        <time>2025-08-06T10:04:13Z</time>
      </trkpt>
      <trkpt lat="48.2275" lon="7.15262">
        <ele>462.6</ele>
        <time>2025-08-06T10:04:19Z</time>
      </trkpt>
      <trkpt lat="48.22747" lon="7.15258">
        <ele>462.6</ele>
        <time>2025-08-06T10:04:20Z</time>
      </trkpt>
      <trkpt lat="48.22723" lon="7.15227">
        <ele>463.6</ele>
        <time>2025-08-06T10:04:28Z</time>
      </trkpt>
      <trkpt lat="48.2272" lon="7.15224">
        <ele>463.8</ele>
        <time>2025-08-06T10:04:29Z</time>
      </trkpt>
      <trkpt lat="48.22695" lon="7.15188">
        <ele>464.6</ele>
        <time>2025-08-06T10:04:38Z</time>
      </trkpt>
      <trkpt lat="48.22687" lon="7.15176">
        <ele>464.8</ele>
        <time>2025-08-06T10:04:41Z</time>
      </trkpt>
      <trkpt lat="48.22664" lon="7.15142">
        <ele>465.8</ele>
        <time>2025-08-06T10:04:50Z</time>
      </trkpt>
      <trkpt lat="48.22646" lon="7.15119">
        <ele>466.8</ele>
        <time>2025-08-06T10:04:57Z</time>
      </trkpt>
      <trkpt lat="48.22644" lon="7.15116">
        <ele>467</ele>
        <time>2025-08-06T10:04:58Z</time>
      </trkpt>
      <trkpt lat="48.22642" lon="7.15111">
        <ele>467.4</ele>
        <time>2025-08-06T10:05:01Z</time>
      </trkpt>
      <trkpt lat="48.22642" lon="7.15111">
        <ele>467.6</ele>
        <time>2025-08-06T10:05:02Z</time>
      </trkpt>
      <trkpt lat="48.22639" lon="7.15108">
        <ele>469</ele>
        <time>2025-08-06T10:06:34Z</time>
      </trkpt>
      <trkpt lat="48.22634" lon="7.15102">
        <ele>469</ele>
        <time>2025-08-06T10:06:36Z</time>
      </trkpt>
      <trkpt lat="48.22615" lon="7.15082">
        <ele>469</ele>
        <time>2025-08-06T10:06:42Z</time>
      </trkpt>
      <trkpt lat="48.2259" lon="7.15055">
        <ele>469.8</ele>
        <time>2025-08-06T10:06:50Z</time>
      </trkpt>
      <trkpt lat="48.22578" lon="7.15042">
        <ele>470.2</ele>
        <time>2025-08-06T10:06:54Z</time>
      </trkpt>
      <trkpt lat="48.22562" lon="7.15025">
        <ele>470.4</ele>
        <time>2025-08-06T10:06:59Z</time>
      </trkpt>
      <trkpt lat="48.22529" lon="7.14996">
        <ele>471.4</ele>
        <time>2025-08-06T10:07:09Z</time>
      </trkpt>
      <trkpt lat="48.22525" lon="7.14994">
        <ele>471.4</ele>
        <time>2025-08-06T10:07:10Z</time>
      </trkpt>
      <trkpt lat="48.22509" lon="7.14982">
        <ele>472.4</ele>
        <time>2025-08-06T10:07:15Z</time>
      </trkpt>
      <trkpt lat="48.22492" lon="7.14971">
        <ele>473.2</ele>
        <time>2025-08-06T10:07:20Z</time>
      </trkpt>
      <trkpt lat="48.22476" lon="7.1496">
        <ele>473.4</ele>
        <time>2025-08-06T10:07:24Z</time>
      </trkpt>
      <trkpt lat="48.22461" lon="7.1495">
        <ele>473.8</ele>
        <time>2025-08-06T10:07:28Z</time>
      </trkpt>
      <trkpt lat="48.22438" lon="7.14933">
        <ele>474.6</ele>
        <time>2025-08-06T10:07:34Z</time>
      </trkpt>
      <trkpt lat="48.22427" lon="7.14924">
        <ele>474.6</ele>
        <time>2025-08-06T10:07:37Z</time>
      </trkpt>
      <trkpt lat="48.22413" lon="7.14912">
        <ele>475</ele>
        <time>2025-08-06T10:07:41Z</time>
      </trkpt>
      <trkpt lat="48.22402" lon="7.14902">
        <ele>475.6</ele>
        <time>2025-08-06T10:07:44Z</time>
      </trkpt>
      <trkpt lat="48.22399" lon="7.14899">
        <ele>475.8</ele>
        <time>2025-08-06T10:07:45Z</time>
      </trkpt>
      <trkpt lat="48.22385" lon="7.14876">
        <ele>476.2</ele>
        <time>2025-08-06T10:07:50Z</time>
      </trkpt>
      <trkpt lat="48.22381" lon="7.14866">
        <ele>476.4</ele>
        <time>2025-08-06T10:07:52Z</time>
      </trkpt>
      <trkpt lat="48.22378" lon="7.14856">
        <ele>476.8</ele>
        <time>2025-08-06T10:07:54Z</time>
      </trkpt>
      <trkpt lat="48.22365" lon="7.14823">
        <ele>477.6</ele>
        <time>2025-08-06T10:08:00Z</time>
      </trkpt>
      <trkpt lat="48.22359" lon="7.14806">
        <ele>477.8</ele>
        <time>2025-08-06T10:08:03Z</time>
      </trkpt>
      <trkpt lat="48.22345" lon="7.14768">
        <ele>478.6</ele>
        <time>2025-08-06T10:08:10Z</time>
      </trkpt>
      <trkpt lat="48.22338" lon="7.14754">
        <ele>478.8</ele>
        <time>2025-08-06T10:08:13Z</time>
      </trkpt>
      <trkpt lat="48.22327" lon="7.14736">
        <ele>479</ele>
        <time>2025-08-06T10:08:17Z</time>
      </trkpt>
      <trkpt lat="48.22308" lon="7.14706">
        <ele>479.8</ele>
        <time>2025-08-06T10:08:24Z</time>
      </trkpt>
      <trkpt lat="48.22306" lon="7.14703">
        <ele>479.8</ele>
        <time>2025-08-06T10:08:25Z</time>
      </trkpt>
      <trkpt lat="48.22286" lon="7.14678">
        <ele>480.8</ele>
        <time>2025-08-06T10:08:33Z</time>
      </trkpt>
      <trkpt lat="48.22282" lon="7.14676">
        <ele>480.6</ele>
        <time>2025-08-06T10:08:34Z</time>
      </trkpt>
      <trkpt lat="48.22265" lon="7.14671">
        <ele>482</ele>
        <time>2025-08-06T10:08:40Z</time>
      </trkpt>
      <trkpt lat="48.22247" lon="7.14669">
        <ele>483</ele>
        <time>2025-08-06T10:08:46Z</time>
      </trkpt>
      <trkpt lat="48.22229" lon="7.14659">
        <ele>484</ele>
        <time>2025-08-06T10:08:53Z</time>
      </trkpt>
      <trkpt lat="48.22225" lon="7.14655">
        <ele>484.2</ele>
        <time>2025-08-06T10:08:55Z</time>
      </trkpt>
      <trkpt lat="48.22215" lon="7.14643">
        <ele>485</ele>
        <time>2025-08-06T10:09:00Z</time>
      </trkpt>
      <trkpt lat="48.22211" lon="7.14634">
        <ele>485.6</ele>
        <time>2025-08-06T10:09:03Z</time>
      </trkpt>
      <trkpt lat="48.22204" lon="7.1462">
        <ele>486.2</ele>
        <time>2025-08-06T10:09:08Z</time>
      </trkpt>
      <trkpt lat="48.22197" lon="7.14607">
        <ele>487</ele>
        <time>2025-08-06T10:09:12Z</time>
      </trkpt>
      <trkpt lat="48.22194" lon="7.146">
        <ele>487.2</ele>
        <time>2025-08-06T10:09:14Z</time>
      </trkpt>
      <trkpt lat="48.22183" lon="7.14579">
        <ele>488.4</ele>
        <time>2025-08-06T10:09:20Z</time>
      </trkpt>
      <trkpt lat="48.22181" lon="7.14575">
        <ele>488.4</ele>
        <time>2025-08-06T10:09:21Z</time>
      </trkpt>
      <trkpt lat="48.2217" lon="7.14557">
        <ele>489.4</ele>
        <time>2025-08-06T10:09:27Z</time>
      </trkpt>
      <trkpt lat="48.22164" lon="7.14549">
        <ele>490</ele>
        <time>2025-08-06T10:09:30Z</time>
      </trkpt>
      <trkpt lat="48.2216" lon="7.14542">
        <ele>490.4</ele>
        <time>2025-08-06T10:09:32Z</time>
      </trkpt>
      <trkpt lat="48.22148" lon="7.14529">
        <ele>491.8</ele>
        <time>2025-08-06T10:09:37Z</time>
      </trkpt>
      <trkpt lat="48.22143" lon="7.14524">
        <ele>492.4</ele>
        <time>2025-08-06T10:09:40Z</time>
      </trkpt>
      <trkpt lat="48.22134" lon="7.14516">
        <ele>492.8</ele>
        <time>2025-08-06T10:09:43Z</time>
      </trkpt>
      <trkpt lat="48.22126" lon="7.1451">
        <ele>493.4</ele>
        <time>2025-08-06T10:09:47Z</time>
      </trkpt>
      <trkpt lat="48.22115" lon="7.14503">
        <ele>493.8</ele>
        <time>2025-08-06T10:09:50Z</time>
      </trkpt>
      <trkpt lat="48.22102" lon="7.14494">
        <ele>495</ele>
        <time>2025-08-06T10:09:55Z</time>
      </trkpt>
      <trkpt lat="48.22094" lon="7.14488">
        <ele>495.6</ele>
        <time>2025-08-06T10:09:58Z</time>
      </trkpt>
      <trkpt lat="48.22084" lon="7.14481">
        <ele>496.2</ele>
        <time>2025-08-06T10:10:02Z</time>
      </trkpt>
      <trkpt lat="48.22076" lon="7.14477">
        <ele>496.6</ele>
        <time>2025-08-06T10:10:05Z</time>
      </trkpt>
      <trkpt lat="48.22066" lon="7.14472">
        <ele>497.2</ele>
        <time>2025-08-06T10:10:09Z</time>
      </trkpt>
      <trkpt lat="48.22055" lon="7.14464">
        <ele>498.2</ele>
        <time>2025-08-06T10:10:13Z</time>
      </trkpt>
      <trkpt lat="48.2205" lon="7.1446">
        <ele>498.6</ele>
        <time>2025-08-06T10:10:15Z</time>
      </trkpt>
      <trkpt lat="48.2204" lon="7.14453">
        <ele>499.4</ele>
        <time>2025-08-06T10:10:19Z</time>
      </trkpt>
      <trkpt lat="48.22022" lon="7.1444">
        <ele>500.4</ele>
        <time>2025-08-06T10:10:26Z</time>
      </trkpt>
      <trkpt lat="48.22002" lon="7.14431">
        <ele>501.6</ele>
        <time>2025-08-06T10:10:33Z</time>
      </trkpt>
      <trkpt lat="48.21979" lon="7.14426">
        <ele>502.6</ele>
        <time>2025-08-06T10:10:40Z</time>
      </trkpt>
      <trkpt lat="48.21975" lon="7.14425">
        <ele>502.8</ele>
        <time>2025-08-06T10:10:41Z</time>
      </trkpt>
      <trkpt lat="48.21954" lon="7.14417">
        <ele>503.8</ele>
        <time>2025-08-06T10:10:48Z</time>
      </trkpt>
      <trkpt lat="48.21948" lon="7.14414">
        <ele>504</ele>
        <time>2025-08-06T10:10:50Z</time>
      </trkpt>
      <trkpt lat="48.21934" lon="7.144">
        <ele>504.8</ele>
        <time>2025-08-06T10:10:56Z</time>
      </trkpt>
      <trkpt lat="48.21931" lon="7.14397">
        <ele>504.8</ele>
        <time>2025-08-06T10:10:57Z</time>
      </trkpt>
      <trkpt lat="48.21919" lon="7.14378">
        <ele>506</ele>
        <time>2025-08-06T10:11:03Z</time>
      </trkpt>
      <trkpt lat="48.21908" lon="7.14361">
        <ele>507</ele>
        <time>2025-08-06T10:11:08Z</time>
      </trkpt>
      <trkpt lat="48.21897" lon="7.14343">
        <ele>508.2</ele>
        <time>2025-08-06T10:11:13Z</time>
      </trkpt>
      <trkpt lat="48.21892" lon="7.14336">
        <ele>508.6</ele>
        <time>2025-08-06T10:11:15Z</time>
      </trkpt>
      <trkpt lat="48.21887" lon="7.14329">
        <ele>509</ele>
        <time>2025-08-06T10:11:17Z</time>
      </trkpt>
      <trkpt lat="48.21884" lon="7.14326">
        <ele>509.4</ele>
        <time>2025-08-06T10:11:18Z</time>
      </trkpt>
      <trkpt lat="48.21871" lon="7.14309">
        <ele>510</ele>
        <time>2025-08-06T10:11:23Z</time>
      </trkpt>
      <trkpt lat="48.21858" lon="7.14298">
        <ele>510.4</ele>
        <time>2025-08-06T10:11:27Z</time>
      </trkpt>
      <trkpt lat="48.21839" lon="7.14283">
        <ele>511.2</ele>
        <time>2025-08-06T10:11:32Z</time>
      </trkpt>
      <trkpt lat="48.21811" lon="7.14262">
        <ele>511.6</ele>
        <time>2025-08-06T10:11:39Z</time>
      </trkpt>
      <trkpt lat="48.21806" lon="7.14258">
        <ele>511.6</ele>
        <time>2025-08-06T10:11:40Z</time>
      </trkpt>
      <trkpt lat="48.21793" lon="7.14242">
        <ele>511.6</ele>
        <time>2025-08-06T10:11:44Z</time>
      </trkpt>
      <trkpt lat="48.21769" lon="7.14204">
        <ele>512</ele>
        <time>2025-08-06T10:11:52Z</time>
      </trkpt>
      <trkpt lat="48.21744" lon="7.1416">
        <ele>512.8</ele>
        <time>2025-08-06T10:12:01Z</time>
      </trkpt>
      <trkpt lat="48.21741" lon="7.14155">
        <ele>512.8</ele>
        <time>2025-08-06T10:12:02Z</time>
      </trkpt>
      <trkpt lat="48.21723" lon="7.14124">
        <ele>513.6</ele>
        <time>2025-08-06T10:12:09Z</time>
      </trkpt>
      <trkpt lat="48.21718" lon="7.14115">
        <ele>513.8</ele>
        <time>2025-08-06T10:12:11Z</time>
      </trkpt>
      <trkpt lat="48.21707" lon="7.14102">
        <ele>514.6</ele>
        <time>2025-08-06T10:12:15Z</time>
      </trkpt>
      <trkpt lat="48.21703" lon="7.14098">
        <ele>514.8</ele>
        <time>2025-08-06T10:12:16Z</time>
      </trkpt>
      <trkpt lat="48.21678" lon="7.14078">
        <ele>515.6</ele>
        <time>2025-08-06T10:12:23Z</time>
      </trkpt>
      <trkpt lat="48.21672" lon="7.14074">
        <ele>515.8</ele>
        <time>2025-08-06T10:12:25Z</time>
      </trkpt>
      <trkpt lat="48.21652" lon="7.14068">
        <ele>516.6</ele>
        <time>2025-08-06T10:12:31Z</time>
      </trkpt>
      <trkpt lat="48.21647" lon="7.14067">
        <ele>516.8</ele>
        <time>2025-08-06T10:12:32Z</time>
      </trkpt>
      <trkpt lat="48.21621" lon="7.14062">
        <ele>518</ele>
        <time>2025-08-06T10:12:39Z</time>
      </trkpt>
      <trkpt lat="48.21589" lon="7.14051">
        <ele>518.8</ele>
        <time>2025-08-06T10:12:48Z</time>
      </trkpt>
      <trkpt lat="48.21586" lon="7.14049">
        <ele>519</ele>
        <time>2025-08-06T10:12:49Z</time>
      </trkpt>
      <trkpt lat="48.21563" lon="7.14037">
        <ele>520</ele>
        <time>2025-08-06T10:12:56Z</time>
      </trkpt>
      <trkpt lat="48.21546" lon="7.14019">
        <ele>520.8</ele>
        <time>2025-08-06T10:13:03Z</time>
      </trkpt>
      <trkpt lat="48.21542" lon="7.14015">
        <ele>521.2</ele>
        <time>2025-08-06T10:13:05Z</time>
      </trkpt>
      <trkpt lat="48.2153" lon="7.14003">
        <ele>522.4</ele>
        <time>2025-08-06T10:13:10Z</time>
      </trkpt>
      <trkpt lat="48.21528" lon="7.14001">
        <ele>522.6</ele>
        <time>2025-08-06T10:13:11Z</time>
      </trkpt>
      <trkpt lat="48.21521" lon="7.13993">
        <ele>523.6</ele>
        <time>2025-08-06T10:13:14Z</time>
      </trkpt>
      <trkpt lat="48.21509" lon="7.13976">
        <ele>524.8</ele>
        <time>2025-08-06T10:13:19Z</time>
      </trkpt>
      <trkpt lat="48.21508" lon="7.13973">
        <ele>525</ele>
        <time>2025-08-06T10:13:20Z</time>
      </trkpt>
      <trkpt lat="48.215" lon="7.13956">
        <ele>526</ele>
        <time>2025-08-06T10:13:25Z</time>
      </trkpt>
      <trkpt lat="48.21494" lon="7.13942">
        <ele>526.6</ele>
        <time>2025-08-06T10:13:29Z</time>
      </trkpt>
      <trkpt lat="48.2149" lon="7.13934">
        <ele>527</ele>
        <time>2025-08-06T10:13:31Z</time>
      </trkpt>
      <trkpt lat="48.21482" lon="7.13914">
        <ele>527.8</ele>
        <time>2025-08-06T10:13:36Z</time>
      </trkpt>
      <trkpt lat="48.21478" lon="7.13907">
        <ele>528.4</ele>
        <time>2025-08-06T10:13:38Z</time>
      </trkpt>
      <trkpt lat="48.21471" lon="7.13891">
        <ele>528.8</ele>
        <time>2025-08-06T10:13:42Z</time>
      </trkpt>
      <trkpt lat="48.21462" lon="7.13874">
        <ele>530</ele>
        <time>2025-08-06T10:13:47Z</time>
      </trkpt>
      <trkpt lat="48.21457" lon="7.13859">
        <ele>531</ele>
        <time>2025-08-06T10:13:51Z</time>
      </trkpt>
      <trkpt lat="48.21451" lon="7.13839">
        <ele>532.4</ele>
        <time>2025-08-06T10:13:56Z</time>
      </trkpt>
      <trkpt lat="48.2145" lon="7.13835">
        <ele>532.8</ele>
        <time>2025-08-06T10:13:57Z</time>
      </trkpt>
      <trkpt lat="48.21446" lon="7.1382">
        <ele>533.4</ele>
        <time>2025-08-06T10:14:01Z</time>
      </trkpt>
      <trkpt lat="48.21439" lon="7.13802">
        <ele>534.2</ele>
        <time>2025-08-06T10:14:06Z</time>
      </trkpt>
      <trkpt lat="48.21435" lon="7.13795">
        <ele>534.4</ele>
        <time>2025-08-06T10:14:08Z</time>
      </trkpt>
      <trkpt lat="48.21426" lon="7.1378">
        <ele>535.6</ele>
        <time>2025-08-06T10:14:13Z</time>
      </trkpt>
      <trkpt lat="48.21421" lon="7.13775">
        <ele>536.2</ele>
        <time>2025-08-06T10:14:15Z</time>
      </trkpt>
      <trkpt lat="48.21416" lon="7.1377">
        <ele>536.6</ele>
        <time>2025-08-06T10:14:17Z</time>
      </trkpt>
      <trkpt lat="48.21404" lon="7.13753">
        <ele>538</ele>
        <time>2025-08-06T10:14:22Z</time>
      </trkpt>
      <trkpt lat="48.21401" lon="7.1375">
        <ele>538.2</ele>
        <time>2025-08-06T10:14:23Z</time>
      </trkpt>
      <trkpt lat="48.21389" lon="7.13727">
        <ele>539.2</ele>
        <time>2025-08-06T10:14:29Z</time>
      </trkpt>
      <trkpt lat="48.21382" lon="7.13695">
        <ele>540.2</ele>
        <time>2025-08-06T10:14:36Z</time>
      </trkpt>
      <trkpt lat="48.21381" lon="7.13691">
        <ele>540.4</ele>
        <time>2025-08-06T10:14:37Z</time>
      </trkpt>
      <trkpt lat="48.21382" lon="7.13668">
        <ele>541.2</ele>
        <time>2025-08-06T10:14:42Z</time>
      </trkpt>
      <trkpt lat="48.21383" lon="7.13659">
        <ele>541.6</ele>
        <time>2025-08-06T10:14:44Z</time>
      </trkpt>
      <trkpt lat="48.21382" lon="7.13643">
        <ele>542.6</ele>
        <time>2025-08-06T10:14:48Z</time>
      </trkpt>
      <trkpt lat="48.21379" lon="7.13625">
        <ele>543.6</ele>
        <time>2025-08-06T10:14:52Z</time>
      </trkpt>
      <trkpt lat="48.21378" lon="7.13621">
        <ele>543.8</ele>
        <time>2025-08-06T10:14:53Z</time>
      </trkpt>
      <trkpt lat="48.21368" lon="7.13599">
        <ele>545</ele>
        <time>2025-08-06T10:14:58Z</time>
      </trkpt>
      <trkpt lat="48.21367" lon="7.13595">
        <ele>545</ele>
        <time>2025-08-06T10:14:59Z</time>
      </trkpt>
      <trkpt lat="48.2135" lon="7.13576">
        <ele>545.8</ele>
        <time>2025-08-06T10:15:05Z</time>
      </trkpt>
      <trkpt lat="48.21344" lon="7.1357">
        <ele>546.2</ele>
        <time>2025-08-06T10:15:07Z</time>
      </trkpt>
      <trkpt lat="48.21326" lon="7.1355">
        <ele>547.2</ele>
        <time>2025-08-06T10:15:14Z</time>
      </trkpt>
      <trkpt lat="48.2132" lon="7.13544">
        <ele>547.4</ele>
        <time>2025-08-06T10:15:16Z</time>
      </trkpt>
      <trkpt lat="48.21301" lon="7.13524">
        <ele>548.4</ele>
        <time>2025-08-06T10:15:23Z</time>
      </trkpt>
      <trkpt lat="48.21282" lon="7.13511">
        <ele>549.6</ele>
        <time>2025-08-06T10:15:30Z</time>
      </trkpt>
      <trkpt lat="48.21276" lon="7.13508">
        <ele>550</ele>
        <time>2025-08-06T10:15:32Z</time>
      </trkpt>
      <trkpt lat="48.21268" lon="7.13504">
        <ele>550.6</ele>
        <time>2025-08-06T10:15:35Z</time>
      </trkpt>
      <trkpt lat="48.21254" lon="7.1349">
        <ele>551.6</ele>
        <time>2025-08-06T10:15:41Z</time>
      </trkpt>
      <trkpt lat="48.2124" lon="7.13478">
        <ele>552.8</ele>
        <time>2025-08-06T10:15:46Z</time>
      </trkpt>
      <trkpt lat="48.21238" lon="7.13475">
        <ele>553.2</ele>
        <time>2025-08-06T10:15:47Z</time>
      </trkpt>
      <trkpt lat="48.21231" lon="7.13467">
        <ele>553.8</ele>
        <time>2025-08-06T10:15:50Z</time>
      </trkpt>
      <trkpt lat="48.21224" lon="7.13457">
        <ele>554.8</ele>
        <time>2025-08-06T10:15:53Z</time>
      </trkpt>
      <trkpt lat="48.21222" lon="7.13454">
        <ele>555</ele>
        <time>2025-08-06T10:15:54Z</time>
      </trkpt>
      <trkpt lat="48.21208" lon="7.13436">
        <ele>556</ele>
        <time>2025-08-06T10:16:00Z</time>
      </trkpt>
      <trkpt lat="48.21204" lon="7.13429">
        <ele>556.4</ele>
        <time>2025-08-06T10:16:02Z</time>
      </trkpt>
      <trkpt lat="48.21193" lon="7.13418">
        <ele>557.2</ele>
        <time>2025-08-06T10:16:06Z</time>
      </trkpt>
      <trkpt lat="48.21181" lon="7.13408">
        <ele>557.8</ele>
        <time>2025-08-06T10:16:10Z</time>
      </trkpt>
      <trkpt lat="48.21172" lon="7.13401">
        <ele>558.2</ele>
        <time>2025-08-06T10:16:13Z</time>
      </trkpt>
      <trkpt lat="48.21156" lon="7.1339">
        <ele>559.2</ele>
        <time>2025-08-06T10:16:18Z</time>
      </trkpt>
      <trkpt lat="48.2113" lon="7.13379">
        <ele>559.4</ele>
        <time>2025-08-06T10:16:25Z</time>
      </trkpt>
      <trkpt lat="48.21121" lon="7.13377">
        <ele>559.6</ele>
        <time>2025-08-06T10:16:27Z</time>
      </trkpt>
      <trkpt lat="48.21095" lon="7.13378">
        <ele>560.4</ele>
        <time>2025-08-06T10:16:34Z</time>
      </trkpt>
      <trkpt lat="48.21091" lon="7.13379">
        <ele>560.6</ele>
        <time>2025-08-06T10:16:35Z</time>
      </trkpt>
      <trkpt lat="48.2107" lon="7.13384">
        <ele>561.6</ele>
        <time>2025-08-06T10:16:41Z</time>
      </trkpt>
      <trkpt lat="48.21062" lon="7.13385">
        <ele>561.8</ele>
        <time>2025-08-06T10:16:43Z</time>
      </trkpt>
      <trkpt lat="48.21048" lon="7.13385">
        <ele>562.8</ele>
        <time>2025-08-06T10:16:47Z</time>
      </trkpt>
      <trkpt lat="48.21034" lon="7.13381">
        <ele>563.4</ele>
        <time>2025-08-06T10:16:51Z</time>
      </trkpt>
      <trkpt lat="48.21028" lon="7.13378">
        <ele>563.8</ele>
        <time>2025-08-06T10:16:53Z</time>
      </trkpt>
      <trkpt lat="48.21012" lon="7.13364">
        <ele>564.6</ele>
        <time>2025-08-06T10:16:58Z</time>
      </trkpt>
      <trkpt lat="48.2101" lon="7.13361">
        <ele>564.8</ele>
        <time>2025-08-06T10:16:59Z</time>
      </trkpt>
      <trkpt lat="48.20987" lon="7.13339">
        <ele>565.8</ele>
        <time>2025-08-06T10:17:06Z</time>
      </trkpt>
      <trkpt lat="48.20971" lon="7.13323">
        <ele>566.8</ele>
        <time>2025-08-06T10:17:11Z</time>
      </trkpt>
      <trkpt lat="48.20959" lon="7.13311">
        <ele>567.2</ele>
        <time>2025-08-06T10:17:15Z</time>
      </trkpt>
      <trkpt lat="48.20927" lon="7.13279">
        <ele>567.8</ele>
        <time>2025-08-06T10:17:25Z</time>
      </trkpt>
      <trkpt lat="48.20904" lon="7.13249">
        <ele>568.2</ele>
        <time>2025-08-06T10:17:33Z</time>
      </trkpt>
      <trkpt lat="48.20893" lon="7.13222">
        <ele>568.8</ele>
        <time>2025-08-06T10:17:39Z</time>
      </trkpt>
      <trkpt lat="48.20889" lon="7.13211">
        <ele>569.2</ele>
        <time>2025-08-06T10:17:41Z</time>
      </trkpt>
      <trkpt lat="48.20884" lon="7.13198">
        <ele>569.8</ele>
        <time>2025-08-06T10:17:45Z</time>
      </trkpt>
      <trkpt lat="48.20883" lon="7.13196">
        <ele>570.2</ele>
        <time>2025-08-06T10:17:46Z</time>
      </trkpt>
      <trkpt lat="48.20882" lon="7.13185">
        <ele>570.8</ele>
        <time>2025-08-06T10:17:49Z</time>
      </trkpt>
      <trkpt lat="48.20881" lon="7.13181">
        <ele>571</ele>
        <time>2025-08-06T10:17:50Z</time>
      </trkpt>
      <trkpt lat="48.20878" lon="7.13158">
        <ele>571.8</ele>
        <time>2025-08-06T10:17:55Z</time>
      </trkpt>
      <trkpt lat="48.20876" lon="7.13144">
        <ele>572.6</ele>
        <time>2025-08-06T10:17:58Z</time>
      </trkpt>
      <trkpt lat="48.20874" lon="7.13136">
        <ele>573</ele>
        <time>2025-08-06T10:18:00Z</time>
      </trkpt>
      <trkpt lat="48.20871" lon="7.13123">
        <ele>573.6</ele>
        <time>2025-08-06T10:18:03Z</time>
      </trkpt>
      <trkpt lat="48.20869" lon="7.13115">
        <ele>574</ele>
        <time>2025-08-06T10:18:05Z</time>
      </trkpt>
      <trkpt lat="48.20863" lon="7.13094">
        <ele>575</ele>
        <time>2025-08-06T10:18:10Z</time>
      </trkpt>
      <trkpt lat="48.2086" lon="7.13085">
        <ele>575.4</ele>
        <time>2025-08-06T10:18:12Z</time>
      </trkpt>
      <trkpt lat="48.20854" lon="7.13068">
        <ele>575.8</ele>
        <time>2025-08-06T10:18:16Z</time>
      </trkpt>
      <trkpt lat="48.20849" lon="7.13055">
        <ele>576.2</ele>
        <time>2025-08-06T10:18:19Z</time>
      </trkpt>
      <trkpt lat="48.20847" lon="7.13051">
        <ele>576.4</ele>
        <time>2025-08-06T10:18:20Z</time>
      </trkpt>
      <trkpt lat="48.20833" lon="7.13024">
        <ele>577.4</ele>
        <time>2025-08-06T10:18:27Z</time>
      </trkpt>
      <trkpt lat="48.20829" lon="7.13016">
        <ele>577.6</ele>
        <time>2025-08-06T10:18:29Z</time>
      </trkpt>
      <trkpt lat="48.20819" lon="7.12998">
        <ele>578.4</ele>
        <time>2025-08-06T10:18:34Z</time>
      </trkpt>
      <trkpt lat="48.20811" lon="7.12987">
        <ele>578.6</ele>
        <time>2025-08-06T10:18:37Z</time>
      </trkpt>
      <trkpt lat="48.20796" lon="7.12967">
        <ele>579.4</ele>
        <time>2025-08-06T10:18:43Z</time>
      </trkpt>
      <trkpt lat="48.20794" lon="7.12964">
        <ele>579.6</ele>
        <time>2025-08-06T10:18:44Z</time>
      </trkpt>
      <trkpt lat="48.20775" lon="7.12945">
        <ele>580.4</ele>
        <time>2025-08-06T10:18:51Z</time>
      </trkpt>
      <trkpt lat="48.20767" lon="7.12937">
        <ele>581</ele>
        <time>2025-08-06T10:18:54Z</time>
      </trkpt>
      <trkpt lat="48.20759" lon="7.12928">
        <ele>581.6</ele>
        <time>2025-08-06T10:18:57Z</time>
      </trkpt>
      <trkpt lat="48.20746" lon="7.12915">
        <ele>582.4</ele>
        <time>2025-08-06T10:19:02Z</time>
      </trkpt>
      <trkpt lat="48.2074" lon="7.12909">
        <ele>583</ele>
        <time>2025-08-06T10:19:04Z</time>
      </trkpt>
      <trkpt lat="48.20726" lon="7.12892">
        <ele>584</ele>
        <time>2025-08-06T10:19:10Z</time>
      </trkpt>
      <trkpt lat="48.20722" lon="7.12885">
        <ele>584.6</ele>
        <time>2025-08-06T10:19:12Z</time>
      </trkpt>
      <trkpt lat="48.20716" lon="7.12879">
        <ele>585.2</ele>
        <time>2025-08-06T10:19:14Z</time>
      </trkpt>
      <trkpt lat="48.20702" lon="7.12861">
        <ele>586.2</ele>
        <time>2025-08-06T10:19:20Z</time>
      </trkpt>
      <trkpt lat="48.20691" lon="7.12849">
        <ele>587.2</ele>
        <time>2025-08-06T10:19:24Z</time>
      </trkpt>
      <trkpt lat="48.2068" lon="7.12834">
        <ele>587.8</ele>
        <time>2025-08-06T10:19:29Z</time>
      </trkpt>
      <trkpt lat="48.20675" lon="7.12829">
        <ele>588.4</ele>
        <time>2025-08-06T10:19:31Z</time>
      </trkpt>
      <trkpt lat="48.20664" lon="7.12817">
        <ele>589.4</ele>
        <time>2025-08-06T10:19:36Z</time>
      </trkpt>
      <trkpt lat="48.20662" lon="7.12815">
        <ele>589.6</ele>
        <time>2025-08-06T10:19:37Z</time>
      </trkpt>
      <trkpt lat="48.2065" lon="7.12805">
        <ele>590.4</ele>
        <time>2025-08-06T10:19:43Z</time>
      </trkpt>
      <trkpt lat="48.20646" lon="7.12801">
        <ele>590.8</ele>
        <time>2025-08-06T10:19:45Z</time>
      </trkpt>
      <trkpt lat="48.20642" lon="7.12798">
        <ele>591.6</ele>
        <time>2025-08-06T10:19:47Z</time>
      </trkpt>
      <trkpt lat="48.2063" lon="7.12785">
        <ele>592.6</ele>
        <time>2025-08-06T10:19:53Z</time>
      </trkpt>
      <trkpt lat="48.20626" lon="7.12781">
        <ele>593</ele>
        <time>2025-08-06T10:19:55Z</time>
      </trkpt>
      <trkpt lat="48.20621" lon="7.12773">
        <ele>593.6</ele>
        <time>2025-08-06T10:19:58Z</time>
      </trkpt>
      <trkpt lat="48.20611" lon="7.12762">
        <ele>594.8</ele>
        <time>2025-08-06T10:20:03Z</time>
      </trkpt>
      <trkpt lat="48.20599" lon="7.12747">
        <ele>595.8</ele>
        <time>2025-08-06T10:20:09Z</time>
      </trkpt>
      <trkpt lat="48.20595" lon="7.12742">
        <ele>596.4</ele>
        <time>2025-08-06T10:20:11Z</time>
      </trkpt>
      <trkpt lat="48.20592" lon="7.12736">
        <ele>596.8</ele>
        <time>2025-08-06T10:20:13Z</time>
      </trkpt>
      <trkpt lat="48.20585" lon="7.12726">
        <ele>597.8</ele>
        <time>2025-08-06T10:20:17Z</time>
      </trkpt>
      <trkpt lat="48.2058" lon="7.12719">
        <ele>598</ele>
        <time>2025-08-06T10:20:20Z</time>
      </trkpt>
      <trkpt lat="48.20573" lon="7.12709">
        <ele>599.4</ele>
        <time>2025-08-06T10:20:24Z</time>
      </trkpt>
      <trkpt lat="48.20569" lon="7.12704">
        <ele>599.8</ele>
        <time>2025-08-06T10:20:26Z</time>
      </trkpt>
      <trkpt lat="48.20566" lon="7.12699">
        <ele>600</ele>
        <time>2025-08-06T10:20:28Z</time>
      </trkpt>
      <trkpt lat="48.20562" lon="7.12694">
        <ele>600.6</ele>
        <time>2025-08-06T10:20:30Z</time>
      </trkpt>
      <trkpt lat="48.20549" lon="7.1268">
        <ele>601.6</ele>
        <time>2025-08-06T10:20:36Z</time>
      </trkpt>
      <trkpt lat="48.20536" lon="7.12665">
        <ele>602.6</ele>
        <time>2025-08-06T10:20:42Z</time>
      </trkpt>
      <trkpt lat="48.20526" lon="7.12653">
        <ele>603.4</ele>
        <time>2025-08-06T10:20:47Z</time>
      </trkpt>
      <trkpt lat="48.20522" lon="7.12647">
        <ele>603.8</ele>
        <time>2025-08-06T10:20:49Z</time>
      </trkpt>
      <trkpt lat="48.20516" lon="7.12635">
        <ele>604.4</ele>
        <time>2025-08-06T10:20:53Z</time>
      </trkpt>
      <trkpt lat="48.20512" lon="7.12629">
        <ele>604.8</ele>
        <time>2025-08-06T10:20:55Z</time>
      </trkpt>
      <trkpt lat="48.20503" lon="7.12613">
        <ele>606</ele>
        <time>2025-08-06T10:21:00Z</time>
      </trkpt>
      <trkpt lat="48.20502" lon="7.1261">
        <ele>606</ele>
        <time>2025-08-06T10:21:01Z</time>
      </trkpt>
      <trkpt lat="48.20497" lon="7.12602">
        <ele>607.2</ele>
        <time>2025-08-06T10:21:04Z</time>
      </trkpt>
      <trkpt lat="48.20491" lon="7.12593">
        <ele>607.8</ele>
        <time>2025-08-06T10:21:07Z</time>
      </trkpt>
      <trkpt lat="48.20488" lon="7.12587">
        <ele>608.2</ele>
        <time>2025-08-06T10:21:09Z</time>
      </trkpt>
      <trkpt lat="48.20484" lon="7.12583">
        <ele>608.8</ele>
        <time>2025-08-06T10:21:11Z</time>
      </trkpt>
      <trkpt lat="48.20479" lon="7.12575">
        <ele>609.6</ele>
        <time>2025-08-06T10:21:14Z</time>
      </trkpt>
      <trkpt lat="48.20468" lon="7.12561">
        <ele>610.6</ele>
        <time>2025-08-06T10:21:20Z</time>
      </trkpt>
      <trkpt lat="48.20464" lon="7.12557">
        <ele>611</ele>
        <time>2025-08-06T10:21:22Z</time>
      </trkpt>
      <trkpt lat="48.20456" lon="7.12547">
        <ele>611.6</ele>
        <time>2025-08-06T10:21:26Z</time>
      </trkpt>
      <trkpt lat="48.20449" lon="7.12537">
        <ele>612.6</ele>
        <time>2025-08-06T10:21:30Z</time>
      </trkpt>
      <trkpt lat="48.20448" lon="7.12534">
        <ele>612.8</ele>
        <time>2025-08-06T10:21:31Z</time>
      </trkpt>
      <trkpt lat="48.20439" lon="7.12522">
        <ele>613.8</ele>
        <time>2025-08-06T10:21:36Z</time>
      </trkpt>
      <trkpt lat="48.20435" lon="7.12519">
        <ele>614.2</ele>
        <time>2025-08-06T10:21:38Z</time>
      </trkpt>
      <trkpt lat="48.20428" lon="7.12514">
        <ele>615</ele>
        <time>2025-08-06T10:21:41Z</time>
      </trkpt>
      <trkpt lat="48.20413" lon="7.12506">
        <ele>616</ele>
        <time>2025-08-06T10:21:47Z</time>
      </trkpt>
      <trkpt lat="48.20409" lon="7.12504">
        <ele>616.4</ele>
        <time>2025-08-06T10:21:49Z</time>
      </trkpt>
      <trkpt lat="48.204" lon="7.12499">
        <ele>617</ele>
        <time>2025-08-06T10:21:53Z</time>
      </trkpt>
      <trkpt lat="48.20387" lon="7.12488">
        <ele>617.8</ele>
        <time>2025-08-06T10:21:59Z</time>
      </trkpt>
      <trkpt lat="48.20383" lon="7.12483">
        <ele>618.6</ele>
        <time>2025-08-06T10:22:01Z</time>
      </trkpt>
      <trkpt lat="48.20371" lon="7.12468">
        <ele>619.6</ele>
        <time>2025-08-06T10:22:07Z</time>
      </trkpt>
      <trkpt lat="48.20368" lon="7.12461">
        <ele>619.8</ele>
        <time>2025-08-06T10:22:09Z</time>
      </trkpt>
      <trkpt lat="48.20362" lon="7.12447">
        <ele>620.6</ele>
        <time>2025-08-06T10:22:13Z</time>
      </trkpt>
      <trkpt lat="48.20357" lon="7.12433">
        <ele>621.8</ele>
        <time>2025-08-06T10:22:17Z</time>
      </trkpt>
      <trkpt lat="48.20352" lon="7.1242">
        <ele>623</ele>
        <time>2025-08-06T10:22:21Z</time>
      </trkpt>
      <trkpt lat="48.20347" lon="7.12411">
        <ele>623.6</ele>
        <time>2025-08-06T10:22:24Z</time>
      </trkpt>
      <trkpt lat="48.20343" lon="7.12406">
        <ele>624</ele>
        <time>2025-08-06T10:22:26Z</time>
      </trkpt>
      <trkpt lat="48.20331" lon="7.12394">
        <ele>625</ele>
        <time>2025-08-06T10:22:32Z</time>
      </trkpt>
      <trkpt lat="48.20317" lon="7.12385">
        <ele>626.4</ele>
        <time>2025-08-06T10:22:38Z</time>
      </trkpt>
      <trkpt lat="48.2031" lon="7.12382">
        <ele>626.8</ele>
        <time>2025-08-06T10:22:41Z</time>
      </trkpt>
      <trkpt lat="48.20305" lon="7.1238">
        <ele>627.4</ele>
        <time>2025-08-06T10:22:43Z</time>
      </trkpt>
      <trkpt lat="48.20302" lon="7.1238">
        <ele>627.4</ele>
        <time>2025-08-06T10:22:44Z</time>
      </trkpt>
      <trkpt lat="48.20293" lon="7.12374">
        <ele>628.4</ele>
        <time>2025-08-06T10:22:48Z</time>
      </trkpt>
      <trkpt lat="48.20286" lon="7.12371">
        <ele>628.6</ele>
        <time>2025-08-06T10:22:51Z</time>
      </trkpt>
      <trkpt lat="48.20277" lon="7.12366">
        <ele>629.4</ele>
        <time>2025-08-06T10:22:55Z</time>
      </trkpt>
      <trkpt lat="48.20268" lon="7.1236">
        <ele>630</ele>
        <time>2025-08-06T10:22:59Z</time>
      </trkpt>
      <trkpt lat="48.20263" lon="7.12358">
        <ele>630.4</ele>
        <time>2025-08-06T10:23:01Z</time>
      </trkpt>
      <trkpt lat="48.20252" lon="7.12351">
        <ele>631.6</ele>
        <time>2025-08-06T10:23:06Z</time>
      </trkpt>
      <trkpt lat="48.20248" lon="7.12347">
        <ele>632</ele>
        <time>2025-08-06T10:23:08Z</time>
      </trkpt>
      <trkpt lat="48.20241" lon="7.12343">
        <ele>632.8</ele>
        <time>2025-08-06T10:23:11Z</time>
      </trkpt>
      <trkpt lat="48.20229" lon="7.12332">
        <ele>634</ele>
        <time>2025-08-06T10:23:16Z</time>
      </trkpt>
      <trkpt lat="48.20224" lon="7.12329">
        <ele>634.6</ele>
        <time>2025-08-06T10:23:18Z</time>
      </trkpt>
      <trkpt lat="48.2022" lon="7.12326">
        <ele>635</ele>
        <time>2025-08-06T10:23:20Z</time>
      </trkpt>
      <trkpt lat="48.20207" lon="7.12319">
        <ele>636.2</ele>
        <time>2025-08-06T10:23:25Z</time>
      </trkpt>
      <trkpt lat="48.20198" lon="7.12313">
        <ele>637.2</ele>
        <time>2025-08-06T10:23:29Z</time>
      </trkpt>
      <trkpt lat="48.20191" lon="7.12307">
        <ele>638</ele>
        <time>2025-08-06T10:23:32Z</time>
      </trkpt>
      <trkpt lat="48.20187" lon="7.12303">
        <ele>638.4</ele>
        <time>2025-08-06T10:23:34Z</time>
      </trkpt>
      <trkpt lat="48.20176" lon="7.12296">
        <ele>639.2</ele>
        <time>2025-08-06T10:23:39Z</time>
      </trkpt>
      <trkpt lat="48.20172" lon="7.12292">
        <ele>639.6</ele>
        <time>2025-08-06T10:23:41Z</time>
      </trkpt>
      <trkpt lat="48.20165" lon="7.12287">
        <ele>640.2</ele>
        <time>2025-08-06T10:23:44Z</time>
      </trkpt>
      <trkpt lat="48.20161" lon="7.12283">
        <ele>640.6</ele>
        <time>2025-08-06T10:23:46Z</time>
      </trkpt>
      <trkpt lat="48.20155" lon="7.12277">
        <ele>641.2</ele>
        <time>2025-08-06T10:23:49Z</time>
      </trkpt>
      <trkpt lat="48.2014" lon="7.12264">
        <ele>642.4</ele>
        <time>2025-08-06T10:23:56Z</time>
      </trkpt>
      <trkpt lat="48.20135" lon="7.1226">
        <ele>643.2</ele>
        <time>2025-08-06T10:23:58Z</time>
      </trkpt>
      <trkpt lat="48.20128" lon="7.12256">
        <ele>643.6</ele>
        <time>2025-08-06T10:24:01Z</time>
      </trkpt>
      <trkpt lat="48.20119" lon="7.12249">
        <ele>644.6</ele>
        <time>2025-08-06T10:24:05Z</time>
      </trkpt>
      <trkpt lat="48.20105" lon="7.12238">
        <ele>645.8</ele>
        <time>2025-08-06T10:24:11Z</time>
      </trkpt>
      <trkpt lat="48.201" lon="7.12234">
        <ele>646</ele>
        <time>2025-08-06T10:24:13Z</time>
      </trkpt>
      <trkpt lat="48.20093" lon="7.12227">
        <ele>646.8</ele>
        <time>2025-08-06T10:24:16Z</time>
      </trkpt>
      <trkpt lat="48.20084" lon="7.12217">
        <ele>648</ele>
        <time>2025-08-06T10:24:20Z</time>
      </trkpt>
      <trkpt lat="48.20078" lon="7.12209">
        <ele>648.6</ele>
        <time>2025-08-06T10:24:23Z</time>
      </trkpt>
      <trkpt lat="48.20073" lon="7.122">
        <ele>649</ele>
        <time>2025-08-06T10:24:26Z</time>
      </trkpt>
      <trkpt lat="48.20068" lon="7.12187">
        <ele>650.2</ele>
        <time>2025-08-06T10:24:30Z</time>
      </trkpt>
      <trkpt lat="48.20066" lon="7.12184">
        <ele>650.6</ele>
        <time>2025-08-06T10:24:31Z</time>
      </trkpt>
      <trkpt lat="48.20063" lon="7.12177">
        <ele>651.2</ele>
        <time>2025-08-06T10:24:33Z</time>
      </trkpt>
      <trkpt lat="48.20054" lon="7.12164">
        <ele>652.2</ele>
        <time>2025-08-06T10:24:38Z</time>
      </trkpt>
      <trkpt lat="48.20051" lon="7.12162">
        <ele>652.2</ele>
        <time>2025-08-06T10:24:39Z</time>
      </trkpt>
      <trkpt lat="48.20039" lon="7.12157">
        <ele>653.6</ele>
        <time>2025-08-06T10:24:44Z</time>
      </trkpt>
      <trkpt lat="48.20033" lon="7.12157">
        <ele>654</ele>
        <time>2025-08-06T10:24:46Z</time>
      </trkpt>
      <trkpt lat="48.20019" lon="7.1216">
        <ele>654.8</ele>
        <time>2025-08-06T10:24:51Z</time>
      </trkpt>
      <trkpt lat="48.20012" lon="7.12165">
        <ele>655.6</ele>
        <time>2025-08-06T10:24:54Z</time>
      </trkpt>
      <trkpt lat="48.20007" lon="7.1217">
        <ele>656</ele>
        <time>2025-08-06T10:24:56Z</time>
      </trkpt>
      <trkpt lat="48.19999" lon="7.12185">
        <ele>656.8</ele>
        <time>2025-08-06T10:25:01Z</time>
      </trkpt>
      <trkpt lat="48.19995" lon="7.122">
        <ele>657</ele>
        <time>2025-08-06T10:25:05Z</time>
      </trkpt>
      <trkpt lat="48.19996" lon="7.12213">
        <ele>657.4</ele>
        <time>2025-08-06T10:25:08Z</time>
      </trkpt>
      <trkpt lat="48.19997" lon="7.12225">
        <ele>657.8</ele>
        <time>2025-08-06T10:25:11Z</time>
      </trkpt>
      <trkpt lat="48.19998" lon="7.12233">
        <ele>658.4</ele>
        <time>2025-08-06T10:25:13Z</time>
      </trkpt>
      <trkpt lat="48.20001" lon="7.12243">
        <ele>658.8</ele>
        <time>2025-08-06T10:25:16Z</time>
      </trkpt>
      <trkpt lat="48.20005" lon="7.12249">
        <ele>659.4</ele>
        <time>2025-08-06T10:25:18Z</time>
      </trkpt>
      <trkpt lat="48.20007" lon="7.12252">
        <ele>660</ele>
        <time>2025-08-06T10:25:19Z</time>
      </trkpt>
      <trkpt lat="48.20011" lon="7.1226">
        <ele>660.6</ele>
        <time>2025-08-06T10:25:22Z</time>
      </trkpt>
      <trkpt lat="48.20016" lon="7.12265">
        <ele>661.2</ele>
        <time>2025-08-06T10:25:24Z</time>
      </trkpt>
      <trkpt lat="48.2002" lon="7.12273">
        <ele>661.8</ele>
        <time>2025-08-06T10:25:27Z</time>
      </trkpt>
      <trkpt lat="48.20023" lon="7.12279">
        <ele>662.4</ele>
        <time>2025-08-06T10:25:29Z</time>
      </trkpt>
      <trkpt lat="48.20029" lon="7.1229">
        <ele>663</ele>
        <time>2025-08-06T10:25:33Z</time>
      </trkpt>
      <trkpt lat="48.20033" lon="7.123">
        <ele>663.6</ele>
        <time>2025-08-06T10:25:36Z</time>
      </trkpt>
      <trkpt lat="48.20039" lon="7.12314">
        <ele>664.2</ele>
        <time>2025-08-06T10:25:40Z</time>
      </trkpt>
      <trkpt lat="48.20041" lon="7.1232">
        <ele>664.4</ele>
        <time>2025-08-06T10:25:42Z</time>
      </trkpt>
      <trkpt lat="48.20043" lon="7.12324">
        <ele>664.6</ele>
        <time>2025-08-06T10:25:43Z</time>
      </trkpt>
      <trkpt lat="48.20043" lon="7.12328">
        <ele>664.8</ele>
        <time>2025-08-06T10:25:44Z</time>
      </trkpt>
      <trkpt lat="48.2005" lon="7.12349">
        <ele>665.8</ele>
        <time>2025-08-06T10:25:50Z</time>
      </trkpt>
      <trkpt lat="48.20052" lon="7.12358">
        <ele>666.4</ele>
        <time>2025-08-06T10:25:53Z</time>
      </trkpt>
      <trkpt lat="48.20055" lon="7.12365">
        <ele>667</ele>
        <time>2025-08-06T10:25:55Z</time>
      </trkpt>
      <trkpt lat="48.20057" lon="7.12367">
        <ele>667.2</ele>
        <time>2025-08-06T10:25:56Z</time>
      </trkpt>
      <trkpt lat="48.20062" lon="7.12374">
        <ele>667.6</ele>
        <time>2025-08-06T10:25:58Z</time>
      </trkpt>
      <trkpt lat="48.20062" lon="7.12378">
        <ele>668</ele>
        <time>2025-08-06T10:25:59Z</time>
      </trkpt>
      <trkpt lat="48.20065" lon="7.12387">
        <ele>668.6</ele>
        <time>2025-08-06T10:26:02Z</time>
      </trkpt>
      <trkpt lat="48.20071" lon="7.12398">
        <ele>669</ele>
        <time>2025-08-06T10:26:05Z</time>
      </trkpt>
      <trkpt lat="48.20077" lon="7.12408">
        <ele>669.4</ele>
        <time>2025-08-06T10:26:08Z</time>
      </trkpt>
      <trkpt lat="48.20082" lon="7.12416">
        <ele>670</ele>
        <time>2025-08-06T10:26:11Z</time>
      </trkpt>
      <trkpt lat="48.20085" lon="7.12424">
        <ele>670.2</ele>
        <time>2025-08-06T10:26:13Z</time>
      </trkpt>
      <trkpt lat="48.20093" lon="7.12436">
        <ele>671</ele>
        <time>2025-08-06T10:26:18Z</time>
      </trkpt>
      <trkpt lat="48.20095" lon="7.12439">
        <ele>671.2</ele>
        <time>2025-08-06T10:26:19Z</time>
      </trkpt>
      <trkpt lat="48.20096" lon="7.12442">
        <ele>671.8</ele>
        <time>2025-08-06T10:26:20Z</time>
      </trkpt>
      <trkpt lat="48.20098" lon="7.12445">
        <ele>672</ele>
        <time>2025-08-06T10:26:21Z</time>
      </trkpt>
      <trkpt lat="48.20104" lon="7.12457">
        <ele>672.4</ele>
        <time>2025-08-06T10:26:25Z</time>
      </trkpt>
      <trkpt lat="48.20113" lon="7.12473">
        <ele>673.2</ele>
        <time>2025-08-06T10:26:30Z</time>
      </trkpt>
      <trkpt lat="48.20118" lon="7.12486">
        <ele>674</ele>
        <time>2025-08-06T10:26:34Z</time>
      </trkpt>
      <trkpt lat="48.20119" lon="7.12489">
        <ele>674.2</ele>
        <time>2025-08-06T10:26:35Z</time>
      </trkpt>
      <trkpt lat="48.20122" lon="7.12496">
        <ele>674.8</ele>
        <time>2025-08-06T10:26:37Z</time>
      </trkpt>
      <trkpt lat="48.20123" lon="7.12499">
        <ele>675</ele>
        <time>2025-08-06T10:26:38Z</time>
      </trkpt>
      <trkpt lat="48.20125" lon="7.12502">
        <ele>675.2</ele>
        <time>2025-08-06T10:26:39Z</time>
      </trkpt>
      <trkpt lat="48.20126" lon="7.12504">
        <ele>675.4</ele>
        <time>2025-08-06T10:26:40Z</time>
      </trkpt>
      <trkpt lat="48.20132" lon="7.12519">
        <ele>676.6</ele>
        <time>2025-08-06T10:26:45Z</time>
      </trkpt>
      <trkpt lat="48.20139" lon="7.12544">
        <ele>677.4</ele>
        <time>2025-08-06T10:26:52Z</time>
      </trkpt>
      <trkpt lat="48.2014" lon="7.12548">
        <ele>677.6</ele>
        <time>2025-08-06T10:26:53Z</time>
      </trkpt>
      <trkpt lat="48.2014" lon="7.12555">
        <ele>678</ele>
        <time>2025-08-06T10:26:55Z</time>
      </trkpt>
      <trkpt lat="48.2014" lon="7.12566">
        <ele>678.4</ele>
        <time>2025-08-06T10:26:58Z</time>
      </trkpt>
      <trkpt lat="48.20138" lon="7.12574">
        <ele>678.8</ele>
        <time>2025-08-06T10:27:00Z</time>
      </trkpt>
      <trkpt lat="48.20136" lon="7.12578">
        <ele>679</ele>
        <time>2025-08-06T10:27:01Z</time>
      </trkpt>
      <trkpt lat="48.20132" lon="7.12583">
        <ele>679.4</ele>
        <time>2025-08-06T10:27:03Z</time>
      </trkpt>
      <trkpt lat="48.20126" lon="7.12587">
        <ele>679.8</ele>
        <time>2025-08-06T10:27:05Z</time>
      </trkpt>
      <trkpt lat="48.20119" lon="7.12599">
        <ele>680.4</ele>
        <time>2025-08-06T10:27:09Z</time>
      </trkpt>
      <trkpt lat="48.20115" lon="7.12602">
        <ele>680.8</ele>
        <time>2025-08-06T10:27:11Z</time>
      </trkpt>
      <trkpt lat="48.2011" lon="7.12606">
        <ele>681.6</ele>
        <time>2025-08-06T10:27:14Z</time>
      </trkpt>
      <trkpt lat="48.20108" lon="7.12607">
        <ele>682</ele>
        <time>2025-08-06T10:27:15Z</time>
      </trkpt>
      <trkpt lat="48.20099" lon="7.12615">
        <ele>682.8</ele>
        <time>2025-08-06T10:27:19Z</time>
      </trkpt>
      <trkpt lat="48.20097" lon="7.12618">
        <ele>682.8</ele>
        <time>2025-08-06T10:27:20Z</time>
      </trkpt>
      <trkpt lat="48.20091" lon="7.12632">
        <ele>683.6</ele>
        <time>2025-08-06T10:27:24Z</time>
      </trkpt>
      <trkpt lat="48.2009" lon="7.1264">
        <ele>684</ele>
        <time>2025-08-06T10:27:26Z</time>
      </trkpt>
      <trkpt lat="48.20092" lon="7.12658">
        <ele>684.6</ele>
        <time>2025-08-06T10:27:30Z</time>
      </trkpt>
      <trkpt lat="48.20093" lon="7.12661">
        <ele>685</ele>
        <time>2025-08-06T10:27:31Z</time>
      </trkpt>
      <trkpt lat="48.20096" lon="7.12665">
        <ele>685.2</ele>
        <time>2025-08-06T10:27:32Z</time>
      </trkpt>
      <trkpt lat="48.20103" lon="7.12676">
        <ele>685.8</ele>
        <time>2025-08-06T10:27:35Z</time>
      </trkpt>
      <trkpt lat="48.20107" lon="7.12683">
        <ele>686.2</ele>
        <time>2025-08-06T10:27:37Z</time>
      </trkpt>
      <trkpt lat="48.20109" lon="7.12686">
        <ele>686.6</ele>
        <time>2025-08-06T10:27:38Z</time>
      </trkpt>
      <trkpt lat="48.20113" lon="7.12693">
        <ele>687</ele>
        <time>2025-08-06T10:27:40Z</time>
      </trkpt>
      <trkpt lat="48.20116" lon="7.12696">
        <ele>687.4</ele>
        <time>2025-08-06T10:27:41Z</time>
      </trkpt>
      <trkpt lat="48.20124" lon="7.12716">
        <ele>688.2</ele>
        <time>2025-08-06T10:27:46Z</time>
      </trkpt>
      <trkpt lat="48.20123" lon="7.12744">
        <ele>689.4</ele>
        <time>2025-08-06T10:27:53Z</time>
      </trkpt>
      <trkpt lat="48.2012" lon="7.12764">
        <ele>690.4</ele>
        <time>2025-08-06T10:27:58Z</time>
      </trkpt>
      <trkpt lat="48.20116" lon="7.12776">
        <ele>691.6</ele>
        <time>2025-08-06T10:28:01Z</time>
      </trkpt>
      <trkpt lat="48.20114" lon="7.12784">
        <ele>692.2</ele>
        <time>2025-08-06T10:28:03Z</time>
      </trkpt>
      <trkpt lat="48.20112" lon="7.12787">
        <ele>692.6</ele>
        <time>2025-08-06T10:28:04Z</time>
      </trkpt>
      <trkpt lat="48.20108" lon="7.12797">
        <ele>693.6</ele>
        <time>2025-08-06T10:28:07Z</time>
      </trkpt>
      <trkpt lat="48.20106" lon="7.12799">
        <ele>693.8</ele>
        <time>2025-08-06T10:28:08Z</time>
      </trkpt>
      <trkpt lat="48.20101" lon="7.12812">
        <ele>694.4</ele>
        <time>2025-08-06T10:28:12Z</time>
      </trkpt>
      <trkpt lat="48.20099" lon="7.12815">
        <ele>694.6</ele>
        <time>2025-08-06T10:28:13Z</time>
      </trkpt>
      <trkpt lat="48.20098" lon="7.12819">
        <ele>694.8</ele>
        <time>2025-08-06T10:28:14Z</time>
      </trkpt>
      <trkpt lat="48.20094" lon="7.12825">
        <ele>695.4</ele>
        <time>2025-08-06T10:28:16Z</time>
      </trkpt>
      <trkpt lat="48.20091" lon="7.1283">
        <ele>695.8</ele>
        <time>2025-08-06T10:28:18Z</time>
      </trkpt>
      <trkpt lat="48.20087" lon="7.12841">
        <ele>696.6</ele>
        <time>2025-08-06T10:28:21Z</time>
      </trkpt>
      <trkpt lat="48.20085" lon="7.12848">
        <ele>697</ele>
        <time>2025-08-06T10:28:23Z</time>
      </trkpt>
      <trkpt lat="48.20083" lon="7.12859">
        <ele>698</ele>
        <time>2025-08-06T10:28:27Z</time>
      </trkpt>
      <trkpt lat="48.20084" lon="7.12864">
        <ele>698.2</ele>
        <time>2025-08-06T10:28:28Z</time>
      </trkpt>
      <trkpt lat="48.20089" lon="7.12876">
        <ele>698.8</ele>
        <time>2025-08-06T10:28:31Z</time>
      </trkpt>
      <trkpt lat="48.20095" lon="7.12879">
        <ele>699.2</ele>
        <time>2025-08-06T10:28:33Z</time>
      </trkpt>
      <trkpt lat="48.20105" lon="7.12875">
        <ele>699.8</ele>
        <time>2025-08-06T10:28:37Z</time>
      </trkpt>
      <trkpt lat="48.20113" lon="7.12872">
        <ele>700.2</ele>
        <time>2025-08-06T10:28:40Z</time>
      </trkpt>
      <trkpt lat="48.20123" lon="7.12869">
        <ele>700.8</ele>
        <time>2025-08-06T10:28:44Z</time>
      </trkpt>
      <trkpt lat="48.2013" lon="7.12866">
        <ele>701.2</ele>
        <time>2025-08-06T10:28:47Z</time>
      </trkpt>
      <trkpt lat="48.20141" lon="7.12859">
        <ele>702.4</ele>
        <time>2025-08-06T10:28:52Z</time>
      </trkpt>
      <trkpt lat="48.20155" lon="7.12846">
        <ele>703.4</ele>
        <time>2025-08-06T10:28:58Z</time>
      </trkpt>
      <trkpt lat="48.20157" lon="7.12844">
        <ele>703.6</ele>
        <time>2025-08-06T10:28:59Z</time>
      </trkpt>
      <trkpt lat="48.20169" lon="7.12836">
        <ele>704.2</ele>
        <time>2025-08-06T10:29:04Z</time>
      </trkpt>
      <trkpt lat="48.20171" lon="7.12835">
        <ele>704.4</ele>
        <time>2025-08-06T10:29:05Z</time>
      </trkpt>
      <trkpt lat="48.20187" lon="7.12825">
        <ele>705.8</ele>
        <time>2025-08-06T10:29:11Z</time>
      </trkpt>
      <trkpt lat="48.2019" lon="7.12824">
        <ele>705.8</ele>
        <time>2025-08-06T10:29:12Z</time>
      </trkpt>
      <trkpt lat="48.202" lon="7.12817">
        <ele>707</ele>
        <time>2025-08-06T10:29:16Z</time>
      </trkpt>
      <trkpt lat="48.2021" lon="7.12813">
        <ele>707.6</ele>
        <time>2025-08-06T10:29:20Z</time>
      </trkpt>
      <trkpt lat="48.20218" lon="7.12816">
        <ele>708</ele>
        <time>2025-08-06T10:29:23Z</time>
      </trkpt>
      <trkpt lat="48.20223" lon="7.12818">
        <ele>708.2</ele>
        <time>2025-08-06T10:29:25Z</time>
      </trkpt>
      <trkpt lat="48.20225" lon="7.12819">
        <ele>708.4</ele>
        <time>2025-08-06T10:29:26Z</time>
      </trkpt>
      <trkpt lat="48.20232" lon="7.12825">
        <ele>709.2</ele>
        <time>2025-08-06T10:29:29Z</time>
      </trkpt>
      <trkpt lat="48.20239" lon="7.12833">
        <ele>710.2</ele>
        <time>2025-08-06T10:29:33Z</time>
      </trkpt>
      <trkpt lat="48.20241" lon="7.12836">
        <ele>710.6</ele>
        <time>2025-08-06T10:29:34Z</time>
      </trkpt>
      <trkpt lat="48.20245" lon="7.1285">
        <ele>711.2</ele>
        <time>2025-08-06T10:29:38Z</time>
      </trkpt>
      <trkpt lat="48.20246" lon="7.12853">
        <ele>711.6</ele>
        <time>2025-08-06T10:29:39Z</time>
      </trkpt>
      <trkpt lat="48.2025" lon="7.12866">
        <ele>712.2</ele>
        <time>2025-08-06T10:29:43Z</time>
      </trkpt>
      <trkpt lat="48.20251" lon="7.12869">
        <ele>712.6</ele>
        <time>2025-08-06T10:29:44Z</time>
      </trkpt>
      <trkpt lat="48.20253" lon="7.12872">
        <ele>712.8</ele>
        <time>2025-08-06T10:29:45Z</time>
      </trkpt>
      <trkpt lat="48.20256" lon="7.12879">
        <ele>713.2</ele>
        <time>2025-08-06T10:29:47Z</time>
      </trkpt>
      <trkpt lat="48.20261" lon="7.1289">
        <ele>713.6</ele>
        <time>2025-08-06T10:29:50Z</time>
      </trkpt>
      <trkpt lat="48.20264" lon="7.12897">
        <ele>714</ele>
        <time>2025-08-06T10:29:52Z</time>
      </trkpt>
      <trkpt lat="48.20269" lon="7.12907">
        <ele>714.8</ele>
        <time>2025-08-06T10:29:55Z</time>
      </trkpt>
      <trkpt lat="48.20274" lon="7.12917">
        <ele>715.4</ele>
        <time>2025-08-06T10:29:58Z</time>
      </trkpt>
      <trkpt lat="48.20278" lon="7.12927">
        <ele>715.8</ele>
        <time>2025-08-06T10:30:01Z</time>
      </trkpt>
      <trkpt lat="48.20285" lon="7.12936">
        <ele>716</ele>
        <time>2025-08-06T10:30:04Z</time>
      </trkpt>
      <trkpt lat="48.2029" lon="7.12946">
        <ele>717</ele>
        <time>2025-08-06T10:30:07Z</time>
      </trkpt>
      <trkpt lat="48.20294" lon="7.12962">
        <ele>717.8</ele>
        <time>2025-08-06T10:30:11Z</time>
      </trkpt>
      <trkpt lat="48.20295" lon="7.12968">
        <ele>718.4</ele>
        <time>2025-08-06T10:30:13Z</time>
      </trkpt>
      <trkpt lat="48.20295" lon="7.12971">
        <ele>718.4</ele>
        <time>2025-08-06T10:30:14Z</time>
      </trkpt>
      <trkpt lat="48.20296" lon="7.12977">
        <ele>718.8</ele>
        <time>2025-08-06T10:30:16Z</time>
      </trkpt>
      <trkpt lat="48.20296" lon="7.12984">
        <ele>719.4</ele>
        <time>2025-08-06T10:30:18Z</time>
      </trkpt>
      <trkpt lat="48.20297" lon="7.12987">
        <ele>719.8</ele>
        <time>2025-08-06T10:30:19Z</time>
      </trkpt>
      <trkpt lat="48.20297" lon="7.1299">
        <ele>720</ele>
        <time>2025-08-06T10:30:20Z</time>
      </trkpt>
      <trkpt lat="48.20295" lon="7.13006">
        <ele>720.6</ele>
        <time>2025-08-06T10:30:25Z</time>
      </trkpt>
      <trkpt lat="48.20295" lon="7.13012">
        <ele>721.2</ele>
        <time>2025-08-06T10:30:27Z</time>
      </trkpt>
      <trkpt lat="48.20294" lon="7.13025">
        <ele>721.6</ele>
        <time>2025-08-06T10:30:31Z</time>
      </trkpt>
      <trkpt lat="48.20296" lon="7.13037">
        <ele>722.4</ele>
        <time>2025-08-06T10:30:34Z</time>
      </trkpt>
      <trkpt lat="48.20296" lon="7.13047">
        <ele>723</ele>
        <time>2025-08-06T10:30:36Z</time>
      </trkpt>
      <trkpt lat="48.20298" lon="7.13063">
        <ele>723.8</ele>
        <time>2025-08-06T10:30:40Z</time>
      </trkpt>
      <trkpt lat="48.20299" lon="7.13066">
        <ele>724</ele>
        <time>2025-08-06T10:30:41Z</time>
      </trkpt>
      <trkpt lat="48.20302" lon="7.13086">
        <ele>725.2</ele>
        <time>2025-08-06T10:30:46Z</time>
      </trkpt>
      <trkpt lat="48.20304" lon="7.1309">
        <ele>725.2</ele>
        <time>2025-08-06T10:30:47Z</time>
      </trkpt>
      <trkpt lat="48.20311" lon="7.13105">
        <ele>726.2</ele>
        <time>2025-08-06T10:30:51Z</time>
      </trkpt>
      <trkpt lat="48.20313" lon="7.13108">
        <ele>726.4</ele>
        <time>2025-08-06T10:30:52Z</time>
      </trkpt>
      <trkpt lat="48.20323" lon="7.13127">
        <ele>727.4</ele>
        <time>2025-08-06T10:30:58Z</time>
      </trkpt>
      <trkpt lat="48.20339" lon="7.13143">
        <ele>728.2</ele>
        <time>2025-08-06T10:31:05Z</time>
      </trkpt>
      <trkpt lat="48.20341" lon="7.13144">
        <ele>728.4</ele>
        <time>2025-08-06T10:31:06Z</time>
      </trkpt>
      <trkpt lat="48.20354" lon="7.13153">
        <ele>729.4</ele>
        <time>2025-08-06T10:31:11Z</time>
      </trkpt>
      <trkpt lat="48.20357" lon="7.13153">
        <ele>729.6</ele>
        <time>2025-08-06T10:31:12Z</time>
      </trkpt>
      <trkpt lat="48.2037" lon="7.13157">
        <ele>730.6</ele>
        <time>2025-08-06T10:31:17Z</time>
      </trkpt>
      <trkpt lat="48.20375" lon="7.1316">
        <ele>730.6</ele>
        <time>2025-08-06T10:31:19Z</time>
      </trkpt>
      <trkpt lat="48.20385" lon="7.13165">
        <ele>731.2</ele>
        <time>2025-08-06T10:31:23Z</time>
      </trkpt>
      <trkpt lat="48.20392" lon="7.1317">
        <ele>731.8</ele>
        <time>2025-08-06T10:31:26Z</time>
      </trkpt>
      <trkpt lat="48.20405" lon="7.1318">
        <ele>732.8</ele>
        <time>2025-08-06T10:31:31Z</time>
      </trkpt>
      <trkpt lat="48.20408" lon="7.13182">
        <ele>732.8</ele>
        <time>2025-08-06T10:31:32Z</time>
      </trkpt>
      <trkpt lat="48.20422" lon="7.13195">
        <ele>734</ele>
        <time>2025-08-06T10:31:38Z</time>
      </trkpt>
      <trkpt lat="48.20423" lon="7.13198">
        <ele>734</ele>
        <time>2025-08-06T10:31:39Z</time>
      </trkpt>
      <trkpt lat="48.20431" lon="7.13215">
        <ele>734.6</ele>
        <time>2025-08-06T10:31:44Z</time>
      </trkpt>
      <trkpt lat="48.20435" lon="7.13222">
        <ele>735.2</ele>
        <time>2025-08-06T10:31:46Z</time>
      </trkpt>
      <trkpt lat="48.20442" lon="7.13231">
        <ele>735.6</ele>
        <time>2025-08-06T10:31:49Z</time>
      </trkpt>
      <trkpt lat="48.20448" lon="7.1324">
        <ele>736.2</ele>
        <time>2025-08-06T10:31:52Z</time>
      </trkpt>
      <trkpt lat="48.20461" lon="7.13255">
        <ele>737.2</ele>
        <time>2025-08-06T10:31:58Z</time>
      </trkpt>
      <trkpt lat="48.20466" lon="7.13263">
        <ele>738.4</ele>
        <time>2025-08-06T10:32:01Z</time>
      </trkpt>
      <trkpt lat="48.20479" lon="7.13278">
        <ele>739.2</ele>
        <time>2025-08-06T10:32:06Z</time>
      </trkpt>
      <trkpt lat="48.20482" lon="7.13281">
        <ele>739.4</ele>
        <time>2025-08-06T10:32:07Z</time>
      </trkpt>
      <trkpt lat="48.20493" lon="7.13295">
        <ele>740.4</ele>
        <time>2025-08-06T10:32:12Z</time>
      </trkpt>
      <trkpt lat="48.20509" lon="7.13317">
        <ele>741.6</ele>
        <time>2025-08-06T10:32:19Z</time>
      </trkpt>
      <trkpt lat="48.2051" lon="7.1332">
        <ele>741.6</ele>
        <time>2025-08-06T10:32:20Z</time>
      </trkpt>
      <trkpt lat="48.20519" lon="7.13333">
        <ele>742.6</ele>
        <time>2025-08-06T10:32:24Z</time>
      </trkpt>
      <trkpt lat="48.2053" lon="7.13347">
        <ele>743.8</ele>
        <time>2025-08-06T10:32:29Z</time>
      </trkpt>
      <trkpt lat="48.20538" lon="7.1336">
        <ele>745</ele>
        <time>2025-08-06T10:32:33Z</time>
      </trkpt>
      <trkpt lat="48.20544" lon="7.13369">
        <ele>745.6</ele>
        <time>2025-08-06T10:32:36Z</time>
      </trkpt>
      <trkpt lat="48.20548" lon="7.13376">
        <ele>746</ele>
        <time>2025-08-06T10:32:38Z</time>
      </trkpt>
      <trkpt lat="48.20549" lon="7.13379">
        <ele>746</ele>
        <time>2025-08-06T10:32:39Z</time>
      </trkpt>
      <trkpt lat="48.20556" lon="7.13394">
        <ele>746.6</ele>
        <time>2025-08-06T10:32:43Z</time>
      </trkpt>
      <trkpt lat="48.20564" lon="7.13407">
        <ele>747.2</ele>
        <time>2025-08-06T10:32:47Z</time>
      </trkpt>
      <trkpt lat="48.20568" lon="7.13415">
        <ele>747.4</ele>
        <time>2025-08-06T10:32:49Z</time>
      </trkpt>
      <trkpt lat="48.20575" lon="7.13432">
        <ele>748.2</ele>
        <time>2025-08-06T10:32:53Z</time>
      </trkpt>
      <trkpt lat="48.20582" lon="7.13448">
        <ele>749.2</ele>
        <time>2025-08-06T10:32:57Z</time>
      </trkpt>
      <trkpt lat="48.20585" lon="7.13456">
        <ele>749.6</ele>
        <time>2025-08-06T10:32:59Z</time>
      </trkpt>
      <trkpt lat="48.20593" lon="7.1347">
        <ele>750.2</ele>
        <time>2025-08-06T10:33:03Z</time>
      </trkpt>
      <trkpt lat="48.20604" lon="7.13488">
        <ele>751</ele>
        <time>2025-08-06T10:33:08Z</time>
      </trkpt>
      <trkpt lat="48.20615" lon="7.13508">
        <ele>751.2</ele>
        <time>2025-08-06T10:33:13Z</time>
      </trkpt>
      <trkpt lat="48.20616" lon="7.13512">
        <ele>751.4</ele>
        <time>2025-08-06T10:33:14Z</time>
      </trkpt>
      <trkpt lat="48.20618" lon="7.13522">
        <ele>751.4</ele>
        <time>2025-08-06T10:33:16Z</time>
      </trkpt>
      <trkpt lat="48.20615" lon="7.13531">
        <ele>751.6</ele>
        <time>2025-08-06T10:33:18Z</time>
      </trkpt>
      <trkpt lat="48.2061" lon="7.13537">
        <ele>751.8</ele>
        <time>2025-08-06T10:33:20Z</time>
      </trkpt>
      <trkpt lat="48.20604" lon="7.13536">
        <ele>752.2</ele>
        <time>2025-08-06T10:33:22Z</time>
      </trkpt>
      <trkpt lat="48.206" lon="7.13534">
        <ele>752.4</ele>
        <time>2025-08-06T10:33:23Z</time>
      </trkpt>
      <trkpt lat="48.20593" lon="7.13522">
        <ele>753.2</ele>
        <time>2025-08-06T10:33:26Z</time>
      </trkpt>
      <trkpt lat="48.20589" lon="7.13509">
        <ele>753.6</ele>
        <time>2025-08-06T10:33:29Z</time>
      </trkpt>
      <trkpt lat="48.20586" lon="7.13494">
        <ele>754.2</ele>
        <time>2025-08-06T10:33:32Z</time>
      </trkpt>
      <trkpt lat="48.20579" lon="7.13477">
        <ele>754.8</ele>
        <time>2025-08-06T10:33:36Z</time>
      </trkpt>
      <trkpt lat="48.20573" lon="7.13467">
        <ele>755</ele>
        <time>2025-08-06T10:33:39Z</time>
      </trkpt>
      <trkpt lat="48.20562" lon="7.13452">
        <ele>755.8</ele>
        <time>2025-08-06T10:33:44Z</time>
      </trkpt>
      <trkpt lat="48.2056" lon="7.13449">
        <ele>755.8</ele>
        <time>2025-08-06T10:33:45Z</time>
      </trkpt>
      <trkpt lat="48.20548" lon="7.13426">
        <ele>757</ele>
        <time>2025-08-06T10:33:51Z</time>
      </trkpt>
      <trkpt lat="48.20535" lon="7.13405">
        <ele>758.2</ele>
        <time>2025-08-06T10:33:57Z</time>
      </trkpt>
      <trkpt lat="48.2053" lon="7.13398">
        <ele>758.8</ele>
        <time>2025-08-06T10:33:59Z</time>
      </trkpt>
      <trkpt lat="48.20518" lon="7.13383">
        <ele>759.2</ele>
        <time>2025-08-06T10:34:03Z</time>
      </trkpt>
      <trkpt lat="48.20511" lon="7.13373">
        <ele>759.6</ele>
        <time>2025-08-06T10:34:06Z</time>
      </trkpt>
      <trkpt lat="48.20504" lon="7.13364">
        <ele>760.4</ele>
        <time>2025-08-06T10:34:09Z</time>
      </trkpt>
      <trkpt lat="48.20494" lon="7.13356">
        <ele>761</ele>
        <time>2025-08-06T10:34:13Z</time>
      </trkpt>
      <trkpt lat="48.20486" lon="7.13351">
        <ele>761.4</ele>
        <time>2025-08-06T10:34:16Z</time>
      </trkpt>
      <trkpt lat="48.20472" lon="7.13344">
        <ele>762.6</ele>
        <time>2025-08-06T10:34:21Z</time>
      </trkpt>
      <trkpt lat="48.20461" lon="7.13335">
        <ele>763.8</ele>
        <time>2025-08-06T10:34:26Z</time>
      </trkpt>
      <trkpt lat="48.2045" lon="7.1333">
        <ele>764.4</ele>
        <time>2025-08-06T10:34:30Z</time>
      </trkpt>
      <trkpt lat="48.20446" lon="7.13327">
        <ele>764.8</ele>
        <time>2025-08-06T10:34:32Z</time>
      </trkpt>
      <trkpt lat="48.20431" lon="7.13316">
        <ele>766</ele>
        <time>2025-08-06T10:34:38Z</time>
      </trkpt>
      <trkpt lat="48.20424" lon="7.13311">
        <ele>766.6</ele>
        <time>2025-08-06T10:34:41Z</time>
      </trkpt>
      <trkpt lat="48.20417" lon="7.13307">
        <ele>767</ele>
        <time>2025-08-06T10:34:44Z</time>
      </trkpt>
      <trkpt lat="48.20403" lon="7.13298">
        <ele>768</ele>
        <time>2025-08-06T10:34:50Z</time>
      </trkpt>
      <trkpt lat="48.20387" lon="7.13287">
        <ele>769</ele>
        <time>2025-08-06T10:34:56Z</time>
      </trkpt>
      <trkpt lat="48.20382" lon="7.13283">
        <ele>769.4</ele>
        <time>2025-08-06T10:34:58Z</time>
      </trkpt>
      <trkpt lat="48.20367" lon="7.13273">
        <ele>770.2</ele>
        <time>2025-08-06T10:35:04Z</time>
      </trkpt>
      <trkpt lat="48.2036" lon="7.13268">
        <ele>770.6</ele>
        <time>2025-08-06T10:35:07Z</time>
      </trkpt>
      <trkpt lat="48.20355" lon="7.13265">
        <ele>771.2</ele>
        <time>2025-08-06T10:35:09Z</time>
      </trkpt>
      <trkpt lat="48.20344" lon="7.13259">
        <ele>772.2</ele>
        <time>2025-08-06T10:35:13Z</time>
      </trkpt>
      <trkpt lat="48.20341" lon="7.13257">
        <ele>772.2</ele>
        <time>2025-08-06T10:35:14Z</time>
      </trkpt>
      <trkpt lat="48.20327" lon="7.13249">
        <ele>773.4</ele>
        <time>2025-08-06T10:35:20Z</time>
      </trkpt>
      <trkpt lat="48.20314" lon="7.13244">
        <ele>774.4</ele>
        <time>2025-08-06T10:35:25Z</time>
      </trkpt>
      <trkpt lat="48.20304" lon="7.13241">
        <ele>775</ele>
        <time>2025-08-06T10:35:29Z</time>
      </trkpt>
      <trkpt lat="48.20299" lon="7.13238">
        <ele>775.4</ele>
        <time>2025-08-06T10:35:31Z</time>
      </trkpt>
      <trkpt lat="48.20289" lon="7.13234">
        <ele>776.6</ele>
        <time>2025-08-06T10:35:35Z</time>
      </trkpt>
      <trkpt lat="48.20283" lon="7.13231">
        <ele>776.8</ele>
        <time>2025-08-06T10:35:37Z</time>
      </trkpt>
      <trkpt lat="48.20272" lon="7.13223">
        <ele>777.8</ele>
        <time>2025-08-06T10:35:42Z</time>
      </trkpt>
      <trkpt lat="48.20267" lon="7.1322">
        <ele>778</ele>
        <time>2025-08-06T10:35:44Z</time>
      </trkpt>
      <trkpt lat="48.20258" lon="7.13212">
        <ele>778.8</ele>
        <time>2025-08-06T10:35:48Z</time>
      </trkpt>
      <trkpt lat="48.20256" lon="7.1321">
        <ele>779</ele>
        <time>2025-08-06T10:35:49Z</time>
      </trkpt>
      <trkpt lat="48.20246" lon="7.13199">
        <ele>780</ele>
        <time>2025-08-06T10:35:54Z</time>
      </trkpt>
      <trkpt lat="48.20239" lon="7.13192">
        <ele>780.6</ele>
        <time>2025-08-06T10:35:57Z</time>
      </trkpt>
      <trkpt lat="48.20234" lon="7.13187">
        <ele>781</ele>
        <time>2025-08-06T10:35:59Z</time>
      </trkpt>
      <trkpt lat="48.20223" lon="7.13176">
        <ele>781.8</ele>
        <time>2025-08-06T10:36:04Z</time>
      </trkpt>
      <trkpt lat="48.20219" lon="7.1317">
        <ele>782</ele>
        <time>2025-08-06T10:36:06Z</time>
      </trkpt>
      <trkpt lat="48.20206" lon="7.13158">
        <ele>783</ele>
        <time>2025-08-06T10:36:11Z</time>
      </trkpt>
      <trkpt lat="48.20204" lon="7.13155">
        <ele>783.2</ele>
        <time>2025-08-06T10:36:12Z</time>
      </trkpt>
      <trkpt lat="48.20192" lon="7.13143">
        <ele>784.4</ele>
        <time>2025-08-06T10:36:17Z</time>
      </trkpt>
      <trkpt lat="48.20183" lon="7.13136">
        <ele>785.4</ele>
        <time>2025-08-06T10:36:21Z</time>
      </trkpt>
      <trkpt lat="48.20167" lon="7.13124">
        <ele>786.4</ele>
        <time>2025-08-06T10:36:28Z</time>
      </trkpt>
      <trkpt lat="48.20165" lon="7.13122">
        <ele>786.6</ele>
        <time>2025-08-06T10:36:29Z</time>
      </trkpt>
      <trkpt lat="48.20155" lon="7.13116">
        <ele>787.6</ele>
        <time>2025-08-06T10:36:33Z</time>
      </trkpt>
      <trkpt lat="48.20153" lon="7.13115">
        <ele>787.8</ele>
        <time>2025-08-06T10:36:34Z</time>
      </trkpt>
      <trkpt lat="48.2014" lon="7.13108">
        <ele>788.8</ele>
        <time>2025-08-06T10:36:39Z</time>
      </trkpt>
      <trkpt lat="48.20129" lon="7.13105">
        <ele>789.4</ele>
        <time>2025-08-06T10:36:43Z</time>
      </trkpt>
      <trkpt lat="48.20118" lon="7.13105">
        <ele>790</ele>
        <time>2025-08-06T10:36:47Z</time>
      </trkpt>
      <trkpt lat="48.20116" lon="7.13104">
        <ele>790</ele>
        <time>2025-08-06T10:36:48Z</time>
      </trkpt>
      <trkpt lat="48.20106" lon="7.13104">
        <ele>791.2</ele>
        <time>2025-08-06T10:36:52Z</time>
      </trkpt>
      <trkpt lat="48.20098" lon="7.13106">
        <ele>791.6</ele>
        <time>2025-08-06T10:36:55Z</time>
      </trkpt>
      <trkpt lat="48.20087" lon="7.13109">
        <ele>792.2</ele>
        <time>2025-08-06T10:36:59Z</time>
      </trkpt>
      <trkpt lat="48.20073" lon="7.13114">
        <ele>793.2</ele>
        <time>2025-08-06T10:37:04Z</time>
      </trkpt>
      <trkpt lat="48.2007" lon="7.13115">
        <ele>793.4</ele>
        <time>2025-08-06T10:37:05Z</time>
      </trkpt>
      <trkpt lat="48.20057" lon="7.13122">
        <ele>794</ele>
        <time>2025-08-06T10:37:10Z</time>
      </trkpt>
      <trkpt lat="48.2005" lon="7.13127">
        <ele>794.4</ele>
        <time>2025-08-06T10:37:13Z</time>
      </trkpt>
      <trkpt lat="48.20035" lon="7.13137">
        <ele>795.2</ele>
        <time>2025-08-06T10:37:19Z</time>
      </trkpt>
      <trkpt lat="48.20033" lon="7.13139">
        <ele>795.8</ele>
        <time>2025-08-06T10:37:20Z</time>
      </trkpt>
      <trkpt lat="48.20017" lon="7.13151">
        <ele>797</ele>
        <time>2025-08-06T10:37:26Z</time>
      </trkpt>
      <trkpt lat="48.20006" lon="7.13158">
        <ele>798.2</ele>
        <time>2025-08-06T10:37:30Z</time>
      </trkpt>
      <trkpt lat="48.20001" lon="7.13162">
        <ele>798.6</ele>
        <time>2025-08-06T10:37:32Z</time>
      </trkpt>
      <trkpt lat="48.19994" lon="7.13168">
        <ele>799.2</ele>
        <time>2025-08-06T10:37:35Z</time>
      </trkpt>
      <trkpt lat="48.19984" lon="7.1318">
        <ele>799.8</ele>
        <time>2025-08-06T10:37:40Z</time>
      </trkpt>
      <trkpt lat="48.19978" lon="7.13184">
        <ele>800.2</ele>
        <time>2025-08-06T10:37:42Z</time>
      </trkpt>
      <trkpt lat="48.19969" lon="7.13194">
        <ele>801</ele>
        <time>2025-08-06T10:37:46Z</time>
      </trkpt>
      <trkpt lat="48.19967" lon="7.13198">
        <ele>801.4</ele>
        <time>2025-08-06T10:37:47Z</time>
      </trkpt>
      <trkpt lat="48.19955" lon="7.13203">
        <ele>802</ele>
        <time>2025-08-06T10:37:51Z</time>
      </trkpt>
      <trkpt lat="48.19949" lon="7.13208">
        <ele>802.4</ele>
        <time>2025-08-06T10:37:53Z</time>
      </trkpt>
      <trkpt lat="48.19937" lon="7.13215">
        <ele>803.4</ele>
        <time>2025-08-06T10:37:58Z</time>
      </trkpt>
      <trkpt lat="48.19935" lon="7.13217">
        <ele>803.6</ele>
        <time>2025-08-06T10:37:59Z</time>
      </trkpt>
      <trkpt lat="48.19926" lon="7.13229">
        <ele>804.6</ele>
        <time>2025-08-06T10:38:04Z</time>
      </trkpt>
      <trkpt lat="48.19924" lon="7.13231">
        <ele>804.6</ele>
        <time>2025-08-06T10:38:05Z</time>
      </trkpt>
      <trkpt lat="48.19912" lon="7.13246">
        <ele>805.6</ele>
        <time>2025-08-06T10:38:11Z</time>
      </trkpt>
      <trkpt lat="48.19894" lon="7.13248">
        <ele>806.8</ele>
        <time>2025-08-06T10:38:17Z</time>
      </trkpt>
      <trkpt lat="48.19883" lon="7.13231">
        <ele>807.8</ele>
        <time>2025-08-06T10:38:22Z</time>
      </trkpt>
      <trkpt lat="48.19878" lon="7.13217">
        <ele>808.8</ele>
        <time>2025-08-06T10:38:26Z</time>
      </trkpt>
      <trkpt lat="48.19878" lon="7.13213">
        <ele>809</ele>
        <time>2025-08-06T10:38:27Z</time>
      </trkpt>
      <trkpt lat="48.19877" lon="7.132">
        <ele>809.8</ele>
        <time>2025-08-06T10:38:30Z</time>
      </trkpt>
      <trkpt lat="48.19877" lon="7.13181">
        <ele>810.6</ele>
        <time>2025-08-06T10:38:35Z</time>
      </trkpt>
      <trkpt lat="48.19877" lon="7.13178">
        <ele>810.8</ele>
        <time>2025-08-06T10:38:36Z</time>
      </trkpt>
      <trkpt lat="48.19877" lon="7.13159">
        <ele>811.8</ele>
        <time>2025-08-06T10:38:41Z</time>
      </trkpt>
      <trkpt lat="48.19876" lon="7.13151">
        <ele>812.2</ele>
        <time>2025-08-06T10:38:43Z</time>
      </trkpt>
      <trkpt lat="48.19876" lon="7.1314">
        <ele>812.8</ele>
        <time>2025-08-06T10:38:46Z</time>
      </trkpt>
      <trkpt lat="48.19877" lon="7.13122">
        <ele>813.8</ele>
        <time>2025-08-06T10:38:50Z</time>
      </trkpt>
      <trkpt lat="48.19877" lon="7.13118">
        <ele>814</ele>
        <time>2025-08-06T10:38:51Z</time>
      </trkpt>
      <trkpt lat="48.1988" lon="7.13092">
        <ele>814.8</ele>
        <time>2025-08-06T10:38:57Z</time>
      </trkpt>
      <trkpt lat="48.19881" lon="7.13089">
        <ele>815</ele>
        <time>2025-08-06T10:38:58Z</time>
      </trkpt>
      <trkpt lat="48.1988" lon="7.13067">
        <ele>815.8</ele>
        <time>2025-08-06T10:39:03Z</time>
      </trkpt>
      <trkpt lat="48.1988" lon="7.13058">
        <ele>816.2</ele>
        <time>2025-08-06T10:39:05Z</time>
      </trkpt>
      <trkpt lat="48.1988" lon="7.13036">
        <ele>817.4</ele>
        <time>2025-08-06T10:39:11Z</time>
      </trkpt>
      <trkpt lat="48.19881" lon="7.13032">
        <ele>817.6</ele>
        <time>2025-08-06T10:39:12Z</time>
      </trkpt>
      <trkpt lat="48.1988" lon="7.13007">
        <ele>818.4</ele>
        <time>2025-08-06T10:39:18Z</time>
      </trkpt>
      <trkpt lat="48.19881" lon="7.12991">
        <ele>819</ele>
        <time>2025-08-06T10:39:22Z</time>
      </trkpt>
      <trkpt lat="48.1988" lon="7.12974">
        <ele>819.4</ele>
        <time>2025-08-06T10:39:26Z</time>
      </trkpt>
      <trkpt lat="48.1988" lon="7.12962">
        <ele>820.2</ele>
        <time>2025-08-06T10:39:29Z</time>
      </trkpt>
      <trkpt lat="48.19879" lon="7.12949">
        <ele>820.6</ele>
        <time>2025-08-06T10:39:32Z</time>
      </trkpt>
      <trkpt lat="48.19878" lon="7.1292">
        <ele>822</ele>
        <time>2025-08-06T10:39:39Z</time>
      </trkpt>
      <trkpt lat="48.19872" lon="7.12897">
        <ele>823</ele>
        <time>2025-08-06T10:39:45Z</time>
      </trkpt>
      <trkpt lat="48.1987" lon="7.12893">
        <ele>823.4</ele>
        <time>2025-08-06T10:39:46Z</time>
      </trkpt>
      <trkpt lat="48.19862" lon="7.1288">
        <ele>824</ele>
        <time>2025-08-06T10:39:50Z</time>
      </trkpt>
      <trkpt lat="48.19855" lon="7.12871">
        <ele>824.6</ele>
        <time>2025-08-06T10:39:53Z</time>
      </trkpt>
      <trkpt lat="48.1985" lon="7.12867">
        <ele>825.2</ele>
        <time>2025-08-06T10:39:55Z</time>
      </trkpt>
      <trkpt lat="48.1984" lon="7.1286">
        <ele>826.2</ele>
        <time>2025-08-06T10:39:59Z</time>
      </trkpt>
      <trkpt lat="48.19838" lon="7.12858">
        <ele>826.4</ele>
        <time>2025-08-06T10:40:00Z</time>
      </trkpt>
      <trkpt lat="48.19821" lon="7.12854">
        <ele>827.2</ele>
        <time>2025-08-06T10:40:06Z</time>
      </trkpt>
      <trkpt lat="48.19818" lon="7.12854">
        <ele>827.4</ele>
        <time>2025-08-06T10:40:07Z</time>
      </trkpt>
      <trkpt lat="48.19802" lon="7.1285">
        <ele>828.4</ele>
        <time>2025-08-06T10:40:13Z</time>
      </trkpt>
      <trkpt lat="48.19794" lon="7.12848">
        <ele>828.8</ele>
        <time>2025-08-06T10:40:16Z</time>
      </trkpt>
      <trkpt lat="48.19789" lon="7.12847">
        <ele>829.6</ele>
        <time>2025-08-06T10:40:18Z</time>
      </trkpt>
      <trkpt lat="48.19774" lon="7.12844">
        <ele>830.6</ele>
        <time>2025-08-06T10:40:23Z</time>
      </trkpt>
      <trkpt lat="48.19767" lon="7.12842">
        <ele>831</ele>
        <time>2025-08-06T10:40:26Z</time>
      </trkpt>
      <trkpt lat="48.19759" lon="7.1284">
        <ele>831.6</ele>
        <time>2025-08-06T10:40:29Z</time>
      </trkpt>
      <trkpt lat="48.19747" lon="7.12838">
        <ele>832.6</ele>
        <time>2025-08-06T10:40:33Z</time>
      </trkpt>
      <trkpt lat="48.19744" lon="7.12836">
        <ele>833</ele>
        <time>2025-08-06T10:40:34Z</time>
      </trkpt>
      <trkpt lat="48.19735" lon="7.12827">
        <ele>833.6</ele>
        <time>2025-08-06T10:40:38Z</time>
      </trkpt>
      <trkpt lat="48.19733" lon="7.12824">
        <ele>833.8</ele>
        <time>2025-08-06T10:40:39Z</time>
      </trkpt>
      <trkpt lat="48.1973" lon="7.12803">
        <ele>834.8</ele>
        <time>2025-08-06T10:40:44Z</time>
      </trkpt>
      <trkpt lat="48.19732" lon="7.12783">
        <ele>836</ele>
        <time>2025-08-06T10:40:49Z</time>
      </trkpt>
      <trkpt lat="48.19733" lon="7.12774">
        <ele>836.4</ele>
        <time>2025-08-06T10:40:51Z</time>
      </trkpt>
      <trkpt lat="48.19734" lon="7.12762">
        <ele>837</ele>
        <time>2025-08-06T10:40:54Z</time>
      </trkpt>
      <trkpt lat="48.19734" lon="7.12747">
        <ele>837.6</ele>
        <time>2025-08-06T10:40:58Z</time>
      </trkpt>
      <trkpt lat="48.19735" lon="7.12739">
        <ele>838</ele>
        <time>2025-08-06T10:41:00Z</time>
      </trkpt>
      <trkpt lat="48.19733" lon="7.12729">
        <ele>838.4</ele>
        <time>2025-08-06T10:41:03Z</time>
      </trkpt>
      <trkpt lat="48.19732" lon="7.12718">
        <ele>839.2</ele>
        <time>2025-08-06T10:41:06Z</time>
      </trkpt>
      <trkpt lat="48.1973" lon="7.12697">
        <ele>840</ele>
        <time>2025-08-06T10:41:11Z</time>
      </trkpt>
      <trkpt lat="48.1973" lon="7.12692">
        <ele>840.2</ele>
        <time>2025-08-06T10:41:12Z</time>
      </trkpt>
      <trkpt lat="48.19727" lon="7.12666">
        <ele>841.6</ele>
        <time>2025-08-06T10:41:18Z</time>
      </trkpt>
      <trkpt lat="48.19725" lon="7.12648">
        <ele>842.6</ele>
        <time>2025-08-06T10:41:23Z</time>
      </trkpt>
      <trkpt lat="48.19723" lon="7.12627">
        <ele>843.6</ele>
        <time>2025-08-06T10:41:29Z</time>
      </trkpt>
      <trkpt lat="48.19724" lon="7.1262">
        <ele>844.2</ele>
        <time>2025-08-06T10:41:31Z</time>
      </trkpt>
      <trkpt lat="48.19723" lon="7.12597">
        <ele>844.8</ele>
        <time>2025-08-06T10:41:36Z</time>
      </trkpt>
      <trkpt lat="48.19718" lon="7.12582">
        <ele>845.8</ele>
        <time>2025-08-06T10:41:41Z</time>
      </trkpt>
      <trkpt lat="48.19712" lon="7.12576">
        <ele>846.4</ele>
        <time>2025-08-06T10:41:44Z</time>
      </trkpt>
      <trkpt lat="48.1971" lon="7.12569">
        <ele>847</ele>
        <time>2025-08-06T10:41:46Z</time>
      </trkpt>
      <trkpt lat="48.19708" lon="7.12567">
        <ele>847</ele>
        <time>2025-08-06T10:41:47Z</time>
      </trkpt>
      <trkpt lat="48.19705" lon="7.12565">
        <ele>847.2</ele>
        <time>2025-08-06T10:41:48Z</time>
      </trkpt>
      <trkpt lat="48.19698" lon="7.12559">
        <ele>848.2</ele>
        <time>2025-08-06T10:41:51Z</time>
      </trkpt>
      <trkpt lat="48.19695" lon="7.12558">
        <ele>848.2</ele>
        <time>2025-08-06T10:41:52Z</time>
      </trkpt>
      <trkpt lat="48.19681" lon="7.12548">
        <ele>849.4</ele>
        <time>2025-08-06T10:41:58Z</time>
      </trkpt>
      <trkpt lat="48.19664" lon="7.1254">
        <ele>850.2</ele>
        <time>2025-08-06T10:42:05Z</time>
      </trkpt>
      <trkpt lat="48.19662" lon="7.12539">
        <ele>850.4</ele>
        <time>2025-08-06T10:42:06Z</time>
      </trkpt>
      <trkpt lat="48.1965" lon="7.12531">
        <ele>851.6</ele>
        <time>2025-08-06T10:42:11Z</time>
      </trkpt>
      <trkpt lat="48.1964" lon="7.12526">
        <ele>852.4</ele>
        <time>2025-08-06T10:42:15Z</time>
      </trkpt>
      <trkpt lat="48.19636" lon="7.12523">
        <ele>852.8</ele>
        <time>2025-08-06T10:42:17Z</time>
      </trkpt>
      <trkpt lat="48.19618" lon="7.12512">
        <ele>853.8</ele>
        <time>2025-08-06T10:42:24Z</time>
      </trkpt>
      <trkpt lat="48.19616" lon="7.1251">
        <ele>854</ele>
        <time>2025-08-06T10:42:25Z</time>
      </trkpt>
      <trkpt lat="48.19603" lon="7.12503">
        <ele>855</ele>
        <time>2025-08-06T10:42:30Z</time>
      </trkpt>
      <trkpt lat="48.19595" lon="7.12496">
        <ele>855.2</ele>
        <time>2025-08-06T10:42:33Z</time>
      </trkpt>
      <trkpt lat="48.19588" lon="7.1249">
        <ele>856</ele>
        <time>2025-08-06T10:42:36Z</time>
      </trkpt>
      <trkpt lat="48.19577" lon="7.1248">
        <ele>856.8</ele>
        <time>2025-08-06T10:42:41Z</time>
      </trkpt>
      <trkpt lat="48.19575" lon="7.12477">
        <ele>857</ele>
        <time>2025-08-06T10:42:42Z</time>
      </trkpt>
      <trkpt lat="48.19564" lon="7.12465">
        <ele>858.2</ele>
        <time>2025-08-06T10:42:47Z</time>
      </trkpt>
      <trkpt lat="48.19562" lon="7.12463">
        <ele>858.4</ele>
        <time>2025-08-06T10:42:48Z</time>
      </trkpt>
      <trkpt lat="48.19551" lon="7.12451">
        <ele>859.4</ele>
        <time>2025-08-06T10:42:53Z</time>
      </trkpt>
      <trkpt lat="48.19544" lon="7.12445">
        <ele>860</ele>
        <time>2025-08-06T10:42:56Z</time>
      </trkpt>
      <trkpt lat="48.19539" lon="7.12439">
        <ele>860.6</ele>
        <time>2025-08-06T10:42:58Z</time>
      </trkpt>
      <trkpt lat="48.19525" lon="7.12429">
        <ele>861.8</ele>
        <time>2025-08-06T10:43:04Z</time>
      </trkpt>
      <trkpt lat="48.19502" lon="7.12419">
        <ele>863</ele>
        <time>2025-08-06T10:43:12Z</time>
      </trkpt>
      <trkpt lat="48.19499" lon="7.12417">
        <ele>863.2</ele>
        <time>2025-08-06T10:43:13Z</time>
      </trkpt>
      <trkpt lat="48.19492" lon="7.124">
        <ele>863.8</ele>
        <time>2025-08-06T10:43:18Z</time>
      </trkpt>
      <trkpt lat="48.19492" lon="7.12396">
        <ele>863.8</ele>
        <time>2025-08-06T10:43:19Z</time>
      </trkpt>
      <trkpt lat="48.19496" lon="7.12375">
        <ele>864.8</ele>
        <time>2025-08-06T10:43:24Z</time>
      </trkpt>
      <trkpt lat="48.19497" lon="7.12371">
        <ele>865.2</ele>
        <time>2025-08-06T10:43:25Z</time>
      </trkpt>
      <trkpt lat="48.19504" lon="7.12354">
        <ele>866.2</ele>
        <time>2025-08-06T10:43:30Z</time>
      </trkpt>
      <trkpt lat="48.19511" lon="7.12337">
        <ele>867.2</ele>
        <time>2025-08-06T10:43:35Z</time>
      </trkpt>
      <trkpt lat="48.19514" lon="7.12331">
        <ele>867.6</ele>
        <time>2025-08-06T10:43:37Z</time>
      </trkpt>
      <trkpt lat="48.19523" lon="7.12316">
        <ele>868.4</ele>
        <time>2025-08-06T10:43:42Z</time>
      </trkpt>
      <trkpt lat="48.19527" lon="7.1231">
        <ele>868.8</ele>
        <time>2025-08-06T10:43:44Z</time>
      </trkpt>
      <trkpt lat="48.19532" lon="7.12296">
        <ele>869.4</ele>
        <time>2025-08-06T10:43:48Z</time>
      </trkpt>
      <trkpt lat="48.19535" lon="7.1229">
        <ele>869.6</ele>
        <time>2025-08-06T10:43:50Z</time>
      </trkpt>
      <trkpt lat="48.19539" lon="7.12273">
        <ele>870.4</ele>
        <time>2025-08-06T10:43:54Z</time>
      </trkpt>
      <trkpt lat="48.19539" lon="7.12264">
        <ele>870.8</ele>
        <time>2025-08-06T10:43:56Z</time>
      </trkpt>
      <trkpt lat="48.19536" lon="7.1224">
        <ele>871.6</ele>
        <time>2025-08-06T10:44:02Z</time>
      </trkpt>
      <trkpt lat="48.19535" lon="7.12236">
        <ele>871.8</ele>
        <time>2025-08-06T10:44:03Z</time>
      </trkpt>
      <trkpt lat="48.19531" lon="7.12216">
        <ele>872.8</ele>
        <time>2025-08-06T10:44:08Z</time>
      </trkpt>
      <trkpt lat="48.1953" lon="7.12203">
        <ele>873.4</ele>
        <time>2025-08-06T10:44:11Z</time>
      </trkpt>
      <trkpt lat="48.19528" lon="7.12191">
        <ele>873.8</ele>
        <time>2025-08-06T10:44:14Z</time>
      </trkpt>
      <trkpt lat="48.19526" lon="7.12179">
        <ele>874.4</ele>
        <time>2025-08-06T10:44:17Z</time>
      </trkpt>
      <trkpt lat="48.19523" lon="7.12172">
        <ele>874.8</ele>
        <time>2025-08-06T10:44:19Z</time>
      </trkpt>
      <trkpt lat="48.1952" lon="7.12161">
        <ele>875.8</ele>
        <time>2025-08-06T10:44:22Z</time>
      </trkpt>
      <trkpt lat="48.1952" lon="7.12157">
        <ele>875.8</ele>
        <time>2025-08-06T10:44:23Z</time>
      </trkpt>
      <trkpt lat="48.19515" lon="7.12137">
        <ele>876.8</ele>
        <time>2025-08-06T10:44:28Z</time>
      </trkpt>
      <trkpt lat="48.19515" lon="7.12132">
        <ele>877</ele>
        <time>2025-08-06T10:44:29Z</time>
      </trkpt>
      <trkpt lat="48.19514" lon="7.12118">
        <ele>878</ele>
        <time>2025-08-06T10:44:33Z</time>
      </trkpt>
      <trkpt lat="48.19511" lon="7.12099">
        <ele>879</ele>
        <time>2025-08-06T10:44:38Z</time>
      </trkpt>
      <trkpt lat="48.1951" lon="7.12087">
        <ele>879.4</ele>
        <time>2025-08-06T10:44:41Z</time>
      </trkpt>
      <trkpt lat="48.19505" lon="7.12067">
        <ele>880.2</ele>
        <time>2025-08-06T10:44:46Z</time>
      </trkpt>
      <trkpt lat="48.19503" lon="7.1206">
        <ele>880.8</ele>
        <time>2025-08-06T10:44:48Z</time>
      </trkpt>
      <trkpt lat="48.195" lon="7.12052">
        <ele>881.2</ele>
        <time>2025-08-06T10:44:50Z</time>
      </trkpt>
      <trkpt lat="48.19495" lon="7.1203">
        <ele>882.6</ele>
        <time>2025-08-06T10:44:56Z</time>
      </trkpt>
      <trkpt lat="48.19492" lon="7.12018">
        <ele>882.8</ele>
        <time>2025-08-06T10:44:58Z</time>
      </trkpt>
      <trkpt lat="48.19489" lon="7.12007">
        <ele>883.4</ele>
        <time>2025-08-06T10:45:02Z</time>
      </trkpt>
      <trkpt lat="48.19486" lon="7.11996">
        <ele>883.8</ele>
        <time>2025-08-06T10:45:04Z</time>
      </trkpt>
      <trkpt lat="48.19484" lon="7.11989">
        <ele>884.4</ele>
        <time>2025-08-06T10:45:07Z</time>
      </trkpt>
      <trkpt lat="48.19482" lon="7.11982">
        <ele>884.6</ele>
        <time>2025-08-06T10:45:08Z</time>
      </trkpt>
      <trkpt lat="48.19477" lon="7.11963">
        <ele>885.4</ele>
        <time>2025-08-06T10:45:13Z</time>
      </trkpt>
      <trkpt lat="48.19474" lon="7.11957">
        <ele>885.6</ele>
        <time>2025-08-06T10:45:15Z</time>
      </trkpt>
      <trkpt lat="48.1947" lon="7.11943">
        <ele>886.6</ele>
        <time>2025-08-06T10:45:19Z</time>
      </trkpt>
      <trkpt lat="48.19469" lon="7.11939">
        <ele>886.8</ele>
        <time>2025-08-06T10:45:20Z</time>
      </trkpt>
      <trkpt lat="48.19465" lon="7.11919">
        <ele>888</ele>
        <time>2025-08-06T10:45:26Z</time>
      </trkpt>
      <trkpt lat="48.19464" lon="7.11916">
        <ele>888</ele>
        <time>2025-08-06T10:45:27Z</time>
      </trkpt>
      <trkpt lat="48.1946" lon="7.11896">
        <ele>889</ele>
        <time>2025-08-06T10:45:31Z</time>
      </trkpt>
      <trkpt lat="48.19455" lon="7.11877">
        <ele>889.6</ele>
        <time>2025-08-06T10:45:36Z</time>
      </trkpt>
      <trkpt lat="48.19453" lon="7.11874">
        <ele>890.2</ele>
        <time>2025-08-06T10:45:38Z</time>
      </trkpt>
      <trkpt lat="48.19442" lon="7.11845">
        <ele>891.2</ele>
        <time>2025-08-06T10:45:45Z</time>
      </trkpt>
      <trkpt lat="48.1944" lon="7.11842">
        <ele>891.2</ele>
        <time>2025-08-06T10:45:46Z</time>
      </trkpt>
      <trkpt lat="48.19435" lon="7.11833">
        <ele>892.2</ele>
        <time>2025-08-06T10:45:50Z</time>
      </trkpt>
      <trkpt lat="48.19426" lon="7.11816">
        <ele>893</ele>
        <time>2025-08-06T10:45:55Z</time>
      </trkpt>
      <trkpt lat="48.19419" lon="7.11803">
        <ele>893.2</ele>
        <time>2025-08-06T10:45:58Z</time>
      </trkpt>
      <trkpt lat="48.19407" lon="7.11785">
        <ele>894.4</ele>
        <time>2025-08-06T10:46:04Z</time>
      </trkpt>
      <trkpt lat="48.19403" lon="7.11779">
        <ele>895</ele>
        <time>2025-08-06T10:46:07Z</time>
      </trkpt>
      <trkpt lat="48.19393" lon="7.11766">
        <ele>895.6</ele>
        <time>2025-08-06T10:46:11Z</time>
      </trkpt>
      <trkpt lat="48.1938" lon="7.11758">
        <ele>896.8</ele>
        <time>2025-08-06T10:46:16Z</time>
      </trkpt>
      <trkpt lat="48.19368" lon="7.11743">
        <ele>897.8</ele>
        <time>2025-08-06T10:46:22Z</time>
      </trkpt>
      <trkpt lat="48.1936" lon="7.1173">
        <ele>898.4</ele>
        <time>2025-08-06T10:46:25Z</time>
      </trkpt>
      <trkpt lat="48.19356" lon="7.11718">
        <ele>899</ele>
        <time>2025-08-06T10:46:28Z</time>
      </trkpt>
      <trkpt lat="48.19354" lon="7.1171">
        <ele>899.4</ele>
        <time>2025-08-06T10:46:30Z</time>
      </trkpt>
      <trkpt lat="48.19351" lon="7.11699">
        <ele>900</ele>
        <time>2025-08-06T10:46:33Z</time>
      </trkpt>
      <trkpt lat="48.19348" lon="7.11676">
        <ele>900.8</ele>
        <time>2025-08-06T10:46:39Z</time>
      </trkpt>
      <trkpt lat="48.19347" lon="7.11673">
        <ele>901</ele>
        <time>2025-08-06T10:46:40Z</time>
      </trkpt>
      <trkpt lat="48.19344" lon="7.11653">
        <ele>902.2</ele>
        <time>2025-08-06T10:46:46Z</time>
      </trkpt>
      <trkpt lat="48.1934" lon="7.1163">
        <ele>903.4</ele>
        <time>2025-08-06T10:46:52Z</time>
      </trkpt>
      <trkpt lat="48.19338" lon="7.11622">
        <ele>903.6</ele>
        <time>2025-08-06T10:46:54Z</time>
      </trkpt>
      <trkpt lat="48.19333" lon="7.11599">
        <ele>904.4</ele>
        <time>2025-08-06T10:46:59Z</time>
      </trkpt>
      <trkpt lat="48.1933" lon="7.11583">
        <ele>905</ele>
        <time>2025-08-06T10:47:03Z</time>
      </trkpt>
      <trkpt lat="48.19328" lon="7.11575">
        <ele>905.6</ele>
        <time>2025-08-06T10:47:06Z</time>
      </trkpt>
      <trkpt lat="48.19321" lon="7.1154">
        <ele>906.6</ele>
        <time>2025-08-06T10:47:14Z</time>
      </trkpt>
      <trkpt lat="48.1932" lon="7.11536">
        <ele>906.6</ele>
        <time>2025-08-06T10:47:15Z</time>
      </trkpt>
      <trkpt lat="48.19315" lon="7.11521">
        <ele>907.6</ele>
        <time>2025-08-06T10:47:19Z</time>
      </trkpt>
      <trkpt lat="48.19312" lon="7.11509">
        <ele>908</ele>
        <time>2025-08-06T10:47:22Z</time>
      </trkpt>
      <trkpt lat="48.19307" lon="7.11498">
        <ele>908.8</ele>
        <time>2025-08-06T10:47:26Z</time>
      </trkpt>
      <trkpt lat="48.19301" lon="7.11481">
        <ele>909.6</ele>
        <time>2025-08-06T10:47:31Z</time>
      </trkpt>
      <trkpt lat="48.19298" lon="7.11474">
        <ele>910</ele>
        <time>2025-08-06T10:47:33Z</time>
      </trkpt>
      <trkpt lat="48.19293" lon="7.11462">
        <ele>910.8</ele>
        <time>2025-08-06T10:47:38Z</time>
      </trkpt>
      <trkpt lat="48.19293" lon="7.11462">
        <ele>911.4</ele>
        <time>2025-08-06T10:47:40Z</time>
      </trkpt>
      <trkpt lat="48.19287" lon="7.11443">
        <ele>913</ele>
        <time>2025-08-06T10:57:36Z</time>
      </trkpt>
      <trkpt lat="48.19284" lon="7.1144">
        <ele>913.2</ele>
        <time>2025-08-06T10:57:38Z</time>
      </trkpt>
      <trkpt lat="48.19281" lon="7.11429">
        <ele>913.4</ele>
        <time>2025-08-06T10:57:43Z</time>
      </trkpt>
      <trkpt lat="48.1928" lon="7.11427">
        <ele>913.4</ele>
        <time>2025-08-06T10:57:44Z</time>
      </trkpt>
      <trkpt lat="48.19279" lon="7.11425">
        <ele>913.6</ele>
        <time>2025-08-06T10:57:46Z</time>
      </trkpt>
      <trkpt lat="48.19278" lon="7.11423">
        <ele>913.8</ele>
        <time>2025-08-06T10:57:48Z</time>
      </trkpt>
      <trkpt lat="48.19276" lon="7.11418">
        <ele>914.6</ele>
        <time>2025-08-06T10:57:54Z</time>
      </trkpt>
      <trkpt lat="48.19271" lon="7.11413">
        <ele>914.8</ele>
        <time>2025-08-06T10:58:31Z</time>
      </trkpt>
      <trkpt lat="48.1926" lon="7.11401">
        <ele>914.8</ele>
        <time>2025-08-06T10:58:37Z</time>
      </trkpt>
      <trkpt lat="48.19254" lon="7.11382">
        <ele>915</ele>
        <time>2025-08-06T10:58:43Z</time>
      </trkpt>
      <trkpt lat="48.19256" lon="7.1137">
        <ele>915.8</ele>
        <time>2025-08-06T10:58:47Z</time>
      </trkpt>
      <trkpt lat="48.19256" lon="7.11366">
        <ele>915.8</ele>
        <time>2025-08-06T10:58:48Z</time>
      </trkpt>
      <trkpt lat="48.19257" lon="7.11351">
        <ele>917</ele>
        <time>2025-08-06T10:58:53Z</time>
      </trkpt>
      <trkpt lat="48.19258" lon="7.11345">
        <ele>917.4</ele>
        <time>2025-08-06T10:58:55Z</time>
      </trkpt>
      <trkpt lat="48.19259" lon="7.11326">
        <ele>918.6</ele>
        <time>2025-08-06T10:59:01Z</time>
      </trkpt>
      <trkpt lat="48.19259" lon="7.1132">
        <ele>919.2</ele>
        <time>2025-08-06T10:59:03Z</time>
      </trkpt>
      <trkpt lat="48.19259" lon="7.11317">
        <ele>919.6</ele>
        <time>2025-08-06T10:59:04Z</time>
      </trkpt>
      <trkpt lat="48.19259" lon="7.11301">
        <ele>920.4</ele>
        <time>2025-08-06T10:59:09Z</time>
      </trkpt>
      <trkpt lat="48.19259" lon="7.11298">
        <ele>920.8</ele>
        <time>2025-08-06T10:59:10Z</time>
      </trkpt>
      <trkpt lat="48.19259" lon="7.11283">
        <ele>922</ele>
        <time>2025-08-06T10:59:15Z</time>
      </trkpt>
      <trkpt lat="48.1926" lon="7.11277">
        <ele>922.2</ele>
        <time>2025-08-06T10:59:17Z</time>
      </trkpt>
      <trkpt lat="48.1926" lon="7.11268">
        <ele>923</ele>
        <time>2025-08-06T10:59:20Z</time>
      </trkpt>
      <trkpt lat="48.1926" lon="7.1126">
        <ele>923.8</ele>
        <time>2025-08-06T10:59:23Z</time>
      </trkpt>
      <trkpt lat="48.1926" lon="7.11254">
        <ele>924.2</ele>
        <time>2025-08-06T10:59:25Z</time>
      </trkpt>
      <trkpt lat="48.1926" lon="7.11243">
        <ele>924.8</ele>
        <time>2025-08-06T10:59:29Z</time>
      </trkpt>
      <trkpt lat="48.19259" lon="7.11235">
        <ele>925.2</ele>
        <time>2025-08-06T10:59:32Z</time>
      </trkpt>
      <trkpt lat="48.19258" lon="7.11228">
        <ele>926</ele>
        <time>2025-08-06T10:59:35Z</time>
      </trkpt>
      <trkpt lat="48.19258" lon="7.11225">
        <ele>926.2</ele>
        <time>2025-08-06T10:59:36Z</time>
      </trkpt>
      <trkpt lat="48.19258" lon="7.11222">
        <ele>926.4</ele>
        <time>2025-08-06T10:59:37Z</time>
      </trkpt>
      <trkpt lat="48.19253" lon="7.11204">
        <ele>927.6</ele>
        <time>2025-08-06T10:59:43Z</time>
      </trkpt>
      <trkpt lat="48.19253" lon="7.11201">
        <ele>927.6</ele>
        <time>2025-08-06T10:59:44Z</time>
      </trkpt>
      <trkpt lat="48.1925" lon="7.11187">
        <ele>928.8</ele>
        <time>2025-08-06T10:59:49Z</time>
      </trkpt>
      <trkpt lat="48.19248" lon="7.11181">
        <ele>929</ele>
        <time>2025-08-06T10:59:51Z</time>
      </trkpt>
      <trkpt lat="48.19244" lon="7.11166">
        <ele>929.8</ele>
        <time>2025-08-06T10:59:56Z</time>
      </trkpt>
      <trkpt lat="48.19243" lon="7.11161">
        <ele>930.2</ele>
        <time>2025-08-06T10:59:58Z</time>
      </trkpt>
      <trkpt lat="48.19239" lon="7.11147">
        <ele>931</ele>
        <time>2025-08-06T11:00:03Z</time>
      </trkpt>
      <trkpt lat="48.19238" lon="7.11138">
        <ele>931.6</ele>
        <time>2025-08-06T11:00:06Z</time>
      </trkpt>
      <trkpt lat="48.19236" lon="7.11129">
        <ele>932.2</ele>
        <time>2025-08-06T11:00:09Z</time>
      </trkpt>
      <trkpt lat="48.19235" lon="7.11117">
        <ele>933</ele>
        <time>2025-08-06T11:00:13Z</time>
      </trkpt>
      <trkpt lat="48.19234" lon="7.11113">
        <ele>933.2</ele>
        <time>2025-08-06T11:00:14Z</time>
      </trkpt>
      <trkpt lat="48.19232" lon="7.11094">
        <ele>934.4</ele>
        <time>2025-08-06T11:00:20Z</time>
      </trkpt>
      <trkpt lat="48.19231" lon="7.11091">
        <ele>934.6</ele>
        <time>2025-08-06T11:00:21Z</time>
      </trkpt>
      <trkpt lat="48.19231" lon="7.11081">
        <ele>935.4</ele>
        <time>2025-08-06T11:00:24Z</time>
      </trkpt>
      <trkpt lat="48.1923" lon="7.11065">
        <ele>936.2</ele>
        <time>2025-08-06T11:00:29Z</time>
      </trkpt>
      <trkpt lat="48.19229" lon="7.11058">
        <ele>936.6</ele>
        <time>2025-08-06T11:00:31Z</time>
      </trkpt>
      <trkpt lat="48.19228" lon="7.11039">
        <ele>937.6</ele>
        <time>2025-08-06T11:00:37Z</time>
      </trkpt>
      <trkpt lat="48.19223" lon="7.11013">
        <ele>938.8</ele>
        <time>2025-08-06T11:00:45Z</time>
      </trkpt>
      <trkpt lat="48.19222" lon="7.11009">
        <ele>939</ele>
        <time>2025-08-06T11:00:46Z</time>
      </trkpt>
      <trkpt lat="48.19217" lon="7.10991">
        <ele>939.8</ele>
        <time>2025-08-06T11:00:52Z</time>
      </trkpt>
      <trkpt lat="48.19213" lon="7.10982">
        <ele>940.4</ele>
        <time>2025-08-06T11:00:55Z</time>
      </trkpt>
      <trkpt lat="48.19209" lon="7.10974">
        <ele>940.8</ele>
        <time>2025-08-06T11:00:58Z</time>
      </trkpt>
      <trkpt lat="48.19201" lon="7.1096">
        <ele>942</ele>
        <time>2025-08-06T11:01:03Z</time>
      </trkpt>
      <trkpt lat="48.19195" lon="7.10949">
        <ele>942.4</ele>
        <time>2025-08-06T11:01:07Z</time>
      </trkpt>
      <trkpt lat="48.19187" lon="7.10936">
        <ele>943</ele>
        <time>2025-08-06T11:01:12Z</time>
      </trkpt>
      <trkpt lat="48.19179" lon="7.10923">
        <ele>943.4</ele>
        <time>2025-08-06T11:01:17Z</time>
      </trkpt>
      <trkpt lat="48.19168" lon="7.10904">
        <ele>944.2</ele>
        <time>2025-08-06T11:01:24Z</time>
      </trkpt>
      <trkpt lat="48.19167" lon="7.10901">
        <ele>944.4</ele>
        <time>2025-08-06T11:01:25Z</time>
      </trkpt>
      <trkpt lat="48.19167" lon="7.10885">
        <ele>945.2</ele>
        <time>2025-08-06T11:01:30Z</time>
      </trkpt>
      <trkpt lat="48.19169" lon="7.10882">
        <ele>945.4</ele>
        <time>2025-08-06T11:01:31Z</time>
      </trkpt>
      <trkpt lat="48.19175" lon="7.10879">
        <ele>946</ele>
        <time>2025-08-06T11:01:34Z</time>
      </trkpt>
      <trkpt lat="48.19177" lon="7.1088">
        <ele>946.6</ele>
        <time>2025-08-06T11:01:36Z</time>
      </trkpt>
      <trkpt lat="48.19182" lon="7.10885">
        <ele>947</ele>
        <time>2025-08-06T11:01:37Z</time>
      </trkpt>
      <trkpt lat="48.19186" lon="7.10891">
        <ele>947.4</ele>
        <time>2025-08-06T11:01:39Z</time>
      </trkpt>
      <trkpt lat="48.19187" lon="7.10894">
        <ele>947.6</ele>
        <time>2025-08-06T11:01:40Z</time>
      </trkpt>
      <trkpt lat="48.19199" lon="7.1092">
        <ele>948.4</ele>
        <time>2025-08-06T11:01:47Z</time>
      </trkpt>
      <trkpt lat="48.19201" lon="7.10923">
        <ele>948.6</ele>
        <time>2025-08-06T11:01:48Z</time>
      </trkpt>
      <trkpt lat="48.19215" lon="7.10949">
        <ele>949.8</ele>
        <time>2025-08-06T11:01:56Z</time>
      </trkpt>
      <trkpt lat="48.19228" lon="7.10971">
        <ele>950.8</ele>
        <time>2025-08-06T11:02:03Z</time>
      </trkpt>
      <trkpt lat="48.19229" lon="7.10975">
        <ele>951</ele>
        <time>2025-08-06T11:02:04Z</time>
      </trkpt>
      <trkpt lat="48.19236" lon="7.10987">
        <ele>952</ele>
        <time>2025-08-06T11:02:08Z</time>
      </trkpt>
      <trkpt lat="48.19244" lon="7.11004">
        <ele>952.6</ele>
        <time>2025-08-06T11:02:13Z</time>
      </trkpt>
      <trkpt lat="48.19248" lon="7.11015">
        <ele>953</ele>
        <time>2025-08-06T11:02:16Z</time>
      </trkpt>
      <trkpt lat="48.19252" lon="7.11029">
        <ele>954.2</ele>
        <time>2025-08-06T11:02:20Z</time>
      </trkpt>
      <trkpt lat="48.19254" lon="7.11033">
        <ele>954.2</ele>
        <time>2025-08-06T11:02:21Z</time>
      </trkpt>
      <trkpt lat="48.1926" lon="7.11052">
        <ele>955.4</ele>
        <time>2025-08-06T11:02:26Z</time>
      </trkpt>
      <trkpt lat="48.19264" lon="7.1106">
        <ele>956</ele>
        <time>2025-08-06T11:02:29Z</time>
      </trkpt>
      <trkpt lat="48.19267" lon="7.1107">
        <ele>956.6</ele>
        <time>2025-08-06T11:02:32Z</time>
      </trkpt>
      <trkpt lat="48.19269" lon="7.11077">
        <ele>957.2</ele>
        <time>2025-08-06T11:02:34Z</time>
      </trkpt>
      <trkpt lat="48.19274" lon="7.11088">
        <ele>957.8</ele>
        <time>2025-08-06T11:02:38Z</time>
      </trkpt>
      <trkpt lat="48.19276" lon="7.11095">
        <ele>958.2</ele>
        <time>2025-08-06T11:02:40Z</time>
      </trkpt>
      <trkpt lat="48.19282" lon="7.11108">
        <ele>959</ele>
        <time>2025-08-06T11:02:44Z</time>
      </trkpt>
      <trkpt lat="48.19289" lon="7.11122">
        <ele>959.4</ele>
        <time>2025-08-06T11:02:48Z</time>
      </trkpt>
      <trkpt lat="48.19294" lon="7.11131">
        <ele>960</ele>
        <time>2025-08-06T11:02:51Z</time>
      </trkpt>
      <trkpt lat="48.19303" lon="7.11147">
        <ele>961.2</ele>
        <time>2025-08-06T11:02:56Z</time>
      </trkpt>
      <trkpt lat="48.19305" lon="7.1115">
        <ele>961.6</ele>
        <time>2025-08-06T11:02:57Z</time>
      </trkpt>
      <trkpt lat="48.19314" lon="7.11162">
        <ele>962.4</ele>
        <time>2025-08-06T11:03:02Z</time>
      </trkpt>
      <trkpt lat="48.19318" lon="7.11166">
        <ele>962.8</ele>
        <time>2025-08-06T11:03:04Z</time>
      </trkpt>
      <trkpt lat="48.19323" lon="7.1117">
        <ele>963.2</ele>
        <time>2025-08-06T11:03:06Z</time>
      </trkpt>
      <trkpt lat="48.19324" lon="7.11171">
        <ele>963.4</ele>
        <time>2025-08-06T11:03:07Z</time>
      </trkpt>
      <trkpt lat="48.19326" lon="7.11173">
        <ele>963.6</ele>
        <time>2025-08-06T11:03:08Z</time>
      </trkpt>
      <trkpt lat="48.19333" lon="7.11181">
        <ele>964.4</ele>
        <time>2025-08-06T11:03:11Z</time>
      </trkpt>
      <trkpt lat="48.19344" lon="7.11191">
        <ele>965.4</ele>
        <time>2025-08-06T11:03:16Z</time>
      </trkpt>
      <trkpt lat="48.19347" lon="7.11193">
        <ele>965.6</ele>
        <time>2025-08-06T11:03:17Z</time>
      </trkpt>
      <trkpt lat="48.19362" lon="7.11199">
        <ele>966.8</ele>
        <time>2025-08-06T11:03:23Z</time>
      </trkpt>
      <trkpt lat="48.19367" lon="7.112">
        <ele>967.2</ele>
        <time>2025-08-06T11:03:25Z</time>
      </trkpt>
      <trkpt lat="48.19377" lon="7.11199">
        <ele>967.8</ele>
        <time>2025-08-06T11:03:28Z</time>
      </trkpt>
      <trkpt lat="48.19388" lon="7.112">
        <ele>968.2</ele>
        <time>2025-08-06T11:03:32Z</time>
      </trkpt>
      <trkpt lat="48.19405" lon="7.11198">
        <ele>969</ele>
        <time>2025-08-06T11:03:38Z</time>
      </trkpt>
      <trkpt lat="48.19415" lon="7.11196">
        <ele>969.6</ele>
        <time>2025-08-06T11:03:42Z</time>
      </trkpt>
      <trkpt lat="48.19423" lon="7.11192">
        <ele>970.2</ele>
        <time>2025-08-06T11:03:45Z</time>
      </trkpt>
      <trkpt lat="48.19437" lon="7.11184">
        <ele>971.2</ele>
        <time>2025-08-06T11:03:50Z</time>
      </trkpt>
      <trkpt lat="48.19439" lon="7.11184">
        <ele>971.4</ele>
        <time>2025-08-06T11:03:51Z</time>
      </trkpt>
      <trkpt lat="48.19443" lon="7.11182">
        <ele>972.2</ele>
        <time>2025-08-06T11:03:55Z</time>
      </trkpt>
      <trkpt lat="48.19443" lon="7.11182">
        <ele>972.4</ele>
        <time>2025-08-06T11:03:56Z</time>
      </trkpt>
      <trkpt lat="48.19443" lon="7.11182">
        <ele>972.8</ele>
        <time>2025-08-06T11:03:58Z</time>
      </trkpt>
      <trkpt lat="48.19446" lon="7.11176">
        <ele>972.4</ele>
        <time>2025-08-06T11:06:55Z</time>
      </trkpt>
      <trkpt lat="48.1945" lon="7.11171">
        <ele>972.4</ele>
        <time>2025-08-06T11:06:57Z</time>
      </trkpt>
      <trkpt lat="48.19464" lon="7.11154">
        <ele>973</ele>
        <time>2025-08-06T11:07:03Z</time>
      </trkpt>
      <trkpt lat="48.19475" lon="7.11132">
        <ele>973.6</ele>
        <time>2025-08-06T11:07:10Z</time>
      </trkpt>
      <trkpt lat="48.19479" lon="7.11126">
        <ele>973.8</ele>
        <time>2025-08-06T11:07:12Z</time>
      </trkpt>
      <trkpt lat="48.19488" lon="7.11107">
        <ele>974.8</ele>
        <time>2025-08-06T11:07:18Z</time>
      </trkpt>
      <trkpt lat="48.19489" lon="7.11104">
        <ele>974.8</ele>
        <time>2025-08-06T11:07:19Z</time>
      </trkpt>
      <trkpt lat="48.19494" lon="7.1109">
        <ele>975.8</ele>
        <time>2025-08-06T11:07:23Z</time>
      </trkpt>
      <trkpt lat="48.195" lon="7.11067">
        <ele>976.4</ele>
        <time>2025-08-06T11:07:29Z</time>
      </trkpt>
      <trkpt lat="48.19503" lon="7.11055">
        <ele>977</ele>
        <time>2025-08-06T11:07:32Z</time>
      </trkpt>
      <trkpt lat="48.19509" lon="7.11041">
        <ele>977.4</ele>
        <time>2025-08-06T11:07:36Z</time>
      </trkpt>
      <trkpt lat="48.19517" lon="7.11026">
        <ele>978</ele>
        <time>2025-08-06T11:07:40Z</time>
      </trkpt>
      <trkpt lat="48.19528" lon="7.11011">
        <ele>978.8</ele>
        <time>2025-08-06T11:07:45Z</time>
      </trkpt>
      <trkpt lat="48.19533" lon="7.11006">
        <ele>979.2</ele>
        <time>2025-08-06T11:07:47Z</time>
      </trkpt>
      <trkpt lat="48.19548" lon="7.10997">
        <ele>980</ele>
        <time>2025-08-06T11:07:53Z</time>
      </trkpt>
      <trkpt lat="48.19553" lon="7.10995">
        <ele>980.2</ele>
        <time>2025-08-06T11:07:55Z</time>
      </trkpt>
      <trkpt lat="48.19563" lon="7.10992">
        <ele>981.2</ele>
        <time>2025-08-06T11:08:00Z</time>
      </trkpt>
      <trkpt lat="48.19565" lon="7.10992">
        <ele>981.4</ele>
        <time>2025-08-06T11:08:01Z</time>
      </trkpt>
      <trkpt lat="48.1957" lon="7.10992">
        <ele>981.8</ele>
        <time>2025-08-06T11:08:03Z</time>
      </trkpt>
      <trkpt lat="48.19579" lon="7.10997">
        <ele>982.2</ele>
        <time>2025-08-06T11:08:06Z</time>
      </trkpt>
      <trkpt lat="48.19584" lon="7.10999">
        <ele>982.4</ele>
        <time>2025-08-06T11:08:08Z</time>
      </trkpt>
      <trkpt lat="48.196" lon="7.11001">
        <ele>983.2</ele>
        <time>2025-08-06T11:08:13Z</time>
      </trkpt>
      <trkpt lat="48.19606" lon="7.11001">
        <ele>983.4</ele>
        <time>2025-08-06T11:08:15Z</time>
      </trkpt>
      <trkpt lat="48.19621" lon="7.10994">
        <ele>984.4</ele>
        <time>2025-08-06T11:08:20Z</time>
      </trkpt>
      <trkpt lat="48.19623" lon="7.10991">
        <ele>984.6</ele>
        <time>2025-08-06T11:08:21Z</time>
      </trkpt>
      <trkpt lat="48.19638" lon="7.10979">
        <ele>985.8</ele>
        <time>2025-08-06T11:08:27Z</time>
      </trkpt>
      <trkpt lat="48.19646" lon="7.10971">
        <ele>986.4</ele>
        <time>2025-08-06T11:08:31Z</time>
      </trkpt>
      <trkpt lat="48.1965" lon="7.10966">
        <ele>986.8</ele>
        <time>2025-08-06T11:08:33Z</time>
      </trkpt>
      <trkpt lat="48.19664" lon="7.10956">
        <ele>987.8</ele>
        <time>2025-08-06T11:08:39Z</time>
      </trkpt>
      <trkpt lat="48.19678" lon="7.10957">
        <ele>988.8</ele>
        <time>2025-08-06T11:08:45Z</time>
      </trkpt>
      <trkpt lat="48.19681" lon="7.10958">
        <ele>989</ele>
        <time>2025-08-06T11:08:46Z</time>
      </trkpt>
      <trkpt lat="48.19697" lon="7.10963">
        <ele>990.2</ele>
        <time>2025-08-06T11:08:52Z</time>
      </trkpt>
      <trkpt lat="48.197" lon="7.10965">
        <ele>990.4</ele>
        <time>2025-08-06T11:08:53Z</time>
      </trkpt>
      <trkpt lat="48.19716" lon="7.10967">
        <ele>991</ele>
        <time>2025-08-06T11:08:59Z</time>
      </trkpt>
      <trkpt lat="48.19722" lon="7.1097">
        <ele>991.2</ele>
        <time>2025-08-06T11:09:01Z</time>
      </trkpt>
      <trkpt lat="48.19731" lon="7.10972">
        <ele>991.6</ele>
        <time>2025-08-06T11:09:04Z</time>
      </trkpt>
      <trkpt lat="48.1975" lon="7.10977">
        <ele>992.2</ele>
        <time>2025-08-06T11:09:10Z</time>
      </trkpt>
      <trkpt lat="48.19752" lon="7.10977">
        <ele>992.4</ele>
        <time>2025-08-06T11:09:11Z</time>
      </trkpt>
      <trkpt lat="48.19769" lon="7.10983">
        <ele>993.2</ele>
        <time>2025-08-06T11:09:17Z</time>
      </trkpt>
      <trkpt lat="48.19771" lon="7.10985">
        <ele>993.4</ele>
        <time>2025-08-06T11:09:18Z</time>
      </trkpt>
      <trkpt lat="48.19787" lon="7.10988">
        <ele>994.2</ele>
        <time>2025-08-06T11:09:23Z</time>
      </trkpt>
      <trkpt lat="48.19796" lon="7.1099">
        <ele>994.6</ele>
        <time>2025-08-06T11:09:26Z</time>
      </trkpt>
      <trkpt lat="48.19804" lon="7.10988">
        <ele>995.2</ele>
        <time>2025-08-06T11:09:29Z</time>
      </trkpt>
      <trkpt lat="48.19816" lon="7.10984">
        <ele>996</ele>
        <time>2025-08-06T11:09:33Z</time>
      </trkpt>
      <trkpt lat="48.19819" lon="7.10982">
        <ele>996.4</ele>
        <time>2025-08-06T11:09:34Z</time>
      </trkpt>
      <trkpt lat="48.19832" lon="7.10978">
        <ele>997.2</ele>
        <time>2025-08-06T11:09:39Z</time>
      </trkpt>
      <trkpt lat="48.1984" lon="7.10978">
        <ele>997.6</ele>
        <time>2025-08-06T11:09:42Z</time>
      </trkpt>
      <trkpt lat="48.19855" lon="7.10975">
        <ele>998.4</ele>
        <time>2025-08-06T11:09:47Z</time>
      </trkpt>
      <trkpt lat="48.19858" lon="7.10975">
        <ele>999</ele>
        <time>2025-08-06T11:09:49Z</time>
      </trkpt>
      <trkpt lat="48.19864" lon="7.10976">
        <ele>999.4</ele>
        <time>2025-08-06T11:09:52Z</time>
      </trkpt>
      <trkpt lat="48.19869" lon="7.10979">
        <ele>999.8</ele>
        <time>2025-08-06T11:09:54Z</time>
      </trkpt>
      <trkpt lat="48.19882" lon="7.10983">
        <ele>1001</ele>
        <time>2025-08-06T11:09:59Z</time>
      </trkpt>
      <trkpt lat="48.19885" lon="7.10985">
        <ele>1001</ele>
        <time>2025-08-06T11:10:00Z</time>
      </trkpt>
      <trkpt lat="48.19901" lon="7.11">
        <ele>1002</ele>
        <time>2025-08-06T11:10:06Z</time>
      </trkpt>
      <trkpt lat="48.19903" lon="7.11002">
        <ele>1002</ele>
        <time>2025-08-06T11:10:07Z</time>
      </trkpt>
      <trkpt lat="48.1992" lon="7.11004">
        <ele>1003.4</ele>
        <time>2025-08-06T11:10:13Z</time>
      </trkpt>
      <trkpt lat="48.19931" lon="7.10995">
        <ele>1004.4</ele>
        <time>2025-08-06T11:10:18Z</time>
      </trkpt>
      <trkpt lat="48.19933" lon="7.10992">
        <ele>1004.4</ele>
        <time>2025-08-06T11:10:19Z</time>
      </trkpt>
      <trkpt lat="48.19939" lon="7.10971">
        <ele>1005.4</ele>
        <time>2025-08-06T11:10:25Z</time>
      </trkpt>
      <trkpt lat="48.1994" lon="7.10967">
        <ele>1005.4</ele>
        <time>2025-08-06T11:10:26Z</time>
      </trkpt>
      <trkpt lat="48.19938" lon="7.10941">
        <ele>1006.4</ele>
        <time>2025-08-06T11:10:33Z</time>
      </trkpt>
      <trkpt lat="48.19937" lon="7.10935">
        <ele>1006.8</ele>
        <time>2025-08-06T11:10:35Z</time>
      </trkpt>
      <trkpt lat="48.19937" lon="7.10923">
        <ele>1007.2</ele>
        <time>2025-08-06T11:10:38Z</time>
      </trkpt>
      <trkpt lat="48.19936" lon="7.10911">
        <ele>1007.8</ele>
        <time>2025-08-06T11:10:41Z</time>
      </trkpt>
      <trkpt lat="48.19933" lon="7.10896">
        <ele>1008.6</ele>
        <time>2025-08-06T11:10:45Z</time>
      </trkpt>
      <trkpt lat="48.19934" lon="7.10889">
        <ele>1009</ele>
        <time>2025-08-06T11:10:47Z</time>
      </trkpt>
      <trkpt lat="48.19934" lon="7.10887">
        <ele>1009.4</ele>
        <time>2025-08-06T11:10:48Z</time>
      </trkpt>
      <trkpt lat="48.19934" lon="7.1088">
        <ele>1009.6</ele>
        <time>2025-08-06T11:10:50Z</time>
      </trkpt>
      <trkpt lat="48.19932" lon="7.10867">
        <ele>1010.2</ele>
        <time>2025-08-06T11:10:53Z</time>
      </trkpt>
      <trkpt lat="48.19934" lon="7.10852">
        <ele>1011</ele>
        <time>2025-08-06T11:10:57Z</time>
      </trkpt>
      <trkpt lat="48.19933" lon="7.10849">
        <ele>1011.2</ele>
        <time>2025-08-06T11:10:58Z</time>
      </trkpt>
      <trkpt lat="48.1993" lon="7.10833">
        <ele>1012.4</ele>
        <time>2025-08-06T11:11:02Z</time>
      </trkpt>
      <trkpt lat="48.19933" lon="7.10823">
        <ele>1013.2</ele>
        <time>2025-08-06T11:11:05Z</time>
      </trkpt>
      <trkpt lat="48.19933" lon="7.10819">
        <ele>1013.4</ele>
        <time>2025-08-06T11:11:06Z</time>
      </trkpt>
      <trkpt lat="48.19933" lon="7.10805">
        <ele>1014.4</ele>
        <time>2025-08-06T11:11:10Z</time>
      </trkpt>
      <trkpt lat="48.1993" lon="7.10784">
        <ele>1015.6</ele>
        <time>2025-08-06T11:11:15Z</time>
      </trkpt>
      <trkpt lat="48.19933" lon="7.10773">
        <ele>1016.2</ele>
        <time>2025-08-06T11:11:18Z</time>
      </trkpt>
      <trkpt lat="48.19934" lon="7.10769">
        <ele>1016.6</ele>
        <time>2025-08-06T11:11:20Z</time>
      </trkpt>
      <trkpt lat="48.19936" lon="7.10751">
        <ele>1017.6</ele>
        <time>2025-08-06T11:11:25Z</time>
      </trkpt>
      <trkpt lat="48.19936" lon="7.10748">
        <ele>1017.8</ele>
        <time>2025-08-06T11:11:26Z</time>
      </trkpt>
      <trkpt lat="48.19942" lon="7.10725">
        <ele>1018.6</ele>
        <time>2025-08-06T11:11:32Z</time>
      </trkpt>
      <trkpt lat="48.19942" lon="7.10721">
        <ele>1018.6</ele>
        <time>2025-08-06T11:11:33Z</time>
      </trkpt>
      <trkpt lat="48.19948" lon="7.1071">
        <ele>1019</ele>
        <time>2025-08-06T11:11:38Z</time>
      </trkpt>
      <trkpt lat="48.19948" lon="7.1071">
        <ele>1019.4</ele>
        <time>2025-08-06T11:11:40Z</time>
      </trkpt>
      <trkpt lat="48.19945" lon="7.10702">
        <ele>1019.6</ele>
        <time>2025-08-06T11:13:28Z</time>
      </trkpt>
      <trkpt lat="48.19943" lon="7.107">
        <ele>1019.6</ele>
        <time>2025-08-06T11:13:29Z</time>
      </trkpt>
      <trkpt lat="48.19932" lon="7.10691">
        <ele>1019.6</ele>
        <time>2025-08-06T11:13:33Z</time>
      </trkpt>
      <trkpt lat="48.19913" lon="7.10678">
        <ele>1020</ele>
        <time>2025-08-06T11:13:40Z</time>
      </trkpt>
      <trkpt lat="48.19905" lon="7.10673">
        <ele>1020.6</ele>
        <time>2025-08-06T11:13:43Z</time>
      </trkpt>
      <trkpt lat="48.19889" lon="7.10663">
        <ele>1021.8</ele>
        <time>2025-08-06T11:13:49Z</time>
      </trkpt>
      <trkpt lat="48.19884" lon="7.10661">
        <ele>1022</ele>
        <time>2025-08-06T11:13:51Z</time>
      </trkpt>
      <trkpt lat="48.19875" lon="7.10659">
        <ele>1022.8</ele>
        <time>2025-08-06T11:13:54Z</time>
      </trkpt>
      <trkpt lat="48.19861" lon="7.1065">
        <ele>1023.8</ele>
        <time>2025-08-06T11:13:59Z</time>
      </trkpt>
      <trkpt lat="48.19858" lon="7.10648">
        <ele>1024</ele>
        <time>2025-08-06T11:14:00Z</time>
      </trkpt>
      <trkpt lat="48.19842" lon="7.1064">
        <ele>1025.2</ele>
        <time>2025-08-06T11:14:05Z</time>
      </trkpt>
      <trkpt lat="48.19839" lon="7.10638">
        <ele>1025.4</ele>
        <time>2025-08-06T11:14:06Z</time>
      </trkpt>
      <trkpt lat="48.1983" lon="7.10634">
        <ele>1026.2</ele>
        <time>2025-08-06T11:14:09Z</time>
      </trkpt>
      <trkpt lat="48.19816" lon="7.10628">
        <ele>1027.4</ele>
        <time>2025-08-06T11:14:13Z</time>
      </trkpt>
      <trkpt lat="48.19808" lon="7.10624">
        <ele>1027.8</ele>
        <time>2025-08-06T11:14:15Z</time>
      </trkpt>
      <trkpt lat="48.19799" lon="7.10616">
        <ele>1028.6</ele>
        <time>2025-08-06T11:14:19Z</time>
      </trkpt>
      <trkpt lat="48.19791" lon="7.10611">
        <ele>1029</ele>
        <time>2025-08-06T11:14:22Z</time>
      </trkpt>
      <trkpt lat="48.19783" lon="7.10607">
        <ele>1029.8</ele>
        <time>2025-08-06T11:14:25Z</time>
      </trkpt>
      <trkpt lat="48.19778" lon="7.10605">
        <ele>1030.2</ele>
        <time>2025-08-06T11:14:27Z</time>
      </trkpt>
      <trkpt lat="48.19767" lon="7.106">
        <ele>1031</ele>
        <time>2025-08-06T11:14:31Z</time>
      </trkpt>
      <trkpt lat="48.19761" lon="7.10596">
        <ele>1031.4</ele>
        <time>2025-08-06T11:14:33Z</time>
      </trkpt>
      <trkpt lat="48.19755" lon="7.10593">
        <ele>1032</ele>
        <time>2025-08-06T11:14:35Z</time>
      </trkpt>
      <trkpt lat="48.19746" lon="7.10585">
        <ele>1032.6</ele>
        <time>2025-08-06T11:14:38Z</time>
      </trkpt>
      <trkpt lat="48.19742" lon="7.10577">
        <ele>1033</ele>
        <time>2025-08-06T11:14:40Z</time>
      </trkpt>
      <trkpt lat="48.19732" lon="7.10561">
        <ele>1034</ele>
        <time>2025-08-06T11:14:44Z</time>
      </trkpt>
      <trkpt lat="48.19726" lon="7.1055">
        <ele>1034.4</ele>
        <time>2025-08-06T11:14:47Z</time>
      </trkpt>
      <trkpt lat="48.1972" lon="7.1054">
        <ele>1035</ele>
        <time>2025-08-06T11:14:50Z</time>
      </trkpt>
      <trkpt lat="48.19715" lon="7.1053">
        <ele>1036</ele>
        <time>2025-08-06T11:14:53Z</time>
      </trkpt>
      <trkpt lat="48.19713" lon="7.10527">
        <ele>1036.2</ele>
        <time>2025-08-06T11:14:54Z</time>
      </trkpt>
      <trkpt lat="48.19701" lon="7.10508">
        <ele>1037.4</ele>
        <time>2025-08-06T11:15:00Z</time>
      </trkpt>
      <trkpt lat="48.19699" lon="7.10505">
        <ele>1037.8</ele>
        <time>2025-08-06T11:15:01Z</time>
      </trkpt>
      <trkpt lat="48.1969" lon="7.10491">
        <ele>1038.4</ele>
        <time>2025-08-06T11:15:05Z</time>
      </trkpt>
      <trkpt lat="48.19682" lon="7.10477">
        <ele>1039.6</ele>
        <time>2025-08-06T11:15:09Z</time>
      </trkpt>
      <trkpt lat="48.19673" lon="7.10458">
        <ele>1040.6</ele>
        <time>2025-08-06T11:15:14Z</time>
      </trkpt>
      <trkpt lat="48.19669" lon="7.1045">
        <ele>1041.2</ele>
        <time>2025-08-06T11:15:16Z</time>
      </trkpt>
      <trkpt lat="48.19664" lon="7.10443">
        <ele>1041.6</ele>
        <time>2025-08-06T11:15:18Z</time>
      </trkpt>
      <trkpt lat="48.19652" lon="7.10426">
        <ele>1043</ele>
        <time>2025-08-06T11:15:24Z</time>
      </trkpt>
      <trkpt lat="48.1965" lon="7.10423">
        <ele>1043.4</ele>
        <time>2025-08-06T11:15:25Z</time>
      </trkpt>
      <trkpt lat="48.19642" lon="7.10415">
        <ele>1044</ele>
        <time>2025-08-06T11:15:29Z</time>
      </trkpt>
      <trkpt lat="48.19637" lon="7.10411">
        <ele>1044.2</ele>
        <time>2025-08-06T11:15:31Z</time>
      </trkpt>
      <trkpt lat="48.19624" lon="7.10401">
        <ele>1045</ele>
        <time>2025-08-06T11:15:37Z</time>
      </trkpt>
      <trkpt lat="48.19619" lon="7.10399">
        <ele>1045.4</ele>
        <time>2025-08-06T11:15:39Z</time>
      </trkpt>
      <trkpt lat="48.19608" lon="7.10395">
        <ele>1046</ele>
        <time>2025-08-06T11:15:43Z</time>
      </trkpt>
      <trkpt lat="48.19602" lon="7.10393">
        <ele>1046.4</ele>
        <time>2025-08-06T11:15:45Z</time>
      </trkpt>
      <trkpt lat="48.19585" lon="7.10387">
        <ele>1047.2</ele>
        <time>2025-08-06T11:15:51Z</time>
      </trkpt>
      <trkpt lat="48.19578" lon="7.10385">
        <ele>1047.4</ele>
        <time>2025-08-06T11:15:54Z</time>
      </trkpt>
      <trkpt lat="48.19563" lon="7.10375">
        <ele>1048.2</ele>
        <time>2025-08-06T11:15:59Z</time>
      </trkpt>
      <trkpt lat="48.19549" lon="7.10364">
        <ele>1048.8</ele>
        <time>2025-08-06T11:16:04Z</time>
      </trkpt>
      <trkpt lat="48.19541" lon="7.10355">
        <ele>1049</ele>
        <time>2025-08-06T11:16:07Z</time>
      </trkpt>
      <trkpt lat="48.19524" lon="7.1034">
        <ele>1049.8</ele>
        <time>2025-08-06T11:16:13Z</time>
      </trkpt>
      <trkpt lat="48.19518" lon="7.10335">
        <ele>1050.2</ele>
        <time>2025-08-06T11:16:15Z</time>
      </trkpt>
      <trkpt lat="48.19505" lon="7.10322">
        <ele>1050.6</ele>
        <time>2025-08-06T11:16:20Z</time>
      </trkpt>
      <trkpt lat="48.19486" lon="7.10302">
        <ele>1051.4</ele>
        <time>2025-08-06T11:16:27Z</time>
      </trkpt>
      <trkpt lat="48.19484" lon="7.103">
        <ele>1051.4</ele>
        <time>2025-08-06T11:16:28Z</time>
      </trkpt>
      <trkpt lat="48.19468" lon="7.10282">
        <ele>1052.4</ele>
        <time>2025-08-06T11:16:34Z</time>
      </trkpt>
      <trkpt lat="48.1946" lon="7.10273">
        <ele>1052.8</ele>
        <time>2025-08-06T11:16:37Z</time>
      </trkpt>
      <trkpt lat="48.19438" lon="7.10248">
        <ele>1053.6</ele>
        <time>2025-08-06T11:16:46Z</time>
      </trkpt>
      <trkpt lat="48.19436" lon="7.10245">
        <ele>1053.6</ele>
        <time>2025-08-06T11:16:47Z</time>
      </trkpt>
      <trkpt lat="48.19418" lon="7.10225">
        <ele>1054.8</ele>
        <time>2025-08-06T11:16:54Z</time>
      </trkpt>
      <trkpt lat="48.19402" lon="7.10208">
        <ele>1055.8</ele>
        <time>2025-08-06T11:17:00Z</time>
      </trkpt>
      <trkpt lat="48.19395" lon="7.10199">
        <ele>1056.6</ele>
        <time>2025-08-06T11:17:03Z</time>
      </trkpt>
      <trkpt lat="48.19388" lon="7.1019">
        <ele>1057</ele>
        <time>2025-08-06T11:17:06Z</time>
      </trkpt>
      <trkpt lat="48.19375" lon="7.10177">
        <ele>1057.2</ele>
        <time>2025-08-06T11:17:11Z</time>
      </trkpt>
      <trkpt lat="48.19366" lon="7.10164">
        <ele>1057.8</ele>
        <time>2025-08-06T11:17:15Z</time>
      </trkpt>
      <trkpt lat="48.19351" lon="7.10147">
        <ele>1058.6</ele>
        <time>2025-08-06T11:17:21Z</time>
      </trkpt>
      <trkpt lat="48.19346" lon="7.10142">
        <ele>1058.8</ele>
        <time>2025-08-06T11:17:23Z</time>
      </trkpt>
      <trkpt lat="48.19334" lon="7.10132">
        <ele>1059.4</ele>
        <time>2025-08-06T11:17:27Z</time>
      </trkpt>
      <trkpt lat="48.19325" lon="7.10125">
        <ele>1059.8</ele>
        <time>2025-08-06T11:17:30Z</time>
      </trkpt>
      <trkpt lat="48.19317" lon="7.10119">
        <ele>1060.4</ele>
        <time>2025-08-06T11:17:33Z</time>
      </trkpt>
      <trkpt lat="48.19307" lon="7.10113">
        <ele>1061</ele>
        <time>2025-08-06T11:17:36Z</time>
      </trkpt>
      <trkpt lat="48.19296" lon="7.10106">
        <ele>1061.6</ele>
        <time>2025-08-06T11:17:40Z</time>
      </trkpt>
      <trkpt lat="48.19283" lon="7.10101">
        <ele>1062</ele>
        <time>2025-08-06T11:17:44Z</time>
      </trkpt>
      <trkpt lat="48.19273" lon="7.10096">
        <ele>1062.4</ele>
        <time>2025-08-06T11:17:47Z</time>
      </trkpt>
      <trkpt lat="48.19254" lon="7.10087">
        <ele>1063.2</ele>
        <time>2025-08-06T11:17:53Z</time>
      </trkpt>
      <trkpt lat="48.19238" lon="7.10079">
        <ele>1063.6</ele>
        <time>2025-08-06T11:17:58Z</time>
      </trkpt>
      <trkpt lat="48.19208" lon="7.10068">
        <ele>1064.2</ele>
        <time>2025-08-06T11:18:06Z</time>
      </trkpt>
      <trkpt lat="48.19203" lon="7.10068">
        <ele>1064.4</ele>
        <time>2025-08-06T11:18:07Z</time>
      </trkpt>
      <trkpt lat="48.19189" lon="7.10068">
        <ele>1064.4</ele>
        <time>2025-08-06T11:18:10Z</time>
      </trkpt>
      <trkpt lat="48.19184" lon="7.10069">
        <ele>1064.4</ele>
        <time>2025-08-06T11:18:11Z</time>
      </trkpt>
      <trkpt lat="48.19156" lon="7.10076">
        <ele>1064.4</ele>
        <time>2025-08-06T11:18:16Z</time>
      </trkpt>
      <trkpt lat="48.19124" lon="7.10087">
        <ele>1064</ele>
        <time>2025-08-06T11:18:21Z</time>
      </trkpt>
      <trkpt lat="48.19104" lon="7.10093">
        <ele>1063.2</ele>
        <time>2025-08-06T11:18:24Z</time>
      </trkpt>
      <trkpt lat="48.19081" lon="7.10099">
        <ele>1062.6</ele>
        <time>2025-08-06T11:18:27Z</time>
      </trkpt>
      <trkpt lat="48.1905" lon="7.10103">
        <ele>1062</ele>
        <time>2025-08-06T11:18:31Z</time>
      </trkpt>
      <trkpt lat="48.19036" lon="7.10102">
        <ele>1061.8</ele>
        <time>2025-08-06T11:18:33Z</time>
      </trkpt>
      <trkpt lat="48.19013" lon="7.10099">
        <ele>1061</ele>
        <time>2025-08-06T11:18:36Z</time>
      </trkpt>
      <trkpt lat="48.18978" lon="7.10097">
        <ele>1060</ele>
        <time>2025-08-06T11:18:41Z</time>
      </trkpt>
      <trkpt lat="48.18944" lon="7.10091">
        <ele>1060</ele>
        <time>2025-08-06T11:18:47Z</time>
      </trkpt>
      <trkpt lat="48.18919" lon="7.10082">
        <ele>1060.8</ele>
        <time>2025-08-06T11:18:53Z</time>
      </trkpt>
      <trkpt lat="48.18916" lon="7.10079">
        <ele>1061</ele>
        <time>2025-08-06T11:18:54Z</time>
      </trkpt>
      <trkpt lat="48.18906" lon="7.10071">
        <ele>1062.2</ele>
        <time>2025-08-06T11:18:58Z</time>
      </trkpt>
      <trkpt lat="48.18903" lon="7.10069">
        <ele>1062.2</ele>
        <time>2025-08-06T11:18:59Z</time>
      </trkpt>
      <trkpt lat="48.18895" lon="7.10059">
        <ele>1063.4</ele>
        <time>2025-08-06T11:19:03Z</time>
      </trkpt>
      <trkpt lat="48.18891" lon="7.10053">
        <ele>1063.8</ele>
        <time>2025-08-06T11:19:05Z</time>
      </trkpt>
      <trkpt lat="48.18883" lon="7.10036">
        <ele>1064.6</ele>
        <time>2025-08-06T11:19:10Z</time>
      </trkpt>
      <trkpt lat="48.18881" lon="7.10033">
        <ele>1064.6</ele>
        <time>2025-08-06T11:19:11Z</time>
      </trkpt>
      <trkpt lat="48.18873" lon="7.10019">
        <ele>1065.6</ele>
        <time>2025-08-06T11:19:15Z</time>
      </trkpt>
      <trkpt lat="48.18867" lon="7.10005">
        <ele>1066.6</ele>
        <time>2025-08-06T11:19:19Z</time>
      </trkpt>
      <trkpt lat="48.18865" lon="7.10002">
        <ele>1066.8</ele>
        <time>2025-08-06T11:19:20Z</time>
      </trkpt>
      <trkpt lat="48.18857" lon="7.09982">
        <ele>1068</ele>
        <time>2025-08-06T11:19:26Z</time>
      </trkpt>
      <trkpt lat="48.18853" lon="7.09974">
        <ele>1068.6</ele>
        <time>2025-08-06T11:19:28Z</time>
      </trkpt>
      <trkpt lat="48.1885" lon="7.09969">
        <ele>1069</ele>
        <time>2025-08-06T11:19:30Z</time>
      </trkpt>
      <trkpt lat="48.18845" lon="7.09956">
        <ele>1070.2</ele>
        <time>2025-08-06T11:19:34Z</time>
      </trkpt>
      <trkpt lat="48.18844" lon="7.09952">
        <ele>1070.2</ele>
        <time>2025-08-06T11:19:35Z</time>
      </trkpt>
      <trkpt lat="48.1884" lon="7.09931">
        <ele>1071.4</ele>
        <time>2025-08-06T11:19:41Z</time>
      </trkpt>
      <trkpt lat="48.18839" lon="7.09927">
        <ele>1071.4</ele>
        <time>2025-08-06T11:19:42Z</time>
      </trkpt>
      <trkpt lat="48.18838" lon="7.09915">
        <ele>1072.4</ele>
        <time>2025-08-06T11:19:45Z</time>
      </trkpt>
      <trkpt lat="48.18835" lon="7.09898">
        <ele>1073.2</ele>
        <time>2025-08-06T11:19:49Z</time>
      </trkpt>
      <trkpt lat="48.18834" lon="7.09894">
        <ele>1073.6</ele>
        <time>2025-08-06T11:19:50Z</time>
      </trkpt>
      <trkpt lat="48.18834" lon="7.09873">
        <ele>1074.6</ele>
        <time>2025-08-06T11:19:55Z</time>
      </trkpt>
      <trkpt lat="48.18834" lon="7.09869">
        <ele>1074.8</ele>
        <time>2025-08-06T11:19:56Z</time>
      </trkpt>
      <trkpt lat="48.18832" lon="7.09843">
        <ele>1075.8</ele>
        <time>2025-08-06T11:20:02Z</time>
      </trkpt>
      <trkpt lat="48.18831" lon="7.09812">
        <ele>1076.6</ele>
        <time>2025-08-06T11:20:09Z</time>
      </trkpt>
      <trkpt lat="48.18831" lon="7.09797">
        <ele>1076.8</ele>
        <time>2025-08-06T11:20:12Z</time>
      </trkpt>
      <trkpt lat="48.1883" lon="7.09787">
        <ele>1076.8</ele>
        <time>2025-08-06T11:20:14Z</time>
      </trkpt>
      <trkpt lat="48.18828" lon="7.09777">
        <ele>1076.8</ele>
        <time>2025-08-06T11:20:16Z</time>
      </trkpt>
      <trkpt lat="48.18824" lon="7.09746">
        <ele>1077.4</ele>
        <time>2025-08-06T11:20:22Z</time>
      </trkpt>
      <trkpt lat="48.18816" lon="7.09722">
        <ele>1077.8</ele>
        <time>2025-08-06T11:20:26Z</time>
      </trkpt>
      <trkpt lat="48.18809" lon="7.09703">
        <ele>1078</ele>
        <time>2025-08-06T11:20:29Z</time>
      </trkpt>
      <trkpt lat="48.18793" lon="7.09653">
        <ele>1078</ele>
        <time>2025-08-06T11:20:36Z</time>
      </trkpt>
      <trkpt lat="48.18771" lon="7.09593">
        <ele>1078.2</ele>
        <time>2025-08-06T11:20:44Z</time>
      </trkpt>
      <trkpt lat="48.18754" lon="7.09548">
        <ele>1078.4</ele>
        <time>2025-08-06T11:20:50Z</time>
      </trkpt>
      <trkpt lat="48.18747" lon="7.09533">
        <ele>1078.6</ele>
        <time>2025-08-06T11:20:52Z</time>
      </trkpt>
      <trkpt lat="48.18725" lon="7.09492">
        <ele>1078.6</ele>
        <time>2025-08-06T11:20:58Z</time>
      </trkpt>
      <trkpt lat="48.18721" lon="7.09485">
        <ele>1078.6</ele>
        <time>2025-08-06T11:20:59Z</time>
      </trkpt>
      <trkpt lat="48.18708" lon="7.09465">
        <ele>1078.6</ele>
        <time>2025-08-06T11:21:02Z</time>
      </trkpt>
      <trkpt lat="48.18693" lon="7.0945">
        <ele>1078.8</ele>
        <time>2025-08-06T11:21:05Z</time>
      </trkpt>
      <trkpt lat="48.18682" lon="7.0944">
        <ele>1078.8</ele>
        <time>2025-08-06T11:21:07Z</time>
      </trkpt>
      <trkpt lat="48.18665" lon="7.09428">
        <ele>1079</ele>
        <time>2025-08-06T11:21:10Z</time>
      </trkpt>
      <trkpt lat="48.18618" lon="7.09397">
        <ele>1079.2</ele>
        <time>2025-08-06T11:21:18Z</time>
      </trkpt>
      <trkpt lat="48.18571" lon="7.09368">
        <ele>1079.4</ele>
        <time>2025-08-06T11:21:26Z</time>
      </trkpt>
      <trkpt lat="48.18522" lon="7.09344">
        <ele>1079.4</ele>
        <time>2025-08-06T11:21:34Z</time>
      </trkpt>
      <trkpt lat="48.18481" lon="7.09333">
        <ele>1079.6</ele>
        <time>2025-08-06T11:21:41Z</time>
      </trkpt>
      <trkpt lat="48.18476" lon="7.09332">
        <ele>1079.6</ele>
        <time>2025-08-06T11:21:42Z</time>
      </trkpt>
      <trkpt lat="48.18436" lon="7.09326">
        <ele>1079.8</ele>
        <time>2025-08-06T11:21:49Z</time>
      </trkpt>
      <trkpt lat="48.18385" lon="7.09319">
        <ele>1079.8</ele>
        <time>2025-08-06T11:21:58Z</time>
      </trkpt>
      <trkpt lat="48.18335" lon="7.09304">
        <ele>1079.6</ele>
        <time>2025-08-06T11:22:06Z</time>
      </trkpt>
      <trkpt lat="48.18315" lon="7.09292">
        <ele>1079.4</ele>
        <time>2025-08-06T11:22:09Z</time>
      </trkpt>
      <trkpt lat="48.18309" lon="7.09286">
        <ele>1079.4</ele>
        <time>2025-08-06T11:22:10Z</time>
      </trkpt>
      <trkpt lat="48.18303" lon="7.09279">
        <ele>1079.2</ele>
        <time>2025-08-06T11:22:11Z</time>
      </trkpt>
      <trkpt lat="48.18294" lon="7.09258">
        <ele>1078.8</ele>
        <time>2025-08-06T11:22:13Z</time>
      </trkpt>
      <trkpt lat="48.1829" lon="7.09246">
        <ele>1078.2</ele>
        <time>2025-08-06T11:22:14Z</time>
      </trkpt>
      <trkpt lat="48.18282" lon="7.09204">
        <ele>1077</ele>
        <time>2025-08-06T11:22:17Z</time>
      </trkpt>
      <trkpt lat="48.18278" lon="7.09173">
        <ele>1075.8</ele>
        <time>2025-08-06T11:22:19Z</time>
      </trkpt>
      <trkpt lat="48.18274" lon="7.0914">
        <ele>1074.2</ele>
        <time>2025-08-06T11:22:21Z</time>
      </trkpt>
      <trkpt lat="48.18271" lon="7.09106">
        <ele>1072.8</ele>
        <time>2025-08-06T11:22:23Z</time>
      </trkpt>
      <trkpt lat="48.1827" lon="7.09089">
        <ele>1071.6</ele>
        <time>2025-08-06T11:22:24Z</time>
      </trkpt>
      <trkpt lat="48.18269" lon="7.09054">
        <ele>1069.6</ele>
        <time>2025-08-06T11:22:26Z</time>
      </trkpt>
      <trkpt lat="48.18268" lon="7.09017">
        <ele>1068</ele>
        <time>2025-08-06T11:22:28Z</time>
      </trkpt>
      <trkpt lat="48.18268" lon="7.08999">
        <ele>1066</ele>
        <time>2025-08-06T11:22:29Z</time>
      </trkpt>
      <trkpt lat="48.18266" lon="7.08964">
        <ele>1064.4</ele>
        <time>2025-08-06T11:22:31Z</time>
      </trkpt>
      <trkpt lat="48.18266" lon="7.08947">
        <ele>1063.4</ele>
        <time>2025-08-06T11:22:32Z</time>
      </trkpt>
      <trkpt lat="48.18266" lon="7.08931">
        <ele>1062.2</ele>
        <time>2025-08-06T11:22:33Z</time>
      </trkpt>
      <trkpt lat="48.18264" lon="7.08916">
        <ele>1061.6</ele>
        <time>2025-08-06T11:22:34Z</time>
      </trkpt>
      <trkpt lat="48.18261" lon="7.08902">
        <ele>1060.2</ele>
        <time>2025-08-06T11:22:35Z</time>
      </trkpt>
      <trkpt lat="48.18256" lon="7.08888">
        <ele>1058.6</ele>
        <time>2025-08-06T11:22:36Z</time>
      </trkpt>
      <trkpt lat="48.1825" lon="7.08878">
        <ele>1058</ele>
        <time>2025-08-06T11:22:37Z</time>
      </trkpt>
      <trkpt lat="48.18242" lon="7.08869">
        <ele>1056.2</ele>
        <time>2025-08-06T11:22:38Z</time>
      </trkpt>
      <trkpt lat="48.18234" lon="7.08861">
        <ele>1055.4</ele>
        <time>2025-08-06T11:22:39Z</time>
      </trkpt>
      <trkpt lat="48.18227" lon="7.08856">
        <ele>1053.4</ele>
        <time>2025-08-06T11:22:40Z</time>
      </trkpt>
      <trkpt lat="48.18219" lon="7.08853">
        <ele>1051.6</ele>
        <time>2025-08-06T11:22:41Z</time>
      </trkpt>
      <trkpt lat="48.18211" lon="7.08855">
        <ele>1051</ele>
        <time>2025-08-06T11:22:42Z</time>
      </trkpt>
      <trkpt lat="48.18201" lon="7.08861">
        <ele>1049.6</ele>
        <time>2025-08-06T11:22:43Z</time>
      </trkpt>
      <trkpt lat="48.18181" lon="7.08877">
        <ele>1047.4</ele>
        <time>2025-08-06T11:22:45Z</time>
      </trkpt>
      <trkpt lat="48.1817" lon="7.08886">
        <ele>1046.6</ele>
        <time>2025-08-06T11:22:46Z</time>
      </trkpt>
      <trkpt lat="48.18159" lon="7.08895">
        <ele>1045.4</ele>
        <time>2025-08-06T11:22:47Z</time>
      </trkpt>
      <trkpt lat="48.18148" lon="7.08903">
        <ele>1044.4</ele>
        <time>2025-08-06T11:22:48Z</time>
      </trkpt>
      <trkpt lat="48.18131" lon="7.08924">
        <ele>1043</ele>
        <time>2025-08-06T11:22:50Z</time>
      </trkpt>
      <trkpt lat="48.18115" lon="7.0895">
        <ele>1040.6</ele>
        <time>2025-08-06T11:22:52Z</time>
      </trkpt>
      <trkpt lat="48.18106" lon="7.08963">
        <ele>1039</ele>
        <time>2025-08-06T11:22:53Z</time>
      </trkpt>
      <trkpt lat="48.18089" lon="7.08987">
        <ele>1036.4</ele>
        <time>2025-08-06T11:22:55Z</time>
      </trkpt>
      <trkpt lat="48.18069" lon="7.09004">
        <ele>1034.2</ele>
        <time>2025-08-06T11:22:57Z</time>
      </trkpt>
      <trkpt lat="48.18059" lon="7.09012">
        <ele>1033.2</ele>
        <time>2025-08-06T11:22:58Z</time>
      </trkpt>
      <trkpt lat="48.18048" lon="7.09019">
        <ele>1031.4</ele>
        <time>2025-08-06T11:22:59Z</time>
      </trkpt>
      <trkpt lat="48.18037" lon="7.09024">
        <ele>1030</ele>
        <time>2025-08-06T11:23:00Z</time>
      </trkpt>
      <trkpt lat="48.18025" lon="7.0903">
        <ele>1029</ele>
        <time>2025-08-06T11:23:01Z</time>
      </trkpt>
      <trkpt lat="48.18013" lon="7.09036">
        <ele>1026.6</ele>
        <time>2025-08-06T11:23:02Z</time>
      </trkpt>
      <trkpt lat="48.18001" lon="7.09043">
        <ele>1025.8</ele>
        <time>2025-08-06T11:23:03Z</time>
      </trkpt>
      <trkpt lat="48.17989" lon="7.09052">
        <ele>1023.8</ele>
        <time>2025-08-06T11:23:04Z</time>
      </trkpt>
      <trkpt lat="48.17977" lon="7.09062">
        <ele>1022.4</ele>
        <time>2025-08-06T11:23:05Z</time>
      </trkpt>
      <trkpt lat="48.17954" lon="7.09076">
        <ele>1019.8</ele>
        <time>2025-08-06T11:23:07Z</time>
      </trkpt>
      <trkpt lat="48.17943" lon="7.09083">
        <ele>1019</ele>
        <time>2025-08-06T11:23:08Z</time>
      </trkpt>
      <trkpt lat="48.17932" lon="7.0909">
        <ele>1017.8</ele>
        <time>2025-08-06T11:23:09Z</time>
      </trkpt>
      <trkpt lat="48.17914" lon="7.091">
        <ele>1015.2</ele>
        <time>2025-08-06T11:23:11Z</time>
      </trkpt>
      <trkpt lat="48.17903" lon="7.09107">
        <ele>1013.4</ele>
        <time>2025-08-06T11:23:12Z</time>
      </trkpt>
      <trkpt lat="48.17893" lon="7.09111">
        <ele>1012.6</ele>
        <time>2025-08-06T11:23:13Z</time>
      </trkpt>
      <trkpt lat="48.17884" lon="7.09115">
        <ele>1010.4</ele>
        <time>2025-08-06T11:23:14Z</time>
      </trkpt>
      <trkpt lat="48.17875" lon="7.09115">
        <ele>1009.8</ele>
        <time>2025-08-06T11:23:15Z</time>
      </trkpt>
      <trkpt lat="48.17865" lon="7.09113">
        <ele>1007.6</ele>
        <time>2025-08-06T11:23:16Z</time>
      </trkpt>
      <trkpt lat="48.17857" lon="7.09106">
        <ele>1006.6</ele>
        <time>2025-08-06T11:23:17Z</time>
      </trkpt>
      <trkpt lat="48.17849" lon="7.09096">
        <ele>1005.4</ele>
        <time>2025-08-06T11:23:18Z</time>
      </trkpt>
      <trkpt lat="48.17842" lon="7.09083">
        <ele>1003.6</ele>
        <time>2025-08-06T11:23:19Z</time>
      </trkpt>
      <trkpt lat="48.1783" lon="7.09053">
        <ele>1001.4</ele>
        <time>2025-08-06T11:23:21Z</time>
      </trkpt>
      <trkpt lat="48.17818" lon="7.09027">
        <ele>999</ele>
        <time>2025-08-06T11:23:23Z</time>
      </trkpt>
      <trkpt lat="48.17811" lon="7.09017">
        <ele>997.6</ele>
        <time>2025-08-06T11:23:24Z</time>
      </trkpt>
      <trkpt lat="48.17803" lon="7.09011">
        <ele>997</ele>
        <time>2025-08-06T11:23:25Z</time>
      </trkpt>
      <trkpt lat="48.17795" lon="7.09007">
        <ele>995.4</ele>
        <time>2025-08-06T11:23:26Z</time>
      </trkpt>
      <trkpt lat="48.17785" lon="7.09008">
        <ele>994.4</ele>
        <time>2025-08-06T11:23:27Z</time>
      </trkpt>
      <trkpt lat="48.17775" lon="7.09015">
        <ele>993</ele>
        <time>2025-08-06T11:23:28Z</time>
      </trkpt>
      <trkpt lat="48.17767" lon="7.09024">
        <ele>992.2</ele>
        <time>2025-08-06T11:23:29Z</time>
      </trkpt>
      <trkpt lat="48.17761" lon="7.09032">
        <ele>991.2</ele>
        <time>2025-08-06T11:23:30Z</time>
      </trkpt>
      <trkpt lat="48.17753" lon="7.09045">
        <ele>990.2</ele>
        <time>2025-08-06T11:23:31Z</time>
      </trkpt>
      <trkpt lat="48.17746" lon="7.09058">
        <ele>989.8</ele>
        <time>2025-08-06T11:23:32Z</time>
      </trkpt>
      <trkpt lat="48.17733" lon="7.09087">
        <ele>988.4</ele>
        <time>2025-08-06T11:23:34Z</time>
      </trkpt>
      <trkpt lat="48.17728" lon="7.09102">
        <ele>987.2</ele>
        <time>2025-08-06T11:23:35Z</time>
      </trkpt>
      <trkpt lat="48.17723" lon="7.09117">
        <ele>985.6</ele>
        <time>2025-08-06T11:23:36Z</time>
      </trkpt>
      <trkpt lat="48.17714" lon="7.09145">
        <ele>984</ele>
        <time>2025-08-06T11:23:38Z</time>
      </trkpt>
      <trkpt lat="48.17709" lon="7.09158">
        <ele>983.8</ele>
        <time>2025-08-06T11:23:39Z</time>
      </trkpt>
      <trkpt lat="48.17702" lon="7.09167">
        <ele>982.2</ele>
        <time>2025-08-06T11:23:40Z</time>
      </trkpt>
      <trkpt lat="48.17693" lon="7.09173">
        <ele>981.4</ele>
        <time>2025-08-06T11:23:41Z</time>
      </trkpt>
      <trkpt lat="48.17684" lon="7.09174">
        <ele>979.6</ele>
        <time>2025-08-06T11:23:42Z</time>
      </trkpt>
      <trkpt lat="48.17673" lon="7.09176">
        <ele>978.2</ele>
        <time>2025-08-06T11:23:43Z</time>
      </trkpt>
      <trkpt lat="48.17652" lon="7.09177">
        <ele>976</ele>
        <time>2025-08-06T11:23:45Z</time>
      </trkpt>
      <trkpt lat="48.17643" lon="7.09175">
        <ele>975.4</ele>
        <time>2025-08-06T11:23:46Z</time>
      </trkpt>
      <trkpt lat="48.17631" lon="7.09171">
        <ele>974.2</ele>
        <time>2025-08-06T11:23:47Z</time>
      </trkpt>
      <trkpt lat="48.17621" lon="7.09164">
        <ele>973</ele>
        <time>2025-08-06T11:23:48Z</time>
      </trkpt>
      <trkpt lat="48.17611" lon="7.09155">
        <ele>972.6</ele>
        <time>2025-08-06T11:23:49Z</time>
      </trkpt>
      <trkpt lat="48.17602" lon="7.09144">
        <ele>971.4</ele>
        <time>2025-08-06T11:23:50Z</time>
      </trkpt>
      <trkpt lat="48.17595" lon="7.09131">
        <ele>970.4</ele>
        <time>2025-08-06T11:23:51Z</time>
      </trkpt>
      <trkpt lat="48.17589" lon="7.0912">
        <ele>969.2</ele>
        <time>2025-08-06T11:23:52Z</time>
      </trkpt>
      <trkpt lat="48.17573" lon="7.09087">
        <ele>967.2</ele>
        <time>2025-08-06T11:23:54Z</time>
      </trkpt>
      <trkpt lat="48.17567" lon="7.09075">
        <ele>965.6</ele>
        <time>2025-08-06T11:23:55Z</time>
      </trkpt>
      <trkpt lat="48.17552" lon="7.09047">
        <ele>963.8</ele>
        <time>2025-08-06T11:23:57Z</time>
      </trkpt>
      <trkpt lat="48.17539" lon="7.09017">
        <ele>962.4</ele>
        <time>2025-08-06T11:23:59Z</time>
      </trkpt>
      <trkpt lat="48.17534" lon="7.09002">
        <ele>961.2</ele>
        <time>2025-08-06T11:24:00Z</time>
      </trkpt>
      <trkpt lat="48.17529" lon="7.08987">
        <ele>961</ele>
        <time>2025-08-06T11:24:01Z</time>
      </trkpt>
      <trkpt lat="48.17523" lon="7.08955">
        <ele>960.2</ele>
        <time>2025-08-06T11:24:03Z</time>
      </trkpt>
      <trkpt lat="48.17512" lon="7.08913">
        <ele>958.6</ele>
        <time>2025-08-06T11:24:06Z</time>
      </trkpt>
      <trkpt lat="48.17507" lon="7.08899">
        <ele>958</ele>
        <time>2025-08-06T11:24:07Z</time>
      </trkpt>
      <trkpt lat="48.175" lon="7.08884">
        <ele>957.6</ele>
        <time>2025-08-06T11:24:08Z</time>
      </trkpt>
      <trkpt lat="48.17474" lon="7.08835">
        <ele>956.4</ele>
        <time>2025-08-06T11:24:12Z</time>
      </trkpt>
      <trkpt lat="48.17457" lon="7.08819">
        <ele>955.6</ele>
        <time>2025-08-06T11:24:14Z</time>
      </trkpt>
      <trkpt lat="48.17448" lon="7.08814">
        <ele>955.2</ele>
        <time>2025-08-06T11:24:15Z</time>
      </trkpt>
      <trkpt lat="48.17438" lon="7.08813">
        <ele>954.2</ele>
        <time>2025-08-06T11:24:16Z</time>
      </trkpt>
      <trkpt lat="48.1743" lon="7.08815">
        <ele>953.6</ele>
        <time>2025-08-06T11:24:17Z</time>
      </trkpt>
      <trkpt lat="48.17417" lon="7.08821">
        <ele>952.8</ele>
        <time>2025-08-06T11:24:18Z</time>
      </trkpt>
      <trkpt lat="48.17386" lon="7.0884">
        <ele>951.2</ele>
        <time>2025-08-06T11:24:21Z</time>
      </trkpt>
      <trkpt lat="48.17355" lon="7.0886">
        <ele>949.8</ele>
        <time>2025-08-06T11:24:24Z</time>
      </trkpt>
      <trkpt lat="48.17345" lon="7.0887">
        <ele>949</ele>
        <time>2025-08-06T11:24:25Z</time>
      </trkpt>
      <trkpt lat="48.17339" lon="7.08879">
        <ele>947.6</ele>
        <time>2025-08-06T11:24:26Z</time>
      </trkpt>
      <trkpt lat="48.17328" lon="7.08909">
        <ele>945.4</ele>
        <time>2025-08-06T11:24:28Z</time>
      </trkpt>
      <trkpt lat="48.17323" lon="7.0894">
        <ele>943.4</ele>
        <time>2025-08-06T11:24:30Z</time>
      </trkpt>
      <trkpt lat="48.17322" lon="7.08956">
        <ele>942.4</ele>
        <time>2025-08-06T11:24:31Z</time>
      </trkpt>
      <trkpt lat="48.17317" lon="7.08992">
        <ele>941.2</ele>
        <time>2025-08-06T11:24:33Z</time>
      </trkpt>
      <trkpt lat="48.17307" lon="7.09019">
        <ele>939.8</ele>
        <time>2025-08-06T11:24:35Z</time>
      </trkpt>
      <trkpt lat="48.17292" lon="7.09042">
        <ele>938.2</ele>
        <time>2025-08-06T11:24:37Z</time>
      </trkpt>
      <trkpt lat="48.17283" lon="7.09048">
        <ele>937.2</ele>
        <time>2025-08-06T11:24:38Z</time>
      </trkpt>
      <trkpt lat="48.17274" lon="7.0905">
        <ele>936.8</ele>
        <time>2025-08-06T11:24:39Z</time>
      </trkpt>
      <trkpt lat="48.17265" lon="7.09048">
        <ele>936</ele>
        <time>2025-08-06T11:24:40Z</time>
      </trkpt>
      <trkpt lat="48.17256" lon="7.09045">
        <ele>935.6</ele>
        <time>2025-08-06T11:24:41Z</time>
      </trkpt>
      <trkpt lat="48.17249" lon="7.09039">
        <ele>935</ele>
        <time>2025-08-06T11:24:42Z</time>
      </trkpt>
      <trkpt lat="48.1724" lon="7.0903">
        <ele>934.6</ele>
        <time>2025-08-06T11:24:43Z</time>
      </trkpt>
      <trkpt lat="48.17227" lon="7.09013">
        <ele>934.2</ele>
        <time>2025-08-06T11:24:45Z</time>
      </trkpt>
      <trkpt lat="48.17221" lon="7.09004">
        <ele>934</ele>
        <time>2025-08-06T11:24:46Z</time>
      </trkpt>
      <trkpt lat="48.17211" lon="7.08986">
        <ele>933.8</ele>
        <time>2025-08-06T11:24:48Z</time>
      </trkpt>
      <trkpt lat="48.17194" lon="7.08965">
        <ele>933.8</ele>
        <time>2025-08-06T11:24:51Z</time>
      </trkpt>
      <trkpt lat="48.17189" lon="7.08961">
        <ele>933.6</ele>
        <time>2025-08-06T11:24:52Z</time>
      </trkpt>
      <trkpt lat="48.17177" lon="7.08954">
        <ele>933.8</ele>
        <time>2025-08-06T11:24:54Z</time>
      </trkpt>
      <trkpt lat="48.17172" lon="7.0895">
        <ele>934</ele>
        <time>2025-08-06T11:24:55Z</time>
      </trkpt>
      <trkpt lat="48.17157" lon="7.08943">
        <ele>935</ele>
        <time>2025-08-06T11:24:58Z</time>
      </trkpt>
      <trkpt lat="48.17148" lon="7.0894">
        <ele>935.6</ele>
        <time>2025-08-06T11:25:00Z</time>
      </trkpt>
      <trkpt lat="48.17139" lon="7.08938">
        <ele>936.2</ele>
        <time>2025-08-06T11:25:02Z</time>
      </trkpt>
      <trkpt lat="48.17119" lon="7.08933">
        <ele>937.4</ele>
        <time>2025-08-06T11:25:07Z</time>
      </trkpt>
      <trkpt lat="48.17115" lon="7.08931">
        <ele>937.6</ele>
        <time>2025-08-06T11:25:08Z</time>
      </trkpt>
      <trkpt lat="48.17103" lon="7.08922">
        <ele>938.6</ele>
        <time>2025-08-06T11:25:11Z</time>
      </trkpt>
      <trkpt lat="48.17098" lon="7.08921">
        <ele>938.6</ele>
        <time>2025-08-06T11:25:12Z</time>
      </trkpt>
      <trkpt lat="48.17094" lon="7.08921">
        <ele>939</ele>
        <time>2025-08-06T11:25:13Z</time>
      </trkpt>
      <trkpt lat="48.17084" lon="7.08913">
        <ele>939.2</ele>
        <time>2025-08-06T11:25:16Z</time>
      </trkpt>
      <trkpt lat="48.17076" lon="7.08905">
        <ele>939.6</ele>
        <time>2025-08-06T11:25:18Z</time>
      </trkpt>
      <trkpt lat="48.17072" lon="7.08902">
        <ele>939.8</ele>
        <time>2025-08-06T11:25:19Z</time>
      </trkpt>
      <trkpt lat="48.17057" lon="7.08892">
        <ele>940.4</ele>
        <time>2025-08-06T11:25:23Z</time>
      </trkpt>
      <trkpt lat="48.17053" lon="7.08889">
        <ele>940.6</ele>
        <time>2025-08-06T11:25:24Z</time>
      </trkpt>
      <trkpt lat="48.17046" lon="7.08884">
        <ele>941</ele>
        <time>2025-08-06T11:25:26Z</time>
      </trkpt>
      <trkpt lat="48.17029" lon="7.08867">
        <ele>941.8</ele>
        <time>2025-08-06T11:25:31Z</time>
      </trkpt>
      <trkpt lat="48.17012" lon="7.08852">
        <ele>942.2</ele>
        <time>2025-08-06T11:25:36Z</time>
      </trkpt>
      <trkpt lat="48.16996" lon="7.08836">
        <ele>942.8</ele>
        <time>2025-08-06T11:25:41Z</time>
      </trkpt>
      <trkpt lat="48.16982" lon="7.08821">
        <ele>943</ele>
        <time>2025-08-06T11:25:45Z</time>
      </trkpt>
      <trkpt lat="48.16967" lon="7.08798">
        <ele>943.8</ele>
        <time>2025-08-06T11:25:50Z</time>
      </trkpt>
      <trkpt lat="48.16961" lon="7.08789">
        <ele>944</ele>
        <time>2025-08-06T11:25:52Z</time>
      </trkpt>
      <trkpt lat="48.16936" lon="7.08745">
        <ele>944.6</ele>
        <time>2025-08-06T11:26:01Z</time>
      </trkpt>
      <trkpt lat="48.16928" lon="7.0873">
        <ele>944.8</ele>
        <time>2025-08-06T11:26:04Z</time>
      </trkpt>
      <trkpt lat="48.16915" lon="7.08703">
        <ele>945.2</ele>
        <time>2025-08-06T11:26:09Z</time>
      </trkpt>
      <trkpt lat="48.16913" lon="7.08697">
        <ele>945.2</ele>
        <time>2025-08-06T11:26:10Z</time>
      </trkpt>
      <trkpt lat="48.16907" lon="7.08675">
        <ele>945.6</ele>
        <time>2025-08-06T11:26:14Z</time>
      </trkpt>
      <trkpt lat="48.16905" lon="7.08664">
        <ele>945.8</ele>
        <time>2025-08-06T11:26:16Z</time>
      </trkpt>
      <trkpt lat="48.16904" lon="7.08659">
        <ele>946</ele>
        <time>2025-08-06T11:26:17Z</time>
      </trkpt>
      <trkpt lat="48.16904" lon="7.08638">
        <ele>946.6</ele>
        <time>2025-08-06T11:26:21Z</time>
      </trkpt>
      <trkpt lat="48.16905" lon="7.08624">
        <ele>947.2</ele>
        <time>2025-08-06T11:26:24Z</time>
      </trkpt>
      <trkpt lat="48.16907" lon="7.08615">
        <ele>947.4</ele>
        <time>2025-08-06T11:26:26Z</time>
      </trkpt>
      <trkpt lat="48.16909" lon="7.08602">
        <ele>948.2</ele>
        <time>2025-08-06T11:26:29Z</time>
      </trkpt>
      <trkpt lat="48.16909" lon="7.08598">
        <ele>948.4</ele>
        <time>2025-08-06T11:26:30Z</time>
      </trkpt>
      <trkpt lat="48.16912" lon="7.08577">
        <ele>949.6</ele>
        <time>2025-08-06T11:26:35Z</time>
      </trkpt>
      <trkpt lat="48.16914" lon="7.08556">
        <ele>950.6</ele>
        <time>2025-08-06T11:26:40Z</time>
      </trkpt>
      <trkpt lat="48.16913" lon="7.08551">
        <ele>950.8</ele>
        <time>2025-08-06T11:26:41Z</time>
      </trkpt>
      <trkpt lat="48.16914" lon="7.08532">
        <ele>951.8</ele>
        <time>2025-08-06T11:26:45Z</time>
      </trkpt>
      <trkpt lat="48.16916" lon="7.08526">
        <ele>951.8</ele>
        <time>2025-08-06T11:26:46Z</time>
      </trkpt>
      <trkpt lat="48.16917" lon="7.08521">
        <ele>952.2</ele>
        <time>2025-08-06T11:26:47Z</time>
      </trkpt>
      <trkpt lat="48.16917" lon="7.08506">
        <ele>952.8</ele>
        <time>2025-08-06T11:26:50Z</time>
      </trkpt>
      <trkpt lat="48.16917" lon="7.08476">
        <ele>953.8</ele>
        <time>2025-08-06T11:26:56Z</time>
      </trkpt>
      <trkpt lat="48.16914" lon="7.08471">
        <ele>954</ele>
        <time>2025-08-06T11:26:57Z</time>
      </trkpt>
      <trkpt lat="48.16907" lon="7.08447">
        <ele>955</ele>
        <time>2025-08-06T11:27:01Z</time>
      </trkpt>
      <trkpt lat="48.16907" lon="7.08442">
        <ele>955.4</ele>
        <time>2025-08-06T11:27:02Z</time>
      </trkpt>
      <trkpt lat="48.16905" lon="7.0843">
        <ele>956</ele>
        <time>2025-08-06T11:27:05Z</time>
      </trkpt>
      <trkpt lat="48.16906" lon="7.0842">
        <ele>956.6</ele>
        <time>2025-08-06T11:27:07Z</time>
      </trkpt>
      <trkpt lat="48.16908" lon="7.08412">
        <ele>957.2</ele>
        <time>2025-08-06T11:27:09Z</time>
      </trkpt>
      <trkpt lat="48.16911" lon="7.0839">
        <ele>958.2</ele>
        <time>2025-08-06T11:27:14Z</time>
      </trkpt>
      <trkpt lat="48.16912" lon="7.08384">
        <ele>958.2</ele>
        <time>2025-08-06T11:27:15Z</time>
      </trkpt>
      <trkpt lat="48.16911" lon="7.08362">
        <ele>959.4</ele>
        <time>2025-08-06T11:27:20Z</time>
      </trkpt>
      <trkpt lat="48.1691" lon="7.08353">
        <ele>959.6</ele>
        <time>2025-08-06T11:27:22Z</time>
      </trkpt>
      <trkpt lat="48.16907" lon="7.08338">
        <ele>960.4</ele>
        <time>2025-08-06T11:27:26Z</time>
      </trkpt>
      <trkpt lat="48.16905" lon="7.0833">
        <ele>960.8</ele>
        <time>2025-08-06T11:27:28Z</time>
      </trkpt>
      <trkpt lat="48.16904" lon="7.08316">
        <ele>961.6</ele>
        <time>2025-08-06T11:27:31Z</time>
      </trkpt>
      <trkpt lat="48.16903" lon="7.08299">
        <ele>962.4</ele>
        <time>2025-08-06T11:27:35Z</time>
      </trkpt>
      <trkpt lat="48.16903" lon="7.08294">
        <ele>962.6</ele>
        <time>2025-08-06T11:27:36Z</time>
      </trkpt>
      <trkpt lat="48.169" lon="7.08269">
        <ele>963.6</ele>
        <time>2025-08-06T11:27:41Z</time>
      </trkpt>
      <trkpt lat="48.169" lon="7.08265">
        <ele>963.8</ele>
        <time>2025-08-06T11:27:42Z</time>
      </trkpt>
      <trkpt lat="48.16899" lon="7.08242">
        <ele>964.8</ele>
        <time>2025-08-06T11:27:47Z</time>
      </trkpt>
      <trkpt lat="48.16898" lon="7.08233">
        <ele>965</ele>
        <time>2025-08-06T11:27:49Z</time>
      </trkpt>
      <trkpt lat="48.16895" lon="7.08208">
        <ele>965.8</ele>
        <time>2025-08-06T11:27:54Z</time>
      </trkpt>
      <trkpt lat="48.16894" lon="7.08203">
        <ele>966</ele>
        <time>2025-08-06T11:27:55Z</time>
      </trkpt>
      <trkpt lat="48.16882" lon="7.08173">
        <ele>966.4</ele>
        <time>2025-08-06T11:28:01Z</time>
      </trkpt>
      <trkpt lat="48.16863" lon="7.08159">
        <ele>966.4</ele>
        <time>2025-08-06T11:28:06Z</time>
      </trkpt>
      <trkpt lat="48.16858" lon="7.08158">
        <ele>966.4</ele>
        <time>2025-08-06T11:28:07Z</time>
      </trkpt>
      <trkpt lat="48.1685" lon="7.08158">
        <ele>966.4</ele>
        <time>2025-08-06T11:28:09Z</time>
      </trkpt>
      <trkpt lat="48.16841" lon="7.08161">
        <ele>966.6</ele>
        <time>2025-08-06T11:28:11Z</time>
      </trkpt>
      <trkpt lat="48.16827" lon="7.08164">
        <ele>966.6</ele>
        <time>2025-08-06T11:28:14Z</time>
      </trkpt>
      <trkpt lat="48.16818" lon="7.08165">
        <ele>966.6</ele>
        <time>2025-08-06T11:28:16Z</time>
      </trkpt>
      <trkpt lat="48.16781" lon="7.08167">
        <ele>966</ele>
        <time>2025-08-06T11:28:23Z</time>
      </trkpt>
      <trkpt lat="48.16734" lon="7.08152">
        <ele>965.8</ele>
        <time>2025-08-06T11:28:32Z</time>
      </trkpt>
      <trkpt lat="48.16687" lon="7.08133">
        <ele>965</ele>
        <time>2025-08-06T11:28:40Z</time>
      </trkpt>
      <trkpt lat="48.1664" lon="7.08101">
        <ele>964.8</ele>
        <time>2025-08-06T11:28:48Z</time>
      </trkpt>
      <trkpt lat="48.16591" lon="7.08056">
        <ele>964.4</ele>
        <time>2025-08-06T11:28:57Z</time>
      </trkpt>
      <trkpt lat="48.16575" lon="7.0804">
        <ele>964.4</ele>
        <time>2025-08-06T11:29:00Z</time>
      </trkpt>
      <trkpt lat="48.1655" lon="7.08011">
        <ele>964.4</ele>
        <time>2025-08-06T11:29:05Z</time>
      </trkpt>
      <trkpt lat="48.16537" lon="7.07996">
        <ele>964.4</ele>
        <time>2025-08-06T11:29:08Z</time>
      </trkpt>
      <trkpt lat="48.16529" lon="7.07986">
        <ele>964.2</ele>
        <time>2025-08-06T11:29:10Z</time>
      </trkpt>
      <trkpt lat="48.16512" lon="7.07967">
        <ele>963.8</ele>
        <time>2025-08-06T11:29:16Z</time>
      </trkpt>
      <trkpt lat="48.16506" lon="7.07957">
        <ele>963.6</ele>
        <time>2025-08-06T11:29:20Z</time>
      </trkpt>
      <trkpt lat="48.16505" lon="7.07955">
        <ele>963.4</ele>
        <time>2025-08-06T11:29:21Z</time>
      </trkpt>
      <trkpt lat="48.16502" lon="7.07952">
        <ele>962.8</ele>
        <time>2025-08-06T11:29:27Z</time>
      </trkpt>
      <trkpt lat="48.16502" lon="7.07952">
        <ele>962.6</ele>
        <time>2025-08-06T11:29:28Z</time>
      </trkpt>
      <trkpt lat="48.16497" lon="7.07945">
        <ele>962.4</ele>
        <time>2025-08-06T11:29:39Z</time>
      </trkpt>
      <trkpt lat="48.16493" lon="7.07944">
        <ele>962.4</ele>
        <time>2025-08-06T11:29:41Z</time>
      </trkpt>
      <trkpt lat="48.16482" lon="7.07936">
        <ele>962.2</ele>
        <time>2025-08-06T11:29:45Z</time>
      </trkpt>
      <trkpt lat="48.16465" lon="7.07914">
        <ele>962</ele>
        <time>2025-08-06T11:29:51Z</time>
      </trkpt>
      <trkpt lat="48.16458" lon="7.0791">
        <ele>962</ele>
        <time>2025-08-06T11:29:53Z</time>
      </trkpt>
      <trkpt lat="48.16444" lon="7.07905">
        <ele>962</ele>
        <time>2025-08-06T11:29:56Z</time>
      </trkpt>
      <trkpt lat="48.1644" lon="7.07903">
        <ele>962.2</ele>
        <time>2025-08-06T11:29:57Z</time>
      </trkpt>
      <trkpt lat="48.16423" lon="7.07898">
        <ele>963.4</ele>
        <time>2025-08-06T11:30:02Z</time>
      </trkpt>
      <trkpt lat="48.16417" lon="7.07897">
        <ele>963.6</ele>
        <time>2025-08-06T11:30:04Z</time>
      </trkpt>
      <trkpt lat="48.16399" lon="7.07885">
        <ele>964.4</ele>
        <time>2025-08-06T11:30:09Z</time>
      </trkpt>
      <trkpt lat="48.16396" lon="7.07883">
        <ele>964.8</ele>
        <time>2025-08-06T11:30:10Z</time>
      </trkpt>
      <trkpt lat="48.16379" lon="7.0787">
        <ele>965.4</ele>
        <time>2025-08-06T11:30:15Z</time>
      </trkpt>
      <trkpt lat="48.16373" lon="7.07863">
        <ele>966</ele>
        <time>2025-08-06T11:30:17Z</time>
      </trkpt>
      <trkpt lat="48.16363" lon="7.07855">
        <ele>966.4</ele>
        <time>2025-08-06T11:30:20Z</time>
      </trkpt>
      <trkpt lat="48.1635" lon="7.07843">
        <ele>967</ele>
        <time>2025-08-06T11:30:24Z</time>
      </trkpt>
      <trkpt lat="48.16339" lon="7.07832">
        <ele>967.6</ele>
        <time>2025-08-06T11:30:28Z</time>
      </trkpt>
      <trkpt lat="48.16329" lon="7.07819">
        <ele>968.2</ele>
        <time>2025-08-06T11:30:32Z</time>
      </trkpt>
      <trkpt lat="48.16326" lon="7.07816">
        <ele>968.4</ele>
        <time>2025-08-06T11:30:33Z</time>
      </trkpt>
      <trkpt lat="48.16307" lon="7.07797">
        <ele>969.2</ele>
        <time>2025-08-06T11:30:39Z</time>
      </trkpt>
      <trkpt lat="48.16304" lon="7.07794">
        <ele>969.4</ele>
        <time>2025-08-06T11:30:40Z</time>
      </trkpt>
      <trkpt lat="48.16281" lon="7.07773">
        <ele>970.2</ele>
        <time>2025-08-06T11:30:47Z</time>
      </trkpt>
      <trkpt lat="48.16278" lon="7.0777">
        <ele>970.2</ele>
        <time>2025-08-06T11:30:48Z</time>
      </trkpt>
      <trkpt lat="48.1626" lon="7.07759">
        <ele>970.8</ele>
        <time>2025-08-06T11:30:53Z</time>
      </trkpt>
      <trkpt lat="48.16238" lon="7.07749">
        <ele>971</ele>
        <time>2025-08-06T11:30:58Z</time>
      </trkpt>
      <trkpt lat="48.16209" lon="7.07745">
        <ele>971.2</ele>
        <time>2025-08-06T11:31:04Z</time>
      </trkpt>
      <trkpt lat="48.16179" lon="7.07744">
        <ele>971.2</ele>
        <time>2025-08-06T11:31:10Z</time>
      </trkpt>
      <trkpt lat="48.16166" lon="7.07743">
        <ele>971.4</ele>
        <time>2025-08-06T11:31:13Z</time>
      </trkpt>
      <trkpt lat="48.16121" lon="7.07724">
        <ele>971.8</ele>
        <time>2025-08-06T11:31:22Z</time>
      </trkpt>
      <trkpt lat="48.16078" lon="7.07698">
        <ele>971.8</ele>
        <time>2025-08-06T11:31:30Z</time>
      </trkpt>
      <trkpt lat="48.16072" lon="7.07692">
        <ele>971.8</ele>
        <time>2025-08-06T11:31:31Z</time>
      </trkpt>
      <trkpt lat="48.16043" lon="7.07668">
        <ele>971.8</ele>
        <time>2025-08-06T11:31:37Z</time>
      </trkpt>
      <trkpt lat="48.16017" lon="7.07644">
        <ele>972.2</ele>
        <time>2025-08-06T11:31:43Z</time>
      </trkpt>
      <trkpt lat="48.16013" lon="7.0764">
        <ele>972.2</ele>
        <time>2025-08-06T11:31:44Z</time>
      </trkpt>
      <trkpt lat="48.15987" lon="7.07613">
        <ele>972.8</ele>
        <time>2025-08-06T11:31:51Z</time>
      </trkpt>
      <trkpt lat="48.15983" lon="7.0761">
        <ele>973</ele>
        <time>2025-08-06T11:31:52Z</time>
      </trkpt>
      <trkpt lat="48.15978" lon="7.07606">
        <ele>973.2</ele>
        <time>2025-08-06T11:31:53Z</time>
      </trkpt>
      <trkpt lat="48.15962" lon="7.07586">
        <ele>974</ele>
        <time>2025-08-06T11:31:58Z</time>
      </trkpt>
      <trkpt lat="48.15951" lon="7.07569">
        <ele>974.6</ele>
        <time>2025-08-06T11:32:02Z</time>
      </trkpt>
      <trkpt lat="48.15941" lon="7.07556">
        <ele>975</ele>
        <time>2025-08-06T11:32:05Z</time>
      </trkpt>
      <trkpt lat="48.15934" lon="7.07545">
        <ele>975.6</ele>
        <time>2025-08-06T11:32:08Z</time>
      </trkpt>
      <trkpt lat="48.15921" lon="7.07523">
        <ele>976.4</ele>
        <time>2025-08-06T11:32:13Z</time>
      </trkpt>
      <trkpt lat="48.15917" lon="7.07513">
        <ele>976.8</ele>
        <time>2025-08-06T11:32:15Z</time>
      </trkpt>
      <trkpt lat="48.15909" lon="7.07497">
        <ele>977.2</ele>
        <time>2025-08-06T11:32:19Z</time>
      </trkpt>
      <trkpt lat="48.15897" lon="7.07479">
        <ele>978</ele>
        <time>2025-08-06T11:32:24Z</time>
      </trkpt>
      <trkpt lat="48.15895" lon="7.07476">
        <ele>978.2</ele>
        <time>2025-08-06T11:32:25Z</time>
      </trkpt>
      <trkpt lat="48.15884" lon="7.07463">
        <ele>979.2</ele>
        <time>2025-08-06T11:32:29Z</time>
      </trkpt>
      <trkpt lat="48.15881" lon="7.0746">
        <ele>979.4</ele>
        <time>2025-08-06T11:32:30Z</time>
      </trkpt>
      <trkpt lat="48.1586" lon="7.0744">
        <ele>980.2</ele>
        <time>2025-08-06T11:32:36Z</time>
      </trkpt>
      <trkpt lat="48.15854" lon="7.07435">
        <ele>980.6</ele>
        <time>2025-08-06T11:32:38Z</time>
      </trkpt>
      <trkpt lat="48.15839" lon="7.0742">
        <ele>981.4</ele>
        <time>2025-08-06T11:32:43Z</time>
      </trkpt>
      <trkpt lat="48.15828" lon="7.07407">
        <ele>981.6</ele>
        <time>2025-08-06T11:32:47Z</time>
      </trkpt>
      <trkpt lat="48.15804" lon="7.07384">
        <ele>982.4</ele>
        <time>2025-08-06T11:32:55Z</time>
      </trkpt>
      <trkpt lat="48.15801" lon="7.07382">
        <ele>982.6</ele>
        <time>2025-08-06T11:32:56Z</time>
      </trkpt>
      <trkpt lat="48.15782" lon="7.07361">
        <ele>983.6</ele>
        <time>2025-08-06T11:33:03Z</time>
      </trkpt>
      <trkpt lat="48.1578" lon="7.07358">
        <ele>983.6</ele>
        <time>2025-08-06T11:33:04Z</time>
      </trkpt>
      <trkpt lat="48.15759" lon="7.07342">
        <ele>984.4</ele>
        <time>2025-08-06T11:33:12Z</time>
      </trkpt>
      <trkpt lat="48.15756" lon="7.0734">
        <ele>984.6</ele>
        <time>2025-08-06T11:33:13Z</time>
      </trkpt>
      <trkpt lat="48.15741" lon="7.07336">
        <ele>985.8</ele>
        <time>2025-08-06T11:33:18Z</time>
      </trkpt>
      <trkpt lat="48.15734" lon="7.07335">
        <ele>985.8</ele>
        <time>2025-08-06T11:33:20Z</time>
      </trkpt>
      <trkpt lat="48.15712" lon="7.07337">
        <ele>986</ele>
        <time>2025-08-06T11:33:26Z</time>
      </trkpt>
      <trkpt lat="48.15692" lon="7.07335">
        <ele>986.8</ele>
        <time>2025-08-06T11:33:32Z</time>
      </trkpt>
      <trkpt lat="48.15686" lon="7.07335">
        <ele>987</ele>
        <time>2025-08-06T11:33:34Z</time>
      </trkpt>
      <trkpt lat="48.15676" lon="7.07333">
        <ele>988</ele>
        <time>2025-08-06T11:33:37Z</time>
      </trkpt>
      <trkpt lat="48.15668" lon="7.07331">
        <ele>988.2</ele>
        <time>2025-08-06T11:33:40Z</time>
      </trkpt>
      <trkpt lat="48.15657" lon="7.07327">
        <ele>989</ele>
        <time>2025-08-06T11:33:44Z</time>
      </trkpt>
      <trkpt lat="48.1565" lon="7.07328">
        <ele>989.4</ele>
        <time>2025-08-06T11:33:46Z</time>
      </trkpt>
      <trkpt lat="48.15635" lon="7.07328">
        <ele>990.2</ele>
        <time>2025-08-06T11:33:51Z</time>
      </trkpt>
      <trkpt lat="48.15629" lon="7.07326">
        <ele>990.6</ele>
        <time>2025-08-06T11:33:53Z</time>
      </trkpt>
      <trkpt lat="48.15612" lon="7.07322">
        <ele>991.4</ele>
        <time>2025-08-06T11:33:58Z</time>
      </trkpt>
      <trkpt lat="48.15602" lon="7.07319">
        <ele>991.8</ele>
        <time>2025-08-06T11:34:01Z</time>
      </trkpt>
      <trkpt lat="48.15586" lon="7.07314">
        <ele>992.6</ele>
        <time>2025-08-06T11:34:05Z</time>
      </trkpt>
      <trkpt lat="48.15581" lon="7.07312">
        <ele>992.8</ele>
        <time>2025-08-06T11:34:06Z</time>
      </trkpt>
      <trkpt lat="48.15573" lon="7.07306">
        <ele>993.6</ele>
        <time>2025-08-06T11:34:09Z</time>
      </trkpt>
      <trkpt lat="48.15561" lon="7.073">
        <ele>994.2</ele>
        <time>2025-08-06T11:34:12Z</time>
      </trkpt>
      <trkpt lat="48.15552" lon="7.07293">
        <ele>994.6</ele>
        <time>2025-08-06T11:34:15Z</time>
      </trkpt>
      <trkpt lat="48.15529" lon="7.07272">
        <ele>995</ele>
        <time>2025-08-06T11:34:22Z</time>
      </trkpt>
      <trkpt lat="48.15513" lon="7.07254">
        <ele>995.6</ele>
        <time>2025-08-06T11:34:28Z</time>
      </trkpt>
      <trkpt lat="48.1551" lon="7.07251">
        <ele>995.8</ele>
        <time>2025-08-06T11:34:29Z</time>
      </trkpt>
      <trkpt lat="48.15488" lon="7.0723">
        <ele>996.4</ele>
        <time>2025-08-06T11:34:35Z</time>
      </trkpt>
      <trkpt lat="48.15458" lon="7.07195">
        <ele>996.4</ele>
        <time>2025-08-06T11:34:42Z</time>
      </trkpt>
      <trkpt lat="48.15427" lon="7.07161">
        <ele>996</ele>
        <time>2025-08-06T11:34:48Z</time>
      </trkpt>
      <trkpt lat="48.15417" lon="7.0715">
        <ele>995.6</ele>
        <time>2025-08-06T11:34:50Z</time>
      </trkpt>
      <trkpt lat="48.15396" lon="7.07133">
        <ele>995.2</ele>
        <time>2025-08-06T11:34:53Z</time>
      </trkpt>
      <trkpt lat="48.15373" lon="7.07122">
        <ele>994.6</ele>
        <time>2025-08-06T11:34:56Z</time>
      </trkpt>
      <trkpt lat="48.15358" lon="7.07113">
        <ele>994.4</ele>
        <time>2025-08-06T11:34:58Z</time>
      </trkpt>
      <trkpt lat="48.15338" lon="7.07104">
        <ele>993.4</ele>
        <time>2025-08-06T11:35:01Z</time>
      </trkpt>
      <trkpt lat="48.15296" lon="7.07084">
        <ele>992.4</ele>
        <time>2025-08-06T11:35:07Z</time>
      </trkpt>
      <trkpt lat="48.15288" lon="7.0708">
        <ele>992.2</ele>
        <time>2025-08-06T11:35:08Z</time>
      </trkpt>
      <trkpt lat="48.15255" lon="7.07059">
        <ele>991.6</ele>
        <time>2025-08-06T11:35:13Z</time>
      </trkpt>
      <trkpt lat="48.1525" lon="7.07054">
        <ele>991.6</ele>
        <time>2025-08-06T11:35:14Z</time>
      </trkpt>
      <trkpt lat="48.15245" lon="7.0705">
        <ele>991.4</ele>
        <time>2025-08-06T11:35:15Z</time>
      </trkpt>
      <trkpt lat="48.15219" lon="7.07025">
        <ele>991.2</ele>
        <time>2025-08-06T11:35:20Z</time>
      </trkpt>
      <trkpt lat="48.15192" lon="7.07007">
        <ele>991.6</ele>
        <time>2025-08-06T11:35:26Z</time>
      </trkpt>
      <trkpt lat="48.15169" lon="7.07">
        <ele>992.4</ele>
        <time>2025-08-06T11:35:32Z</time>
      </trkpt>
      <trkpt lat="48.1516" lon="7.06998">
        <ele>992.8</ele>
        <time>2025-08-06T11:35:34Z</time>
      </trkpt>
      <trkpt lat="48.15146" lon="7.06995">
        <ele>993.4</ele>
        <time>2025-08-06T11:35:38Z</time>
      </trkpt>
      <trkpt lat="48.15138" lon="7.06993">
        <ele>994</ele>
        <time>2025-08-06T11:35:40Z</time>
      </trkpt>
      <trkpt lat="48.15131" lon="7.0699">
        <ele>994.4</ele>
        <time>2025-08-06T11:35:42Z</time>
      </trkpt>
      <trkpt lat="48.15111" lon="7.06981">
        <ele>995.4</ele>
        <time>2025-08-06T11:35:47Z</time>
      </trkpt>
      <trkpt lat="48.15104" lon="7.06975">
        <ele>995.6</ele>
        <time>2025-08-06T11:35:49Z</time>
      </trkpt>
      <trkpt lat="48.15083" lon="7.06958">
        <ele>996.4</ele>
        <time>2025-08-06T11:35:56Z</time>
      </trkpt>
      <trkpt lat="48.15057" lon="7.06936">
        <ele>997.4</ele>
        <time>2025-08-06T11:36:04Z</time>
      </trkpt>
      <trkpt lat="48.15046" lon="7.06928">
        <ele>997.8</ele>
        <time>2025-08-06T11:36:07Z</time>
      </trkpt>
      <trkpt lat="48.15025" lon="7.06912">
        <ele>998.6</ele>
        <time>2025-08-06T11:36:13Z</time>
      </trkpt>
      <trkpt lat="48.15013" lon="7.06902">
        <ele>998.8</ele>
        <time>2025-08-06T11:36:16Z</time>
      </trkpt>
      <trkpt lat="48.14983" lon="7.06879">
        <ele>998.8</ele>
        <time>2025-08-06T11:36:23Z</time>
      </trkpt>
      <trkpt lat="48.14966" lon="7.06861">
        <ele>999.2</ele>
        <time>2025-08-06T11:36:27Z</time>
      </trkpt>
      <trkpt lat="48.14956" lon="7.06846">
        <ele>999.2</ele>
        <time>2025-08-06T11:36:30Z</time>
      </trkpt>
      <trkpt lat="48.14939" lon="7.06824">
        <ele>999.8</ele>
        <time>2025-08-06T11:36:34Z</time>
      </trkpt>
      <trkpt lat="48.14921" lon="7.068">
        <ele>1000.2</ele>
        <time>2025-08-06T11:36:38Z</time>
      </trkpt>
      <trkpt lat="48.14886" lon="7.06761">
        <ele>1000.8</ele>
        <time>2025-08-06T11:36:46Z</time>
      </trkpt>
      <trkpt lat="48.14867" lon="7.06749">
        <ele>1001.2</ele>
        <time>2025-08-06T11:36:50Z</time>
      </trkpt>
      <trkpt lat="48.14859" lon="7.06744">
        <ele>1001.4</ele>
        <time>2025-08-06T11:36:52Z</time>
      </trkpt>
      <trkpt lat="48.14841" lon="7.06732">
        <ele>1002</ele>
        <time>2025-08-06T11:36:56Z</time>
      </trkpt>
      <trkpt lat="48.14821" lon="7.06723">
        <ele>1002.8</ele>
        <time>2025-08-06T11:37:00Z</time>
      </trkpt>
      <trkpt lat="48.14813" lon="7.06721">
        <ele>1003.2</ele>
        <time>2025-08-06T11:37:02Z</time>
      </trkpt>
      <trkpt lat="48.14794" lon="7.06718">
        <ele>1004</ele>
        <time>2025-08-06T11:37:06Z</time>
      </trkpt>
      <trkpt lat="48.14785" lon="7.06718">
        <ele>1004.2</ele>
        <time>2025-08-06T11:37:08Z</time>
      </trkpt>
      <trkpt lat="48.14763" lon="7.06719">
        <ele>1005.2</ele>
        <time>2025-08-06T11:37:14Z</time>
      </trkpt>
      <trkpt lat="48.14759" lon="7.0672">
        <ele>1005.4</ele>
        <time>2025-08-06T11:37:15Z</time>
      </trkpt>
      <trkpt lat="48.14746" lon="7.06722">
        <ele>1006.4</ele>
        <time>2025-08-06T11:37:20Z</time>
      </trkpt>
      <trkpt lat="48.14743" lon="7.06723">
        <ele>1006.8</ele>
        <time>2025-08-06T11:37:21Z</time>
      </trkpt>
      <trkpt lat="48.14729" lon="7.06724">
        <ele>1007.8</ele>
        <time>2025-08-06T11:37:26Z</time>
      </trkpt>
      <trkpt lat="48.14727" lon="7.06726">
        <ele>1008</ele>
        <time>2025-08-06T11:37:27Z</time>
      </trkpt>
      <trkpt lat="48.14714" lon="7.0673">
        <ele>1009</ele>
        <time>2025-08-06T11:37:32Z</time>
      </trkpt>
      <trkpt lat="48.14705" lon="7.06734">
        <ele>1010</ele>
        <time>2025-08-06T11:37:36Z</time>
      </trkpt>
      <trkpt lat="48.147" lon="7.06737">
        <ele>1010.4</ele>
        <time>2025-08-06T11:37:38Z</time>
      </trkpt>
      <trkpt lat="48.14687" lon="7.0674">
        <ele>1011.4</ele>
        <time>2025-08-06T11:37:44Z</time>
      </trkpt>
      <trkpt lat="48.14678" lon="7.06742">
        <ele>1011.8</ele>
        <time>2025-08-06T11:37:47Z</time>
      </trkpt>
      <trkpt lat="48.1467" lon="7.06744">
        <ele>1012.4</ele>
        <time>2025-08-06T11:37:50Z</time>
      </trkpt>
      <trkpt lat="48.14666" lon="7.06745">
        <ele>1012.8</ele>
        <time>2025-08-06T11:37:52Z</time>
      </trkpt>
      <trkpt lat="48.14661" lon="7.06746">
        <ele>1013</ele>
        <time>2025-08-06T11:37:54Z</time>
      </trkpt>
      <trkpt lat="48.14656" lon="7.06747">
        <ele>1013.4</ele>
        <time>2025-08-06T11:37:56Z</time>
      </trkpt>
      <trkpt lat="48.14645" lon="7.06752">
        <ele>1013.8</ele>
        <time>2025-08-06T11:37:59Z</time>
      </trkpt>
      <trkpt lat="48.14634" lon="7.06754">
        <ele>1014.6</ele>
        <time>2025-08-06T11:38:03Z</time>
      </trkpt>
      <trkpt lat="48.1463" lon="7.06755">
        <ele>1015</ele>
        <time>2025-08-06T11:38:05Z</time>
      </trkpt>
      <trkpt lat="48.1462" lon="7.06756">
        <ele>1015.8</ele>
        <time>2025-08-06T11:38:08Z</time>
      </trkpt>
      <trkpt lat="48.14613" lon="7.06755">
        <ele>1016.4</ele>
        <time>2025-08-06T11:38:11Z</time>
      </trkpt>
      <trkpt lat="48.14605" lon="7.06755">
        <ele>1017</ele>
        <time>2025-08-06T11:38:13Z</time>
      </trkpt>
      <trkpt lat="48.14597" lon="7.06757">
        <ele>1017.4</ele>
        <time>2025-08-06T11:38:16Z</time>
      </trkpt>
      <trkpt lat="48.14593" lon="7.06753">
        <ele>1017.8</ele>
        <time>2025-08-06T11:38:18Z</time>
      </trkpt>
      <trkpt lat="48.14589" lon="7.06752">
        <ele>1018</ele>
        <time>2025-08-06T11:38:20Z</time>
      </trkpt>
      <trkpt lat="48.1458" lon="7.06752">
        <ele>1018.8</ele>
        <time>2025-08-06T11:38:23Z</time>
      </trkpt>
      <trkpt lat="48.14573" lon="7.06749">
        <ele>1019</ele>
        <time>2025-08-06T11:38:26Z</time>
      </trkpt>
      <trkpt lat="48.14563" lon="7.06744">
        <ele>1020</ele>
        <time>2025-08-06T11:38:30Z</time>
      </trkpt>
      <trkpt lat="48.14551" lon="7.06738">
        <ele>1021</ele>
        <time>2025-08-06T11:38:35Z</time>
      </trkpt>
      <trkpt lat="48.14539" lon="7.06733">
        <ele>1021.8</ele>
        <time>2025-08-06T11:38:40Z</time>
      </trkpt>
      <trkpt lat="48.14531" lon="7.06731">
        <ele>1022</ele>
        <time>2025-08-06T11:38:42Z</time>
      </trkpt>
      <trkpt lat="48.1452" lon="7.06727">
        <ele>1022.6</ele>
        <time>2025-08-06T11:38:45Z</time>
      </trkpt>
      <trkpt lat="48.14495" lon="7.06719">
        <ele>1023</ele>
        <time>2025-08-06T11:38:51Z</time>
      </trkpt>
      <trkpt lat="48.14491" lon="7.06718">
        <ele>1023.2</ele>
        <time>2025-08-06T11:38:52Z</time>
      </trkpt>
      <trkpt lat="48.14461" lon="7.06708">
        <ele>1023.6</ele>
        <time>2025-08-06T11:38:59Z</time>
      </trkpt>
      <trkpt lat="48.14449" lon="7.06703">
        <ele>1023.8</ele>
        <time>2025-08-06T11:39:02Z</time>
      </trkpt>
      <trkpt lat="48.14433" lon="7.06697">
        <ele>1024.2</ele>
        <time>2025-08-06T11:39:06Z</time>
      </trkpt>
      <trkpt lat="48.14419" lon="7.06688">
        <ele>1024.4</ele>
        <time>2025-08-06T11:39:09Z</time>
      </trkpt>
      <trkpt lat="48.14395" lon="7.06667">
        <ele>1024.8</ele>
        <time>2025-08-06T11:39:15Z</time>
      </trkpt>
      <trkpt lat="48.14382" lon="7.06654">
        <ele>1025.4</ele>
        <time>2025-08-06T11:39:18Z</time>
      </trkpt>
      <trkpt lat="48.14377" lon="7.06649">
        <ele>1025.6</ele>
        <time>2025-08-06T11:39:19Z</time>
      </trkpt>
      <trkpt lat="48.14362" lon="7.06628">
        <ele>1025.8</ele>
        <time>2025-08-06T11:39:23Z</time>
      </trkpt>
      <trkpt lat="48.14359" lon="7.06622">
        <ele>1025.8</ele>
        <time>2025-08-06T11:39:24Z</time>
      </trkpt>
      <trkpt lat="48.14343" lon="7.06594">
        <ele>1026.2</ele>
        <time>2025-08-06T11:39:29Z</time>
      </trkpt>
      <trkpt lat="48.1434" lon="7.06587">
        <ele>1026.4</ele>
        <time>2025-08-06T11:39:30Z</time>
      </trkpt>
      <trkpt lat="48.1432" lon="7.06554">
        <ele>1027</ele>
        <time>2025-08-06T11:39:36Z</time>
      </trkpt>
      <trkpt lat="48.14316" lon="7.06548">
        <ele>1027</ele>
        <time>2025-08-06T11:39:37Z</time>
      </trkpt>
      <trkpt lat="48.14297" lon="7.06519">
        <ele>1027</ele>
        <time>2025-08-06T11:39:42Z</time>
      </trkpt>
      <trkpt lat="48.14264" lon="7.06478">
        <ele>1026.6</ele>
        <time>2025-08-06T11:39:49Z</time>
      </trkpt>
      <trkpt lat="48.14228" lon="7.06446">
        <ele>1026.2</ele>
        <time>2025-08-06T11:39:55Z</time>
      </trkpt>
      <trkpt lat="48.14202" lon="7.06421">
        <ele>1024.8</ele>
        <time>2025-08-06T11:39:59Z</time>
      </trkpt>
      <trkpt lat="48.14176" lon="7.06394">
        <ele>1023.8</ele>
        <time>2025-08-06T11:40:03Z</time>
      </trkpt>
      <trkpt lat="48.14158" lon="7.06375">
        <ele>1022.8</ele>
        <time>2025-08-06T11:40:06Z</time>
      </trkpt>
      <trkpt lat="48.14126" lon="7.06333">
        <ele>1021.8</ele>
        <time>2025-08-06T11:40:12Z</time>
      </trkpt>
      <trkpt lat="48.14121" lon="7.06326">
        <ele>1021.8</ele>
        <time>2025-08-06T11:40:13Z</time>
      </trkpt>
      <trkpt lat="48.14099" lon="7.06291">
        <ele>1021.6</ele>
        <time>2025-08-06T11:40:18Z</time>
      </trkpt>
      <trkpt lat="48.14069" lon="7.06249">
        <ele>1022.4</ele>
        <time>2025-08-06T11:40:25Z</time>
      </trkpt>
      <trkpt lat="48.14061" lon="7.0624">
        <ele>1022.6</ele>
        <time>2025-08-06T11:40:27Z</time>
      </trkpt>
      <trkpt lat="48.14046" lon="7.06225">
        <ele>1023</ele>
        <time>2025-08-06T11:40:30Z</time>
      </trkpt>
      <trkpt lat="48.14041" lon="7.06221">
        <ele>1023</ele>
        <time>2025-08-06T11:40:31Z</time>
      </trkpt>
      <trkpt lat="48.14037" lon="7.0622">
        <ele>1023.2</ele>
        <time>2025-08-06T11:40:32Z</time>
      </trkpt>
      <trkpt lat="48.14026" lon="7.06218">
        <ele>1023.4</ele>
        <time>2025-08-06T11:40:34Z</time>
      </trkpt>
      <trkpt lat="48.1402" lon="7.06221">
        <ele>1023.4</ele>
        <time>2025-08-06T11:40:35Z</time>
      </trkpt>
      <trkpt lat="48.14015" lon="7.06224">
        <ele>1023.6</ele>
        <time>2025-08-06T11:40:36Z</time>
      </trkpt>
      <trkpt lat="48.13999" lon="7.06234">
        <ele>1024</ele>
        <time>2025-08-06T11:40:39Z</time>
      </trkpt>
      <trkpt lat="48.13993" lon="7.06239">
        <ele>1024</ele>
        <time>2025-08-06T11:40:40Z</time>
      </trkpt>
      <trkpt lat="48.13989" lon="7.06245">
        <ele>1024.4</ele>
        <time>2025-08-06T11:40:41Z</time>
      </trkpt>
      <trkpt lat="48.13981" lon="7.06257">
        <ele>1024.8</ele>
        <time>2025-08-06T11:40:43Z</time>
      </trkpt>
      <trkpt lat="48.13973" lon="7.06277">
        <ele>1024.6</ele>
        <time>2025-08-06T11:40:45Z</time>
      </trkpt>
      <trkpt lat="48.13965" lon="7.06296">
        <ele>1024.4</ele>
        <time>2025-08-06T11:40:47Z</time>
      </trkpt>
      <trkpt lat="48.13959" lon="7.06304">
        <ele>1024.4</ele>
        <time>2025-08-06T11:40:48Z</time>
      </trkpt>
      <trkpt lat="48.13952" lon="7.06311">
        <ele>1023.8</ele>
        <time>2025-08-06T11:40:49Z</time>
      </trkpt>
      <trkpt lat="48.13933" lon="7.06318">
        <ele>1022.8</ele>
        <time>2025-08-06T11:40:51Z</time>
      </trkpt>
      <trkpt lat="48.13914" lon="7.06317">
        <ele>1021.6</ele>
        <time>2025-08-06T11:40:53Z</time>
      </trkpt>
      <trkpt lat="48.13891" lon="7.06314">
        <ele>1020.4</ele>
        <time>2025-08-06T11:40:55Z</time>
      </trkpt>
      <trkpt lat="48.1387" lon="7.06309">
        <ele>1019.2</ele>
        <time>2025-08-06T11:40:57Z</time>
      </trkpt>
      <trkpt lat="48.13851" lon="7.06305">
        <ele>1017</ele>
        <time>2025-08-06T11:40:59Z</time>
      </trkpt>
      <trkpt lat="48.13828" lon="7.063">
        <ele>1015.6</ele>
        <time>2025-08-06T11:41:01Z</time>
      </trkpt>
      <trkpt lat="48.13819" lon="7.06297">
        <ele>1014.8</ele>
        <time>2025-08-06T11:41:02Z</time>
      </trkpt>
      <trkpt lat="48.13809" lon="7.06293">
        <ele>1013.8</ele>
        <time>2025-08-06T11:41:03Z</time>
      </trkpt>
      <trkpt lat="48.13792" lon="7.06277">
        <ele>1012.2</ele>
        <time>2025-08-06T11:41:05Z</time>
      </trkpt>
      <trkpt lat="48.13783" lon="7.06265">
        <ele>1011</ele>
        <time>2025-08-06T11:41:06Z</time>
      </trkpt>
      <trkpt lat="48.13771" lon="7.06243">
        <ele>1009.2</ele>
        <time>2025-08-06T11:41:08Z</time>
      </trkpt>
      <trkpt lat="48.13764" lon="7.06231">
        <ele>1008.6</ele>
        <time>2025-08-06T11:41:09Z</time>
      </trkpt>
      <trkpt lat="48.13757" lon="7.06218">
        <ele>1007.6</ele>
        <time>2025-08-06T11:41:10Z</time>
      </trkpt>
      <trkpt lat="48.13748" lon="7.06202">
        <ele>1006.4</ele>
        <time>2025-08-06T11:41:11Z</time>
      </trkpt>
      <trkpt lat="48.13734" lon="7.06179">
        <ele>1004.8</ele>
        <time>2025-08-06T11:41:13Z</time>
      </trkpt>
      <trkpt lat="48.1372" lon="7.06155">
        <ele>1003</ele>
        <time>2025-08-06T11:41:15Z</time>
      </trkpt>
      <trkpt lat="48.1371" lon="7.06142">
        <ele>1002.6</ele>
        <time>2025-08-06T11:41:16Z</time>
      </trkpt>
      <trkpt lat="48.13702" lon="7.06133">
        <ele>1001.2</ele>
        <time>2025-08-06T11:41:17Z</time>
      </trkpt>
      <trkpt lat="48.13695" lon="7.06128">
        <ele>1000.2</ele>
        <time>2025-08-06T11:41:18Z</time>
      </trkpt>
      <trkpt lat="48.13686" lon="7.06122">
        <ele>999.6</ele>
        <time>2025-08-06T11:41:19Z</time>
      </trkpt>
      <trkpt lat="48.13677" lon="7.06119">
        <ele>998.4</ele>
        <time>2025-08-06T11:41:20Z</time>
      </trkpt>
      <trkpt lat="48.13666" lon="7.06115">
        <ele>997.8</ele>
        <time>2025-08-06T11:41:21Z</time>
      </trkpt>
      <trkpt lat="48.13657" lon="7.06114">
        <ele>997</ele>
        <time>2025-08-06T11:41:22Z</time>
      </trkpt>
      <trkpt lat="48.1365" lon="7.06115">
        <ele>996.2</ele>
        <time>2025-08-06T11:41:23Z</time>
      </trkpt>
      <trkpt lat="48.1364" lon="7.0612">
        <ele>995.8</ele>
        <time>2025-08-06T11:41:24Z</time>
      </trkpt>
      <trkpt lat="48.13633" lon="7.06127">
        <ele>995.2</ele>
        <time>2025-08-06T11:41:25Z</time>
      </trkpt>
      <trkpt lat="48.13626" lon="7.06147">
        <ele>994.6</ele>
        <time>2025-08-06T11:41:27Z</time>
      </trkpt>
      <trkpt lat="48.13627" lon="7.06167">
        <ele>994.2</ele>
        <time>2025-08-06T11:41:29Z</time>
      </trkpt>
      <trkpt lat="48.1363" lon="7.06175">
        <ele>994.2</ele>
        <time>2025-08-06T11:41:30Z</time>
      </trkpt>
      <trkpt lat="48.13639" lon="7.062">
        <ele>994.4</ele>
        <time>2025-08-06T11:41:34Z</time>
      </trkpt>
      <trkpt lat="48.13649" lon="7.06231">
        <ele>995.8</ele>
        <time>2025-08-06T11:41:40Z</time>
      </trkpt>
      <trkpt lat="48.1365" lon="7.06236">
        <ele>996</ele>
        <time>2025-08-06T11:41:41Z</time>
      </trkpt>
      <trkpt lat="48.13652" lon="7.06245">
        <ele>996.8</ele>
        <time>2025-08-06T11:41:44Z</time>
      </trkpt>
      <trkpt lat="48.13657" lon="7.06267">
        <ele>997.6</ele>
        <time>2025-08-06T11:41:48Z</time>
      </trkpt>
      <trkpt lat="48.13657" lon="7.06273">
        <ele>997.8</ele>
        <time>2025-08-06T11:41:49Z</time>
      </trkpt>
      <trkpt lat="48.13657" lon="7.06289">
        <ele>999.2</ele>
        <time>2025-08-06T11:41:53Z</time>
      </trkpt>
      <trkpt lat="48.13657" lon="7.06297">
        <ele>999.6</ele>
        <time>2025-08-06T11:41:55Z</time>
      </trkpt>
      <trkpt lat="48.13657" lon="7.06301">
        <ele>1000.2</ele>
        <time>2025-08-06T11:41:57Z</time>
      </trkpt>
      <trkpt lat="48.13654" lon="7.06322">
        <ele>1001.2</ele>
        <time>2025-08-06T11:42:01Z</time>
      </trkpt>
      <trkpt lat="48.13654" lon="7.06328">
        <ele>1001.2</ele>
        <time>2025-08-06T11:42:02Z</time>
      </trkpt>
      <trkpt lat="48.13653" lon="7.06353">
        <ele>1002.4</ele>
        <time>2025-08-06T11:42:08Z</time>
      </trkpt>
      <trkpt lat="48.13656" lon="7.06375">
        <ele>1003.4</ele>
        <time>2025-08-06T11:42:14Z</time>
      </trkpt>
      <trkpt lat="48.13657" lon="7.06379">
        <ele>1003.6</ele>
        <time>2025-08-06T11:42:15Z</time>
      </trkpt>
      <trkpt lat="48.13659" lon="7.0639">
        <ele>1004.6</ele>
        <time>2025-08-06T11:42:18Z</time>
      </trkpt>
      <trkpt lat="48.1366" lon="7.06393">
        <ele>1004.8</ele>
        <time>2025-08-06T11:42:19Z</time>
      </trkpt>
      <trkpt lat="48.13662" lon="7.064">
        <ele>1005.6</ele>
        <time>2025-08-06T11:42:21Z</time>
      </trkpt>
      <trkpt lat="48.13663" lon="7.06405">
        <ele>1005.8</ele>
        <time>2025-08-06T11:42:22Z</time>
      </trkpt>
      <trkpt lat="48.13667" lon="7.06427">
        <ele>1007</ele>
        <time>2025-08-06T11:42:28Z</time>
      </trkpt>
      <trkpt lat="48.13666" lon="7.06452">
        <ele>1008.2</ele>
        <time>2025-08-06T11:42:34Z</time>
      </trkpt>
      <trkpt lat="48.13666" lon="7.06455">
        <ele>1008.4</ele>
        <time>2025-08-06T11:42:35Z</time>
      </trkpt>
      <trkpt lat="48.1367" lon="7.06478">
        <ele>1009.2</ele>
        <time>2025-08-06T11:42:41Z</time>
      </trkpt>
      <trkpt lat="48.1367" lon="7.06482">
        <ele>1009.4</ele>
        <time>2025-08-06T11:42:42Z</time>
      </trkpt>
      <trkpt lat="48.13669" lon="7.06498">
        <ele>1010.6</ele>
        <time>2025-08-06T11:42:46Z</time>
      </trkpt>
      <trkpt lat="48.13668" lon="7.06506">
        <ele>1010.8</ele>
        <time>2025-08-06T11:42:48Z</time>
      </trkpt>
      <trkpt lat="48.13667" lon="7.06526">
        <ele>1011.8</ele>
        <time>2025-08-06T11:42:53Z</time>
      </trkpt>
      <trkpt lat="48.13666" lon="7.06544">
        <ele>1012.4</ele>
        <time>2025-08-06T11:42:57Z</time>
      </trkpt>
      <trkpt lat="48.13667" lon="7.06548">
        <ele>1012.6</ele>
        <time>2025-08-06T11:42:58Z</time>
      </trkpt>
      <trkpt lat="48.13667" lon="7.06573">
        <ele>1013.8</ele>
        <time>2025-08-06T11:43:04Z</time>
      </trkpt>
      <trkpt lat="48.13667" lon="7.0658">
        <ele>1014</ele>
        <time>2025-08-06T11:43:06Z</time>
      </trkpt>
      <trkpt lat="48.13668" lon="7.06598">
        <ele>1015</ele>
        <time>2025-08-06T11:43:10Z</time>
      </trkpt>
      <trkpt lat="48.13668" lon="7.06608">
        <ele>1015.4</ele>
        <time>2025-08-06T11:43:12Z</time>
      </trkpt>
      <trkpt lat="48.13672" lon="7.06632">
        <ele>1016</ele>
        <time>2025-08-06T11:43:17Z</time>
      </trkpt>
      <trkpt lat="48.13673" lon="7.0664">
        <ele>1016.2</ele>
        <time>2025-08-06T11:43:19Z</time>
      </trkpt>
      <trkpt lat="48.13676" lon="7.06671">
        <ele>1016.8</ele>
        <time>2025-08-06T11:43:25Z</time>
      </trkpt>
      <trkpt lat="48.13673" lon="7.06681">
        <ele>1016.8</ele>
        <time>2025-08-06T11:43:27Z</time>
      </trkpt>
      <trkpt lat="48.13668" lon="7.06686">
        <ele>1017</ele>
        <time>2025-08-06T11:43:29Z</time>
      </trkpt>
      <trkpt lat="48.13663" lon="7.06686">
        <ele>1017.2</ele>
        <time>2025-08-06T11:43:31Z</time>
      </trkpt>
      <trkpt lat="48.13659" lon="7.06679">
        <ele>1017.4</ele>
        <time>2025-08-06T11:43:33Z</time>
      </trkpt>
      <trkpt lat="48.13658" lon="7.06675">
        <ele>1017.8</ele>
        <time>2025-08-06T11:43:34Z</time>
      </trkpt>
      <trkpt lat="48.13659" lon="7.06667">
        <ele>1018.2</ele>
        <time>2025-08-06T11:43:36Z</time>
      </trkpt>
      <trkpt lat="48.13659" lon="7.06649">
        <ele>1019.2</ele>
        <time>2025-08-06T11:43:40Z</time>
      </trkpt>
      <trkpt lat="48.13659" lon="7.06645">
        <ele>1019.6</ele>
        <time>2025-08-06T11:43:41Z</time>
      </trkpt>
      <trkpt lat="48.13657" lon="7.06612">
        <ele>1020.6</ele>
        <time>2025-08-06T11:43:48Z</time>
      </trkpt>
      <trkpt lat="48.13657" lon="7.06605">
        <ele>1021</ele>
        <time>2025-08-06T11:43:50Z</time>
      </trkpt>
      <trkpt lat="48.13656" lon="7.06589">
        <ele>1021.6</ele>
        <time>2025-08-06T11:43:53Z</time>
      </trkpt>
      <trkpt lat="48.1365" lon="7.06566">
        <ele>1022.6</ele>
        <time>2025-08-06T11:43:58Z</time>
      </trkpt>
      <trkpt lat="48.13638" lon="7.06539">
        <ele>1023.6</ele>
        <time>2025-08-06T11:44:05Z</time>
      </trkpt>
      <trkpt lat="48.13636" lon="7.06536">
        <ele>1023.8</ele>
        <time>2025-08-06T11:44:06Z</time>
      </trkpt>
      <trkpt lat="48.13626" lon="7.06524">
        <ele>1024.6</ele>
        <time>2025-08-06T11:44:11Z</time>
      </trkpt>
      <trkpt lat="48.13624" lon="7.06522">
        <ele>1025.2</ele>
        <time>2025-08-06T11:44:12Z</time>
      </trkpt>
      <trkpt lat="48.13611" lon="7.06509">
        <ele>1026.4</ele>
        <time>2025-08-06T11:44:18Z</time>
      </trkpt>
      <trkpt lat="48.13603" lon="7.06496">
        <ele>1027.4</ele>
        <time>2025-08-06T11:44:22Z</time>
      </trkpt>
      <trkpt lat="48.13599" lon="7.0649">
        <ele>1027.8</ele>
        <time>2025-08-06T11:44:24Z</time>
      </trkpt>
      <trkpt lat="48.13593" lon="7.06481">
        <ele>1028.6</ele>
        <time>2025-08-06T11:44:27Z</time>
      </trkpt>
      <trkpt lat="48.13587" lon="7.06471">
        <ele>1029.2</ele>
        <time>2025-08-06T11:44:30Z</time>
      </trkpt>
      <trkpt lat="48.13585" lon="7.06469">
        <ele>1029.6</ele>
        <time>2025-08-06T11:44:31Z</time>
      </trkpt>
      <trkpt lat="48.13576" lon="7.06456">
        <ele>1030.8</ele>
        <time>2025-08-06T11:44:36Z</time>
      </trkpt>
      <trkpt lat="48.1357" lon="7.06449">
        <ele>1031.4</ele>
        <time>2025-08-06T11:44:39Z</time>
      </trkpt>
      <trkpt lat="48.13566" lon="7.06443">
        <ele>1031.8</ele>
        <time>2025-08-06T11:44:41Z</time>
      </trkpt>
      <trkpt lat="48.13558" lon="7.06424">
        <ele>1033</ele>
        <time>2025-08-06T11:44:46Z</time>
      </trkpt>
      <trkpt lat="48.13557" lon="7.06419">
        <ele>1033.2</ele>
        <time>2025-08-06T11:44:47Z</time>
      </trkpt>
      <trkpt lat="48.13547" lon="7.06385">
        <ele>1034</ele>
        <time>2025-08-06T11:44:55Z</time>
      </trkpt>
      <trkpt lat="48.13543" lon="7.06378">
        <ele>1034.2</ele>
        <time>2025-08-06T11:44:57Z</time>
      </trkpt>
      <trkpt lat="48.13531" lon="7.06371">
        <ele>1034.8</ele>
        <time>2025-08-06T11:45:01Z</time>
      </trkpt>
      <trkpt lat="48.13522" lon="7.06377">
        <ele>1035</ele>
        <time>2025-08-06T11:45:04Z</time>
      </trkpt>
      <trkpt lat="48.1352" lon="7.06381">
        <ele>1035.2</ele>
        <time>2025-08-06T11:45:05Z</time>
      </trkpt>
      <trkpt lat="48.1352" lon="7.064">
        <ele>1035.8</ele>
        <time>2025-08-06T11:45:09Z</time>
      </trkpt>
      <trkpt lat="48.13523" lon="7.06409">
        <ele>1036.2</ele>
        <time>2025-08-06T11:45:11Z</time>
      </trkpt>
      <trkpt lat="48.13526" lon="7.06416">
        <ele>1036.4</ele>
        <time>2025-08-06T11:45:13Z</time>
      </trkpt>
      <trkpt lat="48.13528" lon="7.0642">
        <ele>1036.8</ele>
        <time>2025-08-06T11:45:14Z</time>
      </trkpt>
      <trkpt lat="48.13535" lon="7.06431">
        <ele>1037.2</ele>
        <time>2025-08-06T11:45:17Z</time>
      </trkpt>
      <trkpt lat="48.1354" lon="7.06442">
        <ele>1037.8</ele>
        <time>2025-08-06T11:45:20Z</time>
      </trkpt>
      <trkpt lat="48.13543" lon="7.06452">
        <ele>1038</ele>
        <time>2025-08-06T11:45:22Z</time>
      </trkpt>
      <trkpt lat="48.13545" lon="7.06462">
        <ele>1038.6</ele>
        <time>2025-08-06T11:45:24Z</time>
      </trkpt>
      <trkpt lat="48.13551" lon="7.06492">
        <ele>1039.6</ele>
        <time>2025-08-06T11:45:30Z</time>
      </trkpt>
      <trkpt lat="48.13552" lon="7.06497">
        <ele>1040</ele>
        <time>2025-08-06T11:45:31Z</time>
      </trkpt>
      <trkpt lat="48.13554" lon="7.06522">
        <ele>1040.6</ele>
        <time>2025-08-06T11:45:36Z</time>
      </trkpt>
      <trkpt lat="48.13555" lon="7.06536">
        <ele>1041.2</ele>
        <time>2025-08-06T11:45:39Z</time>
      </trkpt>
      <trkpt lat="48.13555" lon="7.0655">
        <ele>1041.6</ele>
        <time>2025-08-06T11:45:42Z</time>
      </trkpt>
      <trkpt lat="48.13553" lon="7.06567">
        <ele>1042.4</ele>
        <time>2025-08-06T11:45:46Z</time>
      </trkpt>
      <trkpt lat="48.13552" lon="7.0657">
        <ele>1042.8</ele>
        <time>2025-08-06T11:45:47Z</time>
      </trkpt>
      <trkpt lat="48.13548" lon="7.06586">
        <ele>1043.8</ele>
        <time>2025-08-06T11:45:52Z</time>
      </trkpt>
      <trkpt lat="48.13548" lon="7.0659">
        <ele>1044</ele>
        <time>2025-08-06T11:45:53Z</time>
      </trkpt>
      <trkpt lat="48.13544" lon="7.06604">
        <ele>1044.6</ele>
        <time>2025-08-06T11:45:57Z</time>
      </trkpt>
      <trkpt lat="48.13542" lon="7.0661">
        <ele>1045</ele>
        <time>2025-08-06T11:45:59Z</time>
      </trkpt>
      <trkpt lat="48.13536" lon="7.06628">
        <ele>1046.2</ele>
        <time>2025-08-06T11:46:04Z</time>
      </trkpt>
      <trkpt lat="48.13535" lon="7.06631">
        <ele>1046.8</ele>
        <time>2025-08-06T11:46:05Z</time>
      </trkpt>
      <trkpt lat="48.13533" lon="7.06643">
        <ele>1047.2</ele>
        <time>2025-08-06T11:46:08Z</time>
      </trkpt>
      <trkpt lat="48.13527" lon="7.06657">
        <ele>1048.4</ele>
        <time>2025-08-06T11:46:12Z</time>
      </trkpt>
      <trkpt lat="48.13519" lon="7.06681">
        <ele>1049.6</ele>
        <time>2025-08-06T11:46:18Z</time>
      </trkpt>
      <trkpt lat="48.13512" lon="7.06704">
        <ele>1050.6</ele>
        <time>2025-08-06T11:46:24Z</time>
      </trkpt>
      <trkpt lat="48.13506" lon="7.06714">
        <ele>1051.2</ele>
        <time>2025-08-06T11:46:27Z</time>
      </trkpt>
      <trkpt lat="48.13501" lon="7.06723">
        <ele>1051.8</ele>
        <time>2025-08-06T11:46:30Z</time>
      </trkpt>
      <trkpt lat="48.1349" lon="7.06735">
        <ele>1053</ele>
        <time>2025-08-06T11:46:35Z</time>
      </trkpt>
      <trkpt lat="48.13477" lon="7.06748">
        <ele>1054.2</ele>
        <time>2025-08-06T11:46:41Z</time>
      </trkpt>
      <trkpt lat="48.13468" lon="7.06757">
        <ele>1055.2</ele>
        <time>2025-08-06T11:46:45Z</time>
      </trkpt>
      <trkpt lat="48.13464" lon="7.06761">
        <ele>1055.8</ele>
        <time>2025-08-06T11:46:47Z</time>
      </trkpt>
      <trkpt lat="48.1346" lon="7.06766">
        <ele>1056.4</ele>
        <time>2025-08-06T11:46:49Z</time>
      </trkpt>
      <trkpt lat="48.13448" lon="7.06778">
        <ele>1057.6</ele>
        <time>2025-08-06T11:46:54Z</time>
      </trkpt>
      <trkpt lat="48.13438" lon="7.06791">
        <ele>1059</ele>
        <time>2025-08-06T11:46:59Z</time>
      </trkpt>
      <trkpt lat="48.13432" lon="7.06801">
        <ele>1059.4</ele>
        <time>2025-08-06T11:47:02Z</time>
      </trkpt>
      <trkpt lat="48.13428" lon="7.06806">
        <ele>1060</ele>
        <time>2025-08-06T11:47:04Z</time>
      </trkpt>
      <trkpt lat="48.13419" lon="7.06818">
        <ele>1061.2</ele>
        <time>2025-08-06T11:47:08Z</time>
      </trkpt>
      <trkpt lat="48.1341" lon="7.06828">
        <ele>1062.2</ele>
        <time>2025-08-06T11:47:12Z</time>
      </trkpt>
      <trkpt lat="48.13406" lon="7.06844">
        <ele>1063.2</ele>
        <time>2025-08-06T11:47:16Z</time>
      </trkpt>
      <trkpt lat="48.13402" lon="7.06853">
        <ele>1063.8</ele>
        <time>2025-08-06T11:47:19Z</time>
      </trkpt>
      <trkpt lat="48.13403" lon="7.06858">
        <ele>1064.2</ele>
        <time>2025-08-06T11:47:20Z</time>
      </trkpt>
      <trkpt lat="48.13399" lon="7.06876">
        <ele>1065.2</ele>
        <time>2025-08-06T11:47:24Z</time>
      </trkpt>
      <trkpt lat="48.13396" lon="7.0689">
        <ele>1066</ele>
        <time>2025-08-06T11:47:27Z</time>
      </trkpt>
      <trkpt lat="48.13395" lon="7.06895">
        <ele>1066.4</ele>
        <time>2025-08-06T11:47:28Z</time>
      </trkpt>
      <trkpt lat="48.13388" lon="7.06919">
        <ele>1067.4</ele>
        <time>2025-08-06T11:47:33Z</time>
      </trkpt>
      <trkpt lat="48.13385" lon="7.06943">
        <ele>1068.2</ele>
        <time>2025-08-06T11:47:39Z</time>
      </trkpt>
      <trkpt lat="48.13384" lon="7.06947">
        <ele>1068.4</ele>
        <time>2025-08-06T11:47:40Z</time>
      </trkpt>
      <trkpt lat="48.1338" lon="7.06969">
        <ele>1069.8</ele>
        <time>2025-08-06T11:47:45Z</time>
      </trkpt>
      <trkpt lat="48.13377" lon="7.06982">
        <ele>1070.2</ele>
        <time>2025-08-06T11:47:48Z</time>
      </trkpt>
      <trkpt lat="48.13374" lon="7.06998">
        <ele>1071</ele>
        <time>2025-08-06T11:47:52Z</time>
      </trkpt>
      <trkpt lat="48.13372" lon="7.0701">
        <ele>1071.4</ele>
        <time>2025-08-06T11:47:55Z</time>
      </trkpt>
      <trkpt lat="48.13371" lon="7.07018">
        <ele>1072</ele>
        <time>2025-08-06T11:47:57Z</time>
      </trkpt>
      <trkpt lat="48.13367" lon="7.0703">
        <ele>1072.6</ele>
        <time>2025-08-06T11:48:00Z</time>
      </trkpt>
      <trkpt lat="48.13365" lon="7.07038">
        <ele>1073.2</ele>
        <time>2025-08-06T11:48:02Z</time>
      </trkpt>
      <trkpt lat="48.13364" lon="7.07046">
        <ele>1073.8</ele>
        <time>2025-08-06T11:48:04Z</time>
      </trkpt>
      <trkpt lat="48.13364" lon="7.07055">
        <ele>1074.4</ele>
        <time>2025-08-06T11:48:06Z</time>
      </trkpt>
      <trkpt lat="48.13365" lon="7.0706">
        <ele>1074.6</ele>
        <time>2025-08-06T11:48:07Z</time>
      </trkpt>
      <trkpt lat="48.13366" lon="7.07078">
        <ele>1075.6</ele>
        <time>2025-08-06T11:48:11Z</time>
      </trkpt>
      <trkpt lat="48.13367" lon="7.07089">
        <ele>1076.4</ele>
        <time>2025-08-06T11:48:14Z</time>
      </trkpt>
      <trkpt lat="48.13368" lon="7.07093">
        <ele>1076.6</ele>
        <time>2025-08-06T11:48:15Z</time>
      </trkpt>
      <trkpt lat="48.13364" lon="7.07112">
        <ele>1077.8</ele>
        <time>2025-08-06T11:48:20Z</time>
      </trkpt>
      <trkpt lat="48.13362" lon="7.07123">
        <ele>1078.2</ele>
        <time>2025-08-06T11:48:23Z</time>
      </trkpt>
      <trkpt lat="48.1336" lon="7.07138">
        <ele>1078.8</ele>
        <time>2025-08-06T11:48:27Z</time>
      </trkpt>
      <trkpt lat="48.13359" lon="7.07157">
        <ele>1080</ele>
        <time>2025-08-06T11:48:32Z</time>
      </trkpt>
      <trkpt lat="48.13359" lon="7.07161">
        <ele>1080.4</ele>
        <time>2025-08-06T11:48:33Z</time>
      </trkpt>
      <trkpt lat="48.13358" lon="7.07176">
        <ele>1081.2</ele>
        <time>2025-08-06T11:48:37Z</time>
      </trkpt>
      <trkpt lat="48.13359" lon="7.07186">
        <ele>1081.8</ele>
        <time>2025-08-06T11:48:40Z</time>
      </trkpt>
      <trkpt lat="48.13359" lon="7.07193">
        <ele>1082.4</ele>
        <time>2025-08-06T11:48:42Z</time>
      </trkpt>
      <trkpt lat="48.1336" lon="7.07213">
        <ele>1083.4</ele>
        <time>2025-08-06T11:48:47Z</time>
      </trkpt>
      <trkpt lat="48.1336" lon="7.0722">
        <ele>1083.8</ele>
        <time>2025-08-06T11:48:49Z</time>
      </trkpt>
      <trkpt lat="48.1336" lon="7.07232">
        <ele>1084.6</ele>
        <time>2025-08-06T11:48:52Z</time>
      </trkpt>
      <trkpt lat="48.13361" lon="7.07245">
        <ele>1085</ele>
        <time>2025-08-06T11:48:55Z</time>
      </trkpt>
      <trkpt lat="48.13362" lon="7.07253">
        <ele>1085.6</ele>
        <time>2025-08-06T11:48:57Z</time>
      </trkpt>
      <trkpt lat="48.13361" lon="7.07257">
        <ele>1085.8</ele>
        <time>2025-08-06T11:48:58Z</time>
      </trkpt>
      <trkpt lat="48.13362" lon="7.07274">
        <ele>1086.8</ele>
        <time>2025-08-06T11:49:02Z</time>
      </trkpt>
      <trkpt lat="48.13362" lon="7.07282">
        <ele>1087.4</ele>
        <time>2025-08-06T11:49:04Z</time>
      </trkpt>
      <trkpt lat="48.13361" lon="7.07295">
        <ele>1087.8</ele>
        <time>2025-08-06T11:49:07Z</time>
      </trkpt>
      <trkpt lat="48.1336" lon="7.07314">
        <ele>1088.6</ele>
        <time>2025-08-06T11:49:12Z</time>
      </trkpt>
      <trkpt lat="48.1336" lon="7.07322">
        <ele>1089</ele>
        <time>2025-08-06T11:49:14Z</time>
      </trkpt>
      <trkpt lat="48.13359" lon="7.07347">
        <ele>1090</ele>
        <time>2025-08-06T11:49:20Z</time>
      </trkpt>
      <trkpt lat="48.13356" lon="7.07366">
        <ele>1091.4</ele>
        <time>2025-08-06T11:49:25Z</time>
      </trkpt>
      <trkpt lat="48.13355" lon="7.07373">
        <ele>1092</ele>
        <time>2025-08-06T11:49:27Z</time>
      </trkpt>
      <trkpt lat="48.13353" lon="7.07384">
        <ele>1092.8</ele>
        <time>2025-08-06T11:49:30Z</time>
      </trkpt>
      <trkpt lat="48.13351" lon="7.07395">
        <ele>1093.6</ele>
        <time>2025-08-06T11:49:33Z</time>
      </trkpt>
      <trkpt lat="48.13349" lon="7.07402">
        <ele>1094.2</ele>
        <time>2025-08-06T11:49:35Z</time>
      </trkpt>
      <trkpt lat="48.13348" lon="7.07417">
        <ele>1095.4</ele>
        <time>2025-08-06T11:49:39Z</time>
      </trkpt>
      <trkpt lat="48.13348" lon="7.07421">
        <ele>1095.8</ele>
        <time>2025-08-06T11:49:40Z</time>
      </trkpt>
      <trkpt lat="48.13346" lon="7.07434">
        <ele>1096.4</ele>
        <time>2025-08-06T11:49:43Z</time>
      </trkpt>
      <trkpt lat="48.13345" lon="7.07444">
        <ele>1096.8</ele>
        <time>2025-08-06T11:49:45Z</time>
      </trkpt>
      <trkpt lat="48.13352" lon="7.07463">
        <ele>1097.4</ele>
        <time>2025-08-06T11:49:49Z</time>
      </trkpt>
      <trkpt lat="48.13356" lon="7.07472">
        <ele>1097.8</ele>
        <time>2025-08-06T11:49:51Z</time>
      </trkpt>
      <trkpt lat="48.13367" lon="7.07491">
        <ele>1098.6</ele>
        <time>2025-08-06T11:49:56Z</time>
      </trkpt>
      <trkpt lat="48.13385" lon="7.07524">
        <ele>1099.6</ele>
        <time>2025-08-06T11:50:05Z</time>
      </trkpt>
      <trkpt lat="48.13387" lon="7.07528">
        <ele>1099.6</ele>
        <time>2025-08-06T11:50:06Z</time>
      </trkpt>
      <trkpt lat="48.134" lon="7.07554">
        <ele>1100.8</ele>
        <time>2025-08-06T11:50:13Z</time>
      </trkpt>
      <trkpt lat="48.13408" lon="7.07571">
        <ele>1101.8</ele>
        <time>2025-08-06T11:50:18Z</time>
      </trkpt>
      <trkpt lat="48.13412" lon="7.07579">
        <ele>1102.4</ele>
        <time>2025-08-06T11:50:20Z</time>
      </trkpt>
      <trkpt lat="48.13418" lon="7.07589">
        <ele>1102.8</ele>
        <time>2025-08-06T11:50:23Z</time>
      </trkpt>
      <trkpt lat="48.1342" lon="7.07597">
        <ele>1103.2</ele>
        <time>2025-08-06T11:50:25Z</time>
      </trkpt>
      <trkpt lat="48.13425" lon="7.07609">
        <ele>1104</ele>
        <time>2025-08-06T11:50:28Z</time>
      </trkpt>
      <trkpt lat="48.13432" lon="7.07621">
        <ele>1104.4</ele>
        <time>2025-08-06T11:50:31Z</time>
      </trkpt>
      <trkpt lat="48.13439" lon="7.07634">
        <ele>1105</ele>
        <time>2025-08-06T11:50:34Z</time>
      </trkpt>
      <trkpt lat="48.13444" lon="7.07641">
        <ele>1105.6</ele>
        <time>2025-08-06T11:50:36Z</time>
      </trkpt>
      <trkpt lat="48.13451" lon="7.07653">
        <ele>1106.2</ele>
        <time>2025-08-06T11:50:39Z</time>
      </trkpt>
      <trkpt lat="48.13463" lon="7.07666">
        <ele>1107.4</ele>
        <time>2025-08-06T11:50:44Z</time>
      </trkpt>
      <trkpt lat="48.13479" lon="7.07681">
        <ele>1108.4</ele>
        <time>2025-08-06T11:50:50Z</time>
      </trkpt>
      <trkpt lat="48.13493" lon="7.07698">
        <ele>1109.6</ele>
        <time>2025-08-06T11:50:56Z</time>
      </trkpt>
      <trkpt lat="48.13501" lon="7.07706">
        <ele>1110.2</ele>
        <time>2025-08-06T11:50:59Z</time>
      </trkpt>
      <trkpt lat="48.13511" lon="7.07717">
        <ele>1110.8</ele>
        <time>2025-08-06T11:51:03Z</time>
      </trkpt>
      <trkpt lat="48.13521" lon="7.07728">
        <ele>1111.2</ele>
        <time>2025-08-06T11:51:07Z</time>
      </trkpt>
      <trkpt lat="48.13529" lon="7.07736">
        <ele>1111.8</ele>
        <time>2025-08-06T11:51:10Z</time>
      </trkpt>
      <trkpt lat="48.1354" lon="7.07748">
        <ele>1112.8</ele>
        <time>2025-08-06T11:51:14Z</time>
      </trkpt>
      <trkpt lat="48.13543" lon="7.07751">
        <ele>1113.2</ele>
        <time>2025-08-06T11:51:15Z</time>
      </trkpt>
      <trkpt lat="48.1356" lon="7.07771">
        <ele>1114.4</ele>
        <time>2025-08-06T11:51:21Z</time>
      </trkpt>
      <trkpt lat="48.13565" lon="7.07777">
        <ele>1114.6</ele>
        <time>2025-08-06T11:51:23Z</time>
      </trkpt>
      <trkpt lat="48.13577" lon="7.07795">
        <ele>1115.4</ele>
        <time>2025-08-06T11:51:28Z</time>
      </trkpt>
      <trkpt lat="48.13583" lon="7.07806">
        <ele>1115.8</ele>
        <time>2025-08-06T11:51:31Z</time>
      </trkpt>
      <trkpt lat="48.13591" lon="7.07821">
        <ele>1116.4</ele>
        <time>2025-08-06T11:51:35Z</time>
      </trkpt>
      <trkpt lat="48.13599" lon="7.07835">
        <ele>1116.8</ele>
        <time>2025-08-06T11:51:39Z</time>
      </trkpt>
      <trkpt lat="48.13605" lon="7.07846">
        <ele>1117.4</ele>
        <time>2025-08-06T11:51:42Z</time>
      </trkpt>
      <trkpt lat="48.1361" lon="7.07861">
        <ele>1118.4</ele>
        <time>2025-08-06T11:51:46Z</time>
      </trkpt>
      <trkpt lat="48.13611" lon="7.07865">
        <ele>1118.6</ele>
        <time>2025-08-06T11:51:47Z</time>
      </trkpt>
      <trkpt lat="48.13618" lon="7.0788">
        <ele>1119.8</ele>
        <time>2025-08-06T11:51:51Z</time>
      </trkpt>
      <trkpt lat="48.13624" lon="7.07895">
        <ele>1120.8</ele>
        <time>2025-08-06T11:51:55Z</time>
      </trkpt>
      <trkpt lat="48.13625" lon="7.07899">
        <ele>1121</ele>
        <time>2025-08-06T11:51:56Z</time>
      </trkpt>
      <trkpt lat="48.13631" lon="7.07924">
        <ele>1121.8</ele>
        <time>2025-08-06T11:52:02Z</time>
      </trkpt>
      <trkpt lat="48.13632" lon="7.07928">
        <ele>1122</ele>
        <time>2025-08-06T11:52:03Z</time>
      </trkpt>
      <trkpt lat="48.13639" lon="7.07944">
        <ele>1123.2</ele>
        <time>2025-08-06T11:52:07Z</time>
      </trkpt>
      <trkpt lat="48.1364" lon="7.07948">
        <ele>1123.4</ele>
        <time>2025-08-06T11:52:08Z</time>
      </trkpt>
      <trkpt lat="48.13646" lon="7.07969">
        <ele>1124.2</ele>
        <time>2025-08-06T11:52:13Z</time>
      </trkpt>
      <trkpt lat="48.13651" lon="7.07981">
        <ele>1124.8</ele>
        <time>2025-08-06T11:52:16Z</time>
      </trkpt>
      <trkpt lat="48.13656" lon="7.07995">
        <ele>1125</ele>
        <time>2025-08-06T11:52:20Z</time>
      </trkpt>
      <trkpt lat="48.13662" lon="7.08007">
        <ele>1126.4</ele>
        <time>2025-08-06T11:52:24Z</time>
      </trkpt>
      <trkpt lat="48.13663" lon="7.08011">
        <ele>1126.4</ele>
        <time>2025-08-06T11:52:25Z</time>
      </trkpt>
      <trkpt lat="48.13667" lon="7.08021">
        <ele>1127.4</ele>
        <time>2025-08-06T11:52:28Z</time>
      </trkpt>
      <trkpt lat="48.13672" lon="7.08035">
        <ele>1128.6</ele>
        <time>2025-08-06T11:52:32Z</time>
      </trkpt>
      <trkpt lat="48.13675" lon="7.08046">
        <ele>1129.8</ele>
        <time>2025-08-06T11:52:35Z</time>
      </trkpt>
      <trkpt lat="48.13677" lon="7.08057">
        <ele>1130.8</ele>
        <time>2025-08-06T11:52:38Z</time>
      </trkpt>
      <trkpt lat="48.13679" lon="7.08063">
        <ele>1131.4</ele>
        <time>2025-08-06T11:52:40Z</time>
      </trkpt>
      <trkpt lat="48.13682" lon="7.08074">
        <ele>1131.8</ele>
        <time>2025-08-06T11:52:43Z</time>
      </trkpt>
      <trkpt lat="48.13692" lon="7.08099">
        <ele>1132.8</ele>
        <time>2025-08-06T11:52:50Z</time>
      </trkpt>
      <trkpt lat="48.13693" lon="7.08102">
        <ele>1133.2</ele>
        <time>2025-08-06T11:52:51Z</time>
      </trkpt>
      <trkpt lat="48.13696" lon="7.0811">
        <ele>1134</ele>
        <time>2025-08-06T11:52:53Z</time>
      </trkpt>
      <trkpt lat="48.13698" lon="7.08122">
        <ele>1135</ele>
        <time>2025-08-06T11:52:56Z</time>
      </trkpt>
      <trkpt lat="48.13699" lon="7.08126">
        <ele>1135.4</ele>
        <time>2025-08-06T11:52:57Z</time>
      </trkpt>
      <trkpt lat="48.13702" lon="7.08138">
        <ele>1136</ele>
        <time>2025-08-06T11:53:00Z</time>
      </trkpt>
      <trkpt lat="48.13704" lon="7.08154">
        <ele>1137.2</ele>
        <time>2025-08-06T11:53:04Z</time>
      </trkpt>
      <trkpt lat="48.13706" lon="7.08161">
        <ele>1137.6</ele>
        <time>2025-08-06T11:53:06Z</time>
      </trkpt>
      <trkpt lat="48.13706" lon="7.08168">
        <ele>1138.4</ele>
        <time>2025-08-06T11:53:08Z</time>
      </trkpt>
      <trkpt lat="48.13708" lon="7.08182">
        <ele>1139.4</ele>
        <time>2025-08-06T11:53:12Z</time>
      </trkpt>
      <trkpt lat="48.13708" lon="7.08186">
        <ele>1140</ele>
        <time>2025-08-06T11:53:13Z</time>
      </trkpt>
      <trkpt lat="48.13706" lon="7.08198">
        <ele>1140.6</ele>
        <time>2025-08-06T11:53:16Z</time>
      </trkpt>
      <trkpt lat="48.13706" lon="7.08218">
        <ele>1142</ele>
        <time>2025-08-06T11:53:21Z</time>
      </trkpt>
      <trkpt lat="48.13707" lon="7.08225">
        <ele>1142.4</ele>
        <time>2025-08-06T11:53:23Z</time>
      </trkpt>
      <trkpt lat="48.13707" lon="7.08238">
        <ele>1143</ele>
        <time>2025-08-06T11:53:26Z</time>
      </trkpt>
      <trkpt lat="48.13711" lon="7.08255">
        <ele>1144.2</ele>
        <time>2025-08-06T11:53:30Z</time>
      </trkpt>
      <trkpt lat="48.13712" lon="7.08264">
        <ele>1144.4</ele>
        <time>2025-08-06T11:53:32Z</time>
      </trkpt>
      <trkpt lat="48.13713" lon="7.08278">
        <ele>1145.2</ele>
        <time>2025-08-06T11:53:35Z</time>
      </trkpt>
      <trkpt lat="48.13714" lon="7.083">
        <ele>1146.2</ele>
        <time>2025-08-06T11:53:40Z</time>
      </trkpt>
      <trkpt lat="48.13714" lon="7.08318">
        <ele>1146.6</ele>
        <time>2025-08-06T11:53:44Z</time>
      </trkpt>
      <trkpt lat="48.13716" lon="7.08346">
        <ele>1147.2</ele>
        <time>2025-08-06T11:53:50Z</time>
      </trkpt>
      <trkpt lat="48.13717" lon="7.08365">
        <ele>1147.6</ele>
        <time>2025-08-06T11:53:54Z</time>
      </trkpt>
      <trkpt lat="48.13718" lon="7.08384">
        <ele>1148</ele>
        <time>2025-08-06T11:53:58Z</time>
      </trkpt>
      <trkpt lat="48.1372" lon="7.08408">
        <ele>1148.8</ele>
        <time>2025-08-06T11:54:03Z</time>
      </trkpt>
      <trkpt lat="48.13722" lon="7.08444">
        <ele>1149.6</ele>
        <time>2025-08-06T11:54:10Z</time>
      </trkpt>
      <trkpt lat="48.13722" lon="7.08475">
        <ele>1149.8</ele>
        <time>2025-08-06T11:54:16Z</time>
      </trkpt>
      <trkpt lat="48.13722" lon="7.08495">
        <ele>1150.2</ele>
        <time>2025-08-06T11:54:20Z</time>
      </trkpt>
      <trkpt lat="48.13722" lon="7.08537">
        <ele>1151</ele>
        <time>2025-08-06T11:54:28Z</time>
      </trkpt>
      <trkpt lat="48.13721" lon="7.08553">
        <ele>1151.4</ele>
        <time>2025-08-06T11:54:31Z</time>
      </trkpt>
      <trkpt lat="48.13717" lon="7.08573">
        <ele>1152</ele>
        <time>2025-08-06T11:54:35Z</time>
      </trkpt>
      <trkpt lat="48.1371" lon="7.08608">
        <ele>1153</ele>
        <time>2025-08-06T11:54:42Z</time>
      </trkpt>
      <trkpt lat="48.13708" lon="7.08618">
        <ele>1153.2</ele>
        <time>2025-08-06T11:54:44Z</time>
      </trkpt>
      <trkpt lat="48.13694" lon="7.08663">
        <ele>1153.8</ele>
        <time>2025-08-06T11:54:53Z</time>
      </trkpt>
      <trkpt lat="48.13684" lon="7.087">
        <ele>1154.4</ele>
        <time>2025-08-06T11:55:01Z</time>
      </trkpt>
      <trkpt lat="48.13679" lon="7.08714">
        <ele>1154.6</ele>
        <time>2025-08-06T11:55:04Z</time>
      </trkpt>
      <trkpt lat="48.1367" lon="7.08758">
        <ele>1155.2</ele>
        <time>2025-08-06T11:55:12Z</time>
      </trkpt>
      <trkpt lat="48.13666" lon="7.08787">
        <ele>1155.4</ele>
        <time>2025-08-06T11:55:17Z</time>
      </trkpt>
      <trkpt lat="48.13664" lon="7.08803">
        <ele>1155.4</ele>
        <time>2025-08-06T11:55:20Z</time>
      </trkpt>
      <trkpt lat="48.13657" lon="7.08831">
        <ele>1155.2</ele>
        <time>2025-08-06T11:55:26Z</time>
      </trkpt>
      <trkpt lat="48.1365" lon="7.08845">
        <ele>1155</ele>
        <time>2025-08-06T11:55:31Z</time>
      </trkpt>
      <trkpt lat="48.13644" lon="7.08844">
        <ele>1154.8</ele>
        <time>2025-08-06T11:55:35Z</time>
      </trkpt>
      <trkpt lat="48.13644" lon="7.08843">
        <ele>1154.8</ele>
        <time>2025-08-06T11:55:38Z</time>
      </trkpt>
      <trkpt lat="48.13644" lon="7.08837">
        <ele>1156.2</ele>
        <time>2025-08-06T12:00:12Z</time>
      </trkpt>
      <trkpt lat="48.13641" lon="7.08824">
        <ele>1156.2</ele>
        <time>2025-08-06T12:00:15Z</time>
      </trkpt>
      <trkpt lat="48.13641" lon="7.08824">
        <ele>1156.4</ele>
        <time>2025-08-06T12:00:16Z</time>
      </trkpt>
      <trkpt lat="48.13642" lon="7.08816">
        <ele>1156.4</ele>
        <time>2025-08-06T12:00:17Z</time>
      </trkpt>
      <trkpt lat="48.13644" lon="7.08805">
        <ele>1156.6</ele>
        <time>2025-08-06T12:00:20Z</time>
      </trkpt>
      <trkpt lat="48.13652" lon="7.08774">
        <ele>1156.8</ele>
        <time>2025-08-06T12:00:28Z</time>
      </trkpt>
      <trkpt lat="48.13655" lon="7.08761">
        <ele>1156.8</ele>
        <time>2025-08-06T12:00:30Z</time>
      </trkpt>
      <trkpt lat="48.1366" lon="7.08734">
        <ele>1157</ele>
        <time>2025-08-06T12:00:37Z</time>
      </trkpt>
      <trkpt lat="48.13667" lon="7.08694">
        <ele>1157.8</ele>
        <time>2025-08-06T12:00:43Z</time>
      </trkpt>
      <trkpt lat="48.1367" lon="7.08683">
        <ele>1158</ele>
        <time>2025-08-06T12:00:45Z</time>
      </trkpt>
      <trkpt lat="48.13675" lon="7.08647">
        <ele>1158.8</ele>
        <time>2025-08-06T12:00:51Z</time>
      </trkpt>
      <trkpt lat="48.13675" lon="7.08617">
        <ele>1159.8</ele>
        <time>2025-08-06T12:00:56Z</time>
      </trkpt>
      <trkpt lat="48.13674" lon="7.08611">
        <ele>1159.8</ele>
        <time>2025-08-06T12:00:57Z</time>
      </trkpt>
      <trkpt lat="48.13674" lon="7.08606">
        <ele>1160</ele>
        <time>2025-08-06T12:00:58Z</time>
      </trkpt>
      <trkpt lat="48.1367" lon="7.08582">
        <ele>1161</ele>
        <time>2025-08-06T12:01:02Z</time>
      </trkpt>
      <trkpt lat="48.13663" lon="7.08554">
        <ele>1162</ele>
        <time>2025-08-06T12:01:07Z</time>
      </trkpt>
      <trkpt lat="48.13661" lon="7.08547">
        <ele>1162.2</ele>
        <time>2025-08-06T12:01:08Z</time>
      </trkpt>
      <trkpt lat="48.13655" lon="7.08522">
        <ele>1163.4</ele>
        <time>2025-08-06T12:01:13Z</time>
      </trkpt>
      <trkpt lat="48.13652" lon="7.08504">
        <ele>1164.2</ele>
        <time>2025-08-06T12:01:16Z</time>
      </trkpt>
      <trkpt lat="48.13649" lon="7.08487">
        <ele>1164.4</ele>
        <time>2025-08-06T12:01:19Z</time>
      </trkpt>
      <trkpt lat="48.13648" lon="7.08481">
        <ele>1164.6</ele>
        <time>2025-08-06T12:01:20Z</time>
      </trkpt>
      <trkpt lat="48.13644" lon="7.08459">
        <ele>1165.4</ele>
        <time>2025-08-06T12:01:24Z</time>
      </trkpt>
      <trkpt lat="48.13642" lon="7.08448">
        <ele>1165.8</ele>
        <time>2025-08-06T12:01:26Z</time>
      </trkpt>
      <trkpt lat="48.13638" lon="7.08419">
        <ele>1167</ele>
        <time>2025-08-06T12:01:31Z</time>
      </trkpt>
      <trkpt lat="48.13637" lon="7.08412">
        <ele>1167</ele>
        <time>2025-08-06T12:01:32Z</time>
      </trkpt>
      <trkpt lat="48.13629" lon="7.08372">
        <ele>1167.8</ele>
        <time>2025-08-06T12:01:38Z</time>
      </trkpt>
      <trkpt lat="48.13627" lon="7.08366">
        <ele>1167.8</ele>
        <time>2025-08-06T12:01:39Z</time>
      </trkpt>
      <trkpt lat="48.13625" lon="7.08359">
        <ele>1168</ele>
        <time>2025-08-06T12:01:40Z</time>
      </trkpt>
      <trkpt lat="48.13619" lon="7.0834">
        <ele>1168</ele>
        <time>2025-08-06T12:01:43Z</time>
      </trkpt>
      <trkpt lat="48.13612" lon="7.0832">
        <ele>1168.2</ele>
        <time>2025-08-06T12:01:46Z</time>
      </trkpt>
      <trkpt lat="48.13604" lon="7.08299">
        <ele>1168.4</ele>
        <time>2025-08-06T12:01:49Z</time>
      </trkpt>
      <trkpt lat="48.13596" lon="7.08275">
        <ele>1168.6</ele>
        <time>2025-08-06T12:01:52Z</time>
      </trkpt>
      <trkpt lat="48.13574" lon="7.08226">
        <ele>1168.2</ele>
        <time>2025-08-06T12:01:58Z</time>
      </trkpt>
      <trkpt lat="48.13538" lon="7.08166">
        <ele>1167.6</ele>
        <time>2025-08-06T12:02:06Z</time>
      </trkpt>
      <trkpt lat="48.13505" lon="7.08109">
        <ele>1168.2</ele>
        <time>2025-08-06T12:02:14Z</time>
      </trkpt>
      <trkpt lat="48.1347" lon="7.08063">
        <ele>1168</ele>
        <time>2025-08-06T12:02:21Z</time>
      </trkpt>
      <trkpt lat="48.13419" lon="7.08014">
        <ele>1167.8</ele>
        <time>2025-08-06T12:02:30Z</time>
      </trkpt>
      <trkpt lat="48.13413" lon="7.08009">
        <ele>1167.8</ele>
        <time>2025-08-06T12:02:31Z</time>
      </trkpt>
      <trkpt lat="48.13384" lon="7.07985">
        <ele>1167.4</ele>
        <time>2025-08-06T12:02:36Z</time>
      </trkpt>
      <trkpt lat="48.13368" lon="7.07971">
        <ele>1167.4</ele>
        <time>2025-08-06T12:02:39Z</time>
      </trkpt>
      <trkpt lat="48.13327" lon="7.07932">
        <ele>1167.6</ele>
        <time>2025-08-06T12:02:47Z</time>
      </trkpt>
      <trkpt lat="48.13281" lon="7.07882">
        <ele>1168.4</ele>
        <time>2025-08-06T12:02:56Z</time>
      </trkpt>
      <trkpt lat="48.13248" lon="7.0784">
        <ele>1168.4</ele>
        <time>2025-08-06T12:03:03Z</time>
      </trkpt>
      <trkpt lat="48.13243" lon="7.07833">
        <ele>1168.4</ele>
        <time>2025-08-06T12:03:04Z</time>
      </trkpt>
      <trkpt lat="48.13221" lon="7.07805">
        <ele>1169</ele>
        <time>2025-08-06T12:03:09Z</time>
      </trkpt>
      <trkpt lat="48.13213" lon="7.07795">
        <ele>1169.4</ele>
        <time>2025-08-06T12:03:11Z</time>
      </trkpt>
      <trkpt lat="48.13199" lon="7.07779">
        <ele>1170</ele>
        <time>2025-08-06T12:03:14Z</time>
      </trkpt>
      <trkpt lat="48.13195" lon="7.07774">
        <ele>1170.2</ele>
        <time>2025-08-06T12:03:15Z</time>
      </trkpt>
      <trkpt lat="48.13187" lon="7.07763">
        <ele>1170.4</ele>
        <time>2025-08-06T12:03:17Z</time>
      </trkpt>
      <trkpt lat="48.13169" lon="7.07729">
        <ele>1170.6</ele>
        <time>2025-08-06T12:03:22Z</time>
      </trkpt>
      <trkpt lat="48.13167" lon="7.07721">
        <ele>1170.6</ele>
        <time>2025-08-06T12:03:23Z</time>
      </trkpt>
      <trkpt lat="48.13148" lon="7.07668">
        <ele>1171</ele>
        <time>2025-08-06T12:03:30Z</time>
      </trkpt>
      <trkpt lat="48.13145" lon="7.07661">
        <ele>1171.2</ele>
        <time>2025-08-06T12:03:31Z</time>
      </trkpt>
      <trkpt lat="48.1313" lon="7.07626">
        <ele>1171.6</ele>
        <time>2025-08-06T12:03:36Z</time>
      </trkpt>
      <trkpt lat="48.13123" lon="7.07612">
        <ele>1171.8</ele>
        <time>2025-08-06T12:03:38Z</time>
      </trkpt>
      <trkpt lat="48.13113" lon="7.07583">
        <ele>1171.8</ele>
        <time>2025-08-06T12:03:42Z</time>
      </trkpt>
      <trkpt lat="48.13111" lon="7.07566">
        <ele>1172</ele>
        <time>2025-08-06T12:03:44Z</time>
      </trkpt>
      <trkpt lat="48.13109" lon="7.0754">
        <ele>1172.2</ele>
        <time>2025-08-06T12:03:47Z</time>
      </trkpt>
      <trkpt lat="48.13106" lon="7.07523">
        <ele>1172.4</ele>
        <time>2025-08-06T12:03:49Z</time>
      </trkpt>
      <trkpt lat="48.13103" lon="7.07507">
        <ele>1172.8</ele>
        <time>2025-08-06T12:03:51Z</time>
      </trkpt>
      <trkpt lat="48.13097" lon="7.07483">
        <ele>1173.2</ele>
        <time>2025-08-06T12:03:54Z</time>
      </trkpt>
      <trkpt lat="48.1309" lon="7.07458">
        <ele>1173.6</ele>
        <time>2025-08-06T12:03:57Z</time>
      </trkpt>
      <trkpt lat="48.13076" lon="7.07409">
        <ele>1173.6</ele>
        <time>2025-08-06T12:04:03Z</time>
      </trkpt>
      <trkpt lat="48.13073" lon="7.07401">
        <ele>1173.6</ele>
        <time>2025-08-06T12:04:04Z</time>
      </trkpt>
      <trkpt lat="48.13056" lon="7.07345">
        <ele>1173.6</ele>
        <time>2025-08-06T12:04:10Z</time>
      </trkpt>
      <trkpt lat="48.13037" lon="7.07298">
        <ele>1173.4</ele>
        <time>2025-08-06T12:04:15Z</time>
      </trkpt>
      <trkpt lat="48.13033" lon="7.07288">
        <ele>1173.2</ele>
        <time>2025-08-06T12:04:16Z</time>
      </trkpt>
      <trkpt lat="48.13012" lon="7.07236">
        <ele>1172.4</ele>
        <time>2025-08-06T12:04:21Z</time>
      </trkpt>
      <trkpt lat="48.13007" lon="7.07226">
        <ele>1172.4</ele>
        <time>2025-08-06T12:04:22Z</time>
      </trkpt>
      <trkpt lat="48.13001" lon="7.07218">
        <ele>1172</ele>
        <time>2025-08-06T12:04:23Z</time>
      </trkpt>
      <trkpt lat="48.12994" lon="7.07212">
        <ele>1172</ele>
        <time>2025-08-06T12:04:24Z</time>
      </trkpt>
      <trkpt lat="48.12979" lon="7.07202">
        <ele>1171.4</ele>
        <time>2025-08-06T12:04:26Z</time>
      </trkpt>
      <trkpt lat="48.12965" lon="7.07197">
        <ele>1171</ele>
        <time>2025-08-06T12:04:28Z</time>
      </trkpt>
      <trkpt lat="48.12957" lon="7.07195">
        <ele>1171</ele>
        <time>2025-08-06T12:04:29Z</time>
      </trkpt>
      <trkpt lat="48.12935" lon="7.07195">
        <ele>1170.6</ele>
        <time>2025-08-06T12:04:32Z</time>
      </trkpt>
      <trkpt lat="48.12927" lon="7.07198">
        <ele>1170.4</ele>
        <time>2025-08-06T12:04:33Z</time>
      </trkpt>
      <trkpt lat="48.12905" lon="7.0721">
        <ele>1170.2</ele>
        <time>2025-08-06T12:04:36Z</time>
      </trkpt>
      <trkpt lat="48.12874" lon="7.07232">
        <ele>1169.6</ele>
        <time>2025-08-06T12:04:40Z</time>
      </trkpt>
      <trkpt lat="48.1285" lon="7.07249">
        <ele>1169.2</ele>
        <time>2025-08-06T12:04:43Z</time>
      </trkpt>
      <trkpt lat="48.12825" lon="7.07266">
        <ele>1168.4</ele>
        <time>2025-08-06T12:04:46Z</time>
      </trkpt>
      <trkpt lat="48.12801" lon="7.07278">
        <ele>1167.4</ele>
        <time>2025-08-06T12:04:49Z</time>
      </trkpt>
      <trkpt lat="48.12791" lon="7.07283">
        <ele>1166.8</ele>
        <time>2025-08-06T12:04:50Z</time>
      </trkpt>
      <trkpt lat="48.12774" lon="7.07291">
        <ele>1166</ele>
        <time>2025-08-06T12:04:52Z</time>
      </trkpt>
      <trkpt lat="48.12737" lon="7.07303">
        <ele>1164.8</ele>
        <time>2025-08-06T12:04:56Z</time>
      </trkpt>
      <trkpt lat="48.12728" lon="7.07305">
        <ele>1164.6</ele>
        <time>2025-08-06T12:04:57Z</time>
      </trkpt>
      <trkpt lat="48.12691" lon="7.07312">
        <ele>1163.6</ele>
        <time>2025-08-06T12:05:01Z</time>
      </trkpt>
      <trkpt lat="48.12664" lon="7.07314">
        <ele>1163</ele>
        <time>2025-08-06T12:05:04Z</time>
      </trkpt>
      <trkpt lat="48.12626" lon="7.07315">
        <ele>1162.6</ele>
        <time>2025-08-06T12:05:08Z</time>
      </trkpt>
      <trkpt lat="48.12592" lon="7.07315">
        <ele>1162.2</ele>
        <time>2025-08-06T12:05:12Z</time>
      </trkpt>
      <trkpt lat="48.12561" lon="7.07314">
        <ele>1162.2</ele>
        <time>2025-08-06T12:05:16Z</time>
      </trkpt>
      <trkpt lat="48.12523" lon="7.07312">
        <ele>1163.2</ele>
        <time>2025-08-06T12:05:22Z</time>
      </trkpt>
      <trkpt lat="48.12491" lon="7.073">
        <ele>1163.8</ele>
        <time>2025-08-06T12:05:28Z</time>
      </trkpt>
      <trkpt lat="48.12476" lon="7.07295">
        <ele>1164.2</ele>
        <time>2025-08-06T12:05:31Z</time>
      </trkpt>
      <trkpt lat="48.12462" lon="7.07292">
        <ele>1165</ele>
        <time>2025-08-06T12:05:34Z</time>
      </trkpt>
      <trkpt lat="48.12444" lon="7.07284">
        <ele>1165.6</ele>
        <time>2025-08-06T12:05:38Z</time>
      </trkpt>
      <trkpt lat="48.12439" lon="7.07283">
        <ele>1165.8</ele>
        <time>2025-08-06T12:05:39Z</time>
      </trkpt>
      <trkpt lat="48.12432" lon="7.07279">
        <ele>1166</ele>
        <time>2025-08-06T12:05:41Z</time>
      </trkpt>
      <trkpt lat="48.12427" lon="7.07278">
        <ele>1166.4</ele>
        <time>2025-08-06T12:05:42Z</time>
      </trkpt>
      <trkpt lat="48.12408" lon="7.0727">
        <ele>1167</ele>
        <time>2025-08-06T12:05:46Z</time>
      </trkpt>
      <trkpt lat="48.12404" lon="7.07268">
        <ele>1167.2</ele>
        <time>2025-08-06T12:05:47Z</time>
      </trkpt>
      <trkpt lat="48.12396" lon="7.07259">
        <ele>1167.6</ele>
        <time>2025-08-06T12:05:49Z</time>
      </trkpt>
      <trkpt lat="48.12389" lon="7.07249">
        <ele>1168</ele>
        <time>2025-08-06T12:05:51Z</time>
      </trkpt>
      <trkpt lat="48.12385" lon="7.07244">
        <ele>1168.2</ele>
        <time>2025-08-06T12:05:52Z</time>
      </trkpt>
      <trkpt lat="48.12377" lon="7.07225">
        <ele>1168.4</ele>
        <time>2025-08-06T12:05:55Z</time>
      </trkpt>
      <trkpt lat="48.12375" lon="7.07217">
        <ele>1168.4</ele>
        <time>2025-08-06T12:05:56Z</time>
      </trkpt>
      <trkpt lat="48.1237" lon="7.07204">
        <ele>1168.6</ele>
        <time>2025-08-06T12:05:58Z</time>
      </trkpt>
      <trkpt lat="48.12364" lon="7.0718">
        <ele>1168.6</ele>
        <time>2025-08-06T12:06:01Z</time>
      </trkpt>
      <trkpt lat="48.12362" lon="7.07175">
        <ele>1168.8</ele>
        <time>2025-08-06T12:06:02Z</time>
      </trkpt>
      <trkpt lat="48.1236" lon="7.07166">
        <ele>1168.8</ele>
        <time>2025-08-06T12:06:03Z</time>
      </trkpt>
      <trkpt lat="48.12353" lon="7.07131">
        <ele>1168.8</ele>
        <time>2025-08-06T12:06:07Z</time>
      </trkpt>
      <trkpt lat="48.12348" lon="7.07093">
        <ele>1168.8</ele>
        <time>2025-08-06T12:06:11Z</time>
      </trkpt>
      <trkpt lat="48.12348" lon="7.07071">
        <ele>1168.6</ele>
        <time>2025-08-06T12:06:13Z</time>
      </trkpt>
      <trkpt lat="48.12341" lon="7.07001">
        <ele>1168</ele>
        <time>2025-08-06T12:06:19Z</time>
      </trkpt>
      <trkpt lat="48.12336" lon="7.06968">
        <ele>1167.6</ele>
        <time>2025-08-06T12:06:22Z</time>
      </trkpt>
      <trkpt lat="48.12329" lon="7.06925">
        <ele>1167.4</ele>
        <time>2025-08-06T12:06:26Z</time>
      </trkpt>
      <trkpt lat="48.1232" lon="7.06878">
        <ele>1167.6</ele>
        <time>2025-08-06T12:06:31Z</time>
      </trkpt>
      <trkpt lat="48.12313" lon="7.06854">
        <ele>1168.2</ele>
        <time>2025-08-06T12:06:34Z</time>
      </trkpt>
      <trkpt lat="48.12307" lon="7.0684">
        <ele>1168.4</ele>
        <time>2025-08-06T12:06:36Z</time>
      </trkpt>
      <trkpt lat="48.12304" lon="7.06833">
        <ele>1168.6</ele>
        <time>2025-08-06T12:06:37Z</time>
      </trkpt>
      <trkpt lat="48.12292" lon="7.06809">
        <ele>1169.4</ele>
        <time>2025-08-06T12:06:41Z</time>
      </trkpt>
      <trkpt lat="48.12289" lon="7.06803">
        <ele>1169.6</ele>
        <time>2025-08-06T12:06:42Z</time>
      </trkpt>
      <trkpt lat="48.12287" lon="7.06795">
        <ele>1169.8</ele>
        <time>2025-08-06T12:06:43Z</time>
      </trkpt>
      <trkpt lat="48.12285" lon="7.06789">
        <ele>1170</ele>
        <time>2025-08-06T12:06:44Z</time>
      </trkpt>
      <trkpt lat="48.12279" lon="7.0677">
        <ele>1170.6</ele>
        <time>2025-08-06T12:06:47Z</time>
      </trkpt>
      <trkpt lat="48.12277" lon="7.06763">
        <ele>1170.6</ele>
        <time>2025-08-06T12:06:48Z</time>
      </trkpt>
      <trkpt lat="48.12275" lon="7.06757">
        <ele>1170.8</ele>
        <time>2025-08-06T12:06:49Z</time>
      </trkpt>
      <trkpt lat="48.1227" lon="7.06736">
        <ele>1171.2</ele>
        <time>2025-08-06T12:06:52Z</time>
      </trkpt>
      <trkpt lat="48.12251" lon="7.0669">
        <ele>1171.8</ele>
        <time>2025-08-06T12:07:00Z</time>
      </trkpt>
      <trkpt lat="48.12244" lon="7.06647">
        <ele>1173</ele>
        <time>2025-08-06T12:07:06Z</time>
      </trkpt>
      <trkpt lat="48.12243" lon="7.0664">
        <ele>1173.2</ele>
        <time>2025-08-06T12:07:07Z</time>
      </trkpt>
      <trkpt lat="48.12233" lon="7.06609">
        <ele>1173.2</ele>
        <time>2025-08-06T12:07:12Z</time>
      </trkpt>
      <trkpt lat="48.12226" lon="7.06592">
        <ele>1173.6</ele>
        <time>2025-08-06T12:07:15Z</time>
      </trkpt>
      <trkpt lat="48.12219" lon="7.06576">
        <ele>1173.8</ele>
        <time>2025-08-06T12:07:18Z</time>
      </trkpt>
      <trkpt lat="48.12204" lon="7.06543">
        <ele>1174.8</ele>
        <time>2025-08-06T12:07:24Z</time>
      </trkpt>
      <trkpt lat="48.12199" lon="7.06533">
        <ele>1175.2</ele>
        <time>2025-08-06T12:07:26Z</time>
      </trkpt>
      <trkpt lat="48.12185" lon="7.06516">
        <ele>1175.6</ele>
        <time>2025-08-06T12:07:30Z</time>
      </trkpt>
      <trkpt lat="48.12177" lon="7.0651">
        <ele>1176</ele>
        <time>2025-08-06T12:07:32Z</time>
      </trkpt>
      <trkpt lat="48.12174" lon="7.06508">
        <ele>1176.4</ele>
        <time>2025-08-06T12:07:33Z</time>
      </trkpt>
      <trkpt lat="48.12162" lon="7.065">
        <ele>1176.8</ele>
        <time>2025-08-06T12:07:36Z</time>
      </trkpt>
      <trkpt lat="48.12156" lon="7.06497">
        <ele>1177.2</ele>
        <time>2025-08-06T12:07:38Z</time>
      </trkpt>
      <trkpt lat="48.12152" lon="7.06496">
        <ele>1177.2</ele>
        <time>2025-08-06T12:07:39Z</time>
      </trkpt>
      <trkpt lat="48.12135" lon="7.06495">
        <ele>1178</ele>
        <time>2025-08-06T12:07:43Z</time>
      </trkpt>
      <trkpt lat="48.12127" lon="7.06494">
        <ele>1178.2</ele>
        <time>2025-08-06T12:07:45Z</time>
      </trkpt>
      <trkpt lat="48.12101" lon="7.06493">
        <ele>1179.6</ele>
        <time>2025-08-06T12:07:51Z</time>
      </trkpt>
      <trkpt lat="48.12073" lon="7.06489">
        <ele>1180.6</ele>
        <time>2025-08-06T12:07:58Z</time>
      </trkpt>
      <trkpt lat="48.12069" lon="7.06488">
        <ele>1180.6</ele>
        <time>2025-08-06T12:07:59Z</time>
      </trkpt>
      <trkpt lat="48.12048" lon="7.06476">
        <ele>1181.8</ele>
        <time>2025-08-06T12:08:05Z</time>
      </trkpt>
      <trkpt lat="48.12044" lon="7.06475">
        <ele>1182</ele>
        <time>2025-08-06T12:08:06Z</time>
      </trkpt>
      <trkpt lat="48.12022" lon="7.06464">
        <ele>1183</ele>
        <time>2025-08-06T12:08:12Z</time>
      </trkpt>
      <trkpt lat="48.12011" lon="7.06459">
        <ele>1183.2</ele>
        <time>2025-08-06T12:08:15Z</time>
      </trkpt>
      <trkpt lat="48.11984" lon="7.06445">
        <ele>1184</ele>
        <time>2025-08-06T12:08:22Z</time>
      </trkpt>
      <trkpt lat="48.11973" lon="7.0644">
        <ele>1184.4</ele>
        <time>2025-08-06T12:08:25Z</time>
      </trkpt>
      <trkpt lat="48.11959" lon="7.06432">
        <ele>1185.2</ele>
        <time>2025-08-06T12:08:29Z</time>
      </trkpt>
      <trkpt lat="48.11943" lon="7.06418">
        <ele>1186</ele>
        <time>2025-08-06T12:08:34Z</time>
      </trkpt>
      <trkpt lat="48.11936" lon="7.06411">
        <ele>1186.4</ele>
        <time>2025-08-06T12:08:36Z</time>
      </trkpt>
      <trkpt lat="48.1192" lon="7.06394">
        <ele>1187.4</ele>
        <time>2025-08-06T12:08:41Z</time>
      </trkpt>
      <trkpt lat="48.11914" lon="7.06387">
        <ele>1187.6</ele>
        <time>2025-08-06T12:08:43Z</time>
      </trkpt>
      <trkpt lat="48.11891" lon="7.06362">
        <ele>1188.4</ele>
        <time>2025-08-06T12:08:50Z</time>
      </trkpt>
      <trkpt lat="48.11873" lon="7.06339">
        <ele>1189.4</ele>
        <time>2025-08-06T12:08:56Z</time>
      </trkpt>
      <trkpt lat="48.11866" lon="7.06332">
        <ele>1189.8</ele>
        <time>2025-08-06T12:08:58Z</time>
      </trkpt>
      <trkpt lat="48.11861" lon="7.06325">
        <ele>1190.4</ele>
        <time>2025-08-06T12:09:00Z</time>
      </trkpt>
      <trkpt lat="48.11842" lon="7.06304">
        <ele>1191.4</ele>
        <time>2025-08-06T12:09:06Z</time>
      </trkpt>
      <trkpt lat="48.11839" lon="7.063">
        <ele>1191.6</ele>
        <time>2025-08-06T12:09:07Z</time>
      </trkpt>
      <trkpt lat="48.1182" lon="7.06269">
        <ele>1192.6</ele>
        <time>2025-08-06T12:09:14Z</time>
      </trkpt>
      <trkpt lat="48.11809" lon="7.06247">
        <ele>1193.6</ele>
        <time>2025-08-06T12:09:19Z</time>
      </trkpt>
      <trkpt lat="48.11802" lon="7.06233">
        <ele>1194.2</ele>
        <time>2025-08-06T12:09:22Z</time>
      </trkpt>
      <trkpt lat="48.11799" lon="7.06229">
        <ele>1194.4</ele>
        <time>2025-08-06T12:09:23Z</time>
      </trkpt>
      <trkpt lat="48.11794" lon="7.0622">
        <ele>1194.6</ele>
        <time>2025-08-06T12:09:25Z</time>
      </trkpt>
      <trkpt lat="48.11781" lon="7.06194">
        <ele>1195.6</ele>
        <time>2025-08-06T12:09:31Z</time>
      </trkpt>
      <trkpt lat="48.11779" lon="7.06189">
        <ele>1195.8</ele>
        <time>2025-08-06T12:09:32Z</time>
      </trkpt>
      <trkpt lat="48.11761" lon="7.06159">
        <ele>1196.4</ele>
        <time>2025-08-06T12:09:39Z</time>
      </trkpt>
      <trkpt lat="48.11752" lon="7.06147">
        <ele>1197</ele>
        <time>2025-08-06T12:09:42Z</time>
      </trkpt>
      <trkpt lat="48.11737" lon="7.06126">
        <ele>1198</ele>
        <time>2025-08-06T12:09:47Z</time>
      </trkpt>
      <trkpt lat="48.11734" lon="7.06123">
        <ele>1198</ele>
        <time>2025-08-06T12:09:48Z</time>
      </trkpt>
      <trkpt lat="48.11709" lon="7.06092">
        <ele>1199</ele>
        <time>2025-08-06T12:09:56Z</time>
      </trkpt>
      <trkpt lat="48.11699" lon="7.06083">
        <ele>1199.6</ele>
        <time>2025-08-06T12:09:59Z</time>
      </trkpt>
      <trkpt lat="48.11682" lon="7.06068">
        <ele>1200</ele>
        <time>2025-08-06T12:10:04Z</time>
      </trkpt>
      <trkpt lat="48.11678" lon="7.06066">
        <ele>1200.2</ele>
        <time>2025-08-06T12:10:05Z</time>
      </trkpt>
      <trkpt lat="48.11658" lon="7.06048">
        <ele>1201.2</ele>
        <time>2025-08-06T12:10:11Z</time>
      </trkpt>
      <trkpt lat="48.11654" lon="7.06046">
        <ele>1201.4</ele>
        <time>2025-08-06T12:10:12Z</time>
      </trkpt>
      <trkpt lat="48.11634" lon="7.06028">
        <ele>1202.4</ele>
        <time>2025-08-06T12:10:18Z</time>
      </trkpt>
      <trkpt lat="48.11628" lon="7.06022">
        <ele>1202.8</ele>
        <time>2025-08-06T12:10:20Z</time>
      </trkpt>
      <trkpt lat="48.11624" lon="7.06019">
        <ele>1203</ele>
        <time>2025-08-06T12:10:21Z</time>
      </trkpt>
      <trkpt lat="48.11613" lon="7.06012">
        <ele>1203.6</ele>
        <time>2025-08-06T12:10:24Z</time>
      </trkpt>
      <trkpt lat="48.11602" lon="7.06005">
        <ele>1204.4</ele>
        <time>2025-08-06T12:10:27Z</time>
      </trkpt>
      <trkpt lat="48.11599" lon="7.06002">
        <ele>1204.6</ele>
        <time>2025-08-06T12:10:28Z</time>
      </trkpt>
      <trkpt lat="48.11575" lon="7.05986">
        <ele>1205.4</ele>
        <time>2025-08-06T12:10:34Z</time>
      </trkpt>
      <trkpt lat="48.11555" lon="7.05974">
        <ele>1205.8</ele>
        <time>2025-08-06T12:10:39Z</time>
      </trkpt>
      <trkpt lat="48.11551" lon="7.05971">
        <ele>1206</ele>
        <time>2025-08-06T12:10:40Z</time>
      </trkpt>
      <trkpt lat="48.11539" lon="7.05965">
        <ele>1206.2</ele>
        <time>2025-08-06T12:10:43Z</time>
      </trkpt>
      <trkpt lat="48.11525" lon="7.0596">
        <ele>1206.4</ele>
        <time>2025-08-06T12:10:46Z</time>
      </trkpt>
      <trkpt lat="48.11521" lon="7.05958">
        <ele>1206.6</ele>
        <time>2025-08-06T12:10:47Z</time>
      </trkpt>
      <trkpt lat="48.11505" lon="7.05949">
        <ele>1206.8</ele>
        <time>2025-08-06T12:10:51Z</time>
      </trkpt>
      <trkpt lat="48.11488" lon="7.05936">
        <ele>1207.4</ele>
        <time>2025-08-06T12:10:55Z</time>
      </trkpt>
      <trkpt lat="48.11472" lon="7.05923">
        <ele>1208</ele>
        <time>2025-08-06T12:10:59Z</time>
      </trkpt>
      <trkpt lat="48.11465" lon="7.05917">
        <ele>1208.2</ele>
        <time>2025-08-06T12:11:01Z</time>
      </trkpt>
      <trkpt lat="48.11457" lon="7.0591">
        <ele>1208.4</ele>
        <time>2025-08-06T12:11:03Z</time>
      </trkpt>
      <trkpt lat="48.11438" lon="7.05894">
        <ele>1209</ele>
        <time>2025-08-06T12:11:08Z</time>
      </trkpt>
      <trkpt lat="48.11427" lon="7.05886">
        <ele>1209.4</ele>
        <time>2025-08-06T12:11:11Z</time>
      </trkpt>
      <trkpt lat="48.11398" lon="7.05879">
        <ele>1210</ele>
        <time>2025-08-06T12:11:18Z</time>
      </trkpt>
      <trkpt lat="48.11362" lon="7.05874">
        <ele>1211.2</ele>
        <time>2025-08-06T12:11:26Z</time>
      </trkpt>
      <trkpt lat="48.11358" lon="7.05875">
        <ele>1211.6</ele>
        <time>2025-08-06T12:11:27Z</time>
      </trkpt>
      <trkpt lat="48.11337" lon="7.05878">
        <ele>1212.4</ele>
        <time>2025-08-06T12:11:32Z</time>
      </trkpt>
      <trkpt lat="48.1133" lon="7.05881">
        <ele>1212.4</ele>
        <time>2025-08-06T12:11:34Z</time>
      </trkpt>
      <trkpt lat="48.11307" lon="7.05899">
        <ele>1213</ele>
        <time>2025-08-06T12:11:40Z</time>
      </trkpt>
      <trkpt lat="48.11304" lon="7.05904">
        <ele>1213.2</ele>
        <time>2025-08-06T12:11:41Z</time>
      </trkpt>
      <trkpt lat="48.11299" lon="7.05913">
        <ele>1213.4</ele>
        <time>2025-08-06T12:11:43Z</time>
      </trkpt>
      <trkpt lat="48.11296" lon="7.05918">
        <ele>1213.6</ele>
        <time>2025-08-06T12:11:44Z</time>
      </trkpt>
      <trkpt lat="48.11292" lon="7.05932">
        <ele>1213.8</ele>
        <time>2025-08-06T12:11:46Z</time>
      </trkpt>
      <trkpt lat="48.11289" lon="7.05952">
        <ele>1214</ele>
        <time>2025-08-06T12:11:49Z</time>
      </trkpt>
      <trkpt lat="48.11288" lon="7.05974">
        <ele>1214.4</ele>
        <time>2025-08-06T12:11:52Z</time>
      </trkpt>
      <trkpt lat="48.11289" lon="7.0598">
        <ele>1214.6</ele>
        <time>2025-08-06T12:11:53Z</time>
      </trkpt>
      <trkpt lat="48.1129" lon="7.06013">
        <ele>1215</ele>
        <time>2025-08-06T12:11:58Z</time>
      </trkpt>
      <trkpt lat="48.11294" lon="7.06046">
        <ele>1215.6</ele>
        <time>2025-08-06T12:12:03Z</time>
      </trkpt>
      <trkpt lat="48.11295" lon="7.06057">
        <ele>1215.8</ele>
        <time>2025-08-06T12:12:05Z</time>
      </trkpt>
      <trkpt lat="48.11298" lon="7.06104">
        <ele>1216.6</ele>
        <time>2025-08-06T12:12:12Z</time>
      </trkpt>
      <trkpt lat="48.113" lon="7.06123">
        <ele>1216.8</ele>
        <time>2025-08-06T12:12:15Z</time>
      </trkpt>
      <trkpt lat="48.11301" lon="7.06161">
        <ele>1218.2</ele>
        <time>2025-08-06T12:12:22Z</time>
      </trkpt>
      <trkpt lat="48.11301" lon="7.06173">
        <ele>1218.2</ele>
        <time>2025-08-06T12:12:23Z</time>
      </trkpt>
      <trkpt lat="48.11301" lon="7.06202">
        <ele>1219.4</ele>
        <time>2025-08-06T12:12:29Z</time>
      </trkpt>
      <trkpt lat="48.11301" lon="7.06213">
        <ele>1219.6</ele>
        <time>2025-08-06T12:12:30Z</time>
      </trkpt>
      <trkpt lat="48.11301" lon="7.06243">
        <ele>1220.4</ele>
        <time>2025-08-06T12:12:35Z</time>
      </trkpt>
      <trkpt lat="48.11301" lon="7.06277">
        <ele>1221.4</ele>
        <time>2025-08-06T12:12:41Z</time>
      </trkpt>
      <trkpt lat="48.11295" lon="7.06332">
        <ele>1222.4</ele>
        <time>2025-08-06T12:12:51Z</time>
      </trkpt>
      <trkpt lat="48.11295" lon="7.06337">
        <ele>1222.6</ele>
        <time>2025-08-06T12:12:52Z</time>
      </trkpt>
      <trkpt lat="48.11287" lon="7.06369">
        <ele>1223.6</ele>
        <time>2025-08-06T12:12:58Z</time>
      </trkpt>
      <trkpt lat="48.11283" lon="7.06379">
        <ele>1223.8</ele>
        <time>2025-08-06T12:13:00Z</time>
      </trkpt>
      <trkpt lat="48.11257" lon="7.06423">
        <ele>1224.6</ele>
        <time>2025-08-06T12:13:10Z</time>
      </trkpt>
      <trkpt lat="48.11251" lon="7.06432">
        <ele>1224.8</ele>
        <time>2025-08-06T12:13:12Z</time>
      </trkpt>
      <trkpt lat="48.1123" lon="7.06457">
        <ele>1225.2</ele>
        <time>2025-08-06T12:13:19Z</time>
      </trkpt>
      <trkpt lat="48.11213" lon="7.06475">
        <ele>1225.8</ele>
        <time>2025-08-06T12:13:24Z</time>
      </trkpt>
      <trkpt lat="48.11185" lon="7.06507">
        <ele>1226.8</ele>
        <time>2025-08-06T12:13:33Z</time>
      </trkpt>
      <trkpt lat="48.11182" lon="7.0651">
        <ele>1227.2</ele>
        <time>2025-08-06T12:13:35Z</time>
      </trkpt>
      <trkpt lat="48.11159" lon="7.06531">
        <ele>1228</ele>
        <time>2025-08-06T12:13:41Z</time>
      </trkpt>
      <trkpt lat="48.11156" lon="7.06533">
        <ele>1228.2</ele>
        <time>2025-08-06T12:13:42Z</time>
      </trkpt>
      <trkpt lat="48.11137" lon="7.06541">
        <ele>1229.2</ele>
        <time>2025-08-06T12:13:47Z</time>
      </trkpt>
      <trkpt lat="48.11126" lon="7.06543">
        <ele>1230</ele>
        <time>2025-08-06T12:13:50Z</time>
      </trkpt>
      <trkpt lat="48.11114" lon="7.06545">
        <ele>1230.4</ele>
        <time>2025-08-06T12:13:53Z</time>
      </trkpt>
      <trkpt lat="48.11099" lon="7.06547">
        <ele>1231.4</ele>
        <time>2025-08-06T12:13:57Z</time>
      </trkpt>
      <trkpt lat="48.11092" lon="7.06548">
        <ele>1231.8</ele>
        <time>2025-08-06T12:13:59Z</time>
      </trkpt>
      <trkpt lat="48.11061" lon="7.06546">
        <ele>1232.4</ele>
        <time>2025-08-06T12:14:08Z</time>
      </trkpt>
      <trkpt lat="48.11021" lon="7.0653">
        <ele>1233</ele>
        <time>2025-08-06T12:14:17Z</time>
      </trkpt>
      <trkpt lat="48.10987" lon="7.06504">
        <ele>1233.4</ele>
        <time>2025-08-06T12:14:25Z</time>
      </trkpt>
      <trkpt lat="48.10983" lon="7.065">
        <ele>1233.6</ele>
        <time>2025-08-06T12:14:26Z</time>
      </trkpt>
      <trkpt lat="48.1097" lon="7.0649">
        <ele>1233.8</ele>
        <time>2025-08-06T12:14:29Z</time>
      </trkpt>
      <trkpt lat="48.10933" lon="7.06461">
        <ele>1234</ele>
        <time>2025-08-06T12:14:38Z</time>
      </trkpt>
      <trkpt lat="48.10919" lon="7.0645">
        <ele>1234.2</ele>
        <time>2025-08-06T12:14:43Z</time>
      </trkpt>
      <trkpt lat="48.10915" lon="7.06447">
        <ele>1234.4</ele>
        <time>2025-08-06T12:14:46Z</time>
      </trkpt>
      <trkpt lat="48.10913" lon="7.06448">
        <ele>1234.4</ele>
        <time>2025-08-06T12:14:47Z</time>
      </trkpt>
      <trkpt lat="48.10912" lon="7.06457">
        <ele>1234.8</ele>
        <time>2025-08-06T12:14:50Z</time>
      </trkpt>
      <trkpt lat="48.10913" lon="7.06464">
        <ele>1234.6</ele>
        <time>2025-08-06T12:14:52Z</time>
      </trkpt>
      <trkpt lat="48.10914" lon="7.06468">
        <ele>1234.6</ele>
        <time>2025-08-06T12:14:53Z</time>
      </trkpt>
      <trkpt lat="48.10912" lon="7.06475">
        <ele>1235.2</ele>
        <time>2025-08-06T12:14:55Z</time>
      </trkpt>
      <trkpt lat="48.10911" lon="7.0648">
        <ele>1236</ele>
        <time>2025-08-06T12:15:00Z</time>
      </trkpt>
      <trkpt lat="48.10911" lon="7.06479">
        <ele>1236.8</ele>
        <time>2025-08-06T12:15:59Z</time>
      </trkpt>
      <trkpt lat="48.10912" lon="7.06473">
        <ele>1236.8</ele>
        <time>2025-08-06T12:16:01Z</time>
      </trkpt>
      <trkpt lat="48.10915" lon="7.06453">
        <ele>1235.4</ele>
        <time>2025-08-06T12:16:07Z</time>
      </trkpt>
      <trkpt lat="48.10913" lon="7.06446">
        <ele>1235</ele>
        <time>2025-08-06T12:16:09Z</time>
      </trkpt>
      <trkpt lat="48.10911" lon="7.06443">
        <ele>1234.6</ele>
        <time>2025-08-06T12:16:10Z</time>
      </trkpt>
      <trkpt lat="48.10909" lon="7.0644">
        <ele>1234.2</ele>
        <time>2025-08-06T12:16:11Z</time>
      </trkpt>
      <trkpt lat="48.10891" lon="7.06416">
        <ele>1233.8</ele>
        <time>2025-08-06T12:16:17Z</time>
      </trkpt>
      <trkpt lat="48.10868" lon="7.06382">
        <ele>1234.2</ele>
        <time>2025-08-06T12:16:24Z</time>
      </trkpt>
      <trkpt lat="48.10842" lon="7.06333">
        <ele>1234.6</ele>
        <time>2025-08-06T12:16:33Z</time>
      </trkpt>
      <trkpt lat="48.10832" lon="7.06292">
        <ele>1235</ele>
        <time>2025-08-06T12:16:39Z</time>
      </trkpt>
      <trkpt lat="48.10822" lon="7.06223">
        <ele>1235.4</ele>
        <time>2025-08-06T12:16:48Z</time>
      </trkpt>
      <trkpt lat="48.10813" lon="7.06201">
        <ele>1235.6</ele>
        <time>2025-08-06T12:16:51Z</time>
      </trkpt>
      <trkpt lat="48.10802" lon="7.06179">
        <ele>1235.8</ele>
        <time>2025-08-06T12:16:54Z</time>
      </trkpt>
      <trkpt lat="48.10793" lon="7.06165">
        <ele>1235.8</ele>
        <time>2025-08-06T12:16:56Z</time>
      </trkpt>
      <trkpt lat="48.10767" lon="7.06124">
        <ele>1236</ele>
        <time>2025-08-06T12:17:02Z</time>
      </trkpt>
      <trkpt lat="48.1074" lon="7.06086">
        <ele>1236.2</ele>
        <time>2025-08-06T12:17:08Z</time>
      </trkpt>
      <trkpt lat="48.10696" lon="7.06034">
        <ele>1236.2</ele>
        <time>2025-08-06T12:17:17Z</time>
      </trkpt>
      <trkpt lat="48.10691" lon="7.06028">
        <ele>1236.2</ele>
        <time>2025-08-06T12:17:18Z</time>
      </trkpt>
      <trkpt lat="48.10686" lon="7.06024">
        <ele>1236.2</ele>
        <time>2025-08-06T12:17:19Z</time>
      </trkpt>
      <trkpt lat="48.10663" lon="7.06009">
        <ele>1236.2</ele>
        <time>2025-08-06T12:17:23Z</time>
      </trkpt>
      <trkpt lat="48.10627" lon="7.05995">
        <ele>1236.2</ele>
        <time>2025-08-06T12:17:29Z</time>
      </trkpt>
      <trkpt lat="48.10621" lon="7.05994">
        <ele>1236.2</ele>
        <time>2025-08-06T12:17:30Z</time>
      </trkpt>
      <trkpt lat="48.10592" lon="7.05991">
        <ele>1236.2</ele>
        <time>2025-08-06T12:17:35Z</time>
      </trkpt>
      <trkpt lat="48.10581" lon="7.0599">
        <ele>1236.6</ele>
        <time>2025-08-06T12:17:37Z</time>
      </trkpt>
      <trkpt lat="48.10527" lon="7.05998">
        <ele>1236.4</ele>
        <time>2025-08-06T12:17:46Z</time>
      </trkpt>
      <trkpt lat="48.10509" lon="7.06004">
        <ele>1236.4</ele>
        <time>2025-08-06T12:17:49Z</time>
      </trkpt>
      <trkpt lat="48.10489" lon="7.06009">
        <ele>1236.4</ele>
        <time>2025-08-06T12:17:52Z</time>
      </trkpt>
      <trkpt lat="48.10482" lon="7.06011">
        <ele>1236.2</ele>
        <time>2025-08-06T12:17:53Z</time>
      </trkpt>
      <trkpt lat="48.10467" lon="7.06013">
        <ele>1236.2</ele>
        <time>2025-08-06T12:17:55Z</time>
      </trkpt>
      <trkpt lat="48.1046" lon="7.06013">
        <ele>1236</ele>
        <time>2025-08-06T12:17:56Z</time>
      </trkpt>
      <trkpt lat="48.10421" lon="7.06004">
        <ele>1235.4</ele>
        <time>2025-08-06T12:18:01Z</time>
      </trkpt>
      <trkpt lat="48.10406" lon="7.05998">
        <ele>1234.6</ele>
        <time>2025-08-06T12:18:03Z</time>
      </trkpt>
      <trkpt lat="48.10375" lon="7.05985">
        <ele>1233.2</ele>
        <time>2025-08-06T12:18:07Z</time>
      </trkpt>
      <trkpt lat="48.10367" lon="7.05981">
        <ele>1233</ele>
        <time>2025-08-06T12:18:08Z</time>
      </trkpt>
      <trkpt lat="48.10336" lon="7.05959">
        <ele>1232.2</ele>
        <time>2025-08-06T12:18:12Z</time>
      </trkpt>
      <trkpt lat="48.10328" lon="7.05952">
        <ele>1232.2</ele>
        <time>2025-08-06T12:18:13Z</time>
      </trkpt>
      <trkpt lat="48.10313" lon="7.05936">
        <ele>1231.2</ele>
        <time>2025-08-06T12:18:15Z</time>
      </trkpt>
      <trkpt lat="48.10291" lon="7.05907">
        <ele>1230.4</ele>
        <time>2025-08-06T12:18:18Z</time>
      </trkpt>
      <trkpt lat="48.10285" lon="7.05897">
        <ele>1229.8</ele>
        <time>2025-08-06T12:18:19Z</time>
      </trkpt>
      <trkpt lat="48.10267" lon="7.05864">
        <ele>1228.6</ele>
        <time>2025-08-06T12:18:22Z</time>
      </trkpt>
      <trkpt lat="48.10262" lon="7.05852">
        <ele>1228.6</ele>
        <time>2025-08-06T12:18:23Z</time>
      </trkpt>
      <trkpt lat="48.10241" lon="7.058">
        <ele>1227.2</ele>
        <time>2025-08-06T12:18:27Z</time>
      </trkpt>
      <trkpt lat="48.10231" lon="7.05774">
        <ele>1226.4</ele>
        <time>2025-08-06T12:18:29Z</time>
      </trkpt>
      <trkpt lat="48.10226" lon="7.0576">
        <ele>1226</ele>
        <time>2025-08-06T12:18:30Z</time>
      </trkpt>
      <trkpt lat="48.10213" lon="7.05716">
        <ele>1224.6</ele>
        <time>2025-08-06T12:18:33Z</time>
      </trkpt>
      <trkpt lat="48.10206" lon="7.05686">
        <ele>1224</ele>
        <time>2025-08-06T12:18:35Z</time>
      </trkpt>
      <trkpt lat="48.10202" lon="7.0567">
        <ele>1223.4</ele>
        <time>2025-08-06T12:18:36Z</time>
      </trkpt>
      <trkpt lat="48.10187" lon="7.0561">
        <ele>1222.4</ele>
        <time>2025-08-06T12:18:40Z</time>
      </trkpt>
      <trkpt lat="48.10177" lon="7.05583">
        <ele>1221.6</ele>
        <time>2025-08-06T12:18:42Z</time>
      </trkpt>
      <trkpt lat="48.10172" lon="7.05569">
        <ele>1221.2</ele>
        <time>2025-08-06T12:18:43Z</time>
      </trkpt>
      <trkpt lat="48.10156" lon="7.0553">
        <ele>1220</ele>
        <time>2025-08-06T12:18:46Z</time>
      </trkpt>
      <trkpt lat="48.10144" lon="7.05505">
        <ele>1219.2</ele>
        <time>2025-08-06T12:18:48Z</time>
      </trkpt>
      <trkpt lat="48.10131" lon="7.05482">
        <ele>1218.6</ele>
        <time>2025-08-06T12:18:50Z</time>
      </trkpt>
      <trkpt lat="48.10117" lon="7.05462">
        <ele>1217.8</ele>
        <time>2025-08-06T12:18:52Z</time>
      </trkpt>
      <trkpt lat="48.10109" lon="7.05454">
        <ele>1217.4</ele>
        <time>2025-08-06T12:18:53Z</time>
      </trkpt>
      <trkpt lat="48.101" lon="7.05448">
        <ele>1217.4</ele>
        <time>2025-08-06T12:18:54Z</time>
      </trkpt>
      <trkpt lat="48.10091" lon="7.05443">
        <ele>1216.8</ele>
        <time>2025-08-06T12:18:55Z</time>
      </trkpt>
      <trkpt lat="48.10072" lon="7.05437">
        <ele>1216.2</ele>
        <time>2025-08-06T12:18:57Z</time>
      </trkpt>
      <trkpt lat="48.10044" lon="7.05429">
        <ele>1215</ele>
        <time>2025-08-06T12:19:00Z</time>
      </trkpt>
      <trkpt lat="48.10007" lon="7.05426">
        <ele>1213.8</ele>
        <time>2025-08-06T12:19:04Z</time>
      </trkpt>
      <trkpt lat="48.09978" lon="7.05426">
        <ele>1212.8</ele>
        <time>2025-08-06T12:19:07Z</time>
      </trkpt>
      <trkpt lat="48.09969" lon="7.05426">
        <ele>1212.6</ele>
        <time>2025-08-06T12:19:08Z</time>
      </trkpt>
      <trkpt lat="48.09932" lon="7.05419">
        <ele>1211.2</ele>
        <time>2025-08-06T12:19:12Z</time>
      </trkpt>
      <trkpt lat="48.09922" lon="7.05415">
        <ele>1211</ele>
        <time>2025-08-06T12:19:13Z</time>
      </trkpt>
      <trkpt lat="48.09894" lon="7.05406">
        <ele>1210</ele>
        <time>2025-08-06T12:19:16Z</time>
      </trkpt>
      <trkpt lat="48.09866" lon="7.05403">
        <ele>1208.8</ele>
        <time>2025-08-06T12:19:19Z</time>
      </trkpt>
      <trkpt lat="48.09856" lon="7.05404">
        <ele>1208.6</ele>
        <time>2025-08-06T12:19:20Z</time>
      </trkpt>
      <trkpt lat="48.09836" lon="7.05409">
        <ele>1207.8</ele>
        <time>2025-08-06T12:19:22Z</time>
      </trkpt>
      <trkpt lat="48.09816" lon="7.05414">
        <ele>1207</ele>
        <time>2025-08-06T12:19:24Z</time>
      </trkpt>
      <trkpt lat="48.09807" lon="7.05415">
        <ele>1206.8</ele>
        <time>2025-08-06T12:19:25Z</time>
      </trkpt>
      <trkpt lat="48.09794" lon="7.05415">
        <ele>1206.2</ele>
        <time>2025-08-06T12:19:26Z</time>
      </trkpt>
      <trkpt lat="48.09784" lon="7.05413">
        <ele>1206</ele>
        <time>2025-08-06T12:19:27Z</time>
      </trkpt>
      <trkpt lat="48.09774" lon="7.05412">
        <ele>1205.6</ele>
        <time>2025-08-06T12:19:28Z</time>
      </trkpt>
      <trkpt lat="48.09744" lon="7.05409">
        <ele>1204.2</ele>
        <time>2025-08-06T12:19:31Z</time>
      </trkpt>
      <trkpt lat="48.09734" lon="7.0541">
        <ele>1204</ele>
        <time>2025-08-06T12:19:32Z</time>
      </trkpt>
      <trkpt lat="48.09717" lon="7.05415">
        <ele>1203.2</ele>
        <time>2025-08-06T12:19:34Z</time>
      </trkpt>
      <trkpt lat="48.09707" lon="7.0542">
        <ele>1202.8</ele>
        <time>2025-08-06T12:19:35Z</time>
      </trkpt>
      <trkpt lat="48.09699" lon="7.05424">
        <ele>1202.4</ele>
        <time>2025-08-06T12:19:36Z</time>
      </trkpt>
      <trkpt lat="48.09667" lon="7.05447">
        <ele>1201.8</ele>
        <time>2025-08-06T12:19:41Z</time>
      </trkpt>
      <trkpt lat="48.09649" lon="7.05462">
        <ele>1202.4</ele>
        <time>2025-08-06T12:19:45Z</time>
      </trkpt>
      <trkpt lat="48.09645" lon="7.05466">
        <ele>1202.6</ele>
        <time>2025-08-06T12:19:46Z</time>
      </trkpt>
      <trkpt lat="48.09627" lon="7.05485">
        <ele>1204.2</ele>
        <time>2025-08-06T12:19:52Z</time>
      </trkpt>
      <trkpt lat="48.09613" lon="7.05504">
        <ele>1205.2</ele>
        <time>2025-08-06T12:19:58Z</time>
      </trkpt>
      <trkpt lat="48.09611" lon="7.05507">
        <ele>1205.6</ele>
        <time>2025-08-06T12:19:59Z</time>
      </trkpt>
      <trkpt lat="48.09602" lon="7.05521">
        <ele>1206.6</ele>
        <time>2025-08-06T12:20:04Z</time>
      </trkpt>
      <trkpt lat="48.09599" lon="7.05526">
        <ele>1207.2</ele>
        <time>2025-08-06T12:20:06Z</time>
      </trkpt>
      <trkpt lat="48.09596" lon="7.05531">
        <ele>1207.6</ele>
        <time>2025-08-06T12:20:08Z</time>
      </trkpt>
      <trkpt lat="48.09589" lon="7.05541">
        <ele>1209</ele>
        <time>2025-08-06T12:20:12Z</time>
      </trkpt>
      <trkpt lat="48.09587" lon="7.05544">
        <ele>1209.2</ele>
        <time>2025-08-06T12:20:13Z</time>
      </trkpt>
      <trkpt lat="48.09581" lon="7.05556">
        <ele>1210.2</ele>
        <time>2025-08-06T12:20:17Z</time>
      </trkpt>
      <trkpt lat="48.09574" lon="7.05573">
        <ele>1211</ele>
        <time>2025-08-06T12:20:22Z</time>
      </trkpt>
      <trkpt lat="48.09573" lon="7.05577">
        <ele>1211.2</ele>
        <time>2025-08-06T12:20:23Z</time>
      </trkpt>
      <trkpt lat="48.09566" lon="7.05597">
        <ele>1212.2</ele>
        <time>2025-08-06T12:20:29Z</time>
      </trkpt>
      <trkpt lat="48.09564" lon="7.05603">
        <ele>1212.8</ele>
        <time>2025-08-06T12:20:31Z</time>
      </trkpt>
      <trkpt lat="48.09561" lon="7.05609">
        <ele>1213.2</ele>
        <time>2025-08-06T12:20:33Z</time>
      </trkpt>
      <trkpt lat="48.09553" lon="7.05632">
        <ele>1214.6</ele>
        <time>2025-08-06T12:20:40Z</time>
      </trkpt>
      <trkpt lat="48.0955" lon="7.05638">
        <ele>1215.2</ele>
        <time>2025-08-06T12:20:42Z</time>
      </trkpt>
      <trkpt lat="48.09548" lon="7.05644">
        <ele>1215.8</ele>
        <time>2025-08-06T12:20:44Z</time>
      </trkpt>
      <trkpt lat="48.09541" lon="7.0566">
        <ele>1217</ele>
        <time>2025-08-06T12:20:49Z</time>
      </trkpt>
      <trkpt lat="48.09539" lon="7.05666">
        <ele>1217.4</ele>
        <time>2025-08-06T12:20:51Z</time>
      </trkpt>
      <trkpt lat="48.09535" lon="7.05676">
        <ele>1218.2</ele>
        <time>2025-08-06T12:20:54Z</time>
      </trkpt>
      <trkpt lat="48.09529" lon="7.05692">
        <ele>1219.6</ele>
        <time>2025-08-06T12:20:59Z</time>
      </trkpt>
      <trkpt lat="48.09528" lon="7.05695">
        <ele>1219.8</ele>
        <time>2025-08-06T12:21:00Z</time>
      </trkpt>
      <trkpt lat="48.09525" lon="7.05705">
        <ele>1220.6</ele>
        <time>2025-08-06T12:21:03Z</time>
      </trkpt>
      <trkpt lat="48.09521" lon="7.05718">
        <ele>1221.6</ele>
        <time>2025-08-06T12:21:07Z</time>
      </trkpt>
      <trkpt lat="48.09519" lon="7.05724">
        <ele>1222</ele>
        <time>2025-08-06T12:21:09Z</time>
      </trkpt>
      <trkpt lat="48.09514" lon="7.05736">
        <ele>1222.8</ele>
        <time>2025-08-06T12:21:13Z</time>
      </trkpt>
      <trkpt lat="48.0951" lon="7.0575">
        <ele>1224</ele>
        <time>2025-08-06T12:21:18Z</time>
      </trkpt>
      <trkpt lat="48.09504" lon="7.05766">
        <ele>1225.2</ele>
        <time>2025-08-06T12:21:23Z</time>
      </trkpt>
      <trkpt lat="48.09499" lon="7.05779">
        <ele>1226.4</ele>
        <time>2025-08-06T12:21:27Z</time>
      </trkpt>
      <trkpt lat="48.09498" lon="7.05783">
        <ele>1226.6</ele>
        <time>2025-08-06T12:21:28Z</time>
      </trkpt>
      <trkpt lat="48.09493" lon="7.05799">
        <ele>1227.6</ele>
        <time>2025-08-06T12:21:32Z</time>
      </trkpt>
      <trkpt lat="48.09489" lon="7.05815">
        <ele>1228.2</ele>
        <time>2025-08-06T12:21:36Z</time>
      </trkpt>
      <trkpt lat="48.09488" lon="7.05822">
        <ele>1228.8</ele>
        <time>2025-08-06T12:21:38Z</time>
      </trkpt>
      <trkpt lat="48.09481" lon="7.05845">
        <ele>1230</ele>
        <time>2025-08-06T12:21:44Z</time>
      </trkpt>
      <trkpt lat="48.09479" lon="7.05851">
        <ele>1230.4</ele>
        <time>2025-08-06T12:21:46Z</time>
      </trkpt>
      <trkpt lat="48.09476" lon="7.05861">
        <ele>1231.2</ele>
        <time>2025-08-06T12:21:49Z</time>
      </trkpt>
      <trkpt lat="48.0947" lon="7.05881">
        <ele>1232</ele>
        <time>2025-08-06T12:21:54Z</time>
      </trkpt>
      <trkpt lat="48.09468" lon="7.05887">
        <ele>1232.2</ele>
        <time>2025-08-06T12:21:56Z</time>
      </trkpt>
      <trkpt lat="48.0946" lon="7.05917">
        <ele>1233</ele>
        <time>2025-08-06T12:22:04Z</time>
      </trkpt>
      <trkpt lat="48.09455" lon="7.05932">
        <ele>1233.4</ele>
        <time>2025-08-06T12:22:08Z</time>
      </trkpt>
      <trkpt lat="48.09444" lon="7.05963">
        <ele>1234.2</ele>
        <time>2025-08-06T12:22:16Z</time>
      </trkpt>
      <trkpt lat="48.09441" lon="7.05971">
        <ele>1234.4</ele>
        <time>2025-08-06T12:22:18Z</time>
      </trkpt>
      <trkpt lat="48.09432" lon="7.05997">
        <ele>1235.6</ele>
        <time>2025-08-06T12:22:25Z</time>
      </trkpt>
      <trkpt lat="48.09415" lon="7.06022">
        <ele>1236.8</ele>
        <time>2025-08-06T12:22:33Z</time>
      </trkpt>
      <trkpt lat="48.09399" lon="7.06036">
        <ele>1237.8</ele>
        <time>2025-08-06T12:22:40Z</time>
      </trkpt>
      <trkpt lat="48.09385" lon="7.06043">
        <ele>1238</ele>
        <time>2025-08-06T12:22:45Z</time>
      </trkpt>
      <trkpt lat="48.09353" lon="7.06054">
        <ele>1238.6</ele>
        <time>2025-08-06T12:22:55Z</time>
      </trkpt>
      <trkpt lat="48.09328" lon="7.06061">
        <ele>1237.8</ele>
        <time>2025-08-06T12:23:01Z</time>
      </trkpt>
      <trkpt lat="48.09305" lon="7.06061">
        <ele>1237.4</ele>
        <time>2025-08-06T12:23:07Z</time>
      </trkpt>
      <trkpt lat="48.09286" lon="7.06052">
        <ele>1237.4</ele>
        <time>2025-08-06T12:23:12Z</time>
      </trkpt>
      <trkpt lat="48.09267" lon="7.06027">
        <ele>1237.6</ele>
        <time>2025-08-06T12:23:19Z</time>
      </trkpt>
      <trkpt lat="48.09256" lon="7.06006">
        <ele>1238.4</ele>
        <time>2025-08-06T12:23:25Z</time>
      </trkpt>
      <trkpt lat="48.0925" lon="7.05997">
        <ele>1238.8</ele>
        <time>2025-08-06T12:23:29Z</time>
      </trkpt>
      <trkpt lat="48.09249" lon="7.05994">
        <ele>1239</ele>
        <time>2025-08-06T12:23:30Z</time>
      </trkpt>
      <trkpt lat="48.09246" lon="7.05978">
        <ele>1238.8</ele>
        <time>2025-08-06T12:23:35Z</time>
      </trkpt>
      <trkpt lat="48.09246" lon="7.05976">
        <ele>1238.8</ele>
        <time>2025-08-06T12:23:36Z</time>
      </trkpt>
      <trkpt lat="48.09243" lon="7.05969">
        <ele>1238.6</ele>
        <time>2025-08-06T12:23:39Z</time>
      </trkpt>
      <trkpt lat="48.0924" lon="7.05966">
        <ele>1238.2</ele>
        <time>2025-08-06T12:23:43Z</time>
      </trkpt>
      <trkpt lat="48.09238" lon="7.05961">
        <ele>1238.6</ele>
        <time>2025-08-06T12:26:16Z</time>
      </trkpt>
      <trkpt lat="48.09235" lon="7.05954">
        <ele>1238.6</ele>
        <time>2025-08-06T12:26:18Z</time>
      </trkpt>
      <trkpt lat="48.09227" lon="7.05936">
        <ele>1238.6</ele>
        <time>2025-08-06T12:26:22Z</time>
      </trkpt>
      <trkpt lat="48.09225" lon="7.0593">
        <ele>1238.6</ele>
        <time>2025-08-06T12:26:23Z</time>
      </trkpt>
      <trkpt lat="48.09223" lon="7.05924">
        <ele>1238.6</ele>
        <time>2025-08-06T12:26:24Z</time>
      </trkpt>
      <trkpt lat="48.09214" lon="7.05905">
        <ele>1238.2</ele>
        <time>2025-08-06T12:26:27Z</time>
      </trkpt>
      <trkpt lat="48.09211" lon="7.05898">
        <ele>1238</ele>
        <time>2025-08-06T12:26:28Z</time>
      </trkpt>
      <trkpt lat="48.09195" lon="7.0585">
        <ele>1237.2</ele>
        <time>2025-08-06T12:26:33Z</time>
      </trkpt>
      <trkpt lat="48.0919" lon="7.05839">
        <ele>1236.8</ele>
        <time>2025-08-06T12:26:34Z</time>
      </trkpt>
      <trkpt lat="48.09181" lon="7.05815">
        <ele>1236.4</ele>
        <time>2025-08-06T12:26:36Z</time>
      </trkpt>
      <trkpt lat="48.09181" lon="7.05802">
        <ele>1235.6</ele>
        <time>2025-08-06T12:26:37Z</time>
      </trkpt>
      <trkpt lat="48.09178" lon="7.05776">
        <ele>1235</ele>
        <time>2025-08-06T12:26:39Z</time>
      </trkpt>
      <trkpt lat="48.09175" lon="7.05762">
        <ele>1234.8</ele>
        <time>2025-08-06T12:26:40Z</time>
      </trkpt>
      <trkpt lat="48.09174" lon="7.05748">
        <ele>1234.2</ele>
        <time>2025-08-06T12:26:41Z</time>
      </trkpt>
      <trkpt lat="48.09168" lon="7.05722">
        <ele>1233.6</ele>
        <time>2025-08-06T12:26:43Z</time>
      </trkpt>
      <trkpt lat="48.0916" lon="7.05699">
        <ele>1233</ele>
        <time>2025-08-06T12:26:45Z</time>
      </trkpt>
      <trkpt lat="48.09151" lon="7.05681">
        <ele>1232.2</ele>
        <time>2025-08-06T12:26:47Z</time>
      </trkpt>
      <trkpt lat="48.09146" lon="7.05672">
        <ele>1232.2</ele>
        <time>2025-08-06T12:26:48Z</time>
      </trkpt>
      <trkpt lat="48.0914" lon="7.05663">
        <ele>1232</ele>
        <time>2025-08-06T12:26:49Z</time>
      </trkpt>
      <trkpt lat="48.0913" lon="7.05647">
        <ele>1232</ele>
        <time>2025-08-06T12:26:51Z</time>
      </trkpt>
      <trkpt lat="48.09097" lon="7.05607">
        <ele>1232</ele>
        <time>2025-08-06T12:26:57Z</time>
      </trkpt>
      <trkpt lat="48.09093" lon="7.056">
        <ele>1232.2</ele>
        <time>2025-08-06T12:26:58Z</time>
      </trkpt>
      <trkpt lat="48.09085" lon="7.05583">
        <ele>1232.6</ele>
        <time>2025-08-06T12:27:00Z</time>
      </trkpt>
      <trkpt lat="48.09082" lon="7.05574">
        <ele>1232.6</ele>
        <time>2025-08-06T12:27:01Z</time>
      </trkpt>
      <trkpt lat="48.0908" lon="7.05565">
        <ele>1232.8</ele>
        <time>2025-08-06T12:27:02Z</time>
      </trkpt>
      <trkpt lat="48.09079" lon="7.05547">
        <ele>1233</ele>
        <time>2025-08-06T12:27:04Z</time>
      </trkpt>
      <trkpt lat="48.09079" lon="7.05537">
        <ele>1233.2</ele>
        <time>2025-08-06T12:27:05Z</time>
      </trkpt>
      <trkpt lat="48.09081" lon="7.05493">
        <ele>1233.4</ele>
        <time>2025-08-06T12:27:09Z</time>
      </trkpt>
      <trkpt lat="48.09082" lon="7.05481">
        <ele>1233.4</ele>
        <time>2025-08-06T12:27:10Z</time>
      </trkpt>
      <trkpt lat="48.09089" lon="7.05428">
        <ele>1232.8</ele>
        <time>2025-08-06T12:27:14Z</time>
      </trkpt>
      <trkpt lat="48.09095" lon="7.05388">
        <ele>1231.6</ele>
        <time>2025-08-06T12:27:17Z</time>
      </trkpt>
      <trkpt lat="48.09099" lon="7.0535">
        <ele>1230.4</ele>
        <time>2025-08-06T12:27:20Z</time>
      </trkpt>
      <trkpt lat="48.091" lon="7.05339">
        <ele>1230.2</ele>
        <time>2025-08-06T12:27:21Z</time>
      </trkpt>
      <trkpt lat="48.091" lon="7.05293">
        <ele>1229.6</ele>
        <time>2025-08-06T12:27:25Z</time>
      </trkpt>
      <trkpt lat="48.09099" lon="7.05282">
        <ele>1229.6</ele>
        <time>2025-08-06T12:27:26Z</time>
      </trkpt>
      <trkpt lat="48.09096" lon="7.05271">
        <ele>1229.6</ele>
        <time>2025-08-06T12:27:27Z</time>
      </trkpt>
      <trkpt lat="48.09091" lon="7.05238">
        <ele>1229.6</ele>
        <time>2025-08-06T12:27:30Z</time>
      </trkpt>
      <trkpt lat="48.09084" lon="7.05222">
        <ele>1229.6</ele>
        <time>2025-08-06T12:27:32Z</time>
      </trkpt>
      <trkpt lat="48.09075" lon="7.05208">
        <ele>1229.8</ele>
        <time>2025-08-06T12:27:34Z</time>
      </trkpt>
      <trkpt lat="48.09054" lon="7.05179">
        <ele>1230.4</ele>
        <time>2025-08-06T12:27:39Z</time>
      </trkpt>
      <trkpt lat="48.09045" lon="7.05167">
        <ele>1231</ele>
        <time>2025-08-06T12:27:41Z</time>
      </trkpt>
      <trkpt lat="48.09039" lon="7.05154">
        <ele>1231.4</ele>
        <time>2025-08-06T12:27:43Z</time>
      </trkpt>
      <trkpt lat="48.09036" lon="7.05148">
        <ele>1231.4</ele>
        <time>2025-08-06T12:27:44Z</time>
      </trkpt>
      <trkpt lat="48.09033" lon="7.0514">
        <ele>1231.6</ele>
        <time>2025-08-06T12:27:45Z</time>
      </trkpt>
      <trkpt lat="48.09031" lon="7.05133">
        <ele>1231.8</ele>
        <time>2025-08-06T12:27:46Z</time>
      </trkpt>
      <trkpt lat="48.0903" lon="7.05124">
        <ele>1231.8</ele>
        <time>2025-08-06T12:27:47Z</time>
      </trkpt>
      <trkpt lat="48.09029" lon="7.05116">
        <ele>1232</ele>
        <time>2025-08-06T12:27:48Z</time>
      </trkpt>
      <trkpt lat="48.09031" lon="7.05099">
        <ele>1232.4</ele>
        <time>2025-08-06T12:27:50Z</time>
      </trkpt>
      <trkpt lat="48.09032" lon="7.0509">
        <ele>1232.6</ele>
        <time>2025-08-06T12:27:51Z</time>
      </trkpt>
      <trkpt lat="48.09034" lon="7.05082">
        <ele>1232.8</ele>
        <time>2025-08-06T12:27:52Z</time>
      </trkpt>
      <trkpt lat="48.09043" lon="7.05024">
        <ele>1233.6</ele>
        <time>2025-08-06T12:27:59Z</time>
      </trkpt>
      <trkpt lat="48.09045" lon="7.05017">
        <ele>1233.8</ele>
        <time>2025-08-06T12:28:00Z</time>
      </trkpt>
      <trkpt lat="48.09047" lon="7.05002">
        <ele>1234</ele>
        <time>2025-08-06T12:28:02Z</time>
      </trkpt>
      <trkpt lat="48.0905" lon="7.04978">
        <ele>1234.2</ele>
        <time>2025-08-06T12:28:05Z</time>
      </trkpt>
      <trkpt lat="48.09057" lon="7.04922">
        <ele>1234.8</ele>
        <time>2025-08-06T12:28:12Z</time>
      </trkpt>
      <trkpt lat="48.0906" lon="7.04865">
        <ele>1235.6</ele>
        <time>2025-08-06T12:28:19Z</time>
      </trkpt>
      <trkpt lat="48.09059" lon="7.0484">
        <ele>1235.8</ele>
        <time>2025-08-06T12:28:22Z</time>
      </trkpt>
      <trkpt lat="48.09058" lon="7.04823">
        <ele>1236</ele>
        <time>2025-08-06T12:28:24Z</time>
      </trkpt>
      <trkpt lat="48.09057" lon="7.04816">
        <ele>1236</ele>
        <time>2025-08-06T12:28:25Z</time>
      </trkpt>
      <trkpt lat="48.09054" lon="7.048">
        <ele>1236.2</ele>
        <time>2025-08-06T12:28:27Z</time>
      </trkpt>
      <trkpt lat="48.09047" lon="7.04781">
        <ele>1236.4</ele>
        <time>2025-08-06T12:28:30Z</time>
      </trkpt>
      <trkpt lat="48.09045" lon="7.04775">
        <ele>1236.6</ele>
        <time>2025-08-06T12:28:31Z</time>
      </trkpt>
      <trkpt lat="48.09042" lon="7.0477">
        <ele>1237</ele>
        <time>2025-08-06T12:28:32Z</time>
      </trkpt>
      <trkpt lat="48.09035" lon="7.04756">
        <ele>1237.4</ele>
        <time>2025-08-06T12:28:35Z</time>
      </trkpt>
      <trkpt lat="48.0903" lon="7.04748">
        <ele>1237.8</ele>
        <time>2025-08-06T12:28:37Z</time>
      </trkpt>
      <trkpt lat="48.09027" lon="7.04744">
        <ele>1238</ele>
        <time>2025-08-06T12:28:38Z</time>
      </trkpt>
      <trkpt lat="48.09021" lon="7.04738">
        <ele>1238.6</ele>
        <time>2025-08-06T12:28:40Z</time>
      </trkpt>
      <trkpt lat="48.09015" lon="7.04731">
        <ele>1239</ele>
        <time>2025-08-06T12:28:42Z</time>
      </trkpt>
      <trkpt lat="48.09001" lon="7.04717">
        <ele>1240.4</ele>
        <time>2025-08-06T12:28:46Z</time>
      </trkpt>
      <trkpt lat="48.08993" lon="7.04708">
        <ele>1241</ele>
        <time>2025-08-06T12:28:49Z</time>
      </trkpt>
      <trkpt lat="48.08986" lon="7.04703">
        <ele>1241.6</ele>
        <time>2025-08-06T12:28:51Z</time>
      </trkpt>
      <trkpt lat="48.08972" lon="7.04692">
        <ele>1242.2</ele>
        <time>2025-08-06T12:28:55Z</time>
      </trkpt>
      <trkpt lat="48.08966" lon="7.04686">
        <ele>1242.6</ele>
        <time>2025-08-06T12:28:57Z</time>
      </trkpt>
      <trkpt lat="48.08949" lon="7.04669">
        <ele>1243.8</ele>
        <time>2025-08-06T12:29:02Z</time>
      </trkpt>
      <trkpt lat="48.08925" lon="7.04651">
        <ele>1244.8</ele>
        <time>2025-08-06T12:29:08Z</time>
      </trkpt>
      <trkpt lat="48.0892" lon="7.04648">
        <ele>1244.8</ele>
        <time>2025-08-06T12:29:09Z</time>
      </trkpt>
      <trkpt lat="48.08896" lon="7.0464">
        <ele>1245.4</ele>
        <time>2025-08-06T12:29:14Z</time>
      </trkpt>
      <trkpt lat="48.0889" lon="7.0464">
        <ele>1245.4</ele>
        <time>2025-08-06T12:29:15Z</time>
      </trkpt>
      <trkpt lat="48.08874" lon="7.04643">
        <ele>1245.4</ele>
        <time>2025-08-06T12:29:18Z</time>
      </trkpt>
      <trkpt lat="48.08862" lon="7.04648">
        <ele>1245.4</ele>
        <time>2025-08-06T12:29:20Z</time>
      </trkpt>
      <trkpt lat="48.08838" lon="7.04666">
        <ele>1244.4</ele>
        <time>2025-08-06T12:29:25Z</time>
      </trkpt>
      <trkpt lat="48.08819" lon="7.04684">
        <ele>1243.4</ele>
        <time>2025-08-06T12:29:27Z</time>
      </trkpt>
      <trkpt lat="48.08797" lon="7.04702">
        <ele>1242.6</ele>
        <time>2025-08-06T12:29:30Z</time>
      </trkpt>
      <trkpt lat="48.08789" lon="7.04708">
        <ele>1242</ele>
        <time>2025-08-06T12:29:31Z</time>
      </trkpt>
      <trkpt lat="48.08771" lon="7.04721">
        <ele>1241.4</ele>
        <time>2025-08-06T12:29:33Z</time>
      </trkpt>
      <trkpt lat="48.08764" lon="7.04725">
        <ele>1240.6</ele>
        <time>2025-08-06T12:29:34Z</time>
      </trkpt>
      <trkpt lat="48.08755" lon="7.04729">
        <ele>1240.4</ele>
        <time>2025-08-06T12:29:35Z</time>
      </trkpt>
      <trkpt lat="48.08745" lon="7.04733">
        <ele>1239.8</ele>
        <time>2025-08-06T12:29:36Z</time>
      </trkpt>
      <trkpt lat="48.08715" lon="7.04741">
        <ele>1238.2</ele>
        <time>2025-08-06T12:29:39Z</time>
      </trkpt>
      <trkpt lat="48.08692" lon="7.04745">
        <ele>1236.8</ele>
        <time>2025-08-06T12:29:41Z</time>
      </trkpt>
      <trkpt lat="48.08661" lon="7.04744">
        <ele>1235.2</ele>
        <time>2025-08-06T12:29:44Z</time>
      </trkpt>
      <trkpt lat="48.08643" lon="7.04737">
        <ele>1234.2</ele>
        <time>2025-08-06T12:29:46Z</time>
      </trkpt>
      <trkpt lat="48.08622" lon="7.04727">
        <ele>1232.8</ele>
        <time>2025-08-06T12:29:48Z</time>
      </trkpt>
      <trkpt lat="48.08613" lon="7.04722">
        <ele>1232.4</ele>
        <time>2025-08-06T12:29:49Z</time>
      </trkpt>
      <trkpt lat="48.08596" lon="7.04713">
        <ele>1231</ele>
        <time>2025-08-06T12:29:51Z</time>
      </trkpt>
      <trkpt lat="48.08567" lon="7.04694">
        <ele>1230</ele>
        <time>2025-08-06T12:29:54Z</time>
      </trkpt>
      <trkpt lat="48.08552" lon="7.04683">
        <ele>1229</ele>
        <time>2025-08-06T12:29:56Z</time>
      </trkpt>
      <trkpt lat="48.08542" lon="7.04674">
        <ele>1228.8</ele>
        <time>2025-08-06T12:29:57Z</time>
      </trkpt>
      <trkpt lat="48.08518" lon="7.04651">
        <ele>1227.6</ele>
        <time>2025-08-06T12:30:00Z</time>
      </trkpt>
      <trkpt lat="48.08502" lon="7.04633">
        <ele>1227</ele>
        <time>2025-08-06T12:30:02Z</time>
      </trkpt>
      <trkpt lat="48.08494" lon="7.04623">
        <ele>1226.4</ele>
        <time>2025-08-06T12:30:03Z</time>
      </trkpt>
      <trkpt lat="48.08479" lon="7.04602">
        <ele>1225.2</ele>
        <time>2025-08-06T12:30:05Z</time>
      </trkpt>
      <trkpt lat="48.08455" lon="7.04568">
        <ele>1223.6</ele>
        <time>2025-08-06T12:30:08Z</time>
      </trkpt>
      <trkpt lat="48.08433" lon="7.04537">
        <ele>1222.2</ele>
        <time>2025-08-06T12:30:11Z</time>
      </trkpt>
      <trkpt lat="48.08406" lon="7.04499">
        <ele>1221.2</ele>
        <time>2025-08-06T12:30:15Z</time>
      </trkpt>
      <trkpt lat="48.08374" lon="7.04442">
        <ele>1220.8</ele>
        <time>2025-08-06T12:30:21Z</time>
      </trkpt>
      <trkpt lat="48.08369" lon="7.04433">
        <ele>1220.8</ele>
        <time>2025-08-06T12:30:22Z</time>
      </trkpt>
      <trkpt lat="48.08359" lon="7.044">
        <ele>1220.8</ele>
        <time>2025-08-06T12:30:25Z</time>
      </trkpt>
      <trkpt lat="48.08356" lon="7.04389">
        <ele>1220.8</ele>
        <time>2025-08-06T12:30:26Z</time>
      </trkpt>
      <trkpt lat="48.08343" lon="7.04339">
        <ele>1220.4</ele>
        <time>2025-08-06T12:30:30Z</time>
      </trkpt>
      <trkpt lat="48.08339" lon="7.04326">
        <ele>1220.2</ele>
        <time>2025-08-06T12:30:31Z</time>
      </trkpt>
      <trkpt lat="48.08324" lon="7.04262">
        <ele>1219.2</ele>
        <time>2025-08-06T12:30:36Z</time>
      </trkpt>
      <trkpt lat="48.08317" lon="7.04236">
        <ele>1218</ele>
        <time>2025-08-06T12:30:38Z</time>
      </trkpt>
      <trkpt lat="48.08302" lon="7.0418">
        <ele>1217</ele>
        <time>2025-08-06T12:30:42Z</time>
      </trkpt>
      <trkpt lat="48.08299" lon="7.04166">
        <ele>1216.8</ele>
        <time>2025-08-06T12:30:43Z</time>
      </trkpt>
      <trkpt lat="48.08288" lon="7.04113">
        <ele>1216</ele>
        <time>2025-08-06T12:30:47Z</time>
      </trkpt>
      <trkpt lat="48.0828" lon="7.04072">
        <ele>1215.4</ele>
        <time>2025-08-06T12:30:51Z</time>
      </trkpt>
      <trkpt lat="48.08272" lon="7.04029">
        <ele>1214.8</ele>
        <time>2025-08-06T12:30:53Z</time>
      </trkpt>
      <trkpt lat="48.08264" lon="7.03978">
        <ele>1214.4</ele>
        <time>2025-08-06T12:30:57Z</time>
      </trkpt>
      <trkpt lat="48.08264" lon="7.03963">
        <ele>1214.2</ele>
        <time>2025-08-06T12:30:58Z</time>
      </trkpt>
      <trkpt lat="48.08259" lon="7.03937">
        <ele>1213.8</ele>
        <time>2025-08-06T12:31:00Z</time>
      </trkpt>
      <trkpt lat="48.08252" lon="7.039">
        <ele>1213.2</ele>
        <time>2025-08-06T12:31:03Z</time>
      </trkpt>
      <trkpt lat="48.08248" lon="7.03872">
        <ele>1213</ele>
        <time>2025-08-06T12:31:05Z</time>
      </trkpt>
      <trkpt lat="48.08249" lon="7.03848">
        <ele>1212.8</ele>
        <time>2025-08-06T12:31:07Z</time>
      </trkpt>
      <trkpt lat="48.08251" lon="7.03835">
        <ele>1212.8</ele>
        <time>2025-08-06T12:31:08Z</time>
      </trkpt>
      <trkpt lat="48.08261" lon="7.03772">
        <ele>1212.4</ele>
        <time>2025-08-06T12:31:13Z</time>
      </trkpt>
      <trkpt lat="48.08262" lon="7.03759">
        <ele>1212.2</ele>
        <time>2025-08-06T12:31:14Z</time>
      </trkpt>
      <trkpt lat="48.0826" lon="7.03721">
        <ele>1211.6</ele>
        <time>2025-08-06T12:31:17Z</time>
      </trkpt>
      <trkpt lat="48.08259" lon="7.03709">
        <ele>1211.4</ele>
        <time>2025-08-06T12:31:18Z</time>
      </trkpt>
      <trkpt lat="48.08257" lon="7.03696">
        <ele>1211</ele>
        <time>2025-08-06T12:31:19Z</time>
      </trkpt>
      <trkpt lat="48.08249" lon="7.0366">
        <ele>1210.6</ele>
        <time>2025-08-06T12:31:22Z</time>
      </trkpt>
      <trkpt lat="48.08238" lon="7.03616">
        <ele>1210.2</ele>
        <time>2025-08-06T12:31:26Z</time>
      </trkpt>
      <trkpt lat="48.08234" lon="7.03606">
        <ele>1210.2</ele>
        <time>2025-08-06T12:31:27Z</time>
      </trkpt>
      <trkpt lat="48.08224" lon="7.03587">
        <ele>1210.2</ele>
        <time>2025-08-06T12:31:29Z</time>
      </trkpt>
      <trkpt lat="48.08219" lon="7.03578">
        <ele>1210.2</ele>
        <time>2025-08-06T12:31:30Z</time>
      </trkpt>
      <trkpt lat="48.08184" lon="7.03514">
        <ele>1210</ele>
        <time>2025-08-06T12:31:37Z</time>
      </trkpt>
      <trkpt lat="48.08172" lon="7.03496">
        <ele>1209.8</ele>
        <time>2025-08-06T12:31:39Z</time>
      </trkpt>
      <trkpt lat="48.08165" lon="7.03487">
        <ele>1209.8</ele>
        <time>2025-08-06T12:31:40Z</time>
      </trkpt>
      <trkpt lat="48.08155" lon="7.03472">
        <ele>1209.6</ele>
        <time>2025-08-06T12:31:43Z</time>
      </trkpt>
      <trkpt lat="48.08144" lon="7.03456">
        <ele>1209.6</ele>
        <time>2025-08-06T12:31:44Z</time>
      </trkpt>
      <trkpt lat="48.0812" lon="7.03415">
        <ele>1209.2</ele>
        <time>2025-08-06T12:31:49Z</time>
      </trkpt>
      <trkpt lat="48.08097" lon="7.03372">
        <ele>1209.4</ele>
        <time>2025-08-06T12:31:54Z</time>
      </trkpt>
      <trkpt lat="48.08097" lon="7.03372">
        <ele>1209.4</ele>
        <time>2025-08-06T12:31:55Z</time>
      </trkpt>
      <trkpt lat="48.08088" lon="7.03354">
        <ele>1209.4</ele>
        <time>2025-08-06T12:31:56Z</time>
      </trkpt>
      <trkpt lat="48.08064" lon="7.03306">
        <ele>1209.4</ele>
        <time>2025-08-06T12:32:01Z</time>
      </trkpt>
      <trkpt lat="48.08051" lon="7.03275">
        <ele>1209.2</ele>
        <time>2025-08-06T12:32:04Z</time>
      </trkpt>
      <trkpt lat="48.08045" lon="7.03251">
        <ele>1209</ele>
        <time>2025-08-06T12:32:06Z</time>
      </trkpt>
      <trkpt lat="48.08024" lon="7.0319">
        <ele>1208.4</ele>
        <time>2025-08-06T12:32:12Z</time>
      </trkpt>
      <trkpt lat="48.08015" lon="7.03158">
        <ele>1208.2</ele>
        <time>2025-08-06T12:32:15Z</time>
      </trkpt>
      <trkpt lat="48.07987" lon="7.03096">
        <ele>1207.2</ele>
        <time>2025-08-06T12:32:21Z</time>
      </trkpt>
      <trkpt lat="48.07962" lon="7.03053">
        <ele>1206</ele>
        <time>2025-08-06T12:32:25Z</time>
      </trkpt>
      <trkpt lat="48.07947" lon="7.03031">
        <ele>1204.4</ele>
        <time>2025-08-06T12:32:27Z</time>
      </trkpt>
      <trkpt lat="48.07939" lon="7.03021">
        <ele>1204</ele>
        <time>2025-08-06T12:32:28Z</time>
      </trkpt>
      <trkpt lat="48.07933" lon="7.03013">
        <ele>1203.2</ele>
        <time>2025-08-06T12:32:29Z</time>
      </trkpt>
      <trkpt lat="48.07907" lon="7.02978">
        <ele>1201.8</ele>
        <time>2025-08-06T12:32:32Z</time>
      </trkpt>
      <trkpt lat="48.07891" lon="7.02956">
        <ele>1200.4</ele>
        <time>2025-08-06T12:32:34Z</time>
      </trkpt>
      <trkpt lat="48.07868" lon="7.02924">
        <ele>1199</ele>
        <time>2025-08-06T12:32:37Z</time>
      </trkpt>
      <trkpt lat="48.07849" lon="7.029">
        <ele>1197.8</ele>
        <time>2025-08-06T12:32:39Z</time>
      </trkpt>
      <trkpt lat="48.07842" lon="7.0289">
        <ele>1197.4</ele>
        <time>2025-08-06T12:32:40Z</time>
      </trkpt>
      <trkpt lat="48.07834" lon="7.02879">
        <ele>1196.4</ele>
        <time>2025-08-06T12:32:41Z</time>
      </trkpt>
      <trkpt lat="48.07815" lon="7.02854">
        <ele>1195</ele>
        <time>2025-08-06T12:32:43Z</time>
      </trkpt>
      <trkpt lat="48.078" lon="7.02833">
        <ele>1194</ele>
        <time>2025-08-06T12:32:45Z</time>
      </trkpt>
      <trkpt lat="48.0778" lon="7.02809">
        <ele>1193</ele>
        <time>2025-08-06T12:32:47Z</time>
      </trkpt>
      <trkpt lat="48.07753" lon="7.02777">
        <ele>1191.2</ele>
        <time>2025-08-06T12:32:50Z</time>
      </trkpt>
      <trkpt lat="48.07733" lon="7.02756">
        <ele>1190</ele>
        <time>2025-08-06T12:32:52Z</time>
      </trkpt>
      <trkpt lat="48.07712" lon="7.02733">
        <ele>1188.8</ele>
        <time>2025-08-06T12:32:54Z</time>
      </trkpt>
      <trkpt lat="48.07687" lon="7.027">
        <ele>1187.2</ele>
        <time>2025-08-06T12:32:57Z</time>
      </trkpt>
      <trkpt lat="48.07677" lon="7.02684">
        <ele>1186.6</ele>
        <time>2025-08-06T12:32:58Z</time>
      </trkpt>
      <trkpt lat="48.07665" lon="7.02657">
        <ele>1185.6</ele>
        <time>2025-08-06T12:33:00Z</time>
      </trkpt>
      <trkpt lat="48.07653" lon="7.02626">
        <ele>1184.6</ele>
        <time>2025-08-06T12:33:02Z</time>
      </trkpt>
      <trkpt lat="48.07638" lon="7.02594">
        <ele>1183.6</ele>
        <time>2025-08-06T12:33:04Z</time>
      </trkpt>
      <trkpt lat="48.07633" lon="7.02583">
        <ele>1183.2</ele>
        <time>2025-08-06T12:33:05Z</time>
      </trkpt>
      <trkpt lat="48.07613" lon="7.0254">
        <ele>1181.8</ele>
        <time>2025-08-06T12:33:08Z</time>
      </trkpt>
      <trkpt lat="48.07606" lon="7.02528">
        <ele>1181.2</ele>
        <time>2025-08-06T12:33:09Z</time>
      </trkpt>
      <trkpt lat="48.076" lon="7.02519">
        <ele>1180.8</ele>
        <time>2025-08-06T12:33:10Z</time>
      </trkpt>
      <trkpt lat="48.07579" lon="7.02486">
        <ele>1180</ele>
        <time>2025-08-06T12:33:13Z</time>
      </trkpt>
      <trkpt lat="48.07572" lon="7.02477">
        <ele>1179.8</ele>
        <time>2025-08-06T12:33:14Z</time>
      </trkpt>
      <trkpt lat="48.07561" lon="7.0246">
        <ele>1179.8</ele>
        <time>2025-08-06T12:33:16Z</time>
      </trkpt>
      <trkpt lat="48.07529" lon="7.02419">
        <ele>1179.8</ele>
        <time>2025-08-06T12:33:21Z</time>
      </trkpt>
      <trkpt lat="48.07485" lon="7.0236">
        <ele>1180.2</ele>
        <time>2025-08-06T12:33:28Z</time>
      </trkpt>
      <trkpt lat="48.07479" lon="7.02352">
        <ele>1180.4</ele>
        <time>2025-08-06T12:33:29Z</time>
      </trkpt>
      <trkpt lat="48.07441" lon="7.02309">
        <ele>1180.4</ele>
        <time>2025-08-06T12:33:35Z</time>
      </trkpt>
      <trkpt lat="48.07421" lon="7.02287">
        <ele>1180.2</ele>
        <time>2025-08-06T12:33:38Z</time>
      </trkpt>
      <trkpt lat="48.07407" lon="7.02272">
        <ele>1180</ele>
        <time>2025-08-06T12:33:41Z</time>
      </trkpt>
      <trkpt lat="48.07367" lon="7.02231">
        <ele>1179.2</ele>
        <time>2025-08-06T12:33:47Z</time>
      </trkpt>
      <trkpt lat="48.07353" lon="7.02218">
        <ele>1179</ele>
        <time>2025-08-06T12:33:48Z</time>
      </trkpt>
      <trkpt lat="48.07338" lon="7.02206">
        <ele>1178.6</ele>
        <time>2025-08-06T12:33:50Z</time>
      </trkpt>
      <trkpt lat="48.07321" lon="7.02196">
        <ele>1178.4</ele>
        <time>2025-08-06T12:33:52Z</time>
      </trkpt>
      <trkpt lat="48.07281" lon="7.02171">
        <ele>1177.6</ele>
        <time>2025-08-06T12:33:57Z</time>
      </trkpt>
      <trkpt lat="48.07264" lon="7.02164">
        <ele>1177.2</ele>
        <time>2025-08-06T12:33:59Z</time>
      </trkpt>
      <trkpt lat="48.07211" lon="7.02148">
        <ele>1176.6</ele>
        <time>2025-08-06T12:34:05Z</time>
      </trkpt>
      <trkpt lat="48.07211" lon="7.02148">
        <ele>1176.4</ele>
        <time>2025-08-06T12:34:06Z</time>
      </trkpt>
      <trkpt lat="48.07193" lon="7.02144">
        <ele>1176.4</ele>
        <time>2025-08-06T12:34:07Z</time>
      </trkpt>
      <trkpt lat="48.07164" lon="7.02137">
        <ele>1175.4</ele>
        <time>2025-08-06T12:34:10Z</time>
      </trkpt>
      <trkpt lat="48.07126" lon="7.02128">
        <ele>1174.2</ele>
        <time>2025-08-06T12:34:14Z</time>
      </trkpt>
      <trkpt lat="48.07116" lon="7.02125">
        <ele>1173.8</ele>
        <time>2025-08-06T12:34:15Z</time>
      </trkpt>
      <trkpt lat="48.07097" lon="7.0212">
        <ele>1173.2</ele>
        <time>2025-08-06T12:34:17Z</time>
      </trkpt>
      <trkpt lat="48.07078" lon="7.02114">
        <ele>1172.2</ele>
        <time>2025-08-06T12:34:19Z</time>
      </trkpt>
      <trkpt lat="48.07068" lon="7.02112">
        <ele>1171.4</ele>
        <time>2025-08-06T12:34:20Z</time>
      </trkpt>
      <trkpt lat="48.07048" lon="7.02107">
        <ele>1170.8</ele>
        <time>2025-08-06T12:34:22Z</time>
      </trkpt>
      <trkpt lat="48.07017" lon="7.02107">
        <ele>1169.6</ele>
        <time>2025-08-06T12:34:25Z</time>
      </trkpt>
      <trkpt lat="48.0698" lon="7.02121">
        <ele>1168.2</ele>
        <time>2025-08-06T12:34:29Z</time>
      </trkpt>
      <trkpt lat="48.06961" lon="7.02133">
        <ele>1167</ele>
        <time>2025-08-06T12:34:31Z</time>
      </trkpt>
      <trkpt lat="48.06942" lon="7.02146">
        <ele>1165.8</ele>
        <time>2025-08-06T12:34:33Z</time>
      </trkpt>
      <trkpt lat="48.06922" lon="7.02163">
        <ele>1164.8</ele>
        <time>2025-08-06T12:34:35Z</time>
      </trkpt>
      <trkpt lat="48.06912" lon="7.0217">
        <ele>1164.2</ele>
        <time>2025-08-06T12:34:36Z</time>
      </trkpt>
      <trkpt lat="48.06891" lon="7.02185">
        <ele>1163.6</ele>
        <time>2025-08-06T12:34:38Z</time>
      </trkpt>
      <trkpt lat="48.0688" lon="7.0219">
        <ele>1163</ele>
        <time>2025-08-06T12:34:39Z</time>
      </trkpt>
      <trkpt lat="48.06869" lon="7.02192">
        <ele>1162.6</ele>
        <time>2025-08-06T12:34:40Z</time>
      </trkpt>
      <trkpt lat="48.06847" lon="7.02189">
        <ele>1161.8</ele>
        <time>2025-08-06T12:34:42Z</time>
      </trkpt>
      <trkpt lat="48.06829" lon="7.0218">
        <ele>1160.4</ele>
        <time>2025-08-06T12:34:44Z</time>
      </trkpt>
      <trkpt lat="48.06802" lon="7.02169">
        <ele>1159.6</ele>
        <time>2025-08-06T12:34:47Z</time>
      </trkpt>
      <trkpt lat="48.06792" lon="7.02166">
        <ele>1159.4</ele>
        <time>2025-08-06T12:34:48Z</time>
      </trkpt>
      <trkpt lat="48.06748" lon="7.02157">
        <ele>1158.4</ele>
        <time>2025-08-06T12:34:52Z</time>
      </trkpt>
      <trkpt lat="48.06738" lon="7.02156">
        <ele>1158.2</ele>
        <time>2025-08-06T12:34:53Z</time>
      </trkpt>
      <trkpt lat="48.06728" lon="7.02156">
        <ele>1158</ele>
        <time>2025-08-06T12:34:54Z</time>
      </trkpt>
      <trkpt lat="48.06709" lon="7.0216">
        <ele>1157.2</ele>
        <time>2025-08-06T12:34:56Z</time>
      </trkpt>
      <trkpt lat="48.067" lon="7.02162">
        <ele>1157</ele>
        <time>2025-08-06T12:34:57Z</time>
      </trkpt>
      <trkpt lat="48.06674" lon="7.02171">
        <ele>1155.8</ele>
        <time>2025-08-06T12:35:00Z</time>
      </trkpt>
      <trkpt lat="48.06662" lon="7.02177">
        <ele>1155.4</ele>
        <time>2025-08-06T12:35:02Z</time>
      </trkpt>
      <trkpt lat="48.06656" lon="7.0218">
        <ele>1154.6</ele>
        <time>2025-08-06T12:35:03Z</time>
      </trkpt>
      <trkpt lat="48.06644" lon="7.02185">
        <ele>1153.4</ele>
        <time>2025-08-06T12:35:06Z</time>
      </trkpt>
      <trkpt lat="48.06638" lon="7.02188">
        <ele>1152.4</ele>
        <time>2025-08-06T12:35:09Z</time>
      </trkpt>
      <trkpt lat="48.06636" lon="7.02189">
        <ele>1152</ele>
        <time>2025-08-06T12:35:10Z</time>
      </trkpt>
      <trkpt lat="48.06627" lon="7.02195">
        <ele>1151.4</ele>
        <time>2025-08-06T12:35:13Z</time>
      </trkpt>
      <trkpt lat="48.06617" lon="7.022">
        <ele>1151</ele>
        <time>2025-08-06T12:35:16Z</time>
      </trkpt>
      <trkpt lat="48.06592" lon="7.02214">
        <ele>1150.4</ele>
        <time>2025-08-06T12:35:21Z</time>
      </trkpt>
      <trkpt lat="48.06587" lon="7.02217">
        <ele>1150.4</ele>
        <time>2025-08-06T12:35:22Z</time>
      </trkpt>
      <trkpt lat="48.0658" lon="7.02221">
        <ele>1150.2</ele>
        <time>2025-08-06T12:35:23Z</time>
      </trkpt>
      <trkpt lat="48.06572" lon="7.02226">
        <ele>1150.2</ele>
        <time>2025-08-06T12:35:24Z</time>
      </trkpt>
      <trkpt lat="48.06565" lon="7.02229">
        <ele>1150</ele>
        <time>2025-08-06T12:35:25Z</time>
      </trkpt>
      <trkpt lat="48.06543" lon="7.02233">
        <ele>1149.8</ele>
        <time>2025-08-06T12:35:30Z</time>
      </trkpt>
      <trkpt lat="48.06507" lon="7.02241">
        <ele>1150</ele>
        <time>2025-08-06T12:35:37Z</time>
      </trkpt>
      <trkpt lat="48.06488" lon="7.02246">
        <ele>1150</ele>
        <time>2025-08-06T12:35:41Z</time>
      </trkpt>
      <trkpt lat="48.06474" lon="7.02249">
        <ele>1150.4</ele>
        <time>2025-08-06T12:35:45Z</time>
      </trkpt>
      <trkpt lat="48.06456" lon="7.02255">
        <ele>1151.4</ele>
        <time>2025-08-06T12:35:51Z</time>
      </trkpt>
      <trkpt lat="48.06453" lon="7.02255">
        <ele>1151.6</ele>
        <time>2025-08-06T12:35:52Z</time>
      </trkpt>
      <trkpt lat="48.06431" lon="7.02257">
        <ele>1152.6</ele>
        <time>2025-08-06T12:36:00Z</time>
      </trkpt>
      <trkpt lat="48.06428" lon="7.02257">
        <ele>1152.8</ele>
        <time>2025-08-06T12:36:01Z</time>
      </trkpt>
      <trkpt lat="48.0641" lon="7.02247">
        <ele>1153.4</ele>
        <time>2025-08-06T12:36:07Z</time>
      </trkpt>
      <trkpt lat="48.06393" lon="7.02226">
        <ele>1153.6</ele>
        <time>2025-08-06T12:36:15Z</time>
      </trkpt>
      <trkpt lat="48.06393" lon="7.02226">
        <ele>1153.6</ele>
        <time>2025-08-06T12:36:18Z</time>
      </trkpt>
      <trkpt lat="48.0637" lon="7.02211">
        <ele>1153.2</ele>
        <time>2025-08-06T12:42:11Z</time>
      </trkpt>
      <trkpt lat="48.06359" lon="7.02196">
        <ele>1153.4</ele>
        <time>2025-08-06T12:42:16Z</time>
      </trkpt>
      <trkpt lat="48.0634" lon="7.02166">
        <ele>1153.2</ele>
        <time>2025-08-06T12:42:23Z</time>
      </trkpt>
      <trkpt lat="48.06327" lon="7.02141">
        <ele>1153</ele>
        <time>2025-08-06T12:42:28Z</time>
      </trkpt>
      <trkpt lat="48.06321" lon="7.02133">
        <ele>1153</ele>
        <time>2025-08-06T12:42:30Z</time>
      </trkpt>
      <trkpt lat="48.06308" lon="7.02116">
        <ele>1152.8</ele>
        <time>2025-08-06T12:42:34Z</time>
      </trkpt>
      <trkpt lat="48.06298" lon="7.02104">
        <ele>1152.8</ele>
        <time>2025-08-06T12:42:37Z</time>
      </trkpt>
      <trkpt lat="48.06294" lon="7.02101">
        <ele>1152.8</ele>
        <time>2025-08-06T12:42:38Z</time>
      </trkpt>
      <trkpt lat="48.06286" lon="7.02095">
        <ele>1152.6</ele>
        <time>2025-08-06T12:42:40Z</time>
      </trkpt>
      <trkpt lat="48.06273" lon="7.02092">
        <ele>1152.6</ele>
        <time>2025-08-06T12:42:43Z</time>
      </trkpt>
      <trkpt lat="48.06269" lon="7.02091">
        <ele>1152.4</ele>
        <time>2025-08-06T12:42:44Z</time>
      </trkpt>
      <trkpt lat="48.06255" lon="7.02086">
        <ele>1152.2</ele>
        <time>2025-08-06T12:42:47Z</time>
      </trkpt>
      <trkpt lat="48.06251" lon="7.02082">
        <ele>1152</ele>
        <time>2025-08-06T12:42:48Z</time>
      </trkpt>
      <trkpt lat="48.06247" lon="7.02078">
        <ele>1152</ele>
        <time>2025-08-06T12:42:49Z</time>
      </trkpt>
      <trkpt lat="48.06243" lon="7.02066">
        <ele>1152</ele>
        <time>2025-08-06T12:42:51Z</time>
      </trkpt>
      <trkpt lat="48.06243" lon="7.0206">
        <ele>1152</ele>
        <time>2025-08-06T12:42:52Z</time>
      </trkpt>
      <trkpt lat="48.06244" lon="7.02054">
        <ele>1151.8</ele>
        <time>2025-08-06T12:42:53Z</time>
      </trkpt>
      <trkpt lat="48.06248" lon="7.02042">
        <ele>1151.6</ele>
        <time>2025-08-06T12:42:55Z</time>
      </trkpt>
      <trkpt lat="48.06253" lon="7.02032">
        <ele>1151.6</ele>
        <time>2025-08-06T12:42:57Z</time>
      </trkpt>
      <trkpt lat="48.06264" lon="7.0202">
        <ele>1151.4</ele>
        <time>2025-08-06T12:43:01Z</time>
      </trkpt>
      <trkpt lat="48.06271" lon="7.02011">
        <ele>1151.4</ele>
        <time>2025-08-06T12:43:02Z</time>
      </trkpt>
      <trkpt lat="48.06277" lon="7.02">
        <ele>1151.4</ele>
        <time>2025-08-06T12:43:04Z</time>
      </trkpt>
      <trkpt lat="48.06281" lon="7.01987">
        <ele>1151.2</ele>
        <time>2025-08-06T12:43:06Z</time>
      </trkpt>
      <trkpt lat="48.06285" lon="7.01973">
        <ele>1151.2</ele>
        <time>2025-08-06T12:43:08Z</time>
      </trkpt>
      <trkpt lat="48.06287" lon="7.01944">
        <ele>1150.8</ele>
        <time>2025-08-06T12:43:12Z</time>
      </trkpt>
      <trkpt lat="48.06288" lon="7.01881">
        <ele>1150</ele>
        <time>2025-08-06T12:43:19Z</time>
      </trkpt>
      <trkpt lat="48.06289" lon="7.01871">
        <ele>1149.6</ele>
        <time>2025-08-06T12:43:20Z</time>
      </trkpt>
      <trkpt lat="48.06287" lon="7.01823">
        <ele>1149.2</ele>
        <time>2025-08-06T12:43:25Z</time>
      </trkpt>
      <trkpt lat="48.06281" lon="7.01777">
        <ele>1149.4</ele>
        <time>2025-08-06T12:43:30Z</time>
      </trkpt>
      <trkpt lat="48.06279" lon="7.01768">
        <ele>1149.4</ele>
        <time>2025-08-06T12:43:31Z</time>
      </trkpt>
      <trkpt lat="48.06273" lon="7.01741">
        <ele>1149.4</ele>
        <time>2025-08-06T12:43:34Z</time>
      </trkpt>
      <trkpt lat="48.06269" lon="7.01719">
        <ele>1149.4</ele>
        <time>2025-08-06T12:43:36Z</time>
      </trkpt>
      <trkpt lat="48.06256" lon="7.01658">
        <ele>1149</ele>
        <time>2025-08-06T12:43:42Z</time>
      </trkpt>
      <trkpt lat="48.06253" lon="7.01638">
        <ele>1148.8</ele>
        <time>2025-08-06T12:43:44Z</time>
      </trkpt>
      <trkpt lat="48.0624" lon="7.01579">
        <ele>1148</ele>
        <time>2025-08-06T12:43:50Z</time>
      </trkpt>
      <trkpt lat="48.06224" lon="7.01541">
        <ele>1147.8</ele>
        <time>2025-08-06T12:43:54Z</time>
      </trkpt>
      <trkpt lat="48.0622" lon="7.01531">
        <ele>1147.6</ele>
        <time>2025-08-06T12:43:55Z</time>
      </trkpt>
      <trkpt lat="48.06216" lon="7.01522">
        <ele>1147.6</ele>
        <time>2025-08-06T12:43:56Z</time>
      </trkpt>
      <trkpt lat="48.06187" lon="7.01455">
        <ele>1146.8</ele>
        <time>2025-08-06T12:44:03Z</time>
      </trkpt>
      <trkpt lat="48.06178" lon="7.01439">
        <ele>1146.4</ele>
        <time>2025-08-06T12:44:05Z</time>
      </trkpt>
      <trkpt lat="48.06157" lon="7.01411">
        <ele>1145.8</ele>
        <time>2025-08-06T12:44:09Z</time>
      </trkpt>
      <trkpt lat="48.06152" lon="7.01405">
        <ele>1145.6</ele>
        <time>2025-08-06T12:44:10Z</time>
      </trkpt>
      <trkpt lat="48.06139" lon="7.01391">
        <ele>1145.4</ele>
        <time>2025-08-06T12:44:12Z</time>
      </trkpt>
      <trkpt lat="48.0612" lon="7.01373">
        <ele>1144.6</ele>
        <time>2025-08-06T12:44:15Z</time>
      </trkpt>
      <trkpt lat="48.06107" lon="7.01362">
        <ele>1144.2</ele>
        <time>2025-08-06T12:44:17Z</time>
      </trkpt>
      <trkpt lat="48.0606" lon="7.01317">
        <ele>1143.6</ele>
        <time>2025-08-06T12:44:24Z</time>
      </trkpt>
      <trkpt lat="48.06037" lon="7.01288">
        <ele>1143.2</ele>
        <time>2025-08-06T12:44:28Z</time>
      </trkpt>
      <trkpt lat="48.06011" lon="7.01262">
        <ele>1142.4</ele>
        <time>2025-08-06T12:44:32Z</time>
      </trkpt>
      <trkpt lat="48.05989" lon="7.01243">
        <ele>1142</ele>
        <time>2025-08-06T12:44:35Z</time>
      </trkpt>
      <trkpt lat="48.05968" lon="7.01226">
        <ele>1141.8</ele>
        <time>2025-08-06T12:44:38Z</time>
      </trkpt>
      <trkpt lat="48.05917" lon="7.01189">
        <ele>1141.2</ele>
        <time>2025-08-06T12:44:45Z</time>
      </trkpt>
      <trkpt lat="48.05864" lon="7.01161">
        <ele>1140.4</ele>
        <time>2025-08-06T12:44:52Z</time>
      </trkpt>
      <trkpt lat="48.05858" lon="7.01156">
        <ele>1140.2</ele>
        <time>2025-08-06T12:44:53Z</time>
      </trkpt>
      <trkpt lat="48.05844" lon="7.01148">
        <ele>1139.8</ele>
        <time>2025-08-06T12:44:55Z</time>
      </trkpt>
      <trkpt lat="48.05835" lon="7.01144">
        <ele>1139.6</ele>
        <time>2025-08-06T12:44:56Z</time>
      </trkpt>
      <trkpt lat="48.05796" lon="7.01128">
        <ele>1138.8</ele>
        <time>2025-08-06T12:45:01Z</time>
      </trkpt>
      <trkpt lat="48.05788" lon="7.01127">
        <ele>1138.6</ele>
        <time>2025-08-06T12:45:02Z</time>
      </trkpt>
      <trkpt lat="48.05772" lon="7.01126">
        <ele>1138.4</ele>
        <time>2025-08-06T12:45:04Z</time>
      </trkpt>
      <trkpt lat="48.05765" lon="7.01126">
        <ele>1138.2</ele>
        <time>2025-08-06T12:45:05Z</time>
      </trkpt>
      <trkpt lat="48.05751" lon="7.01122">
        <ele>1138</ele>
        <time>2025-08-06T12:45:07Z</time>
      </trkpt>
      <trkpt lat="48.05737" lon="7.01112">
        <ele>1137.8</ele>
        <time>2025-08-06T12:45:09Z</time>
      </trkpt>
      <trkpt lat="48.05731" lon="7.01104">
        <ele>1137.6</ele>
        <time>2025-08-06T12:45:10Z</time>
      </trkpt>
      <trkpt lat="48.05726" lon="7.01095">
        <ele>1137.4</ele>
        <time>2025-08-06T12:45:11Z</time>
      </trkpt>
      <trkpt lat="48.05719" lon="7.01073">
        <ele>1136.8</ele>
        <time>2025-08-06T12:45:13Z</time>
      </trkpt>
      <trkpt lat="48.05717" lon="7.0105">
        <ele>1136.6</ele>
        <time>2025-08-06T12:45:15Z</time>
      </trkpt>
      <trkpt lat="48.05717" lon="7.01038">
        <ele>1136.4</ele>
        <time>2025-08-06T12:45:16Z</time>
      </trkpt>
      <trkpt lat="48.05717" lon="7.01027">
        <ele>1136.2</ele>
        <time>2025-08-06T12:45:17Z</time>
      </trkpt>
      <trkpt lat="48.05716" lon="7.00993">
        <ele>1136</ele>
        <time>2025-08-06T12:45:20Z</time>
      </trkpt>
      <trkpt lat="48.05712" lon="7.00967">
        <ele>1135.8</ele>
        <time>2025-08-06T12:45:22Z</time>
      </trkpt>
      <trkpt lat="48.05703" lon="7.0091">
        <ele>1135.2</ele>
        <time>2025-08-06T12:45:27Z</time>
      </trkpt>
      <trkpt lat="48.05696" lon="7.00875">
        <ele>1134.6</ele>
        <time>2025-08-06T12:45:30Z</time>
      </trkpt>
      <trkpt lat="48.05688" lon="7.00842">
        <ele>1134</ele>
        <time>2025-08-06T12:45:33Z</time>
      </trkpt>
      <trkpt lat="48.05675" lon="7.008">
        <ele>1133.8</ele>
        <time>2025-08-06T12:45:37Z</time>
      </trkpt>
      <trkpt lat="48.05671" lon="7.0079">
        <ele>1133.6</ele>
        <time>2025-08-06T12:45:38Z</time>
      </trkpt>
      <trkpt lat="48.05645" lon="7.00746">
        <ele>1133</ele>
        <time>2025-08-06T12:45:43Z</time>
      </trkpt>
      <trkpt lat="48.05606" lon="7.00689">
        <ele>1132</ele>
        <time>2025-08-06T12:45:50Z</time>
      </trkpt>
      <trkpt lat="48.05599" lon="7.00681">
        <ele>1131.8</ele>
        <time>2025-08-06T12:45:51Z</time>
      </trkpt>
      <trkpt lat="48.05557" lon="7.00624">
        <ele>1131</ele>
        <time>2025-08-06T12:45:58Z</time>
      </trkpt>
      <trkpt lat="48.05551" lon="7.00617">
        <ele>1130.8</ele>
        <time>2025-08-06T12:45:59Z</time>
      </trkpt>
      <trkpt lat="48.05517" lon="7.00574">
        <ele>1129.6</ele>
        <time>2025-08-06T12:46:04Z</time>
      </trkpt>
      <trkpt lat="48.05487" lon="7.00529">
        <ele>1128.4</ele>
        <time>2025-08-06T12:46:09Z</time>
      </trkpt>
      <trkpt lat="48.05469" lon="7.00501">
        <ele>1127.8</ele>
        <time>2025-08-06T12:46:12Z</time>
      </trkpt>
      <trkpt lat="48.05458" lon="7.00485">
        <ele>1127.2</ele>
        <time>2025-08-06T12:46:14Z</time>
      </trkpt>
      <trkpt lat="48.0544" lon="7.00455">
        <ele>1126.8</ele>
        <time>2025-08-06T12:46:18Z</time>
      </trkpt>
      <trkpt lat="48.05426" lon="7.00431">
        <ele>1126.2</ele>
        <time>2025-08-06T12:46:22Z</time>
      </trkpt>
      <trkpt lat="48.05422" lon="7.00428">
        <ele>1126</ele>
        <time>2025-08-06T12:46:23Z</time>
      </trkpt>
      <trkpt lat="48.05419" lon="7.00428">
        <ele>1125.6</ele>
        <time>2025-08-06T12:46:24Z</time>
      </trkpt>
      <trkpt lat="48.05415" lon="7.00432">
        <ele>1125.4</ele>
        <time>2025-08-06T12:46:25Z</time>
      </trkpt>
      <trkpt lat="48.05404" lon="7.00451">
        <ele>1124.8</ele>
        <time>2025-08-06T12:46:28Z</time>
      </trkpt>
      <trkpt lat="48.05399" lon="7.00459">
        <ele>1124.4</ele>
        <time>2025-08-06T12:46:29Z</time>
      </trkpt>
      <trkpt lat="48.05371" lon="7.00485">
        <ele>1123.4</ele>
        <time>2025-08-06T12:46:33Z</time>
      </trkpt>
      <trkpt lat="48.05365" lon="7.00491">
        <ele>1123.2</ele>
        <time>2025-08-06T12:46:34Z</time>
      </trkpt>
      <trkpt lat="48.05346" lon="7.00504">
        <ele>1122.2</ele>
        <time>2025-08-06T12:46:36Z</time>
      </trkpt>
      <trkpt lat="48.05336" lon="7.00505">
        <ele>1122</ele>
        <time>2025-08-06T12:46:37Z</time>
      </trkpt>
      <trkpt lat="48.05327" lon="7.00502">
        <ele>1121.4</ele>
        <time>2025-08-06T12:46:38Z</time>
      </trkpt>
      <trkpt lat="48.0532" lon="7.00494">
        <ele>1120.8</ele>
        <time>2025-08-06T12:46:39Z</time>
      </trkpt>
      <trkpt lat="48.05308" lon="7.00474">
        <ele>1118.8</ele>
        <time>2025-08-06T12:46:41Z</time>
      </trkpt>
      <trkpt lat="48.05296" lon="7.00453">
        <ele>1117.4</ele>
        <time>2025-08-06T12:46:43Z</time>
      </trkpt>
      <trkpt lat="48.05289" lon="7.00444">
        <ele>1117</ele>
        <time>2025-08-06T12:46:44Z</time>
      </trkpt>
      <trkpt lat="48.05281" lon="7.00434">
        <ele>1116.2</ele>
        <time>2025-08-06T12:46:45Z</time>
      </trkpt>
      <trkpt lat="48.05264" lon="7.00414">
        <ele>1115</ele>
        <time>2025-08-06T12:46:47Z</time>
      </trkpt>
      <trkpt lat="48.05246" lon="7.00394">
        <ele>1113.4</ele>
        <time>2025-08-06T12:46:49Z</time>
      </trkpt>
      <trkpt lat="48.05228" lon="7.00376">
        <ele>1112.2</ele>
        <time>2025-08-06T12:46:51Z</time>
      </trkpt>
      <trkpt lat="48.05207" lon="7.0036">
        <ele>1110.4</ele>
        <time>2025-08-06T12:46:53Z</time>
      </trkpt>
      <trkpt lat="48.05186" lon="7.00348">
        <ele>1108.4</ele>
        <time>2025-08-06T12:46:55Z</time>
      </trkpt>
      <trkpt lat="48.0516" lon="7.00334">
        <ele>1106.6</ele>
        <time>2025-08-06T12:46:57Z</time>
      </trkpt>
      <trkpt lat="48.05137" lon="7.0032">
        <ele>1105</ele>
        <time>2025-08-06T12:46:59Z</time>
      </trkpt>
      <trkpt lat="48.05125" lon="7.00311">
        <ele>1103.8</ele>
        <time>2025-08-06T12:47:00Z</time>
      </trkpt>
      <trkpt lat="48.05105" lon="7.00293">
        <ele>1101.6</ele>
        <time>2025-08-06T12:47:02Z</time>
      </trkpt>
      <trkpt lat="48.05096" lon="7.00282">
        <ele>1100.8</ele>
        <time>2025-08-06T12:47:03Z</time>
      </trkpt>
      <trkpt lat="48.05089" lon="7.00269">
        <ele>1099.8</ele>
        <time>2025-08-06T12:47:04Z</time>
      </trkpt>
      <trkpt lat="48.05084" lon="7.00254">
        <ele>1098.2</ele>
        <time>2025-08-06T12:47:05Z</time>
      </trkpt>
      <trkpt lat="48.05076" lon="7.00224">
        <ele>1096.6</ele>
        <time>2025-08-06T12:47:07Z</time>
      </trkpt>
      <trkpt lat="48.05071" lon="7.00209">
        <ele>1095.6</ele>
        <time>2025-08-06T12:47:08Z</time>
      </trkpt>
      <trkpt lat="48.05066" lon="7.00193">
        <ele>1094.4</ele>
        <time>2025-08-06T12:47:09Z</time>
      </trkpt>
      <trkpt lat="48.05058" lon="7.00165">
        <ele>1092.6</ele>
        <time>2025-08-06T12:47:11Z</time>
      </trkpt>
      <trkpt lat="48.05052" lon="7.00146">
        <ele>1091</ele>
        <time>2025-08-06T12:47:12Z</time>
      </trkpt>
      <trkpt lat="48.05042" lon="7.00119">
        <ele>1088.8</ele>
        <time>2025-08-06T12:47:14Z</time>
      </trkpt>
      <trkpt lat="48.05034" lon="7.00103">
        <ele>1088.2</ele>
        <time>2025-08-06T12:47:15Z</time>
      </trkpt>
      <trkpt lat="48.05026" lon="7.00091">
        <ele>1086.6</ele>
        <time>2025-08-06T12:47:16Z</time>
      </trkpt>
      <trkpt lat="48.05018" lon="7.0008">
        <ele>1085.6</ele>
        <time>2025-08-06T12:47:17Z</time>
      </trkpt>
      <trkpt lat="48.05002" lon="7.00063">
        <ele>1083.8</ele>
        <time>2025-08-06T12:47:19Z</time>
      </trkpt>
      <trkpt lat="48.04994" lon="7.00057">
        <ele>1083</ele>
        <time>2025-08-06T12:47:20Z</time>
      </trkpt>
      <trkpt lat="48.04985" lon="7.00054">
        <ele>1081.8</ele>
        <time>2025-08-06T12:47:21Z</time>
      </trkpt>
      <trkpt lat="48.04967" lon="7.00059">
        <ele>1080.2</ele>
        <time>2025-08-06T12:47:23Z</time>
      </trkpt>
      <trkpt lat="48.04959" lon="7.00064">
        <ele>1079</ele>
        <time>2025-08-06T12:47:24Z</time>
      </trkpt>
      <trkpt lat="48.04941" lon="7.00081">
        <ele>1077.6</ele>
        <time>2025-08-06T12:47:26Z</time>
      </trkpt>
      <trkpt lat="48.04919" lon="7.00102">
        <ele>1076.2</ele>
        <time>2025-08-06T12:47:28Z</time>
      </trkpt>
      <trkpt lat="48.04909" lon="7.00115">
        <ele>1075.4</ele>
        <time>2025-08-06T12:47:29Z</time>
      </trkpt>
      <trkpt lat="48.049" lon="7.00128">
        <ele>1074.8</ele>
        <time>2025-08-06T12:47:30Z</time>
      </trkpt>
      <trkpt lat="48.04891" lon="7.00141">
        <ele>1073.6</ele>
        <time>2025-08-06T12:47:31Z</time>
      </trkpt>
      <trkpt lat="48.04871" lon="7.00163">
        <ele>1071.8</ele>
        <time>2025-08-06T12:47:33Z</time>
      </trkpt>
      <trkpt lat="48.0486" lon="7.00172">
        <ele>1070.4</ele>
        <time>2025-08-06T12:47:34Z</time>
      </trkpt>
      <trkpt lat="48.04838" lon="7.00189">
        <ele>1068.8</ele>
        <time>2025-08-06T12:47:36Z</time>
      </trkpt>
      <trkpt lat="48.04819" lon="7.00199">
        <ele>1067.2</ele>
        <time>2025-08-06T12:47:38Z</time>
      </trkpt>
      <trkpt lat="48.04808" lon="7.00205">
        <ele>1066.2</ele>
        <time>2025-08-06T12:47:39Z</time>
      </trkpt>
      <trkpt lat="48.048" lon="7.00212">
        <ele>1064.8</ele>
        <time>2025-08-06T12:47:40Z</time>
      </trkpt>
      <trkpt lat="48.04792" lon="7.00224">
        <ele>1063.6</ele>
        <time>2025-08-06T12:47:41Z</time>
      </trkpt>
      <trkpt lat="48.04775" lon="7.00248">
        <ele>1061.8</ele>
        <time>2025-08-06T12:47:43Z</time>
      </trkpt>
      <trkpt lat="48.04755" lon="7.00269">
        <ele>1060.4</ele>
        <time>2025-08-06T12:47:45Z</time>
      </trkpt>
      <trkpt lat="48.04732" lon="7.00276">
        <ele>1059.2</ele>
        <time>2025-08-06T12:47:47Z</time>
      </trkpt>
      <trkpt lat="48.04719" lon="7.00277">
        <ele>1057.8</ele>
        <time>2025-08-06T12:47:48Z</time>
      </trkpt>
      <trkpt lat="48.04708" lon="7.00274">
        <ele>1057.2</ele>
        <time>2025-08-06T12:47:49Z</time>
      </trkpt>
      <trkpt lat="48.04695" lon="7.0027">
        <ele>1056</ele>
        <time>2025-08-06T12:47:50Z</time>
      </trkpt>
      <trkpt lat="48.04673" lon="7.00261">
        <ele>1054</ele>
        <time>2025-08-06T12:47:52Z</time>
      </trkpt>
      <trkpt lat="48.04662" lon="7.00255">
        <ele>1053</ele>
        <time>2025-08-06T12:47:53Z</time>
      </trkpt>
      <trkpt lat="48.04641" lon="7.0024">
        <ele>1051.2</ele>
        <time>2025-08-06T12:47:55Z</time>
      </trkpt>
      <trkpt lat="48.04621" lon="7.00221">
        <ele>1048.8</ele>
        <time>2025-08-06T12:47:57Z</time>
      </trkpt>
      <trkpt lat="48.04612" lon="7.0021">
        <ele>1047.8</ele>
        <time>2025-08-06T12:47:58Z</time>
      </trkpt>
      <trkpt lat="48.04603" lon="7.00198">
        <ele>1047</ele>
        <time>2025-08-06T12:47:59Z</time>
      </trkpt>
      <trkpt lat="48.04595" lon="7.00185">
        <ele>1045.8</ele>
        <time>2025-08-06T12:48:00Z</time>
      </trkpt>
      <trkpt lat="48.04588" lon="7.00171">
        <ele>1044.8</ele>
        <time>2025-08-06T12:48:01Z</time>
      </trkpt>
      <trkpt lat="48.04582" lon="7.00156">
        <ele>1043.4</ele>
        <time>2025-08-06T12:48:02Z</time>
      </trkpt>
      <trkpt lat="48.04569" lon="7.00121">
        <ele>1041.8</ele>
        <time>2025-08-06T12:48:04Z</time>
      </trkpt>
      <trkpt lat="48.04566" lon="7.00108">
        <ele>1040.4</ele>
        <time>2025-08-06T12:48:05Z</time>
      </trkpt>
      <trkpt lat="48.04557" lon="7.00074">
        <ele>1038.4</ele>
        <time>2025-08-06T12:48:07Z</time>
      </trkpt>
      <trkpt lat="48.04549" lon="7.00039">
        <ele>1036.8</ele>
        <time>2025-08-06T12:48:09Z</time>
      </trkpt>
      <trkpt lat="48.04546" lon="7.00022">
        <ele>1035.4</ele>
        <time>2025-08-06T12:48:10Z</time>
      </trkpt>
      <trkpt lat="48.04541" lon="6.99985">
        <ele>1033</ele>
        <time>2025-08-06T12:48:12Z</time>
      </trkpt>
      <trkpt lat="48.04539" lon="6.99963">
        <ele>1032.4</ele>
        <time>2025-08-06T12:48:13Z</time>
      </trkpt>
      <trkpt lat="48.04539" lon="6.99948">
        <ele>1030.8</ele>
        <time>2025-08-06T12:48:14Z</time>
      </trkpt>
      <trkpt lat="48.04541" lon="6.99911">
        <ele>1028.8</ele>
        <time>2025-08-06T12:48:16Z</time>
      </trkpt>
      <trkpt lat="48.04545" lon="6.99892">
        <ele>1027.2</ele>
        <time>2025-08-06T12:48:17Z</time>
      </trkpt>
      <trkpt lat="48.04554" lon="6.99858">
        <ele>1025.8</ele>
        <time>2025-08-06T12:48:19Z</time>
      </trkpt>
      <trkpt lat="48.0456" lon="6.99841">
        <ele>1024.6</ele>
        <time>2025-08-06T12:48:20Z</time>
      </trkpt>
      <trkpt lat="48.04566" lon="6.99825">
        <ele>1022.8</ele>
        <time>2025-08-06T12:48:21Z</time>
      </trkpt>
      <trkpt lat="48.04574" lon="6.99811">
        <ele>1021.8</ele>
        <time>2025-08-06T12:48:22Z</time>
      </trkpt>
      <trkpt lat="48.04582" lon="6.99798">
        <ele>1021.4</ele>
        <time>2025-08-06T12:48:23Z</time>
      </trkpt>
      <trkpt lat="48.04591" lon="6.99784">
        <ele>1020.2</ele>
        <time>2025-08-06T12:48:24Z</time>
      </trkpt>
      <trkpt lat="48.04606" lon="6.99754">
        <ele>1018</ele>
        <time>2025-08-06T12:48:26Z</time>
      </trkpt>
      <trkpt lat="48.0462" lon="6.99721">
        <ele>1015.8</ele>
        <time>2025-08-06T12:48:28Z</time>
      </trkpt>
      <trkpt lat="48.04626" lon="6.99704">
        <ele>1014.4</ele>
        <time>2025-08-06T12:48:29Z</time>
      </trkpt>
      <trkpt lat="48.04644" lon="6.99677">
        <ele>1012.2</ele>
        <time>2025-08-06T12:48:31Z</time>
      </trkpt>
      <trkpt lat="48.04653" lon="6.99666">
        <ele>1011.4</ele>
        <time>2025-08-06T12:48:32Z</time>
      </trkpt>
      <trkpt lat="48.04663" lon="6.99654">
        <ele>1010</ele>
        <time>2025-08-06T12:48:33Z</time>
      </trkpt>
      <trkpt lat="48.04674" lon="6.99638">
        <ele>1008.6</ele>
        <time>2025-08-06T12:48:34Z</time>
      </trkpt>
      <trkpt lat="48.04689" lon="6.99613">
        <ele>1006.6</ele>
        <time>2025-08-06T12:48:36Z</time>
      </trkpt>
      <trkpt lat="48.04706" lon="6.99585">
        <ele>1004.8</ele>
        <time>2025-08-06T12:48:38Z</time>
      </trkpt>
      <trkpt lat="48.04722" lon="6.99558">
        <ele>1002.4</ele>
        <time>2025-08-06T12:48:40Z</time>
      </trkpt>
      <trkpt lat="48.0473" lon="6.99544">
        <ele>1001</ele>
        <time>2025-08-06T12:48:41Z</time>
      </trkpt>
      <trkpt lat="48.04746" lon="6.99516">
        <ele>999</ele>
        <time>2025-08-06T12:48:43Z</time>
      </trkpt>
      <trkpt lat="48.04762" lon="6.99488">
        <ele>997</ele>
        <time>2025-08-06T12:48:45Z</time>
      </trkpt>
      <trkpt lat="48.0477" lon="6.99475">
        <ele>995</ele>
        <time>2025-08-06T12:48:46Z</time>
      </trkpt>
      <trkpt lat="48.04778" lon="6.99463">
        <ele>994.2</ele>
        <time>2025-08-06T12:48:47Z</time>
      </trkpt>
      <trkpt lat="48.04785" lon="6.99452">
        <ele>992.8</ele>
        <time>2025-08-06T12:48:48Z</time>
      </trkpt>
      <trkpt lat="48.04794" lon="6.99443">
        <ele>992</ele>
        <time>2025-08-06T12:48:49Z</time>
      </trkpt>
      <trkpt lat="48.04802" lon="6.99437">
        <ele>990.2</ele>
        <time>2025-08-06T12:48:50Z</time>
      </trkpt>
      <trkpt lat="48.04812" lon="6.99432">
        <ele>988.6</ele>
        <time>2025-08-06T12:48:51Z</time>
      </trkpt>
      <trkpt lat="48.04821" lon="6.99425">
        <ele>987.8</ele>
        <time>2025-08-06T12:48:52Z</time>
      </trkpt>
      <trkpt lat="48.04829" lon="6.99416">
        <ele>986.4</ele>
        <time>2025-08-06T12:48:53Z</time>
      </trkpt>
      <trkpt lat="48.04836" lon="6.99405">
        <ele>985.8</ele>
        <time>2025-08-06T12:48:54Z</time>
      </trkpt>
      <trkpt lat="48.04842" lon="6.99393">
        <ele>984.2</ele>
        <time>2025-08-06T12:48:55Z</time>
      </trkpt>
      <trkpt lat="48.04845" lon="6.9938">
        <ele>983.6</ele>
        <time>2025-08-06T12:48:56Z</time>
      </trkpt>
      <trkpt lat="48.04846" lon="6.99365">
        <ele>982.6</ele>
        <time>2025-08-06T12:48:57Z</time>
      </trkpt>
      <trkpt lat="48.04846" lon="6.99349">
        <ele>981.8</ele>
        <time>2025-08-06T12:48:58Z</time>
      </trkpt>
      <trkpt lat="48.04843" lon="6.99333">
        <ele>981</ele>
        <time>2025-08-06T12:48:59Z</time>
      </trkpt>
      <trkpt lat="48.04838" lon="6.99301">
        <ele>979.4</ele>
        <time>2025-08-06T12:49:01Z</time>
      </trkpt>
      <trkpt lat="48.04836" lon="6.99286">
        <ele>978</ele>
        <time>2025-08-06T12:49:02Z</time>
      </trkpt>
      <trkpt lat="48.04836" lon="6.9927">
        <ele>977.2</ele>
        <time>2025-08-06T12:49:03Z</time>
      </trkpt>
      <trkpt lat="48.04839" lon="6.99255">
        <ele>976.4</ele>
        <time>2025-08-06T12:49:04Z</time>
      </trkpt>
      <trkpt lat="48.04843" lon="6.99241">
        <ele>975.2</ele>
        <time>2025-08-06T12:49:05Z</time>
      </trkpt>
      <trkpt lat="48.04847" lon="6.99227">
        <ele>974.8</ele>
        <time>2025-08-06T12:49:06Z</time>
      </trkpt>
      <trkpt lat="48.04853" lon="6.99212">
        <ele>973.4</ele>
        <time>2025-08-06T12:49:07Z</time>
      </trkpt>
      <trkpt lat="48.04858" lon="6.99197">
        <ele>972.8</ele>
        <time>2025-08-06T12:49:08Z</time>
      </trkpt>
      <trkpt lat="48.0486" lon="6.99181">
        <ele>971.6</ele>
        <time>2025-08-06T12:49:09Z</time>
      </trkpt>
      <trkpt lat="48.04862" lon="6.99163">
        <ele>970</ele>
        <time>2025-08-06T12:49:10Z</time>
      </trkpt>
      <trkpt lat="48.04864" lon="6.99129">
        <ele>968.2</ele>
        <time>2025-08-06T12:49:12Z</time>
      </trkpt>
      <trkpt lat="48.04864" lon="6.99111">
        <ele>967.4</ele>
        <time>2025-08-06T12:49:13Z</time>
      </trkpt>
      <trkpt lat="48.04863" lon="6.99094">
        <ele>966</ele>
        <time>2025-08-06T12:49:14Z</time>
      </trkpt>
      <trkpt lat="48.04862" lon="6.99078">
        <ele>964.8</ele>
        <time>2025-08-06T12:49:15Z</time>
      </trkpt>
      <trkpt lat="48.04862" lon="6.99061">
        <ele>964.4</ele>
        <time>2025-08-06T12:49:16Z</time>
      </trkpt>
      <trkpt lat="48.04864" lon="6.99045">
        <ele>963</ele>
        <time>2025-08-06T12:49:17Z</time>
      </trkpt>
      <trkpt lat="48.04867" lon="6.99031">
        <ele>962.4</ele>
        <time>2025-08-06T12:49:18Z</time>
      </trkpt>
      <trkpt lat="48.04873" lon="6.99018">
        <ele>961.6</ele>
        <time>2025-08-06T12:49:19Z</time>
      </trkpt>
      <trkpt lat="48.0488" lon="6.99006">
        <ele>960.6</ele>
        <time>2025-08-06T12:49:20Z</time>
      </trkpt>
      <trkpt lat="48.04887" lon="6.98994">
        <ele>958.8</ele>
        <time>2025-08-06T12:49:21Z</time>
      </trkpt>
      <trkpt lat="48.04893" lon="6.98981">
        <ele>957.6</ele>
        <time>2025-08-06T12:49:22Z</time>
      </trkpt>
      <trkpt lat="48.04895" lon="6.98967">
        <ele>957.2</ele>
        <time>2025-08-06T12:49:23Z</time>
      </trkpt>
      <trkpt lat="48.04895" lon="6.98951">
        <ele>956</ele>
        <time>2025-08-06T12:49:24Z</time>
      </trkpt>
      <trkpt lat="48.04891" lon="6.9892">
        <ele>953.6</ele>
        <time>2025-08-06T12:49:26Z</time>
      </trkpt>
      <trkpt lat="48.04889" lon="6.98903">
        <ele>952.8</ele>
        <time>2025-08-06T12:49:27Z</time>
      </trkpt>
      <trkpt lat="48.04888" lon="6.98887">
        <ele>952.2</ele>
        <time>2025-08-06T12:49:28Z</time>
      </trkpt>
      <trkpt lat="48.04889" lon="6.98872">
        <ele>950.8</ele>
        <time>2025-08-06T12:49:29Z</time>
      </trkpt>
      <trkpt lat="48.04895" lon="6.98843">
        <ele>949</ele>
        <time>2025-08-06T12:49:31Z</time>
      </trkpt>
      <trkpt lat="48.04905" lon="6.98831">
        <ele>947.2</ele>
        <time>2025-08-06T12:49:32Z</time>
      </trkpt>
      <trkpt lat="48.04925" lon="6.98809">
        <ele>945.6</ele>
        <time>2025-08-06T12:49:34Z</time>
      </trkpt>
      <trkpt lat="48.04942" lon="6.9879">
        <ele>943.4</ele>
        <time>2025-08-06T12:49:36Z</time>
      </trkpt>
      <trkpt lat="48.04951" lon="6.9878">
        <ele>943</ele>
        <time>2025-08-06T12:49:37Z</time>
      </trkpt>
      <trkpt lat="48.0496" lon="6.9877">
        <ele>942.2</ele>
        <time>2025-08-06T12:49:38Z</time>
      </trkpt>
      <trkpt lat="48.04978" lon="6.98752">
        <ele>941.2</ele>
        <time>2025-08-06T12:49:40Z</time>
      </trkpt>
      <trkpt lat="48.04987" lon="6.98742">
        <ele>939.6</ele>
        <time>2025-08-06T12:49:41Z</time>
      </trkpt>
      <trkpt lat="48.04995" lon="6.98732">
        <ele>938.8</ele>
        <time>2025-08-06T12:49:42Z</time>
      </trkpt>
      <trkpt lat="48.05001" lon="6.98719">
        <ele>936.6</ele>
        <time>2025-08-06T12:49:43Z</time>
      </trkpt>
      <trkpt lat="48.05005" lon="6.98705">
        <ele>935.4</ele>
        <time>2025-08-06T12:49:44Z</time>
      </trkpt>
      <trkpt lat="48.05008" lon="6.9869">
        <ele>934.8</ele>
        <time>2025-08-06T12:49:45Z</time>
      </trkpt>
      <trkpt lat="48.05009" lon="6.98675">
        <ele>934</ele>
        <time>2025-08-06T12:49:46Z</time>
      </trkpt>
      <trkpt lat="48.05011" lon="6.98646">
        <ele>932.4</ele>
        <time>2025-08-06T12:49:48Z</time>
      </trkpt>
      <trkpt lat="48.05012" lon="6.98632">
        <ele>932</ele>
        <time>2025-08-06T12:49:49Z</time>
      </trkpt>
      <trkpt lat="48.05013" lon="6.98607">
        <ele>931.4</ele>
        <time>2025-08-06T12:49:51Z</time>
      </trkpt>
      <trkpt lat="48.05015" lon="6.9857">
        <ele>931.2</ele>
        <time>2025-08-06T12:49:54Z</time>
      </trkpt>
      <trkpt lat="48.05018" lon="6.98519">
        <ele>932</ele>
        <time>2025-08-06T12:49:59Z</time>
      </trkpt>
      <trkpt lat="48.05019" lon="6.9851">
        <ele>932.4</ele>
        <time>2025-08-06T12:50:00Z</time>
      </trkpt>
      <trkpt lat="48.05022" lon="6.98492">
        <ele>932.8</ele>
        <time>2025-08-06T12:50:02Z</time>
      </trkpt>
      <trkpt lat="48.0502" lon="6.98475">
        <ele>933.4</ele>
        <time>2025-08-06T12:50:04Z</time>
      </trkpt>
      <trkpt lat="48.05018" lon="6.98467">
        <ele>933.6</ele>
        <time>2025-08-06T12:50:05Z</time>
      </trkpt>
      <trkpt lat="48.05013" lon="6.98453">
        <ele>934</ele>
        <time>2025-08-06T12:50:07Z</time>
      </trkpt>
      <trkpt lat="48.05008" lon="6.98438">
        <ele>934.4</ele>
        <time>2025-08-06T12:50:09Z</time>
      </trkpt>
      <trkpt lat="48.05009" lon="6.98431">
        <ele>934.6</ele>
        <time>2025-08-06T12:50:10Z</time>
      </trkpt>
      <trkpt lat="48.05015" lon="6.98405">
        <ele>935.2</ele>
        <time>2025-08-06T12:50:14Z</time>
      </trkpt>
      <trkpt lat="48.05018" lon="6.98387">
        <ele>935.6</ele>
        <time>2025-08-06T12:50:17Z</time>
      </trkpt>
      <trkpt lat="48.0502" lon="6.98382">
        <ele>935.8</ele>
        <time>2025-08-06T12:50:18Z</time>
      </trkpt>
      <trkpt lat="48.05021" lon="6.98376">
        <ele>936.2</ele>
        <time>2025-08-06T12:50:19Z</time>
      </trkpt>
      <trkpt lat="48.05029" lon="6.98356">
        <ele>937</ele>
        <time>2025-08-06T12:50:23Z</time>
      </trkpt>
      <trkpt lat="48.05034" lon="6.98342">
        <ele>937.6</ele>
        <time>2025-08-06T12:50:26Z</time>
      </trkpt>
      <trkpt lat="48.05037" lon="6.98322">
        <ele>938.2</ele>
        <time>2025-08-06T12:50:30Z</time>
      </trkpt>
      <trkpt lat="48.05036" lon="6.98318">
        <ele>938.4</ele>
        <time>2025-08-06T12:50:31Z</time>
      </trkpt>
      <trkpt lat="48.05032" lon="6.98286">
        <ele>939.2</ele>
        <time>2025-08-06T12:50:37Z</time>
      </trkpt>
      <trkpt lat="48.05026" lon="6.9825">
        <ele>940.2</ele>
        <time>2025-08-06T12:50:44Z</time>
      </trkpt>
      <trkpt lat="48.05024" lon="6.98236">
        <ele>940.6</ele>
        <time>2025-08-06T12:50:47Z</time>
      </trkpt>
      <trkpt lat="48.05021" lon="6.98223">
        <ele>941.2</ele>
        <time>2025-08-06T12:50:50Z</time>
      </trkpt>
      <trkpt lat="48.05015" lon="6.98213">
        <ele>941.6</ele>
        <time>2025-08-06T12:50:53Z</time>
      </trkpt>
      <trkpt lat="48.05007" lon="6.98194">
        <ele>942.4</ele>
        <time>2025-08-06T12:50:58Z</time>
      </trkpt>
      <trkpt lat="48.05001" lon="6.98183">
        <ele>943.4</ele>
        <time>2025-08-06T12:51:01Z</time>
      </trkpt>
      <trkpt lat="48.04997" lon="6.98175">
        <ele>943.6</ele>
        <time>2025-08-06T12:51:03Z</time>
      </trkpt>
      <trkpt lat="48.04992" lon="6.98154">
        <ele>944.4</ele>
        <time>2025-08-06T12:51:08Z</time>
      </trkpt>
      <trkpt lat="48.04991" lon="6.98151">
        <ele>944.6</ele>
        <time>2025-08-06T12:51:09Z</time>
      </trkpt>
      <trkpt lat="48.04989" lon="6.98125">
        <ele>945.8</ele>
        <time>2025-08-06T12:51:15Z</time>
      </trkpt>
      <trkpt lat="48.04989" lon="6.98115">
        <ele>946.2</ele>
        <time>2025-08-06T12:51:17Z</time>
      </trkpt>
      <trkpt lat="48.04987" lon="6.98102">
        <ele>947</ele>
        <time>2025-08-06T12:51:20Z</time>
      </trkpt>
      <trkpt lat="48.04985" lon="6.98094">
        <ele>947.2</ele>
        <time>2025-08-06T12:51:22Z</time>
      </trkpt>
      <trkpt lat="48.04981" lon="6.98077">
        <ele>947.8</ele>
        <time>2025-08-06T12:51:26Z</time>
      </trkpt>
      <trkpt lat="48.04981" lon="6.98067">
        <ele>948</ele>
        <time>2025-08-06T12:51:28Z</time>
      </trkpt>
      <trkpt lat="48.04981" lon="6.98061">
        <ele>948.4</ele>
        <time>2025-08-06T12:51:29Z</time>
      </trkpt>
      <trkpt lat="48.04981" lon="6.98052">
        <ele>948.8</ele>
        <time>2025-08-06T12:51:31Z</time>
      </trkpt>
      <trkpt lat="48.0498" lon="6.9804">
        <ele>949.4</ele>
        <time>2025-08-06T12:51:34Z</time>
      </trkpt>
      <trkpt lat="48.04973" lon="6.98024">
        <ele>950</ele>
        <time>2025-08-06T12:51:38Z</time>
      </trkpt>
      <trkpt lat="48.04969" lon="6.98018">
        <ele>950.4</ele>
        <time>2025-08-06T12:51:40Z</time>
      </trkpt>
      <trkpt lat="48.04963" lon="6.98001">
        <ele>951</ele>
        <time>2025-08-06T12:51:45Z</time>
      </trkpt>
      <trkpt lat="48.04961" lon="6.97997">
        <ele>951.4</ele>
        <time>2025-08-06T12:51:46Z</time>
      </trkpt>
      <trkpt lat="48.04956" lon="6.97978">
        <ele>952.2</ele>
        <time>2025-08-06T12:51:51Z</time>
      </trkpt>
      <trkpt lat="48.04952" lon="6.9797">
        <ele>952.4</ele>
        <time>2025-08-06T12:51:53Z</time>
      </trkpt>
      <trkpt lat="48.0495" lon="6.9796">
        <ele>952.8</ele>
        <time>2025-08-06T12:51:55Z</time>
      </trkpt>
      <trkpt lat="48.04949" lon="6.97951">
        <ele>953</ele>
        <time>2025-08-06T12:51:57Z</time>
      </trkpt>
      <trkpt lat="48.04947" lon="6.97944">
        <ele>953.2</ele>
        <time>2025-08-06T12:51:59Z</time>
      </trkpt>
      <trkpt lat="48.04939" lon="6.97922">
        <ele>954</ele>
        <time>2025-08-06T12:52:06Z</time>
      </trkpt>
      <trkpt lat="48.04935" lon="6.9791">
        <ele>954.2</ele>
        <time>2025-08-06T12:52:09Z</time>
      </trkpt>
      <trkpt lat="48.04932" lon="6.97903">
        <ele>954.4</ele>
        <time>2025-08-06T12:52:11Z</time>
      </trkpt>
      <trkpt lat="48.04926" lon="6.97885">
        <ele>955.4</ele>
        <time>2025-08-06T12:52:16Z</time>
      </trkpt>
      <trkpt lat="48.04921" lon="6.97875">
        <ele>955.8</ele>
        <time>2025-08-06T12:52:19Z</time>
      </trkpt>
      <trkpt lat="48.04915" lon="6.97862">
        <ele>956.4</ele>
        <time>2025-08-06T12:52:23Z</time>
      </trkpt>
      <trkpt lat="48.04904" lon="6.97842">
        <ele>957.4</ele>
        <time>2025-08-06T12:52:29Z</time>
      </trkpt>
      <trkpt lat="48.04903" lon="6.97839">
        <ele>957.6</ele>
        <time>2025-08-06T12:52:30Z</time>
      </trkpt>
      <trkpt lat="48.0489" lon="6.97818">
        <ele>958.8</ele>
        <time>2025-08-06T12:52:37Z</time>
      </trkpt>
      <trkpt lat="48.04888" lon="6.97814">
        <ele>958.8</ele>
        <time>2025-08-06T12:52:38Z</time>
      </trkpt>
      <trkpt lat="48.04878" lon="6.97795">
        <ele>959.8</ele>
        <time>2025-08-06T12:52:44Z</time>
      </trkpt>
      <trkpt lat="48.04873" lon="6.97785">
        <ele>960.4</ele>
        <time>2025-08-06T12:52:47Z</time>
      </trkpt>
      <trkpt lat="48.04871" lon="6.97778">
        <ele>960.8</ele>
        <time>2025-08-06T12:52:49Z</time>
      </trkpt>
      <trkpt lat="48.04865" lon="6.97752">
        <ele>962</ele>
        <time>2025-08-06T12:52:56Z</time>
      </trkpt>
      <trkpt lat="48.04859" lon="6.97729">
        <ele>963.2</ele>
        <time>2025-08-06T12:53:02Z</time>
      </trkpt>
      <trkpt lat="48.04858" lon="6.9772">
        <ele>963.4</ele>
        <time>2025-08-06T12:53:04Z</time>
      </trkpt>
      <trkpt lat="48.04855" lon="6.97714">
        <ele>963.6</ele>
        <time>2025-08-06T12:53:06Z</time>
      </trkpt>
      <trkpt lat="48.04851" lon="6.97703">
        <ele>964.2</ele>
        <time>2025-08-06T12:53:09Z</time>
      </trkpt>
      <trkpt lat="48.04842" lon="6.97678">
        <ele>965.2</ele>
        <time>2025-08-06T12:53:16Z</time>
      </trkpt>
      <trkpt lat="48.0484" lon="6.97675">
        <ele>965.4</ele>
        <time>2025-08-06T12:53:17Z</time>
      </trkpt>
      <trkpt lat="48.0483" lon="6.97657">
        <ele>966.2</ele>
        <time>2025-08-06T12:53:23Z</time>
      </trkpt>
      <trkpt lat="48.04823" lon="6.97646">
        <ele>967.2</ele>
        <time>2025-08-06T12:53:27Z</time>
      </trkpt>
      <trkpt lat="48.04821" lon="6.97644">
        <ele>967.4</ele>
        <time>2025-08-06T12:53:28Z</time>
      </trkpt>
      <trkpt lat="48.04811" lon="6.97627">
        <ele>968.4</ele>
        <time>2025-08-06T12:53:34Z</time>
      </trkpt>
      <trkpt lat="48.04808" lon="6.97621">
        <ele>968.8</ele>
        <time>2025-08-06T12:53:36Z</time>
      </trkpt>
      <trkpt lat="48.04804" lon="6.97614">
        <ele>969.4</ele>
        <time>2025-08-06T12:53:38Z</time>
      </trkpt>
      <trkpt lat="48.04792" lon="6.97596">
        <ele>970.4</ele>
        <time>2025-08-06T12:53:44Z</time>
      </trkpt>
      <trkpt lat="48.04789" lon="6.97593">
        <ele>970.6</ele>
        <time>2025-08-06T12:53:45Z</time>
      </trkpt>
      <trkpt lat="48.04768" lon="6.97577">
        <ele>971.4</ele>
        <time>2025-08-06T12:53:52Z</time>
      </trkpt>
      <trkpt lat="48.04765" lon="6.97575">
        <ele>971.6</ele>
        <time>2025-08-06T12:53:53Z</time>
      </trkpt>
      <trkpt lat="48.0474" lon="6.97566">
        <ele>971.8</ele>
        <time>2025-08-06T12:54:00Z</time>
      </trkpt>
      <trkpt lat="48.04712" lon="6.97562">
        <ele>971.6</ele>
        <time>2025-08-06T12:54:07Z</time>
      </trkpt>
      <trkpt lat="48.04705" lon="6.97563">
        <ele>971.4</ele>
        <time>2025-08-06T12:54:10Z</time>
      </trkpt>
      <trkpt lat="48.04704" lon="6.97563">
        <ele>971.2</ele>
        <time>2025-08-06T12:54:11Z</time>
      </trkpt>
      <trkpt lat="48.04704" lon="6.97563">
        <ele>971.2</ele>
        <time>2025-08-06T12:54:12Z</time>
      </trkpt>
      <trkpt lat="48.04708" lon="6.97563">
        <ele>970.6</ele>
        <time>2025-08-06T12:54:36Z</time>
      </trkpt>
      <trkpt lat="48.04712" lon="6.97563">
        <ele>970.6</ele>
        <time>2025-08-06T12:54:38Z</time>
      </trkpt>
      <trkpt lat="48.0473" lon="6.97565">
        <ele>971</ele>
        <time>2025-08-06T12:54:45Z</time>
      </trkpt>
      <trkpt lat="48.04742" lon="6.97567">
        <ele>971.6</ele>
        <time>2025-08-06T12:54:50Z</time>
      </trkpt>
      <trkpt lat="48.04751" lon="6.97568">
        <ele>971.8</ele>
        <time>2025-08-06T12:54:54Z</time>
      </trkpt>
      <trkpt lat="48.04769" lon="6.97558">
        <ele>972</ele>
        <time>2025-08-06T12:55:01Z</time>
      </trkpt>
      <trkpt lat="48.0477" lon="6.97554">
        <ele>972</ele>
        <time>2025-08-06T12:55:02Z</time>
      </trkpt>
      <trkpt lat="48.04772" lon="6.97542">
        <ele>972</ele>
        <time>2025-08-06T12:55:05Z</time>
      </trkpt>
      <trkpt lat="48.04774" lon="6.97522">
        <ele>972.6</ele>
        <time>2025-08-06T12:55:10Z</time>
      </trkpt>
      <trkpt lat="48.04774" lon="6.97518">
        <ele>972.8</ele>
        <time>2025-08-06T12:55:11Z</time>
      </trkpt>
      <trkpt lat="48.04778" lon="6.97494">
        <ele>973.8</ele>
        <time>2025-08-06T12:55:18Z</time>
      </trkpt>
      <trkpt lat="48.04778" lon="6.97491">
        <ele>974.2</ele>
        <time>2025-08-06T12:55:19Z</time>
      </trkpt>
      <trkpt lat="48.04779" lon="6.97488">
        <ele>974.2</ele>
        <time>2025-08-06T12:55:20Z</time>
      </trkpt>
      <trkpt lat="48.04781" lon="6.97478">
        <ele>975</ele>
        <time>2025-08-06T12:55:23Z</time>
      </trkpt>
      <trkpt lat="48.04783" lon="6.97458">
        <ele>975.8</ele>
        <time>2025-08-06T12:55:29Z</time>
      </trkpt>
      <trkpt lat="48.04784" lon="6.97451">
        <ele>976.2</ele>
        <time>2025-08-06T12:55:31Z</time>
      </trkpt>
      <trkpt lat="48.04785" lon="6.97438">
        <ele>976.8</ele>
        <time>2025-08-06T12:55:35Z</time>
      </trkpt>
      <trkpt lat="48.04786" lon="6.97427">
        <ele>977.4</ele>
        <time>2025-08-06T12:55:38Z</time>
      </trkpt>
      <trkpt lat="48.04788" lon="6.97409">
        <ele>978.2</ele>
        <time>2025-08-06T12:55:43Z</time>
      </trkpt>
      <trkpt lat="48.04788" lon="6.97402">
        <ele>978.4</ele>
        <time>2025-08-06T12:55:45Z</time>
      </trkpt>
      <trkpt lat="48.04787" lon="6.97391">
        <ele>978.8</ele>
        <time>2025-08-06T12:55:48Z</time>
      </trkpt>
      <trkpt lat="48.04786" lon="6.97375">
        <ele>979.6</ele>
        <time>2025-08-06T12:55:52Z</time>
      </trkpt>
      <trkpt lat="48.04785" lon="6.97366">
        <ele>980.2</ele>
        <time>2025-08-06T12:55:55Z</time>
      </trkpt>
      <trkpt lat="48.04783" lon="6.97359">
        <ele>980.6</ele>
        <time>2025-08-06T12:55:57Z</time>
      </trkpt>
      <trkpt lat="48.04781" lon="6.97345">
        <ele>981.4</ele>
        <time>2025-08-06T12:56:01Z</time>
      </trkpt>
      <trkpt lat="48.0478" lon="6.97339">
        <ele>981.6</ele>
        <time>2025-08-06T12:56:03Z</time>
      </trkpt>
      <trkpt lat="48.0478" lon="6.97336">
        <ele>981.8</ele>
        <time>2025-08-06T12:56:04Z</time>
      </trkpt>
      <trkpt lat="48.04772" lon="6.97326">
        <ele>982.6</ele>
        <time>2025-08-06T12:56:08Z</time>
      </trkpt>
      <trkpt lat="48.04769" lon="6.97324">
        <ele>982.8</ele>
        <time>2025-08-06T12:56:09Z</time>
      </trkpt>
      <trkpt lat="48.0476" lon="6.97314">
        <ele>984</ele>
        <time>2025-08-06T12:56:14Z</time>
      </trkpt>
      <trkpt lat="48.04757" lon="6.9731">
        <ele>984.4</ele>
        <time>2025-08-06T12:56:16Z</time>
      </trkpt>
      <trkpt lat="48.04749" lon="6.97297">
        <ele>985</ele>
        <time>2025-08-06T12:56:20Z</time>
      </trkpt>
      <trkpt lat="48.04744" lon="6.97289">
        <ele>985.6</ele>
        <time>2025-08-06T12:56:23Z</time>
      </trkpt>
      <trkpt lat="48.04741" lon="6.97277">
        <ele>986.2</ele>
        <time>2025-08-06T12:56:26Z</time>
      </trkpt>
      <trkpt lat="48.04738" lon="6.97266">
        <ele>986.4</ele>
        <time>2025-08-06T12:56:29Z</time>
      </trkpt>
      <trkpt lat="48.04736" lon="6.97259">
        <ele>987.4</ele>
        <time>2025-08-06T12:56:31Z</time>
      </trkpt>
      <trkpt lat="48.04733" lon="6.97248">
        <ele>988.2</ele>
        <time>2025-08-06T12:56:34Z</time>
      </trkpt>
      <trkpt lat="48.04731" lon="6.97245">
        <ele>988.4</ele>
        <time>2025-08-06T12:56:35Z</time>
      </trkpt>
      <trkpt lat="48.04728" lon="6.97239">
        <ele>988.4</ele>
        <time>2025-08-06T12:56:37Z</time>
      </trkpt>
      <trkpt lat="48.04724" lon="6.97231">
        <ele>988.6</ele>
        <time>2025-08-06T12:56:39Z</time>
      </trkpt>
      <trkpt lat="48.0472" lon="6.97213">
        <ele>989.6</ele>
        <time>2025-08-06T12:56:44Z</time>
      </trkpt>
      <trkpt lat="48.04719" lon="6.97205">
        <ele>990</ele>
        <time>2025-08-06T12:56:46Z</time>
      </trkpt>
      <trkpt lat="48.04719" lon="6.97202">
        <ele>990</ele>
        <time>2025-08-06T12:56:47Z</time>
      </trkpt>
      <trkpt lat="48.0472" lon="6.97191">
        <ele>990.6</ele>
        <time>2025-08-06T12:56:50Z</time>
      </trkpt>
      <trkpt lat="48.04722" lon="6.97187">
        <ele>990.6</ele>
        <time>2025-08-06T12:56:51Z</time>
      </trkpt>
      <trkpt lat="48.04726" lon="6.97173">
        <ele>991.6</ele>
        <time>2025-08-06T12:56:55Z</time>
      </trkpt>
      <trkpt lat="48.04729" lon="6.97158">
        <ele>992.8</ele>
        <time>2025-08-06T12:56:59Z</time>
      </trkpt>
      <trkpt lat="48.04732" lon="6.97145">
        <ele>993.4</ele>
        <time>2025-08-06T12:57:02Z</time>
      </trkpt>
      <trkpt lat="48.04733" lon="6.9714">
        <ele>993.4</ele>
        <time>2025-08-06T12:57:03Z</time>
      </trkpt>
      <trkpt lat="48.04733" lon="6.97127">
        <ele>994.2</ele>
        <time>2025-08-06T12:57:06Z</time>
      </trkpt>
      <trkpt lat="48.04733" lon="6.97113">
        <ele>994.6</ele>
        <time>2025-08-06T12:57:09Z</time>
      </trkpt>
      <trkpt lat="48.04732" lon="6.97105">
        <ele>995.2</ele>
        <time>2025-08-06T12:57:11Z</time>
      </trkpt>
      <trkpt lat="48.04735" lon="6.97092">
        <ele>995.8</ele>
        <time>2025-08-06T12:57:14Z</time>
      </trkpt>
      <trkpt lat="48.04733" lon="6.9708">
        <ele>996.2</ele>
        <time>2025-08-06T12:57:17Z</time>
      </trkpt>
      <trkpt lat="48.04731" lon="6.97066">
        <ele>997</ele>
        <time>2025-08-06T12:57:21Z</time>
      </trkpt>
      <trkpt lat="48.0473" lon="6.97058">
        <ele>997.4</ele>
        <time>2025-08-06T12:57:23Z</time>
      </trkpt>
      <trkpt lat="48.04727" lon="6.97033">
        <ele>998.2</ele>
        <time>2025-08-06T12:57:29Z</time>
      </trkpt>
      <trkpt lat="48.04727" lon="6.97029">
        <ele>998.4</ele>
        <time>2025-08-06T12:57:30Z</time>
      </trkpt>
      <trkpt lat="48.04723" lon="6.97011">
        <ele>999.2</ele>
        <time>2025-08-06T12:57:35Z</time>
      </trkpt>
      <trkpt lat="48.0472" lon="6.96999">
        <ele>999.4</ele>
        <time>2025-08-06T12:57:38Z</time>
      </trkpt>
      <trkpt lat="48.04718" lon="6.96987">
        <ele>1000</ele>
        <time>2025-08-06T12:57:41Z</time>
      </trkpt>
      <trkpt lat="48.04718" lon="6.96975">
        <ele>1000.4</ele>
        <time>2025-08-06T12:57:44Z</time>
      </trkpt>
      <trkpt lat="48.04714" lon="6.96954">
        <ele>1001.4</ele>
        <time>2025-08-06T12:57:49Z</time>
      </trkpt>
      <trkpt lat="48.04713" lon="6.9695">
        <ele>1001.4</ele>
        <time>2025-08-06T12:57:50Z</time>
      </trkpt>
      <trkpt lat="48.04708" lon="6.96926">
        <ele>1002.4</ele>
        <time>2025-08-06T12:57:56Z</time>
      </trkpt>
      <trkpt lat="48.04707" lon="6.96922">
        <ele>1002.6</ele>
        <time>2025-08-06T12:57:57Z</time>
      </trkpt>
      <trkpt lat="48.04706" lon="6.96896">
        <ele>1003.6</ele>
        <time>2025-08-06T12:58:03Z</time>
      </trkpt>
      <trkpt lat="48.04705" lon="6.96871">
        <ele>1004.6</ele>
        <time>2025-08-06T12:58:09Z</time>
      </trkpt>
      <trkpt lat="48.04716" lon="6.96845">
        <ele>1005.6</ele>
        <time>2025-08-06T12:58:15Z</time>
      </trkpt>
      <trkpt lat="48.0472" lon="6.96836">
        <ele>1005.8</ele>
        <time>2025-08-06T12:58:17Z</time>
      </trkpt>
      <trkpt lat="48.04729" lon="6.96813">
        <ele>1006.6</ele>
        <time>2025-08-06T12:58:23Z</time>
      </trkpt>
      <trkpt lat="48.04735" lon="6.96798">
        <ele>1007.4</ele>
        <time>2025-08-06T12:58:27Z</time>
      </trkpt>
      <trkpt lat="48.04739" lon="6.96773">
        <ele>1007.8</ele>
        <time>2025-08-06T12:58:32Z</time>
      </trkpt>
      <trkpt lat="48.0474" lon="6.96768">
        <ele>1007.8</ele>
        <time>2025-08-06T12:58:33Z</time>
      </trkpt>
      <trkpt lat="48.04739" lon="6.96751">
        <ele>1008</ele>
        <time>2025-08-06T12:58:38Z</time>
      </trkpt>
      <trkpt lat="48.0474" lon="6.9675">
        <ele>1008</ele>
        <time>2025-08-06T12:58:42Z</time>
      </trkpt>
      <trkpt lat="48.0474" lon="6.9675">
        <ele>1008</ele>
        <time>2025-08-06T12:58:43Z</time>
      </trkpt>
      <trkpt lat="48.04747" lon="6.96744">
        <ele>1008</ele>
        <time>2025-08-06T13:00:06Z</time>
      </trkpt>
      <trkpt lat="48.04748" lon="6.96734">
        <ele>1008</ele>
        <time>2025-08-06T13:00:09Z</time>
      </trkpt>
      <trkpt lat="48.04752" lon="6.9671">
        <ele>1008</ele>
        <time>2025-08-06T13:00:14Z</time>
      </trkpt>
      <trkpt lat="48.04749" lon="6.9668">
        <ele>1007.8</ele>
        <time>2025-08-06T13:00:19Z</time>
      </trkpt>
      <trkpt lat="48.04744" lon="6.96642">
        <ele>1007</ele>
        <time>2025-08-06T13:00:24Z</time>
      </trkpt>
      <trkpt lat="48.04744" lon="6.96631">
        <ele>1006.8</ele>
        <time>2025-08-06T13:00:25Z</time>
      </trkpt>
      <trkpt lat="48.04745" lon="6.96622">
        <ele>1006.8</ele>
        <time>2025-08-06T13:00:26Z</time>
      </trkpt>
      <trkpt lat="48.04745" lon="6.96602">
        <ele>1006.4</ele>
        <time>2025-08-06T13:00:28Z</time>
      </trkpt>
      <trkpt lat="48.0475" lon="6.96577">
        <ele>1005.8</ele>
        <time>2025-08-06T13:00:30Z</time>
      </trkpt>
      <trkpt lat="48.04752" lon="6.96567">
        <ele>1005.6</ele>
        <time>2025-08-06T13:00:31Z</time>
      </trkpt>
      <trkpt lat="48.04757" lon="6.96546">
        <ele>1004.8</ele>
        <time>2025-08-06T13:00:33Z</time>
      </trkpt>
      <trkpt lat="48.04762" lon="6.96533">
        <ele>1004.6</ele>
        <time>2025-08-06T13:00:34Z</time>
      </trkpt>
      <trkpt lat="48.04768" lon="6.96523">
        <ele>1004.4</ele>
        <time>2025-08-06T13:00:35Z</time>
      </trkpt>
      <trkpt lat="48.04773" lon="6.96514">
        <ele>1004.2</ele>
        <time>2025-08-06T13:00:36Z</time>
      </trkpt>
      <trkpt lat="48.04791" lon="6.96485">
        <ele>1003</ele>
        <time>2025-08-06T13:00:39Z</time>
      </trkpt>
      <trkpt lat="48.04803" lon="6.96467">
        <ele>1002</ele>
        <time>2025-08-06T13:00:41Z</time>
      </trkpt>
      <trkpt lat="48.04809" lon="6.96456">
        <ele>1001.8</ele>
        <time>2025-08-06T13:00:42Z</time>
      </trkpt>
      <trkpt lat="48.04817" lon="6.96428">
        <ele>1000.6</ele>
        <time>2025-08-06T13:00:44Z</time>
      </trkpt>
      <trkpt lat="48.0482" lon="6.964">
        <ele>999.8</ele>
        <time>2025-08-06T13:00:46Z</time>
      </trkpt>
      <trkpt lat="48.04821" lon="6.96385">
        <ele>999.6</ele>
        <time>2025-08-06T13:00:47Z</time>
      </trkpt>
      <trkpt lat="48.04821" lon="6.96373">
        <ele>999.2</ele>
        <time>2025-08-06T13:00:48Z</time>
      </trkpt>
      <trkpt lat="48.04823" lon="6.9634">
        <ele>998.2</ele>
        <time>2025-08-06T13:00:50Z</time>
      </trkpt>
      <trkpt lat="48.04829" lon="6.96295">
        <ele>996.6</ele>
        <time>2025-08-06T13:00:53Z</time>
      </trkpt>
      <trkpt lat="48.0484" lon="6.96236">
        <ele>994.8</ele>
        <time>2025-08-06T13:00:57Z</time>
      </trkpt>
      <trkpt lat="48.04844" lon="6.96204">
        <ele>993.8</ele>
        <time>2025-08-06T13:00:59Z</time>
      </trkpt>
      <trkpt lat="48.04845" lon="6.96185">
        <ele>993.2</ele>
        <time>2025-08-06T13:01:00Z</time>
      </trkpt>
      <trkpt lat="48.04846" lon="6.96169">
        <ele>992.8</ele>
        <time>2025-08-06T13:01:01Z</time>
      </trkpt>
      <trkpt lat="48.04844" lon="6.96141">
        <ele>991.8</ele>
        <time>2025-08-06T13:01:03Z</time>
      </trkpt>
      <trkpt lat="48.04842" lon="6.96124">
        <ele>991.6</ele>
        <time>2025-08-06T13:01:04Z</time>
      </trkpt>
      <trkpt lat="48.04835" lon="6.96096">
        <ele>991.2</ele>
        <time>2025-08-06T13:01:06Z</time>
      </trkpt>
      <trkpt lat="48.04833" lon="6.96082">
        <ele>990.6</ele>
        <time>2025-08-06T13:01:07Z</time>
      </trkpt>
      <trkpt lat="48.04833" lon="6.96054">
        <ele>989.8</ele>
        <time>2025-08-06T13:01:09Z</time>
      </trkpt>
      <trkpt lat="48.04835" lon="6.96026">
        <ele>989.4</ele>
        <time>2025-08-06T13:01:11Z</time>
      </trkpt>
      <trkpt lat="48.04837" lon="6.9597">
        <ele>988.4</ele>
        <time>2025-08-06T13:01:15Z</time>
      </trkpt>
      <trkpt lat="48.04838" lon="6.95884">
        <ele>986.8</ele>
        <time>2025-08-06T13:01:21Z</time>
      </trkpt>
      <trkpt lat="48.0484" lon="6.9587">
        <ele>986.4</ele>
        <time>2025-08-06T13:01:22Z</time>
      </trkpt>
      <trkpt lat="48.04847" lon="6.95813">
        <ele>985.6</ele>
        <time>2025-08-06T13:01:26Z</time>
      </trkpt>
      <trkpt lat="48.0485" lon="6.95784">
        <ele>985</ele>
        <time>2025-08-06T13:01:28Z</time>
      </trkpt>
      <trkpt lat="48.04851" lon="6.95772">
        <ele>984.4</ele>
        <time>2025-08-06T13:01:29Z</time>
      </trkpt>
      <trkpt lat="48.04853" lon="6.95714">
        <ele>983.2</ele>
        <time>2025-08-06T13:01:33Z</time>
      </trkpt>
      <trkpt lat="48.04852" lon="6.95688">
        <ele>983</ele>
        <time>2025-08-06T13:01:35Z</time>
      </trkpt>
      <trkpt lat="48.04854" lon="6.95648">
        <ele>982</ele>
        <time>2025-08-06T13:01:38Z</time>
      </trkpt>
      <trkpt lat="48.04858" lon="6.95606">
        <ele>981.4</ele>
        <time>2025-08-06T13:01:41Z</time>
      </trkpt>
      <trkpt lat="48.04862" lon="6.95578">
        <ele>981</ele>
        <time>2025-08-06T13:01:43Z</time>
      </trkpt>
      <trkpt lat="48.04871" lon="6.95522">
        <ele>980.2</ele>
        <time>2025-08-06T13:01:47Z</time>
      </trkpt>
      <trkpt lat="48.04875" lon="6.95508">
        <ele>979.8</ele>
        <time>2025-08-06T13:01:48Z</time>
      </trkpt>
      <trkpt lat="48.04884" lon="6.95481">
        <ele>978.8</ele>
        <time>2025-08-06T13:01:50Z</time>
      </trkpt>
      <trkpt lat="48.04889" lon="6.95468">
        <ele>978.4</ele>
        <time>2025-08-06T13:01:51Z</time>
      </trkpt>
      <trkpt lat="48.04895" lon="6.95455">
        <ele>977.8</ele>
        <time>2025-08-06T13:01:52Z</time>
      </trkpt>
      <trkpt lat="48.04901" lon="6.95441">
        <ele>977.2</ele>
        <time>2025-08-06T13:01:53Z</time>
      </trkpt>
      <trkpt lat="48.04908" lon="6.95427">
        <ele>977</ele>
        <time>2025-08-06T13:01:54Z</time>
      </trkpt>
      <trkpt lat="48.04913" lon="6.95411">
        <ele>976</ele>
        <time>2025-08-06T13:01:55Z</time>
      </trkpt>
      <trkpt lat="48.04921" lon="6.95378">
        <ele>974.4</ele>
        <time>2025-08-06T13:01:57Z</time>
      </trkpt>
      <trkpt lat="48.04928" lon="6.95344">
        <ele>973.2</ele>
        <time>2025-08-06T13:01:59Z</time>
      </trkpt>
      <trkpt lat="48.04933" lon="6.95328">
        <ele>972.2</ele>
        <time>2025-08-06T13:02:00Z</time>
      </trkpt>
      <trkpt lat="48.04939" lon="6.95311">
        <ele>971.8</ele>
        <time>2025-08-06T13:02:01Z</time>
      </trkpt>
      <trkpt lat="48.04945" lon="6.95295">
        <ele>970.8</ele>
        <time>2025-08-06T13:02:02Z</time>
      </trkpt>
      <trkpt lat="48.04953" lon="6.95275">
        <ele>970.6</ele>
        <time>2025-08-06T13:02:03Z</time>
      </trkpt>
      <trkpt lat="48.04958" lon="6.95263">
        <ele>969.6</ele>
        <time>2025-08-06T13:02:04Z</time>
      </trkpt>
      <trkpt lat="48.04966" lon="6.95248">
        <ele>968.4</ele>
        <time>2025-08-06T13:02:05Z</time>
      </trkpt>
      <trkpt lat="48.04974" lon="6.95233">
        <ele>967.8</ele>
        <time>2025-08-06T13:02:06Z</time>
      </trkpt>
      <trkpt lat="48.04981" lon="6.95217">
        <ele>966.4</ele>
        <time>2025-08-06T13:02:07Z</time>
      </trkpt>
      <trkpt lat="48.04995" lon="6.95186">
        <ele>964.6</ele>
        <time>2025-08-06T13:02:09Z</time>
      </trkpt>
      <trkpt lat="48.05002" lon="6.95171">
        <ele>963.4</ele>
        <time>2025-08-06T13:02:10Z</time>
      </trkpt>
      <trkpt lat="48.05015" lon="6.95139">
        <ele>961.6</ele>
        <time>2025-08-06T13:02:12Z</time>
      </trkpt>
      <trkpt lat="48.05027" lon="6.95106">
        <ele>959.8</ele>
        <time>2025-08-06T13:02:14Z</time>
      </trkpt>
      <trkpt lat="48.05039" lon="6.95076">
        <ele>957.8</ele>
        <time>2025-08-06T13:02:16Z</time>
      </trkpt>
      <trkpt lat="48.05045" lon="6.95061">
        <ele>956.6</ele>
        <time>2025-08-06T13:02:17Z</time>
      </trkpt>
      <trkpt lat="48.05052" lon="6.95047">
        <ele>955.8</ele>
        <time>2025-08-06T13:02:18Z</time>
      </trkpt>
      <trkpt lat="48.05061" lon="6.95033">
        <ele>954.4</ele>
        <time>2025-08-06T13:02:19Z</time>
      </trkpt>
      <trkpt lat="48.05078" lon="6.9501">
        <ele>952.6</ele>
        <time>2025-08-06T13:02:21Z</time>
      </trkpt>
      <trkpt lat="48.05094" lon="6.94985">
        <ele>950.8</ele>
        <time>2025-08-06T13:02:23Z</time>
      </trkpt>
      <trkpt lat="48.05101" lon="6.94967">
        <ele>949.8</ele>
        <time>2025-08-06T13:02:24Z</time>
      </trkpt>
      <trkpt lat="48.05111" lon="6.94939">
        <ele>947.4</ele>
        <time>2025-08-06T13:02:26Z</time>
      </trkpt>
      <trkpt lat="48.05118" lon="6.94924">
        <ele>946.8</ele>
        <time>2025-08-06T13:02:27Z</time>
      </trkpt>
      <trkpt lat="48.05126" lon="6.9491">
        <ele>945.6</ele>
        <time>2025-08-06T13:02:28Z</time>
      </trkpt>
      <trkpt lat="48.05137" lon="6.949">
        <ele>944.4</ele>
        <time>2025-08-06T13:02:29Z</time>
      </trkpt>
      <trkpt lat="48.05158" lon="6.94882">
        <ele>942.2</ele>
        <time>2025-08-06T13:02:31Z</time>
      </trkpt>
      <trkpt lat="48.05167" lon="6.94876">
        <ele>941</ele>
        <time>2025-08-06T13:02:32Z</time>
      </trkpt>
      <trkpt lat="48.05179" lon="6.94865">
        <ele>939.8</ele>
        <time>2025-08-06T13:02:33Z</time>
      </trkpt>
      <trkpt lat="48.05199" lon="6.94851">
        <ele>937.8</ele>
        <time>2025-08-06T13:02:35Z</time>
      </trkpt>
      <trkpt lat="48.05209" lon="6.94845">
        <ele>936.8</ele>
        <time>2025-08-06T13:02:36Z</time>
      </trkpt>
      <trkpt lat="48.05221" lon="6.94838">
        <ele>936.4</ele>
        <time>2025-08-06T13:02:37Z</time>
      </trkpt>
      <trkpt lat="48.05231" lon="6.94833">
        <ele>935.4</ele>
        <time>2025-08-06T13:02:38Z</time>
      </trkpt>
      <trkpt lat="48.05248" lon="6.94823">
        <ele>934.6</ele>
        <time>2025-08-06T13:02:40Z</time>
      </trkpt>
      <trkpt lat="48.05267" lon="6.94809">
        <ele>934.4</ele>
        <time>2025-08-06T13:02:42Z</time>
      </trkpt>
      <trkpt lat="48.05275" lon="6.948">
        <ele>934.2</ele>
        <time>2025-08-06T13:02:43Z</time>
      </trkpt>
      <trkpt lat="48.05282" lon="6.94791">
        <ele>934</ele>
        <time>2025-08-06T13:02:44Z</time>
      </trkpt>
      <trkpt lat="48.05292" lon="6.94771">
        <ele>933.4</ele>
        <time>2025-08-06T13:02:46Z</time>
      </trkpt>
      <trkpt lat="48.05296" lon="6.94756">
        <ele>933.2</ele>
        <time>2025-08-06T13:02:47Z</time>
      </trkpt>
      <trkpt lat="48.05299" lon="6.94743">
        <ele>933</ele>
        <time>2025-08-06T13:02:48Z</time>
      </trkpt>
      <trkpt lat="48.053" lon="6.94719">
        <ele>932.4</ele>
        <time>2025-08-06T13:02:50Z</time>
      </trkpt>
      <trkpt lat="48.053" lon="6.94692">
        <ele>931.4</ele>
        <time>2025-08-06T13:02:52Z</time>
      </trkpt>
      <trkpt lat="48.05299" lon="6.94677">
        <ele>931</ele>
        <time>2025-08-06T13:02:53Z</time>
      </trkpt>
      <trkpt lat="48.05297" lon="6.94653">
        <ele>930.6</ele>
        <time>2025-08-06T13:02:55Z</time>
      </trkpt>
      <trkpt lat="48.05292" lon="6.9463">
        <ele>930.4</ele>
        <time>2025-08-06T13:02:57Z</time>
      </trkpt>
      <trkpt lat="48.05288" lon="6.94619">
        <ele>930.2</ele>
        <time>2025-08-06T13:02:58Z</time>
      </trkpt>
      <trkpt lat="48.05284" lon="6.94609">
        <ele>930</ele>
        <time>2025-08-06T13:02:59Z</time>
      </trkpt>
      <trkpt lat="48.05256" lon="6.94553">
        <ele>929.4</ele>
        <time>2025-08-06T13:03:05Z</time>
      </trkpt>
      <trkpt lat="48.05247" lon="6.94531">
        <ele>929.4</ele>
        <time>2025-08-06T13:03:07Z</time>
      </trkpt>
      <trkpt lat="48.05232" lon="6.94484">
        <ele>929</ele>
        <time>2025-08-06T13:03:12Z</time>
      </trkpt>
      <trkpt lat="48.05208" lon="6.94416">
        <ele>928.2</ele>
        <time>2025-08-06T13:03:19Z</time>
      </trkpt>
      <trkpt lat="48.05201" lon="6.94397">
        <ele>928.2</ele>
        <time>2025-08-06T13:03:21Z</time>
      </trkpt>
      <trkpt lat="48.05182" lon="6.94345">
        <ele>928.2</ele>
        <time>2025-08-06T13:03:27Z</time>
      </trkpt>
      <trkpt lat="48.05157" lon="6.94301">
        <ele>929.4</ele>
        <time>2025-08-06T13:03:33Z</time>
      </trkpt>
      <trkpt lat="48.05153" lon="6.94294">
        <ele>929.4</ele>
        <time>2025-08-06T13:03:34Z</time>
      </trkpt>
      <trkpt lat="48.05123" lon="6.94242">
        <ele>929.8</ele>
        <time>2025-08-06T13:03:41Z</time>
      </trkpt>
      <trkpt lat="48.05095" lon="6.94184">
        <ele>929.2</ele>
        <time>2025-08-06T13:03:48Z</time>
      </trkpt>
      <trkpt lat="48.05072" lon="6.94131">
        <ele>929</ele>
        <time>2025-08-06T13:03:54Z</time>
      </trkpt>
      <trkpt lat="48.0505" lon="6.94066">
        <ele>929</ele>
        <time>2025-08-06T13:04:01Z</time>
      </trkpt>
      <trkpt lat="48.05045" lon="6.94056">
        <ele>929</ele>
        <time>2025-08-06T13:04:02Z</time>
      </trkpt>
      <trkpt lat="48.05042" lon="6.94049">
        <ele>929</ele>
        <time>2025-08-06T13:04:03Z</time>
      </trkpt>
      <trkpt lat="48.05022" lon="6.94025">
        <ele>928.6</ele>
        <time>2025-08-06T13:04:06Z</time>
      </trkpt>
      <trkpt lat="48.05009" lon="6.94012">
        <ele>928.4</ele>
        <time>2025-08-06T13:04:08Z</time>
      </trkpt>
      <trkpt lat="48.04975" lon="6.93972">
        <ele>927.6</ele>
        <time>2025-08-06T13:04:13Z</time>
      </trkpt>
      <trkpt lat="48.04969" lon="6.93963">
        <ele>927.4</ele>
        <time>2025-08-06T13:04:14Z</time>
      </trkpt>
      <trkpt lat="48.04937" lon="6.93919">
        <ele>926</ele>
        <time>2025-08-06T13:04:19Z</time>
      </trkpt>
      <trkpt lat="48.04898" lon="6.93875">
        <ele>924.8</ele>
        <time>2025-08-06T13:04:24Z</time>
      </trkpt>
      <trkpt lat="48.04892" lon="6.93868">
        <ele>924.4</ele>
        <time>2025-08-06T13:04:25Z</time>
      </trkpt>
      <trkpt lat="48.04884" lon="6.9386">
        <ele>923.6</ele>
        <time>2025-08-06T13:04:26Z</time>
      </trkpt>
      <trkpt lat="48.0486" lon="6.93829">
        <ele>922.2</ele>
        <time>2025-08-06T13:04:29Z</time>
      </trkpt>
      <trkpt lat="48.04837" lon="6.93801">
        <ele>921.4</ele>
        <time>2025-08-06T13:04:32Z</time>
      </trkpt>
      <trkpt lat="48.0483" lon="6.93792">
        <ele>921</ele>
        <time>2025-08-06T13:04:33Z</time>
      </trkpt>
      <trkpt lat="48.04811" lon="6.93765">
        <ele>919.8</ele>
        <time>2025-08-06T13:04:36Z</time>
      </trkpt>
      <trkpt lat="48.04792" lon="6.93737">
        <ele>919</ele>
        <time>2025-08-06T13:04:39Z</time>
      </trkpt>
      <trkpt lat="48.04785" lon="6.93729">
        <ele>918.4</ele>
        <time>2025-08-06T13:04:40Z</time>
      </trkpt>
      <trkpt lat="48.04755" lon="6.93699">
        <ele>917.8</ele>
        <time>2025-08-06T13:04:44Z</time>
      </trkpt>
      <trkpt lat="48.04742" lon="6.93688">
        <ele>917.4</ele>
        <time>2025-08-06T13:04:46Z</time>
      </trkpt>
      <trkpt lat="48.04711" lon="6.93663">
        <ele>916.4</ele>
        <time>2025-08-06T13:04:50Z</time>
      </trkpt>
      <trkpt lat="48.04704" lon="6.93658">
        <ele>916.2</ele>
        <time>2025-08-06T13:04:51Z</time>
      </trkpt>
      <trkpt lat="48.04663" lon="6.93635">
        <ele>915.2</ele>
        <time>2025-08-06T13:04:56Z</time>
      </trkpt>
      <trkpt lat="48.04654" lon="6.93631">
        <ele>914.6</ele>
        <time>2025-08-06T13:04:57Z</time>
      </trkpt>
      <trkpt lat="48.04637" lon="6.93623">
        <ele>914</ele>
        <time>2025-08-06T13:04:59Z</time>
      </trkpt>
      <trkpt lat="48.04627" lon="6.93619">
        <ele>913.6</ele>
        <time>2025-08-06T13:05:00Z</time>
      </trkpt>
      <trkpt lat="48.04618" lon="6.93614">
        <ele>913.4</ele>
        <time>2025-08-06T13:05:01Z</time>
      </trkpt>
      <trkpt lat="48.04611" lon="6.93608">
        <ele>913.2</ele>
        <time>2025-08-06T13:05:02Z</time>
      </trkpt>
      <trkpt lat="48.04585" lon="6.93582">
        <ele>911.6</ele>
        <time>2025-08-06T13:05:05Z</time>
      </trkpt>
      <trkpt lat="48.04571" lon="6.93566">
        <ele>910.2</ele>
        <time>2025-08-06T13:05:07Z</time>
      </trkpt>
      <trkpt lat="48.04553" lon="6.93546">
        <ele>909</ele>
        <time>2025-08-06T13:05:09Z</time>
      </trkpt>
      <trkpt lat="48.04545" lon="6.93537">
        <ele>908.8</ele>
        <time>2025-08-06T13:05:10Z</time>
      </trkpt>
      <trkpt lat="48.04539" lon="6.93526">
        <ele>908.2</ele>
        <time>2025-08-06T13:05:11Z</time>
      </trkpt>
      <trkpt lat="48.04533" lon="6.93514">
        <ele>907.8</ele>
        <time>2025-08-06T13:05:12Z</time>
      </trkpt>
      <trkpt lat="48.04531" lon="6.935">
        <ele>907.2</ele>
        <time>2025-08-06T13:05:13Z</time>
      </trkpt>
      <trkpt lat="48.0453" lon="6.93485">
        <ele>906.6</ele>
        <time>2025-08-06T13:05:14Z</time>
      </trkpt>
      <trkpt lat="48.04532" lon="6.93469">
        <ele>906.2</ele>
        <time>2025-08-06T13:05:15Z</time>
      </trkpt>
      <trkpt lat="48.04535" lon="6.93457">
        <ele>905.6</ele>
        <time>2025-08-06T13:05:16Z</time>
      </trkpt>
      <trkpt lat="48.04539" lon="6.9344">
        <ele>904.8</ele>
        <time>2025-08-06T13:05:17Z</time>
      </trkpt>
      <trkpt lat="48.0454" lon="6.93427">
        <ele>904.2</ele>
        <time>2025-08-06T13:05:18Z</time>
      </trkpt>
      <trkpt lat="48.0454" lon="6.93415">
        <ele>903.4</ele>
        <time>2025-08-06T13:05:19Z</time>
      </trkpt>
      <trkpt lat="48.04536" lon="6.93403">
        <ele>903</ele>
        <time>2025-08-06T13:05:20Z</time>
      </trkpt>
      <trkpt lat="48.04531" lon="6.93393">
        <ele>901.8</ele>
        <time>2025-08-06T13:05:21Z</time>
      </trkpt>
      <trkpt lat="48.04525" lon="6.93388">
        <ele>901.6</ele>
        <time>2025-08-06T13:05:22Z</time>
      </trkpt>
      <trkpt lat="48.04517" lon="6.93384">
        <ele>900.6</ele>
        <time>2025-08-06T13:05:23Z</time>
      </trkpt>
      <trkpt lat="48.04507" lon="6.9338">
        <ele>899.4</ele>
        <time>2025-08-06T13:05:24Z</time>
      </trkpt>
      <trkpt lat="48.04497" lon="6.93379">
        <ele>899</ele>
        <time>2025-08-06T13:05:25Z</time>
      </trkpt>
      <trkpt lat="48.04486" lon="6.93379">
        <ele>898.2</ele>
        <time>2025-08-06T13:05:26Z</time>
      </trkpt>
      <trkpt lat="48.04463" lon="6.93381">
        <ele>897</ele>
        <time>2025-08-06T13:05:28Z</time>
      </trkpt>
      <trkpt lat="48.04437" lon="6.93386">
        <ele>895.6</ele>
        <time>2025-08-06T13:05:30Z</time>
      </trkpt>
      <trkpt lat="48.04428" lon="6.93387">
        <ele>894.4</ele>
        <time>2025-08-06T13:05:31Z</time>
      </trkpt>
      <trkpt lat="48.04416" lon="6.93386">
        <ele>893.8</ele>
        <time>2025-08-06T13:05:32Z</time>
      </trkpt>
      <trkpt lat="48.04405" lon="6.93382">
        <ele>892.8</ele>
        <time>2025-08-06T13:05:33Z</time>
      </trkpt>
      <trkpt lat="48.04396" lon="6.93374">
        <ele>892.2</ele>
        <time>2025-08-06T13:05:34Z</time>
      </trkpt>
      <trkpt lat="48.0439" lon="6.93363">
        <ele>891.2</ele>
        <time>2025-08-06T13:05:35Z</time>
      </trkpt>
      <trkpt lat="48.04385" lon="6.9335">
        <ele>890.2</ele>
        <time>2025-08-06T13:05:36Z</time>
      </trkpt>
      <trkpt lat="48.04377" lon="6.93323">
        <ele>888.8</ele>
        <time>2025-08-06T13:05:38Z</time>
      </trkpt>
      <trkpt lat="48.04367" lon="6.93299">
        <ele>887.8</ele>
        <time>2025-08-06T13:05:40Z</time>
      </trkpt>
      <trkpt lat="48.0436" lon="6.93287">
        <ele>887.8</ele>
        <time>2025-08-06T13:05:41Z</time>
      </trkpt>
      <trkpt lat="48.04345" lon="6.93267">
        <ele>886.4</ele>
        <time>2025-08-06T13:05:43Z</time>
      </trkpt>
      <trkpt lat="48.04337" lon="6.93258">
        <ele>886</ele>
        <time>2025-08-06T13:05:44Z</time>
      </trkpt>
      <trkpt lat="48.04329" lon="6.9325">
        <ele>885.4</ele>
        <time>2025-08-06T13:05:45Z</time>
      </trkpt>
      <trkpt lat="48.04302" lon="6.93234">
        <ele>884.2</ele>
        <time>2025-08-06T13:05:48Z</time>
      </trkpt>
      <trkpt lat="48.04254" lon="6.93206">
        <ele>883.8</ele>
        <time>2025-08-06T13:05:54Z</time>
      </trkpt>
      <trkpt lat="48.04202" lon="6.93182">
        <ele>884.2</ele>
        <time>2025-08-06T13:06:01Z</time>
      </trkpt>
      <trkpt lat="48.04151" lon="6.93164">
        <ele>884.2</ele>
        <time>2025-08-06T13:06:08Z</time>
      </trkpt>
      <trkpt lat="48.04096" lon="6.93146">
        <ele>883.4</ele>
        <time>2025-08-06T13:06:15Z</time>
      </trkpt>
      <trkpt lat="48.04089" lon="6.93143">
        <ele>883.4</ele>
        <time>2025-08-06T13:06:16Z</time>
      </trkpt>
      <trkpt lat="48.0408" lon="6.93138">
        <ele>883.2</ele>
        <time>2025-08-06T13:06:17Z</time>
      </trkpt>
      <trkpt lat="48.04025" lon="6.931">
        <ele>883</ele>
        <time>2025-08-06T13:06:25Z</time>
      </trkpt>
      <trkpt lat="48.04011" lon="6.93087">
        <ele>882.8</ele>
        <time>2025-08-06T13:06:27Z</time>
      </trkpt>
      <trkpt lat="48.03999" lon="6.93071">
        <ele>882.6</ele>
        <time>2025-08-06T13:06:29Z</time>
      </trkpt>
      <trkpt lat="48.0399" lon="6.93053">
        <ele>882.4</ele>
        <time>2025-08-06T13:06:31Z</time>
      </trkpt>
      <trkpt lat="48.03977" lon="6.93026">
        <ele>882.2</ele>
        <time>2025-08-06T13:06:34Z</time>
      </trkpt>
      <trkpt lat="48.03949" lon="6.92986">
        <ele>881.8</ele>
        <time>2025-08-06T13:06:39Z</time>
      </trkpt>
      <trkpt lat="48.03926" lon="6.92951">
        <ele>881</ele>
        <time>2025-08-06T13:06:43Z</time>
      </trkpt>
      <trkpt lat="48.03916" lon="6.92931">
        <ele>880.8</ele>
        <time>2025-08-06T13:06:45Z</time>
      </trkpt>
      <trkpt lat="48.03908" lon="6.92909">
        <ele>880.4</ele>
        <time>2025-08-06T13:06:47Z</time>
      </trkpt>
      <trkpt lat="48.03905" lon="6.92897">
        <ele>879.8</ele>
        <time>2025-08-06T13:06:48Z</time>
      </trkpt>
      <trkpt lat="48.03901" lon="6.92886">
        <ele>879.6</ele>
        <time>2025-08-06T13:06:49Z</time>
      </trkpt>
      <trkpt lat="48.0389" lon="6.92867">
        <ele>879.2</ele>
        <time>2025-08-06T13:06:51Z</time>
      </trkpt>
      <trkpt lat="48.03883" lon="6.92858">
        <ele>878.6</ele>
        <time>2025-08-06T13:06:52Z</time>
      </trkpt>
      <trkpt lat="48.03876" lon="6.9285">
        <ele>878.4</ele>
        <time>2025-08-06T13:06:53Z</time>
      </trkpt>
      <trkpt lat="48.0386" lon="6.92838">
        <ele>877.8</ele>
        <time>2025-08-06T13:06:55Z</time>
      </trkpt>
      <trkpt lat="48.03851" lon="6.92832">
        <ele>877.6</ele>
        <time>2025-08-06T13:06:56Z</time>
      </trkpt>
      <trkpt lat="48.03815" lon="6.92805">
        <ele>876.4</ele>
        <time>2025-08-06T13:07:00Z</time>
      </trkpt>
      <trkpt lat="48.03795" lon="6.92792">
        <ele>875</ele>
        <time>2025-08-06T13:07:02Z</time>
      </trkpt>
      <trkpt lat="48.03775" lon="6.92779">
        <ele>873.4</ele>
        <time>2025-08-06T13:07:04Z</time>
      </trkpt>
      <trkpt lat="48.03756" lon="6.92768">
        <ele>872.4</ele>
        <time>2025-08-06T13:07:06Z</time>
      </trkpt>
      <trkpt lat="48.03737" lon="6.92756">
        <ele>871.2</ele>
        <time>2025-08-06T13:07:08Z</time>
      </trkpt>
      <trkpt lat="48.03725" lon="6.9275">
        <ele>870.2</ele>
        <time>2025-08-06T13:07:09Z</time>
      </trkpt>
      <trkpt lat="48.03698" lon="6.92736">
        <ele>869</ele>
        <time>2025-08-06T13:07:12Z</time>
      </trkpt>
      <trkpt lat="48.03689" lon="6.92729">
        <ele>868.4</ele>
        <time>2025-08-06T13:07:13Z</time>
      </trkpt>
      <trkpt lat="48.03672" lon="6.92712">
        <ele>867.8</ele>
        <time>2025-08-06T13:07:15Z</time>
      </trkpt>
      <trkpt lat="48.03666" lon="6.92699">
        <ele>867</ele>
        <time>2025-08-06T13:07:16Z</time>
      </trkpt>
      <trkpt lat="48.03661" lon="6.92686">
        <ele>866.8</ele>
        <time>2025-08-06T13:07:17Z</time>
      </trkpt>
      <trkpt lat="48.03651" lon="6.92659">
        <ele>865.2</ele>
        <time>2025-08-06T13:07:19Z</time>
      </trkpt>
      <trkpt lat="48.0364" lon="6.92635">
        <ele>864.6</ele>
        <time>2025-08-06T13:07:21Z</time>
      </trkpt>
      <trkpt lat="48.03625" lon="6.92615">
        <ele>863.8</ele>
        <time>2025-08-06T13:07:23Z</time>
      </trkpt>
      <trkpt lat="48.03601" lon="6.92588">
        <ele>862.4</ele>
        <time>2025-08-06T13:07:26Z</time>
      </trkpt>
      <trkpt lat="48.03579" lon="6.9256">
        <ele>861.2</ele>
        <time>2025-08-06T13:07:29Z</time>
      </trkpt>
      <trkpt lat="48.03558" lon="6.9253">
        <ele>860.2</ele>
        <time>2025-08-06T13:07:32Z</time>
      </trkpt>
      <trkpt lat="48.03553" lon="6.92518">
        <ele>860</ele>
        <time>2025-08-06T13:07:33Z</time>
      </trkpt>
      <trkpt lat="48.03549" lon="6.92505">
        <ele>859.6</ele>
        <time>2025-08-06T13:07:34Z</time>
      </trkpt>
      <trkpt lat="48.03547" lon="6.92491">
        <ele>858.6</ele>
        <time>2025-08-06T13:07:35Z</time>
      </trkpt>
      <trkpt lat="48.03547" lon="6.92477">
        <ele>858.4</ele>
        <time>2025-08-06T13:07:36Z</time>
      </trkpt>
      <trkpt lat="48.03546" lon="6.92449">
        <ele>857.2</ele>
        <time>2025-08-06T13:07:38Z</time>
      </trkpt>
      <trkpt lat="48.03537" lon="6.92426">
        <ele>856.2</ele>
        <time>2025-08-06T13:07:40Z</time>
      </trkpt>
      <trkpt lat="48.0353" lon="6.92416">
        <ele>856</ele>
        <time>2025-08-06T13:07:41Z</time>
      </trkpt>
      <trkpt lat="48.0352" lon="6.92407">
        <ele>855.2</ele>
        <time>2025-08-06T13:07:42Z</time>
      </trkpt>
      <trkpt lat="48.03512" lon="6.92403">
        <ele>854.4</ele>
        <time>2025-08-06T13:07:43Z</time>
      </trkpt>
      <trkpt lat="48.03493" lon="6.92394">
        <ele>853.4</ele>
        <time>2025-08-06T13:07:45Z</time>
      </trkpt>
      <trkpt lat="48.03472" lon="6.9238">
        <ele>852</ele>
        <time>2025-08-06T13:07:47Z</time>
      </trkpt>
      <trkpt lat="48.03457" lon="6.92367">
        <ele>851</ele>
        <time>2025-08-06T13:07:49Z</time>
      </trkpt>
      <trkpt lat="48.0344" lon="6.9235">
        <ele>849.8</ele>
        <time>2025-08-06T13:07:51Z</time>
      </trkpt>
      <trkpt lat="48.03421" lon="6.92325">
        <ele>849.2</ele>
        <time>2025-08-06T13:07:54Z</time>
      </trkpt>
      <trkpt lat="48.03415" lon="6.92314">
        <ele>848.8</ele>
        <time>2025-08-06T13:07:55Z</time>
      </trkpt>
      <trkpt lat="48.03407" lon="6.92287">
        <ele>848.2</ele>
        <time>2025-08-06T13:07:57Z</time>
      </trkpt>
      <trkpt lat="48.03403" lon="6.92263">
        <ele>848</ele>
        <time>2025-08-06T13:07:59Z</time>
      </trkpt>
      <trkpt lat="48.03401" lon="6.9225">
        <ele>847.8</ele>
        <time>2025-08-06T13:08:00Z</time>
      </trkpt>
      <trkpt lat="48.03397" lon="6.92237">
        <ele>847.2</ele>
        <time>2025-08-06T13:08:01Z</time>
      </trkpt>
      <trkpt lat="48.03392" lon="6.92225">
        <ele>846.6</ele>
        <time>2025-08-06T13:08:02Z</time>
      </trkpt>
      <trkpt lat="48.03378" lon="6.92206">
        <ele>845.8</ele>
        <time>2025-08-06T13:08:04Z</time>
      </trkpt>
      <trkpt lat="48.0337" lon="6.92199">
        <ele>845.6</ele>
        <time>2025-08-06T13:08:05Z</time>
      </trkpt>
      <trkpt lat="48.03361" lon="6.92196">
        <ele>845.2</ele>
        <time>2025-08-06T13:08:06Z</time>
      </trkpt>
      <trkpt lat="48.03352" lon="6.92194">
        <ele>844.6</ele>
        <time>2025-08-06T13:08:07Z</time>
      </trkpt>
      <trkpt lat="48.03333" lon="6.92192">
        <ele>843.6</ele>
        <time>2025-08-06T13:08:09Z</time>
      </trkpt>
      <trkpt lat="48.03293" lon="6.92186">
        <ele>842.4</ele>
        <time>2025-08-06T13:08:13Z</time>
      </trkpt>
      <trkpt lat="48.03265" lon="6.92172">
        <ele>840.4</ele>
        <time>2025-08-06T13:08:16Z</time>
      </trkpt>
      <trkpt lat="48.03256" lon="6.92165">
        <ele>839.8</ele>
        <time>2025-08-06T13:08:17Z</time>
      </trkpt>
      <trkpt lat="48.03248" lon="6.92158">
        <ele>839.2</ele>
        <time>2025-08-06T13:08:18Z</time>
      </trkpt>
      <trkpt lat="48.03223" lon="6.92133">
        <ele>838</ele>
        <time>2025-08-06T13:08:21Z</time>
      </trkpt>
      <trkpt lat="48.03215" lon="6.92125">
        <ele>838</ele>
        <time>2025-08-06T13:08:22Z</time>
      </trkpt>
      <trkpt lat="48.03199" lon="6.92107">
        <ele>837.2</ele>
        <time>2025-08-06T13:08:24Z</time>
      </trkpt>
      <trkpt lat="48.03192" lon="6.92102">
        <ele>836.6</ele>
        <time>2025-08-06T13:08:25Z</time>
      </trkpt>
      <trkpt lat="48.03183" lon="6.92096">
        <ele>836.2</ele>
        <time>2025-08-06T13:08:26Z</time>
      </trkpt>
      <trkpt lat="48.03146" lon="6.92073">
        <ele>835.2</ele>
        <time>2025-08-06T13:08:30Z</time>
      </trkpt>
      <trkpt lat="48.03128" lon="6.9206">
        <ele>834</ele>
        <time>2025-08-06T13:08:32Z</time>
      </trkpt>
      <trkpt lat="48.03118" lon="6.92055">
        <ele>833.2</ele>
        <time>2025-08-06T13:08:33Z</time>
      </trkpt>
      <trkpt lat="48.03108" lon="6.92051">
        <ele>833</ele>
        <time>2025-08-06T13:08:34Z</time>
      </trkpt>
      <trkpt lat="48.03088" lon="6.92047">
        <ele>832.4</ele>
        <time>2025-08-06T13:08:36Z</time>
      </trkpt>
      <trkpt lat="48.03068" lon="6.92046">
        <ele>831.6</ele>
        <time>2025-08-06T13:08:38Z</time>
      </trkpt>
      <trkpt lat="48.03048" lon="6.92043">
        <ele>831</ele>
        <time>2025-08-06T13:08:40Z</time>
      </trkpt>
      <trkpt lat="48.03029" lon="6.92037">
        <ele>830.4</ele>
        <time>2025-08-06T13:08:42Z</time>
      </trkpt>
      <trkpt lat="48.03001" lon="6.92026">
        <ele>829.2</ele>
        <time>2025-08-06T13:08:45Z</time>
      </trkpt>
      <trkpt lat="48.02983" lon="6.92011">
        <ele>828.6</ele>
        <time>2025-08-06T13:08:47Z</time>
      </trkpt>
      <trkpt lat="48.02968" lon="6.91991">
        <ele>828.2</ele>
        <time>2025-08-06T13:08:49Z</time>
      </trkpt>
      <trkpt lat="48.02962" lon="6.91979">
        <ele>827.4</ele>
        <time>2025-08-06T13:08:50Z</time>
      </trkpt>
      <trkpt lat="48.02957" lon="6.91965">
        <ele>827</ele>
        <time>2025-08-06T13:08:51Z</time>
      </trkpt>
      <trkpt lat="48.02946" lon="6.9194">
        <ele>826.2</ele>
        <time>2025-08-06T13:08:53Z</time>
      </trkpt>
      <trkpt lat="48.0294" lon="6.91928">
        <ele>825.6</ele>
        <time>2025-08-06T13:08:54Z</time>
      </trkpt>
      <trkpt lat="48.02932" lon="6.91915">
        <ele>825</ele>
        <time>2025-08-06T13:08:55Z</time>
      </trkpt>
      <trkpt lat="48.02925" lon="6.91905">
        <ele>824.8</ele>
        <time>2025-08-06T13:08:56Z</time>
      </trkpt>
      <trkpt lat="48.02909" lon="6.91894">
        <ele>824.4</ele>
        <time>2025-08-06T13:08:58Z</time>
      </trkpt>
      <trkpt lat="48.02899" lon="6.91889">
        <ele>824</ele>
        <time>2025-08-06T13:08:59Z</time>
      </trkpt>
      <trkpt lat="48.02879" lon="6.91875">
        <ele>823.4</ele>
        <time>2025-08-06T13:09:01Z</time>
      </trkpt>
      <trkpt lat="48.02871" lon="6.91867">
        <ele>823</ele>
        <time>2025-08-06T13:09:02Z</time>
      </trkpt>
      <trkpt lat="48.02863" lon="6.91858">
        <ele>822.8</ele>
        <time>2025-08-06T13:09:03Z</time>
      </trkpt>
      <trkpt lat="48.0284" lon="6.91833">
        <ele>821.6</ele>
        <time>2025-08-06T13:09:06Z</time>
      </trkpt>
      <trkpt lat="48.0283" lon="6.91823">
        <ele>821.2</ele>
        <time>2025-08-06T13:09:07Z</time>
      </trkpt>
      <trkpt lat="48.02821" lon="6.91817">
        <ele>820.4</ele>
        <time>2025-08-06T13:09:08Z</time>
      </trkpt>
      <trkpt lat="48.02793" lon="6.91802">
        <ele>819.4</ele>
        <time>2025-08-06T13:09:11Z</time>
      </trkpt>
      <trkpt lat="48.02774" lon="6.91793">
        <ele>818.4</ele>
        <time>2025-08-06T13:09:13Z</time>
      </trkpt>
      <trkpt lat="48.02766" lon="6.91785">
        <ele>817.8</ele>
        <time>2025-08-06T13:09:14Z</time>
      </trkpt>
      <trkpt lat="48.02758" lon="6.91776">
        <ele>817.4</ele>
        <time>2025-08-06T13:09:15Z</time>
      </trkpt>
      <trkpt lat="48.02752" lon="6.91768">
        <ele>816.8</ele>
        <time>2025-08-06T13:09:16Z</time>
      </trkpt>
      <trkpt lat="48.02729" lon="6.91732">
        <ele>815.8</ele>
        <time>2025-08-06T13:09:19Z</time>
      </trkpt>
      <trkpt lat="48.02717" lon="6.9171">
        <ele>814.8</ele>
        <time>2025-08-06T13:09:21Z</time>
      </trkpt>
      <trkpt lat="48.02711" lon="6.91697">
        <ele>814.4</ele>
        <time>2025-08-06T13:09:22Z</time>
      </trkpt>
      <trkpt lat="48.02704" lon="6.91682">
        <ele>813.8</ele>
        <time>2025-08-06T13:09:23Z</time>
      </trkpt>
      <trkpt lat="48.02688" lon="6.91647">
        <ele>812.4</ele>
        <time>2025-08-06T13:09:26Z</time>
      </trkpt>
      <trkpt lat="48.02665" lon="6.91595">
        <ele>811.4</ele>
        <time>2025-08-06T13:09:30Z</time>
      </trkpt>
      <trkpt lat="48.02649" lon="6.91539">
        <ele>810.2</ele>
        <time>2025-08-06T13:09:34Z</time>
      </trkpt>
      <trkpt lat="48.02636" lon="6.91504">
        <ele>809.2</ele>
        <time>2025-08-06T13:09:37Z</time>
      </trkpt>
      <trkpt lat="48.02629" lon="6.9149">
        <ele>808.8</ele>
        <time>2025-08-06T13:09:38Z</time>
      </trkpt>
      <trkpt lat="48.02611" lon="6.91458">
        <ele>808</ele>
        <time>2025-08-06T13:09:41Z</time>
      </trkpt>
      <trkpt lat="48.02594" lon="6.91418">
        <ele>807.2</ele>
        <time>2025-08-06T13:09:44Z</time>
      </trkpt>
      <trkpt lat="48.02589" lon="6.91405">
        <ele>806.6</ele>
        <time>2025-08-06T13:09:45Z</time>
      </trkpt>
      <trkpt lat="48.02574" lon="6.91369">
        <ele>805.4</ele>
        <time>2025-08-06T13:09:48Z</time>
      </trkpt>
      <trkpt lat="48.02562" lon="6.91341">
        <ele>803.6</ele>
        <time>2025-08-06T13:09:50Z</time>
      </trkpt>
      <trkpt lat="48.02555" lon="6.91319">
        <ele>802.2</ele>
        <time>2025-08-06T13:09:52Z</time>
      </trkpt>
      <trkpt lat="48.02545" lon="6.91293">
        <ele>801.2</ele>
        <time>2025-08-06T13:09:54Z</time>
      </trkpt>
      <trkpt lat="48.02537" lon="6.91272">
        <ele>800.2</ele>
        <time>2025-08-06T13:09:56Z</time>
      </trkpt>
      <trkpt lat="48.02532" lon="6.91263">
        <ele>799.2</ele>
        <time>2025-08-06T13:09:57Z</time>
      </trkpt>
      <trkpt lat="48.02529" lon="6.91256">
        <ele>798.8</ele>
        <time>2025-08-06T13:09:58Z</time>
      </trkpt>
      <trkpt lat="48.02518" lon="6.91238">
        <ele>797.6</ele>
        <time>2025-08-06T13:10:00Z</time>
      </trkpt>
      <trkpt lat="48.02509" lon="6.91224">
        <ele>796.4</ele>
        <time>2025-08-06T13:10:02Z</time>
      </trkpt>
      <trkpt lat="48.02489" lon="6.91193">
        <ele>795</ele>
        <time>2025-08-06T13:10:06Z</time>
      </trkpt>
      <trkpt lat="48.02485" lon="6.91187">
        <ele>795</ele>
        <time>2025-08-06T13:10:07Z</time>
      </trkpt>
      <trkpt lat="48.02474" lon="6.91169">
        <ele>794.2</ele>
        <time>2025-08-06T13:10:09Z</time>
      </trkpt>
      <trkpt lat="48.02451" lon="6.91133">
        <ele>793.2</ele>
        <time>2025-08-06T13:10:13Z</time>
      </trkpt>
      <trkpt lat="48.02442" lon="6.91113">
        <ele>792.4</ele>
        <time>2025-08-06T13:10:15Z</time>
      </trkpt>
      <trkpt lat="48.02435" lon="6.91086">
        <ele>791.2</ele>
        <time>2025-08-06T13:10:17Z</time>
      </trkpt>
      <trkpt lat="48.02433" lon="6.91074">
        <ele>790</ele>
        <time>2025-08-06T13:10:18Z</time>
      </trkpt>
      <trkpt lat="48.02428" lon="6.91034">
        <ele>788.6</ele>
        <time>2025-08-06T13:10:21Z</time>
      </trkpt>
      <trkpt lat="48.02426" lon="6.9102">
        <ele>788.4</ele>
        <time>2025-08-06T13:10:22Z</time>
      </trkpt>
      <trkpt lat="48.0242" lon="6.90981">
        <ele>787</ele>
        <time>2025-08-06T13:10:25Z</time>
      </trkpt>
      <trkpt lat="48.02412" lon="6.90936">
        <ele>785.8</ele>
        <time>2025-08-06T13:10:28Z</time>
      </trkpt>
      <trkpt lat="48.0241" lon="6.90925">
        <ele>785.6</ele>
        <time>2025-08-06T13:10:29Z</time>
      </trkpt>
      <trkpt lat="48.02401" lon="6.90881">
        <ele>784.6</ele>
        <time>2025-08-06T13:10:32Z</time>
      </trkpt>
      <trkpt lat="48.02394" lon="6.90855">
        <ele>783.8</ele>
        <time>2025-08-06T13:10:34Z</time>
      </trkpt>
      <trkpt lat="48.02389" lon="6.90842">
        <ele>783.4</ele>
        <time>2025-08-06T13:10:35Z</time>
      </trkpt>
      <trkpt lat="48.02372" lon="6.90807">
        <ele>782.4</ele>
        <time>2025-08-06T13:10:38Z</time>
      </trkpt>
      <trkpt lat="48.02367" lon="6.90799">
        <ele>781.6</ele>
        <time>2025-08-06T13:10:39Z</time>
      </trkpt>
      <trkpt lat="48.0236" lon="6.90789">
        <ele>781.2</ele>
        <time>2025-08-06T13:10:40Z</time>
      </trkpt>
      <trkpt lat="48.0233" lon="6.90746">
        <ele>779.8</ele>
        <time>2025-08-06T13:10:44Z</time>
      </trkpt>
      <trkpt lat="48.02317" lon="6.90726">
        <ele>779</ele>
        <time>2025-08-06T13:10:46Z</time>
      </trkpt>
      <trkpt lat="48.02309" lon="6.90716">
        <ele>778.6</ele>
        <time>2025-08-06T13:10:47Z</time>
      </trkpt>
      <trkpt lat="48.02278" lon="6.90667">
        <ele>777.2</ele>
        <time>2025-08-06T13:10:51Z</time>
      </trkpt>
      <trkpt lat="48.02274" lon="6.90656">
        <ele>776.4</ele>
        <time>2025-08-06T13:10:52Z</time>
      </trkpt>
      <trkpt lat="48.02268" lon="6.90639">
        <ele>776</ele>
        <time>2025-08-06T13:10:53Z</time>
      </trkpt>
      <trkpt lat="48.02261" lon="6.90607">
        <ele>774.8</ele>
        <time>2025-08-06T13:10:55Z</time>
      </trkpt>
      <trkpt lat="48.02258" lon="6.90595">
        <ele>773.6</ele>
        <time>2025-08-06T13:10:56Z</time>
      </trkpt>
      <trkpt lat="48.02253" lon="6.90579">
        <ele>772.6</ele>
        <time>2025-08-06T13:10:57Z</time>
      </trkpt>
      <trkpt lat="48.02247" lon="6.90564">
        <ele>772.4</ele>
        <time>2025-08-06T13:10:58Z</time>
      </trkpt>
      <trkpt lat="48.02239" lon="6.90547">
        <ele>772</ele>
        <time>2025-08-06T13:10:59Z</time>
      </trkpt>
      <trkpt lat="48.02224" lon="6.90522">
        <ele>770.6</ele>
        <time>2025-08-06T13:11:01Z</time>
      </trkpt>
      <trkpt lat="48.02208" lon="6.90493">
        <ele>769.4</ele>
        <time>2025-08-06T13:11:03Z</time>
      </trkpt>
      <trkpt lat="48.02198" lon="6.90476">
        <ele>768.2</ele>
        <time>2025-08-06T13:11:04Z</time>
      </trkpt>
      <trkpt lat="48.02191" lon="6.90465">
        <ele>767.8</ele>
        <time>2025-08-06T13:11:05Z</time>
      </trkpt>
      <trkpt lat="48.02182" lon="6.90448">
        <ele>767</ele>
        <time>2025-08-06T13:11:06Z</time>
      </trkpt>
      <trkpt lat="48.02168" lon="6.90424">
        <ele>765.8</ele>
        <time>2025-08-06T13:11:08Z</time>
      </trkpt>
      <trkpt lat="48.02151" lon="6.90395">
        <ele>764.4</ele>
        <time>2025-08-06T13:11:10Z</time>
      </trkpt>
      <trkpt lat="48.02131" lon="6.90358">
        <ele>763.2</ele>
        <time>2025-08-06T13:11:13Z</time>
      </trkpt>
      <trkpt lat="48.02118" lon="6.90338">
        <ele>762.2</ele>
        <time>2025-08-06T13:11:15Z</time>
      </trkpt>
      <trkpt lat="48.0211" lon="6.90331">
        <ele>761.8</ele>
        <time>2025-08-06T13:11:16Z</time>
      </trkpt>
      <trkpt lat="48.02103" lon="6.90329">
        <ele>761.8</ele>
        <time>2025-08-06T13:11:17Z</time>
      </trkpt>
      <trkpt lat="48.02085" lon="6.90326">
        <ele>761</ele>
        <time>2025-08-06T13:11:19Z</time>
      </trkpt>
      <trkpt lat="48.02074" lon="6.90321">
        <ele>760.4</ele>
        <time>2025-08-06T13:11:20Z</time>
      </trkpt>
      <trkpt lat="48.02067" lon="6.90314">
        <ele>760.2</ele>
        <time>2025-08-06T13:11:21Z</time>
      </trkpt>
      <trkpt lat="48.02055" lon="6.90294">
        <ele>759.2</ele>
        <time>2025-08-06T13:11:23Z</time>
      </trkpt>
      <trkpt lat="48.02051" lon="6.90285">
        <ele>759</ele>
        <time>2025-08-06T13:11:24Z</time>
      </trkpt>
      <trkpt lat="48.02029" lon="6.90237">
        <ele>757.8</ele>
        <time>2025-08-06T13:11:28Z</time>
      </trkpt>
      <trkpt lat="48.02017" lon="6.90218">
        <ele>757.4</ele>
        <time>2025-08-06T13:11:30Z</time>
      </trkpt>
      <trkpt lat="48.02001" lon="6.90197">
        <ele>756.8</ele>
        <time>2025-08-06T13:11:32Z</time>
      </trkpt>
      <trkpt lat="48.01977" lon="6.90168">
        <ele>755.4</ele>
        <time>2025-08-06T13:11:35Z</time>
      </trkpt>
      <trkpt lat="48.0197" lon="6.90156">
        <ele>755.4</ele>
        <time>2025-08-06T13:11:36Z</time>
      </trkpt>
      <trkpt lat="48.01959" lon="6.9013">
        <ele>754.6</ele>
        <time>2025-08-06T13:11:38Z</time>
      </trkpt>
      <trkpt lat="48.01955" lon="6.90119">
        <ele>754</ele>
        <time>2025-08-06T13:11:39Z</time>
      </trkpt>
      <trkpt lat="48.0194" lon="6.90072">
        <ele>752.8</ele>
        <time>2025-08-06T13:11:42Z</time>
      </trkpt>
      <trkpt lat="48.01932" lon="6.90046">
        <ele>751.6</ele>
        <time>2025-08-06T13:11:44Z</time>
      </trkpt>
      <trkpt lat="48.01918" lon="6.89999">
        <ele>750</ele>
        <time>2025-08-06T13:11:47Z</time>
      </trkpt>
      <trkpt lat="48.01911" lon="6.89973">
        <ele>748.8</ele>
        <time>2025-08-06T13:11:49Z</time>
      </trkpt>
      <trkpt lat="48.01906" lon="6.89958">
        <ele>748.6</ele>
        <time>2025-08-06T13:11:50Z</time>
      </trkpt>
      <trkpt lat="48.01897" lon="6.89929">
        <ele>747.6</ele>
        <time>2025-08-06T13:11:52Z</time>
      </trkpt>
      <trkpt lat="48.01888" lon="6.899">
        <ele>746.4</ele>
        <time>2025-08-06T13:11:54Z</time>
      </trkpt>
      <trkpt lat="48.01867" lon="6.89842">
        <ele>745.4</ele>
        <time>2025-08-06T13:11:58Z</time>
      </trkpt>
      <trkpt lat="48.01857" lon="6.89815">
        <ele>744.2</ele>
        <time>2025-08-06T13:12:00Z</time>
      </trkpt>
      <trkpt lat="48.01847" lon="6.89788">
        <ele>743.2</ele>
        <time>2025-08-06T13:12:02Z</time>
      </trkpt>
      <trkpt lat="48.01828" lon="6.89749">
        <ele>741.8</ele>
        <time>2025-08-06T13:12:05Z</time>
      </trkpt>
      <trkpt lat="48.01808" lon="6.89714">
        <ele>740.6</ele>
        <time>2025-08-06T13:12:08Z</time>
      </trkpt>
      <trkpt lat="48.01788" lon="6.89683">
        <ele>739.6</ele>
        <time>2025-08-06T13:12:11Z</time>
      </trkpt>
      <trkpt lat="48.0178" lon="6.89673">
        <ele>739.2</ele>
        <time>2025-08-06T13:12:12Z</time>
      </trkpt>
      <trkpt lat="48.01765" lon="6.89652">
        <ele>738.4</ele>
        <time>2025-08-06T13:12:14Z</time>
      </trkpt>
      <trkpt lat="48.01745" lon="6.89616">
        <ele>736.6</ele>
        <time>2025-08-06T13:12:17Z</time>
      </trkpt>
      <trkpt lat="48.0173" lon="6.89589">
        <ele>735.6</ele>
        <time>2025-08-06T13:12:19Z</time>
      </trkpt>
      <trkpt lat="48.01718" lon="6.89567">
        <ele>734.6</ele>
        <time>2025-08-06T13:12:21Z</time>
      </trkpt>
      <trkpt lat="48.01697" lon="6.89531">
        <ele>733</ele>
        <time>2025-08-06T13:12:24Z</time>
      </trkpt>
      <trkpt lat="48.01684" lon="6.89509">
        <ele>732.4</ele>
        <time>2025-08-06T13:12:26Z</time>
      </trkpt>
      <trkpt lat="48.01679" lon="6.895">
        <ele>731.6</ele>
        <time>2025-08-06T13:12:27Z</time>
      </trkpt>
      <trkpt lat="48.01659" lon="6.89467">
        <ele>730.2</ele>
        <time>2025-08-06T13:12:30Z</time>
      </trkpt>
      <trkpt lat="48.01642" lon="6.89438">
        <ele>729.2</ele>
        <time>2025-08-06T13:12:33Z</time>
      </trkpt>
      <trkpt lat="48.01635" lon="6.89427">
        <ele>728.6</ele>
        <time>2025-08-06T13:12:34Z</time>
      </trkpt>
      <trkpt lat="48.01628" lon="6.89414">
        <ele>728</ele>
        <time>2025-08-06T13:12:35Z</time>
      </trkpt>
      <trkpt lat="48.01615" lon="6.89394">
        <ele>726.8</ele>
        <time>2025-08-06T13:12:37Z</time>
      </trkpt>
      <trkpt lat="48.01603" lon="6.89377">
        <ele>725.6</ele>
        <time>2025-08-06T13:12:39Z</time>
      </trkpt>
      <trkpt lat="48.01587" lon="6.89359">
        <ele>725</ele>
        <time>2025-08-06T13:12:41Z</time>
      </trkpt>
      <trkpt lat="48.01579" lon="6.89351">
        <ele>724.6</ele>
        <time>2025-08-06T13:12:42Z</time>
      </trkpt>
      <trkpt lat="48.01566" lon="6.89336">
        <ele>723.2</ele>
        <time>2025-08-06T13:12:44Z</time>
      </trkpt>
      <trkpt lat="48.0155" lon="6.89318">
        <ele>722.2</ele>
        <time>2025-08-06T13:12:46Z</time>
      </trkpt>
      <trkpt lat="48.01537" lon="6.89304">
        <ele>721.8</ele>
        <time>2025-08-06T13:12:48Z</time>
      </trkpt>
      <trkpt lat="48.01522" lon="6.89286">
        <ele>721.2</ele>
        <time>2025-08-06T13:12:50Z</time>
      </trkpt>
      <trkpt lat="48.01497" lon="6.89247">
        <ele>720.4</ele>
        <time>2025-08-06T13:12:54Z</time>
      </trkpt>
      <trkpt lat="48.0149" lon="6.89235">
        <ele>720.2</ele>
        <time>2025-08-06T13:12:55Z</time>
      </trkpt>
      <trkpt lat="48.01476" lon="6.89201">
        <ele>719.2</ele>
        <time>2025-08-06T13:12:58Z</time>
      </trkpt>
      <trkpt lat="48.01473" lon="6.89191">
        <ele>719</ele>
        <time>2025-08-06T13:12:59Z</time>
      </trkpt>
      <trkpt lat="48.01458" lon="6.8914">
        <ele>718</ele>
        <time>2025-08-06T13:13:03Z</time>
      </trkpt>
      <trkpt lat="48.01456" lon="6.8913">
        <ele>717.8</ele>
        <time>2025-08-06T13:13:04Z</time>
      </trkpt>
      <trkpt lat="48.01446" lon="6.89064">
        <ele>716.8</ele>
        <time>2025-08-06T13:13:09Z</time>
      </trkpt>
      <trkpt lat="48.01446" lon="6.89023">
        <ele>715.6</ele>
        <time>2025-08-06T13:13:12Z</time>
      </trkpt>
      <trkpt lat="48.01446" lon="6.88985">
        <ele>714.8</ele>
        <time>2025-08-06T13:13:15Z</time>
      </trkpt>
      <trkpt lat="48.01445" lon="6.88973">
        <ele>714.6</ele>
        <time>2025-08-06T13:13:16Z</time>
      </trkpt>
      <trkpt lat="48.01443" lon="6.8896">
        <ele>714.4</ele>
        <time>2025-08-06T13:13:17Z</time>
      </trkpt>
      <trkpt lat="48.01439" lon="6.88948">
        <ele>714.4</ele>
        <time>2025-08-06T13:13:18Z</time>
      </trkpt>
      <trkpt lat="48.01427" lon="6.88929">
        <ele>714</ele>
        <time>2025-08-06T13:13:20Z</time>
      </trkpt>
      <trkpt lat="48.0142" lon="6.88922">
        <ele>713.8</ele>
        <time>2025-08-06T13:13:21Z</time>
      </trkpt>
      <trkpt lat="48.01412" lon="6.88916">
        <ele>713.4</ele>
        <time>2025-08-06T13:13:22Z</time>
      </trkpt>
      <trkpt lat="48.01402" lon="6.88909">
        <ele>713.4</ele>
        <time>2025-08-06T13:13:23Z</time>
      </trkpt>
      <trkpt lat="48.01392" lon="6.88906">
        <ele>713</ele>
        <time>2025-08-06T13:13:24Z</time>
      </trkpt>
      <trkpt lat="48.01365" lon="6.88906">
        <ele>712.2</ele>
        <time>2025-08-06T13:13:27Z</time>
      </trkpt>
      <trkpt lat="48.01325" lon="6.88916">
        <ele>711</ele>
        <time>2025-08-06T13:13:31Z</time>
      </trkpt>
      <trkpt lat="48.01295" lon="6.8892">
        <ele>709.8</ele>
        <time>2025-08-06T13:13:34Z</time>
      </trkpt>
      <trkpt lat="48.01276" lon="6.88914">
        <ele>709</ele>
        <time>2025-08-06T13:13:36Z</time>
      </trkpt>
      <trkpt lat="48.01268" lon="6.88908">
        <ele>708.6</ele>
        <time>2025-08-06T13:13:37Z</time>
      </trkpt>
      <trkpt lat="48.01251" lon="6.8889">
        <ele>707.6</ele>
        <time>2025-08-06T13:13:39Z</time>
      </trkpt>
      <trkpt lat="48.01237" lon="6.88869">
        <ele>706.8</ele>
        <time>2025-08-06T13:13:41Z</time>
      </trkpt>
      <trkpt lat="48.01222" lon="6.88846">
        <ele>706</ele>
        <time>2025-08-06T13:13:43Z</time>
      </trkpt>
      <trkpt lat="48.01211" lon="6.88823">
        <ele>705.8</ele>
        <time>2025-08-06T13:13:45Z</time>
      </trkpt>
      <trkpt lat="48.01207" lon="6.8881">
        <ele>705.6</ele>
        <time>2025-08-06T13:13:46Z</time>
      </trkpt>
      <trkpt lat="48.01202" lon="6.88787">
        <ele>705.4</ele>
        <time>2025-08-06T13:13:48Z</time>
      </trkpt>
      <trkpt lat="48.01199" lon="6.88771">
        <ele>705.2</ele>
        <time>2025-08-06T13:13:49Z</time>
      </trkpt>
      <trkpt lat="48.01198" lon="6.88761">
        <ele>704.8</ele>
        <time>2025-08-06T13:13:50Z</time>
      </trkpt>
      <trkpt lat="48.01197" lon="6.8873">
        <ele>704.6</ele>
        <time>2025-08-06T13:13:52Z</time>
      </trkpt>
      <trkpt lat="48.01193" lon="6.88704">
        <ele>704</ele>
        <time>2025-08-06T13:13:54Z</time>
      </trkpt>
      <trkpt lat="48.01177" lon="6.88665">
        <ele>702.4</ele>
        <time>2025-08-06T13:13:57Z</time>
      </trkpt>
      <trkpt lat="48.01158" lon="6.88629">
        <ele>701.2</ele>
        <time>2025-08-06T13:14:00Z</time>
      </trkpt>
      <trkpt lat="48.01139" lon="6.8859">
        <ele>700.2</ele>
        <time>2025-08-06T13:14:03Z</time>
      </trkpt>
      <trkpt lat="48.01133" lon="6.8858">
        <ele>699.8</ele>
        <time>2025-08-06T13:14:04Z</time>
      </trkpt>
      <trkpt lat="48.01109" lon="6.88542">
        <ele>698.4</ele>
        <time>2025-08-06T13:14:07Z</time>
      </trkpt>
      <trkpt lat="48.01101" lon="6.88531">
        <ele>698.2</ele>
        <time>2025-08-06T13:14:08Z</time>
      </trkpt>
      <trkpt lat="48.01077" lon="6.88497">
        <ele>696.8</ele>
        <time>2025-08-06T13:14:11Z</time>
      </trkpt>
      <trkpt lat="48.01064" lon="6.88472">
        <ele>695.8</ele>
        <time>2025-08-06T13:14:13Z</time>
      </trkpt>
      <trkpt lat="48.0106" lon="6.88461">
        <ele>695.2</ele>
        <time>2025-08-06T13:14:14Z</time>
      </trkpt>
      <trkpt lat="48.01043" lon="6.88415">
        <ele>694</ele>
        <time>2025-08-06T13:14:17Z</time>
      </trkpt>
      <trkpt lat="48.01032" lon="6.88388">
        <ele>692.8</ele>
        <time>2025-08-06T13:14:19Z</time>
      </trkpt>
      <trkpt lat="48.0102" lon="6.88362">
        <ele>691.2</ele>
        <time>2025-08-06T13:14:21Z</time>
      </trkpt>
      <trkpt lat="48.01006" lon="6.88338">
        <ele>690.2</ele>
        <time>2025-08-06T13:14:23Z</time>
      </trkpt>
      <trkpt lat="48.00985" lon="6.88308">
        <ele>688.4</ele>
        <time>2025-08-06T13:14:26Z</time>
      </trkpt>
      <trkpt lat="48.00975" lon="6.88298">
        <ele>688.2</ele>
        <time>2025-08-06T13:14:27Z</time>
      </trkpt>
      <trkpt lat="48.00956" lon="6.88285">
        <ele>687.4</ele>
        <time>2025-08-06T13:14:29Z</time>
      </trkpt>
      <trkpt lat="48.00937" lon="6.88277">
        <ele>686</ele>
        <time>2025-08-06T13:14:31Z</time>
      </trkpt>
      <trkpt lat="48.00919" lon="6.88271">
        <ele>684.4</ele>
        <time>2025-08-06T13:14:33Z</time>
      </trkpt>
      <trkpt lat="48.00909" lon="6.88268">
        <ele>684.2</ele>
        <time>2025-08-06T13:14:34Z</time>
      </trkpt>
      <trkpt lat="48.00895" lon="6.88264">
        <ele>683.2</ele>
        <time>2025-08-06T13:14:36Z</time>
      </trkpt>
      <trkpt lat="48.00868" lon="6.88256">
        <ele>681.8</ele>
        <time>2025-08-06T13:14:39Z</time>
      </trkpt>
      <trkpt lat="48.00845" lon="6.88249">
        <ele>680.4</ele>
        <time>2025-08-06T13:14:42Z</time>
      </trkpt>
      <trkpt lat="48.00819" lon="6.88241">
        <ele>679.4</ele>
        <time>2025-08-06T13:14:45Z</time>
      </trkpt>
      <trkpt lat="48.00806" lon="6.88238">
        <ele>679</ele>
        <time>2025-08-06T13:14:47Z</time>
      </trkpt>
      <trkpt lat="48.00783" lon="6.88233">
        <ele>678.2</ele>
        <time>2025-08-06T13:14:50Z</time>
      </trkpt>
      <trkpt lat="48.00768" lon="6.88228">
        <ele>677.6</ele>
        <time>2025-08-06T13:14:53Z</time>
      </trkpt>
      <trkpt lat="48.00763" lon="6.88227">
        <ele>677.2</ele>
        <time>2025-08-06T13:14:54Z</time>
      </trkpt>
      <trkpt lat="48.00755" lon="6.88219">
        <ele>676.4</ele>
        <time>2025-08-06T13:14:57Z</time>
      </trkpt>
      <trkpt lat="48.00751" lon="6.88208">
        <ele>676</ele>
        <time>2025-08-06T13:14:59Z</time>
      </trkpt>
      <trkpt lat="48.0075" lon="6.88202">
        <ele>676</ele>
        <time>2025-08-06T13:15:00Z</time>
      </trkpt>
      <trkpt lat="48.0075" lon="6.88196">
        <ele>675.8</ele>
        <time>2025-08-06T13:15:01Z</time>
      </trkpt>
      <trkpt lat="48.0075" lon="6.88157">
        <ele>675</ele>
        <time>2025-08-06T13:15:06Z</time>
      </trkpt>
      <trkpt lat="48.00749" lon="6.88149">
        <ele>674.6</ele>
        <time>2025-08-06T13:15:07Z</time>
      </trkpt>
      <trkpt lat="48.00745" lon="6.88125">
        <ele>674.4</ele>
        <time>2025-08-06T13:15:10Z</time>
      </trkpt>
      <trkpt lat="48.00741" lon="6.8811">
        <ele>674.2</ele>
        <time>2025-08-06T13:15:12Z</time>
      </trkpt>
      <trkpt lat="48.00737" lon="6.88096">
        <ele>674</ele>
        <time>2025-08-06T13:15:14Z</time>
      </trkpt>
      <trkpt lat="48.00731" lon="6.8808">
        <ele>673.8</ele>
        <time>2025-08-06T13:15:16Z</time>
      </trkpt>
      <trkpt lat="48.00721" lon="6.88057">
        <ele>673</ele>
        <time>2025-08-06T13:15:20Z</time>
      </trkpt>
      <trkpt lat="48.0072" lon="6.88053">
        <ele>673</ele>
        <time>2025-08-06T13:15:21Z</time>
      </trkpt>
      <trkpt lat="48.00717" lon="6.88043">
        <ele>672.8</ele>
        <time>2025-08-06T13:15:24Z</time>
      </trkpt>
      <trkpt lat="48.00718" lon="6.88027">
        <ele>672.2</ele>
        <time>2025-08-06T13:15:30Z</time>
      </trkpt>
      <trkpt lat="48.00717" lon="6.88026">
        <ele>672</ele>
        <time>2025-08-06T13:15:32Z</time>
      </trkpt>
      <trkpt lat="48.00715" lon="6.88026">
        <ele>671.8</ele>
        <time>2025-08-06T13:15:35Z</time>
      </trkpt>
      <trkpt lat="48.00715" lon="6.88025">
        <ele>671.8</ele>
        <time>2025-08-06T13:15:37Z</time>
      </trkpt>
      <trkpt lat="48.00715" lon="6.88017">
        <ele>671.6</ele>
        <time>2025-08-06T13:15:40Z</time>
      </trkpt>
      <trkpt lat="48.00713" lon="6.88013">
        <ele>671.8</ele>
        <time>2025-08-06T13:15:42Z</time>
      </trkpt>
      <trkpt lat="48.00713" lon="6.88011">
        <ele>671.8</ele>
        <time>2025-08-06T13:15:46Z</time>
      </trkpt>
      <trkpt lat="48.00691" lon="6.87964">
        <ele>673.8</ele>
        <time>2025-08-06T13:26:22Z</time>
      </trkpt>
      <trkpt lat="48.00689" lon="6.8796">
        <ele>673.6</ele>
        <time>2025-08-06T13:26:24Z</time>
      </trkpt>
      <trkpt lat="48.00683" lon="6.87957">
        <ele>673.4</ele>
        <time>2025-08-06T13:26:28Z</time>
      </trkpt>
      <trkpt lat="48.00675" lon="6.87959">
        <ele>672.8</ele>
        <time>2025-08-06T13:26:36Z</time>
      </trkpt>
      <trkpt lat="48.00665" lon="6.87957">
        <ele>672.4</ele>
        <time>2025-08-06T13:26:44Z</time>
      </trkpt>
      <trkpt lat="48.00658" lon="6.87953">
        <ele>672.4</ele>
        <time>2025-08-06T13:26:52Z</time>
      </trkpt>
      <trkpt lat="48.00654" lon="6.87948">
        <ele>672.4</ele>
        <time>2025-08-06T13:26:56Z</time>
      </trkpt>
      <trkpt lat="48.00654" lon="6.87946">
        <ele>672.4</ele>
        <time>2025-08-06T13:27:00Z</time>
      </trkpt>
      <trkpt lat="48.00659" lon="6.87917">
        <ele>672.6</ele>
        <time>2025-08-06T13:44:20Z</time>
      </trkpt>
      <trkpt lat="48.0066" lon="6.87915">
        <ele>672.6</ele>
        <time>2025-08-06T13:44:22Z</time>
      </trkpt>
      <trkpt lat="48.00661" lon="6.87912">
        <ele>672.4</ele>
        <time>2025-08-06T13:44:27Z</time>
      </trkpt>
      <trkpt lat="48.00659" lon="6.8791">
        <ele>672.2</ele>
        <time>2025-08-06T13:44:39Z</time>
      </trkpt>
      <trkpt lat="48.00655" lon="6.87904">
        <ele>672</ele>
        <time>2025-08-06T13:44:41Z</time>
      </trkpt>
      <trkpt lat="48.00648" lon="6.87883">
        <ele>672</ele>
        <time>2025-08-06T13:44:45Z</time>
      </trkpt>
      <trkpt lat="48.00631" lon="6.8784">
        <ele>671.8</ele>
        <time>2025-08-06T13:44:52Z</time>
      </trkpt>
      <trkpt lat="48.00626" lon="6.87827">
        <ele>671.8</ele>
        <time>2025-08-06T13:44:54Z</time>
      </trkpt>
      <trkpt lat="48.00615" lon="6.878">
        <ele>671.6</ele>
        <time>2025-08-06T13:44:58Z</time>
      </trkpt>
      <trkpt lat="48.00592" lon="6.87741">
        <ele>671.4</ele>
        <time>2025-08-06T13:45:06Z</time>
      </trkpt>
      <trkpt lat="48.00577" lon="6.87702">
        <ele>671.2</ele>
        <time>2025-08-06T13:45:12Z</time>
      </trkpt>
      <trkpt lat="48.00574" lon="6.87697">
        <ele>671.2</ele>
        <time>2025-08-06T13:45:13Z</time>
      </trkpt>
      <trkpt lat="48.00564" lon="6.87688">
        <ele>671</ele>
        <time>2025-08-06T13:45:15Z</time>
      </trkpt>
      <trkpt lat="48.00538" lon="6.87675">
        <ele>670.8</ele>
        <time>2025-08-06T13:45:20Z</time>
      </trkpt>
      <trkpt lat="48.00534" lon="6.87671">
        <ele>670.6</ele>
        <time>2025-08-06T13:45:21Z</time>
      </trkpt>
      <trkpt lat="48.00519" lon="6.87658">
        <ele>670.2</ele>
        <time>2025-08-06T13:45:24Z</time>
      </trkpt>
      <trkpt lat="48.00504" lon="6.87645">
        <ele>669.6</ele>
        <time>2025-08-06T13:45:27Z</time>
      </trkpt>
      <trkpt lat="48.00468" lon="6.87611">
        <ele>668.8</ele>
        <time>2025-08-06T13:45:33Z</time>
      </trkpt>
      <trkpt lat="48.00462" lon="6.87605">
        <ele>668.6</ele>
        <time>2025-08-06T13:45:34Z</time>
      </trkpt>
      <trkpt lat="48.00437" lon="6.8758">
        <ele>667.6</ele>
        <time>2025-08-06T13:45:38Z</time>
      </trkpt>
      <trkpt lat="48.00424" lon="6.87567">
        <ele>667.4</ele>
        <time>2025-08-06T13:45:40Z</time>
      </trkpt>
      <trkpt lat="48.00382" lon="6.87527">
        <ele>666.6</ele>
        <time>2025-08-06T13:45:47Z</time>
      </trkpt>
      <trkpt lat="48.00374" lon="6.87516">
        <ele>666.2</ele>
        <time>2025-08-06T13:45:50Z</time>
      </trkpt>
      <trkpt lat="48.00368" lon="6.87506">
        <ele>665.4</ele>
        <time>2025-08-06T13:45:53Z</time>
      </trkpt>
      <trkpt lat="48.00365" lon="6.87498">
        <ele>665.2</ele>
        <time>2025-08-06T13:45:55Z</time>
      </trkpt>
      <trkpt lat="48.00362" lon="6.87475">
        <ele>664.8</ele>
        <time>2025-08-06T13:46:00Z</time>
      </trkpt>
      <trkpt lat="48.00358" lon="6.87456">
        <ele>664.6</ele>
        <time>2025-08-06T13:46:05Z</time>
      </trkpt>
      <trkpt lat="48.00357" lon="6.87452">
        <ele>664.6</ele>
        <time>2025-08-06T13:46:06Z</time>
      </trkpt>
      <trkpt lat="48.00351" lon="6.87425">
        <ele>664.4</ele>
        <time>2025-08-06T13:46:11Z</time>
      </trkpt>
      <trkpt lat="48.0034" lon="6.87385">
        <ele>664.4</ele>
        <time>2025-08-06T13:46:17Z</time>
      </trkpt>
      <trkpt lat="48.00329" lon="6.87356">
        <ele>664.4</ele>
        <time>2025-08-06T13:46:21Z</time>
      </trkpt>
      <trkpt lat="48.00321" lon="6.87341">
        <ele>664.4</ele>
        <time>2025-08-06T13:46:23Z</time>
      </trkpt>
      <trkpt lat="48.00289" lon="6.87293">
        <ele>664</ele>
        <time>2025-08-06T13:46:30Z</time>
      </trkpt>
      <trkpt lat="48.00259" lon="6.87263">
        <ele>663.6</ele>
        <time>2025-08-06T13:46:35Z</time>
      </trkpt>
      <trkpt lat="48.00252" lon="6.87257">
        <ele>663.6</ele>
        <time>2025-08-06T13:46:36Z</time>
      </trkpt>
      <trkpt lat="48.00203" lon="6.87213">
        <ele>662.4</ele>
        <time>2025-08-06T13:46:43Z</time>
      </trkpt>
      <trkpt lat="48.00166" lon="6.8718">
        <ele>661.2</ele>
        <time>2025-08-06T13:46:48Z</time>
      </trkpt>
      <trkpt lat="48.00143" lon="6.87161">
        <ele>660.8</ele>
        <time>2025-08-06T13:46:51Z</time>
      </trkpt>
      <trkpt lat="48.00109" lon="6.87139">
        <ele>659.6</ele>
        <time>2025-08-06T13:46:55Z</time>
      </trkpt>
      <trkpt lat="48.00084" lon="6.87124">
        <ele>659.2</ele>
        <time>2025-08-06T13:46:58Z</time>
      </trkpt>
      <trkpt lat="48.00076" lon="6.8712">
        <ele>658.6</ele>
        <time>2025-08-06T13:46:59Z</time>
      </trkpt>
      <trkpt lat="48.00034" lon="6.87095">
        <ele>657.4</ele>
        <time>2025-08-06T13:47:04Z</time>
      </trkpt>
      <trkpt lat="48.0001" lon="6.8708">
        <ele>657</ele>
        <time>2025-08-06T13:47:07Z</time>
      </trkpt>
      <trkpt lat="47.99995" lon="6.87067">
        <ele>656.4</ele>
        <time>2025-08-06T13:47:09Z</time>
      </trkpt>
      <trkpt lat="47.99981" lon="6.87051">
        <ele>655.8</ele>
        <time>2025-08-06T13:47:11Z</time>
      </trkpt>
      <trkpt lat="47.99959" lon="6.87013">
        <ele>655.2</ele>
        <time>2025-08-06T13:47:15Z</time>
      </trkpt>
      <trkpt lat="47.99953" lon="6.86999">
        <ele>655</ele>
        <time>2025-08-06T13:47:16Z</time>
      </trkpt>
      <trkpt lat="47.99944" lon="6.86965">
        <ele>654.4</ele>
        <time>2025-08-06T13:47:19Z</time>
      </trkpt>
      <trkpt lat="47.99938" lon="6.86937">
        <ele>654.2</ele>
        <time>2025-08-06T13:47:21Z</time>
      </trkpt>
      <trkpt lat="47.99932" lon="6.86889">
        <ele>653.4</ele>
        <time>2025-08-06T13:47:25Z</time>
      </trkpt>
      <trkpt lat="47.99928" lon="6.86864">
        <ele>653.2</ele>
        <time>2025-08-06T13:47:27Z</time>
      </trkpt>
      <trkpt lat="47.99918" lon="6.86805">
        <ele>652.8</ele>
        <time>2025-08-06T13:47:32Z</time>
      </trkpt>
      <trkpt lat="47.999" lon="6.86748">
        <ele>652.2</ele>
        <time>2025-08-06T13:47:37Z</time>
      </trkpt>
      <trkpt lat="47.99893" lon="6.86726">
        <ele>652</ele>
        <time>2025-08-06T13:47:39Z</time>
      </trkpt>
      <trkpt lat="47.99875" lon="6.86656">
        <ele>651.2</ele>
        <time>2025-08-06T13:47:45Z</time>
      </trkpt>
      <trkpt lat="47.99873" lon="6.86644">
        <ele>650.8</ele>
        <time>2025-08-06T13:47:46Z</time>
      </trkpt>
      <trkpt lat="47.99871" lon="6.86594">
        <ele>650.2</ele>
        <time>2025-08-06T13:47:50Z</time>
      </trkpt>
      <trkpt lat="47.99872" lon="6.86558">
        <ele>649.8</ele>
        <time>2025-08-06T13:47:53Z</time>
      </trkpt>
      <trkpt lat="47.99869" lon="6.86485">
        <ele>649.4</ele>
        <time>2025-08-06T13:47:59Z</time>
      </trkpt>
      <trkpt lat="47.99864" lon="6.86423">
        <ele>648.6</ele>
        <time>2025-08-06T13:48:04Z</time>
      </trkpt>
      <trkpt lat="47.9986" lon="6.86362">
        <ele>647.6</ele>
        <time>2025-08-06T13:48:09Z</time>
      </trkpt>
      <trkpt lat="47.99859" lon="6.86349">
        <ele>647.6</ele>
        <time>2025-08-06T13:48:10Z</time>
      </trkpt>
      <trkpt lat="47.99854" lon="6.86288">
        <ele>647</ele>
        <time>2025-08-06T13:48:15Z</time>
      </trkpt>
      <trkpt lat="47.99851" lon="6.86253">
        <ele>646.8</ele>
        <time>2025-08-06T13:48:18Z</time>
      </trkpt>
      <trkpt lat="47.9985" lon="6.86241">
        <ele>646.6</ele>
        <time>2025-08-06T13:48:19Z</time>
      </trkpt>
      <trkpt lat="47.9985" lon="6.8623">
        <ele>646.4</ele>
        <time>2025-08-06T13:48:20Z</time>
      </trkpt>
      <trkpt lat="47.99853" lon="6.8621">
        <ele>646.2</ele>
        <time>2025-08-06T13:48:22Z</time>
      </trkpt>
      <trkpt lat="47.99855" lon="6.86193">
        <ele>646</ele>
        <time>2025-08-06T13:48:24Z</time>
      </trkpt>
      <trkpt lat="47.99852" lon="6.86185">
        <ele>645.8</ele>
        <time>2025-08-06T13:48:25Z</time>
      </trkpt>
      <trkpt lat="47.99848" lon="6.86177">
        <ele>645.4</ele>
        <time>2025-08-06T13:48:26Z</time>
      </trkpt>
      <trkpt lat="47.99845" lon="6.86168">
        <ele>645.4</ele>
        <time>2025-08-06T13:48:27Z</time>
      </trkpt>
      <trkpt lat="47.9984" lon="6.86148">
        <ele>645.2</ele>
        <time>2025-08-06T13:48:29Z</time>
      </trkpt>
      <trkpt lat="47.99827" lon="6.86096">
        <ele>644.8</ele>
        <time>2025-08-06T13:48:34Z</time>
      </trkpt>
      <trkpt lat="47.99815" lon="6.86065">
        <ele>644.6</ele>
        <time>2025-08-06T13:48:37Z</time>
      </trkpt>
      <trkpt lat="47.99798" lon="6.86024">
        <ele>644</ele>
        <time>2025-08-06T13:48:41Z</time>
      </trkpt>
      <trkpt lat="47.99767" lon="6.85957">
        <ele>643.4</ele>
        <time>2025-08-06T13:48:48Z</time>
      </trkpt>
      <trkpt lat="47.99762" lon="6.85947">
        <ele>643.4</ele>
        <time>2025-08-06T13:48:49Z</time>
      </trkpt>
      <trkpt lat="47.99724" lon="6.85885">
        <ele>643.2</ele>
        <time>2025-08-06T13:48:56Z</time>
      </trkpt>
      <trkpt lat="47.99712" lon="6.85868">
        <ele>643</ele>
        <time>2025-08-06T13:48:58Z</time>
      </trkpt>
      <trkpt lat="47.99694" lon="6.85843">
        <ele>643</ele>
        <time>2025-08-06T13:49:01Z</time>
      </trkpt>
      <trkpt lat="47.99681" lon="6.85829">
        <ele>643</ele>
        <time>2025-08-06T13:49:03Z</time>
      </trkpt>
      <trkpt lat="47.99631" lon="6.85791">
        <ele>643</ele>
        <time>2025-08-06T13:49:10Z</time>
      </trkpt>
      <trkpt lat="47.99624" lon="6.85785">
        <ele>643</ele>
        <time>2025-08-06T13:49:11Z</time>
      </trkpt>
      <trkpt lat="47.99571" lon="6.85743">
        <ele>643.4</ele>
        <time>2025-08-06T13:49:19Z</time>
      </trkpt>
      <trkpt lat="47.99564" lon="6.85738">
        <ele>643.4</ele>
        <time>2025-08-06T13:49:20Z</time>
      </trkpt>
      <trkpt lat="47.99513" lon="6.85698">
        <ele>643.6</ele>
        <time>2025-08-06T13:49:28Z</time>
      </trkpt>
      <trkpt lat="47.99487" lon="6.85676">
        <ele>643.4</ele>
        <time>2025-08-06T13:49:32Z</time>
      </trkpt>
      <trkpt lat="47.99451" lon="6.85634">
        <ele>643.2</ele>
        <time>2025-08-06T13:49:38Z</time>
      </trkpt>
      <trkpt lat="47.99425" lon="6.8559">
        <ele>642.6</ele>
        <time>2025-08-06T13:49:43Z</time>
      </trkpt>
      <trkpt lat="47.99416" lon="6.8557">
        <ele>642.4</ele>
        <time>2025-08-06T13:49:45Z</time>
      </trkpt>
      <trkpt lat="47.99383" lon="6.85499">
        <ele>641.8</ele>
        <time>2025-08-06T13:49:52Z</time>
      </trkpt>
      <trkpt lat="47.99373" lon="6.85478">
        <ele>641.4</ele>
        <time>2025-08-06T13:49:54Z</time>
      </trkpt>
      <trkpt lat="47.99368" lon="6.85467">
        <ele>641</ele>
        <time>2025-08-06T13:49:55Z</time>
      </trkpt>
      <trkpt lat="47.99357" lon="6.85445">
        <ele>641</ele>
        <time>2025-08-06T13:49:57Z</time>
      </trkpt>
      <trkpt lat="47.99347" lon="6.85422">
        <ele>640.4</ele>
        <time>2025-08-06T13:49:59Z</time>
      </trkpt>
      <trkpt lat="47.99336" lon="6.85397">
        <ele>640</ele>
        <time>2025-08-06T13:50:01Z</time>
      </trkpt>
      <trkpt lat="47.99331" lon="6.85384">
        <ele>639.4</ele>
        <time>2025-08-06T13:50:02Z</time>
      </trkpt>
      <trkpt lat="47.99313" lon="6.85327">
        <ele>638</ele>
        <time>2025-08-06T13:50:06Z</time>
      </trkpt>
      <trkpt lat="47.99306" lon="6.85288">
        <ele>636.6</ele>
        <time>2025-08-06T13:50:09Z</time>
      </trkpt>
      <trkpt lat="47.99301" lon="6.85247">
        <ele>635.8</ele>
        <time>2025-08-06T13:50:12Z</time>
      </trkpt>
      <trkpt lat="47.993" lon="6.85233">
        <ele>635.6</ele>
        <time>2025-08-06T13:50:13Z</time>
      </trkpt>
      <trkpt lat="47.9929" lon="6.85141">
        <ele>634.4</ele>
        <time>2025-08-06T13:50:20Z</time>
      </trkpt>
      <trkpt lat="47.99279" lon="6.8508">
        <ele>634.2</ele>
        <time>2025-08-06T13:50:25Z</time>
      </trkpt>
      <trkpt lat="47.9927" lon="6.85059">
        <ele>633.8</ele>
        <time>2025-08-06T13:50:27Z</time>
      </trkpt>
      <trkpt lat="47.99259" lon="6.85041">
        <ele>633.6</ele>
        <time>2025-08-06T13:50:29Z</time>
      </trkpt>
      <trkpt lat="47.99247" lon="6.85026">
        <ele>633.4</ele>
        <time>2025-08-06T13:50:31Z</time>
      </trkpt>
      <trkpt lat="47.99219" lon="6.84997">
        <ele>633.2</ele>
        <time>2025-08-06T13:50:35Z</time>
      </trkpt>
      <trkpt lat="47.99169" lon="6.84947">
        <ele>632.4</ele>
        <time>2025-08-06T13:50:42Z</time>
      </trkpt>
      <trkpt lat="47.99162" lon="6.8494">
        <ele>632.2</ele>
        <time>2025-08-06T13:50:43Z</time>
      </trkpt>
      <trkpt lat="47.99124" lon="6.84902">
        <ele>631.2</ele>
        <time>2025-08-06T13:50:48Z</time>
      </trkpt>
      <trkpt lat="47.99102" lon="6.8488">
        <ele>631</ele>
        <time>2025-08-06T13:50:51Z</time>
      </trkpt>
      <trkpt lat="47.99064" lon="6.84829">
        <ele>630.4</ele>
        <time>2025-08-06T13:50:57Z</time>
      </trkpt>
      <trkpt lat="47.99044" lon="6.84788">
        <ele>630.4</ele>
        <time>2025-08-06T13:51:01Z</time>
      </trkpt>
      <trkpt lat="47.99036" lon="6.84767">
        <ele>630.2</ele>
        <time>2025-08-06T13:51:03Z</time>
      </trkpt>
      <trkpt lat="47.99017" lon="6.84703">
        <ele>630.2</ele>
        <time>2025-08-06T13:51:09Z</time>
      </trkpt>
      <trkpt lat="47.98998" lon="6.84648">
        <ele>630</ele>
        <time>2025-08-06T13:51:14Z</time>
      </trkpt>
      <trkpt lat="47.98981" lon="6.84612">
        <ele>629.2</ele>
        <time>2025-08-06T13:51:17Z</time>
      </trkpt>
      <trkpt lat="47.98966" lon="6.84579">
        <ele>628.2</ele>
        <time>2025-08-06T13:51:20Z</time>
      </trkpt>
      <trkpt lat="47.9896" lon="6.84564">
        <ele>627.8</ele>
        <time>2025-08-06T13:51:21Z</time>
      </trkpt>
      <trkpt lat="47.98949" lon="6.84527">
        <ele>626.8</ele>
        <time>2025-08-06T13:51:24Z</time>
      </trkpt>
      <trkpt lat="47.98945" lon="6.84513">
        <ele>626.6</ele>
        <time>2025-08-06T13:51:25Z</time>
      </trkpt>
      <trkpt lat="47.9894" lon="6.84484">
        <ele>625.4</ele>
        <time>2025-08-06T13:51:27Z</time>
      </trkpt>
      <trkpt lat="47.98931" lon="6.84439">
        <ele>624.2</ele>
        <time>2025-08-06T13:51:30Z</time>
      </trkpt>
      <trkpt lat="47.98925" lon="6.84415">
        <ele>624</ele>
        <time>2025-08-06T13:51:32Z</time>
      </trkpt>
      <trkpt lat="47.98907" lon="6.84362">
        <ele>623</ele>
        <time>2025-08-06T13:51:36Z</time>
      </trkpt>
      <trkpt lat="47.98899" lon="6.84341">
        <ele>622.6</ele>
        <time>2025-08-06T13:51:38Z</time>
      </trkpt>
      <trkpt lat="47.9888" lon="6.84295">
        <ele>622.2</ele>
        <time>2025-08-06T13:51:42Z</time>
      </trkpt>
      <trkpt lat="47.98858" lon="6.84251">
        <ele>621.4</ele>
        <time>2025-08-06T13:51:46Z</time>
      </trkpt>
      <trkpt lat="47.98852" lon="6.84241">
        <ele>621.2</ele>
        <time>2025-08-06T13:51:47Z</time>
      </trkpt>
      <trkpt lat="47.98811" lon="6.84181">
        <ele>620</ele>
        <time>2025-08-06T13:51:53Z</time>
      </trkpt>
      <trkpt lat="47.98783" lon="6.84141">
        <ele>618.8</ele>
        <time>2025-08-06T13:51:57Z</time>
      </trkpt>
      <trkpt lat="47.98755" lon="6.84099">
        <ele>617.8</ele>
        <time>2025-08-06T13:52:01Z</time>
      </trkpt>
      <trkpt lat="47.98748" lon="6.84088">
        <ele>617.4</ele>
        <time>2025-08-06T13:52:02Z</time>
      </trkpt>
      <trkpt lat="47.98726" lon="6.84055">
        <ele>616.6</ele>
        <time>2025-08-06T13:52:05Z</time>
      </trkpt>
      <trkpt lat="47.98697" lon="6.84013">
        <ele>615.6</ele>
        <time>2025-08-06T13:52:09Z</time>
      </trkpt>
      <trkpt lat="47.9869" lon="6.84003">
        <ele>615.2</ele>
        <time>2025-08-06T13:52:10Z</time>
      </trkpt>
      <trkpt lat="47.98661" lon="6.8396">
        <ele>614.4</ele>
        <time>2025-08-06T13:52:14Z</time>
      </trkpt>
      <trkpt lat="47.9863" lon="6.83903">
        <ele>613.8</ele>
        <time>2025-08-06T13:52:19Z</time>
      </trkpt>
      <trkpt lat="47.98612" lon="6.83869">
        <ele>613.6</ele>
        <time>2025-08-06T13:52:22Z</time>
      </trkpt>
      <trkpt lat="47.98589" lon="6.83825">
        <ele>612.8</ele>
        <time>2025-08-06T13:52:26Z</time>
      </trkpt>
      <trkpt lat="47.98572" lon="6.83793">
        <ele>612.6</ele>
        <time>2025-08-06T13:52:29Z</time>
      </trkpt>
      <trkpt lat="47.98534" lon="6.83719">
        <ele>612.2</ele>
        <time>2025-08-06T13:52:36Z</time>
      </trkpt>
      <trkpt lat="47.98507" lon="6.8367">
        <ele>611.8</ele>
        <time>2025-08-06T13:52:41Z</time>
      </trkpt>
      <trkpt lat="47.98487" lon="6.83644">
        <ele>611.4</ele>
        <time>2025-08-06T13:52:44Z</time>
      </trkpt>
      <trkpt lat="47.98449" lon="6.83611">
        <ele>610.8</ele>
        <time>2025-08-06T13:52:49Z</time>
      </trkpt>
      <trkpt lat="47.98442" lon="6.83607">
        <ele>610.6</ele>
        <time>2025-08-06T13:52:50Z</time>
      </trkpt>
      <trkpt lat="47.984" lon="6.83591">
        <ele>610.2</ele>
        <time>2025-08-06T13:52:55Z</time>
      </trkpt>
      <trkpt lat="47.98348" lon="6.83575">
        <ele>609.6</ele>
        <time>2025-08-06T13:53:01Z</time>
      </trkpt>
      <trkpt lat="47.9834" lon="6.8357">
        <ele>609.4</ele>
        <time>2025-08-06T13:53:02Z</time>
      </trkpt>
      <trkpt lat="47.98308" lon="6.83538">
        <ele>608.8</ele>
        <time>2025-08-06T13:53:06Z</time>
      </trkpt>
      <trkpt lat="47.98303" lon="6.83531">
        <ele>608.4</ele>
        <time>2025-08-06T13:53:07Z</time>
      </trkpt>
      <trkpt lat="47.98276" lon="6.83493">
        <ele>607.4</ele>
        <time>2025-08-06T13:53:11Z</time>
      </trkpt>
      <trkpt lat="47.98255" lon="6.83465">
        <ele>606.8</ele>
        <time>2025-08-06T13:53:14Z</time>
      </trkpt>
      <trkpt lat="47.9822" lon="6.8342">
        <ele>606.6</ele>
        <time>2025-08-06T13:53:19Z</time>
      </trkpt>
      <trkpt lat="47.98204" lon="6.83405">
        <ele>606.2</ele>
        <time>2025-08-06T13:53:21Z</time>
      </trkpt>
      <trkpt lat="47.98168" lon="6.83388">
        <ele>605.6</ele>
        <time>2025-08-06T13:53:25Z</time>
      </trkpt>
      <trkpt lat="47.98149" lon="6.83385">
        <ele>605.4</ele>
        <time>2025-08-06T13:53:27Z</time>
      </trkpt>
      <trkpt lat="47.9813" lon="6.83386">
        <ele>605.2</ele>
        <time>2025-08-06T13:53:29Z</time>
      </trkpt>
      <trkpt lat="47.9809" lon="6.83389">
        <ele>604.2</ele>
        <time>2025-08-06T13:53:33Z</time>
      </trkpt>
      <trkpt lat="47.98051" lon="6.83392">
        <ele>603.2</ele>
        <time>2025-08-06T13:53:37Z</time>
      </trkpt>
      <trkpt lat="47.97994" lon="6.83404">
        <ele>602.2</ele>
        <time>2025-08-06T13:53:43Z</time>
      </trkpt>
      <trkpt lat="47.97984" lon="6.83408">
        <ele>602</ele>
        <time>2025-08-06T13:53:44Z</time>
      </trkpt>
      <trkpt lat="47.97956" lon="6.83419">
        <ele>601.2</ele>
        <time>2025-08-06T13:53:47Z</time>
      </trkpt>
      <trkpt lat="47.97908" lon="6.83437">
        <ele>600</ele>
        <time>2025-08-06T13:53:52Z</time>
      </trkpt>
      <trkpt lat="47.97898" lon="6.83438">
        <ele>599.8</ele>
        <time>2025-08-06T13:53:53Z</time>
      </trkpt>
      <trkpt lat="47.97869" lon="6.83434">
        <ele>599</ele>
        <time>2025-08-06T13:53:56Z</time>
      </trkpt>
      <trkpt lat="47.97859" lon="6.83429">
        <ele>598.6</ele>
        <time>2025-08-06T13:53:57Z</time>
      </trkpt>
      <trkpt lat="47.97831" lon="6.83411">
        <ele>597.4</ele>
        <time>2025-08-06T13:54:00Z</time>
      </trkpt>
      <trkpt lat="47.97822" lon="6.83403">
        <ele>597.2</ele>
        <time>2025-08-06T13:54:01Z</time>
      </trkpt>
      <trkpt lat="47.97779" lon="6.83362">
        <ele>596.2</ele>
        <time>2025-08-06T13:54:06Z</time>
      </trkpt>
      <trkpt lat="47.97752" lon="6.83339">
        <ele>595.8</ele>
        <time>2025-08-06T13:54:09Z</time>
      </trkpt>
      <trkpt lat="47.97731" lon="6.83325">
        <ele>595</ele>
        <time>2025-08-06T13:54:11Z</time>
      </trkpt>
      <trkpt lat="47.97692" lon="6.83305">
        <ele>593.6</ele>
        <time>2025-08-06T13:54:15Z</time>
      </trkpt>
      <trkpt lat="47.97652" lon="6.83285">
        <ele>592.6</ele>
        <time>2025-08-06T13:54:19Z</time>
      </trkpt>
      <trkpt lat="47.97622" lon="6.8327">
        <ele>591.4</ele>
        <time>2025-08-06T13:54:22Z</time>
      </trkpt>
      <trkpt lat="47.97611" lon="6.83265">
        <ele>591.2</ele>
        <time>2025-08-06T13:54:23Z</time>
      </trkpt>
      <trkpt lat="47.97579" lon="6.8325">
        <ele>590.4</ele>
        <time>2025-08-06T13:54:26Z</time>
      </trkpt>
      <trkpt lat="47.9755" lon="6.83238">
        <ele>589.2</ele>
        <time>2025-08-06T13:54:29Z</time>
      </trkpt>
      <trkpt lat="47.97508" lon="6.83224">
        <ele>588.2</ele>
        <time>2025-08-06T13:54:33Z</time>
      </trkpt>
      <trkpt lat="47.97467" lon="6.83213">
        <ele>587</ele>
        <time>2025-08-06T13:54:37Z</time>
      </trkpt>
      <trkpt lat="47.97427" lon="6.83204">
        <ele>586</ele>
        <time>2025-08-06T13:54:41Z</time>
      </trkpt>
      <trkpt lat="47.97417" lon="6.83201">
        <ele>585.8</ele>
        <time>2025-08-06T13:54:42Z</time>
      </trkpt>
      <trkpt lat="47.97398" lon="6.83197">
        <ele>584.8</ele>
        <time>2025-08-06T13:54:44Z</time>
      </trkpt>
      <trkpt lat="47.9737" lon="6.83187">
        <ele>584.2</ele>
        <time>2025-08-06T13:54:47Z</time>
      </trkpt>
      <trkpt lat="47.97361" lon="6.83181">
        <ele>583.8</ele>
        <time>2025-08-06T13:54:48Z</time>
      </trkpt>
      <trkpt lat="47.97328" lon="6.83152">
        <ele>582.8</ele>
        <time>2025-08-06T13:54:52Z</time>
      </trkpt>
      <trkpt lat="47.9732" lon="6.83144">
        <ele>582.6</ele>
        <time>2025-08-06T13:54:53Z</time>
      </trkpt>
      <trkpt lat="47.97312" lon="6.83137">
        <ele>582.4</ele>
        <time>2025-08-06T13:54:54Z</time>
      </trkpt>
      <trkpt lat="47.97294" lon="6.83128">
        <ele>582</ele>
        <time>2025-08-06T13:54:56Z</time>
      </trkpt>
      <trkpt lat="47.97285" lon="6.83127">
        <ele>581.8</ele>
        <time>2025-08-06T13:54:57Z</time>
      </trkpt>
      <trkpt lat="47.97275" lon="6.83126">
        <ele>581.6</ele>
        <time>2025-08-06T13:54:58Z</time>
      </trkpt>
      <trkpt lat="47.97255" lon="6.8313">
        <ele>581</ele>
        <time>2025-08-06T13:55:00Z</time>
      </trkpt>
      <trkpt lat="47.97246" lon="6.83135">
        <ele>580.8</ele>
        <time>2025-08-06T13:55:01Z</time>
      </trkpt>
      <trkpt lat="47.97209" lon="6.83157">
        <ele>580.2</ele>
        <time>2025-08-06T13:55:05Z</time>
      </trkpt>
      <trkpt lat="47.97191" lon="6.83169">
        <ele>579.6</ele>
        <time>2025-08-06T13:55:07Z</time>
      </trkpt>
      <trkpt lat="47.97155" lon="6.83192">
        <ele>578.6</ele>
        <time>2025-08-06T13:55:11Z</time>
      </trkpt>
      <trkpt lat="47.9712" lon="6.83218">
        <ele>577.8</ele>
        <time>2025-08-06T13:55:15Z</time>
      </trkpt>
      <trkpt lat="47.97112" lon="6.83225">
        <ele>577.4</ele>
        <time>2025-08-06T13:55:16Z</time>
      </trkpt>
      <trkpt lat="47.97082" lon="6.83258">
        <ele>577.2</ele>
        <time>2025-08-06T13:55:20Z</time>
      </trkpt>
      <trkpt lat="47.9706" lon="6.8329">
        <ele>576.6</ele>
        <time>2025-08-06T13:55:23Z</time>
      </trkpt>
      <trkpt lat="47.97045" lon="6.83311">
        <ele>575.6</ele>
        <time>2025-08-06T13:55:25Z</time>
      </trkpt>
      <trkpt lat="47.97018" lon="6.83336">
        <ele>574.4</ele>
        <time>2025-08-06T13:55:28Z</time>
      </trkpt>
      <trkpt lat="47.97009" lon="6.83343">
        <ele>574</ele>
        <time>2025-08-06T13:55:29Z</time>
      </trkpt>
      <trkpt lat="47.96991" lon="6.83356">
        <ele>572.8</ele>
        <time>2025-08-06T13:55:31Z</time>
      </trkpt>
      <trkpt lat="47.96972" lon="6.83367">
        <ele>572.4</ele>
        <time>2025-08-06T13:55:33Z</time>
      </trkpt>
      <trkpt lat="47.96963" lon="6.8337">
        <ele>572.2</ele>
        <time>2025-08-06T13:55:34Z</time>
      </trkpt>
      <trkpt lat="47.96944" lon="6.83371">
        <ele>572</ele>
        <time>2025-08-06T13:55:36Z</time>
      </trkpt>
      <trkpt lat="47.96934" lon="6.83369">
        <ele>571.8</ele>
        <time>2025-08-06T13:55:37Z</time>
      </trkpt>
      <trkpt lat="47.96873" lon="6.83349">
        <ele>571.2</ele>
        <time>2025-08-06T13:55:44Z</time>
      </trkpt>
      <trkpt lat="47.96865" lon="6.83346">
        <ele>571.2</ele>
        <time>2025-08-06T13:55:45Z</time>
      </trkpt>
      <trkpt lat="47.96822" lon="6.8333">
        <ele>570.8</ele>
        <time>2025-08-06T13:55:50Z</time>
      </trkpt>
      <trkpt lat="47.96804" lon="6.83325">
        <ele>570.6</ele>
        <time>2025-08-06T13:55:52Z</time>
      </trkpt>
      <trkpt lat="47.96758" lon="6.83315">
        <ele>569.6</ele>
        <time>2025-08-06T13:55:57Z</time>
      </trkpt>
      <trkpt lat="47.9671" lon="6.83305">
        <ele>568.2</ele>
        <time>2025-08-06T13:56:02Z</time>
      </trkpt>
      <trkpt lat="47.967" lon="6.83305">
        <ele>567.6</ele>
        <time>2025-08-06T13:56:03Z</time>
      </trkpt>
      <trkpt lat="47.96691" lon="6.83307">
        <ele>567</ele>
        <time>2025-08-06T13:56:04Z</time>
      </trkpt>
      <trkpt lat="47.96671" lon="6.83313">
        <ele>566.4</ele>
        <time>2025-08-06T13:56:06Z</time>
      </trkpt>
      <trkpt lat="47.96662" lon="6.83319">
        <ele>566.2</ele>
        <time>2025-08-06T13:56:07Z</time>
      </trkpt>
      <trkpt lat="47.96653" lon="6.83326">
        <ele>565.4</ele>
        <time>2025-08-06T13:56:08Z</time>
      </trkpt>
      <trkpt lat="47.96629" lon="6.83349">
        <ele>564</ele>
        <time>2025-08-06T13:56:11Z</time>
      </trkpt>
      <trkpt lat="47.9662" lon="6.8336">
        <ele>563.8</ele>
        <time>2025-08-06T13:56:12Z</time>
      </trkpt>
      <trkpt lat="47.96595" lon="6.83388">
        <ele>562.4</ele>
        <time>2025-08-06T13:56:15Z</time>
      </trkpt>
      <trkpt lat="47.96578" lon="6.83408">
        <ele>561</ele>
        <time>2025-08-06T13:56:17Z</time>
      </trkpt>
      <trkpt lat="47.9657" lon="6.83417">
        <ele>560.4</ele>
        <time>2025-08-06T13:56:18Z</time>
      </trkpt>
      <trkpt lat="47.96552" lon="6.83435">
        <ele>559.4</ele>
        <time>2025-08-06T13:56:20Z</time>
      </trkpt>
      <trkpt lat="47.9653" lon="6.8346">
        <ele>558.2</ele>
        <time>2025-08-06T13:56:23Z</time>
      </trkpt>
      <trkpt lat="47.96524" lon="6.83469">
        <ele>557.8</ele>
        <time>2025-08-06T13:56:24Z</time>
      </trkpt>
      <trkpt lat="47.96519" lon="6.83477">
        <ele>557</ele>
        <time>2025-08-06T13:56:25Z</time>
      </trkpt>
      <trkpt lat="47.96509" lon="6.83493">
        <ele>555.8</ele>
        <time>2025-08-06T13:56:27Z</time>
      </trkpt>
      <trkpt lat="47.96501" lon="6.83506">
        <ele>555.2</ele>
        <time>2025-08-06T13:56:29Z</time>
      </trkpt>
      <trkpt lat="47.96498" lon="6.83512">
        <ele>554.6</ele>
        <time>2025-08-06T13:56:30Z</time>
      </trkpt>
      <trkpt lat="47.96492" lon="6.83522">
        <ele>553.6</ele>
        <time>2025-08-06T13:56:33Z</time>
      </trkpt>
      <trkpt lat="47.96487" lon="6.8353">
        <ele>552.6</ele>
        <time>2025-08-06T13:56:38Z</time>
      </trkpt>
      <trkpt lat="47.96487" lon="6.83531">
        <ele>552.4</ele>
        <time>2025-08-06T13:56:39Z</time>
      </trkpt>
      <trkpt lat="47.96487" lon="6.83531">
        <ele>552.2</ele>
        <time>2025-08-06T13:56:40Z</time>
      </trkpt>
      <trkpt lat="47.96484" lon="6.83536">
        <ele>551.6</ele>
        <time>2025-08-06T13:56:48Z</time>
      </trkpt>
      <trkpt lat="47.96483" lon="6.83539">
        <ele>551.6</ele>
        <time>2025-08-06T13:56:49Z</time>
      </trkpt>
      <trkpt lat="47.96469" lon="6.83555">
        <ele>551.4</ele>
        <time>2025-08-06T13:56:54Z</time>
      </trkpt>
      <trkpt lat="47.96465" lon="6.83557">
        <ele>551.2</ele>
        <time>2025-08-06T13:56:55Z</time>
      </trkpt>
      <trkpt lat="47.96439" lon="6.8357">
        <ele>551</ele>
        <time>2025-08-06T13:57:00Z</time>
      </trkpt>
      <trkpt lat="47.96418" lon="6.83586">
        <ele>551</ele>
        <time>2025-08-06T13:57:04Z</time>
      </trkpt>
      <trkpt lat="47.96413" lon="6.83592">
        <ele>550.8</ele>
        <time>2025-08-06T13:57:05Z</time>
      </trkpt>
      <trkpt lat="47.96381" lon="6.83626">
        <ele>550.6</ele>
        <time>2025-08-06T13:57:11Z</time>
      </trkpt>
      <trkpt lat="47.9637" lon="6.83639">
        <ele>550.4</ele>
        <time>2025-08-06T13:57:13Z</time>
      </trkpt>
      <trkpt lat="47.96353" lon="6.83655">
        <ele>550.2</ele>
        <time>2025-08-06T13:57:16Z</time>
      </trkpt>
      <trkpt lat="47.96341" lon="6.83666">
        <ele>550</ele>
        <time>2025-08-06T13:57:18Z</time>
      </trkpt>
      <trkpt lat="47.96309" lon="6.8369">
        <ele>549.4</ele>
        <time>2025-08-06T13:57:23Z</time>
      </trkpt>
      <trkpt lat="47.96296" lon="6.83701">
        <ele>549.2</ele>
        <time>2025-08-06T13:57:25Z</time>
      </trkpt>
      <trkpt lat="47.96258" lon="6.8373">
        <ele>548.4</ele>
        <time>2025-08-06T13:57:31Z</time>
      </trkpt>
      <trkpt lat="47.96251" lon="6.83734">
        <ele>548.2</ele>
        <time>2025-08-06T13:57:32Z</time>
      </trkpt>
      <trkpt lat="47.96244" lon="6.83735">
        <ele>548</ele>
        <time>2025-08-06T13:57:33Z</time>
      </trkpt>
      <trkpt lat="47.96231" lon="6.83734">
        <ele>548</ele>
        <time>2025-08-06T13:57:35Z</time>
      </trkpt>
      <trkpt lat="47.96225" lon="6.83731">
        <ele>548</ele>
        <time>2025-08-06T13:57:36Z</time>
      </trkpt>
      <trkpt lat="47.96219" lon="6.83727">
        <ele>548.2</ele>
        <time>2025-08-06T13:57:37Z</time>
      </trkpt>
      <trkpt lat="47.96209" lon="6.83714">
        <ele>548</ele>
        <time>2025-08-06T13:57:39Z</time>
      </trkpt>
      <trkpt lat="47.96205" lon="6.83707">
        <ele>548</ele>
        <time>2025-08-06T13:57:40Z</time>
      </trkpt>
      <trkpt lat="47.96202" lon="6.83698">
        <ele>548</ele>
        <time>2025-08-06T13:57:41Z</time>
      </trkpt>
      <trkpt lat="47.96197" lon="6.8367">
        <ele>548.2</ele>
        <time>2025-08-06T13:57:44Z</time>
      </trkpt>
      <trkpt lat="47.96183" lon="6.83609">
        <ele>548.8</ele>
        <time>2025-08-06T13:57:51Z</time>
      </trkpt>
      <trkpt lat="47.96162" lon="6.83564">
        <ele>549</ele>
        <time>2025-08-06T13:57:57Z</time>
      </trkpt>
      <trkpt lat="47.96133" lon="6.83521">
        <ele>549.6</ele>
        <time>2025-08-06T13:58:04Z</time>
      </trkpt>
      <trkpt lat="47.96124" lon="6.83509">
        <ele>549.6</ele>
        <time>2025-08-06T13:58:06Z</time>
      </trkpt>
      <trkpt lat="47.96083" lon="6.83445">
        <ele>550</ele>
        <time>2025-08-06T13:58:16Z</time>
      </trkpt>
      <trkpt lat="47.9604" lon="6.8338">
        <ele>549.8</ele>
        <time>2025-08-06T13:58:25Z</time>
      </trkpt>
      <trkpt lat="47.96035" lon="6.83372">
        <ele>550</ele>
        <time>2025-08-06T13:58:26Z</time>
      </trkpt>
      <trkpt lat="47.95997" lon="6.83315">
        <ele>549</ele>
        <time>2025-08-06T13:58:33Z</time>
      </trkpt>
      <trkpt lat="47.95991" lon="6.83306">
        <ele>548.8</ele>
        <time>2025-08-06T13:58:34Z</time>
      </trkpt>
      <trkpt lat="47.95985" lon="6.83298">
        <ele>548.8</ele>
        <time>2025-08-06T13:58:35Z</time>
      </trkpt>
      <trkpt lat="47.95944" lon="6.83234">
        <ele>547.6</ele>
        <time>2025-08-06T13:58:43Z</time>
      </trkpt>
      <trkpt lat="47.95939" lon="6.83226">
        <ele>547.4</ele>
        <time>2025-08-06T13:58:44Z</time>
      </trkpt>
      <trkpt lat="47.959" lon="6.83171">
        <ele>547.4</ele>
        <time>2025-08-06T13:58:52Z</time>
      </trkpt>
      <trkpt lat="47.95865" lon="6.83133">
        <ele>548</ele>
        <time>2025-08-06T13:58:59Z</time>
      </trkpt>
      <trkpt lat="47.95821" lon="6.83086">
        <ele>548.8</ele>
        <time>2025-08-06T13:59:08Z</time>
      </trkpt>
      <trkpt lat="47.95817" lon="6.8308">
        <ele>549</ele>
        <time>2025-08-06T13:59:09Z</time>
      </trkpt>
      <trkpt lat="47.95792" lon="6.83041">
        <ele>549.2</ele>
        <time>2025-08-06T13:59:15Z</time>
      </trkpt>
      <trkpt lat="47.95766" lon="6.82976">
        <ele>549.4</ele>
        <time>2025-08-06T13:59:23Z</time>
      </trkpt>
      <trkpt lat="47.95739" lon="6.82902">
        <ele>548.6</ele>
        <time>2025-08-06T13:59:31Z</time>
      </trkpt>
      <trkpt lat="47.95718" lon="6.82844">
        <ele>547.6</ele>
        <time>2025-08-06T13:59:37Z</time>
      </trkpt>
      <trkpt lat="47.95709" lon="6.82814">
        <ele>547</ele>
        <time>2025-08-06T13:59:40Z</time>
      </trkpt>
      <trkpt lat="47.95695" lon="6.82786">
        <ele>546.6</ele>
        <time>2025-08-06T13:59:43Z</time>
      </trkpt>
      <trkpt lat="47.95679" lon="6.82758">
        <ele>546</ele>
        <time>2025-08-06T13:59:46Z</time>
      </trkpt>
      <trkpt lat="47.95663" lon="6.82731">
        <ele>545.2</ele>
        <time>2025-08-06T13:59:49Z</time>
      </trkpt>
      <trkpt lat="47.95638" lon="6.82686">
        <ele>544.4</ele>
        <time>2025-08-06T13:59:54Z</time>
      </trkpt>
      <trkpt lat="47.95628" lon="6.8267">
        <ele>544.2</ele>
        <time>2025-08-06T13:59:56Z</time>
      </trkpt>
      <trkpt lat="47.95607" lon="6.8263">
        <ele>544</ele>
        <time>2025-08-06T14:00:01Z</time>
      </trkpt>
      <trkpt lat="47.9558" lon="6.82593">
        <ele>544</ele>
        <time>2025-08-06T14:00:07Z</time>
      </trkpt>
      <trkpt lat="47.95554" lon="6.82571">
        <ele>544.6</ele>
        <time>2025-08-06T14:00:13Z</time>
      </trkpt>
      <trkpt lat="47.9554" lon="6.82561">
        <ele>544.8</ele>
        <time>2025-08-06T14:00:16Z</time>
      </trkpt>
      <trkpt lat="47.95524" lon="6.82553">
        <ele>545.6</ele>
        <time>2025-08-06T14:00:20Z</time>
      </trkpt>
      <trkpt lat="47.95512" lon="6.8254">
        <ele>546.2</ele>
        <time>2025-08-06T14:00:24Z</time>
      </trkpt>
      <trkpt lat="47.95503" lon="6.8252">
        <ele>546.8</ele>
        <time>2025-08-06T14:00:28Z</time>
      </trkpt>
      <trkpt lat="47.955" lon="6.8251">
        <ele>547.2</ele>
        <time>2025-08-06T14:00:30Z</time>
      </trkpt>
      <trkpt lat="47.95498" lon="6.825">
        <ele>547.8</ele>
        <time>2025-08-06T14:00:32Z</time>
      </trkpt>
      <trkpt lat="47.95493" lon="6.82476">
        <ele>548.8</ele>
        <time>2025-08-06T14:00:37Z</time>
      </trkpt>
      <trkpt lat="47.95491" lon="6.82471">
        <ele>549</ele>
        <time>2025-08-06T14:00:38Z</time>
      </trkpt>
      <trkpt lat="47.9548" lon="6.82448">
        <ele>549.8</ele>
        <time>2025-08-06T14:00:43Z</time>
      </trkpt>
      <trkpt lat="47.95464" lon="6.82429">
        <ele>550.4</ele>
        <time>2025-08-06T14:00:48Z</time>
      </trkpt>
      <trkpt lat="47.95442" lon="6.82402">
        <ele>551</ele>
        <time>2025-08-06T14:00:55Z</time>
      </trkpt>
      <trkpt lat="47.95439" lon="6.824">
        <ele>551</ele>
        <time>2025-08-06T14:00:56Z</time>
      </trkpt>
      <trkpt lat="47.95431" lon="6.82401">
        <ele>551.6</ele>
        <time>2025-08-06T14:00:58Z</time>
      </trkpt>
      <trkpt lat="47.95419" lon="6.82418">
        <ele>552</ele>
        <time>2025-08-06T14:01:02Z</time>
      </trkpt>
      <trkpt lat="47.95417" lon="6.82422">
        <ele>552</ele>
        <time>2025-08-06T14:01:03Z</time>
      </trkpt>
      <trkpt lat="47.95392" lon="6.82462">
        <ele>553.2</ele>
        <time>2025-08-06T14:01:12Z</time>
      </trkpt>
      <trkpt lat="47.95389" lon="6.82466">
        <ele>553.4</ele>
        <time>2025-08-06T14:01:13Z</time>
      </trkpt>
      <trkpt lat="47.9537" lon="6.82485">
        <ele>554.2</ele>
        <time>2025-08-06T14:01:19Z</time>
      </trkpt>
      <trkpt lat="47.95362" lon="6.82487">
        <ele>554.4</ele>
        <time>2025-08-06T14:01:21Z</time>
      </trkpt>
      <trkpt lat="47.95347" lon="6.82489">
        <ele>555.2</ele>
        <time>2025-08-06T14:01:25Z</time>
      </trkpt>
      <trkpt lat="47.95338" lon="6.8249">
        <ele>555.4</ele>
        <time>2025-08-06T14:01:27Z</time>
      </trkpt>
      <trkpt lat="47.95315" lon="6.82495">
        <ele>556</ele>
        <time>2025-08-06T14:01:33Z</time>
      </trkpt>
      <trkpt lat="47.95291" lon="6.82508">
        <ele>556.6</ele>
        <time>2025-08-06T14:01:39Z</time>
      </trkpt>
      <trkpt lat="47.95284" lon="6.82512">
        <ele>557</ele>
        <time>2025-08-06T14:01:41Z</time>
      </trkpt>
      <trkpt lat="47.9528" lon="6.82515">
        <ele>557</ele>
        <time>2025-08-06T14:01:42Z</time>
      </trkpt>
      <trkpt lat="47.95266" lon="6.82527">
        <ele>557.6</ele>
        <time>2025-08-06T14:01:46Z</time>
      </trkpt>
      <trkpt lat="47.95263" lon="6.8253">
        <ele>557.6</ele>
        <time>2025-08-06T14:01:47Z</time>
      </trkpt>
      <trkpt lat="47.95259" lon="6.82534">
        <ele>557.6</ele>
        <time>2025-08-06T14:01:48Z</time>
      </trkpt>
      <trkpt lat="47.95239" lon="6.82556">
        <ele>558.6</ele>
        <time>2025-08-06T14:01:54Z</time>
      </trkpt>
      <trkpt lat="47.95234" lon="6.82563">
        <ele>559</ele>
        <time>2025-08-06T14:01:56Z</time>
      </trkpt>
      <trkpt lat="47.95219" lon="6.82581">
        <ele>559.8</ele>
        <time>2025-08-06T14:02:01Z</time>
      </trkpt>
      <trkpt lat="47.9521" lon="6.82593">
        <ele>560.2</ele>
        <time>2025-08-06T14:02:04Z</time>
      </trkpt>
      <trkpt lat="47.95195" lon="6.82619">
        <ele>561</ele>
        <time>2025-08-06T14:02:10Z</time>
      </trkpt>
      <trkpt lat="47.95184" lon="6.82641">
        <ele>561.8</ele>
        <time>2025-08-06T14:02:15Z</time>
      </trkpt>
      <trkpt lat="47.95182" lon="6.82646">
        <ele>562</ele>
        <time>2025-08-06T14:02:16Z</time>
      </trkpt>
      <trkpt lat="47.95167" lon="6.82673">
        <ele>563</ele>
        <time>2025-08-06T14:02:22Z</time>
      </trkpt>
      <trkpt lat="47.95162" lon="6.82682">
        <ele>563.2</ele>
        <time>2025-08-06T14:02:24Z</time>
      </trkpt>
      <trkpt lat="47.95141" lon="6.8272">
        <ele>564</ele>
        <time>2025-08-06T14:02:33Z</time>
      </trkpt>
      <trkpt lat="47.95124" lon="6.82745">
        <ele>565.2</ele>
        <time>2025-08-06T14:02:40Z</time>
      </trkpt>
      <trkpt lat="47.95122" lon="6.82748">
        <ele>565.2</ele>
        <time>2025-08-06T14:02:41Z</time>
      </trkpt>
      <trkpt lat="47.951" lon="6.82774">
        <ele>566.2</ele>
        <time>2025-08-06T14:02:49Z</time>
      </trkpt>
      <trkpt lat="47.95081" lon="6.82786">
        <ele>567.2</ele>
        <time>2025-08-06T14:02:55Z</time>
      </trkpt>
      <trkpt lat="47.95067" lon="6.82792">
        <ele>567.6</ele>
        <time>2025-08-06T14:02:59Z</time>
      </trkpt>
      <trkpt lat="47.95047" lon="6.82795">
        <ele>568.4</ele>
        <time>2025-08-06T14:03:05Z</time>
      </trkpt>
      <trkpt lat="47.9504" lon="6.82794">
        <ele>568.6</ele>
        <time>2025-08-06T14:03:07Z</time>
      </trkpt>
      <trkpt lat="47.95015" lon="6.8279">
        <ele>569.4</ele>
        <time>2025-08-06T14:03:14Z</time>
      </trkpt>
      <trkpt lat="47.95008" lon="6.82788">
        <ele>569.6</ele>
        <time>2025-08-06T14:03:16Z</time>
      </trkpt>
      <trkpt lat="47.94986" lon="6.82781">
        <ele>570.4</ele>
        <time>2025-08-06T14:03:23Z</time>
      </trkpt>
      <trkpt lat="47.94982" lon="6.8278">
        <ele>570.4</ele>
        <time>2025-08-06T14:03:24Z</time>
      </trkpt>
      <trkpt lat="47.94963" lon="6.82776">
        <ele>571.2</ele>
        <time>2025-08-06T14:03:30Z</time>
      </trkpt>
      <trkpt lat="47.94955" lon="6.82775">
        <ele>571.6</ele>
        <time>2025-08-06T14:03:33Z</time>
      </trkpt>
      <trkpt lat="47.94943" lon="6.82775">
        <ele>572.2</ele>
        <time>2025-08-06T14:03:37Z</time>
      </trkpt>
      <trkpt lat="47.94933" lon="6.82775">
        <ele>572.6</ele>
        <time>2025-08-06T14:03:40Z</time>
      </trkpt>
      <trkpt lat="47.94919" lon="6.82778">
        <ele>573.6</ele>
        <time>2025-08-06T14:03:44Z</time>
      </trkpt>
      <trkpt lat="47.94906" lon="6.82783">
        <ele>574.6</ele>
        <time>2025-08-06T14:03:49Z</time>
      </trkpt>
      <trkpt lat="47.94903" lon="6.82785">
        <ele>574.6</ele>
        <time>2025-08-06T14:03:50Z</time>
      </trkpt>
      <trkpt lat="47.94887" lon="6.82793">
        <ele>575.8</ele>
        <time>2025-08-06T14:03:56Z</time>
      </trkpt>
      <trkpt lat="47.94884" lon="6.82794">
        <ele>575.8</ele>
        <time>2025-08-06T14:03:57Z</time>
      </trkpt>
      <trkpt lat="47.94872" lon="6.82804">
        <ele>576.8</ele>
        <time>2025-08-06T14:04:02Z</time>
      </trkpt>
      <trkpt lat="47.94864" lon="6.82812">
        <ele>577.2</ele>
        <time>2025-08-06T14:04:05Z</time>
      </trkpt>
      <trkpt lat="47.94854" lon="6.82824">
        <ele>577.8</ele>
        <time>2025-08-06T14:04:09Z</time>
      </trkpt>
      <trkpt lat="47.94845" lon="6.82837">
        <ele>578.4</ele>
        <time>2025-08-06T14:04:13Z</time>
      </trkpt>
      <trkpt lat="47.9484" lon="6.82849">
        <ele>578.6</ele>
        <time>2025-08-06T14:04:16Z</time>
      </trkpt>
      <trkpt lat="47.94832" lon="6.82871">
        <ele>579.4</ele>
        <time>2025-08-06T14:04:21Z</time>
      </trkpt>
      <trkpt lat="47.94829" lon="6.82881">
        <ele>579.8</ele>
        <time>2025-08-06T14:04:23Z</time>
      </trkpt>
      <trkpt lat="47.94819" lon="6.82913">
        <ele>580.8</ele>
        <time>2025-08-06T14:04:30Z</time>
      </trkpt>
      <trkpt lat="47.94809" lon="6.82945">
        <ele>581.8</ele>
        <time>2025-08-06T14:04:37Z</time>
      </trkpt>
      <trkpt lat="47.94807" lon="6.8295">
        <ele>582</ele>
        <time>2025-08-06T14:04:38Z</time>
      </trkpt>
      <trkpt lat="47.94795" lon="6.82978">
        <ele>582.8</ele>
        <time>2025-08-06T14:04:45Z</time>
      </trkpt>
      <trkpt lat="47.94791" lon="6.82985">
        <ele>583</ele>
        <time>2025-08-06T14:04:47Z</time>
      </trkpt>
      <trkpt lat="47.94778" lon="6.82999">
        <ele>583.8</ele>
        <time>2025-08-06T14:04:52Z</time>
      </trkpt>
      <trkpt lat="47.94772" lon="6.83003">
        <ele>584</ele>
        <time>2025-08-06T14:04:54Z</time>
      </trkpt>
      <trkpt lat="47.94754" lon="6.83014">
        <ele>585.2</ele>
        <time>2025-08-06T14:05:00Z</time>
      </trkpt>
      <trkpt lat="47.94748" lon="6.83017">
        <ele>585.6</ele>
        <time>2025-08-06T14:05:02Z</time>
      </trkpt>
      <trkpt lat="47.9473" lon="6.83026">
        <ele>586.6</ele>
        <time>2025-08-06T14:05:08Z</time>
      </trkpt>
      <trkpt lat="47.94717" lon="6.83032">
        <ele>587</ele>
        <time>2025-08-06T14:05:12Z</time>
      </trkpt>
      <trkpt lat="47.94701" lon="6.8304">
        <ele>587.6</ele>
        <time>2025-08-06T14:05:17Z</time>
      </trkpt>
      <trkpt lat="47.94686" lon="6.83049">
        <ele>588.6</ele>
        <time>2025-08-06T14:05:22Z</time>
      </trkpt>
      <trkpt lat="47.94672" lon="6.83057">
        <ele>590</ele>
        <time>2025-08-06T14:05:27Z</time>
      </trkpt>
      <trkpt lat="47.94656" lon="6.83065">
        <ele>590.4</ele>
        <time>2025-08-06T14:05:32Z</time>
      </trkpt>
      <trkpt lat="47.94651" lon="6.83068">
        <ele>591</ele>
        <time>2025-08-06T14:05:34Z</time>
      </trkpt>
      <trkpt lat="47.94622" lon="6.83083">
        <ele>592</ele>
        <time>2025-08-06T14:05:43Z</time>
      </trkpt>
      <trkpt lat="47.94619" lon="6.83085">
        <ele>592.2</ele>
        <time>2025-08-06T14:05:44Z</time>
      </trkpt>
      <trkpt lat="47.9459" lon="6.83099">
        <ele>593.2</ele>
        <time>2025-08-06T14:05:53Z</time>
      </trkpt>
      <trkpt lat="47.94587" lon="6.83101">
        <ele>593.4</ele>
        <time>2025-08-06T14:05:54Z</time>
      </trkpt>
      <trkpt lat="47.94568" lon="6.83111">
        <ele>594.4</ele>
        <time>2025-08-06T14:06:00Z</time>
      </trkpt>
      <trkpt lat="47.94558" lon="6.83116">
        <ele>594.8</ele>
        <time>2025-08-06T14:06:03Z</time>
      </trkpt>
      <trkpt lat="47.94542" lon="6.83124">
        <ele>595.6</ele>
        <time>2025-08-06T14:06:08Z</time>
      </trkpt>
      <trkpt lat="47.94529" lon="6.83132">
        <ele>596.2</ele>
        <time>2025-08-06T14:06:13Z</time>
      </trkpt>
      <trkpt lat="47.94513" lon="6.83143">
        <ele>596.8</ele>
        <time>2025-08-06T14:06:17Z</time>
      </trkpt>
      <trkpt lat="47.94504" lon="6.8315">
        <ele>597</ele>
        <time>2025-08-06T14:06:20Z</time>
      </trkpt>
      <trkpt lat="47.94487" lon="6.83169">
        <ele>598</ele>
        <time>2025-08-06T14:06:26Z</time>
      </trkpt>
      <trkpt lat="47.94482" lon="6.83175">
        <ele>598.2</ele>
        <time>2025-08-06T14:06:28Z</time>
      </trkpt>
      <trkpt lat="47.94467" lon="6.83199">
        <ele>599</ele>
        <time>2025-08-06T14:06:35Z</time>
      </trkpt>
      <trkpt lat="47.94452" lon="6.83219">
        <ele>599.6</ele>
        <time>2025-08-06T14:06:41Z</time>
      </trkpt>
      <trkpt lat="47.9444" lon="6.83229">
        <ele>600.2</ele>
        <time>2025-08-06T14:06:45Z</time>
      </trkpt>
      <trkpt lat="47.94428" lon="6.83236">
        <ele>601</ele>
        <time>2025-08-06T14:06:49Z</time>
      </trkpt>
      <trkpt lat="47.94421" lon="6.83239">
        <ele>601.2</ele>
        <time>2025-08-06T14:06:51Z</time>
      </trkpt>
      <trkpt lat="47.94409" lon="6.83242">
        <ele>602.2</ele>
        <time>2025-08-06T14:06:55Z</time>
      </trkpt>
      <trkpt lat="47.94403" lon="6.83243">
        <ele>602.6</ele>
        <time>2025-08-06T14:06:57Z</time>
      </trkpt>
      <trkpt lat="47.94391" lon="6.83244">
        <ele>603.2</ele>
        <time>2025-08-06T14:07:01Z</time>
      </trkpt>
      <trkpt lat="47.94378" lon="6.83242">
        <ele>604.4</ele>
        <time>2025-08-06T14:07:05Z</time>
      </trkpt>
      <trkpt lat="47.94359" lon="6.83235">
        <ele>605.8</ele>
        <time>2025-08-06T14:07:11Z</time>
      </trkpt>
      <trkpt lat="47.94352" lon="6.8323">
        <ele>606.2</ele>
        <time>2025-08-06T14:07:13Z</time>
      </trkpt>
      <trkpt lat="47.94326" lon="6.83205">
        <ele>606.8</ele>
        <time>2025-08-06T14:07:22Z</time>
      </trkpt>
      <trkpt lat="47.94295" lon="6.83174">
        <ele>607.4</ele>
        <time>2025-08-06T14:07:32Z</time>
      </trkpt>
      <trkpt lat="47.94283" lon="6.83162">
        <ele>607.8</ele>
        <time>2025-08-06T14:07:36Z</time>
      </trkpt>
      <trkpt lat="47.94266" lon="6.83147">
        <ele>608.4</ele>
        <time>2025-08-06T14:07:41Z</time>
      </trkpt>
      <trkpt lat="47.94245" lon="6.83127">
        <ele>609.2</ele>
        <time>2025-08-06T14:07:48Z</time>
      </trkpt>
      <trkpt lat="47.94235" lon="6.83118">
        <ele>609.6</ele>
        <time>2025-08-06T14:07:51Z</time>
      </trkpt>
      <trkpt lat="47.94209" lon="6.83095">
        <ele>610.4</ele>
        <time>2025-08-06T14:07:59Z</time>
      </trkpt>
      <trkpt lat="47.94203" lon="6.8309">
        <ele>610.6</ele>
        <time>2025-08-06T14:08:01Z</time>
      </trkpt>
      <trkpt lat="47.94174" lon="6.83064">
        <ele>611</ele>
        <time>2025-08-06T14:08:10Z</time>
      </trkpt>
      <trkpt lat="47.94161" lon="6.83054">
        <ele>611.4</ele>
        <time>2025-08-06T14:08:14Z</time>
      </trkpt>
      <trkpt lat="47.94142" lon="6.83038">
        <ele>612</ele>
        <time>2025-08-06T14:08:20Z</time>
      </trkpt>
      <trkpt lat="47.94125" lon="6.83016">
        <ele>612.6</ele>
        <time>2025-08-06T14:08:26Z</time>
      </trkpt>
      <trkpt lat="47.9412" lon="6.83008">
        <ele>612.8</ele>
        <time>2025-08-06T14:08:28Z</time>
      </trkpt>
      <trkpt lat="47.94099" lon="6.82967">
        <ele>613.6</ele>
        <time>2025-08-06T14:08:37Z</time>
      </trkpt>
      <trkpt lat="47.94096" lon="6.82962">
        <ele>613.8</ele>
        <time>2025-08-06T14:08:38Z</time>
      </trkpt>
      <trkpt lat="47.94073" lon="6.82924">
        <ele>614.4</ele>
        <time>2025-08-06T14:08:47Z</time>
      </trkpt>
      <trkpt lat="47.94062" lon="6.82909">
        <ele>614.8</ele>
        <time>2025-08-06T14:08:51Z</time>
      </trkpt>
      <trkpt lat="47.94036" lon="6.82877">
        <ele>615.6</ele>
        <time>2025-08-06T14:09:00Z</time>
      </trkpt>
      <trkpt lat="47.94027" lon="6.82866">
        <ele>616</ele>
        <time>2025-08-06T14:09:03Z</time>
      </trkpt>
      <trkpt lat="47.94009" lon="6.82845">
        <ele>616.6</ele>
        <time>2025-08-06T14:09:09Z</time>
      </trkpt>
      <trkpt lat="47.93994" lon="6.82827">
        <ele>617.2</ele>
        <time>2025-08-06T14:09:14Z</time>
      </trkpt>
      <trkpt lat="47.93972" lon="6.82801">
        <ele>618</ele>
        <time>2025-08-06T14:09:21Z</time>
      </trkpt>
      <trkpt lat="47.93963" lon="6.82791">
        <ele>618.2</ele>
        <time>2025-08-06T14:09:24Z</time>
      </trkpt>
      <trkpt lat="47.93933" lon="6.82759">
        <ele>619</ele>
        <time>2025-08-06T14:09:33Z</time>
      </trkpt>
      <trkpt lat="47.9393" lon="6.82755">
        <ele>619.2</ele>
        <time>2025-08-06T14:09:35Z</time>
      </trkpt>
      <trkpt lat="47.93896" lon="6.8272">
        <ele>620.2</ele>
        <time>2025-08-06T14:09:44Z</time>
      </trkpt>
      <trkpt lat="47.93886" lon="6.82709">
        <ele>620.6</ele>
        <time>2025-08-06T14:09:47Z</time>
      </trkpt>
      <trkpt lat="47.93868" lon="6.8269">
        <ele>621</ele>
        <time>2025-08-06T14:09:52Z</time>
      </trkpt>
      <trkpt lat="47.93854" lon="6.82675">
        <ele>621.4</ele>
        <time>2025-08-06T14:09:56Z</time>
      </trkpt>
      <trkpt lat="47.93831" lon="6.82658">
        <ele>622.2</ele>
        <time>2025-08-06T14:10:02Z</time>
      </trkpt>
      <trkpt lat="47.93822" lon="6.82653">
        <ele>622.4</ele>
        <time>2025-08-06T14:10:04Z</time>
      </trkpt>
      <trkpt lat="47.9381" lon="6.82647">
        <ele>622.8</ele>
        <time>2025-08-06T14:10:07Z</time>
      </trkpt>
      <trkpt lat="47.93797" lon="6.82642">
        <ele>622.8</ele>
        <time>2025-08-06T14:10:10Z</time>
      </trkpt>
      <trkpt lat="47.93792" lon="6.8264">
        <ele>623</ele>
        <time>2025-08-06T14:10:11Z</time>
      </trkpt>
      <trkpt lat="47.93779" lon="6.82635">
        <ele>623.6</ele>
        <time>2025-08-06T14:10:14Z</time>
      </trkpt>
      <trkpt lat="47.93767" lon="6.82628">
        <ele>623.8</ele>
        <time>2025-08-06T14:10:17Z</time>
      </trkpt>
      <trkpt lat="47.93747" lon="6.82614">
        <ele>624.6</ele>
        <time>2025-08-06T14:10:22Z</time>
      </trkpt>
      <trkpt lat="47.93715" lon="6.82595">
        <ele>625.6</ele>
        <time>2025-08-06T14:10:30Z</time>
      </trkpt>
      <trkpt lat="47.93702" lon="6.82588">
        <ele>625.6</ele>
        <time>2025-08-06T14:10:33Z</time>
      </trkpt>
      <trkpt lat="47.93668" lon="6.82571">
        <ele>626.6</ele>
        <time>2025-08-06T14:10:41Z</time>
      </trkpt>
      <trkpt lat="47.9366" lon="6.82569">
        <ele>626.8</ele>
        <time>2025-08-06T14:10:43Z</time>
      </trkpt>
      <trkpt lat="47.93642" lon="6.82563">
        <ele>627.4</ele>
        <time>2025-08-06T14:10:47Z</time>
      </trkpt>
      <trkpt lat="47.93635" lon="6.82561">
        <ele>627.8</ele>
        <time>2025-08-06T14:10:49Z</time>
      </trkpt>
      <trkpt lat="47.93631" lon="6.82559">
        <ele>627.8</ele>
        <time>2025-08-06T14:10:50Z</time>
      </trkpt>
      <trkpt lat="47.93604" lon="6.82549">
        <ele>628.8</ele>
        <time>2025-08-06T14:10:56Z</time>
      </trkpt>
      <trkpt lat="47.936" lon="6.82547">
        <ele>628.8</ele>
        <time>2025-08-06T14:10:57Z</time>
      </trkpt>
      <trkpt lat="47.93587" lon="6.82543">
        <ele>629.2</ele>
        <time>2025-08-06T14:11:00Z</time>
      </trkpt>
      <trkpt lat="47.93574" lon="6.8254">
        <ele>629.4</ele>
        <time>2025-08-06T14:11:03Z</time>
      </trkpt>
      <trkpt lat="47.93558" lon="6.82533">
        <ele>630</ele>
        <time>2025-08-06T14:11:07Z</time>
      </trkpt>
      <trkpt lat="47.93538" lon="6.82524">
        <ele>630.6</ele>
        <time>2025-08-06T14:11:12Z</time>
      </trkpt>
      <trkpt lat="47.93526" lon="6.82519">
        <ele>630.8</ele>
        <time>2025-08-06T14:11:15Z</time>
      </trkpt>
      <trkpt lat="47.93513" lon="6.82514">
        <ele>631.2</ele>
        <time>2025-08-06T14:11:18Z</time>
      </trkpt>
      <trkpt lat="47.93509" lon="6.82512">
        <ele>631.6</ele>
        <time>2025-08-06T14:11:19Z</time>
      </trkpt>
      <trkpt lat="47.93498" lon="6.82508">
        <ele>632</ele>
        <time>2025-08-06T14:11:22Z</time>
      </trkpt>
      <trkpt lat="47.93493" lon="6.82506">
        <ele>632</ele>
        <time>2025-08-06T14:11:23Z</time>
      </trkpt>
      <trkpt lat="47.93481" lon="6.825">
        <ele>632.4</ele>
        <time>2025-08-06T14:11:26Z</time>
      </trkpt>
      <trkpt lat="47.93469" lon="6.82494">
        <ele>632.6</ele>
        <time>2025-08-06T14:11:29Z</time>
      </trkpt>
      <trkpt lat="47.93441" lon="6.82481">
        <ele>633.4</ele>
        <time>2025-08-06T14:11:36Z</time>
      </trkpt>
      <trkpt lat="47.93437" lon="6.82479">
        <ele>633.6</ele>
        <time>2025-08-06T14:11:37Z</time>
      </trkpt>
      <trkpt lat="47.93401" lon="6.82461">
        <ele>634.6</ele>
        <time>2025-08-06T14:11:46Z</time>
      </trkpt>
      <trkpt lat="47.93394" lon="6.82457">
        <ele>634.8</ele>
        <time>2025-08-06T14:11:48Z</time>
      </trkpt>
      <trkpt lat="47.93373" lon="6.82444">
        <ele>635.6</ele>
        <time>2025-08-06T14:11:54Z</time>
      </trkpt>
      <trkpt lat="47.93353" lon="6.82433">
        <ele>636</ele>
        <time>2025-08-06T14:11:58Z</time>
      </trkpt>
      <trkpt lat="47.93349" lon="6.82431">
        <ele>636.2</ele>
        <time>2025-08-06T14:11:59Z</time>
      </trkpt>
      <trkpt lat="47.93329" lon="6.8242">
        <ele>636.8</ele>
        <time>2025-08-06T14:12:04Z</time>
      </trkpt>
      <trkpt lat="47.93316" lon="6.82413">
        <ele>637</ele>
        <time>2025-08-06T14:12:07Z</time>
      </trkpt>
      <trkpt lat="47.93295" lon="6.82401">
        <ele>637.4</ele>
        <time>2025-08-06T14:12:12Z</time>
      </trkpt>
      <trkpt lat="47.93286" lon="6.82397">
        <ele>637.6</ele>
        <time>2025-08-06T14:12:14Z</time>
      </trkpt>
      <trkpt lat="47.93279" lon="6.82392">
        <ele>637.8</ele>
        <time>2025-08-06T14:12:16Z</time>
      </trkpt>
      <trkpt lat="47.93245" lon="6.8237">
        <ele>638.4</ele>
        <time>2025-08-06T14:12:24Z</time>
      </trkpt>
      <trkpt lat="47.93228" lon="6.82357">
        <ele>638.8</ele>
        <time>2025-08-06T14:12:28Z</time>
      </trkpt>
      <trkpt lat="47.93198" lon="6.82331">
        <ele>639.4</ele>
        <time>2025-08-06T14:12:35Z</time>
      </trkpt>
      <trkpt lat="47.93167" lon="6.82308">
        <ele>640</ele>
        <time>2025-08-06T14:12:42Z</time>
      </trkpt>
      <trkpt lat="47.93158" lon="6.82302">
        <ele>640.2</ele>
        <time>2025-08-06T14:12:44Z</time>
      </trkpt>
      <trkpt lat="47.93149" lon="6.82295">
        <ele>640.4</ele>
        <time>2025-08-06T14:12:46Z</time>
      </trkpt>
      <trkpt lat="47.93131" lon="6.82281">
        <ele>641</ele>
        <time>2025-08-06T14:12:50Z</time>
      </trkpt>
      <trkpt lat="47.93122" lon="6.82274">
        <ele>641</ele>
        <time>2025-08-06T14:12:52Z</time>
      </trkpt>
      <trkpt lat="47.93081" lon="6.82243">
        <ele>642</ele>
        <time>2025-08-06T14:13:01Z</time>
      </trkpt>
      <trkpt lat="47.93046" lon="6.82213">
        <ele>642.8</ele>
        <time>2025-08-06T14:13:09Z</time>
      </trkpt>
      <trkpt lat="47.93033" lon="6.82202">
        <ele>643.2</ele>
        <time>2025-08-06T14:13:12Z</time>
      </trkpt>
      <trkpt lat="47.93015" lon="6.82187">
        <ele>643.6</ele>
        <time>2025-08-06T14:13:16Z</time>
      </trkpt>
      <trkpt lat="47.92998" lon="6.82174">
        <ele>644</ele>
        <time>2025-08-06T14:13:20Z</time>
      </trkpt>
      <trkpt lat="47.92985" lon="6.82165">
        <ele>644.2</ele>
        <time>2025-08-06T14:13:23Z</time>
      </trkpt>
      <trkpt lat="47.9298" lon="6.82162">
        <ele>644.2</ele>
        <time>2025-08-06T14:13:24Z</time>
      </trkpt>
      <trkpt lat="47.92966" lon="6.82153">
        <ele>644.8</ele>
        <time>2025-08-06T14:13:27Z</time>
      </trkpt>
      <trkpt lat="47.92954" lon="6.82143">
        <ele>645</ele>
        <time>2025-08-06T14:13:30Z</time>
      </trkpt>
      <trkpt lat="47.9295" lon="6.82139">
        <ele>645.2</ele>
        <time>2025-08-06T14:13:31Z</time>
      </trkpt>
      <trkpt lat="47.9293" lon="6.82123">
        <ele>645.8</ele>
        <time>2025-08-06T14:13:36Z</time>
      </trkpt>
      <trkpt lat="47.92921" lon="6.82117">
        <ele>646.2</ele>
        <time>2025-08-06T14:13:38Z</time>
      </trkpt>
      <trkpt lat="47.92916" lon="6.82114">
        <ele>646.2</ele>
        <time>2025-08-06T14:13:39Z</time>
      </trkpt>
      <trkpt lat="47.92912" lon="6.82111">
        <ele>646.4</ele>
        <time>2025-08-06T14:13:40Z</time>
      </trkpt>
      <trkpt lat="47.92908" lon="6.82108">
        <ele>646.6</ele>
        <time>2025-08-06T14:13:41Z</time>
      </trkpt>
      <trkpt lat="47.92897" lon="6.82096">
        <ele>647</ele>
        <time>2025-08-06T14:13:44Z</time>
      </trkpt>
      <trkpt lat="47.92893" lon="6.82092">
        <ele>647</ele>
        <time>2025-08-06T14:13:45Z</time>
      </trkpt>
      <trkpt lat="47.92886" lon="6.82086">
        <ele>647.2</ele>
        <time>2025-08-06T14:13:47Z</time>
      </trkpt>
      <trkpt lat="47.92874" lon="6.82074">
        <ele>647.6</ele>
        <time>2025-08-06T14:13:50Z</time>
      </trkpt>
      <trkpt lat="47.92845" lon="6.82042">
        <ele>648.2</ele>
        <time>2025-08-06T14:13:58Z</time>
      </trkpt>
      <trkpt lat="47.92838" lon="6.82033">
        <ele>648.4</ele>
        <time>2025-08-06T14:14:00Z</time>
      </trkpt>
      <trkpt lat="47.92809" lon="6.82">
        <ele>649</ele>
        <time>2025-08-06T14:14:08Z</time>
      </trkpt>
      <trkpt lat="47.928" lon="6.81992">
        <ele>649.2</ele>
        <time>2025-08-06T14:14:10Z</time>
      </trkpt>
      <trkpt lat="47.92793" lon="6.81984">
        <ele>649.2</ele>
        <time>2025-08-06T14:14:12Z</time>
      </trkpt>
      <trkpt lat="47.92789" lon="6.8198">
        <ele>649.2</ele>
        <time>2025-08-06T14:14:13Z</time>
      </trkpt>
      <trkpt lat="47.92755" lon="6.81942">
        <ele>649.8</ele>
        <time>2025-08-06T14:14:22Z</time>
      </trkpt>
      <trkpt lat="47.92734" lon="6.81916">
        <ele>650.2</ele>
        <time>2025-08-06T14:14:28Z</time>
      </trkpt>
      <trkpt lat="47.9272" lon="6.81897">
        <ele>650.4</ele>
        <time>2025-08-06T14:14:32Z</time>
      </trkpt>
      <trkpt lat="47.92693" lon="6.81858">
        <ele>651.2</ele>
        <time>2025-08-06T14:14:40Z</time>
      </trkpt>
      <trkpt lat="47.92664" lon="6.81816">
        <ele>651.8</ele>
        <time>2025-08-06T14:14:49Z</time>
      </trkpt>
      <trkpt lat="47.92655" lon="6.81799">
        <ele>652.2</ele>
        <time>2025-08-06T14:14:52Z</time>
      </trkpt>
      <trkpt lat="47.92649" lon="6.81788">
        <ele>652.2</ele>
        <time>2025-08-06T14:14:54Z</time>
      </trkpt>
      <trkpt lat="47.92639" lon="6.81766">
        <ele>652.6</ele>
        <time>2025-08-06T14:14:58Z</time>
      </trkpt>
      <trkpt lat="47.92635" lon="6.81754">
        <ele>652.6</ele>
        <time>2025-08-06T14:15:00Z</time>
      </trkpt>
      <trkpt lat="47.92632" lon="6.81742">
        <ele>653</ele>
        <time>2025-08-06T14:15:03Z</time>
      </trkpt>
      <trkpt lat="47.92625" lon="6.81717">
        <ele>653.2</ele>
        <time>2025-08-06T14:15:06Z</time>
      </trkpt>
      <trkpt lat="47.92611" lon="6.81662">
        <ele>653.6</ele>
        <time>2025-08-06T14:15:14Z</time>
      </trkpt>
      <trkpt lat="47.92595" lon="6.81599">
        <ele>653.4</ele>
        <time>2025-08-06T14:15:22Z</time>
      </trkpt>
      <trkpt lat="47.92577" lon="6.81524">
        <ele>653.4</ele>
        <time>2025-08-06T14:15:31Z</time>
      </trkpt>
      <trkpt lat="47.92551" lon="6.81449">
        <ele>653</ele>
        <time>2025-08-06T14:15:40Z</time>
      </trkpt>
      <trkpt lat="47.92548" lon="6.8144">
        <ele>653</ele>
        <time>2025-08-06T14:15:41Z</time>
      </trkpt>
      <trkpt lat="47.92527" lon="6.81366">
        <ele>652.2</ele>
        <time>2025-08-06T14:15:49Z</time>
      </trkpt>
      <trkpt lat="47.92519" lon="6.81335">
        <ele>652</ele>
        <time>2025-08-06T14:15:52Z</time>
      </trkpt>
      <trkpt lat="47.92511" lon="6.81291">
        <ele>651</ele>
        <time>2025-08-06T14:15:56Z</time>
      </trkpt>
      <trkpt lat="47.92508" lon="6.8127">
        <ele>650.8</ele>
        <time>2025-08-06T14:15:58Z</time>
      </trkpt>
      <trkpt lat="47.92497" lon="6.81213">
        <ele>650.2</ele>
        <time>2025-08-06T14:16:03Z</time>
      </trkpt>
      <trkpt lat="47.92493" lon="6.81203">
        <ele>650.2</ele>
        <time>2025-08-06T14:16:04Z</time>
      </trkpt>
      <trkpt lat="47.92485" lon="6.81183">
        <ele>649.8</ele>
        <time>2025-08-06T14:16:06Z</time>
      </trkpt>
      <trkpt lat="47.9246" lon="6.8112">
        <ele>648.8</ele>
        <time>2025-08-06T14:16:12Z</time>
      </trkpt>
      <trkpt lat="47.92456" lon="6.81112">
        <ele>648.6</ele>
        <time>2025-08-06T14:16:13Z</time>
      </trkpt>
      <trkpt lat="47.92428" lon="6.81063">
        <ele>647.6</ele>
        <time>2025-08-06T14:16:18Z</time>
      </trkpt>
      <trkpt lat="47.92402" lon="6.81025">
        <ele>646.4</ele>
        <time>2025-08-06T14:16:22Z</time>
      </trkpt>
      <trkpt lat="47.92373" lon="6.80984">
        <ele>644.8</ele>
        <time>2025-08-06T14:16:26Z</time>
      </trkpt>
      <trkpt lat="47.92352" lon="6.80954">
        <ele>643.8</ele>
        <time>2025-08-06T14:16:29Z</time>
      </trkpt>
      <trkpt lat="47.92345" lon="6.80943">
        <ele>643.6</ele>
        <time>2025-08-06T14:16:30Z</time>
      </trkpt>
      <trkpt lat="47.92326" lon="6.80911">
        <ele>642.6</ele>
        <time>2025-08-06T14:16:33Z</time>
      </trkpt>
      <trkpt lat="47.9232" lon="6.80899">
        <ele>642.2</ele>
        <time>2025-08-06T14:16:34Z</time>
      </trkpt>
      <trkpt lat="47.92303" lon="6.80866">
        <ele>641.4</ele>
        <time>2025-08-06T14:16:37Z</time>
      </trkpt>
      <trkpt lat="47.92294" lon="6.80843">
        <ele>640.6</ele>
        <time>2025-08-06T14:16:39Z</time>
      </trkpt>
      <trkpt lat="47.92287" lon="6.80814">
        <ele>640</ele>
        <time>2025-08-06T14:16:41Z</time>
      </trkpt>
      <trkpt lat="47.92282" lon="6.80789">
        <ele>639.2</ele>
        <time>2025-08-06T14:16:43Z</time>
      </trkpt>
      <trkpt lat="47.92279" lon="6.80775">
        <ele>638.8</ele>
        <time>2025-08-06T14:16:44Z</time>
      </trkpt>
      <trkpt lat="47.92274" lon="6.80742">
        <ele>637.8</ele>
        <time>2025-08-06T14:16:46Z</time>
      </trkpt>
      <trkpt lat="47.92273" lon="6.80727">
        <ele>637.6</ele>
        <time>2025-08-06T14:16:47Z</time>
      </trkpt>
      <trkpt lat="47.92273" lon="6.80712">
        <ele>637</ele>
        <time>2025-08-06T14:16:48Z</time>
      </trkpt>
      <trkpt lat="47.92273" lon="6.80712">
        <ele>636.6</ele>
        <time>2025-08-06T14:16:49Z</time>
      </trkpt>
      <trkpt lat="47.9227" lon="6.80666">
        <ele>635.6</ele>
        <time>2025-08-06T14:16:51Z</time>
      </trkpt>
      <trkpt lat="47.92264" lon="6.80609">
        <ele>634.2</ele>
        <time>2025-08-06T14:16:55Z</time>
      </trkpt>
      <trkpt lat="47.92259" lon="6.80559">
        <ele>633</ele>
        <time>2025-08-06T14:16:58Z</time>
      </trkpt>
      <trkpt lat="47.92255" lon="6.80532">
        <ele>631.6</ele>
        <time>2025-08-06T14:17:00Z</time>
      </trkpt>
      <trkpt lat="47.9225" lon="6.80499">
        <ele>630.8</ele>
        <time>2025-08-06T14:17:02Z</time>
      </trkpt>
      <trkpt lat="47.92246" lon="6.80486">
        <ele>630.6</ele>
        <time>2025-08-06T14:17:03Z</time>
      </trkpt>
      <trkpt lat="47.92239" lon="6.80462">
        <ele>628.8</ele>
        <time>2025-08-06T14:17:05Z</time>
      </trkpt>
      <trkpt lat="47.92221" lon="6.80421">
        <ele>628</ele>
        <time>2025-08-06T14:17:08Z</time>
      </trkpt>
      <trkpt lat="47.92216" lon="6.80411">
        <ele>627.6</ele>
        <time>2025-08-06T14:17:09Z</time>
      </trkpt>
      <trkpt lat="47.92193" lon="6.80376">
        <ele>626.4</ele>
        <time>2025-08-06T14:17:12Z</time>
      </trkpt>
      <trkpt lat="47.9217" lon="6.80351">
        <ele>625.2</ele>
        <time>2025-08-06T14:17:15Z</time>
      </trkpt>
      <trkpt lat="47.92161" lon="6.80343">
        <ele>624.6</ele>
        <time>2025-08-06T14:17:16Z</time>
      </trkpt>
      <trkpt lat="47.9215" lon="6.80334">
        <ele>624.2</ele>
        <time>2025-08-06T14:17:17Z</time>
      </trkpt>
      <trkpt lat="47.92124" lon="6.80309">
        <ele>623</ele>
        <time>2025-08-06T14:17:20Z</time>
      </trkpt>
      <trkpt lat="47.92099" lon="6.80284">
        <ele>621.6</ele>
        <time>2025-08-06T14:17:23Z</time>
      </trkpt>
      <trkpt lat="47.92084" lon="6.80268">
        <ele>620.8</ele>
        <time>2025-08-06T14:17:25Z</time>
      </trkpt>
      <trkpt lat="47.92077" lon="6.80258">
        <ele>620</ele>
        <time>2025-08-06T14:17:26Z</time>
      </trkpt>
      <trkpt lat="47.92069" lon="6.80248">
        <ele>619.6</ele>
        <time>2025-08-06T14:17:27Z</time>
      </trkpt>
      <trkpt lat="47.92056" lon="6.80222">
        <ele>619</ele>
        <time>2025-08-06T14:17:29Z</time>
      </trkpt>
      <trkpt lat="47.92051" lon="6.80212">
        <ele>618.6</ele>
        <time>2025-08-06T14:17:30Z</time>
      </trkpt>
      <trkpt lat="47.92035" lon="6.80175">
        <ele>617.6</ele>
        <time>2025-08-06T14:17:33Z</time>
      </trkpt>
      <trkpt lat="47.92019" lon="6.80137">
        <ele>616.4</ele>
        <time>2025-08-06T14:17:36Z</time>
      </trkpt>
      <trkpt lat="47.92008" lon="6.8011">
        <ele>615.6</ele>
        <time>2025-08-06T14:17:38Z</time>
      </trkpt>
      <trkpt lat="47.91998" lon="6.80087">
        <ele>615.2</ele>
        <time>2025-08-06T14:17:40Z</time>
      </trkpt>
      <trkpt lat="47.91988" lon="6.80063">
        <ele>614</ele>
        <time>2025-08-06T14:17:42Z</time>
      </trkpt>
      <trkpt lat="47.91972" lon="6.80024">
        <ele>612.8</ele>
        <time>2025-08-06T14:17:45Z</time>
      </trkpt>
      <trkpt lat="47.91962" lon="6.79999">
        <ele>612.2</ele>
        <time>2025-08-06T14:17:47Z</time>
      </trkpt>
      <trkpt lat="47.91953" lon="6.79974">
        <ele>611.6</ele>
        <time>2025-08-06T14:17:49Z</time>
      </trkpt>
      <trkpt lat="47.91932" lon="6.79913">
        <ele>610.6</ele>
        <time>2025-08-06T14:17:54Z</time>
      </trkpt>
      <trkpt lat="47.91926" lon="6.79893">
        <ele>610.4</ele>
        <time>2025-08-06T14:17:56Z</time>
      </trkpt>
      <trkpt lat="47.91903" lon="6.79824">
        <ele>610.4</ele>
        <time>2025-08-06T14:18:03Z</time>
      </trkpt>
      <trkpt lat="47.91883" lon="6.79763">
        <ele>611.4</ele>
        <time>2025-08-06T14:18:10Z</time>
      </trkpt>
      <trkpt lat="47.91872" lon="6.79731">
        <ele>611.8</ele>
        <time>2025-08-06T14:18:14Z</time>
      </trkpt>
      <trkpt lat="47.9186" lon="6.79695">
        <ele>612.4</ele>
        <time>2025-08-06T14:18:19Z</time>
      </trkpt>
      <trkpt lat="47.91844" lon="6.79648">
        <ele>612.8</ele>
        <time>2025-08-06T14:18:25Z</time>
      </trkpt>
      <trkpt lat="47.91834" lon="6.79613">
        <ele>612.8</ele>
        <time>2025-08-06T14:18:29Z</time>
      </trkpt>
      <trkpt lat="47.91821" lon="6.79544">
        <ele>611.8</ele>
        <time>2025-08-06T14:18:35Z</time>
      </trkpt>
      <trkpt lat="47.91819" lon="6.79532">
        <ele>611.8</ele>
        <time>2025-08-06T14:18:36Z</time>
      </trkpt>
      <trkpt lat="47.91812" lon="6.79494">
        <ele>610.6</ele>
        <time>2025-08-06T14:18:39Z</time>
      </trkpt>
      <trkpt lat="47.91806" lon="6.79454">
        <ele>609.2</ele>
        <time>2025-08-06T14:18:42Z</time>
      </trkpt>
      <trkpt lat="47.91798" lon="6.79413">
        <ele>608</ele>
        <time>2025-08-06T14:18:45Z</time>
      </trkpt>
      <trkpt lat="47.91791" lon="6.79371">
        <ele>606.2</ele>
        <time>2025-08-06T14:18:48Z</time>
      </trkpt>
      <trkpt lat="47.91786" lon="6.79344">
        <ele>605.6</ele>
        <time>2025-08-06T14:18:50Z</time>
      </trkpt>
      <trkpt lat="47.91784" lon="6.7933">
        <ele>605</ele>
        <time>2025-08-06T14:18:51Z</time>
      </trkpt>
      <trkpt lat="47.91774" lon="6.7929">
        <ele>603.6</ele>
        <time>2025-08-06T14:18:54Z</time>
      </trkpt>
      <trkpt lat="47.91769" lon="6.79278">
        <ele>603.2</ele>
        <time>2025-08-06T14:18:55Z</time>
      </trkpt>
      <trkpt lat="47.91756" lon="6.79256">
        <ele>602.6</ele>
        <time>2025-08-06T14:18:57Z</time>
      </trkpt>
      <trkpt lat="47.91748" lon="6.79247">
        <ele>602</ele>
        <time>2025-08-06T14:18:58Z</time>
      </trkpt>
      <trkpt lat="47.91732" lon="6.7923">
        <ele>601</ele>
        <time>2025-08-06T14:19:00Z</time>
      </trkpt>
      <trkpt lat="47.91706" lon="6.79204">
        <ele>600</ele>
        <time>2025-08-06T14:19:03Z</time>
      </trkpt>
      <trkpt lat="47.91688" lon="6.79187">
        <ele>599</ele>
        <time>2025-08-06T14:19:05Z</time>
      </trkpt>
      <trkpt lat="47.91669" lon="6.79169">
        <ele>597.8</ele>
        <time>2025-08-06T14:19:07Z</time>
      </trkpt>
      <trkpt lat="47.91649" lon="6.79152">
        <ele>596.6</ele>
        <time>2025-08-06T14:19:09Z</time>
      </trkpt>
      <trkpt lat="47.91629" lon="6.79136">
        <ele>595.4</ele>
        <time>2025-08-06T14:19:11Z</time>
      </trkpt>
      <trkpt lat="47.91618" lon="6.79128">
        <ele>594.4</ele>
        <time>2025-08-06T14:19:12Z</time>
      </trkpt>
      <trkpt lat="47.91597" lon="6.79113">
        <ele>593</ele>
        <time>2025-08-06T14:19:14Z</time>
      </trkpt>
      <trkpt lat="47.91577" lon="6.79097">
        <ele>592</ele>
        <time>2025-08-06T14:19:16Z</time>
      </trkpt>
      <trkpt lat="47.91547" lon="6.79075">
        <ele>590.4</ele>
        <time>2025-08-06T14:19:19Z</time>
      </trkpt>
      <trkpt lat="47.91525" lon="6.79057">
        <ele>589.2</ele>
        <time>2025-08-06T14:19:21Z</time>
      </trkpt>
      <trkpt lat="47.91505" lon="6.7904">
        <ele>588</ele>
        <time>2025-08-06T14:19:23Z</time>
      </trkpt>
      <trkpt lat="47.91475" lon="6.79014">
        <ele>586.6</ele>
        <time>2025-08-06T14:19:26Z</time>
      </trkpt>
      <trkpt lat="47.91466" lon="6.79005">
        <ele>586.4</ele>
        <time>2025-08-06T14:19:27Z</time>
      </trkpt>
      <trkpt lat="47.91458" lon="6.78996">
        <ele>585.4</ele>
        <time>2025-08-06T14:19:28Z</time>
      </trkpt>
      <trkpt lat="47.91433" lon="6.78971">
        <ele>584</ele>
        <time>2025-08-06T14:19:31Z</time>
      </trkpt>
      <trkpt lat="47.91417" lon="6.78953">
        <ele>583.6</ele>
        <time>2025-08-06T14:19:33Z</time>
      </trkpt>
      <trkpt lat="47.91397" lon="6.78925">
        <ele>582.8</ele>
        <time>2025-08-06T14:19:36Z</time>
      </trkpt>
      <trkpt lat="47.91372" lon="6.78889">
        <ele>582.4</ele>
        <time>2025-08-06T14:19:40Z</time>
      </trkpt>
      <trkpt lat="47.91331" lon="6.78831">
        <ele>582</ele>
        <time>2025-08-06T14:19:47Z</time>
      </trkpt>
      <trkpt lat="47.91287" lon="6.78768">
        <ele>582</ele>
        <time>2025-08-06T14:19:55Z</time>
      </trkpt>
      <trkpt lat="47.91282" lon="6.7876">
        <ele>582</ele>
        <time>2025-08-06T14:19:56Z</time>
      </trkpt>
      <trkpt lat="47.91242" lon="6.78707">
        <ele>581.8</ele>
        <time>2025-08-06T14:20:03Z</time>
      </trkpt>
      <trkpt lat="47.91235" lon="6.787">
        <ele>581.8</ele>
        <time>2025-08-06T14:20:04Z</time>
      </trkpt>
      <trkpt lat="47.91186" lon="6.78653">
        <ele>581</ele>
        <time>2025-08-06T14:20:11Z</time>
      </trkpt>
      <trkpt lat="47.9118" lon="6.78646">
        <ele>580.8</ele>
        <time>2025-08-06T14:20:12Z</time>
      </trkpt>
      <trkpt lat="47.91173" lon="6.7864">
        <ele>580.4</ele>
        <time>2025-08-06T14:20:13Z</time>
      </trkpt>
      <trkpt lat="47.91152" lon="6.78623">
        <ele>579.4</ele>
        <time>2025-08-06T14:20:16Z</time>
      </trkpt>
      <trkpt lat="47.91137" lon="6.78614">
        <ele>579.2</ele>
        <time>2025-08-06T14:20:18Z</time>
      </trkpt>
      <trkpt lat="47.91129" lon="6.78611">
        <ele>579</ele>
        <time>2025-08-06T14:20:19Z</time>
      </trkpt>
      <trkpt lat="47.91104" lon="6.78606">
        <ele>578.4</ele>
        <time>2025-08-06T14:20:22Z</time>
      </trkpt>
      <trkpt lat="47.91088" lon="6.78602">
        <ele>578</ele>
        <time>2025-08-06T14:20:24Z</time>
      </trkpt>
      <trkpt lat="47.9108" lon="6.78599">
        <ele>577.8</ele>
        <time>2025-08-06T14:20:25Z</time>
      </trkpt>
      <trkpt lat="47.91072" lon="6.78594">
        <ele>577.8</ele>
        <time>2025-08-06T14:20:26Z</time>
      </trkpt>
      <trkpt lat="47.91056" lon="6.78581">
        <ele>577.2</ele>
        <time>2025-08-06T14:20:28Z</time>
      </trkpt>
      <trkpt lat="47.91049" lon="6.78573">
        <ele>577.2</ele>
        <time>2025-08-06T14:20:29Z</time>
      </trkpt>
      <trkpt lat="47.91018" lon="6.7854">
        <ele>575.8</ele>
        <time>2025-08-06T14:20:33Z</time>
      </trkpt>
      <trkpt lat="47.91002" lon="6.78523">
        <ele>574.6</ele>
        <time>2025-08-06T14:20:35Z</time>
      </trkpt>
      <trkpt lat="47.90993" lon="6.78515">
        <ele>574.6</ele>
        <time>2025-08-06T14:20:36Z</time>
      </trkpt>
      <trkpt lat="47.90976" lon="6.78498">
        <ele>573.8</ele>
        <time>2025-08-06T14:20:38Z</time>
      </trkpt>
      <trkpt lat="47.9096" lon="6.78481">
        <ele>572.6</ele>
        <time>2025-08-06T14:20:40Z</time>
      </trkpt>
      <trkpt lat="47.90943" lon="6.78464">
        <ele>571.4</ele>
        <time>2025-08-06T14:20:42Z</time>
      </trkpt>
      <trkpt lat="47.90916" lon="6.78438">
        <ele>570.4</ele>
        <time>2025-08-06T14:20:45Z</time>
      </trkpt>
      <trkpt lat="47.90899" lon="6.78422">
        <ele>568.8</ele>
        <time>2025-08-06T14:20:47Z</time>
      </trkpt>
      <trkpt lat="47.90872" lon="6.78399">
        <ele>567.8</ele>
        <time>2025-08-06T14:20:50Z</time>
      </trkpt>
      <trkpt lat="47.90855" lon="6.78384">
        <ele>566.8</ele>
        <time>2025-08-06T14:20:52Z</time>
      </trkpt>
      <trkpt lat="47.90846" lon="6.78377">
        <ele>566.4</ele>
        <time>2025-08-06T14:20:53Z</time>
      </trkpt>
      <trkpt lat="47.90838" lon="6.78369">
        <ele>566</ele>
        <time>2025-08-06T14:20:54Z</time>
      </trkpt>
      <trkpt lat="47.90822" lon="6.78356">
        <ele>565.6</ele>
        <time>2025-08-06T14:20:56Z</time>
      </trkpt>
      <trkpt lat="47.90814" lon="6.7835">
        <ele>565.4</ele>
        <time>2025-08-06T14:20:57Z</time>
      </trkpt>
      <trkpt lat="47.90784" lon="6.78327">
        <ele>564.4</ele>
        <time>2025-08-06T14:21:01Z</time>
      </trkpt>
      <trkpt lat="47.90768" lon="6.78316">
        <ele>564.2</ele>
        <time>2025-08-06T14:21:03Z</time>
      </trkpt>
      <trkpt lat="47.9073" lon="6.7829">
        <ele>563.4</ele>
        <time>2025-08-06T14:21:08Z</time>
      </trkpt>
      <trkpt lat="47.90713" lon="6.7828">
        <ele>563</ele>
        <time>2025-08-06T14:21:10Z</time>
      </trkpt>
      <trkpt lat="47.9068" lon="6.78265">
        <ele>562.2</ele>
        <time>2025-08-06T14:21:14Z</time>
      </trkpt>
      <trkpt lat="47.90672" lon="6.78262">
        <ele>561.8</ele>
        <time>2025-08-06T14:21:15Z</time>
      </trkpt>
      <trkpt lat="47.90623" lon="6.7824">
        <ele>560.8</ele>
        <time>2025-08-06T14:21:21Z</time>
      </trkpt>
      <trkpt lat="47.906" lon="6.78229">
        <ele>560.8</ele>
        <time>2025-08-06T14:21:24Z</time>
      </trkpt>
      <trkpt lat="47.90571" lon="6.78213">
        <ele>560.8</ele>
        <time>2025-08-06T14:21:28Z</time>
      </trkpt>
      <trkpt lat="47.90557" lon="6.78203">
        <ele>560.8</ele>
        <time>2025-08-06T14:21:30Z</time>
      </trkpt>
      <trkpt lat="47.90538" lon="6.78183">
        <ele>560.4</ele>
        <time>2025-08-06T14:21:33Z</time>
      </trkpt>
      <trkpt lat="47.90527" lon="6.78167">
        <ele>560.2</ele>
        <time>2025-08-06T14:21:35Z</time>
      </trkpt>
      <trkpt lat="47.90512" lon="6.78144">
        <ele>560</ele>
        <time>2025-08-06T14:21:38Z</time>
      </trkpt>
      <trkpt lat="47.90498" lon="6.78124">
        <ele>560</ele>
        <time>2025-08-06T14:21:41Z</time>
      </trkpt>
      <trkpt lat="47.90464" lon="6.78076">
        <ele>560.2</ele>
        <time>2025-08-06T14:21:49Z</time>
      </trkpt>
      <trkpt lat="47.90446" lon="6.78053">
        <ele>561</ele>
        <time>2025-08-06T14:21:53Z</time>
      </trkpt>
      <trkpt lat="47.90436" lon="6.78044">
        <ele>561.2</ele>
        <time>2025-08-06T14:21:55Z</time>
      </trkpt>
      <trkpt lat="47.90431" lon="6.78039">
        <ele>561.4</ele>
        <time>2025-08-06T14:21:56Z</time>
      </trkpt>
      <trkpt lat="47.9039" lon="6.78009">
        <ele>562</ele>
        <time>2025-08-06T14:22:04Z</time>
      </trkpt>
      <trkpt lat="47.90378" lon="6.78004">
        <ele>562.2</ele>
        <time>2025-08-06T14:22:06Z</time>
      </trkpt>
      <trkpt lat="47.90366" lon="6.78001">
        <ele>562.2</ele>
        <time>2025-08-06T14:22:08Z</time>
      </trkpt>
      <trkpt lat="47.90353" lon="6.78001">
        <ele>562.2</ele>
        <time>2025-08-06T14:22:10Z</time>
      </trkpt>
      <trkpt lat="47.90308" lon="6.78006">
        <ele>561.8</ele>
        <time>2025-08-06T14:22:16Z</time>
      </trkpt>
      <trkpt lat="47.90266" lon="6.77998">
        <ele>560.6</ele>
        <time>2025-08-06T14:22:21Z</time>
      </trkpt>
      <trkpt lat="47.90248" lon="6.77988">
        <ele>560</ele>
        <time>2025-08-06T14:22:23Z</time>
      </trkpt>
      <trkpt lat="47.90233" lon="6.77975">
        <ele>559.2</ele>
        <time>2025-08-06T14:22:25Z</time>
      </trkpt>
      <trkpt lat="47.90226" lon="6.77967">
        <ele>559</ele>
        <time>2025-08-06T14:22:26Z</time>
      </trkpt>
      <trkpt lat="47.90197" lon="6.77928">
        <ele>557.6</ele>
        <time>2025-08-06T14:22:30Z</time>
      </trkpt>
      <trkpt lat="47.90163" lon="6.77878">
        <ele>556.4</ele>
        <time>2025-08-06T14:22:35Z</time>
      </trkpt>
      <trkpt lat="47.90147" lon="6.77862">
        <ele>556</ele>
        <time>2025-08-06T14:22:37Z</time>
      </trkpt>
      <trkpt lat="47.90138" lon="6.77855">
        <ele>555.6</ele>
        <time>2025-08-06T14:22:38Z</time>
      </trkpt>
      <trkpt lat="47.90129" lon="6.77849">
        <ele>555.2</ele>
        <time>2025-08-06T14:22:39Z</time>
      </trkpt>
      <trkpt lat="47.90111" lon="6.77839">
        <ele>554.6</ele>
        <time>2025-08-06T14:22:41Z</time>
      </trkpt>
      <trkpt lat="47.90102" lon="6.77834">
        <ele>553.8</ele>
        <time>2025-08-06T14:22:42Z</time>
      </trkpt>
      <trkpt lat="47.90074" lon="6.77821">
        <ele>552.6</ele>
        <time>2025-08-06T14:22:45Z</time>
      </trkpt>
      <trkpt lat="47.90054" lon="6.77816">
        <ele>552</ele>
        <time>2025-08-06T14:22:47Z</time>
      </trkpt>
      <trkpt lat="47.90035" lon="6.77813">
        <ele>551.4</ele>
        <time>2025-08-06T14:22:49Z</time>
      </trkpt>
      <trkpt lat="47.89998" lon="6.77811">
        <ele>551</ele>
        <time>2025-08-06T14:22:53Z</time>
      </trkpt>
      <trkpt lat="47.89947" lon="6.77809">
        <ele>550.6</ele>
        <time>2025-08-06T14:22:59Z</time>
      </trkpt>
      <trkpt lat="47.89939" lon="6.77809">
        <ele>550.6</ele>
        <time>2025-08-06T14:23:00Z</time>
      </trkpt>
      <trkpt lat="47.89878" lon="6.77806">
        <ele>550.6</ele>
        <time>2025-08-06T14:23:08Z</time>
      </trkpt>
      <trkpt lat="47.89817" lon="6.77803">
        <ele>550.4</ele>
        <time>2025-08-06T14:23:16Z</time>
      </trkpt>
      <trkpt lat="47.89779" lon="6.77802">
        <ele>550.2</ele>
        <time>2025-08-06T14:23:21Z</time>
      </trkpt>
      <trkpt lat="47.8973" lon="6.77801">
        <ele>550</ele>
        <time>2025-08-06T14:23:28Z</time>
      </trkpt>
      <trkpt lat="47.89673" lon="6.77798">
        <ele>549.6</ele>
        <time>2025-08-06T14:23:36Z</time>
      </trkpt>
      <trkpt lat="47.89658" lon="6.77797">
        <ele>549.8</ele>
        <time>2025-08-06T14:23:38Z</time>
      </trkpt>
      <trkpt lat="47.89642" lon="6.77796">
        <ele>549.8</ele>
        <time>2025-08-06T14:23:40Z</time>
      </trkpt>
      <trkpt lat="47.89627" lon="6.77794">
        <ele>549.6</ele>
        <time>2025-08-06T14:23:42Z</time>
      </trkpt>
      <trkpt lat="47.89614" lon="6.77787">
        <ele>549.6</ele>
        <time>2025-08-06T14:23:44Z</time>
      </trkpt>
      <trkpt lat="47.89575" lon="6.77749">
        <ele>549</ele>
        <time>2025-08-06T14:23:50Z</time>
      </trkpt>
      <trkpt lat="47.89561" lon="6.77734">
        <ele>548.8</ele>
        <time>2025-08-06T14:23:52Z</time>
      </trkpt>
      <trkpt lat="47.89526" lon="6.77695">
        <ele>547.8</ele>
        <time>2025-08-06T14:23:57Z</time>
      </trkpt>
      <trkpt lat="47.89519" lon="6.77687">
        <ele>547.2</ele>
        <time>2025-08-06T14:23:58Z</time>
      </trkpt>
      <trkpt lat="47.89497" lon="6.77662">
        <ele>546</ele>
        <time>2025-08-06T14:24:01Z</time>
      </trkpt>
      <trkpt lat="47.89481" lon="6.77645">
        <ele>545.4</ele>
        <time>2025-08-06T14:24:03Z</time>
      </trkpt>
      <trkpt lat="47.89466" lon="6.77628">
        <ele>544.6</ele>
        <time>2025-08-06T14:24:05Z</time>
      </trkpt>
      <trkpt lat="47.89442" lon="6.77603">
        <ele>543.6</ele>
        <time>2025-08-06T14:24:08Z</time>
      </trkpt>
      <trkpt lat="47.89425" lon="6.7759">
        <ele>542.8</ele>
        <time>2025-08-06T14:24:10Z</time>
      </trkpt>
      <trkpt lat="47.89407" lon="6.77582">
        <ele>542.4</ele>
        <time>2025-08-06T14:24:12Z</time>
      </trkpt>
      <trkpt lat="47.89398" lon="6.77581">
        <ele>542.2</ele>
        <time>2025-08-06T14:24:13Z</time>
      </trkpt>
      <trkpt lat="47.89354" lon="6.7758">
        <ele>541.2</ele>
        <time>2025-08-06T14:24:18Z</time>
      </trkpt>
      <trkpt lat="47.89345" lon="6.7758">
        <ele>541</ele>
        <time>2025-08-06T14:24:19Z</time>
      </trkpt>
      <trkpt lat="47.89303" lon="6.77581">
        <ele>540.2</ele>
        <time>2025-08-06T14:24:24Z</time>
      </trkpt>
      <trkpt lat="47.8927" lon="6.77581">
        <ele>539.8</ele>
        <time>2025-08-06T14:24:28Z</time>
      </trkpt>
      <trkpt lat="47.89254" lon="6.77581">
        <ele>539.4</ele>
        <time>2025-08-06T14:24:30Z</time>
      </trkpt>
      <trkpt lat="47.89246" lon="6.77581">
        <ele>539.2</ele>
        <time>2025-08-06T14:24:31Z</time>
      </trkpt>
      <trkpt lat="47.89191" lon="6.77582">
        <ele>538.6</ele>
        <time>2025-08-06T14:24:38Z</time>
      </trkpt>
      <trkpt lat="47.89184" lon="6.77582">
        <ele>538.6</ele>
        <time>2025-08-06T14:24:39Z</time>
      </trkpt>
      <trkpt lat="47.89145" lon="6.77583">
        <ele>538</ele>
        <time>2025-08-06T14:24:44Z</time>
      </trkpt>
      <trkpt lat="47.89091" lon="6.77579">
        <ele>537.6</ele>
        <time>2025-08-06T14:24:51Z</time>
      </trkpt>
      <trkpt lat="47.89055" lon="6.77566">
        <ele>537.4</ele>
        <time>2025-08-06T14:24:56Z</time>
      </trkpt>
      <trkpt lat="47.89025" lon="6.77546">
        <ele>537</ele>
        <time>2025-08-06T14:25:00Z</time>
      </trkpt>
      <trkpt lat="47.89018" lon="6.77539">
        <ele>537</ele>
        <time>2025-08-06T14:25:01Z</time>
      </trkpt>
      <trkpt lat="47.88982" lon="6.77494">
        <ele>536.2</ele>
        <time>2025-08-06T14:25:07Z</time>
      </trkpt>
      <trkpt lat="47.88977" lon="6.77485">
        <ele>536.2</ele>
        <time>2025-08-06T14:25:08Z</time>
      </trkpt>
      <trkpt lat="47.88946" lon="6.77422">
        <ele>535.6</ele>
        <time>2025-08-06T14:25:15Z</time>
      </trkpt>
      <trkpt lat="47.88908" lon="6.77354">
        <ele>535.2</ele>
        <time>2025-08-06T14:25:23Z</time>
      </trkpt>
      <trkpt lat="47.88896" lon="6.77336">
        <ele>535.2</ele>
        <time>2025-08-06T14:25:25Z</time>
      </trkpt>
      <trkpt lat="47.8886" lon="6.77293">
        <ele>535</ele>
        <time>2025-08-06T14:25:31Z</time>
      </trkpt>
      <trkpt lat="47.88815" lon="6.77242">
        <ele>535</ele>
        <time>2025-08-06T14:25:39Z</time>
      </trkpt>
      <trkpt lat="47.88789" lon="6.77193">
        <ele>535.4</ele>
        <time>2025-08-06T14:25:45Z</time>
      </trkpt>
      <trkpt lat="47.88764" lon="6.77123">
        <ele>536</ele>
        <time>2025-08-06T14:25:53Z</time>
      </trkpt>
      <trkpt lat="47.88738" lon="6.77072">
        <ele>535.6</ele>
        <time>2025-08-06T14:25:59Z</time>
      </trkpt>
      <trkpt lat="47.887" lon="6.77034">
        <ele>535.2</ele>
        <time>2025-08-06T14:26:05Z</time>
      </trkpt>
      <trkpt lat="47.88647" lon="6.76999">
        <ele>534.4</ele>
        <time>2025-08-06T14:26:12Z</time>
      </trkpt>
      <trkpt lat="47.88639" lon="6.76994">
        <ele>534.2</ele>
        <time>2025-08-06T14:26:13Z</time>
      </trkpt>
      <trkpt lat="47.88594" lon="6.76966">
        <ele>533.6</ele>
        <time>2025-08-06T14:26:19Z</time>
      </trkpt>
      <trkpt lat="47.88588" lon="6.7696">
        <ele>533.2</ele>
        <time>2025-08-06T14:26:20Z</time>
      </trkpt>
      <trkpt lat="47.88581" lon="6.76953">
        <ele>533</ele>
        <time>2025-08-06T14:26:21Z</time>
      </trkpt>
      <trkpt lat="47.88562" lon="6.76924">
        <ele>532.4</ele>
        <time>2025-08-06T14:26:24Z</time>
      </trkpt>
      <trkpt lat="47.88557" lon="6.76916">
        <ele>532.2</ele>
        <time>2025-08-06T14:26:25Z</time>
      </trkpt>
      <trkpt lat="47.88521" lon="6.76845">
        <ele>531</ele>
        <time>2025-08-06T14:26:32Z</time>
      </trkpt>
      <trkpt lat="47.88485" lon="6.76772">
        <ele>530</ele>
        <time>2025-08-06T14:26:39Z</time>
      </trkpt>
      <trkpt lat="47.88465" lon="6.76736">
        <ele>529.8</ele>
        <time>2025-08-06T14:26:43Z</time>
      </trkpt>
      <trkpt lat="47.8844" lon="6.76691">
        <ele>529.4</ele>
        <time>2025-08-06T14:26:48Z</time>
      </trkpt>
      <trkpt lat="47.88433" lon="6.76682">
        <ele>529.4</ele>
        <time>2025-08-06T14:26:49Z</time>
      </trkpt>
      <trkpt lat="47.88426" lon="6.76676">
        <ele>529.2</ele>
        <time>2025-08-06T14:26:50Z</time>
      </trkpt>
      <trkpt lat="47.8842" lon="6.76672">
        <ele>529.2</ele>
        <time>2025-08-06T14:26:51Z</time>
      </trkpt>
      <trkpt lat="47.88399" lon="6.76658">
        <ele>529.2</ele>
        <time>2025-08-06T14:26:54Z</time>
      </trkpt>
      <trkpt lat="47.8835" lon="6.76624">
        <ele>529</ele>
        <time>2025-08-06T14:27:01Z</time>
      </trkpt>
      <trkpt lat="47.88323" lon="6.76606">
        <ele>529.2</ele>
        <time>2025-08-06T14:27:05Z</time>
      </trkpt>
      <trkpt lat="47.88283" lon="6.76585">
        <ele>529.6</ele>
        <time>2025-08-06T14:27:11Z</time>
      </trkpt>
      <trkpt lat="47.88276" lon="6.76584">
        <ele>529.8</ele>
        <time>2025-08-06T14:27:12Z</time>
      </trkpt>
      <trkpt lat="47.88231" lon="6.76573">
        <ele>530.2</ele>
        <time>2025-08-06T14:27:19Z</time>
      </trkpt>
      <trkpt lat="47.88224" lon="6.76572">
        <ele>530.2</ele>
        <time>2025-08-06T14:27:20Z</time>
      </trkpt>
      <trkpt lat="47.88167" lon="6.76559">
        <ele>530.8</ele>
        <time>2025-08-06T14:27:29Z</time>
      </trkpt>
      <trkpt lat="47.88161" lon="6.76558">
        <ele>531</ele>
        <time>2025-08-06T14:27:30Z</time>
      </trkpt>
      <trkpt lat="47.88126" lon="6.7655">
        <ele>531.6</ele>
        <time>2025-08-06T14:27:36Z</time>
      </trkpt>
      <trkpt lat="47.88108" lon="6.76546">
        <ele>531.8</ele>
        <time>2025-08-06T14:27:39Z</time>
      </trkpt>
      <trkpt lat="47.88086" lon="6.76539">
        <ele>532</ele>
        <time>2025-08-06T14:27:43Z</time>
      </trkpt>
      <trkpt lat="47.88077" lon="6.76534">
        <ele>532</ele>
        <time>2025-08-06T14:27:45Z</time>
      </trkpt>
      <trkpt lat="47.88053" lon="6.76521">
        <ele>532.4</ele>
        <time>2025-08-06T14:27:51Z</time>
      </trkpt>
      <trkpt lat="47.88044" lon="6.76512">
        <ele>532.4</ele>
        <time>2025-08-06T14:27:55Z</time>
      </trkpt>
      <trkpt lat="47.88026" lon="6.76502">
        <ele>532.4</ele>
        <time>2025-08-06T14:28:02Z</time>
      </trkpt>
      <trkpt lat="47.88016" lon="6.76495">
        <ele>532.4</ele>
        <time>2025-08-06T14:28:08Z</time>
      </trkpt>
      <trkpt lat="47.88013" lon="6.76492">
        <ele>532.6</ele>
        <time>2025-08-06T14:28:11Z</time>
      </trkpt>
      <trkpt lat="47.88006" lon="6.76481">
        <ele>532.6</ele>
        <time>2025-08-06T14:28:14Z</time>
      </trkpt>
      <trkpt lat="47.88" lon="6.7647">
        <ele>532.8</ele>
        <time>2025-08-06T14:28:16Z</time>
      </trkpt>
      <trkpt lat="47.87991" lon="6.76465">
        <ele>532.8</ele>
        <time>2025-08-06T14:28:18Z</time>
      </trkpt>
      <trkpt lat="47.87981" lon="6.76469">
        <ele>533</ele>
        <time>2025-08-06T14:28:20Z</time>
      </trkpt>
      <trkpt lat="47.87977" lon="6.76472">
        <ele>533</ele>
        <time>2025-08-06T14:28:21Z</time>
      </trkpt>
      <trkpt lat="47.87956" lon="6.76493">
        <ele>533.8</ele>
        <time>2025-08-06T14:28:27Z</time>
      </trkpt>
      <trkpt lat="47.87953" lon="6.76495">
        <ele>533.8</ele>
        <time>2025-08-06T14:28:28Z</time>
      </trkpt>
      <trkpt lat="47.87944" lon="6.76503">
        <ele>534.4</ele>
        <time>2025-08-06T14:28:34Z</time>
      </trkpt>
      <trkpt lat="47.87944" lon="6.76504">
        <ele>534.4</ele>
        <time>2025-08-06T14:28:37Z</time>
      </trkpt>
      <trkpt lat="47.87941" lon="6.76506">
        <ele>534.2</ele>
        <time>2025-08-06T14:28:52Z</time>
      </trkpt>
      <trkpt lat="47.87938" lon="6.76509">
        <ele>534.2</ele>
        <time>2025-08-06T14:28:53Z</time>
      </trkpt>
      <trkpt lat="47.8793" lon="6.76518">
        <ele>534.2</ele>
        <time>2025-08-06T14:28:55Z</time>
      </trkpt>
      <trkpt lat="47.8792" lon="6.76525">
        <ele>534.4</ele>
        <time>2025-08-06T14:28:57Z</time>
      </trkpt>
      <trkpt lat="47.87894" lon="6.76546">
        <ele>534.8</ele>
        <time>2025-08-06T14:29:03Z</time>
      </trkpt>
      <trkpt lat="47.87885" lon="6.76551">
        <ele>535</ele>
        <time>2025-08-06T14:29:05Z</time>
      </trkpt>
      <trkpt lat="47.87879" lon="6.76549">
        <ele>535</ele>
        <time>2025-08-06T14:29:07Z</time>
      </trkpt>
      <trkpt lat="47.87853" lon="6.76547">
        <ele>534.8</ele>
        <time>2025-08-06T14:29:12Z</time>
      </trkpt>
      <trkpt lat="47.87837" lon="6.7654">
        <ele>534.4</ele>
        <time>2025-08-06T14:29:15Z</time>
      </trkpt>
      <trkpt lat="47.87831" lon="6.76537">
        <ele>534.2</ele>
        <time>2025-08-06T14:29:16Z</time>
      </trkpt>
      <trkpt lat="47.87795" lon="6.76534">
        <ele>532.8</ele>
        <time>2025-08-06T14:29:21Z</time>
      </trkpt>
      <trkpt lat="47.87773" lon="6.76529">
        <ele>532.2</ele>
        <time>2025-08-06T14:29:24Z</time>
      </trkpt>
      <trkpt lat="47.87766" lon="6.76526">
        <ele>531.8</ele>
        <time>2025-08-06T14:29:25Z</time>
      </trkpt>
      <trkpt lat="47.87752" lon="6.76519">
        <ele>531.2</ele>
        <time>2025-08-06T14:29:27Z</time>
      </trkpt>
      <trkpt lat="47.87746" lon="6.76514">
        <ele>531</ele>
        <time>2025-08-06T14:29:28Z</time>
      </trkpt>
      <trkpt lat="47.87732" lon="6.76503">
        <ele>530.4</ele>
        <time>2025-08-06T14:29:30Z</time>
      </trkpt>
      <trkpt lat="47.87721" lon="6.76494">
        <ele>530.2</ele>
        <time>2025-08-06T14:29:32Z</time>
      </trkpt>
      <trkpt lat="47.87685" lon="6.7647">
        <ele>529.4</ele>
        <time>2025-08-06T14:29:39Z</time>
      </trkpt>
      <trkpt lat="47.87647" lon="6.76449">
        <ele>529.4</ele>
        <time>2025-08-06T14:29:45Z</time>
      </trkpt>
      <trkpt lat="47.87628" lon="6.76446">
        <ele>529.8</ele>
        <time>2025-08-06T14:29:49Z</time>
      </trkpt>
      <trkpt lat="47.8762" lon="6.76448">
        <ele>530.2</ele>
        <time>2025-08-06T14:29:51Z</time>
      </trkpt>
      <trkpt lat="47.87608" lon="6.76451">
        <ele>530.8</ele>
        <time>2025-08-06T14:29:54Z</time>
      </trkpt>
      <trkpt lat="47.87583" lon="6.7646">
        <ele>532</ele>
        <time>2025-08-06T14:30:00Z</time>
      </trkpt>
      <trkpt lat="47.8757" lon="6.76472">
        <ele>533.2</ele>
        <time>2025-08-06T14:30:05Z</time>
      </trkpt>
      <trkpt lat="47.87549" lon="6.76491">
        <ele>534</ele>
        <time>2025-08-06T14:30:10Z</time>
      </trkpt>
      <trkpt lat="47.87535" lon="6.76504">
        <ele>534.4</ele>
        <time>2025-08-06T14:30:14Z</time>
      </trkpt>
      <trkpt lat="47.87525" lon="6.76517">
        <ele>534.6</ele>
        <time>2025-08-06T14:30:18Z</time>
      </trkpt>
      <trkpt lat="47.87508" lon="6.76537">
        <ele>535</ele>
        <time>2025-08-06T14:30:23Z</time>
      </trkpt>
      <trkpt lat="47.87502" lon="6.76542">
        <ele>535.4</ele>
        <time>2025-08-06T14:30:25Z</time>
      </trkpt>
      <trkpt lat="47.87501" lon="6.76547">
        <ele>535.4</ele>
        <time>2025-08-06T14:30:26Z</time>
      </trkpt>
      <trkpt lat="47.875" lon="6.76563">
        <ele>535.6</ele>
        <time>2025-08-06T14:30:29Z</time>
      </trkpt>
      <trkpt lat="47.875" lon="6.76568">
        <ele>535.6</ele>
        <time>2025-08-06T14:30:30Z</time>
      </trkpt>
      <trkpt lat="47.87502" lon="6.76605">
        <ele>535.6</ele>
        <time>2025-08-06T14:30:36Z</time>
      </trkpt>
      <trkpt lat="47.87504" lon="6.76641">
        <ele>535.6</ele>
        <time>2025-08-06T14:30:41Z</time>
      </trkpt>
      <trkpt lat="47.87506" lon="6.76664">
        <ele>535.6</ele>
        <time>2025-08-06T14:30:44Z</time>
      </trkpt>
      <trkpt lat="47.8751" lon="6.7674">
        <ele>535.6</ele>
        <time>2025-08-06T14:30:54Z</time>
      </trkpt>
      <trkpt lat="47.87514" lon="6.76806">
        <ele>535.8</ele>
        <time>2025-08-06T14:31:03Z</time>
      </trkpt>
      <trkpt lat="47.87517" lon="6.7687">
        <ele>536</ele>
        <time>2025-08-06T14:31:12Z</time>
      </trkpt>
      <trkpt lat="47.87518" lon="6.76877">
        <ele>536.4</ele>
        <time>2025-08-06T14:31:13Z</time>
      </trkpt>
      <trkpt lat="47.87518" lon="6.76889">
        <ele>536.6</ele>
        <time>2025-08-06T14:31:15Z</time>
      </trkpt>
      <trkpt lat="47.8752" lon="6.76904">
        <ele>536.6</ele>
        <time>2025-08-06T14:31:17Z</time>
      </trkpt>
      <trkpt lat="47.87521" lon="6.76917">
        <ele>536.8</ele>
        <time>2025-08-06T14:31:19Z</time>
      </trkpt>
      <trkpt lat="47.87522" lon="6.76943">
        <ele>536.8</ele>
        <time>2025-08-06T14:31:23Z</time>
      </trkpt>
      <trkpt lat="47.87523" lon="6.76961">
        <ele>537.2</ele>
        <time>2025-08-06T14:31:26Z</time>
      </trkpt>
      <trkpt lat="47.87523" lon="6.76967">
        <ele>537.2</ele>
        <time>2025-08-06T14:31:27Z</time>
      </trkpt>
      <trkpt lat="47.87524" lon="6.76981">
        <ele>537.4</ele>
        <time>2025-08-06T14:31:29Z</time>
      </trkpt>
      <trkpt lat="47.87525" lon="6.76996">
        <ele>537.6</ele>
        <time>2025-08-06T14:31:31Z</time>
      </trkpt>
      <trkpt lat="47.87527" lon="6.77024">
        <ele>537.6</ele>
        <time>2025-08-06T14:31:35Z</time>
      </trkpt>
      <trkpt lat="47.87528" lon="6.77046">
        <ele>537.8</ele>
        <time>2025-08-06T14:31:38Z</time>
      </trkpt>
      <trkpt lat="47.87529" lon="6.77065">
        <ele>538</ele>
        <time>2025-08-06T14:31:41Z</time>
      </trkpt>
      <trkpt lat="47.8753" lon="6.77072">
        <ele>538</ele>
        <time>2025-08-06T14:31:42Z</time>
      </trkpt>
      <trkpt lat="47.87535" lon="6.77159">
        <ele>539.2</ele>
        <time>2025-08-06T14:31:54Z</time>
      </trkpt>
      <trkpt lat="47.87535" lon="6.77165">
        <ele>539</ele>
        <time>2025-08-06T14:31:55Z</time>
      </trkpt>
      <trkpt lat="47.87537" lon="6.77193">
        <ele>539.4</ele>
        <time>2025-08-06T14:31:59Z</time>
      </trkpt>
      <trkpt lat="47.87538" lon="6.77215">
        <ele>539.8</ele>
        <time>2025-08-06T14:32:02Z</time>
      </trkpt>
      <trkpt lat="47.87542" lon="6.77266">
        <ele>540.2</ele>
        <time>2025-08-06T14:32:09Z</time>
      </trkpt>
      <trkpt lat="47.87543" lon="6.77287">
        <ele>540.2</ele>
        <time>2025-08-06T14:32:12Z</time>
      </trkpt>
      <trkpt lat="47.87545" lon="6.77321">
        <ele>540.4</ele>
        <time>2025-08-06T14:32:17Z</time>
      </trkpt>
      <trkpt lat="47.87548" lon="6.77384">
        <ele>541.4</ele>
        <time>2025-08-06T14:32:27Z</time>
      </trkpt>
      <trkpt lat="47.87552" lon="6.77429">
        <ele>541.8</ele>
        <time>2025-08-06T14:32:32Z</time>
      </trkpt>
      <trkpt lat="47.87554" lon="6.77465">
        <ele>541.8</ele>
        <time>2025-08-06T14:32:37Z</time>
      </trkpt>
      <trkpt lat="47.87554" lon="6.77474">
        <ele>542</ele>
        <time>2025-08-06T14:32:38Z</time>
      </trkpt>
      <trkpt lat="47.87555" lon="6.77488">
        <ele>542</ele>
        <time>2025-08-06T14:32:40Z</time>
      </trkpt>
      <trkpt lat="47.87555" lon="6.77503">
        <ele>542.2</ele>
        <time>2025-08-06T14:32:42Z</time>
      </trkpt>
      <trkpt lat="47.87556" lon="6.77516">
        <ele>542.4</ele>
        <time>2025-08-06T14:32:44Z</time>
      </trkpt>
      <trkpt lat="47.87558" lon="6.77552">
        <ele>543.2</ele>
        <time>2025-08-06T14:32:50Z</time>
      </trkpt>
      <trkpt lat="47.87562" lon="6.77608">
        <ele>543.4</ele>
        <time>2025-08-06T14:32:58Z</time>
      </trkpt>
      <trkpt lat="47.87567" lon="6.77683">
        <ele>543.6</ele>
        <time>2025-08-06T14:33:07Z</time>
      </trkpt>
      <trkpt lat="47.87568" lon="6.77705">
        <ele>543.6</ele>
        <time>2025-08-06T14:33:10Z</time>
      </trkpt>
      <trkpt lat="47.87571" lon="6.77757">
        <ele>544</ele>
        <time>2025-08-06T14:33:17Z</time>
      </trkpt>
      <trkpt lat="47.87574" lon="6.77831">
        <ele>544.6</ele>
        <time>2025-08-06T14:33:27Z</time>
      </trkpt>
      <trkpt lat="47.87574" lon="6.7789">
        <ele>545</ele>
        <time>2025-08-06T14:33:36Z</time>
      </trkpt>
      <trkpt lat="47.87574" lon="6.77898">
        <ele>545</ele>
        <time>2025-08-06T14:33:37Z</time>
      </trkpt>
      <trkpt lat="47.87569" lon="6.77966">
        <ele>545.2</ele>
        <time>2025-08-06T14:33:45Z</time>
      </trkpt>
      <trkpt lat="47.87562" lon="6.78022">
        <ele>545.6</ele>
        <time>2025-08-06T14:33:53Z</time>
      </trkpt>
      <trkpt lat="47.8755" lon="6.78084">
        <ele>545.8</ele>
        <time>2025-08-06T14:34:01Z</time>
      </trkpt>
      <trkpt lat="47.8754" lon="6.78137">
        <ele>546.2</ele>
        <time>2025-08-06T14:34:08Z</time>
      </trkpt>
      <trkpt lat="47.87539" lon="6.78145">
        <ele>546.2</ele>
        <time>2025-08-06T14:34:09Z</time>
      </trkpt>
      <trkpt lat="47.87523" lon="6.78195">
        <ele>546.6</ele>
        <time>2025-08-06T14:34:16Z</time>
      </trkpt>
      <trkpt lat="47.87502" lon="6.78248">
        <ele>547.2</ele>
        <time>2025-08-06T14:34:24Z</time>
      </trkpt>
      <trkpt lat="47.87493" lon="6.78267">
        <ele>547.4</ele>
        <time>2025-08-06T14:34:27Z</time>
      </trkpt>
      <trkpt lat="47.87481" lon="6.7829">
        <ele>547.6</ele>
        <time>2025-08-06T14:34:31Z</time>
      </trkpt>
      <trkpt lat="47.87446" lon="6.78347">
        <ele>547.8</ele>
        <time>2025-08-06T14:34:41Z</time>
      </trkpt>
      <trkpt lat="47.87408" lon="6.784">
        <ele>547.6</ele>
        <time>2025-08-06T14:34:50Z</time>
      </trkpt>
      <trkpt lat="47.87375" lon="6.78453">
        <ele>547.6</ele>
        <time>2025-08-06T14:34:58Z</time>
      </trkpt>
      <trkpt lat="47.87346" lon="6.78508">
        <ele>547.8</ele>
        <time>2025-08-06T14:35:06Z</time>
      </trkpt>
      <trkpt lat="47.87324" lon="6.78569">
        <ele>547.8</ele>
        <time>2025-08-06T14:35:14Z</time>
      </trkpt>
      <trkpt lat="47.87303" lon="6.78641">
        <ele>548</ele>
        <time>2025-08-06T14:35:23Z</time>
      </trkpt>
      <trkpt lat="47.87286" lon="6.78695">
        <ele>548.2</ele>
        <time>2025-08-06T14:35:30Z</time>
      </trkpt>
      <trkpt lat="47.87271" lon="6.78745">
        <ele>548.2</ele>
        <time>2025-08-06T14:35:37Z</time>
      </trkpt>
      <trkpt lat="47.87266" lon="6.78754">
        <ele>548.4</ele>
        <time>2025-08-06T14:35:39Z</time>
      </trkpt>
      <trkpt lat="47.87262" lon="6.78758">
        <ele>548.4</ele>
        <time>2025-08-06T14:35:40Z</time>
      </trkpt>
      <trkpt lat="47.87259" lon="6.78762">
        <ele>548.4</ele>
        <time>2025-08-06T14:35:41Z</time>
      </trkpt>
      <trkpt lat="47.87247" lon="6.78785">
        <ele>548.4</ele>
        <time>2025-08-06T14:35:45Z</time>
      </trkpt>
      <trkpt lat="47.87229" lon="6.78827">
        <ele>548.6</ele>
        <time>2025-08-06T14:35:51Z</time>
      </trkpt>
      <trkpt lat="47.87219" lon="6.78848">
        <ele>548.6</ele>
        <time>2025-08-06T14:35:54Z</time>
      </trkpt>
      <trkpt lat="47.87204" lon="6.78872">
        <ele>548.6</ele>
        <time>2025-08-06T14:35:58Z</time>
      </trkpt>
      <trkpt lat="47.87168" lon="6.78916">
        <ele>548.8</ele>
        <time>2025-08-06T14:36:06Z</time>
      </trkpt>
      <trkpt lat="47.87131" lon="6.78956">
        <ele>549.2</ele>
        <time>2025-08-06T14:36:14Z</time>
      </trkpt>
      <trkpt lat="47.87095" lon="6.78996">
        <ele>549.8</ele>
        <time>2025-08-06T14:36:22Z</time>
      </trkpt>
      <trkpt lat="47.87086" lon="6.79005">
        <ele>549.8</ele>
        <time>2025-08-06T14:36:24Z</time>
      </trkpt>
      <trkpt lat="47.87047" lon="6.7904">
        <ele>550.6</ele>
        <time>2025-08-06T14:36:32Z</time>
      </trkpt>
      <trkpt lat="47.87016" lon="6.79062">
        <ele>550.8</ele>
        <time>2025-08-06T14:36:38Z</time>
      </trkpt>
      <trkpt lat="47.87001" lon="6.79073">
        <ele>551</ele>
        <time>2025-08-06T14:36:41Z</time>
      </trkpt>
      <trkpt lat="47.86961" lon="6.79097">
        <ele>551.4</ele>
        <time>2025-08-06T14:36:49Z</time>
      </trkpt>
      <trkpt lat="47.86941" lon="6.79109">
        <ele>551.8</ele>
        <time>2025-08-06T14:36:53Z</time>
      </trkpt>
      <trkpt lat="47.86927" lon="6.79118">
        <ele>552</ele>
        <time>2025-08-06T14:36:56Z</time>
      </trkpt>
      <trkpt lat="47.86892" lon="6.79139">
        <ele>553</ele>
        <time>2025-08-06T14:37:03Z</time>
      </trkpt>
      <trkpt lat="47.86883" lon="6.79146">
        <ele>553</ele>
        <time>2025-08-06T14:37:05Z</time>
      </trkpt>
      <trkpt lat="47.8683" lon="6.79182">
        <ele>553.4</ele>
        <time>2025-08-06T14:37:15Z</time>
      </trkpt>
      <trkpt lat="47.86793" lon="6.7922">
        <ele>553.6</ele>
        <time>2025-08-06T14:37:23Z</time>
      </trkpt>
      <trkpt lat="47.86779" lon="6.79237">
        <ele>554</ele>
        <time>2025-08-06T14:37:26Z</time>
      </trkpt>
      <trkpt lat="47.86761" lon="6.79259">
        <ele>554.6</ele>
        <time>2025-08-06T14:37:30Z</time>
      </trkpt>
      <trkpt lat="47.86734" lon="6.79306">
        <ele>554.2</ele>
        <time>2025-08-06T14:37:37Z</time>
      </trkpt>
      <trkpt lat="47.86704" lon="6.7937">
        <ele>554.6</ele>
        <time>2025-08-06T14:37:46Z</time>
      </trkpt>
      <trkpt lat="47.86683" lon="6.79429">
        <ele>555.2</ele>
        <time>2025-08-06T14:37:54Z</time>
      </trkpt>
      <trkpt lat="47.86681" lon="6.79436">
        <ele>555.4</ele>
        <time>2025-08-06T14:37:55Z</time>
      </trkpt>
      <trkpt lat="47.86671" lon="6.79469">
        <ele>556</ele>
        <time>2025-08-06T14:38:00Z</time>
      </trkpt>
      <trkpt lat="47.86669" lon="6.79475">
        <ele>556</ele>
        <time>2025-08-06T14:38:01Z</time>
      </trkpt>
      <trkpt lat="47.86667" lon="6.79482">
        <ele>556</ele>
        <time>2025-08-06T14:38:02Z</time>
      </trkpt>
      <trkpt lat="47.86666" lon="6.79496">
        <ele>556.4</ele>
        <time>2025-08-06T14:38:04Z</time>
      </trkpt>
      <trkpt lat="47.86663" lon="6.7951">
        <ele>556.4</ele>
        <time>2025-08-06T14:38:06Z</time>
      </trkpt>
      <trkpt lat="47.8666" lon="6.79521">
        <ele>556.6</ele>
        <time>2025-08-06T14:38:08Z</time>
      </trkpt>
      <trkpt lat="47.86659" lon="6.79534">
        <ele>556.8</ele>
        <time>2025-08-06T14:38:10Z</time>
      </trkpt>
      <trkpt lat="47.86658" lon="6.79548">
        <ele>556.8</ele>
        <time>2025-08-06T14:38:12Z</time>
      </trkpt>
      <trkpt lat="47.86656" lon="6.79559">
        <ele>557</ele>
        <time>2025-08-06T14:38:14Z</time>
      </trkpt>
      <trkpt lat="47.86656" lon="6.79565">
        <ele>557</ele>
        <time>2025-08-06T14:38:15Z</time>
      </trkpt>
      <trkpt lat="47.86654" lon="6.79585">
        <ele>557.2</ele>
        <time>2025-08-06T14:38:18Z</time>
      </trkpt>
      <trkpt lat="47.86652" lon="6.79607">
        <ele>557.4</ele>
        <time>2025-08-06T14:38:21Z</time>
      </trkpt>
      <trkpt lat="47.86652" lon="6.79615">
        <ele>557.6</ele>
        <time>2025-08-06T14:38:22Z</time>
      </trkpt>
      <trkpt lat="47.86647" lon="6.79678">
        <ele>558.2</ele>
        <time>2025-08-06T14:38:30Z</time>
      </trkpt>
      <trkpt lat="47.86643" lon="6.79731">
        <ele>558.4</ele>
        <time>2025-08-06T14:38:37Z</time>
      </trkpt>
      <trkpt lat="47.86643" lon="6.79738">
        <ele>558.4</ele>
        <time>2025-08-06T14:38:38Z</time>
      </trkpt>
      <trkpt lat="47.86641" lon="6.79761">
        <ele>558.8</ele>
        <time>2025-08-06T14:38:41Z</time>
      </trkpt>
      <trkpt lat="47.8664" lon="6.79783">
        <ele>559</ele>
        <time>2025-08-06T14:38:44Z</time>
      </trkpt>
      <trkpt lat="47.86636" lon="6.79837">
        <ele>559.2</ele>
        <time>2025-08-06T14:38:51Z</time>
      </trkpt>
      <trkpt lat="47.86635" lon="6.79844">
        <ele>559.2</ele>
        <time>2025-08-06T14:38:52Z</time>
      </trkpt>
      <trkpt lat="47.86634" lon="6.79866">
        <ele>559.4</ele>
        <time>2025-08-06T14:38:55Z</time>
      </trkpt>
      <trkpt lat="47.86631" lon="6.79887">
        <ele>559.6</ele>
        <time>2025-08-06T14:38:58Z</time>
      </trkpt>
      <trkpt lat="47.86631" lon="6.79893">
        <ele>559.6</ele>
        <time>2025-08-06T14:38:59Z</time>
      </trkpt>
      <trkpt lat="47.86631" lon="6.79914">
        <ele>560</ele>
        <time>2025-08-06T14:39:02Z</time>
      </trkpt>
      <trkpt lat="47.86629" lon="6.79928">
        <ele>560</ele>
        <time>2025-08-06T14:39:04Z</time>
      </trkpt>
      <trkpt lat="47.86625" lon="6.79974">
        <ele>560.4</ele>
        <time>2025-08-06T14:39:10Z</time>
      </trkpt>
      <trkpt lat="47.86623" lon="6.79997">
        <ele>560.6</ele>
        <time>2025-08-06T14:39:13Z</time>
      </trkpt>
      <trkpt lat="47.86621" lon="6.80027">
        <ele>561</ele>
        <time>2025-08-06T14:39:17Z</time>
      </trkpt>
      <trkpt lat="47.86614" lon="6.8009">
        <ele>561.4</ele>
        <time>2025-08-06T14:39:25Z</time>
      </trkpt>
      <trkpt lat="47.86611" lon="6.80113">
        <ele>561.8</ele>
        <time>2025-08-06T14:39:28Z</time>
      </trkpt>
      <trkpt lat="47.86603" lon="6.80151">
        <ele>562.2</ele>
        <time>2025-08-06T14:39:33Z</time>
      </trkpt>
      <trkpt lat="47.86591" lon="6.80193">
        <ele>562.6</ele>
        <time>2025-08-06T14:39:39Z</time>
      </trkpt>
      <trkpt lat="47.86589" lon="6.80199">
        <ele>562.6</ele>
        <time>2025-08-06T14:39:40Z</time>
      </trkpt>
      <trkpt lat="47.86587" lon="6.80205">
        <ele>562.8</ele>
        <time>2025-08-06T14:39:41Z</time>
      </trkpt>
      <trkpt lat="47.86582" lon="6.80217">
        <ele>562.8</ele>
        <time>2025-08-06T14:39:43Z</time>
      </trkpt>
      <trkpt lat="47.86578" lon="6.8023">
        <ele>563</ele>
        <time>2025-08-06T14:39:45Z</time>
      </trkpt>
      <trkpt lat="47.86568" lon="6.80256">
        <ele>563.2</ele>
        <time>2025-08-06T14:39:49Z</time>
      </trkpt>
      <trkpt lat="47.86564" lon="6.80266">
        <ele>563.4</ele>
        <time>2025-08-06T14:39:51Z</time>
      </trkpt>
      <trkpt lat="47.86561" lon="6.80272">
        <ele>563.4</ele>
        <time>2025-08-06T14:39:52Z</time>
      </trkpt>
      <trkpt lat="47.86548" lon="6.80298">
        <ele>563.6</ele>
        <time>2025-08-06T14:39:56Z</time>
      </trkpt>
      <trkpt lat="47.86529" lon="6.80329">
        <ele>564.2</ele>
        <time>2025-08-06T14:40:01Z</time>
      </trkpt>
      <trkpt lat="47.8652" lon="6.80342">
        <ele>564.4</ele>
        <time>2025-08-06T14:40:03Z</time>
      </trkpt>
      <trkpt lat="47.86486" lon="6.80386">
        <ele>564.8</ele>
        <time>2025-08-06T14:40:11Z</time>
      </trkpt>
      <trkpt lat="47.86452" lon="6.80423">
        <ele>565.2</ele>
        <time>2025-08-06T14:40:19Z</time>
      </trkpt>
      <trkpt lat="47.86447" lon="6.80428">
        <ele>565.2</ele>
        <time>2025-08-06T14:40:20Z</time>
      </trkpt>
      <trkpt lat="47.86416" lon="6.80453">
        <ele>565.8</ele>
        <time>2025-08-06T14:40:27Z</time>
      </trkpt>
      <trkpt lat="47.864" lon="6.80463">
        <ele>566.2</ele>
        <time>2025-08-06T14:40:30Z</time>
      </trkpt>
      <trkpt lat="47.8638" lon="6.80473">
        <ele>566.4</ele>
        <time>2025-08-06T14:40:34Z</time>
      </trkpt>
      <trkpt lat="47.86357" lon="6.80482">
        <ele>566.6</ele>
        <time>2025-08-06T14:40:39Z</time>
      </trkpt>
      <trkpt lat="47.86321" lon="6.80494">
        <ele>567.4</ele>
        <time>2025-08-06T14:40:46Z</time>
      </trkpt>
      <trkpt lat="47.86316" lon="6.80495">
        <ele>567.6</ele>
        <time>2025-08-06T14:40:47Z</time>
      </trkpt>
      <trkpt lat="47.863" lon="6.80498">
        <ele>568.2</ele>
        <time>2025-08-06T14:40:50Z</time>
      </trkpt>
      <trkpt lat="47.86293" lon="6.80499">
        <ele>568.2</ele>
        <time>2025-08-06T14:40:51Z</time>
      </trkpt>
      <trkpt lat="47.86276" lon="6.805">
        <ele>568.4</ele>
        <time>2025-08-06T14:40:54Z</time>
      </trkpt>
      <trkpt lat="47.86272" lon="6.80502">
        <ele>568.4</ele>
        <time>2025-08-06T14:40:55Z</time>
      </trkpt>
      <trkpt lat="47.86232" lon="6.805">
        <ele>568.4</ele>
        <time>2025-08-06T14:41:02Z</time>
      </trkpt>
      <trkpt lat="47.86224" lon="6.80497">
        <ele>568.6</ele>
        <time>2025-08-06T14:41:04Z</time>
      </trkpt>
      <trkpt lat="47.86199" lon="6.80493">
        <ele>569</ele>
        <time>2025-08-06T14:41:08Z</time>
      </trkpt>
      <trkpt lat="47.8616" lon="6.80485">
        <ele>569.6</ele>
        <time>2025-08-06T14:41:15Z</time>
      </trkpt>
      <trkpt lat="47.86107" lon="6.80476">
        <ele>570</ele>
        <time>2025-08-06T14:41:25Z</time>
      </trkpt>
      <trkpt lat="47.86075" lon="6.80473">
        <ele>570.2</ele>
        <time>2025-08-06T14:41:31Z</time>
      </trkpt>
      <trkpt lat="47.86069" lon="6.80474">
        <ele>570.2</ele>
        <time>2025-08-06T14:41:32Z</time>
      </trkpt>
      <trkpt lat="47.86047" lon="6.80476">
        <ele>570.6</ele>
        <time>2025-08-06T14:41:36Z</time>
      </trkpt>
      <trkpt lat="47.86019" lon="6.8048">
        <ele>570.8</ele>
        <time>2025-08-06T14:41:41Z</time>
      </trkpt>
      <trkpt lat="47.85982" lon="6.80489">
        <ele>571.2</ele>
        <time>2025-08-06T14:41:48Z</time>
      </trkpt>
      <trkpt lat="47.85971" lon="6.80493">
        <ele>571.4</ele>
        <time>2025-08-06T14:41:50Z</time>
      </trkpt>
      <trkpt lat="47.85937" lon="6.80509">
        <ele>571.6</ele>
        <time>2025-08-06T14:41:57Z</time>
      </trkpt>
      <trkpt lat="47.85933" lon="6.80511">
        <ele>571.6</ele>
        <time>2025-08-06T14:41:58Z</time>
      </trkpt>
      <trkpt lat="47.85929" lon="6.80513">
        <ele>571.6</ele>
        <time>2025-08-06T14:41:59Z</time>
      </trkpt>
      <trkpt lat="47.85918" lon="6.80518">
        <ele>571.6</ele>
        <time>2025-08-06T14:42:02Z</time>
      </trkpt>
      <trkpt lat="47.85902" lon="6.80525">
        <ele>571.8</ele>
        <time>2025-08-06T14:42:07Z</time>
      </trkpt>
      <trkpt lat="47.8589" lon="6.80529">
        <ele>571.8</ele>
        <time>2025-08-06T14:42:11Z</time>
      </trkpt>
      <trkpt lat="47.85875" lon="6.80538">
        <ele>572</ele>
        <time>2025-08-06T14:42:15Z</time>
      </trkpt>
      <trkpt lat="47.85869" lon="6.80541">
        <ele>572</ele>
        <time>2025-08-06T14:42:16Z</time>
      </trkpt>
      <trkpt lat="47.85859" lon="6.80545">
        <ele>572.2</ele>
        <time>2025-08-06T14:42:18Z</time>
      </trkpt>
      <trkpt lat="47.85843" lon="6.80553">
        <ele>572.4</ele>
        <time>2025-08-06T14:42:22Z</time>
      </trkpt>
      <trkpt lat="47.85822" lon="6.80562">
        <ele>572.6</ele>
        <time>2025-08-06T14:42:27Z</time>
      </trkpt>
      <trkpt lat="47.85818" lon="6.80563">
        <ele>572.6</ele>
        <time>2025-08-06T14:42:28Z</time>
      </trkpt>
      <trkpt lat="47.85814" lon="6.80565">
        <ele>572.6</ele>
        <time>2025-08-06T14:42:29Z</time>
      </trkpt>
      <trkpt lat="47.8581" lon="6.80567">
        <ele>572.6</ele>
        <time>2025-08-06T14:42:30Z</time>
      </trkpt>
      <trkpt lat="47.85805" lon="6.80569">
        <ele>572.6</ele>
        <time>2025-08-06T14:42:31Z</time>
      </trkpt>
      <trkpt lat="47.85797" lon="6.80573">
        <ele>573.2</ele>
        <time>2025-08-06T14:42:33Z</time>
      </trkpt>
      <trkpt lat="47.85777" lon="6.80583">
        <ele>573.4</ele>
        <time>2025-08-06T14:42:37Z</time>
      </trkpt>
      <trkpt lat="47.85756" lon="6.80594">
        <ele>573.6</ele>
        <time>2025-08-06T14:42:41Z</time>
      </trkpt>
      <trkpt lat="47.85734" lon="6.80605">
        <ele>573.8</ele>
        <time>2025-08-06T14:42:45Z</time>
      </trkpt>
      <trkpt lat="47.85724" lon="6.80609">
        <ele>574</ele>
        <time>2025-08-06T14:42:47Z</time>
      </trkpt>
      <trkpt lat="47.85703" lon="6.80619">
        <ele>574</ele>
        <time>2025-08-06T14:42:51Z</time>
      </trkpt>
      <trkpt lat="47.85658" lon="6.80639">
        <ele>574.6</ele>
        <time>2025-08-06T14:43:00Z</time>
      </trkpt>
      <trkpt lat="47.85612" lon="6.80659">
        <ele>574.8</ele>
        <time>2025-08-06T14:43:09Z</time>
      </trkpt>
      <trkpt lat="47.85607" lon="6.80661">
        <ele>575</ele>
        <time>2025-08-06T14:43:10Z</time>
      </trkpt>
      <trkpt lat="47.85571" lon="6.80681">
        <ele>575.6</ele>
        <time>2025-08-06T14:43:18Z</time>
      </trkpt>
      <trkpt lat="47.85553" lon="6.80694">
        <ele>576</ele>
        <time>2025-08-06T14:43:22Z</time>
      </trkpt>
      <trkpt lat="47.85539" lon="6.80706">
        <ele>576.2</ele>
        <time>2025-08-06T14:43:26Z</time>
      </trkpt>
      <trkpt lat="47.8553" lon="6.80711">
        <ele>576.2</ele>
        <time>2025-08-06T14:43:28Z</time>
      </trkpt>
      <trkpt lat="47.85519" lon="6.80722">
        <ele>576.4</ele>
        <time>2025-08-06T14:43:31Z</time>
      </trkpt>
      <trkpt lat="47.85491" lon="6.80749">
        <ele>576.8</ele>
        <time>2025-08-06T14:43:38Z</time>
      </trkpt>
      <trkpt lat="47.85469" lon="6.80778">
        <ele>577.2</ele>
        <time>2025-08-06T14:43:44Z</time>
      </trkpt>
      <trkpt lat="47.85465" lon="6.80783">
        <ele>577.4</ele>
        <time>2025-08-06T14:43:45Z</time>
      </trkpt>
      <trkpt lat="47.85454" lon="6.80798">
        <ele>577.6</ele>
        <time>2025-08-06T14:43:48Z</time>
      </trkpt>
      <trkpt lat="47.85445" lon="6.80812">
        <ele>577.8</ele>
        <time>2025-08-06T14:43:51Z</time>
      </trkpt>
      <trkpt lat="47.85433" lon="6.80828">
        <ele>578.2</ele>
        <time>2025-08-06T14:43:55Z</time>
      </trkpt>
      <trkpt lat="47.85428" lon="6.80837">
        <ele>578.2</ele>
        <time>2025-08-06T14:43:58Z</time>
      </trkpt>
      <trkpt lat="47.85426" lon="6.8084">
        <ele>578.4</ele>
        <time>2025-08-06T14:43:59Z</time>
      </trkpt>
      <trkpt lat="47.85419" lon="6.80854">
        <ele>578.6</ele>
        <time>2025-08-06T14:44:06Z</time>
      </trkpt>
      <trkpt lat="47.85419" lon="6.80854">
        <ele>578.6</ele>
        <time>2025-08-06T14:44:07Z</time>
      </trkpt>
      <trkpt lat="47.85416" lon="6.8086">
        <ele>578.8</ele>
        <time>2025-08-06T14:45:30Z</time>
      </trkpt>
      <trkpt lat="47.85413" lon="6.8087">
        <ele>578.8</ele>
        <time>2025-08-06T14:45:32Z</time>
      </trkpt>
      <trkpt lat="47.85399" lon="6.80904">
        <ele>579</ele>
        <time>2025-08-06T14:45:38Z</time>
      </trkpt>
      <trkpt lat="47.8539" lon="6.80928">
        <ele>579</ele>
        <time>2025-08-06T14:45:42Z</time>
      </trkpt>
      <trkpt lat="47.85384" lon="6.80948">
        <ele>579.2</ele>
        <time>2025-08-06T14:45:45Z</time>
      </trkpt>
      <trkpt lat="47.85373" lon="6.80988">
        <ele>579.4</ele>
        <time>2025-08-06T14:45:51Z</time>
      </trkpt>
      <trkpt lat="47.85371" lon="6.80995">
        <ele>579.4</ele>
        <time>2025-08-06T14:45:52Z</time>
      </trkpt>
      <trkpt lat="47.8536" lon="6.81056">
        <ele>580.2</ele>
        <time>2025-08-06T14:46:00Z</time>
      </trkpt>
      <trkpt lat="47.85359" lon="6.81069">
        <ele>580.4</ele>
        <time>2025-08-06T14:46:02Z</time>
      </trkpt>
      <trkpt lat="47.85358" lon="6.8108">
        <ele>580.6</ele>
        <time>2025-08-06T14:46:04Z</time>
      </trkpt>
      <trkpt lat="47.85357" lon="6.81087">
        <ele>580.6</ele>
        <time>2025-08-06T14:46:05Z</time>
      </trkpt>
      <trkpt lat="47.85354" lon="6.81108">
        <ele>580.8</ele>
        <time>2025-08-06T14:46:08Z</time>
      </trkpt>
      <trkpt lat="47.85353" lon="6.81115">
        <ele>581</ele>
        <time>2025-08-06T14:46:09Z</time>
      </trkpt>
      <trkpt lat="47.8535" lon="6.81179">
        <ele>581.4</ele>
        <time>2025-08-06T14:46:17Z</time>
      </trkpt>
      <trkpt lat="47.85352" lon="6.81218">
        <ele>581.6</ele>
        <time>2025-08-06T14:46:22Z</time>
      </trkpt>
      <trkpt lat="47.85355" lon="6.8124">
        <ele>581.6</ele>
        <time>2025-08-06T14:46:25Z</time>
      </trkpt>
      <trkpt lat="47.85357" lon="6.81253">
        <ele>581.8</ele>
        <time>2025-08-06T14:46:27Z</time>
      </trkpt>
      <trkpt lat="47.85357" lon="6.81269">
        <ele>581.8</ele>
        <time>2025-08-06T14:46:31Z</time>
      </trkpt>
      <trkpt lat="47.85361" lon="6.81301">
        <ele>582.2</ele>
        <time>2025-08-06T14:46:37Z</time>
      </trkpt>
      <trkpt lat="47.85365" lon="6.81343">
        <ele>582.4</ele>
        <time>2025-08-06T14:46:43Z</time>
      </trkpt>
      <trkpt lat="47.85366" lon="6.81365">
        <ele>582.6</ele>
        <time>2025-08-06T14:46:46Z</time>
      </trkpt>
      <trkpt lat="47.85368" lon="6.81386">
        <ele>582.8</ele>
        <time>2025-08-06T14:46:49Z</time>
      </trkpt>
      <trkpt lat="47.85369" lon="6.81393">
        <ele>582.8</ele>
        <time>2025-08-06T14:46:50Z</time>
      </trkpt>
      <trkpt lat="47.85374" lon="6.81432">
        <ele>583.4</ele>
        <time>2025-08-06T14:46:56Z</time>
      </trkpt>
      <trkpt lat="47.85378" lon="6.81466">
        <ele>583.8</ele>
        <time>2025-08-06T14:47:01Z</time>
      </trkpt>
      <trkpt lat="47.85382" lon="6.81496">
        <ele>584.2</ele>
        <time>2025-08-06T14:47:05Z</time>
      </trkpt>
      <trkpt lat="47.85385" lon="6.81513">
        <ele>584.2</ele>
        <time>2025-08-06T14:47:07Z</time>
      </trkpt>
      <trkpt lat="47.85387" lon="6.81529">
        <ele>584.2</ele>
        <time>2025-08-06T14:47:09Z</time>
      </trkpt>
      <trkpt lat="47.85388" lon="6.81535">
        <ele>584</ele>
        <time>2025-08-06T14:47:10Z</time>
      </trkpt>
      <trkpt lat="47.85391" lon="6.81556">
        <ele>583.6</ele>
        <time>2025-08-06T14:47:13Z</time>
      </trkpt>
      <trkpt lat="47.85395" lon="6.81571">
        <ele>583.4</ele>
        <time>2025-08-06T14:47:15Z</time>
      </trkpt>
      <trkpt lat="47.85402" lon="6.81585">
        <ele>583.2</ele>
        <time>2025-08-06T14:47:17Z</time>
      </trkpt>
      <trkpt lat="47.85405" lon="6.81598">
        <ele>582.8</ele>
        <time>2025-08-06T14:47:19Z</time>
      </trkpt>
      <trkpt lat="47.85406" lon="6.81607">
        <ele>582.8</ele>
        <time>2025-08-06T14:47:20Z</time>
      </trkpt>
      <trkpt lat="47.8541" lon="6.8163">
        <ele>583</ele>
        <time>2025-08-06T14:47:24Z</time>
      </trkpt>
      <trkpt lat="47.85416" lon="6.81662">
        <ele>583.8</ele>
        <time>2025-08-06T14:47:30Z</time>
      </trkpt>
      <trkpt lat="47.85417" lon="6.81667">
        <ele>584</ele>
        <time>2025-08-06T14:47:31Z</time>
      </trkpt>
      <trkpt lat="47.85425" lon="6.81693">
        <ele>585.2</ele>
        <time>2025-08-06T14:47:36Z</time>
      </trkpt>
      <trkpt lat="47.85431" lon="6.81707">
        <ele>585.8</ele>
        <time>2025-08-06T14:47:39Z</time>
      </trkpt>
      <trkpt lat="47.85435" lon="6.8172">
        <ele>586.2</ele>
        <time>2025-08-06T14:47:41Z</time>
      </trkpt>
      <trkpt lat="47.85453" lon="6.81759">
        <ele>587</ele>
        <time>2025-08-06T14:47:48Z</time>
      </trkpt>
      <trkpt lat="47.85477" lon="6.81799">
        <ele>587</ele>
        <time>2025-08-06T14:47:55Z</time>
      </trkpt>
      <trkpt lat="47.855" lon="6.8183">
        <ele>587.2</ele>
        <time>2025-08-06T14:48:01Z</time>
      </trkpt>
      <trkpt lat="47.85526" lon="6.81857">
        <ele>587.4</ele>
        <time>2025-08-06T14:48:07Z</time>
      </trkpt>
      <trkpt lat="47.85534" lon="6.81863">
        <ele>587.4</ele>
        <time>2025-08-06T14:48:09Z</time>
      </trkpt>
      <trkpt lat="47.85547" lon="6.81877">
        <ele>587.2</ele>
        <time>2025-08-06T14:48:13Z</time>
      </trkpt>
      <trkpt lat="47.85549" lon="6.8188">
        <ele>587.2</ele>
        <time>2025-08-06T14:48:14Z</time>
      </trkpt>
      <trkpt lat="47.85548" lon="6.81889">
        <ele>587.2</ele>
        <time>2025-08-06T14:48:16Z</time>
      </trkpt>
      <trkpt lat="47.85542" lon="6.81911">
        <ele>587.4</ele>
        <time>2025-08-06T14:48:22Z</time>
      </trkpt>
      <trkpt lat="47.85535" lon="6.81933">
        <ele>587.6</ele>
        <time>2025-08-06T14:48:28Z</time>
      </trkpt>
      <trkpt lat="47.85535" lon="6.81939">
        <ele>588.6</ele>
        <time>2025-08-06T14:48:33Z</time>
      </trkpt>
      <trkpt lat="47.85534" lon="6.81952">
        <ele>589.4</ele>
        <time>2025-08-06T14:51:18Z</time>
      </trkpt>
      <trkpt lat="47.85532" lon="6.81959">
        <ele>589.4</ele>
        <time>2025-08-06T14:51:20Z</time>
      </trkpt>
      <trkpt lat="47.85527" lon="6.8199">
        <ele>589.4</ele>
        <time>2025-08-06T14:51:27Z</time>
      </trkpt>
      <trkpt lat="47.85524" lon="6.82029">
        <ele>590.2</ele>
        <time>2025-08-06T14:51:35Z</time>
      </trkpt>
      <trkpt lat="47.85524" lon="6.82066">
        <ele>591.4</ele>
        <time>2025-08-06T14:51:42Z</time>
      </trkpt>
      <trkpt lat="47.85523" lon="6.82071">
        <ele>591.4</ele>
        <time>2025-08-06T14:51:43Z</time>
      </trkpt>
      <trkpt lat="47.85523" lon="6.82103">
        <ele>592.4</ele>
        <time>2025-08-06T14:51:50Z</time>
      </trkpt>
      <trkpt lat="47.85527" lon="6.8213">
        <ele>593.2</ele>
        <time>2025-08-06T14:51:56Z</time>
      </trkpt>
      <trkpt lat="47.8553" lon="6.82138">
        <ele>593.4</ele>
        <time>2025-08-06T14:51:58Z</time>
      </trkpt>
      <trkpt lat="47.85538" lon="6.82177">
        <ele>594.4</ele>
        <time>2025-08-06T14:52:06Z</time>
      </trkpt>
      <trkpt lat="47.85535" lon="6.82205">
        <ele>595.4</ele>
        <time>2025-08-06T14:52:12Z</time>
      </trkpt>
      <trkpt lat="47.85535" lon="6.82212">
        <ele>595.6</ele>
        <time>2025-08-06T14:52:14Z</time>
      </trkpt>
      <trkpt lat="47.85533" lon="6.82223">
        <ele>596.2</ele>
        <time>2025-08-06T14:52:17Z</time>
      </trkpt>
      <trkpt lat="47.85533" lon="6.82231">
        <ele>596.6</ele>
        <time>2025-08-06T14:52:19Z</time>
      </trkpt>
      <trkpt lat="47.85535" lon="6.82246">
        <ele>597.4</ele>
        <time>2025-08-06T14:52:23Z</time>
      </trkpt>
      <trkpt lat="47.85536" lon="6.82255">
        <ele>597.8</ele>
        <time>2025-08-06T14:52:25Z</time>
      </trkpt>
      <trkpt lat="47.85544" lon="6.82268">
        <ele>599</ele>
        <time>2025-08-06T14:52:29Z</time>
      </trkpt>
      <trkpt lat="47.85554" lon="6.82281">
        <ele>600.2</ele>
        <time>2025-08-06T14:52:34Z</time>
      </trkpt>
      <trkpt lat="47.85562" lon="6.8229">
        <ele>600.8</ele>
        <time>2025-08-06T14:52:38Z</time>
      </trkpt>
      <trkpt lat="47.85567" lon="6.82295">
        <ele>601.2</ele>
        <time>2025-08-06T14:52:40Z</time>
      </trkpt>
      <trkpt lat="47.85578" lon="6.82306">
        <ele>602.4</ele>
        <time>2025-08-06T14:52:45Z</time>
      </trkpt>
      <trkpt lat="47.85587" lon="6.82316">
        <ele>603</ele>
        <time>2025-08-06T14:52:49Z</time>
      </trkpt>
      <trkpt lat="47.85592" lon="6.8232">
        <ele>603.4</ele>
        <time>2025-08-06T14:52:51Z</time>
      </trkpt>
      <trkpt lat="47.85605" lon="6.82334">
        <ele>604.6</ele>
        <time>2025-08-06T14:52:57Z</time>
      </trkpt>
      <trkpt lat="47.85618" lon="6.82346">
        <ele>605.6</ele>
        <time>2025-08-06T14:53:03Z</time>
      </trkpt>
      <trkpt lat="47.85622" lon="6.8235">
        <ele>606.2</ele>
        <time>2025-08-06T14:53:05Z</time>
      </trkpt>
      <trkpt lat="47.85631" lon="6.82359">
        <ele>606.8</ele>
        <time>2025-08-06T14:53:09Z</time>
      </trkpt>
      <trkpt lat="47.85644" lon="6.82372">
        <ele>607.4</ele>
        <time>2025-08-06T14:53:15Z</time>
      </trkpt>
      <trkpt lat="47.8565" lon="6.82378">
        <ele>607.8</ele>
        <time>2025-08-06T14:53:18Z</time>
      </trkpt>
      <trkpt lat="47.85658" lon="6.82387">
        <ele>608.6</ele>
        <time>2025-08-06T14:53:22Z</time>
      </trkpt>
      <trkpt lat="47.85659" lon="6.8239">
        <ele>608.8</ele>
        <time>2025-08-06T14:53:23Z</time>
      </trkpt>
      <trkpt lat="47.85671" lon="6.82411">
        <ele>610.2</ele>
        <time>2025-08-06T14:53:30Z</time>
      </trkpt>
      <trkpt lat="47.85677" lon="6.82434">
        <ele>611.4</ele>
        <time>2025-08-06T14:53:37Z</time>
      </trkpt>
      <trkpt lat="47.85681" lon="6.82459">
        <ele>612.8</ele>
        <time>2025-08-06T14:53:44Z</time>
      </trkpt>
      <trkpt lat="47.85682" lon="6.82467">
        <ele>613.4</ele>
        <time>2025-08-06T14:53:46Z</time>
      </trkpt>
      <trkpt lat="47.85684" lon="6.82474">
        <ele>613.8</ele>
        <time>2025-08-06T14:53:48Z</time>
      </trkpt>
      <trkpt lat="47.85686" lon="6.82495">
        <ele>615</ele>
        <time>2025-08-06T14:53:54Z</time>
      </trkpt>
      <trkpt lat="47.85686" lon="6.82499">
        <ele>615</ele>
        <time>2025-08-06T14:53:55Z</time>
      </trkpt>
      <trkpt lat="47.85684" lon="6.82513">
        <ele>616.2</ele>
        <time>2025-08-06T14:53:59Z</time>
      </trkpt>
      <trkpt lat="47.8568" lon="6.82519">
        <ele>616.8</ele>
        <time>2025-08-06T14:54:01Z</time>
      </trkpt>
      <trkpt lat="47.85674" lon="6.8252">
        <ele>617.2</ele>
        <time>2025-08-06T14:54:03Z</time>
      </trkpt>
      <trkpt lat="47.8567" lon="6.82518">
        <ele>617.6</ele>
        <time>2025-08-06T14:54:05Z</time>
      </trkpt>
      <trkpt lat="47.85665" lon="6.8251">
        <ele>618.4</ele>
        <time>2025-08-06T14:54:08Z</time>
      </trkpt>
      <trkpt lat="47.85661" lon="6.82501">
        <ele>619.2</ele>
        <time>2025-08-06T14:54:11Z</time>
      </trkpt>
      <trkpt lat="47.85659" lon="6.82498">
        <ele>619.6</ele>
        <time>2025-08-06T14:54:12Z</time>
      </trkpt>
      <trkpt lat="47.85651" lon="6.82481">
        <ele>620.8</ele>
        <time>2025-08-06T14:54:18Z</time>
      </trkpt>
      <trkpt lat="47.85641" lon="6.82468">
        <ele>621.6</ele>
        <time>2025-08-06T14:54:23Z</time>
      </trkpt>
      <trkpt lat="47.85637" lon="6.82463">
        <ele>622.2</ele>
        <time>2025-08-06T14:54:25Z</time>
      </trkpt>
      <trkpt lat="47.85625" lon="6.82452">
        <ele>623.2</ele>
        <time>2025-08-06T14:54:30Z</time>
      </trkpt>
      <trkpt lat="47.85605" lon="6.82439">
        <ele>624.4</ele>
        <time>2025-08-06T14:54:38Z</time>
      </trkpt>
      <trkpt lat="47.85598" lon="6.82434">
        <ele>625.2</ele>
        <time>2025-08-06T14:54:41Z</time>
      </trkpt>
      <trkpt lat="47.8559" lon="6.8243">
        <ele>625.6</ele>
        <time>2025-08-06T14:54:44Z</time>
      </trkpt>
      <trkpt lat="47.85573" lon="6.82419">
        <ele>626.8</ele>
        <time>2025-08-06T14:54:51Z</time>
      </trkpt>
      <trkpt lat="47.85557" lon="6.82411">
        <ele>627.8</ele>
        <time>2025-08-06T14:54:57Z</time>
      </trkpt>
      <trkpt lat="47.85552" lon="6.82409">
        <ele>628.2</ele>
        <time>2025-08-06T14:54:59Z</time>
      </trkpt>
      <trkpt lat="47.8554" lon="6.82407">
        <ele>629</ele>
        <time>2025-08-06T14:55:03Z</time>
      </trkpt>
      <trkpt lat="47.85527" lon="6.82408">
        <ele>630</ele>
        <time>2025-08-06T14:55:08Z</time>
      </trkpt>
      <trkpt lat="47.85524" lon="6.82409">
        <ele>630.2</ele>
        <time>2025-08-06T14:55:09Z</time>
      </trkpt>
      <trkpt lat="47.85518" lon="6.82416">
        <ele>631</ele>
        <time>2025-08-06T14:55:12Z</time>
      </trkpt>
      <trkpt lat="47.85517" lon="6.8242">
        <ele>631.2</ele>
        <time>2025-08-06T14:55:13Z</time>
      </trkpt>
      <trkpt lat="47.85517" lon="6.82425">
        <ele>631.6</ele>
        <time>2025-08-06T14:55:14Z</time>
      </trkpt>
      <trkpt lat="47.85519" lon="6.82433">
        <ele>632.2</ele>
        <time>2025-08-06T14:55:16Z</time>
      </trkpt>
      <trkpt lat="47.85523" lon="6.8244">
        <ele>632.8</ele>
        <time>2025-08-06T14:55:18Z</time>
      </trkpt>
      <trkpt lat="47.85532" lon="6.82451">
        <ele>633.4</ele>
        <time>2025-08-06T14:55:22Z</time>
      </trkpt>
      <trkpt lat="47.85544" lon="6.82467">
        <ele>634.6</ele>
        <time>2025-08-06T14:55:28Z</time>
      </trkpt>
      <trkpt lat="47.85548" lon="6.82473">
        <ele>635</ele>
        <time>2025-08-06T14:55:30Z</time>
      </trkpt>
      <trkpt lat="47.85553" lon="6.82486">
        <ele>635.8</ele>
        <time>2025-08-06T14:55:34Z</time>
      </trkpt>
      <trkpt lat="47.85557" lon="6.82495">
        <ele>636.2</ele>
        <time>2025-08-06T14:55:37Z</time>
      </trkpt>
      <trkpt lat="47.8556" lon="6.82505">
        <ele>637</ele>
        <time>2025-08-06T14:55:40Z</time>
      </trkpt>
      <trkpt lat="47.85565" lon="6.82523">
        <ele>638.2</ele>
        <time>2025-08-06T14:55:45Z</time>
      </trkpt>
      <trkpt lat="47.85566" lon="6.82526">
        <ele>638.2</ele>
        <time>2025-08-06T14:55:46Z</time>
      </trkpt>
      <trkpt lat="47.85571" lon="6.82544">
        <ele>639.2</ele>
        <time>2025-08-06T14:55:51Z</time>
      </trkpt>
      <trkpt lat="47.85574" lon="6.82555">
        <ele>640</ele>
        <time>2025-08-06T14:55:54Z</time>
      </trkpt>
      <trkpt lat="47.85576" lon="6.82563">
        <ele>640.4</ele>
        <time>2025-08-06T14:55:56Z</time>
      </trkpt>
      <trkpt lat="47.85575" lon="6.82575">
        <ele>641</ele>
        <time>2025-08-06T14:55:59Z</time>
      </trkpt>
      <trkpt lat="47.85574" lon="6.82578">
        <ele>641</ele>
        <time>2025-08-06T14:56:00Z</time>
      </trkpt>
      <trkpt lat="47.85571" lon="6.8258">
        <ele>641.2</ele>
        <time>2025-08-06T14:56:01Z</time>
      </trkpt>
      <trkpt lat="47.85565" lon="6.8258">
        <ele>641.6</ele>
        <time>2025-08-06T14:56:03Z</time>
      </trkpt>
      <trkpt lat="47.85562" lon="6.82578">
        <ele>641.6</ele>
        <time>2025-08-06T14:56:04Z</time>
      </trkpt>
      <trkpt lat="47.85555" lon="6.82566">
        <ele>643</ele>
        <time>2025-08-06T14:56:08Z</time>
      </trkpt>
      <trkpt lat="47.85551" lon="6.82556">
        <ele>643.6</ele>
        <time>2025-08-06T14:56:11Z</time>
      </trkpt>
      <trkpt lat="47.85548" lon="6.82549">
        <ele>644.6</ele>
        <time>2025-08-06T14:56:13Z</time>
      </trkpt>
      <trkpt lat="47.8554" lon="6.82531">
        <ele>645.2</ele>
        <time>2025-08-06T14:56:18Z</time>
      </trkpt>
      <trkpt lat="47.85537" lon="6.82524">
        <ele>645.6</ele>
        <time>2025-08-06T14:56:20Z</time>
      </trkpt>
      <trkpt lat="47.85526" lon="6.82503">
        <ele>646.8</ele>
        <time>2025-08-06T14:56:26Z</time>
      </trkpt>
      <trkpt lat="47.85517" lon="6.82489">
        <ele>648</ele>
        <time>2025-08-06T14:56:31Z</time>
      </trkpt>
      <trkpt lat="47.85509" lon="6.82483">
        <ele>648.4</ele>
        <time>2025-08-06T14:56:34Z</time>
      </trkpt>
      <trkpt lat="47.85502" lon="6.82484">
        <ele>649</ele>
        <time>2025-08-06T14:56:37Z</time>
      </trkpt>
      <trkpt lat="47.85498" lon="6.82489">
        <ele>649.4</ele>
        <time>2025-08-06T14:56:39Z</time>
      </trkpt>
      <trkpt lat="47.85495" lon="6.82505">
        <ele>650</ele>
        <time>2025-08-06T14:56:43Z</time>
      </trkpt>
      <trkpt lat="47.85496" lon="6.8251">
        <ele>650</ele>
        <time>2025-08-06T14:56:44Z</time>
      </trkpt>
      <trkpt lat="47.85498" lon="6.82526">
        <ele>651</ele>
        <time>2025-08-06T14:56:48Z</time>
      </trkpt>
      <trkpt lat="47.85502" lon="6.82545">
        <ele>652.2</ele>
        <time>2025-08-06T14:56:53Z</time>
      </trkpt>
      <trkpt lat="47.85503" lon="6.82549">
        <ele>652.2</ele>
        <time>2025-08-06T14:56:54Z</time>
      </trkpt>
      <trkpt lat="47.85505" lon="6.8257">
        <ele>653.2</ele>
        <time>2025-08-06T14:56:59Z</time>
      </trkpt>
      <trkpt lat="47.85507" lon="6.8259">
        <ele>654.2</ele>
        <time>2025-08-06T14:57:04Z</time>
      </trkpt>
      <trkpt lat="47.85508" lon="6.82594">
        <ele>654.4</ele>
        <time>2025-08-06T14:57:05Z</time>
      </trkpt>
      <trkpt lat="47.85507" lon="6.82618">
        <ele>655.8</ele>
        <time>2025-08-06T14:57:11Z</time>
      </trkpt>
      <trkpt lat="47.85507" lon="6.82622">
        <ele>655.8</ele>
        <time>2025-08-06T14:57:12Z</time>
      </trkpt>
      <trkpt lat="47.85507" lon="6.82638">
        <ele>656.8</ele>
        <time>2025-08-06T14:57:16Z</time>
      </trkpt>
      <trkpt lat="47.85506" lon="6.82661">
        <ele>657.8</ele>
        <time>2025-08-06T14:57:22Z</time>
      </trkpt>
      <trkpt lat="47.85501" lon="6.82681">
        <ele>658.8</ele>
        <time>2025-08-06T14:57:27Z</time>
      </trkpt>
      <trkpt lat="47.85498" lon="6.82691">
        <ele>659.4</ele>
        <time>2025-08-06T14:57:30Z</time>
      </trkpt>
      <trkpt lat="47.85491" lon="6.82707">
        <ele>660</ele>
        <time>2025-08-06T14:57:35Z</time>
      </trkpt>
      <trkpt lat="47.85486" lon="6.82719">
        <ele>660.6</ele>
        <time>2025-08-06T14:57:39Z</time>
      </trkpt>
      <trkpt lat="47.85483" lon="6.82726">
        <ele>661.2</ele>
        <time>2025-08-06T14:57:41Z</time>
      </trkpt>
      <trkpt lat="47.85476" lon="6.82742">
        <ele>662.2</ele>
        <time>2025-08-06T14:57:46Z</time>
      </trkpt>
      <trkpt lat="47.85474" lon="6.8275">
        <ele>662.6</ele>
        <time>2025-08-06T14:57:48Z</time>
      </trkpt>
      <trkpt lat="47.85469" lon="6.8276">
        <ele>663.4</ele>
        <time>2025-08-06T14:57:51Z</time>
      </trkpt>
      <trkpt lat="47.85461" lon="6.82779">
        <ele>664.4</ele>
        <time>2025-08-06T14:57:57Z</time>
      </trkpt>
      <trkpt lat="47.85459" lon="6.82782">
        <ele>664.6</ele>
        <time>2025-08-06T14:57:58Z</time>
      </trkpt>
      <trkpt lat="47.85446" lon="6.82802">
        <ele>665.6</ele>
        <time>2025-08-06T14:58:05Z</time>
      </trkpt>
      <trkpt lat="47.85439" lon="6.82809">
        <ele>666</ele>
        <time>2025-08-06T14:58:08Z</time>
      </trkpt>
      <trkpt lat="47.85434" lon="6.82815">
        <ele>666.6</ele>
        <time>2025-08-06T14:58:11Z</time>
      </trkpt>
      <trkpt lat="47.85424" lon="6.82828">
        <ele>667.6</ele>
        <time>2025-08-06T14:58:16Z</time>
      </trkpt>
      <trkpt lat="47.85423" lon="6.82831">
        <ele>667.8</ele>
        <time>2025-08-06T14:58:17Z</time>
      </trkpt>
      <trkpt lat="47.85413" lon="6.82847">
        <ele>668.8</ele>
        <time>2025-08-06T14:58:23Z</time>
      </trkpt>
      <trkpt lat="47.85409" lon="6.82853">
        <ele>669.2</ele>
        <time>2025-08-06T14:58:25Z</time>
      </trkpt>
      <trkpt lat="47.85402" lon="6.82862">
        <ele>670.2</ele>
        <time>2025-08-06T14:58:29Z</time>
      </trkpt>
      <trkpt lat="47.85392" lon="6.82874">
        <ele>671</ele>
        <time>2025-08-06T14:58:34Z</time>
      </trkpt>
      <trkpt lat="47.85388" lon="6.82879">
        <ele>671.4</ele>
        <time>2025-08-06T14:58:36Z</time>
      </trkpt>
      <trkpt lat="47.85378" lon="6.82892">
        <ele>672.6</ele>
        <time>2025-08-06T14:58:41Z</time>
      </trkpt>
      <trkpt lat="47.85372" lon="6.82897">
        <ele>673</ele>
        <time>2025-08-06T14:58:44Z</time>
      </trkpt>
      <trkpt lat="47.85365" lon="6.82906">
        <ele>673.8</ele>
        <time>2025-08-06T14:58:48Z</time>
      </trkpt>
      <trkpt lat="47.85359" lon="6.82914">
        <ele>674.2</ele>
        <time>2025-08-06T14:58:51Z</time>
      </trkpt>
      <trkpt lat="47.8535" lon="6.82928">
        <ele>675</ele>
        <time>2025-08-06T14:58:56Z</time>
      </trkpt>
      <trkpt lat="47.85342" lon="6.82939">
        <ele>676</ele>
        <time>2025-08-06T14:59:00Z</time>
      </trkpt>
      <trkpt lat="47.85338" lon="6.82945">
        <ele>676.4</ele>
        <time>2025-08-06T14:59:02Z</time>
      </trkpt>
      <trkpt lat="47.8533" lon="6.8296">
        <ele>677</ele>
        <time>2025-08-06T14:59:07Z</time>
      </trkpt>
      <trkpt lat="47.8532" lon="6.82979">
        <ele>678</ele>
        <time>2025-08-06T14:59:13Z</time>
      </trkpt>
      <trkpt lat="47.85318" lon="6.82982">
        <ele>678.4</ele>
        <time>2025-08-06T14:59:14Z</time>
      </trkpt>
      <trkpt lat="47.85309" lon="6.83001">
        <ele>679.4</ele>
        <time>2025-08-06T14:59:20Z</time>
      </trkpt>
      <trkpt lat="47.85304" lon="6.83012">
        <ele>680.2</ele>
        <time>2025-08-06T14:59:24Z</time>
      </trkpt>
      <trkpt lat="47.85302" lon="6.83015">
        <ele>680.4</ele>
        <time>2025-08-06T14:59:25Z</time>
      </trkpt>
      <trkpt lat="47.85291" lon="6.83023">
        <ele>681.6</ele>
        <time>2025-08-06T14:59:30Z</time>
      </trkpt>
      <trkpt lat="47.85284" lon="6.83017">
        <ele>682.4</ele>
        <time>2025-08-06T14:59:33Z</time>
      </trkpt>
      <trkpt lat="47.85282" lon="6.83013">
        <ele>682.8</ele>
        <time>2025-08-06T14:59:34Z</time>
      </trkpt>
      <trkpt lat="47.85281" lon="6.83005">
        <ele>683.4</ele>
        <time>2025-08-06T14:59:36Z</time>
      </trkpt>
      <trkpt lat="47.85281" lon="6.83001">
        <ele>683.8</ele>
        <time>2025-08-06T14:59:37Z</time>
      </trkpt>
      <trkpt lat="47.85282" lon="6.82993">
        <ele>684.2</ele>
        <time>2025-08-06T14:59:39Z</time>
      </trkpt>
      <trkpt lat="47.85283" lon="6.82985">
        <ele>684.8</ele>
        <time>2025-08-06T14:59:41Z</time>
      </trkpt>
      <trkpt lat="47.85284" lon="6.82965">
        <ele>686</ele>
        <time>2025-08-06T14:59:46Z</time>
      </trkpt>
      <trkpt lat="47.85284" lon="6.8295">
        <ele>687</ele>
        <time>2025-08-06T14:59:50Z</time>
      </trkpt>
      <trkpt lat="47.85284" lon="6.82946">
        <ele>687.2</ele>
        <time>2025-08-06T14:59:51Z</time>
      </trkpt>
      <trkpt lat="47.85283" lon="6.82927">
        <ele>688.2</ele>
        <time>2025-08-06T14:59:56Z</time>
      </trkpt>
      <trkpt lat="47.8528" lon="6.82912">
        <ele>688.8</ele>
        <time>2025-08-06T15:00:00Z</time>
      </trkpt>
      <trkpt lat="47.85277" lon="6.82901">
        <ele>689.2</ele>
        <time>2025-08-06T15:00:03Z</time>
      </trkpt>
      <trkpt lat="47.85271" lon="6.82884">
        <ele>690.6</ele>
        <time>2025-08-06T15:00:08Z</time>
      </trkpt>
      <trkpt lat="47.85262" lon="6.82863">
        <ele>691.6</ele>
        <time>2025-08-06T15:00:14Z</time>
      </trkpt>
      <trkpt lat="47.85258" lon="6.82851">
        <ele>692.2</ele>
        <time>2025-08-06T15:00:17Z</time>
      </trkpt>
      <trkpt lat="47.85252" lon="6.82832">
        <ele>692.8</ele>
        <time>2025-08-06T15:00:22Z</time>
      </trkpt>
      <trkpt lat="47.85249" lon="6.82816">
        <ele>693.2</ele>
        <time>2025-08-06T15:00:26Z</time>
      </trkpt>
      <trkpt lat="47.85248" lon="6.82808">
        <ele>693.8</ele>
        <time>2025-08-06T15:00:28Z</time>
      </trkpt>
      <trkpt lat="47.85243" lon="6.82791">
        <ele>694.6</ele>
        <time>2025-08-06T15:00:33Z</time>
      </trkpt>
      <trkpt lat="47.8524" lon="6.82785">
        <ele>695.2</ele>
        <time>2025-08-06T15:00:35Z</time>
      </trkpt>
      <trkpt lat="47.85234" lon="6.82776">
        <ele>695.6</ele>
        <time>2025-08-06T15:00:38Z</time>
      </trkpt>
      <trkpt lat="47.85231" lon="6.82775">
        <ele>695.8</ele>
        <time>2025-08-06T15:00:39Z</time>
      </trkpt>
      <trkpt lat="47.85224" lon="6.82772">
        <ele>696.2</ele>
        <time>2025-08-06T15:00:42Z</time>
      </trkpt>
      <trkpt lat="47.85213" lon="6.82771">
        <ele>696.8</ele>
        <time>2025-08-06T15:00:46Z</time>
      </trkpt>
      <trkpt lat="47.85207" lon="6.82772">
        <ele>697.4</ele>
        <time>2025-08-06T15:00:48Z</time>
      </trkpt>
      <trkpt lat="47.85186" lon="6.82778">
        <ele>698.4</ele>
        <time>2025-08-06T15:00:55Z</time>
      </trkpt>
      <trkpt lat="47.85183" lon="6.8278">
        <ele>698.6</ele>
        <time>2025-08-06T15:00:56Z</time>
      </trkpt>
      <trkpt lat="47.85175" lon="6.82782">
        <ele>699.6</ele>
        <time>2025-08-06T15:00:59Z</time>
      </trkpt>
      <trkpt lat="47.8516" lon="6.82787">
        <ele>700.6</ele>
        <time>2025-08-06T15:01:04Z</time>
      </trkpt>
      <trkpt lat="47.85152" lon="6.8279">
        <ele>700.8</ele>
        <time>2025-08-06T15:01:07Z</time>
      </trkpt>
      <trkpt lat="47.85141" lon="6.82794">
        <ele>701.8</ele>
        <time>2025-08-06T15:01:11Z</time>
      </trkpt>
      <trkpt lat="47.85125" lon="6.828">
        <ele>702.8</ele>
        <time>2025-08-06T15:01:17Z</time>
      </trkpt>
      <trkpt lat="47.85112" lon="6.82806">
        <ele>703.6</ele>
        <time>2025-08-06T15:01:22Z</time>
      </trkpt>
      <trkpt lat="47.85109" lon="6.82807">
        <ele>703.8</ele>
        <time>2025-08-06T15:01:23Z</time>
      </trkpt>
      <trkpt lat="47.85097" lon="6.82814">
        <ele>704.6</ele>
        <time>2025-08-06T15:01:28Z</time>
      </trkpt>
      <trkpt lat="47.85094" lon="6.82815">
        <ele>705</ele>
        <time>2025-08-06T15:01:29Z</time>
      </trkpt>
      <trkpt lat="47.85082" lon="6.82826">
        <ele>706.2</ele>
        <time>2025-08-06T15:01:34Z</time>
      </trkpt>
      <trkpt lat="47.85077" lon="6.82831">
        <ele>706.4</ele>
        <time>2025-08-06T15:01:36Z</time>
      </trkpt>
      <trkpt lat="47.8507" lon="6.82837">
        <ele>707.2</ele>
        <time>2025-08-06T15:01:39Z</time>
      </trkpt>
      <trkpt lat="47.85057" lon="6.82845">
        <ele>707.8</ele>
        <time>2025-08-06T15:01:44Z</time>
      </trkpt>
      <trkpt lat="47.85052" lon="6.82847">
        <ele>708.2</ele>
        <time>2025-08-06T15:01:46Z</time>
      </trkpt>
      <trkpt lat="47.8504" lon="6.82849">
        <ele>709.4</ele>
        <time>2025-08-06T15:01:51Z</time>
      </trkpt>
      <trkpt lat="47.85037" lon="6.8285">
        <ele>709.6</ele>
        <time>2025-08-06T15:01:52Z</time>
      </trkpt>
      <trkpt lat="47.85027" lon="6.82852">
        <ele>710.6</ele>
        <time>2025-08-06T15:01:56Z</time>
      </trkpt>
      <trkpt lat="47.85015" lon="6.82859">
        <ele>711.6</ele>
        <time>2025-08-06T15:02:01Z</time>
      </trkpt>
      <trkpt lat="47.85012" lon="6.82861">
        <ele>711.8</ele>
        <time>2025-08-06T15:02:02Z</time>
      </trkpt>
      <trkpt lat="47.85002" lon="6.82877">
        <ele>713</ele>
        <time>2025-08-06T15:02:08Z</time>
      </trkpt>
      <trkpt lat="47.84995" lon="6.82897">
        <ele>714</ele>
        <time>2025-08-06T15:02:14Z</time>
      </trkpt>
      <trkpt lat="47.84989" lon="6.82915">
        <ele>715</ele>
        <time>2025-08-06T15:02:19Z</time>
      </trkpt>
      <trkpt lat="47.84984" lon="6.82932">
        <ele>716.2</ele>
        <time>2025-08-06T15:02:24Z</time>
      </trkpt>
      <trkpt lat="47.84978" lon="6.82948">
        <ele>716.8</ele>
        <time>2025-08-06T15:02:29Z</time>
      </trkpt>
      <trkpt lat="47.84977" lon="6.82951">
        <ele>717.4</ele>
        <time>2025-08-06T15:02:30Z</time>
      </trkpt>
      <trkpt lat="47.84969" lon="6.82972">
        <ele>718.4</ele>
        <time>2025-08-06T15:02:36Z</time>
      </trkpt>
      <trkpt lat="47.84967" lon="6.82975">
        <ele>718.8</ele>
        <time>2025-08-06T15:02:37Z</time>
      </trkpt>
      <trkpt lat="47.84963" lon="6.82984">
        <ele>719.6</ele>
        <time>2025-08-06T15:02:40Z</time>
      </trkpt>
      <trkpt lat="47.84956" lon="6.82998">
        <ele>720.4</ele>
        <time>2025-08-06T15:02:44Z</time>
      </trkpt>
      <trkpt lat="47.84955" lon="6.83002">
        <ele>720.6</ele>
        <time>2025-08-06T15:02:45Z</time>
      </trkpt>
      <trkpt lat="47.84949" lon="6.83018">
        <ele>721.8</ele>
        <time>2025-08-06T15:02:50Z</time>
      </trkpt>
      <trkpt lat="47.84947" lon="6.83024">
        <ele>722.4</ele>
        <time>2025-08-06T15:02:52Z</time>
      </trkpt>
      <trkpt lat="47.84943" lon="6.83034">
        <ele>723</ele>
        <time>2025-08-06T15:02:55Z</time>
      </trkpt>
      <trkpt lat="47.84935" lon="6.83056">
        <ele>724.2</ele>
        <time>2025-08-06T15:03:01Z</time>
      </trkpt>
      <trkpt lat="47.84934" lon="6.83059">
        <ele>724.2</ele>
        <time>2025-08-06T15:03:02Z</time>
      </trkpt>
      <trkpt lat="47.84927" lon="6.83071">
        <ele>725.2</ele>
        <time>2025-08-06T15:03:06Z</time>
      </trkpt>
      <trkpt lat="47.8492" lon="6.83086">
        <ele>726.4</ele>
        <time>2025-08-06T15:03:11Z</time>
      </trkpt>
      <trkpt lat="47.84909" lon="6.83102">
        <ele>727.6</ele>
        <time>2025-08-06T15:03:17Z</time>
      </trkpt>
      <trkpt lat="47.84903" lon="6.8311">
        <ele>728.2</ele>
        <time>2025-08-06T15:03:20Z</time>
      </trkpt>
      <trkpt lat="47.84898" lon="6.83115">
        <ele>728.6</ele>
        <time>2025-08-06T15:03:22Z</time>
      </trkpt>
      <trkpt lat="47.84891" lon="6.83126">
        <ele>729.2</ele>
        <time>2025-08-06T15:03:26Z</time>
      </trkpt>
      <trkpt lat="47.84885" lon="6.83135">
        <ele>729.8</ele>
        <time>2025-08-06T15:03:29Z</time>
      </trkpt>
      <trkpt lat="47.84877" lon="6.83151">
        <ele>730.8</ele>
        <time>2025-08-06T15:03:34Z</time>
      </trkpt>
      <trkpt lat="47.84875" lon="6.83155">
        <ele>730.8</ele>
        <time>2025-08-06T15:03:35Z</time>
      </trkpt>
      <trkpt lat="47.84866" lon="6.83166">
        <ele>731.8</ele>
        <time>2025-08-06T15:03:39Z</time>
      </trkpt>
      <trkpt lat="47.84862" lon="6.83171">
        <ele>732.2</ele>
        <time>2025-08-06T15:03:41Z</time>
      </trkpt>
      <trkpt lat="47.84852" lon="6.83179">
        <ele>733</ele>
        <time>2025-08-06T15:03:45Z</time>
      </trkpt>
      <trkpt lat="47.84845" lon="6.83185">
        <ele>733.8</ele>
        <time>2025-08-06T15:03:48Z</time>
      </trkpt>
      <trkpt lat="47.8484" lon="6.83188">
        <ele>734.2</ele>
        <time>2025-08-06T15:03:50Z</time>
      </trkpt>
      <trkpt lat="47.84826" lon="6.83197">
        <ele>735.2</ele>
        <time>2025-08-06T15:03:55Z</time>
      </trkpt>
      <trkpt lat="47.84823" lon="6.83198">
        <ele>735.4</ele>
        <time>2025-08-06T15:03:56Z</time>
      </trkpt>
      <trkpt lat="47.8481" lon="6.83206">
        <ele>736.4</ele>
        <time>2025-08-06T15:04:01Z</time>
      </trkpt>
      <trkpt lat="47.84798" lon="6.83213">
        <ele>737.4</ele>
        <time>2025-08-06T15:04:06Z</time>
      </trkpt>
      <trkpt lat="47.84795" lon="6.83214">
        <ele>737.6</ele>
        <time>2025-08-06T15:04:07Z</time>
      </trkpt>
      <trkpt lat="47.84783" lon="6.8322">
        <ele>738.8</ele>
        <time>2025-08-06T15:04:12Z</time>
      </trkpt>
      <trkpt lat="47.84772" lon="6.83224">
        <ele>739.8</ele>
        <time>2025-08-06T15:04:17Z</time>
      </trkpt>
      <trkpt lat="47.84769" lon="6.83224">
        <ele>740</ele>
        <time>2025-08-06T15:04:18Z</time>
      </trkpt>
      <trkpt lat="47.84761" lon="6.83225">
        <ele>741</ele>
        <time>2025-08-06T15:04:21Z</time>
      </trkpt>
      <trkpt lat="47.84747" lon="6.83229">
        <ele>742</ele>
        <time>2025-08-06T15:04:26Z</time>
      </trkpt>
      <trkpt lat="47.84731" lon="6.83231">
        <ele>743</ele>
        <time>2025-08-06T15:04:32Z</time>
      </trkpt>
      <trkpt lat="47.84728" lon="6.83231">
        <ele>743.4</ele>
        <time>2025-08-06T15:04:33Z</time>
      </trkpt>
      <trkpt lat="47.84714" lon="6.83231">
        <ele>744</ele>
        <time>2025-08-06T15:04:38Z</time>
      </trkpt>
      <trkpt lat="47.84702" lon="6.83229">
        <ele>745.2</ele>
        <time>2025-08-06T15:04:42Z</time>
      </trkpt>
      <trkpt lat="47.84689" lon="6.83233">
        <ele>746.4</ele>
        <time>2025-08-06T15:04:47Z</time>
      </trkpt>
      <trkpt lat="47.84677" lon="6.83239">
        <ele>747.4</ele>
        <time>2025-08-06T15:04:52Z</time>
      </trkpt>
      <trkpt lat="47.84666" lon="6.83241">
        <ele>748.2</ele>
        <time>2025-08-06T15:04:56Z</time>
      </trkpt>
      <trkpt lat="47.84664" lon="6.83242">
        <ele>748.6</ele>
        <time>2025-08-06T15:04:57Z</time>
      </trkpt>
      <trkpt lat="47.8465" lon="6.83244">
        <ele>749.4</ele>
        <time>2025-08-06T15:05:02Z</time>
      </trkpt>
      <trkpt lat="47.84648" lon="6.83244">
        <ele>749.8</ele>
        <time>2025-08-06T15:05:03Z</time>
      </trkpt>
      <trkpt lat="47.84632" lon="6.83244">
        <ele>750.8</ele>
        <time>2025-08-06T15:05:08Z</time>
      </trkpt>
      <trkpt lat="47.84626" lon="6.83245">
        <ele>751.4</ele>
        <time>2025-08-06T15:05:10Z</time>
      </trkpt>
      <trkpt lat="47.8462" lon="6.83247">
        <ele>751.8</ele>
        <time>2025-08-06T15:05:12Z</time>
      </trkpt>
      <trkpt lat="47.84607" lon="6.83247">
        <ele>752.8</ele>
        <time>2025-08-06T15:05:16Z</time>
      </trkpt>
      <trkpt lat="47.84588" lon="6.83258">
        <ele>754.2</ele>
        <time>2025-08-06T15:05:22Z</time>
      </trkpt>
      <trkpt lat="47.84576" lon="6.83265">
        <ele>755.2</ele>
        <time>2025-08-06T15:05:27Z</time>
      </trkpt>
      <trkpt lat="47.84569" lon="6.83271">
        <ele>755.8</ele>
        <time>2025-08-06T15:05:30Z</time>
      </trkpt>
      <trkpt lat="47.84563" lon="6.83278">
        <ele>756.4</ele>
        <time>2025-08-06T15:05:33Z</time>
      </trkpt>
      <trkpt lat="47.84556" lon="6.83284">
        <ele>757</ele>
        <time>2025-08-06T15:05:36Z</time>
      </trkpt>
      <trkpt lat="47.84548" lon="6.83288">
        <ele>757.6</ele>
        <time>2025-08-06T15:05:39Z</time>
      </trkpt>
      <trkpt lat="47.8453" lon="6.83297">
        <ele>758.6</ele>
        <time>2025-08-06T15:05:45Z</time>
      </trkpt>
      <trkpt lat="47.84527" lon="6.83299">
        <ele>758.8</ele>
        <time>2025-08-06T15:05:46Z</time>
      </trkpt>
      <trkpt lat="47.84517" lon="6.83304">
        <ele>759.8</ele>
        <time>2025-08-06T15:05:50Z</time>
      </trkpt>
      <trkpt lat="47.84503" lon="6.83312">
        <ele>761.2</ele>
        <time>2025-08-06T15:05:55Z</time>
      </trkpt>
      <trkpt lat="47.8449" lon="6.83327">
        <ele>762.4</ele>
        <time>2025-08-06T15:06:00Z</time>
      </trkpt>
      <trkpt lat="47.84486" lon="6.83329">
        <ele>762.6</ele>
        <time>2025-08-06T15:06:01Z</time>
      </trkpt>
      <trkpt lat="47.84475" lon="6.83336">
        <ele>763.6</ele>
        <time>2025-08-06T15:06:05Z</time>
      </trkpt>
      <trkpt lat="47.84471" lon="6.8334">
        <ele>764</ele>
        <time>2025-08-06T15:06:07Z</time>
      </trkpt>
      <trkpt lat="47.84463" lon="6.8335">
        <ele>764.6</ele>
        <time>2025-08-06T15:06:11Z</time>
      </trkpt>
      <trkpt lat="47.84454" lon="6.83358">
        <ele>765.2</ele>
        <time>2025-08-06T15:06:15Z</time>
      </trkpt>
      <trkpt lat="47.84452" lon="6.8336">
        <ele>765.4</ele>
        <time>2025-08-06T15:06:16Z</time>
      </trkpt>
      <trkpt lat="47.84441" lon="6.83373">
        <ele>766.6</ele>
        <time>2025-08-06T15:06:21Z</time>
      </trkpt>
      <trkpt lat="47.84436" lon="6.83377">
        <ele>767</ele>
        <time>2025-08-06T15:06:23Z</time>
      </trkpt>
      <trkpt lat="47.84426" lon="6.83385">
        <ele>767.8</ele>
        <time>2025-08-06T15:06:27Z</time>
      </trkpt>
      <trkpt lat="47.84418" lon="6.83391">
        <ele>768.2</ele>
        <time>2025-08-06T15:06:30Z</time>
      </trkpt>
      <trkpt lat="47.84413" lon="6.83396">
        <ele>768.6</ele>
        <time>2025-08-06T15:06:32Z</time>
      </trkpt>
      <trkpt lat="47.84403" lon="6.83403">
        <ele>769.4</ele>
        <time>2025-08-06T15:06:36Z</time>
      </trkpt>
      <trkpt lat="47.844" lon="6.83404">
        <ele>769.6</ele>
        <time>2025-08-06T15:06:37Z</time>
      </trkpt>
      <trkpt lat="47.84398" lon="6.83405">
        <ele>769.8</ele>
        <time>2025-08-06T15:06:38Z</time>
      </trkpt>
      <trkpt lat="47.84384" lon="6.83408">
        <ele>770.8</ele>
        <time>2025-08-06T15:06:43Z</time>
      </trkpt>
      <trkpt lat="47.84368" lon="6.83409">
        <ele>772.2</ele>
        <time>2025-08-06T15:06:49Z</time>
      </trkpt>
      <trkpt lat="47.84359" lon="6.83411">
        <ele>773</ele>
        <time>2025-08-06T15:06:52Z</time>
      </trkpt>
      <trkpt lat="47.84354" lon="6.83414">
        <ele>773.4</ele>
        <time>2025-08-06T15:06:54Z</time>
      </trkpt>
      <trkpt lat="47.84342" lon="6.8342">
        <ele>774.8</ele>
        <time>2025-08-06T15:06:59Z</time>
      </trkpt>
      <trkpt lat="47.84331" lon="6.83428">
        <ele>775.8</ele>
        <time>2025-08-06T15:07:03Z</time>
      </trkpt>
      <trkpt lat="47.84324" lon="6.83432">
        <ele>776.4</ele>
        <time>2025-08-06T15:07:06Z</time>
      </trkpt>
      <trkpt lat="47.84316" lon="6.83441">
        <ele>776.8</ele>
        <time>2025-08-06T15:07:09Z</time>
      </trkpt>
      <trkpt lat="47.84311" lon="6.83446">
        <ele>777.2</ele>
        <time>2025-08-06T15:07:11Z</time>
      </trkpt>
      <trkpt lat="47.84301" lon="6.83455">
        <ele>778</ele>
        <time>2025-08-06T15:07:15Z</time>
      </trkpt>
      <trkpt lat="47.84291" lon="6.83466">
        <ele>778.6</ele>
        <time>2025-08-06T15:07:19Z</time>
      </trkpt>
      <trkpt lat="47.84286" lon="6.83471">
        <ele>779</ele>
        <time>2025-08-06T15:07:21Z</time>
      </trkpt>
      <trkpt lat="47.84275" lon="6.83485">
        <ele>780</ele>
        <time>2025-08-06T15:07:26Z</time>
      </trkpt>
      <trkpt lat="47.84272" lon="6.83488">
        <ele>780.4</ele>
        <time>2025-08-06T15:07:27Z</time>
      </trkpt>
      <trkpt lat="47.84265" lon="6.83499">
        <ele>781.4</ele>
        <time>2025-08-06T15:07:31Z</time>
      </trkpt>
      <trkpt lat="47.84263" lon="6.83503">
        <ele>781.6</ele>
        <time>2025-08-06T15:07:32Z</time>
      </trkpt>
      <trkpt lat="47.84254" lon="6.83517">
        <ele>782.4</ele>
        <time>2025-08-06T15:07:37Z</time>
      </trkpt>
      <trkpt lat="47.8425" lon="6.83522">
        <ele>782.8</ele>
        <time>2025-08-06T15:07:39Z</time>
      </trkpt>
      <trkpt lat="47.84245" lon="6.83529">
        <ele>783.4</ele>
        <time>2025-08-06T15:07:42Z</time>
      </trkpt>
      <trkpt lat="47.84238" lon="6.83539">
        <ele>784.2</ele>
        <time>2025-08-06T15:07:45Z</time>
      </trkpt>
      <trkpt lat="47.84236" lon="6.83542">
        <ele>784.6</ele>
        <time>2025-08-06T15:07:46Z</time>
      </trkpt>
      <trkpt lat="47.84223" lon="6.83554">
        <ele>785.6</ele>
        <time>2025-08-06T15:07:51Z</time>
      </trkpt>
      <trkpt lat="47.84221" lon="6.83557">
        <ele>785.6</ele>
        <time>2025-08-06T15:07:52Z</time>
      </trkpt>
      <trkpt lat="47.84212" lon="6.83567">
        <ele>786.4</ele>
        <time>2025-08-06T15:07:56Z</time>
      </trkpt>
      <trkpt lat="47.84209" lon="6.83569">
        <ele>786.8</ele>
        <time>2025-08-06T15:07:57Z</time>
      </trkpt>
      <trkpt lat="47.84198" lon="6.8358">
        <ele>787.6</ele>
        <time>2025-08-06T15:08:01Z</time>
      </trkpt>
      <trkpt lat="47.84195" lon="6.83583">
        <ele>787.8</ele>
        <time>2025-08-06T15:08:02Z</time>
      </trkpt>
      <trkpt lat="47.84182" lon="6.83592">
        <ele>788.6</ele>
        <time>2025-08-06T15:08:06Z</time>
      </trkpt>
      <trkpt lat="47.84178" lon="6.83594">
        <ele>789</ele>
        <time>2025-08-06T15:08:07Z</time>
      </trkpt>
      <trkpt lat="47.84167" lon="6.83611">
        <ele>789.8</ele>
        <time>2025-08-06T15:08:12Z</time>
      </trkpt>
      <trkpt lat="47.84166" lon="6.83614">
        <ele>790</ele>
        <time>2025-08-06T15:08:13Z</time>
      </trkpt>
      <trkpt lat="47.84157" lon="6.83622">
        <ele>790.8</ele>
        <time>2025-08-06T15:08:17Z</time>
      </trkpt>
      <trkpt lat="47.84153" lon="6.8362">
        <ele>791.6</ele>
        <time>2025-08-06T15:08:19Z</time>
      </trkpt>
      <trkpt lat="47.84149" lon="6.83615">
        <ele>792.2</ele>
        <time>2025-08-06T15:08:21Z</time>
      </trkpt>
      <trkpt lat="47.84149" lon="6.83606">
        <ele>792.8</ele>
        <time>2025-08-06T15:08:24Z</time>
      </trkpt>
      <trkpt lat="47.8415" lon="6.83602">
        <ele>793</ele>
        <time>2025-08-06T15:08:25Z</time>
      </trkpt>
      <trkpt lat="47.84153" lon="6.83588">
        <ele>793.8</ele>
        <time>2025-08-06T15:08:29Z</time>
      </trkpt>
      <trkpt lat="47.84155" lon="6.83579">
        <ele>794</ele>
        <time>2025-08-06T15:08:31Z</time>
      </trkpt>
      <trkpt lat="47.84159" lon="6.83559">
        <ele>794.8</ele>
        <time>2025-08-06T15:08:35Z</time>
      </trkpt>
      <trkpt lat="47.84161" lon="6.83548">
        <ele>795.2</ele>
        <time>2025-08-06T15:08:37Z</time>
      </trkpt>
      <trkpt lat="47.84165" lon="6.83519">
        <ele>796.4</ele>
        <time>2025-08-06T15:08:42Z</time>
      </trkpt>
      <trkpt lat="47.84166" lon="6.83514">
        <ele>796.6</ele>
        <time>2025-08-06T15:08:43Z</time>
      </trkpt>
      <trkpt lat="47.84168" lon="6.83483">
        <ele>797.6</ele>
        <time>2025-08-06T15:08:49Z</time>
      </trkpt>
      <trkpt lat="47.84171" lon="6.8347">
        <ele>798.2</ele>
        <time>2025-08-06T15:08:52Z</time>
      </trkpt>
      <trkpt lat="47.84171" lon="6.83461">
        <ele>798.6</ele>
        <time>2025-08-06T15:08:54Z</time>
      </trkpt>
      <trkpt lat="47.84176" lon="6.83442">
        <ele>799.4</ele>
        <time>2025-08-06T15:08:59Z</time>
      </trkpt>
      <trkpt lat="47.84177" lon="6.83438">
        <ele>799.6</ele>
        <time>2025-08-06T15:09:00Z</time>
      </trkpt>
      <trkpt lat="47.84182" lon="6.83419">
        <ele>800.6</ele>
        <time>2025-08-06T15:09:05Z</time>
      </trkpt>
      <trkpt lat="47.84183" lon="6.83415">
        <ele>800.8</ele>
        <time>2025-08-06T15:09:06Z</time>
      </trkpt>
      <trkpt lat="47.84184" lon="6.83411">
        <ele>801</ele>
        <time>2025-08-06T15:09:07Z</time>
      </trkpt>
      <trkpt lat="47.84185" lon="6.83403">
        <ele>801.6</ele>
        <time>2025-08-06T15:09:09Z</time>
      </trkpt>
      <trkpt lat="47.84188" lon="6.83386">
        <ele>803</ele>
        <time>2025-08-06T15:09:13Z</time>
      </trkpt>
      <trkpt lat="47.84188" lon="6.83378">
        <ele>803.4</ele>
        <time>2025-08-06T15:09:15Z</time>
      </trkpt>
      <trkpt lat="47.84189" lon="6.83366">
        <ele>804.2</ele>
        <time>2025-08-06T15:09:18Z</time>
      </trkpt>
      <trkpt lat="47.84191" lon="6.83353">
        <ele>804.6</ele>
        <time>2025-08-06T15:09:21Z</time>
      </trkpt>
      <trkpt lat="47.8419" lon="6.8334">
        <ele>805.2</ele>
        <time>2025-08-06T15:09:24Z</time>
      </trkpt>
      <trkpt lat="47.84188" lon="6.83328">
        <ele>805.8</ele>
        <time>2025-08-06T15:09:27Z</time>
      </trkpt>
      <trkpt lat="47.84186" lon="6.8332">
        <ele>806.2</ele>
        <time>2025-08-06T15:09:29Z</time>
      </trkpt>
      <trkpt lat="47.84181" lon="6.83308">
        <ele>807</ele>
        <time>2025-08-06T15:09:32Z</time>
      </trkpt>
      <trkpt lat="47.84178" lon="6.83302">
        <ele>807.4</ele>
        <time>2025-08-06T15:09:34Z</time>
      </trkpt>
      <trkpt lat="47.84166" lon="6.83289">
        <ele>808.6</ele>
        <time>2025-08-06T15:09:39Z</time>
      </trkpt>
      <trkpt lat="47.84164" lon="6.83286">
        <ele>808.8</ele>
        <time>2025-08-06T15:09:40Z</time>
      </trkpt>
      <trkpt lat="47.84153" lon="6.83278">
        <ele>809.4</ele>
        <time>2025-08-06T15:09:44Z</time>
      </trkpt>
      <trkpt lat="47.84138" lon="6.83272">
        <ele>810.2</ele>
        <time>2025-08-06T15:09:49Z</time>
      </trkpt>
      <trkpt lat="47.84133" lon="6.83269">
        <ele>810.8</ele>
        <time>2025-08-06T15:09:51Z</time>
      </trkpt>
      <trkpt lat="47.8412" lon="6.83262">
        <ele>811.8</ele>
        <time>2025-08-06T15:09:56Z</time>
      </trkpt>
      <trkpt lat="47.84118" lon="6.8326">
        <ele>811.8</ele>
        <time>2025-08-06T15:09:57Z</time>
      </trkpt>
      <trkpt lat="47.84106" lon="6.8325">
        <ele>812.8</ele>
        <time>2025-08-06T15:10:02Z</time>
      </trkpt>
      <trkpt lat="47.84104" lon="6.83247">
        <ele>813.2</ele>
        <time>2025-08-06T15:10:03Z</time>
      </trkpt>
      <trkpt lat="47.84097" lon="6.83237">
        <ele>813.8</ele>
        <time>2025-08-06T15:10:07Z</time>
      </trkpt>
      <trkpt lat="47.84092" lon="6.83232">
        <ele>814.2</ele>
        <time>2025-08-06T15:10:09Z</time>
      </trkpt>
      <trkpt lat="47.84083" lon="6.8322">
        <ele>815</ele>
        <time>2025-08-06T15:10:13Z</time>
      </trkpt>
      <trkpt lat="47.84078" lon="6.83215">
        <ele>815.4</ele>
        <time>2025-08-06T15:10:15Z</time>
      </trkpt>
      <trkpt lat="47.84067" lon="6.83209">
        <ele>816.2</ele>
        <time>2025-08-06T15:10:19Z</time>
      </trkpt>
      <trkpt lat="47.84061" lon="6.83201">
        <ele>817</ele>
        <time>2025-08-06T15:10:22Z</time>
      </trkpt>
      <trkpt lat="47.84057" lon="6.83197">
        <ele>817.2</ele>
        <time>2025-08-06T15:10:24Z</time>
      </trkpt>
      <trkpt lat="47.8405" lon="6.83187">
        <ele>818</ele>
        <time>2025-08-06T15:10:27Z</time>
      </trkpt>
      <trkpt lat="47.84046" lon="6.83182">
        <ele>818.4</ele>
        <time>2025-08-06T15:10:29Z</time>
      </trkpt>
      <trkpt lat="47.84044" lon="6.83178">
        <ele>818.4</ele>
        <time>2025-08-06T15:10:30Z</time>
      </trkpt>
      <trkpt lat="47.84038" lon="6.83166">
        <ele>819.6</ele>
        <time>2025-08-06T15:10:34Z</time>
      </trkpt>
      <trkpt lat="47.84031" lon="6.83156">
        <ele>820.6</ele>
        <time>2025-08-06T15:10:38Z</time>
      </trkpt>
      <trkpt lat="47.84029" lon="6.83152">
        <ele>820.8</ele>
        <time>2025-08-06T15:10:39Z</time>
      </trkpt>
      <trkpt lat="47.84021" lon="6.83139">
        <ele>821.8</ele>
        <time>2025-08-06T15:10:43Z</time>
      </trkpt>
      <trkpt lat="47.84014" lon="6.83128">
        <ele>822.6</ele>
        <time>2025-08-06T15:10:47Z</time>
      </trkpt>
      <trkpt lat="47.8401" lon="6.83123">
        <ele>822.8</ele>
        <time>2025-08-06T15:10:49Z</time>
      </trkpt>
      <trkpt lat="47.83999" lon="6.83108">
        <ele>823.8</ele>
        <time>2025-08-06T15:10:54Z</time>
      </trkpt>
      <trkpt lat="47.83997" lon="6.83105">
        <ele>824.2</ele>
        <time>2025-08-06T15:10:55Z</time>
      </trkpt>
      <trkpt lat="47.83986" lon="6.83086">
        <ele>825.2</ele>
        <time>2025-08-06T15:11:00Z</time>
      </trkpt>
      <trkpt lat="47.83984" lon="6.83081">
        <ele>825.4</ele>
        <time>2025-08-06T15:11:01Z</time>
      </trkpt>
      <trkpt lat="47.83979" lon="6.83069">
        <ele>826.2</ele>
        <time>2025-08-06T15:11:05Z</time>
      </trkpt>
      <trkpt lat="47.8397" lon="6.83055">
        <ele>827</ele>
        <time>2025-08-06T15:11:09Z</time>
      </trkpt>
      <trkpt lat="47.83967" lon="6.83051">
        <ele>827.4</ele>
        <time>2025-08-06T15:11:10Z</time>
      </trkpt>
      <trkpt lat="47.83964" lon="6.83028">
        <ele>828.4</ele>
        <time>2025-08-06T15:11:15Z</time>
      </trkpt>
      <trkpt lat="47.83955" lon="6.8301">
        <ele>829.6</ele>
        <time>2025-08-06T15:11:20Z</time>
      </trkpt>
      <trkpt lat="47.83952" lon="6.83002">
        <ele>830.2</ele>
        <time>2025-08-06T15:11:22Z</time>
      </trkpt>
      <trkpt lat="47.83948" lon="6.82993">
        <ele>830.6</ele>
        <time>2025-08-06T15:11:24Z</time>
      </trkpt>
      <trkpt lat="47.83941" lon="6.82976">
        <ele>831.8</ele>
        <time>2025-08-06T15:11:29Z</time>
      </trkpt>
      <trkpt lat="47.83938" lon="6.82968">
        <ele>832.2</ele>
        <time>2025-08-06T15:11:31Z</time>
      </trkpt>
      <trkpt lat="47.83931" lon="6.82958">
        <ele>832.8</ele>
        <time>2025-08-06T15:11:35Z</time>
      </trkpt>
      <trkpt lat="47.83926" lon="6.82944">
        <ele>833.6</ele>
        <time>2025-08-06T15:11:39Z</time>
      </trkpt>
      <trkpt lat="47.83924" lon="6.82941">
        <ele>833.8</ele>
        <time>2025-08-06T15:11:40Z</time>
      </trkpt>
      <trkpt lat="47.83915" lon="6.82925">
        <ele>835</ele>
        <time>2025-08-06T15:11:45Z</time>
      </trkpt>
      <trkpt lat="47.83913" lon="6.82921">
        <ele>835.2</ele>
        <time>2025-08-06T15:11:46Z</time>
      </trkpt>
      <trkpt lat="47.83906" lon="6.82907">
        <ele>836</ele>
        <time>2025-08-06T15:11:50Z</time>
      </trkpt>
      <trkpt lat="47.839" lon="6.82899">
        <ele>836.8</ele>
        <time>2025-08-06T15:11:53Z</time>
      </trkpt>
      <trkpt lat="47.83897" lon="6.82896">
        <ele>837</ele>
        <time>2025-08-06T15:11:54Z</time>
      </trkpt>
      <trkpt lat="47.83885" lon="6.82877">
        <ele>838.2</ele>
        <time>2025-08-06T15:12:00Z</time>
      </trkpt>
      <trkpt lat="47.83874" lon="6.82859">
        <ele>839.2</ele>
        <time>2025-08-06T15:12:05Z</time>
      </trkpt>
      <trkpt lat="47.83872" lon="6.82856">
        <ele>839.4</ele>
        <time>2025-08-06T15:12:06Z</time>
      </trkpt>
      <trkpt lat="47.83863" lon="6.82839">
        <ele>840.6</ele>
        <time>2025-08-06T15:12:11Z</time>
      </trkpt>
      <trkpt lat="47.83857" lon="6.82833">
        <ele>841</ele>
        <time>2025-08-06T15:12:13Z</time>
      </trkpt>
      <trkpt lat="47.83851" lon="6.82824">
        <ele>841.4</ele>
        <time>2025-08-06T15:12:16Z</time>
      </trkpt>
      <trkpt lat="47.83848" lon="6.82821">
        <ele>841.6</ele>
        <time>2025-08-06T15:12:17Z</time>
      </trkpt>
      <trkpt lat="47.83841" lon="6.8281">
        <ele>842.8</ele>
        <time>2025-08-06T15:12:21Z</time>
      </trkpt>
      <trkpt lat="47.8383" lon="6.82794">
        <ele>843.8</ele>
        <time>2025-08-06T15:12:26Z</time>
      </trkpt>
      <trkpt lat="47.83825" lon="6.82787">
        <ele>844.4</ele>
        <time>2025-08-06T15:12:28Z</time>
      </trkpt>
      <trkpt lat="47.83822" lon="6.82782">
        <ele>845</ele>
        <time>2025-08-06T15:12:30Z</time>
      </trkpt>
      <trkpt lat="47.83815" lon="6.82771">
        <ele>845.8</ele>
        <time>2025-08-06T15:12:33Z</time>
      </trkpt>
      <trkpt lat="47.83811" lon="6.82765">
        <ele>846.2</ele>
        <time>2025-08-06T15:12:35Z</time>
      </trkpt>
      <trkpt lat="47.838" lon="6.82751">
        <ele>847</ele>
        <time>2025-08-06T15:12:40Z</time>
      </trkpt>
      <trkpt lat="47.83788" lon="6.82738">
        <ele>848.2</ele>
        <time>2025-08-06T15:12:45Z</time>
      </trkpt>
      <trkpt lat="47.83784" lon="6.82732">
        <ele>848.6</ele>
        <time>2025-08-06T15:12:47Z</time>
      </trkpt>
      <trkpt lat="47.83781" lon="6.82725">
        <ele>849.2</ele>
        <time>2025-08-06T15:12:49Z</time>
      </trkpt>
      <trkpt lat="47.83772" lon="6.82706">
        <ele>850.2</ele>
        <time>2025-08-06T15:12:54Z</time>
      </trkpt>
      <trkpt lat="47.83769" lon="6.82699">
        <ele>850.8</ele>
        <time>2025-08-06T15:12:56Z</time>
      </trkpt>
      <trkpt lat="47.83762" lon="6.8269">
        <ele>851.6</ele>
        <time>2025-08-06T15:12:59Z</time>
      </trkpt>
      <trkpt lat="47.83753" lon="6.82675">
        <ele>852.6</ele>
        <time>2025-08-06T15:13:04Z</time>
      </trkpt>
      <trkpt lat="47.8375" lon="6.82672">
        <ele>852.8</ele>
        <time>2025-08-06T15:13:05Z</time>
      </trkpt>
      <trkpt lat="47.83741" lon="6.82663">
        <ele>853.8</ele>
        <time>2025-08-06T15:13:09Z</time>
      </trkpt>
      <trkpt lat="47.83732" lon="6.82657">
        <ele>854.8</ele>
        <time>2025-08-06T15:13:13Z</time>
      </trkpt>
      <trkpt lat="47.83719" lon="6.82648">
        <ele>856</ele>
        <time>2025-08-06T15:13:18Z</time>
      </trkpt>
      <trkpt lat="47.83709" lon="6.82643">
        <ele>856.6</ele>
        <time>2025-08-06T15:13:22Z</time>
      </trkpt>
      <trkpt lat="47.83703" lon="6.82639">
        <ele>857</ele>
        <time>2025-08-06T15:13:24Z</time>
      </trkpt>
      <trkpt lat="47.83685" lon="6.82633">
        <ele>858.2</ele>
        <time>2025-08-06T15:13:30Z</time>
      </trkpt>
      <trkpt lat="47.83668" lon="6.82632">
        <ele>859.4</ele>
        <time>2025-08-06T15:13:35Z</time>
      </trkpt>
      <trkpt lat="47.83663" lon="6.82633">
        <ele>859.6</ele>
        <time>2025-08-06T15:13:37Z</time>
      </trkpt>
      <trkpt lat="47.83651" lon="6.82636">
        <ele>860.2</ele>
        <time>2025-08-06T15:13:41Z</time>
      </trkpt>
      <trkpt lat="47.83639" lon="6.8264">
        <ele>860.8</ele>
        <time>2025-08-06T15:13:45Z</time>
      </trkpt>
      <trkpt lat="47.83627" lon="6.82644">
        <ele>861.4</ele>
        <time>2025-08-06T15:13:49Z</time>
      </trkpt>
      <trkpt lat="47.83609" lon="6.82652">
        <ele>862.4</ele>
        <time>2025-08-06T15:13:55Z</time>
      </trkpt>
      <trkpt lat="47.83598" lon="6.82658">
        <ele>863.6</ele>
        <time>2025-08-06T15:13:59Z</time>
      </trkpt>
      <trkpt lat="47.83593" lon="6.82666">
        <ele>863.6</ele>
        <time>2025-08-06T15:14:01Z</time>
      </trkpt>
      <trkpt lat="47.83593" lon="6.82684">
        <ele>864.4</ele>
        <time>2025-08-06T15:14:05Z</time>
      </trkpt>
      <trkpt lat="47.83602" lon="6.82692">
        <ele>865</ele>
        <time>2025-08-06T15:14:08Z</time>
      </trkpt>
      <trkpt lat="47.83604" lon="6.82692">
        <ele>865</ele>
        <time>2025-08-06T15:14:09Z</time>
      </trkpt>
      <trkpt lat="47.83611" lon="6.82689">
        <ele>865.6</ele>
        <time>2025-08-06T15:14:11Z</time>
      </trkpt>
      <trkpt lat="47.83618" lon="6.82684">
        <ele>865.8</ele>
        <time>2025-08-06T15:14:13Z</time>
      </trkpt>
      <trkpt lat="47.83641" lon="6.8267">
        <ele>866.4</ele>
        <time>2025-08-06T15:14:20Z</time>
      </trkpt>
      <trkpt lat="47.83652" lon="6.82671">
        <ele>866.6</ele>
        <time>2025-08-06T15:14:23Z</time>
      </trkpt>
      <trkpt lat="47.8366" lon="6.82673">
        <ele>866.8</ele>
        <time>2025-08-06T15:14:26Z</time>
      </trkpt>
      <trkpt lat="47.83671" lon="6.82684">
        <ele>867.8</ele>
        <time>2025-08-06T15:14:30Z</time>
      </trkpt>
      <trkpt lat="47.83673" lon="6.82687">
        <ele>867.8</ele>
        <time>2025-08-06T15:14:31Z</time>
      </trkpt>
      <trkpt lat="47.8368" lon="6.82696">
        <ele>869</ele>
        <time>2025-08-06T15:14:34Z</time>
      </trkpt>
      <trkpt lat="47.8369" lon="6.82713">
        <ele>870.2</ele>
        <time>2025-08-06T15:14:39Z</time>
      </trkpt>
      <trkpt lat="47.83697" lon="6.82729">
        <ele>871.4</ele>
        <time>2025-08-06T15:14:44Z</time>
      </trkpt>
      <trkpt lat="47.83699" lon="6.82732">
        <ele>871.4</ele>
        <time>2025-08-06T15:14:45Z</time>
      </trkpt>
      <trkpt lat="47.83704" lon="6.82746">
        <ele>872.6</ele>
        <time>2025-08-06T15:14:49Z</time>
      </trkpt>
      <trkpt lat="47.83714" lon="6.82767">
        <ele>873.6</ele>
        <time>2025-08-06T15:14:55Z</time>
      </trkpt>
      <trkpt lat="47.83716" lon="6.82771">
        <ele>873.8</ele>
        <time>2025-08-06T15:14:56Z</time>
      </trkpt>
      <trkpt lat="47.83722" lon="6.82785">
        <ele>874.8</ele>
        <time>2025-08-06T15:15:00Z</time>
      </trkpt>
      <trkpt lat="47.83727" lon="6.82801">
        <ele>875.4</ele>
        <time>2025-08-06T15:15:04Z</time>
      </trkpt>
      <trkpt lat="47.83731" lon="6.82812">
        <ele>875.8</ele>
        <time>2025-08-06T15:15:07Z</time>
      </trkpt>
      <trkpt lat="47.83733" lon="6.82823">
        <ele>876.6</ele>
        <time>2025-08-06T15:15:10Z</time>
      </trkpt>
      <trkpt lat="47.83735" lon="6.8283">
        <ele>877</ele>
        <time>2025-08-06T15:15:12Z</time>
      </trkpt>
      <trkpt lat="47.83741" lon="6.82848">
        <ele>878.2</ele>
        <time>2025-08-06T15:15:17Z</time>
      </trkpt>
      <trkpt lat="47.83742" lon="6.82851">
        <ele>878.2</ele>
        <time>2025-08-06T15:15:18Z</time>
      </trkpt>
      <trkpt lat="47.83748" lon="6.82865">
        <ele>879.2</ele>
        <time>2025-08-06T15:15:22Z</time>
      </trkpt>
      <trkpt lat="47.83749" lon="6.82869">
        <ele>879.4</ele>
        <time>2025-08-06T15:15:23Z</time>
      </trkpt>
      <trkpt lat="47.83754" lon="6.82885">
        <ele>880.4</ele>
        <time>2025-08-06T15:15:27Z</time>
      </trkpt>
      <trkpt lat="47.83759" lon="6.82895">
        <ele>881.2</ele>
        <time>2025-08-06T15:15:30Z</time>
      </trkpt>
      <trkpt lat="47.83761" lon="6.82898">
        <ele>881.4</ele>
        <time>2025-08-06T15:15:31Z</time>
      </trkpt>
      <trkpt lat="47.83772" lon="6.8292">
        <ele>882.2</ele>
        <time>2025-08-06T15:15:36Z</time>
      </trkpt>
      <trkpt lat="47.83773" lon="6.82925">
        <ele>882.4</ele>
        <time>2025-08-06T15:15:37Z</time>
      </trkpt>
      <trkpt lat="47.83781" lon="6.82945">
        <ele>883.6</ele>
        <time>2025-08-06T15:15:42Z</time>
      </trkpt>
      <trkpt lat="47.83784" lon="6.82957">
        <ele>884.4</ele>
        <time>2025-08-06T15:15:45Z</time>
      </trkpt>
      <trkpt lat="47.83789" lon="6.82964">
        <ele>884.8</ele>
        <time>2025-08-06T15:15:47Z</time>
      </trkpt>
      <trkpt lat="47.8379" lon="6.82979">
        <ele>886</ele>
        <time>2025-08-06T15:15:51Z</time>
      </trkpt>
      <trkpt lat="47.83792" lon="6.82989">
        <ele>887</ele>
        <time>2025-08-06T15:15:54Z</time>
      </trkpt>
      <trkpt lat="47.83793" lon="6.83">
        <ele>887.8</ele>
        <time>2025-08-06T15:15:57Z</time>
      </trkpt>
      <trkpt lat="47.83795" lon="6.83012">
        <ele>888.2</ele>
        <time>2025-08-06T15:16:00Z</time>
      </trkpt>
      <trkpt lat="47.83795" lon="6.83021">
        <ele>888.4</ele>
        <time>2025-08-06T15:16:02Z</time>
      </trkpt>
      <trkpt lat="47.83795" lon="6.83036">
        <ele>889</ele>
        <time>2025-08-06T15:16:06Z</time>
      </trkpt>
      <trkpt lat="47.83796" lon="6.83044">
        <ele>889.4</ele>
        <time>2025-08-06T15:16:08Z</time>
      </trkpt>
      <trkpt lat="47.838" lon="6.83056">
        <ele>890.4</ele>
        <time>2025-08-06T15:16:11Z</time>
      </trkpt>
      <trkpt lat="47.83803" lon="6.83068">
        <ele>891.4</ele>
        <time>2025-08-06T15:16:14Z</time>
      </trkpt>
      <trkpt lat="47.83805" lon="6.83072">
        <ele>891.4</ele>
        <time>2025-08-06T15:16:15Z</time>
      </trkpt>
      <trkpt lat="47.83807" lon="6.83087">
        <ele>892.4</ele>
        <time>2025-08-06T15:16:19Z</time>
      </trkpt>
      <trkpt lat="47.83808" lon="6.83091">
        <ele>892.6</ele>
        <time>2025-08-06T15:16:20Z</time>
      </trkpt>
      <trkpt lat="47.83811" lon="6.83114">
        <ele>893.6</ele>
        <time>2025-08-06T15:16:25Z</time>
      </trkpt>
      <trkpt lat="47.83818" lon="6.83137">
        <ele>894.8</ele>
        <time>2025-08-06T15:16:31Z</time>
      </trkpt>
      <trkpt lat="47.8382" lon="6.83149">
        <ele>895.2</ele>
        <time>2025-08-06T15:16:34Z</time>
      </trkpt>
      <trkpt lat="47.83822" lon="6.83161">
        <ele>895.8</ele>
        <time>2025-08-06T15:16:37Z</time>
      </trkpt>
      <trkpt lat="47.83824" lon="6.83174">
        <ele>896.4</ele>
        <time>2025-08-06T15:16:40Z</time>
      </trkpt>
      <trkpt lat="47.83825" lon="6.83182">
        <ele>897</ele>
        <time>2025-08-06T15:16:42Z</time>
      </trkpt>
      <trkpt lat="47.83827" lon="6.83203">
        <ele>898</ele>
        <time>2025-08-06T15:16:47Z</time>
      </trkpt>
      <trkpt lat="47.83828" lon="6.83207">
        <ele>898.2</ele>
        <time>2025-08-06T15:16:48Z</time>
      </trkpt>
      <trkpt lat="47.83829" lon="6.8322">
        <ele>899.2</ele>
        <time>2025-08-06T15:16:51Z</time>
      </trkpt>
      <trkpt lat="47.83831" lon="6.83239">
        <ele>900.2</ele>
        <time>2025-08-06T15:16:56Z</time>
      </trkpt>
      <trkpt lat="47.83834" lon="6.83259">
        <ele>901.4</ele>
        <time>2025-08-06T15:17:01Z</time>
      </trkpt>
      <trkpt lat="47.83835" lon="6.83266">
        <ele>902</ele>
        <time>2025-08-06T15:17:03Z</time>
      </trkpt>
      <trkpt lat="47.83838" lon="6.83282">
        <ele>902.6</ele>
        <time>2025-08-06T15:17:07Z</time>
      </trkpt>
      <trkpt lat="47.83839" lon="6.83291">
        <ele>903.2</ele>
        <time>2025-08-06T15:17:09Z</time>
      </trkpt>
      <trkpt lat="47.83839" lon="6.83294">
        <ele>903.4</ele>
        <time>2025-08-06T15:17:10Z</time>
      </trkpt>
      <trkpt lat="47.8384" lon="6.83304">
        <ele>903.6</ele>
        <time>2025-08-06T15:17:12Z</time>
      </trkpt>
      <trkpt lat="47.83842" lon="6.83325">
        <ele>904.6</ele>
        <time>2025-08-06T15:17:17Z</time>
      </trkpt>
      <trkpt lat="47.83842" lon="6.83329">
        <ele>905</ele>
        <time>2025-08-06T15:17:18Z</time>
      </trkpt>
      <trkpt lat="47.83844" lon="6.8335">
        <ele>906.2</ele>
        <time>2025-08-06T15:17:23Z</time>
      </trkpt>
      <trkpt lat="47.83846" lon="6.83372">
        <ele>907.2</ele>
        <time>2025-08-06T15:17:28Z</time>
      </trkpt>
      <trkpt lat="47.83847" lon="6.83376">
        <ele>907.4</ele>
        <time>2025-08-06T15:17:29Z</time>
      </trkpt>
      <trkpt lat="47.83848" lon="6.83397">
        <ele>908.4</ele>
        <time>2025-08-06T15:17:34Z</time>
      </trkpt>
      <trkpt lat="47.83847" lon="6.83401">
        <ele>908.8</ele>
        <time>2025-08-06T15:17:35Z</time>
      </trkpt>
      <trkpt lat="47.83846" lon="6.83416">
        <ele>909.6</ele>
        <time>2025-08-06T15:17:39Z</time>
      </trkpt>
      <trkpt lat="47.83846" lon="6.83424">
        <ele>910</ele>
        <time>2025-08-06T15:17:41Z</time>
      </trkpt>
      <trkpt lat="47.83848" lon="6.83435">
        <ele>910.8</ele>
        <time>2025-08-06T15:17:44Z</time>
      </trkpt>
      <trkpt lat="47.83851" lon="6.83447">
        <ele>911.4</ele>
        <time>2025-08-06T15:17:47Z</time>
      </trkpt>
      <trkpt lat="47.83853" lon="6.83455">
        <ele>911.8</ele>
        <time>2025-08-06T15:17:49Z</time>
      </trkpt>
      <trkpt lat="47.83855" lon="6.83475">
        <ele>912.8</ele>
        <time>2025-08-06T15:17:54Z</time>
      </trkpt>
      <trkpt lat="47.83856" lon="6.83479">
        <ele>913</ele>
        <time>2025-08-06T15:17:55Z</time>
      </trkpt>
      <trkpt lat="47.83855" lon="6.83496">
        <ele>913.6</ele>
        <time>2025-08-06T15:17:59Z</time>
      </trkpt>
      <trkpt lat="47.83852" lon="6.835">
        <ele>913.8</ele>
        <time>2025-08-06T15:18:00Z</time>
      </trkpt>
      <trkpt lat="47.83849" lon="6.83502">
        <ele>914.2</ele>
        <time>2025-08-06T15:18:01Z</time>
      </trkpt>
      <trkpt lat="47.83846" lon="6.83502">
        <ele>914.2</ele>
        <time>2025-08-06T15:18:02Z</time>
      </trkpt>
      <trkpt lat="47.83843" lon="6.83501">
        <ele>914.6</ele>
        <time>2025-08-06T15:18:03Z</time>
      </trkpt>
      <trkpt lat="47.83835" lon="6.83492">
        <ele>915.2</ele>
        <time>2025-08-06T15:18:06Z</time>
      </trkpt>
      <trkpt lat="47.83834" lon="6.83489">
        <ele>915.4</ele>
        <time>2025-08-06T15:18:07Z</time>
      </trkpt>
      <trkpt lat="47.83828" lon="6.83472">
        <ele>916.4</ele>
        <time>2025-08-06T15:18:11Z</time>
      </trkpt>
      <trkpt lat="47.83827" lon="6.83465">
        <ele>917</ele>
        <time>2025-08-06T15:18:13Z</time>
      </trkpt>
      <trkpt lat="47.83825" lon="6.83456">
        <ele>917.4</ele>
        <time>2025-08-06T15:18:15Z</time>
      </trkpt>
      <trkpt lat="47.8382" lon="6.83441">
        <ele>918.4</ele>
        <time>2025-08-06T15:18:19Z</time>
      </trkpt>
      <trkpt lat="47.83817" lon="6.83435">
        <ele>918.8</ele>
        <time>2025-08-06T15:18:21Z</time>
      </trkpt>
      <trkpt lat="47.83811" lon="6.83422">
        <ele>919.8</ele>
        <time>2025-08-06T15:18:25Z</time>
      </trkpt>
      <trkpt lat="47.83807" lon="6.83412">
        <ele>920.4</ele>
        <time>2025-08-06T15:18:28Z</time>
      </trkpt>
      <trkpt lat="47.83803" lon="6.83402">
        <ele>921</ele>
        <time>2025-08-06T15:18:31Z</time>
      </trkpt>
      <trkpt lat="47.83801" lon="6.83395">
        <ele>921.6</ele>
        <time>2025-08-06T15:18:33Z</time>
      </trkpt>
      <trkpt lat="47.83797" lon="6.83384">
        <ele>922.2</ele>
        <time>2025-08-06T15:18:36Z</time>
      </trkpt>
      <trkpt lat="47.83792" lon="6.83373">
        <ele>923</ele>
        <time>2025-08-06T15:18:39Z</time>
      </trkpt>
      <trkpt lat="47.83791" lon="6.8337">
        <ele>923.2</ele>
        <time>2025-08-06T15:18:40Z</time>
      </trkpt>
      <trkpt lat="47.83785" lon="6.8336">
        <ele>924.2</ele>
        <time>2025-08-06T15:18:44Z</time>
      </trkpt>
      <trkpt lat="47.8378" lon="6.83353">
        <ele>924.4</ele>
        <time>2025-08-06T15:18:46Z</time>
      </trkpt>
      <trkpt lat="47.8377" lon="6.83339">
        <ele>925.2</ele>
        <time>2025-08-06T15:18:50Z</time>
      </trkpt>
      <trkpt lat="47.83765" lon="6.83333">
        <ele>925.6</ele>
        <time>2025-08-06T15:18:52Z</time>
      </trkpt>
      <trkpt lat="47.83758" lon="6.83326">
        <ele>926.4</ele>
        <time>2025-08-06T15:18:55Z</time>
      </trkpt>
      <trkpt lat="47.83751" lon="6.83317">
        <ele>927.2</ele>
        <time>2025-08-06T15:18:58Z</time>
      </trkpt>
      <trkpt lat="47.83748" lon="6.83314">
        <ele>927.4</ele>
        <time>2025-08-06T15:18:59Z</time>
      </trkpt>
      <trkpt lat="47.83738" lon="6.833">
        <ele>928.4</ele>
        <time>2025-08-06T15:19:04Z</time>
      </trkpt>
      <trkpt lat="47.83737" lon="6.83297">
        <ele>928.6</ele>
        <time>2025-08-06T15:19:05Z</time>
      </trkpt>
      <trkpt lat="47.83735" lon="6.83284">
        <ele>929.6</ele>
        <time>2025-08-06T15:19:09Z</time>
      </trkpt>
      <trkpt lat="47.83733" lon="6.83274">
        <ele>930</ele>
        <time>2025-08-06T15:19:11Z</time>
      </trkpt>
      <trkpt lat="47.83736" lon="6.83261">
        <ele>930.6</ele>
        <time>2025-08-06T15:19:14Z</time>
      </trkpt>
      <trkpt lat="47.83732" lon="6.8325">
        <ele>931</ele>
        <time>2025-08-06T15:19:16Z</time>
      </trkpt>
      <trkpt lat="47.83729" lon="6.83232">
        <ele>931.6</ele>
        <time>2025-08-06T15:19:20Z</time>
      </trkpt>
      <trkpt lat="47.83727" lon="6.83224">
        <ele>932</ele>
        <time>2025-08-06T15:19:22Z</time>
      </trkpt>
      <trkpt lat="47.83726" lon="6.83216">
        <ele>932.6</ele>
        <time>2025-08-06T15:19:24Z</time>
      </trkpt>
      <trkpt lat="47.83723" lon="6.83194">
        <ele>933.8</ele>
        <time>2025-08-06T15:19:29Z</time>
      </trkpt>
      <trkpt lat="47.83722" lon="6.8319">
        <ele>933.8</ele>
        <time>2025-08-06T15:19:30Z</time>
      </trkpt>
      <trkpt lat="47.83715" lon="6.83172">
        <ele>934.8</ele>
        <time>2025-08-06T15:19:35Z</time>
      </trkpt>
      <trkpt lat="47.83708" lon="6.83158">
        <ele>936</ele>
        <time>2025-08-06T15:19:39Z</time>
      </trkpt>
      <trkpt lat="47.837" lon="6.83146">
        <ele>937</ele>
        <time>2025-08-06T15:19:43Z</time>
      </trkpt>
      <trkpt lat="47.83695" lon="6.83141">
        <ele>937.6</ele>
        <time>2025-08-06T15:19:45Z</time>
      </trkpt>
      <trkpt lat="47.83688" lon="6.83135">
        <ele>938.2</ele>
        <time>2025-08-06T15:19:48Z</time>
      </trkpt>
      <trkpt lat="47.83678" lon="6.83128">
        <ele>939</ele>
        <time>2025-08-06T15:19:52Z</time>
      </trkpt>
      <trkpt lat="47.83673" lon="6.83126">
        <ele>939.4</ele>
        <time>2025-08-06T15:19:54Z</time>
      </trkpt>
      <trkpt lat="47.8366" lon="6.83122">
        <ele>940.4</ele>
        <time>2025-08-06T15:19:59Z</time>
      </trkpt>
      <trkpt lat="47.83657" lon="6.83122">
        <ele>940.8</ele>
        <time>2025-08-06T15:20:00Z</time>
      </trkpt>
      <trkpt lat="47.83645" lon="6.83122">
        <ele>941.4</ele>
        <time>2025-08-06T15:20:04Z</time>
      </trkpt>
      <trkpt lat="47.83631" lon="6.83127">
        <ele>942.6</ele>
        <time>2025-08-06T15:20:09Z</time>
      </trkpt>
      <trkpt lat="47.83619" lon="6.83135">
        <ele>943.6</ele>
        <time>2025-08-06T15:20:14Z</time>
      </trkpt>
      <trkpt lat="47.83613" lon="6.83142">
        <ele>944.4</ele>
        <time>2025-08-06T15:20:17Z</time>
      </trkpt>
      <trkpt lat="47.83611" lon="6.83144">
        <ele>944.6</ele>
        <time>2025-08-06T15:20:18Z</time>
      </trkpt>
      <trkpt lat="47.83601" lon="6.83152">
        <ele>945.6</ele>
        <time>2025-08-06T15:20:22Z</time>
      </trkpt>
      <trkpt lat="47.83599" lon="6.83154">
        <ele>945.8</ele>
        <time>2025-08-06T15:20:23Z</time>
      </trkpt>
      <trkpt lat="47.83591" lon="6.83164">
        <ele>946.6</ele>
        <time>2025-08-06T15:20:27Z</time>
      </trkpt>
      <trkpt lat="47.83589" lon="6.83172">
        <ele>947.2</ele>
        <time>2025-08-06T15:20:29Z</time>
      </trkpt>
      <trkpt lat="47.83589" lon="6.8318">
        <ele>947.8</ele>
        <time>2025-08-06T15:20:31Z</time>
      </trkpt>
      <trkpt lat="47.8359" lon="6.83184">
        <ele>948</ele>
        <time>2025-08-06T15:20:32Z</time>
      </trkpt>
      <trkpt lat="47.83592" lon="6.83187">
        <ele>948.4</ele>
        <time>2025-08-06T15:20:33Z</time>
      </trkpt>
      <trkpt lat="47.83594" lon="6.83189">
        <ele>948.6</ele>
        <time>2025-08-06T15:20:34Z</time>
      </trkpt>
      <trkpt lat="47.83597" lon="6.83191">
        <ele>949</ele>
        <time>2025-08-06T15:20:35Z</time>
      </trkpt>
      <trkpt lat="47.83602" lon="6.8319">
        <ele>949.2</ele>
        <time>2025-08-06T15:20:37Z</time>
      </trkpt>
      <trkpt lat="47.83613" lon="6.83187">
        <ele>950.2</ele>
        <time>2025-08-06T15:20:41Z</time>
      </trkpt>
      <trkpt lat="47.83621" lon="6.83186">
        <ele>950.6</ele>
        <time>2025-08-06T15:20:44Z</time>
      </trkpt>
      <trkpt lat="47.83629" lon="6.8319">
        <ele>951.4</ele>
        <time>2025-08-06T15:20:47Z</time>
      </trkpt>
      <trkpt lat="47.83634" lon="6.83195">
        <ele>952</ele>
        <time>2025-08-06T15:20:50Z</time>
      </trkpt>
      <trkpt lat="47.83638" lon="6.83199">
        <ele>952.4</ele>
        <time>2025-08-06T15:20:52Z</time>
      </trkpt>
      <trkpt lat="47.83644" lon="6.83212">
        <ele>953</ele>
        <time>2025-08-06T15:20:56Z</time>
      </trkpt>
      <trkpt lat="47.83645" lon="6.83216">
        <ele>953.4</ele>
        <time>2025-08-06T15:20:57Z</time>
      </trkpt>
      <trkpt lat="47.83649" lon="6.83234">
        <ele>954.4</ele>
        <time>2025-08-06T15:21:01Z</time>
      </trkpt>
      <trkpt lat="47.83649" lon="6.83238">
        <ele>954.8</ele>
        <time>2025-08-06T15:21:02Z</time>
      </trkpt>
      <trkpt lat="47.83652" lon="6.83259">
        <ele>955.6</ele>
        <time>2025-08-06T15:21:07Z</time>
      </trkpt>
      <trkpt lat="47.83652" lon="6.83263">
        <ele>955.8</ele>
        <time>2025-08-06T15:21:08Z</time>
      </trkpt>
      <trkpt lat="47.83654" lon="6.8328">
        <ele>957</ele>
        <time>2025-08-06T15:21:12Z</time>
      </trkpt>
      <trkpt lat="47.83654" lon="6.83296">
        <ele>957.6</ele>
        <time>2025-08-06T15:21:16Z</time>
      </trkpt>
      <trkpt lat="47.83655" lon="6.833">
        <ele>957.8</ele>
        <time>2025-08-06T15:21:17Z</time>
      </trkpt>
      <trkpt lat="47.83655" lon="6.8332">
        <ele>958.8</ele>
        <time>2025-08-06T15:21:22Z</time>
      </trkpt>
      <trkpt lat="47.83656" lon="6.83324">
        <ele>959</ele>
        <time>2025-08-06T15:21:23Z</time>
      </trkpt>
      <trkpt lat="47.83657" lon="6.83344">
        <ele>960</ele>
        <time>2025-08-06T15:21:28Z</time>
      </trkpt>
      <trkpt lat="47.83657" lon="6.83351">
        <ele>960.4</ele>
        <time>2025-08-06T15:21:30Z</time>
      </trkpt>
      <trkpt lat="47.83657" lon="6.83358">
        <ele>960.8</ele>
        <time>2025-08-06T15:21:32Z</time>
      </trkpt>
      <trkpt lat="47.83657" lon="6.83362">
        <ele>961</ele>
        <time>2025-08-06T15:21:33Z</time>
      </trkpt>
      <trkpt lat="47.83658" lon="6.83366">
        <ele>961</ele>
        <time>2025-08-06T15:21:34Z</time>
      </trkpt>
      <trkpt lat="47.83661" lon="6.83388">
        <ele>962.2</ele>
        <time>2025-08-06T15:21:40Z</time>
      </trkpt>
      <trkpt lat="47.83662" lon="6.83396">
        <ele>962.8</ele>
        <time>2025-08-06T15:21:42Z</time>
      </trkpt>
      <trkpt lat="47.83662" lon="6.83404">
        <ele>963.2</ele>
        <time>2025-08-06T15:21:44Z</time>
      </trkpt>
      <trkpt lat="47.83663" lon="6.83408">
        <ele>963.4</ele>
        <time>2025-08-06T15:21:45Z</time>
      </trkpt>
      <trkpt lat="47.83663" lon="6.83426">
        <ele>964.6</ele>
        <time>2025-08-06T15:21:50Z</time>
      </trkpt>
      <trkpt lat="47.83663" lon="6.83429">
        <ele>964.6</ele>
        <time>2025-08-06T15:21:51Z</time>
      </trkpt>
      <trkpt lat="47.83662" lon="6.83444">
        <ele>965.8</ele>
        <time>2025-08-06T15:21:55Z</time>
      </trkpt>
      <trkpt lat="47.83659" lon="6.8345">
        <ele>966.4</ele>
        <time>2025-08-06T15:21:57Z</time>
      </trkpt>
      <trkpt lat="47.83657" lon="6.83453">
        <ele>966.4</ele>
        <time>2025-08-06T15:21:58Z</time>
      </trkpt>
      <trkpt lat="47.83654" lon="6.83454">
        <ele>966.8</ele>
        <time>2025-08-06T15:21:59Z</time>
      </trkpt>
      <trkpt lat="47.8365" lon="6.83453">
        <ele>967.6</ele>
        <time>2025-08-06T15:22:01Z</time>
      </trkpt>
      <trkpt lat="47.83648" lon="6.83451">
        <ele>968</ele>
        <time>2025-08-06T15:22:02Z</time>
      </trkpt>
      <trkpt lat="47.83645" lon="6.83441">
        <ele>968.8</ele>
        <time>2025-08-06T15:22:05Z</time>
      </trkpt>
      <trkpt lat="47.83645" lon="6.83437">
        <ele>969.2</ele>
        <time>2025-08-06T15:22:06Z</time>
      </trkpt>
      <trkpt lat="47.83642" lon="6.83416">
        <ele>970.4</ele>
        <time>2025-08-06T15:22:11Z</time>
      </trkpt>
      <trkpt lat="47.83635" lon="6.83397">
        <ele>971.6</ele>
        <time>2025-08-06T15:22:16Z</time>
      </trkpt>
      <trkpt lat="47.83633" lon="6.83393">
        <ele>971.8</ele>
        <time>2025-08-06T15:22:17Z</time>
      </trkpt>
      <trkpt lat="47.83625" lon="6.83375">
        <ele>972.6</ele>
        <time>2025-08-06T15:22:22Z</time>
      </trkpt>
      <trkpt lat="47.83619" lon="6.83361">
        <ele>973.8</ele>
        <time>2025-08-06T15:22:26Z</time>
      </trkpt>
      <trkpt lat="47.83613" lon="6.83352">
        <ele>974.4</ele>
        <time>2025-08-06T15:22:29Z</time>
      </trkpt>
      <trkpt lat="47.83608" lon="6.83344">
        <ele>974.8</ele>
        <time>2025-08-06T15:22:32Z</time>
      </trkpt>
      <trkpt lat="47.83602" lon="6.83335">
        <ele>975.4</ele>
        <time>2025-08-06T15:22:35Z</time>
      </trkpt>
      <trkpt lat="47.83598" lon="6.83331">
        <ele>976</ele>
        <time>2025-08-06T15:22:37Z</time>
      </trkpt>
      <trkpt lat="47.83583" lon="6.8332">
        <ele>977.2</ele>
        <time>2025-08-06T15:22:43Z</time>
      </trkpt>
      <trkpt lat="47.83566" lon="6.83314">
        <ele>978.4</ele>
        <time>2025-08-06T15:22:49Z</time>
      </trkpt>
      <trkpt lat="47.83561" lon="6.83313">
        <ele>979</ele>
        <time>2025-08-06T15:22:51Z</time>
      </trkpt>
      <trkpt lat="47.83547" lon="6.83307">
        <ele>979.6</ele>
        <time>2025-08-06T15:22:56Z</time>
      </trkpt>
      <trkpt lat="47.83539" lon="6.83304">
        <ele>980.2</ele>
        <time>2025-08-06T15:22:59Z</time>
      </trkpt>
      <trkpt lat="47.83533" lon="6.83301">
        <ele>980.8</ele>
        <time>2025-08-06T15:23:01Z</time>
      </trkpt>
      <trkpt lat="47.83521" lon="6.83294">
        <ele>982</ele>
        <time>2025-08-06T15:23:06Z</time>
      </trkpt>
      <trkpt lat="47.83504" lon="6.83287">
        <ele>983</ele>
        <time>2025-08-06T15:23:12Z</time>
      </trkpt>
      <trkpt lat="47.83491" lon="6.83282">
        <ele>984</ele>
        <time>2025-08-06T15:23:17Z</time>
      </trkpt>
      <trkpt lat="47.8348" lon="6.83279">
        <ele>985.2</ele>
        <time>2025-08-06T15:23:21Z</time>
      </trkpt>
      <trkpt lat="47.83461" lon="6.83277">
        <ele>986.4</ele>
        <time>2025-08-06T15:23:28Z</time>
      </trkpt>
      <trkpt lat="47.83457" lon="6.83276">
        <ele>986.6</ele>
        <time>2025-08-06T15:23:29Z</time>
      </trkpt>
      <trkpt lat="47.83446" lon="6.83276">
        <ele>987.4</ele>
        <time>2025-08-06T15:23:33Z</time>
      </trkpt>
      <trkpt lat="47.83433" lon="6.83273">
        <ele>988.6</ele>
        <time>2025-08-06T15:23:38Z</time>
      </trkpt>
      <trkpt lat="47.8342" lon="6.8327">
        <ele>989.8</ele>
        <time>2025-08-06T15:23:44Z</time>
      </trkpt>
      <trkpt lat="47.83413" lon="6.8327">
        <ele>990.6</ele>
        <time>2025-08-06T15:23:47Z</time>
      </trkpt>
      <trkpt lat="47.83407" lon="6.83268">
        <ele>991</ele>
        <time>2025-08-06T15:23:49Z</time>
      </trkpt>
      <trkpt lat="47.83392" lon="6.83257">
        <ele>992</ele>
        <time>2025-08-06T15:23:55Z</time>
      </trkpt>
      <trkpt lat="47.83389" lon="6.83254">
        <ele>992.4</ele>
        <time>2025-08-06T15:23:56Z</time>
      </trkpt>
      <trkpt lat="47.83374" lon="6.83244">
        <ele>993.2</ele>
        <time>2025-08-06T15:24:01Z</time>
      </trkpt>
      <trkpt lat="47.83372" lon="6.83243">
        <ele>993.4</ele>
        <time>2025-08-06T15:24:02Z</time>
      </trkpt>
      <trkpt lat="47.83362" lon="6.83234">
        <ele>994.6</ele>
        <time>2025-08-06T15:24:07Z</time>
      </trkpt>
      <trkpt lat="47.83351" lon="6.83228">
        <ele>995.6</ele>
        <time>2025-08-06T15:24:11Z</time>
      </trkpt>
      <trkpt lat="47.83344" lon="6.83224">
        <ele>996.2</ele>
        <time>2025-08-06T15:24:14Z</time>
      </trkpt>
      <trkpt lat="47.83339" lon="6.83222">
        <ele>996.6</ele>
        <time>2025-08-06T15:24:16Z</time>
      </trkpt>
      <trkpt lat="47.83327" lon="6.83217">
        <ele>997.8</ele>
        <time>2025-08-06T15:24:21Z</time>
      </trkpt>
      <trkpt lat="47.83324" lon="6.83216">
        <ele>998</ele>
        <time>2025-08-06T15:24:22Z</time>
      </trkpt>
      <trkpt lat="47.83315" lon="6.83213">
        <ele>999</ele>
        <time>2025-08-06T15:24:25Z</time>
      </trkpt>
      <trkpt lat="47.83303" lon="6.8321">
        <ele>1000.2</ele>
        <time>2025-08-06T15:24:30Z</time>
      </trkpt>
      <trkpt lat="47.83296" lon="6.83211">
        <ele>1000.8</ele>
        <time>2025-08-06T15:24:33Z</time>
      </trkpt>
      <trkpt lat="47.83292" lon="6.83212">
        <ele>1001.2</ele>
        <time>2025-08-06T15:24:35Z</time>
      </trkpt>
      <trkpt lat="47.83289" lon="6.83214">
        <ele>1001.4</ele>
        <time>2025-08-06T15:24:36Z</time>
      </trkpt>
      <trkpt lat="47.83272" lon="6.83221">
        <ele>1002.6</ele>
        <time>2025-08-06T15:24:42Z</time>
      </trkpt>
      <trkpt lat="47.83259" lon="6.83227">
        <ele>1003.6</ele>
        <time>2025-08-06T15:24:47Z</time>
      </trkpt>
      <trkpt lat="47.83251" lon="6.8323">
        <ele>1003.8</ele>
        <time>2025-08-06T15:24:49Z</time>
      </trkpt>
      <trkpt lat="47.83235" lon="6.83237">
        <ele>1005</ele>
        <time>2025-08-06T15:24:55Z</time>
      </trkpt>
      <trkpt lat="47.83231" lon="6.83238">
        <ele>1005.4</ele>
        <time>2025-08-06T15:24:57Z</time>
      </trkpt>
      <trkpt lat="47.83218" lon="6.83243">
        <ele>1006</ele>
        <time>2025-08-06T15:25:02Z</time>
      </trkpt>
      <trkpt lat="47.83213" lon="6.83245">
        <ele>1006.8</ele>
        <time>2025-08-06T15:25:04Z</time>
      </trkpt>
      <trkpt lat="47.83208" lon="6.83246">
        <ele>1007.2</ele>
        <time>2025-08-06T15:25:06Z</time>
      </trkpt>
      <trkpt lat="47.83196" lon="6.8325">
        <ele>1008.4</ele>
        <time>2025-08-06T15:25:11Z</time>
      </trkpt>
      <trkpt lat="47.83194" lon="6.83251">
        <ele>1008.6</ele>
        <time>2025-08-06T15:25:12Z</time>
      </trkpt>
      <trkpt lat="47.83183" lon="6.83255">
        <ele>1009.6</ele>
        <time>2025-08-06T15:25:17Z</time>
      </trkpt>
      <trkpt lat="47.83181" lon="6.83255">
        <ele>1010</ele>
        <time>2025-08-06T15:25:18Z</time>
      </trkpt>
      <trkpt lat="47.83172" lon="6.83258">
        <ele>1010.8</ele>
        <time>2025-08-06T15:25:21Z</time>
      </trkpt>
      <trkpt lat="47.8316" lon="6.83264">
        <ele>1012</ele>
        <time>2025-08-06T15:25:26Z</time>
      </trkpt>
      <trkpt lat="47.83148" lon="6.83274">
        <ele>1013.2</ele>
        <time>2025-08-06T15:25:31Z</time>
      </trkpt>
      <trkpt lat="47.83147" lon="6.83278">
        <ele>1013.4</ele>
        <time>2025-08-06T15:25:32Z</time>
      </trkpt>
      <trkpt lat="47.83146" lon="6.83283">
        <ele>1013.8</ele>
        <time>2025-08-06T15:25:33Z</time>
      </trkpt>
      <trkpt lat="47.83147" lon="6.83293">
        <ele>1014.4</ele>
        <time>2025-08-06T15:25:35Z</time>
      </trkpt>
      <trkpt lat="47.83149" lon="6.83297">
        <ele>1014.6</ele>
        <time>2025-08-06T15:25:36Z</time>
      </trkpt>
      <trkpt lat="47.83159" lon="6.83306">
        <ele>1015.2</ele>
        <time>2025-08-06T15:25:40Z</time>
      </trkpt>
      <trkpt lat="47.83162" lon="6.83306">
        <ele>1015.4</ele>
        <time>2025-08-06T15:25:41Z</time>
      </trkpt>
      <trkpt lat="47.83175" lon="6.83304">
        <ele>1016.4</ele>
        <time>2025-08-06T15:25:46Z</time>
      </trkpt>
      <trkpt lat="47.83179" lon="6.83304">
        <ele>1016.6</ele>
        <time>2025-08-06T15:25:48Z</time>
      </trkpt>
      <trkpt lat="47.83191" lon="6.83304">
        <ele>1017.4</ele>
        <time>2025-08-06T15:25:53Z</time>
      </trkpt>
      <trkpt lat="47.83193" lon="6.83305">
        <ele>1017.8</ele>
        <time>2025-08-06T15:25:54Z</time>
      </trkpt>
      <trkpt lat="47.83201" lon="6.83307">
        <ele>1018.4</ele>
        <time>2025-08-06T15:25:58Z</time>
      </trkpt>
      <trkpt lat="47.83206" lon="6.83307">
        <ele>1018.8</ele>
        <time>2025-08-06T15:26:00Z</time>
      </trkpt>
      <trkpt lat="47.8321" lon="6.83308">
        <ele>1019.4</ele>
        <time>2025-08-06T15:26:02Z</time>
      </trkpt>
      <trkpt lat="47.83217" lon="6.83308">
        <ele>1020.6</ele>
        <time>2025-08-06T15:26:05Z</time>
      </trkpt>
      <trkpt lat="47.83219" lon="6.83308">
        <ele>1021</ele>
        <time>2025-08-06T15:26:06Z</time>
      </trkpt>
      <trkpt lat="47.83226" lon="6.83311">
        <ele>1021.8</ele>
        <time>2025-08-06T15:26:09Z</time>
      </trkpt>
      <trkpt lat="47.83238" lon="6.83313">
        <ele>1022.6</ele>
        <time>2025-08-06T15:26:13Z</time>
      </trkpt>
      <trkpt lat="47.83243" lon="6.83315">
        <ele>1023</ele>
        <time>2025-08-06T15:26:15Z</time>
      </trkpt>
      <trkpt lat="47.83255" lon="6.83321">
        <ele>1023.8</ele>
        <time>2025-08-06T15:26:20Z</time>
      </trkpt>
      <trkpt lat="47.83257" lon="6.83323">
        <ele>1024</ele>
        <time>2025-08-06T15:26:21Z</time>
      </trkpt>
      <trkpt lat="47.83269" lon="6.83329">
        <ele>1025</ele>
        <time>2025-08-06T15:26:26Z</time>
      </trkpt>
      <trkpt lat="47.83275" lon="6.83333">
        <ele>1025.6</ele>
        <time>2025-08-06T15:26:28Z</time>
      </trkpt>
      <trkpt lat="47.83282" lon="6.83338">
        <ele>1026.2</ele>
        <time>2025-08-06T15:26:31Z</time>
      </trkpt>
      <trkpt lat="47.83295" lon="6.83348">
        <ele>1027.2</ele>
        <time>2025-08-06T15:26:36Z</time>
      </trkpt>
      <trkpt lat="47.83308" lon="6.83356">
        <ele>1028.4</ele>
        <time>2025-08-06T15:26:41Z</time>
      </trkpt>
      <trkpt lat="47.83314" lon="6.83359">
        <ele>1028.8</ele>
        <time>2025-08-06T15:26:43Z</time>
      </trkpt>
      <trkpt lat="47.83322" lon="6.83366">
        <ele>1029.6</ele>
        <time>2025-08-06T15:26:46Z</time>
      </trkpt>
      <trkpt lat="47.83329" lon="6.83368">
        <ele>1030.2</ele>
        <time>2025-08-06T15:26:49Z</time>
      </trkpt>
      <trkpt lat="47.83334" lon="6.83371">
        <ele>1030.4</ele>
        <time>2025-08-06T15:26:51Z</time>
      </trkpt>
      <trkpt lat="47.83345" lon="6.83382">
        <ele>1031.6</ele>
        <time>2025-08-06T15:26:56Z</time>
      </trkpt>
      <trkpt lat="47.83349" lon="6.83385">
        <ele>1032.2</ele>
        <time>2025-08-06T15:26:58Z</time>
      </trkpt>
      <trkpt lat="47.83353" lon="6.83389">
        <ele>1032.8</ele>
        <time>2025-08-06T15:27:00Z</time>
      </trkpt>
      <trkpt lat="47.83356" lon="6.8339">
        <ele>1033</ele>
        <time>2025-08-06T15:27:01Z</time>
      </trkpt>
      <trkpt lat="47.83367" lon="6.834">
        <ele>1033.8</ele>
        <time>2025-08-06T15:27:06Z</time>
      </trkpt>
      <trkpt lat="47.83372" lon="6.83405">
        <ele>1034.2</ele>
        <time>2025-08-06T15:27:08Z</time>
      </trkpt>
      <trkpt lat="47.83381" lon="6.83415">
        <ele>1035</ele>
        <time>2025-08-06T15:27:12Z</time>
      </trkpt>
      <trkpt lat="47.83389" lon="6.83422">
        <ele>1035.4</ele>
        <time>2025-08-06T15:27:15Z</time>
      </trkpt>
      <trkpt lat="47.83394" lon="6.83426">
        <ele>1036</ele>
        <time>2025-08-06T15:27:17Z</time>
      </trkpt>
      <trkpt lat="47.83401" lon="6.83434">
        <ele>1036.6</ele>
        <time>2025-08-06T15:27:21Z</time>
      </trkpt>
      <trkpt lat="47.83404" lon="6.83439">
        <ele>1037.2</ele>
        <time>2025-08-06T15:27:23Z</time>
      </trkpt>
      <trkpt lat="47.83411" lon="6.83447">
        <ele>1037.8</ele>
        <time>2025-08-06T15:27:27Z</time>
      </trkpt>
      <trkpt lat="47.83415" lon="6.83452">
        <ele>1038.4</ele>
        <time>2025-08-06T15:27:29Z</time>
      </trkpt>
      <trkpt lat="47.8342" lon="6.83468">
        <ele>1039</ele>
        <time>2025-08-06T15:27:33Z</time>
      </trkpt>
      <trkpt lat="47.83423" lon="6.83475">
        <ele>1039.4</ele>
        <time>2025-08-06T15:27:35Z</time>
      </trkpt>
      <trkpt lat="47.83429" lon="6.83493">
        <ele>1040.6</ele>
        <time>2025-08-06T15:27:40Z</time>
      </trkpt>
      <trkpt lat="47.83434" lon="6.83517">
        <ele>1041.8</ele>
        <time>2025-08-06T15:27:46Z</time>
      </trkpt>
      <trkpt lat="47.83439" lon="6.83537">
        <ele>1043</ele>
        <time>2025-08-06T15:27:51Z</time>
      </trkpt>
      <trkpt lat="47.83439" lon="6.83541">
        <ele>1043.4</ele>
        <time>2025-08-06T15:27:52Z</time>
      </trkpt>
      <trkpt lat="47.83442" lon="6.83558">
        <ele>1044</ele>
        <time>2025-08-06T15:27:56Z</time>
      </trkpt>
      <trkpt lat="47.83443" lon="6.83566">
        <ele>1044.4</ele>
        <time>2025-08-06T15:27:58Z</time>
      </trkpt>
      <trkpt lat="47.83445" lon="6.83578">
        <ele>1045.2</ele>
        <time>2025-08-06T15:28:01Z</time>
      </trkpt>
      <trkpt lat="47.83445" lon="6.83585">
        <ele>1045.6</ele>
        <time>2025-08-06T15:28:03Z</time>
      </trkpt>
      <trkpt lat="47.83445" lon="6.83598">
        <ele>1046.2</ele>
        <time>2025-08-06T15:28:06Z</time>
      </trkpt>
      <trkpt lat="47.83445" lon="6.83607">
        <ele>1046.6</ele>
        <time>2025-08-06T15:28:08Z</time>
      </trkpt>
      <trkpt lat="47.83445" lon="6.83618">
        <ele>1047.4</ele>
        <time>2025-08-06T15:28:11Z</time>
      </trkpt>
      <trkpt lat="47.83445" lon="6.83633">
        <ele>1048.2</ele>
        <time>2025-08-06T15:28:15Z</time>
      </trkpt>
      <trkpt lat="47.83446" lon="6.83642">
        <ele>1048.8</ele>
        <time>2025-08-06T15:28:17Z</time>
      </trkpt>
      <trkpt lat="47.83447" lon="6.83663">
        <ele>1049.8</ele>
        <time>2025-08-06T15:28:22Z</time>
      </trkpt>
      <trkpt lat="47.83448" lon="6.83671">
        <ele>1050.2</ele>
        <time>2025-08-06T15:28:24Z</time>
      </trkpt>
      <trkpt lat="47.83448" lon="6.83678">
        <ele>1050.6</ele>
        <time>2025-08-06T15:28:26Z</time>
      </trkpt>
      <trkpt lat="47.8345" lon="6.8369">
        <ele>1051</ele>
        <time>2025-08-06T15:28:29Z</time>
      </trkpt>
      <trkpt lat="47.83453" lon="6.83709">
        <ele>1052.2</ele>
        <time>2025-08-06T15:28:34Z</time>
      </trkpt>
      <trkpt lat="47.83453" lon="6.83719">
        <ele>1052.4</ele>
        <time>2025-08-06T15:28:36Z</time>
      </trkpt>
      <trkpt lat="47.83455" lon="6.83738">
        <ele>1053.2</ele>
        <time>2025-08-06T15:28:41Z</time>
      </trkpt>
      <trkpt lat="47.83456" lon="6.83746">
        <ele>1053.8</ele>
        <time>2025-08-06T15:28:43Z</time>
      </trkpt>
      <trkpt lat="47.83458" lon="6.83756">
        <ele>1054.6</ele>
        <time>2025-08-06T15:28:46Z</time>
      </trkpt>
      <trkpt lat="47.83459" lon="6.83764">
        <ele>1055</ele>
        <time>2025-08-06T15:28:48Z</time>
      </trkpt>
      <trkpt lat="47.8346" lon="6.83772">
        <ele>1055.2</ele>
        <time>2025-08-06T15:28:50Z</time>
      </trkpt>
      <trkpt lat="47.83459" lon="6.83779">
        <ele>1055.6</ele>
        <time>2025-08-06T15:28:52Z</time>
      </trkpt>
      <trkpt lat="47.83458" lon="6.83783">
        <ele>1056</ele>
        <time>2025-08-06T15:28:53Z</time>
      </trkpt>
      <trkpt lat="47.83459" lon="6.83794">
        <ele>1056.8</ele>
        <time>2025-08-06T15:28:56Z</time>
      </trkpt>
      <trkpt lat="47.83458" lon="6.83805">
        <ele>1057.4</ele>
        <time>2025-08-06T15:28:59Z</time>
      </trkpt>
      <trkpt lat="47.83457" lon="6.83816">
        <ele>1057.8</ele>
        <time>2025-08-06T15:29:02Z</time>
      </trkpt>
      <trkpt lat="47.83457" lon="6.83827">
        <ele>1058.6</ele>
        <time>2025-08-06T15:29:05Z</time>
      </trkpt>
      <trkpt lat="47.83457" lon="6.83831">
        <ele>1058.8</ele>
        <time>2025-08-06T15:29:06Z</time>
      </trkpt>
      <trkpt lat="47.83458" lon="6.83855">
        <ele>1059.8</ele>
        <time>2025-08-06T15:29:12Z</time>
      </trkpt>
      <trkpt lat="47.83459" lon="6.83886">
        <ele>1060.8</ele>
        <time>2025-08-06T15:29:19Z</time>
      </trkpt>
      <trkpt lat="47.83459" lon="6.83908">
        <ele>1061.8</ele>
        <time>2025-08-06T15:29:24Z</time>
      </trkpt>
      <trkpt lat="47.8346" lon="6.83913">
        <ele>1062</ele>
        <time>2025-08-06T15:29:25Z</time>
      </trkpt>
      <trkpt lat="47.83459" lon="6.83934">
        <ele>1063.2</ele>
        <time>2025-08-06T15:29:30Z</time>
      </trkpt>
      <trkpt lat="47.8346" lon="6.83938">
        <ele>1063.4</ele>
        <time>2025-08-06T15:29:31Z</time>
      </trkpt>
      <trkpt lat="47.8346" lon="6.83956">
        <ele>1064.2</ele>
        <time>2025-08-06T15:29:35Z</time>
      </trkpt>
      <trkpt lat="47.83462" lon="6.8397">
        <ele>1064.8</ele>
        <time>2025-08-06T15:29:38Z</time>
      </trkpt>
      <trkpt lat="47.83462" lon="6.83977">
        <ele>1065.2</ele>
        <time>2025-08-06T15:29:40Z</time>
      </trkpt>
      <trkpt lat="47.83463" lon="6.83992">
        <ele>1066.2</ele>
        <time>2025-08-06T15:29:44Z</time>
      </trkpt>
      <trkpt lat="47.83464" lon="6.83997">
        <ele>1066.4</ele>
        <time>2025-08-06T15:29:45Z</time>
      </trkpt>
      <trkpt lat="47.83464" lon="6.84017">
        <ele>1067.2</ele>
        <time>2025-08-06T15:29:50Z</time>
      </trkpt>
      <trkpt lat="47.83466" lon="6.8403">
        <ele>1068</ele>
        <time>2025-08-06T15:29:53Z</time>
      </trkpt>
      <trkpt lat="47.83467" lon="6.84033">
        <ele>1068.2</ele>
        <time>2025-08-06T15:29:54Z</time>
      </trkpt>
      <trkpt lat="47.83468" lon="6.84057">
        <ele>1069.2</ele>
        <time>2025-08-06T15:30:00Z</time>
      </trkpt>
      <trkpt lat="47.83467" lon="6.84061">
        <ele>1069.4</ele>
        <time>2025-08-06T15:30:01Z</time>
      </trkpt>
      <trkpt lat="47.8346" lon="6.84069">
        <ele>1069.6</ele>
        <time>2025-08-06T15:30:04Z</time>
      </trkpt>
      <trkpt lat="47.83455" lon="6.84067">
        <ele>1070</ele>
        <time>2025-08-06T15:30:06Z</time>
      </trkpt>
      <trkpt lat="47.83451" lon="6.8406">
        <ele>1070.2</ele>
        <time>2025-08-06T15:30:08Z</time>
      </trkpt>
      <trkpt lat="47.83449" lon="6.84054">
        <ele>1070.6</ele>
        <time>2025-08-06T15:30:10Z</time>
      </trkpt>
      <trkpt lat="47.83446" lon="6.84042">
        <ele>1071.4</ele>
        <time>2025-08-06T15:30:13Z</time>
      </trkpt>
      <trkpt lat="47.83446" lon="6.84035">
        <ele>1071.6</ele>
        <time>2025-08-06T15:30:15Z</time>
      </trkpt>
      <trkpt lat="47.83442" lon="6.84013">
        <ele>1072.6</ele>
        <time>2025-08-06T15:30:20Z</time>
      </trkpt>
      <trkpt lat="47.8344" lon="6.84008">
        <ele>1072.6</ele>
        <time>2025-08-06T15:30:21Z</time>
      </trkpt>
      <trkpt lat="47.83434" lon="6.83983">
        <ele>1073.6</ele>
        <time>2025-08-06T15:30:27Z</time>
      </trkpt>
      <trkpt lat="47.83431" lon="6.83975">
        <ele>1073.8</ele>
        <time>2025-08-06T15:30:29Z</time>
      </trkpt>
      <trkpt lat="47.83427" lon="6.83964">
        <ele>1074.6</ele>
        <time>2025-08-06T15:30:32Z</time>
      </trkpt>
      <trkpt lat="47.83418" lon="6.83942">
        <ele>1075.6</ele>
        <time>2025-08-06T15:30:38Z</time>
      </trkpt>
      <trkpt lat="47.83417" lon="6.83938">
        <ele>1075.8</ele>
        <time>2025-08-06T15:30:39Z</time>
      </trkpt>
      <trkpt lat="47.83411" lon="6.83925">
        <ele>1076.6</ele>
        <time>2025-08-06T15:30:43Z</time>
      </trkpt>
      <trkpt lat="47.83404" lon="6.83911">
        <ele>1077.6</ele>
        <time>2025-08-06T15:30:47Z</time>
      </trkpt>
      <trkpt lat="47.83402" lon="6.83907">
        <ele>1077.8</ele>
        <time>2025-08-06T15:30:48Z</time>
      </trkpt>
      <trkpt lat="47.83394" lon="6.8389">
        <ele>1079</ele>
        <time>2025-08-06T15:30:53Z</time>
      </trkpt>
      <trkpt lat="47.83387" lon="6.83877">
        <ele>1079.8</ele>
        <time>2025-08-06T15:30:57Z</time>
      </trkpt>
      <trkpt lat="47.83385" lon="6.83873">
        <ele>1080</ele>
        <time>2025-08-06T15:30:58Z</time>
      </trkpt>
      <trkpt lat="47.83372" lon="6.83858">
        <ele>1081</ele>
        <time>2025-08-06T15:31:04Z</time>
      </trkpt>
      <trkpt lat="47.83362" lon="6.83854">
        <ele>1082.2</ele>
        <time>2025-08-06T15:31:08Z</time>
      </trkpt>
      <trkpt lat="47.83358" lon="6.83854">
        <ele>1082.4</ele>
        <time>2025-08-06T15:31:09Z</time>
      </trkpt>
      <trkpt lat="47.83352" lon="6.83859">
        <ele>1083.4</ele>
        <time>2025-08-06T15:31:12Z</time>
      </trkpt>
      <trkpt lat="47.83347" lon="6.83866">
        <ele>1083.6</ele>
        <time>2025-08-06T15:31:14Z</time>
      </trkpt>
      <trkpt lat="47.83344" lon="6.83872">
        <ele>1084.4</ele>
        <time>2025-08-06T15:31:16Z</time>
      </trkpt>
      <trkpt lat="47.8334" lon="6.8389">
        <ele>1085.6</ele>
        <time>2025-08-06T15:31:20Z</time>
      </trkpt>
      <trkpt lat="47.83339" lon="6.83913">
        <ele>1086.8</ele>
        <time>2025-08-06T15:31:25Z</time>
      </trkpt>
      <trkpt lat="47.83337" lon="6.83935">
        <ele>1087.8</ele>
        <time>2025-08-06T15:31:30Z</time>
      </trkpt>
      <trkpt lat="47.83337" lon="6.83938">
        <ele>1087.8</ele>
        <time>2025-08-06T15:31:31Z</time>
      </trkpt>
      <trkpt lat="47.83335" lon="6.83965">
        <ele>1089</ele>
        <time>2025-08-06T15:31:37Z</time>
      </trkpt>
      <trkpt lat="47.83332" lon="6.83984">
        <ele>1090</ele>
        <time>2025-08-06T15:31:41Z</time>
      </trkpt>
      <trkpt lat="47.83331" lon="6.83988">
        <ele>1090.2</ele>
        <time>2025-08-06T15:31:42Z</time>
      </trkpt>
      <trkpt lat="47.83321" lon="6.84006">
        <ele>1090.4</ele>
        <time>2025-08-06T15:31:47Z</time>
      </trkpt>
      <trkpt lat="47.83311" lon="6.84016">
        <ele>1091.2</ele>
        <time>2025-08-06T15:31:51Z</time>
      </trkpt>
      <trkpt lat="47.83304" lon="6.84019">
        <ele>1091.6</ele>
        <time>2025-08-06T15:31:53Z</time>
      </trkpt>
      <trkpt lat="47.83295" lon="6.84022">
        <ele>1092.4</ele>
        <time>2025-08-06T15:31:56Z</time>
      </trkpt>
      <trkpt lat="47.83279" lon="6.84023">
        <ele>1093.2</ele>
        <time>2025-08-06T15:32:01Z</time>
      </trkpt>
      <trkpt lat="47.83273" lon="6.84022">
        <ele>1093.6</ele>
        <time>2025-08-06T15:32:03Z</time>
      </trkpt>
      <trkpt lat="47.83254" lon="6.84019">
        <ele>1094.6</ele>
        <time>2025-08-06T15:32:09Z</time>
      </trkpt>
      <trkpt lat="47.83248" lon="6.84017">
        <ele>1094.8</ele>
        <time>2025-08-06T15:32:11Z</time>
      </trkpt>
      <trkpt lat="47.83237" lon="6.84011">
        <ele>1095.8</ele>
        <time>2025-08-06T15:32:15Z</time>
      </trkpt>
      <trkpt lat="47.83225" lon="6.84003">
        <ele>1096.6</ele>
        <time>2025-08-06T15:32:19Z</time>
      </trkpt>
      <trkpt lat="47.83216" lon="6.83997">
        <ele>1097.2</ele>
        <time>2025-08-06T15:32:22Z</time>
      </trkpt>
      <trkpt lat="47.83202" lon="6.83988">
        <ele>1098.8</ele>
        <time>2025-08-06T15:32:27Z</time>
      </trkpt>
      <trkpt lat="47.83194" lon="6.83984">
        <ele>1099.8</ele>
        <time>2025-08-06T15:32:30Z</time>
      </trkpt>
      <trkpt lat="47.83191" lon="6.83983">
        <ele>1100</ele>
        <time>2025-08-06T15:32:31Z</time>
      </trkpt>
      <trkpt lat="47.83175" lon="6.83972">
        <ele>1101</ele>
        <time>2025-08-06T15:32:37Z</time>
      </trkpt>
      <trkpt lat="47.83164" lon="6.83965">
        <ele>1101.4</ele>
        <time>2025-08-06T15:32:41Z</time>
      </trkpt>
      <trkpt lat="47.83156" lon="6.83961">
        <ele>1102</ele>
        <time>2025-08-06T15:32:44Z</time>
      </trkpt>
      <trkpt lat="47.83143" lon="6.83955">
        <ele>1103</ele>
        <time>2025-08-06T15:32:49Z</time>
      </trkpt>
      <trkpt lat="47.83138" lon="6.83953">
        <ele>1103.6</ele>
        <time>2025-08-06T15:32:51Z</time>
      </trkpt>
      <trkpt lat="47.8313" lon="6.83951">
        <ele>1104</ele>
        <time>2025-08-06T15:32:54Z</time>
      </trkpt>
      <trkpt lat="47.83112" lon="6.83946">
        <ele>1105.4</ele>
        <time>2025-08-06T15:33:00Z</time>
      </trkpt>
      <trkpt lat="47.83104" lon="6.83943">
        <ele>1106.2</ele>
        <time>2025-08-06T15:33:03Z</time>
      </trkpt>
      <trkpt lat="47.83098" lon="6.83941">
        <ele>1106.6</ele>
        <time>2025-08-06T15:33:05Z</time>
      </trkpt>
      <trkpt lat="47.83084" lon="6.83936">
        <ele>1107.8</ele>
        <time>2025-08-06T15:33:10Z</time>
      </trkpt>
      <trkpt lat="47.83078" lon="6.83932">
        <ele>1108.4</ele>
        <time>2025-08-06T15:33:12Z</time>
      </trkpt>
      <trkpt lat="47.8307" lon="6.83928">
        <ele>1109</ele>
        <time>2025-08-06T15:33:15Z</time>
      </trkpt>
      <trkpt lat="47.83057" lon="6.8392">
        <ele>1110.2</ele>
        <time>2025-08-06T15:33:20Z</time>
      </trkpt>
      <trkpt lat="47.83055" lon="6.83918">
        <ele>1110.4</ele>
        <time>2025-08-06T15:33:21Z</time>
      </trkpt>
      <trkpt lat="47.83045" lon="6.83911">
        <ele>1111.2</ele>
        <time>2025-08-06T15:33:25Z</time>
      </trkpt>
      <trkpt lat="47.83034" lon="6.83903">
        <ele>1112.2</ele>
        <time>2025-08-06T15:33:29Z</time>
      </trkpt>
      <trkpt lat="47.83029" lon="6.83899">
        <ele>1112.6</ele>
        <time>2025-08-06T15:33:31Z</time>
      </trkpt>
      <trkpt lat="47.8302" lon="6.83889">
        <ele>1113.4</ele>
        <time>2025-08-06T15:33:35Z</time>
      </trkpt>
      <trkpt lat="47.83012" lon="6.8388">
        <ele>1114.4</ele>
        <time>2025-08-06T15:33:39Z</time>
      </trkpt>
      <trkpt lat="47.83001" lon="6.83867">
        <ele>1115.6</ele>
        <time>2025-08-06T15:33:44Z</time>
      </trkpt>
      <trkpt lat="47.82994" lon="6.8386">
        <ele>1116</ele>
        <time>2025-08-06T15:33:47Z</time>
      </trkpt>
      <trkpt lat="47.8299" lon="6.83855">
        <ele>1116.6</ele>
        <time>2025-08-06T15:33:49Z</time>
      </trkpt>
      <trkpt lat="47.8298" lon="6.83843">
        <ele>1117.6</ele>
        <time>2025-08-06T15:33:54Z</time>
      </trkpt>
      <trkpt lat="47.82972" lon="6.83835">
        <ele>1118.8</ele>
        <time>2025-08-06T15:33:58Z</time>
      </trkpt>
      <trkpt lat="47.82966" lon="6.83828">
        <ele>1119.4</ele>
        <time>2025-08-06T15:34:01Z</time>
      </trkpt>
      <trkpt lat="47.82962" lon="6.83824">
        <ele>1119.8</ele>
        <time>2025-08-06T15:34:03Z</time>
      </trkpt>
      <trkpt lat="47.82952" lon="6.83815">
        <ele>1120.8</ele>
        <time>2025-08-06T15:34:08Z</time>
      </trkpt>
      <trkpt lat="47.82945" lon="6.83808">
        <ele>1121.2</ele>
        <time>2025-08-06T15:34:11Z</time>
      </trkpt>
      <trkpt lat="47.82937" lon="6.83801">
        <ele>1121.8</ele>
        <time>2025-08-06T15:34:15Z</time>
      </trkpt>
      <trkpt lat="47.8293" lon="6.83795">
        <ele>1122.6</ele>
        <time>2025-08-06T15:34:18Z</time>
      </trkpt>
      <trkpt lat="47.82928" lon="6.83793">
        <ele>1123</ele>
        <time>2025-08-06T15:34:19Z</time>
      </trkpt>
      <trkpt lat="47.82917" lon="6.83783">
        <ele>1124.2</ele>
        <time>2025-08-06T15:34:24Z</time>
      </trkpt>
      <trkpt lat="47.82908" lon="6.83775">
        <ele>1125.2</ele>
        <time>2025-08-06T15:34:28Z</time>
      </trkpt>
      <trkpt lat="47.8289" lon="6.83763">
        <ele>1126.4</ele>
        <time>2025-08-06T15:34:34Z</time>
      </trkpt>
      <trkpt lat="47.82885" lon="6.83758">
        <ele>1126.8</ele>
        <time>2025-08-06T15:34:36Z</time>
      </trkpt>
      <trkpt lat="47.82873" lon="6.83749">
        <ele>1127.6</ele>
        <time>2025-08-06T15:34:40Z</time>
      </trkpt>
      <trkpt lat="47.82871" lon="6.83747">
        <ele>1127.8</ele>
        <time>2025-08-06T15:34:41Z</time>
      </trkpt>
      <trkpt lat="47.82864" lon="6.83741">
        <ele>1128.6</ele>
        <time>2025-08-06T15:34:44Z</time>
      </trkpt>
      <trkpt lat="47.82857" lon="6.83735">
        <ele>1128.8</ele>
        <time>2025-08-06T15:34:46Z</time>
      </trkpt>
      <trkpt lat="47.82843" lon="6.83728">
        <ele>1129.6</ele>
        <time>2025-08-06T15:34:50Z</time>
      </trkpt>
      <trkpt lat="47.82841" lon="6.83727">
        <ele>1130</ele>
        <time>2025-08-06T15:34:51Z</time>
      </trkpt>
      <trkpt lat="47.8283" lon="6.83723">
        <ele>1130.8</ele>
        <time>2025-08-06T15:34:55Z</time>
      </trkpt>
      <trkpt lat="47.82819" lon="6.83717">
        <ele>1131.4</ele>
        <time>2025-08-06T15:34:59Z</time>
      </trkpt>
      <trkpt lat="47.8281" lon="6.83713">
        <ele>1132</ele>
        <time>2025-08-06T15:35:02Z</time>
      </trkpt>
      <trkpt lat="47.82798" lon="6.83704">
        <ele>1133.2</ele>
        <time>2025-08-06T15:35:07Z</time>
      </trkpt>
      <trkpt lat="47.82786" lon="6.83696">
        <ele>1134.4</ele>
        <time>2025-08-06T15:35:12Z</time>
      </trkpt>
      <trkpt lat="47.82776" lon="6.83688">
        <ele>1135.6</ele>
        <time>2025-08-06T15:35:16Z</time>
      </trkpt>
      <trkpt lat="47.82768" lon="6.83682">
        <ele>1136</ele>
        <time>2025-08-06T15:35:19Z</time>
      </trkpt>
      <trkpt lat="47.82761" lon="6.83675">
        <ele>1136.8</ele>
        <time>2025-08-06T15:35:22Z</time>
      </trkpt>
      <trkpt lat="47.82748" lon="6.83664">
        <ele>1138.2</ele>
        <time>2025-08-06T15:35:27Z</time>
      </trkpt>
      <trkpt lat="47.82745" lon="6.83661">
        <ele>1138.4</ele>
        <time>2025-08-06T15:35:28Z</time>
      </trkpt>
      <trkpt lat="47.82738" lon="6.83654">
        <ele>1139.2</ele>
        <time>2025-08-06T15:35:31Z</time>
      </trkpt>
      <trkpt lat="47.82726" lon="6.83643">
        <ele>1140.2</ele>
        <time>2025-08-06T15:35:36Z</time>
      </trkpt>
      <trkpt lat="47.82722" lon="6.83638">
        <ele>1140.6</ele>
        <time>2025-08-06T15:35:38Z</time>
      </trkpt>
      <trkpt lat="47.82716" lon="6.83632">
        <ele>1141.4</ele>
        <time>2025-08-06T15:35:41Z</time>
      </trkpt>
      <trkpt lat="47.82702" lon="6.83619">
        <ele>1142.4</ele>
        <time>2025-08-06T15:35:47Z</time>
      </trkpt>
      <trkpt lat="47.82692" lon="6.83611">
        <ele>1143.6</ele>
        <time>2025-08-06T15:35:51Z</time>
      </trkpt>
      <trkpt lat="47.82685" lon="6.83605">
        <ele>1144</ele>
        <time>2025-08-06T15:35:54Z</time>
      </trkpt>
      <trkpt lat="47.82677" lon="6.83599">
        <ele>1144.6</ele>
        <time>2025-08-06T15:35:57Z</time>
      </trkpt>
      <trkpt lat="47.82668" lon="6.83591">
        <ele>1145.6</ele>
        <time>2025-08-06T15:36:01Z</time>
      </trkpt>
      <trkpt lat="47.82664" lon="6.83587">
        <ele>1146</ele>
        <time>2025-08-06T15:36:03Z</time>
      </trkpt>
      <trkpt lat="47.82655" lon="6.83582">
        <ele>1146.8</ele>
        <time>2025-08-06T15:36:07Z</time>
      </trkpt>
      <trkpt lat="47.82643" lon="6.83573">
        <ele>1147.8</ele>
        <time>2025-08-06T15:36:12Z</time>
      </trkpt>
      <trkpt lat="47.82632" lon="6.83561">
        <ele>1148.8</ele>
        <time>2025-08-06T15:36:17Z</time>
      </trkpt>
      <trkpt lat="47.82619" lon="6.83549">
        <ele>1150</ele>
        <time>2025-08-06T15:36:22Z</time>
      </trkpt>
      <trkpt lat="47.82615" lon="6.83545">
        <ele>1150.2</ele>
        <time>2025-08-06T15:36:24Z</time>
      </trkpt>
      <trkpt lat="47.82607" lon="6.83538">
        <ele>1151</ele>
        <time>2025-08-06T15:36:27Z</time>
      </trkpt>
      <trkpt lat="47.82595" lon="6.83526">
        <ele>1152</ele>
        <time>2025-08-06T15:36:32Z</time>
      </trkpt>
      <trkpt lat="47.82593" lon="6.83524">
        <ele>1152.2</ele>
        <time>2025-08-06T15:36:33Z</time>
      </trkpt>
      <trkpt lat="47.82584" lon="6.83518">
        <ele>1153.2</ele>
        <time>2025-08-06T15:36:37Z</time>
      </trkpt>
      <trkpt lat="47.8258" lon="6.83516">
        <ele>1153.4</ele>
        <time>2025-08-06T15:36:39Z</time>
      </trkpt>
      <trkpt lat="47.82573" lon="6.83509">
        <ele>1154.2</ele>
        <time>2025-08-06T15:36:43Z</time>
      </trkpt>
      <trkpt lat="47.82569" lon="6.83507">
        <ele>1154.4</ele>
        <time>2025-08-06T15:36:45Z</time>
      </trkpt>
      <trkpt lat="47.82563" lon="6.83502">
        <ele>1155.4</ele>
        <time>2025-08-06T15:36:48Z</time>
      </trkpt>
      <trkpt lat="47.82552" lon="6.83496">
        <ele>1156.2</ele>
        <time>2025-08-06T15:36:52Z</time>
      </trkpt>
      <trkpt lat="47.82549" lon="6.83496">
        <ele>1156.6</ele>
        <time>2025-08-06T15:36:53Z</time>
      </trkpt>
      <trkpt lat="47.82536" lon="6.83491">
        <ele>1157.4</ele>
        <time>2025-08-06T15:36:57Z</time>
      </trkpt>
      <trkpt lat="47.82533" lon="6.8349">
        <ele>1157.8</ele>
        <time>2025-08-06T15:36:58Z</time>
      </trkpt>
      <trkpt lat="47.82518" lon="6.83486">
        <ele>1158.8</ele>
        <time>2025-08-06T15:37:03Z</time>
      </trkpt>
      <trkpt lat="47.82512" lon="6.83484">
        <ele>1159.2</ele>
        <time>2025-08-06T15:37:05Z</time>
      </trkpt>
      <trkpt lat="47.82504" lon="6.83482">
        <ele>1159.8</ele>
        <time>2025-08-06T15:37:08Z</time>
      </trkpt>
      <trkpt lat="47.82491" lon="6.83482">
        <ele>1160.6</ele>
        <time>2025-08-06T15:37:12Z</time>
      </trkpt>
      <trkpt lat="47.82488" lon="6.83482">
        <ele>1160.8</ele>
        <time>2025-08-06T15:37:13Z</time>
      </trkpt>
      <trkpt lat="47.82475" lon="6.83483">
        <ele>1161.8</ele>
        <time>2025-08-06T15:37:17Z</time>
      </trkpt>
      <trkpt lat="47.82461" lon="6.83484">
        <ele>1163</ele>
        <time>2025-08-06T15:37:22Z</time>
      </trkpt>
      <trkpt lat="47.82454" lon="6.83486">
        <ele>1163.2</ele>
        <time>2025-08-06T15:37:24Z</time>
      </trkpt>
      <trkpt lat="47.82445" lon="6.83486">
        <ele>1164</ele>
        <time>2025-08-06T15:37:27Z</time>
      </trkpt>
      <trkpt lat="47.82432" lon="6.83486">
        <ele>1165.2</ele>
        <time>2025-08-06T15:37:32Z</time>
      </trkpt>
      <trkpt lat="47.82426" lon="6.83486">
        <ele>1165.4</ele>
        <time>2025-08-06T15:37:34Z</time>
      </trkpt>
      <trkpt lat="47.82421" lon="6.83485">
        <ele>1166.2</ele>
        <time>2025-08-06T15:37:36Z</time>
      </trkpt>
      <trkpt lat="47.82414" lon="6.83485">
        <ele>1166.8</ele>
        <time>2025-08-06T15:37:39Z</time>
      </trkpt>
      <trkpt lat="47.8241" lon="6.83483">
        <ele>1167.4</ele>
        <time>2025-08-06T15:37:41Z</time>
      </trkpt>
      <trkpt lat="47.82399" lon="6.8348">
        <ele>1168.2</ele>
        <time>2025-08-06T15:37:46Z</time>
      </trkpt>
      <trkpt lat="47.82396" lon="6.83479">
        <ele>1168.4</ele>
        <time>2025-08-06T15:37:47Z</time>
      </trkpt>
      <trkpt lat="47.82385" lon="6.83476">
        <ele>1169.4</ele>
        <time>2025-08-06T15:37:51Z</time>
      </trkpt>
      <trkpt lat="47.8238" lon="6.83474">
        <ele>1169.8</ele>
        <time>2025-08-06T15:37:53Z</time>
      </trkpt>
      <trkpt lat="47.82369" lon="6.83473">
        <ele>1170.4</ele>
        <time>2025-08-06T15:37:56Z</time>
      </trkpt>
      <trkpt lat="47.82354" lon="6.8347">
        <ele>1171.8</ele>
        <time>2025-08-06T15:38:01Z</time>
      </trkpt>
      <trkpt lat="47.8234" lon="6.83467">
        <ele>1172.8</ele>
        <time>2025-08-06T15:38:06Z</time>
      </trkpt>
      <trkpt lat="47.82335" lon="6.83466">
        <ele>1173.4</ele>
        <time>2025-08-06T15:38:08Z</time>
      </trkpt>
      <trkpt lat="47.82327" lon="6.83463">
        <ele>1174</ele>
        <time>2025-08-06T15:38:11Z</time>
      </trkpt>
      <trkpt lat="47.82314" lon="6.8346">
        <ele>1175</ele>
        <time>2025-08-06T15:38:15Z</time>
      </trkpt>
      <trkpt lat="47.82311" lon="6.8346">
        <ele>1175</ele>
        <time>2025-08-06T15:38:16Z</time>
      </trkpt>
      <trkpt lat="47.82297" lon="6.83456">
        <ele>1176.2</ele>
        <time>2025-08-06T15:38:21Z</time>
      </trkpt>
      <trkpt lat="47.82284" lon="6.83453">
        <ele>1177.2</ele>
        <time>2025-08-06T15:38:26Z</time>
      </trkpt>
      <trkpt lat="47.82281" lon="6.83452">
        <ele>1177.4</ele>
        <time>2025-08-06T15:38:27Z</time>
      </trkpt>
      <trkpt lat="47.82271" lon="6.83448">
        <ele>1178.2</ele>
        <time>2025-08-06T15:38:31Z</time>
      </trkpt>
      <trkpt lat="47.82269" lon="6.83448">
        <ele>1178.6</ele>
        <time>2025-08-06T15:38:32Z</time>
      </trkpt>
      <trkpt lat="47.82263" lon="6.83447">
        <ele>1179.2</ele>
        <time>2025-08-06T15:38:34Z</time>
      </trkpt>
      <trkpt lat="47.82253" lon="6.83445">
        <ele>1180.2</ele>
        <time>2025-08-06T15:38:38Z</time>
      </trkpt>
      <trkpt lat="47.82249" lon="6.83445">
        <ele>1180.6</ele>
        <time>2025-08-06T15:38:39Z</time>
      </trkpt>
      <trkpt lat="47.82235" lon="6.83444">
        <ele>1181.4</ele>
        <time>2025-08-06T15:38:43Z</time>
      </trkpt>
      <trkpt lat="47.82232" lon="6.83444">
        <ele>1181.8</ele>
        <time>2025-08-06T15:38:44Z</time>
      </trkpt>
      <trkpt lat="47.82219" lon="6.83443">
        <ele>1182.8</ele>
        <time>2025-08-06T15:38:49Z</time>
      </trkpt>
      <trkpt lat="47.82198" lon="6.83442">
        <ele>1183.8</ele>
        <time>2025-08-06T15:38:55Z</time>
      </trkpt>
      <trkpt lat="47.82192" lon="6.8344">
        <ele>1184.2</ele>
        <time>2025-08-06T15:38:57Z</time>
      </trkpt>
      <trkpt lat="47.82183" lon="6.83437">
        <ele>1185</ele>
        <time>2025-08-06T15:39:00Z</time>
      </trkpt>
      <trkpt lat="47.8217" lon="6.83431">
        <ele>1186.2</ele>
        <time>2025-08-06T15:39:05Z</time>
      </trkpt>
      <trkpt lat="47.82167" lon="6.8343">
        <ele>1186.6</ele>
        <time>2025-08-06T15:39:06Z</time>
      </trkpt>
      <trkpt lat="47.82157" lon="6.83425">
        <ele>1187.4</ele>
        <time>2025-08-06T15:39:10Z</time>
      </trkpt>
      <trkpt lat="47.8215" lon="6.83422">
        <ele>1188.2</ele>
        <time>2025-08-06T15:39:13Z</time>
      </trkpt>
      <trkpt lat="47.82147" lon="6.8342">
        <ele>1188.6</ele>
        <time>2025-08-06T15:39:15Z</time>
      </trkpt>
      <trkpt lat="47.82146" lon="6.8342">
        <ele>1189.2</ele>
        <time>2025-08-06T15:39:18Z</time>
      </trkpt>
      <trkpt lat="47.8212" lon="6.83429">
        <ele>1191.4</ele>
        <time>2025-08-06T15:44:37Z</time>
      </trkpt>
      <trkpt lat="47.82114" lon="6.83431">
        <ele>1191.6</ele>
        <time>2025-08-06T15:44:40Z</time>
      </trkpt>
      <trkpt lat="47.82101" lon="6.83435">
        <ele>1192</ele>
        <time>2025-08-06T15:44:47Z</time>
      </trkpt>
      <trkpt lat="47.82091" lon="6.8344">
        <ele>1192.6</ele>
        <time>2025-08-06T15:44:52Z</time>
      </trkpt>
      <trkpt lat="47.82089" lon="6.83442">
        <ele>1192.6</ele>
        <time>2025-08-06T15:44:53Z</time>
      </trkpt>
      <trkpt lat="47.82074" lon="6.83451">
        <ele>1193.2</ele>
        <time>2025-08-06T15:45:01Z</time>
      </trkpt>
      <trkpt lat="47.82068" lon="6.83455">
        <ele>1193.6</ele>
        <time>2025-08-06T15:45:05Z</time>
      </trkpt>
      <trkpt lat="47.82066" lon="6.83456">
        <ele>1193.6</ele>
        <time>2025-08-06T15:45:06Z</time>
      </trkpt>
      <trkpt lat="47.82064" lon="6.83458">
        <ele>1193.6</ele>
        <time>2025-08-06T15:45:07Z</time>
      </trkpt>
      <trkpt lat="47.82047" lon="6.83471">
        <ele>1194</ele>
        <time>2025-08-06T15:45:14Z</time>
      </trkpt>
      <trkpt lat="47.82033" lon="6.83489">
        <ele>1194.2</ele>
        <time>2025-08-06T15:45:21Z</time>
      </trkpt>
      <trkpt lat="47.82033" lon="6.83508">
        <ele>1194.2</ele>
        <time>2025-08-06T15:45:27Z</time>
      </trkpt>
      <trkpt lat="47.8204" lon="6.83529">
        <ele>1194</ele>
        <time>2025-08-06T15:45:34Z</time>
      </trkpt>
      <trkpt lat="47.82049" lon="6.83556">
        <ele>1193.8</ele>
        <time>2025-08-06T15:45:41Z</time>
      </trkpt>
      <trkpt lat="47.82062" lon="6.83594">
        <ele>1193.6</ele>
        <time>2025-08-06T15:45:50Z</time>
      </trkpt>
      <trkpt lat="47.8207" lon="6.83619">
        <ele>1193.4</ele>
        <time>2025-08-06T15:45:57Z</time>
      </trkpt>
      <trkpt lat="47.82076" lon="6.83646">
        <ele>1193.4</ele>
        <time>2025-08-06T15:46:05Z</time>
      </trkpt>
      <trkpt lat="47.82075" lon="6.83662">
        <ele>1193.6</ele>
        <time>2025-08-06T15:46:11Z</time>
      </trkpt>
      <trkpt lat="47.82072" lon="6.8366">
        <ele>1193.6</ele>
        <time>2025-08-06T15:46:14Z</time>
      </trkpt>
      <trkpt lat="47.82072" lon="6.83657">
        <ele>1193.6</ele>
        <time>2025-08-06T15:46:18Z</time>
      </trkpt>
      <trkpt lat="47.82073" lon="6.83662">
        <ele>1195.8</ele>
        <time>2025-08-06T16:04:13Z</time>
      </trkpt>
      <trkpt lat="47.82074" lon="6.83666">
        <ele>1195.8</ele>
        <time>2025-08-06T16:04:15Z</time>
      </trkpt>
      <trkpt lat="47.82077" lon="6.83675">
        <ele>1196</ele>
        <time>2025-08-06T16:04:19Z</time>
      </trkpt>
      <trkpt lat="47.82078" lon="6.83676">
        <ele>1196</ele>
        <time>2025-08-06T16:04:20Z</time>
      </trkpt>
      <trkpt lat="47.82081" lon="6.83678">
        <ele>1196</ele>
        <time>2025-08-06T16:04:22Z</time>
      </trkpt>
      <trkpt lat="47.82083" lon="6.83687">
        <ele>1196.2</ele>
        <time>2025-08-06T16:04:26Z</time>
      </trkpt>
      <trkpt lat="47.82085" lon="6.83714">
        <ele>1196.6</ele>
        <time>2025-08-06T16:04:34Z</time>
      </trkpt>
      <trkpt lat="47.82085" lon="6.83728">
        <ele>1197</ele>
        <time>2025-08-06T16:04:38Z</time>
      </trkpt>
      <trkpt lat="47.82084" lon="6.83735">
        <ele>1197.4</ele>
        <time>2025-08-06T16:04:41Z</time>
      </trkpt>
      <trkpt lat="47.82081" lon="6.8378">
        <ele>1197.2</ele>
        <time>2025-08-06T16:04:52Z</time>
      </trkpt>
      <trkpt lat="47.82077" lon="6.83822">
        <ele>1197</ele>
        <time>2025-08-06T16:05:01Z</time>
      </trkpt>
      <trkpt lat="47.82072" lon="6.83862">
        <ele>1196.4</ele>
        <time>2025-08-06T16:05:08Z</time>
      </trkpt>
      <trkpt lat="47.82065" lon="6.83889">
        <ele>1195.6</ele>
        <time>2025-08-06T16:05:12Z</time>
      </trkpt>
      <trkpt lat="47.82058" lon="6.83916">
        <ele>1195.6</ele>
        <time>2025-08-06T16:05:16Z</time>
      </trkpt>
      <trkpt lat="47.82039" lon="6.83962">
        <ele>1195.4</ele>
        <time>2025-08-06T16:05:23Z</time>
      </trkpt>
      <trkpt lat="47.82017" lon="6.83997">
        <ele>1195.2</ele>
        <time>2025-08-06T16:05:29Z</time>
      </trkpt>
      <trkpt lat="47.81982" lon="6.84032">
        <ele>1195</ele>
        <time>2025-08-06T16:05:36Z</time>
      </trkpt>
      <trkpt lat="47.8195" lon="6.84057">
        <ele>1194.6</ele>
        <time>2025-08-06T16:05:41Z</time>
      </trkpt>
      <trkpt lat="47.81943" lon="6.84063">
        <ele>1194.2</ele>
        <time>2025-08-06T16:05:42Z</time>
      </trkpt>
      <trkpt lat="47.81901" lon="6.84096">
        <ele>1193.4</ele>
        <time>2025-08-06T16:05:48Z</time>
      </trkpt>
      <trkpt lat="47.81893" lon="6.84103">
        <ele>1193</ele>
        <time>2025-08-06T16:05:49Z</time>
      </trkpt>
      <trkpt lat="47.81868" lon="6.84124">
        <ele>1192</ele>
        <time>2025-08-06T16:05:52Z</time>
      </trkpt>
      <trkpt lat="47.81849" lon="6.84138">
        <ele>1191</ele>
        <time>2025-08-06T16:05:54Z</time>
      </trkpt>
      <trkpt lat="47.81828" lon="6.84151">
        <ele>1189.6</ele>
        <time>2025-08-06T16:05:56Z</time>
      </trkpt>
      <trkpt lat="47.81806" lon="6.84164">
        <ele>1188</ele>
        <time>2025-08-06T16:05:58Z</time>
      </trkpt>
      <trkpt lat="47.81794" lon="6.84171">
        <ele>1186.8</ele>
        <time>2025-08-06T16:05:59Z</time>
      </trkpt>
      <trkpt lat="47.81783" lon="6.84177">
        <ele>1186.2</ele>
        <time>2025-08-06T16:06:00Z</time>
      </trkpt>
      <trkpt lat="47.81771" lon="6.84183">
        <ele>1185.2</ele>
        <time>2025-08-06T16:06:01Z</time>
      </trkpt>
      <trkpt lat="47.81748" lon="6.84195">
        <ele>1183.8</ele>
        <time>2025-08-06T16:06:03Z</time>
      </trkpt>
      <trkpt lat="47.81736" lon="6.84201">
        <ele>1182.2</ele>
        <time>2025-08-06T16:06:04Z</time>
      </trkpt>
      <trkpt lat="47.8171" lon="6.84211">
        <ele>1180.2</ele>
        <time>2025-08-06T16:06:06Z</time>
      </trkpt>
      <trkpt lat="47.81684" lon="6.84218">
        <ele>1179.2</ele>
        <time>2025-08-06T16:06:08Z</time>
      </trkpt>
      <trkpt lat="47.81671" lon="6.84221">
        <ele>1178.2</ele>
        <time>2025-08-06T16:06:09Z</time>
      </trkpt>
      <trkpt lat="47.81644" lon="6.84225">
        <ele>1176.6</ele>
        <time>2025-08-06T16:06:11Z</time>
      </trkpt>
      <trkpt lat="47.81617" lon="6.84227">
        <ele>1175</ele>
        <time>2025-08-06T16:06:13Z</time>
      </trkpt>
      <trkpt lat="47.81591" lon="6.84229">
        <ele>1172.6</ele>
        <time>2025-08-06T16:06:15Z</time>
      </trkpt>
      <trkpt lat="47.81578" lon="6.8423">
        <ele>1171.2</ele>
        <time>2025-08-06T16:06:16Z</time>
      </trkpt>
      <trkpt lat="47.81553" lon="6.84231">
        <ele>1169.2</ele>
        <time>2025-08-06T16:06:18Z</time>
      </trkpt>
      <trkpt lat="47.81529" lon="6.84233">
        <ele>1168</ele>
        <time>2025-08-06T16:06:20Z</time>
      </trkpt>
      <trkpt lat="47.81505" lon="6.84235">
        <ele>1166.8</ele>
        <time>2025-08-06T16:06:22Z</time>
      </trkpt>
      <trkpt lat="47.81482" lon="6.84235">
        <ele>1165.6</ele>
        <time>2025-08-06T16:06:24Z</time>
      </trkpt>
      <trkpt lat="47.81471" lon="6.84233">
        <ele>1164.8</ele>
        <time>2025-08-06T16:06:25Z</time>
      </trkpt>
      <trkpt lat="47.81461" lon="6.8423">
        <ele>1164.6</ele>
        <time>2025-08-06T16:06:26Z</time>
      </trkpt>
      <trkpt lat="47.8145" lon="6.84225">
        <ele>1164.4</ele>
        <time>2025-08-06T16:06:27Z</time>
      </trkpt>
      <trkpt lat="47.81441" lon="6.84219">
        <ele>1164.2</ele>
        <time>2025-08-06T16:06:28Z</time>
      </trkpt>
      <trkpt lat="47.81432" lon="6.84211">
        <ele>1163.8</ele>
        <time>2025-08-06T16:06:29Z</time>
      </trkpt>
      <trkpt lat="47.81423" lon="6.84202">
        <ele>1163.4</ele>
        <time>2025-08-06T16:06:30Z</time>
      </trkpt>
      <trkpt lat="47.81406" lon="6.84184">
        <ele>1163</ele>
        <time>2025-08-06T16:06:32Z</time>
      </trkpt>
      <trkpt lat="47.81382" lon="6.84158">
        <ele>1162.4</ele>
        <time>2025-08-06T16:06:35Z</time>
      </trkpt>
      <trkpt lat="47.81358" lon="6.84133">
        <ele>1162.2</ele>
        <time>2025-08-06T16:06:38Z</time>
      </trkpt>
      <trkpt lat="47.81313" lon="6.84089">
        <ele>1161.4</ele>
        <time>2025-08-06T16:06:44Z</time>
      </trkpt>
      <trkpt lat="47.81305" lon="6.84082">
        <ele>1161.4</ele>
        <time>2025-08-06T16:06:45Z</time>
      </trkpt>
      <trkpt lat="47.81255" lon="6.84036">
        <ele>1160.2</ele>
        <time>2025-08-06T16:06:51Z</time>
      </trkpt>
      <trkpt lat="47.81246" lon="6.84027">
        <ele>1160</ele>
        <time>2025-08-06T16:06:52Z</time>
      </trkpt>
      <trkpt lat="47.81212" lon="6.83992">
        <ele>1158.8</ele>
        <time>2025-08-06T16:06:56Z</time>
      </trkpt>
      <trkpt lat="47.81183" lon="6.83969">
        <ele>1157</ele>
        <time>2025-08-06T16:06:59Z</time>
      </trkpt>
      <trkpt lat="47.81163" lon="6.83956">
        <ele>1156</ele>
        <time>2025-08-06T16:07:01Z</time>
      </trkpt>
      <trkpt lat="47.81142" lon="6.83944">
        <ele>1155</ele>
        <time>2025-08-06T16:07:03Z</time>
      </trkpt>
      <trkpt lat="47.81121" lon="6.83934">
        <ele>1154</ele>
        <time>2025-08-06T16:07:05Z</time>
      </trkpt>
      <trkpt lat="47.81098" lon="6.83928">
        <ele>1152.8</ele>
        <time>2025-08-06T16:07:07Z</time>
      </trkpt>
      <trkpt lat="47.81076" lon="6.83925">
        <ele>1151.4</ele>
        <time>2025-08-06T16:07:09Z</time>
      </trkpt>
      <trkpt lat="47.81064" lon="6.83925">
        <ele>1150.4</ele>
        <time>2025-08-06T16:07:10Z</time>
      </trkpt>
      <trkpt lat="47.81053" lon="6.83926">
        <ele>1150.2</ele>
        <time>2025-08-06T16:07:11Z</time>
      </trkpt>
      <trkpt lat="47.81031" lon="6.83933">
        <ele>1148.4</ele>
        <time>2025-08-06T16:07:13Z</time>
      </trkpt>
      <trkpt lat="47.8102" lon="6.83938">
        <ele>1148</ele>
        <time>2025-08-06T16:07:14Z</time>
      </trkpt>
      <trkpt lat="47.81009" lon="6.83944">
        <ele>1147.4</ele>
        <time>2025-08-06T16:07:15Z</time>
      </trkpt>
      <trkpt lat="47.80988" lon="6.83957">
        <ele>1146.2</ele>
        <time>2025-08-06T16:07:17Z</time>
      </trkpt>
      <trkpt lat="47.80969" lon="6.83971">
        <ele>1144.8</ele>
        <time>2025-08-06T16:07:19Z</time>
      </trkpt>
      <trkpt lat="47.80955" lon="6.83993">
        <ele>1143.6</ele>
        <time>2025-08-06T16:07:21Z</time>
      </trkpt>
      <trkpt lat="47.80951" lon="6.84007">
        <ele>1143</ele>
        <time>2025-08-06T16:07:22Z</time>
      </trkpt>
      <trkpt lat="47.80947" lon="6.84022">
        <ele>1142.4</ele>
        <time>2025-08-06T16:07:23Z</time>
      </trkpt>
      <trkpt lat="47.80944" lon="6.84055">
        <ele>1140.6</ele>
        <time>2025-08-06T16:07:25Z</time>
      </trkpt>
      <trkpt lat="47.80945" lon="6.84089">
        <ele>1139.4</ele>
        <time>2025-08-06T16:07:27Z</time>
      </trkpt>
      <trkpt lat="47.80948" lon="6.84105">
        <ele>1139</ele>
        <time>2025-08-06T16:07:28Z</time>
      </trkpt>
      <trkpt lat="47.80951" lon="6.84121">
        <ele>1138.6</ele>
        <time>2025-08-06T16:07:29Z</time>
      </trkpt>
      <trkpt lat="47.80956" lon="6.84137">
        <ele>1137.8</ele>
        <time>2025-08-06T16:07:30Z</time>
      </trkpt>
      <trkpt lat="47.80961" lon="6.84152">
        <ele>1137.2</ele>
        <time>2025-08-06T16:07:31Z</time>
      </trkpt>
      <trkpt lat="47.80967" lon="6.84164">
        <ele>1136</ele>
        <time>2025-08-06T16:07:32Z</time>
      </trkpt>
      <trkpt lat="47.80982" lon="6.84185">
        <ele>1135</ele>
        <time>2025-08-06T16:07:34Z</time>
      </trkpt>
      <trkpt lat="47.80992" lon="6.84192">
        <ele>1134.6</ele>
        <time>2025-08-06T16:07:35Z</time>
      </trkpt>
      <trkpt lat="47.8101" lon="6.84202">
        <ele>1133</ele>
        <time>2025-08-06T16:07:37Z</time>
      </trkpt>
      <trkpt lat="47.8102" lon="6.84212">
        <ele>1132.8</ele>
        <time>2025-08-06T16:07:38Z</time>
      </trkpt>
      <trkpt lat="47.81025" lon="6.84226">
        <ele>1131.8</ele>
        <time>2025-08-06T16:07:39Z</time>
      </trkpt>
      <trkpt lat="47.81026" lon="6.84237">
        <ele>1131.6</ele>
        <time>2025-08-06T16:07:40Z</time>
      </trkpt>
      <trkpt lat="47.81025" lon="6.84269">
        <ele>1130.8</ele>
        <time>2025-08-06T16:07:42Z</time>
      </trkpt>
      <trkpt lat="47.81025" lon="6.84288">
        <ele>1129.6</ele>
        <time>2025-08-06T16:07:43Z</time>
      </trkpt>
      <trkpt lat="47.81027" lon="6.84321">
        <ele>1128.4</ele>
        <time>2025-08-06T16:07:45Z</time>
      </trkpt>
      <trkpt lat="47.81029" lon="6.84355">
        <ele>1127</ele>
        <time>2025-08-06T16:07:47Z</time>
      </trkpt>
      <trkpt lat="47.81031" lon="6.84389">
        <ele>1125.6</ele>
        <time>2025-08-06T16:07:49Z</time>
      </trkpt>
      <trkpt lat="47.81032" lon="6.84419">
        <ele>1124.2</ele>
        <time>2025-08-06T16:07:51Z</time>
      </trkpt>
      <trkpt lat="47.81033" lon="6.84453">
        <ele>1123.2</ele>
        <time>2025-08-06T16:07:53Z</time>
      </trkpt>
      <trkpt lat="47.81031" lon="6.84492">
        <ele>1122.4</ele>
        <time>2025-08-06T16:07:55Z</time>
      </trkpt>
      <trkpt lat="47.8103" lon="6.84509">
        <ele>1121.6</ele>
        <time>2025-08-06T16:07:56Z</time>
      </trkpt>
      <trkpt lat="47.81026" lon="6.84545">
        <ele>1120</ele>
        <time>2025-08-06T16:07:58Z</time>
      </trkpt>
      <trkpt lat="47.81022" lon="6.8458">
        <ele>1119</ele>
        <time>2025-08-06T16:08:00Z</time>
      </trkpt>
      <trkpt lat="47.8102" lon="6.84597">
        <ele>1118.6</ele>
        <time>2025-08-06T16:08:01Z</time>
      </trkpt>
      <trkpt lat="47.81016" lon="6.84613">
        <ele>1118</ele>
        <time>2025-08-06T16:08:02Z</time>
      </trkpt>
      <trkpt lat="47.81011" lon="6.84629">
        <ele>1116.8</ele>
        <time>2025-08-06T16:08:03Z</time>
      </trkpt>
      <trkpt lat="47.80998" lon="6.84658">
        <ele>1115</ele>
        <time>2025-08-06T16:08:05Z</time>
      </trkpt>
      <trkpt lat="47.80989" lon="6.8467">
        <ele>1114.6</ele>
        <time>2025-08-06T16:08:06Z</time>
      </trkpt>
      <trkpt lat="47.8098" lon="6.84681">
        <ele>1114</ele>
        <time>2025-08-06T16:08:07Z</time>
      </trkpt>
      <trkpt lat="47.80958" lon="6.84694">
        <ele>1112.6</ele>
        <time>2025-08-06T16:08:09Z</time>
      </trkpt>
      <trkpt lat="47.80934" lon="6.84699">
        <ele>1111.6</ele>
        <time>2025-08-06T16:08:11Z</time>
      </trkpt>
      <trkpt lat="47.8091" lon="6.84704">
        <ele>1110.4</ele>
        <time>2025-08-06T16:08:13Z</time>
      </trkpt>
      <trkpt lat="47.80886" lon="6.84713">
        <ele>1108.4</ele>
        <time>2025-08-06T16:08:15Z</time>
      </trkpt>
      <trkpt lat="47.80862" lon="6.84725">
        <ele>1107</ele>
        <time>2025-08-06T16:08:17Z</time>
      </trkpt>
      <trkpt lat="47.80826" lon="6.84744">
        <ele>1105.2</ele>
        <time>2025-08-06T16:08:20Z</time>
      </trkpt>
      <trkpt lat="47.80814" lon="6.84748">
        <ele>1104.8</ele>
        <time>2025-08-06T16:08:21Z</time>
      </trkpt>
      <trkpt lat="47.80802" lon="6.84751">
        <ele>1103.6</ele>
        <time>2025-08-06T16:08:22Z</time>
      </trkpt>
      <trkpt lat="47.8079" lon="6.84753">
        <ele>1102.2</ele>
        <time>2025-08-06T16:08:24Z</time>
      </trkpt>
      <trkpt lat="47.80765" lon="6.84754">
        <ele>1101.4</ele>
        <time>2025-08-06T16:08:25Z</time>
      </trkpt>
      <trkpt lat="47.80752" lon="6.84753">
        <ele>1100.2</ele>
        <time>2025-08-06T16:08:26Z</time>
      </trkpt>
      <trkpt lat="47.80728" lon="6.84751">
        <ele>1099</ele>
        <time>2025-08-06T16:08:28Z</time>
      </trkpt>
      <trkpt lat="47.80716" lon="6.84748">
        <ele>1098</ele>
        <time>2025-08-06T16:08:29Z</time>
      </trkpt>
      <trkpt lat="47.80704" lon="6.84745">
        <ele>1097.4</ele>
        <time>2025-08-06T16:08:30Z</time>
      </trkpt>
      <trkpt lat="47.80692" lon="6.8474">
        <ele>1096.6</ele>
        <time>2025-08-06T16:08:31Z</time>
      </trkpt>
      <trkpt lat="47.80669" lon="6.84728">
        <ele>1095.2</ele>
        <time>2025-08-06T16:08:33Z</time>
      </trkpt>
      <trkpt lat="47.80647" lon="6.84716">
        <ele>1093.8</ele>
        <time>2025-08-06T16:08:35Z</time>
      </trkpt>
      <trkpt lat="47.80623" lon="6.84702">
        <ele>1092.8</ele>
        <time>2025-08-06T16:08:37Z</time>
      </trkpt>
      <trkpt lat="47.806" lon="6.8469">
        <ele>1091</ele>
        <time>2025-08-06T16:08:39Z</time>
      </trkpt>
      <trkpt lat="47.80577" lon="6.84682">
        <ele>1089.6</ele>
        <time>2025-08-06T16:08:41Z</time>
      </trkpt>
      <trkpt lat="47.80567" lon="6.84679">
        <ele>1089.2</ele>
        <time>2025-08-06T16:08:42Z</time>
      </trkpt>
      <trkpt lat="47.80557" lon="6.84677">
        <ele>1088</ele>
        <time>2025-08-06T16:08:43Z</time>
      </trkpt>
      <trkpt lat="47.8054" lon="6.84672">
        <ele>1086.4</ele>
        <time>2025-08-06T16:08:45Z</time>
      </trkpt>
      <trkpt lat="47.8053" lon="6.84659">
        <ele>1084.8</ele>
        <time>2025-08-06T16:08:47Z</time>
      </trkpt>
      <trkpt lat="47.80528" lon="6.8465">
        <ele>1083.8</ele>
        <time>2025-08-06T16:08:48Z</time>
      </trkpt>
      <trkpt lat="47.8053" lon="6.84643">
        <ele>1083.2</ele>
        <time>2025-08-06T16:08:49Z</time>
      </trkpt>
      <trkpt lat="47.80535" lon="6.84642">
        <ele>1082.6</ele>
        <time>2025-08-06T16:08:50Z</time>
      </trkpt>
      <trkpt lat="47.8054" lon="6.84643">
        <ele>1082.2</ele>
        <time>2025-08-06T16:08:51Z</time>
      </trkpt>
      <trkpt lat="47.80546" lon="6.84646">
        <ele>1082.2</ele>
        <time>2025-08-06T16:08:52Z</time>
      </trkpt>
      <trkpt lat="47.80569" lon="6.84656">
        <ele>1081.6</ele>
        <time>2025-08-06T16:08:55Z</time>
      </trkpt>
      <trkpt lat="47.80606" lon="6.84667">
        <ele>1080.6</ele>
        <time>2025-08-06T16:08:59Z</time>
      </trkpt>
      <trkpt lat="47.80634" lon="6.84669">
        <ele>1079.4</ele>
        <time>2025-08-06T16:09:02Z</time>
      </trkpt>
      <trkpt lat="47.80654" lon="6.8467">
        <ele>1078.4</ele>
        <time>2025-08-06T16:09:04Z</time>
      </trkpt>
      <trkpt lat="47.80688" lon="6.8467">
        <ele>1077</ele>
        <time>2025-08-06T16:09:07Z</time>
      </trkpt>
      <trkpt lat="47.80711" lon="6.84667">
        <ele>1076</ele>
        <time>2025-08-06T16:09:09Z</time>
      </trkpt>
      <trkpt lat="47.80722" lon="6.84666">
        <ele>1075.4</ele>
        <time>2025-08-06T16:09:10Z</time>
      </trkpt>
      <trkpt lat="47.80756" lon="6.8466">
        <ele>1074.2</ele>
        <time>2025-08-06T16:09:13Z</time>
      </trkpt>
      <trkpt lat="47.8078" lon="6.84648">
        <ele>1073.4</ele>
        <time>2025-08-06T16:09:15Z</time>
      </trkpt>
      <trkpt lat="47.80789" lon="6.84639">
        <ele>1072.6</ele>
        <time>2025-08-06T16:09:16Z</time>
      </trkpt>
      <trkpt lat="47.80806" lon="6.84615">
        <ele>1071.6</ele>
        <time>2025-08-06T16:09:18Z</time>
      </trkpt>
      <trkpt lat="47.80823" lon="6.84591">
        <ele>1070.4</ele>
        <time>2025-08-06T16:09:20Z</time>
      </trkpt>
      <trkpt lat="47.80832" lon="6.8458">
        <ele>1069.4</ele>
        <time>2025-08-06T16:09:21Z</time>
      </trkpt>
      <trkpt lat="47.80841" lon="6.84569">
        <ele>1068.8</ele>
        <time>2025-08-06T16:09:22Z</time>
      </trkpt>
      <trkpt lat="47.80859" lon="6.84548">
        <ele>1067.6</ele>
        <time>2025-08-06T16:09:24Z</time>
      </trkpt>
      <trkpt lat="47.80875" lon="6.84528">
        <ele>1065.8</ele>
        <time>2025-08-06T16:09:26Z</time>
      </trkpt>
      <trkpt lat="47.8089" lon="6.84509">
        <ele>1064.4</ele>
        <time>2025-08-06T16:09:28Z</time>
      </trkpt>
      <trkpt lat="47.80896" lon="6.84501">
        <ele>1063.8</ele>
        <time>2025-08-06T16:09:29Z</time>
      </trkpt>
      <trkpt lat="47.80902" lon="6.84492">
        <ele>1063.6</ele>
        <time>2025-08-06T16:09:30Z</time>
      </trkpt>
      <trkpt lat="47.80906" lon="6.84482">
        <ele>1062.6</ele>
        <time>2025-08-06T16:09:31Z</time>
      </trkpt>
      <trkpt lat="47.80908" lon="6.84472">
        <ele>1062.2</ele>
        <time>2025-08-06T16:09:32Z</time>
      </trkpt>
      <trkpt lat="47.80908" lon="6.84462">
        <ele>1061.2</ele>
        <time>2025-08-06T16:09:33Z</time>
      </trkpt>
      <trkpt lat="47.80905" lon="6.84452">
        <ele>1060.8</ele>
        <time>2025-08-06T16:09:34Z</time>
      </trkpt>
      <trkpt lat="47.809" lon="6.84446">
        <ele>1060.4</ele>
        <time>2025-08-06T16:09:35Z</time>
      </trkpt>
      <trkpt lat="47.80895" lon="6.84447">
        <ele>1059.6</ele>
        <time>2025-08-06T16:09:36Z</time>
      </trkpt>
      <trkpt lat="47.80889" lon="6.84454">
        <ele>1059.4</ele>
        <time>2025-08-06T16:09:37Z</time>
      </trkpt>
      <trkpt lat="47.80874" lon="6.84486">
        <ele>1058.4</ele>
        <time>2025-08-06T16:09:40Z</time>
      </trkpt>
      <trkpt lat="47.80859" lon="6.84505">
        <ele>1057.8</ele>
        <time>2025-08-06T16:09:42Z</time>
      </trkpt>
      <trkpt lat="47.80849" lon="6.84513">
        <ele>1057.2</ele>
        <time>2025-08-06T16:09:43Z</time>
      </trkpt>
      <trkpt lat="47.80822" lon="6.84533">
        <ele>1056.2</ele>
        <time>2025-08-06T16:09:46Z</time>
      </trkpt>
      <trkpt lat="47.80812" lon="6.84541">
        <ele>1056</ele>
        <time>2025-08-06T16:09:47Z</time>
      </trkpt>
      <trkpt lat="47.80803" lon="6.8455">
        <ele>1055.2</ele>
        <time>2025-08-06T16:09:48Z</time>
      </trkpt>
      <trkpt lat="47.80795" lon="6.84559">
        <ele>1055</ele>
        <time>2025-08-06T16:09:49Z</time>
      </trkpt>
      <trkpt lat="47.80777" lon="6.84577">
        <ele>1054.2</ele>
        <time>2025-08-06T16:09:51Z</time>
      </trkpt>
      <trkpt lat="47.80767" lon="6.84584">
        <ele>1053.6</ele>
        <time>2025-08-06T16:09:52Z</time>
      </trkpt>
      <trkpt lat="47.80756" lon="6.84589">
        <ele>1053.2</ele>
        <time>2025-08-06T16:09:53Z</time>
      </trkpt>
      <trkpt lat="47.80735" lon="6.84592">
        <ele>1052.2</ele>
        <time>2025-08-06T16:09:55Z</time>
      </trkpt>
      <trkpt lat="47.80713" lon="6.84585">
        <ele>1051.2</ele>
        <time>2025-08-06T16:09:57Z</time>
      </trkpt>
      <trkpt lat="47.80692" lon="6.8458">
        <ele>1050</ele>
        <time>2025-08-06T16:09:59Z</time>
      </trkpt>
      <trkpt lat="47.8066" lon="6.84574">
        <ele>1048.4</ele>
        <time>2025-08-06T16:10:02Z</time>
      </trkpt>
      <trkpt lat="47.80629" lon="6.84563">
        <ele>1047</ele>
        <time>2025-08-06T16:10:05Z</time>
      </trkpt>
      <trkpt lat="47.80619" lon="6.84557">
        <ele>1046.6</ele>
        <time>2025-08-06T16:10:06Z</time>
      </trkpt>
      <trkpt lat="47.80608" lon="6.84551">
        <ele>1045.6</ele>
        <time>2025-08-06T16:10:07Z</time>
      </trkpt>
      <trkpt lat="47.80588" lon="6.84537">
        <ele>1044.4</ele>
        <time>2025-08-06T16:10:09Z</time>
      </trkpt>
      <trkpt lat="47.80567" lon="6.84522">
        <ele>1043.2</ele>
        <time>2025-08-06T16:10:11Z</time>
      </trkpt>
      <trkpt lat="47.80557" lon="6.84515">
        <ele>1042.4</ele>
        <time>2025-08-06T16:10:12Z</time>
      </trkpt>
      <trkpt lat="47.80547" lon="6.84507">
        <ele>1042.2</ele>
        <time>2025-08-06T16:10:13Z</time>
      </trkpt>
      <trkpt lat="47.80526" lon="6.84489">
        <ele>1041</ele>
        <time>2025-08-06T16:10:15Z</time>
      </trkpt>
      <trkpt lat="47.80505" lon="6.84472">
        <ele>1039.2</ele>
        <time>2025-08-06T16:10:17Z</time>
      </trkpt>
      <trkpt lat="47.80495" lon="6.84462">
        <ele>1038.8</ele>
        <time>2025-08-06T16:10:18Z</time>
      </trkpt>
      <trkpt lat="47.80484" lon="6.84454">
        <ele>1038</ele>
        <time>2025-08-06T16:10:19Z</time>
      </trkpt>
      <trkpt lat="47.80461" lon="6.84437">
        <ele>1036.8</ele>
        <time>2025-08-06T16:10:21Z</time>
      </trkpt>
      <trkpt lat="47.80449" lon="6.84431">
        <ele>1036</ele>
        <time>2025-08-06T16:10:22Z</time>
      </trkpt>
      <trkpt lat="47.80437" lon="6.84425">
        <ele>1035.4</ele>
        <time>2025-08-06T16:10:23Z</time>
      </trkpt>
      <trkpt lat="47.80413" lon="6.84415">
        <ele>1034.2</ele>
        <time>2025-08-06T16:10:25Z</time>
      </trkpt>
      <trkpt lat="47.80388" lon="6.84407">
        <ele>1033</ele>
        <time>2025-08-06T16:10:27Z</time>
      </trkpt>
      <trkpt lat="47.80363" lon="6.84401">
        <ele>1031.4</ele>
        <time>2025-08-06T16:10:29Z</time>
      </trkpt>
      <trkpt lat="47.80338" lon="6.84398">
        <ele>1029.8</ele>
        <time>2025-08-06T16:10:31Z</time>
      </trkpt>
      <trkpt lat="47.80312" lon="6.84396">
        <ele>1028.2</ele>
        <time>2025-08-06T16:10:33Z</time>
      </trkpt>
      <trkpt lat="47.80287" lon="6.84393">
        <ele>1027</ele>
        <time>2025-08-06T16:10:35Z</time>
      </trkpt>
      <trkpt lat="47.80274" lon="6.8439">
        <ele>1026</ele>
        <time>2025-08-06T16:10:36Z</time>
      </trkpt>
      <trkpt lat="47.80261" lon="6.84386">
        <ele>1025.6</ele>
        <time>2025-08-06T16:10:37Z</time>
      </trkpt>
      <trkpt lat="47.80249" lon="6.84379">
        <ele>1024.8</ele>
        <time>2025-08-06T16:10:38Z</time>
      </trkpt>
      <trkpt lat="47.80226" lon="6.84365">
        <ele>1023.6</ele>
        <time>2025-08-06T16:10:40Z</time>
      </trkpt>
      <trkpt lat="47.80214" lon="6.84359">
        <ele>1022.6</ele>
        <time>2025-08-06T16:10:41Z</time>
      </trkpt>
      <trkpt lat="47.80203" lon="6.84354">
        <ele>1022.2</ele>
        <time>2025-08-06T16:10:42Z</time>
      </trkpt>
      <trkpt lat="47.80192" lon="6.8435">
        <ele>1021</ele>
        <time>2025-08-06T16:10:43Z</time>
      </trkpt>
      <trkpt lat="47.80181" lon="6.8435">
        <ele>1020.6</ele>
        <time>2025-08-06T16:10:44Z</time>
      </trkpt>
      <trkpt lat="47.80171" lon="6.84353">
        <ele>1019.8</ele>
        <time>2025-08-06T16:10:45Z</time>
      </trkpt>
      <trkpt lat="47.80161" lon="6.84359">
        <ele>1019.2</ele>
        <time>2025-08-06T16:10:46Z</time>
      </trkpt>
      <trkpt lat="47.80155" lon="6.84367">
        <ele>1018.4</ele>
        <time>2025-08-06T16:10:47Z</time>
      </trkpt>
      <trkpt lat="47.80145" lon="6.84381">
        <ele>1017.4</ele>
        <time>2025-08-06T16:10:48Z</time>
      </trkpt>
      <trkpt lat="47.80139" lon="6.84395">
        <ele>1017.2</ele>
        <time>2025-08-06T16:10:49Z</time>
      </trkpt>
      <trkpt lat="47.80127" lon="6.84424">
        <ele>1016</ele>
        <time>2025-08-06T16:10:51Z</time>
      </trkpt>
      <trkpt lat="47.80121" lon="6.8444">
        <ele>1014.8</ele>
        <time>2025-08-06T16:10:52Z</time>
      </trkpt>
      <trkpt lat="47.80111" lon="6.84471">
        <ele>1013.4</ele>
        <time>2025-08-06T16:10:54Z</time>
      </trkpt>
      <trkpt lat="47.80106" lon="6.84485">
        <ele>1012.6</ele>
        <time>2025-08-06T16:10:55Z</time>
      </trkpt>
      <trkpt lat="47.80101" lon="6.845">
        <ele>1012.2</ele>
        <time>2025-08-06T16:10:56Z</time>
      </trkpt>
      <trkpt lat="47.80085" lon="6.84524">
        <ele>1011</ele>
        <time>2025-08-06T16:10:58Z</time>
      </trkpt>
      <trkpt lat="47.80066" lon="6.84543">
        <ele>1009.6</ele>
        <time>2025-08-06T16:11:00Z</time>
      </trkpt>
      <trkpt lat="47.80055" lon="6.84549">
        <ele>1009.4</ele>
        <time>2025-08-06T16:11:01Z</time>
      </trkpt>
      <trkpt lat="47.80044" lon="6.84554">
        <ele>1008.8</ele>
        <time>2025-08-06T16:11:02Z</time>
      </trkpt>
      <trkpt lat="47.80021" lon="6.84558">
        <ele>1008</ele>
        <time>2025-08-06T16:11:04Z</time>
      </trkpt>
      <trkpt lat="47.8001" lon="6.8456">
        <ele>1007.4</ele>
        <time>2025-08-06T16:11:05Z</time>
      </trkpt>
      <trkpt lat="47.79987" lon="6.84564">
        <ele>1006.8</ele>
        <time>2025-08-06T16:11:07Z</time>
      </trkpt>
      <trkpt lat="47.79975" lon="6.84564">
        <ele>1006.4</ele>
        <time>2025-08-06T16:11:08Z</time>
      </trkpt>
      <trkpt lat="47.7995" lon="6.84558">
        <ele>1005.6</ele>
        <time>2025-08-06T16:11:10Z</time>
      </trkpt>
      <trkpt lat="47.79939" lon="6.84552">
        <ele>1005</ele>
        <time>2025-08-06T16:11:11Z</time>
      </trkpt>
      <trkpt lat="47.79928" lon="6.84543">
        <ele>1003.8</ele>
        <time>2025-08-06T16:11:12Z</time>
      </trkpt>
      <trkpt lat="47.79919" lon="6.84533">
        <ele>1003.2</ele>
        <time>2025-08-06T16:11:13Z</time>
      </trkpt>
      <trkpt lat="47.79909" lon="6.84521">
        <ele>1002.4</ele>
        <time>2025-08-06T16:11:14Z</time>
      </trkpt>
      <trkpt lat="47.79891" lon="6.84496">
        <ele>1001</ele>
        <time>2025-08-06T16:11:16Z</time>
      </trkpt>
      <trkpt lat="47.79881" lon="6.84483">
        <ele>1000.2</ele>
        <time>2025-08-06T16:11:17Z</time>
      </trkpt>
      <trkpt lat="47.79872" lon="6.8447">
        <ele>999.8</ele>
        <time>2025-08-06T16:11:18Z</time>
      </trkpt>
      <trkpt lat="47.79863" lon="6.84457">
        <ele>998.6</ele>
        <time>2025-08-06T16:11:19Z</time>
      </trkpt>
      <trkpt lat="47.79845" lon="6.84432">
        <ele>997.6</ele>
        <time>2025-08-06T16:11:21Z</time>
      </trkpt>
      <trkpt lat="47.79826" lon="6.84407">
        <ele>996.4</ele>
        <time>2025-08-06T16:11:23Z</time>
      </trkpt>
      <trkpt lat="47.79816" lon="6.84395">
        <ele>995.8</ele>
        <time>2025-08-06T16:11:24Z</time>
      </trkpt>
      <trkpt lat="47.79806" lon="6.84385">
        <ele>995.4</ele>
        <time>2025-08-06T16:11:25Z</time>
      </trkpt>
      <trkpt lat="47.79783" lon="6.84368">
        <ele>994</ele>
        <time>2025-08-06T16:11:27Z</time>
      </trkpt>
      <trkpt lat="47.79772" lon="6.8436">
        <ele>993</ele>
        <time>2025-08-06T16:11:28Z</time>
      </trkpt>
      <trkpt lat="47.79749" lon="6.84344">
        <ele>991.8</ele>
        <time>2025-08-06T16:11:30Z</time>
      </trkpt>
      <trkpt lat="47.79727" lon="6.84328">
        <ele>990.6</ele>
        <time>2025-08-06T16:11:32Z</time>
      </trkpt>
      <trkpt lat="47.79716" lon="6.8432">
        <ele>989.4</ele>
        <time>2025-08-06T16:11:33Z</time>
      </trkpt>
      <trkpt lat="47.79694" lon="6.84304">
        <ele>988</ele>
        <time>2025-08-06T16:11:35Z</time>
      </trkpt>
      <trkpt lat="47.79673" lon="6.84288">
        <ele>986.6</ele>
        <time>2025-08-06T16:11:37Z</time>
      </trkpt>
      <trkpt lat="47.79664" lon="6.8428">
        <ele>985.6</ele>
        <time>2025-08-06T16:11:38Z</time>
      </trkpt>
      <trkpt lat="47.79656" lon="6.84272">
        <ele>985.2</ele>
        <time>2025-08-06T16:11:39Z</time>
      </trkpt>
      <trkpt lat="47.7965" lon="6.84264">
        <ele>984</ele>
        <time>2025-08-06T16:11:40Z</time>
      </trkpt>
      <trkpt lat="47.79645" lon="6.84257">
        <ele>982.8</ele>
        <time>2025-08-06T16:11:41Z</time>
      </trkpt>
      <trkpt lat="47.79641" lon="6.84248">
        <ele>982.4</ele>
        <time>2025-08-06T16:11:42Z</time>
      </trkpt>
      <trkpt lat="47.79639" lon="6.84239">
        <ele>981.2</ele>
        <time>2025-08-06T16:11:43Z</time>
      </trkpt>
      <trkpt lat="47.79636" lon="6.84222">
        <ele>979.6</ele>
        <time>2025-08-06T16:11:45Z</time>
      </trkpt>
      <trkpt lat="47.7964" lon="6.84219">
        <ele>979.2</ele>
        <time>2025-08-06T16:11:46Z</time>
      </trkpt>
      <trkpt lat="47.79647" lon="6.84226">
        <ele>978</ele>
        <time>2025-08-06T16:11:48Z</time>
      </trkpt>
      <trkpt lat="47.79652" lon="6.84237">
        <ele>977.8</ele>
        <time>2025-08-06T16:11:49Z</time>
      </trkpt>
      <trkpt lat="47.79665" lon="6.84256">
        <ele>977.2</ele>
        <time>2025-08-06T16:11:51Z</time>
      </trkpt>
      <trkpt lat="47.79673" lon="6.84264">
        <ele>977</ele>
        <time>2025-08-06T16:11:52Z</time>
      </trkpt>
      <trkpt lat="47.79682" lon="6.84271">
        <ele>976.6</ele>
        <time>2025-08-06T16:11:53Z</time>
      </trkpt>
      <trkpt lat="47.79691" lon="6.84277">
        <ele>976.4</ele>
        <time>2025-08-06T16:11:54Z</time>
      </trkpt>
      <trkpt lat="47.79711" lon="6.84286">
        <ele>975.6</ele>
        <time>2025-08-06T16:11:56Z</time>
      </trkpt>
      <trkpt lat="47.79722" lon="6.84289">
        <ele>975</ele>
        <time>2025-08-06T16:11:57Z</time>
      </trkpt>
      <trkpt lat="47.79741" lon="6.84299">
        <ele>974.4</ele>
        <time>2025-08-06T16:11:59Z</time>
      </trkpt>
      <trkpt lat="47.79769" lon="6.84309">
        <ele>973.2</ele>
        <time>2025-08-06T16:12:02Z</time>
      </trkpt>
      <trkpt lat="47.79779" lon="6.84311">
        <ele>973</ele>
        <time>2025-08-06T16:12:03Z</time>
      </trkpt>
      <trkpt lat="47.79798" lon="6.84315">
        <ele>972.2</ele>
        <time>2025-08-06T16:12:05Z</time>
      </trkpt>
      <trkpt lat="47.79818" lon="6.84319">
        <ele>971.8</ele>
        <time>2025-08-06T16:12:07Z</time>
      </trkpt>
      <trkpt lat="47.79827" lon="6.84323">
        <ele>971.8</ele>
        <time>2025-08-06T16:12:08Z</time>
      </trkpt>
      <trkpt lat="47.79836" lon="6.84328">
        <ele>971.2</ele>
        <time>2025-08-06T16:12:09Z</time>
      </trkpt>
      <trkpt lat="47.79845" lon="6.84335">
        <ele>970.8</ele>
        <time>2025-08-06T16:12:10Z</time>
      </trkpt>
      <trkpt lat="47.79865" lon="6.84351">
        <ele>969.8</ele>
        <time>2025-08-06T16:12:12Z</time>
      </trkpt>
      <trkpt lat="47.7991" lon="6.84388">
        <ele>968.2</ele>
        <time>2025-08-06T16:12:16Z</time>
      </trkpt>
      <trkpt lat="47.79923" lon="6.84398">
        <ele>967.8</ele>
        <time>2025-08-06T16:12:17Z</time>
      </trkpt>
      <trkpt lat="47.79934" lon="6.84407">
        <ele>967</ele>
        <time>2025-08-06T16:12:18Z</time>
      </trkpt>
      <trkpt lat="47.79953" lon="6.84421">
        <ele>965.8</ele>
        <time>2025-08-06T16:12:20Z</time>
      </trkpt>
      <trkpt lat="47.79962" lon="6.84428">
        <ele>965</ele>
        <time>2025-08-06T16:12:21Z</time>
      </trkpt>
      <trkpt lat="47.79972" lon="6.84435">
        <ele>964.6</ele>
        <time>2025-08-06T16:12:22Z</time>
      </trkpt>
      <trkpt lat="47.79984" lon="6.84436">
        <ele>963.8</ele>
        <time>2025-08-06T16:12:23Z</time>
      </trkpt>
      <trkpt lat="47.79994" lon="6.84437">
        <ele>963</ele>
        <time>2025-08-06T16:12:24Z</time>
      </trkpt>
      <trkpt lat="47.80014" lon="6.84436">
        <ele>961.8</ele>
        <time>2025-08-06T16:12:26Z</time>
      </trkpt>
      <trkpt lat="47.8003" lon="6.84426">
        <ele>960.8</ele>
        <time>2025-08-06T16:12:28Z</time>
      </trkpt>
      <trkpt lat="47.80036" lon="6.84417">
        <ele>960.4</ele>
        <time>2025-08-06T16:12:29Z</time>
      </trkpt>
      <trkpt lat="47.80041" lon="6.84406">
        <ele>959.8</ele>
        <time>2025-08-06T16:12:30Z</time>
      </trkpt>
      <trkpt lat="47.80044" lon="6.84393">
        <ele>959.4</ele>
        <time>2025-08-06T16:12:31Z</time>
      </trkpt>
      <trkpt lat="47.80047" lon="6.84379">
        <ele>959.4</ele>
        <time>2025-08-06T16:12:32Z</time>
      </trkpt>
      <trkpt lat="47.80049" lon="6.84365">
        <ele>959.2</ele>
        <time>2025-08-06T16:12:33Z</time>
      </trkpt>
      <trkpt lat="47.80051" lon="6.8435">
        <ele>959</ele>
        <time>2025-08-06T16:12:34Z</time>
      </trkpt>
      <trkpt lat="47.80057" lon="6.84304">
        <ele>958</ele>
        <time>2025-08-06T16:12:37Z</time>
      </trkpt>
      <trkpt lat="47.80062" lon="6.84272">
        <ele>957.2</ele>
        <time>2025-08-06T16:12:39Z</time>
      </trkpt>
      <trkpt lat="47.80066" lon="6.84257">
        <ele>956.4</ele>
        <time>2025-08-06T16:12:40Z</time>
      </trkpt>
      <trkpt lat="47.80077" lon="6.84227">
        <ele>955.2</ele>
        <time>2025-08-06T16:12:42Z</time>
      </trkpt>
      <trkpt lat="47.80092" lon="6.84201">
        <ele>954</ele>
        <time>2025-08-06T16:12:44Z</time>
      </trkpt>
      <trkpt lat="47.80101" lon="6.84189">
        <ele>953.4</ele>
        <time>2025-08-06T16:12:45Z</time>
      </trkpt>
      <trkpt lat="47.8011" lon="6.84178">
        <ele>952.6</ele>
        <time>2025-08-06T16:12:46Z</time>
      </trkpt>
      <trkpt lat="47.80129" lon="6.84158">
        <ele>951</ele>
        <time>2025-08-06T16:12:48Z</time>
      </trkpt>
      <trkpt lat="47.80148" lon="6.8414">
        <ele>950.2</ele>
        <time>2025-08-06T16:12:50Z</time>
      </trkpt>
      <trkpt lat="47.80158" lon="6.84134">
        <ele>950</ele>
        <time>2025-08-06T16:12:51Z</time>
      </trkpt>
      <trkpt lat="47.80179" lon="6.84125">
        <ele>948.8</ele>
        <time>2025-08-06T16:12:53Z</time>
      </trkpt>
      <trkpt lat="47.80202" lon="6.84124">
        <ele>947.2</ele>
        <time>2025-08-06T16:12:55Z</time>
      </trkpt>
      <trkpt lat="47.80225" lon="6.84128">
        <ele>946</ele>
        <time>2025-08-06T16:12:57Z</time>
      </trkpt>
      <trkpt lat="47.80248" lon="6.84136">
        <ele>944.8</ele>
        <time>2025-08-06T16:12:59Z</time>
      </trkpt>
      <trkpt lat="47.8026" lon="6.84141">
        <ele>943.8</ele>
        <time>2025-08-06T16:13:00Z</time>
      </trkpt>
      <trkpt lat="47.80283" lon="6.84152">
        <ele>942.4</ele>
        <time>2025-08-06T16:13:02Z</time>
      </trkpt>
      <trkpt lat="47.80308" lon="6.84158">
        <ele>941</ele>
        <time>2025-08-06T16:13:04Z</time>
      </trkpt>
      <trkpt lat="47.80332" lon="6.84159">
        <ele>939.8</ele>
        <time>2025-08-06T16:13:06Z</time>
      </trkpt>
      <trkpt lat="47.80355" lon="6.84158">
        <ele>938.6</ele>
        <time>2025-08-06T16:13:08Z</time>
      </trkpt>
      <trkpt lat="47.8038" lon="6.84157">
        <ele>937.2</ele>
        <time>2025-08-06T16:13:10Z</time>
      </trkpt>
      <trkpt lat="47.80406" lon="6.84159">
        <ele>935.6</ele>
        <time>2025-08-06T16:13:12Z</time>
      </trkpt>
      <trkpt lat="47.80432" lon="6.84162">
        <ele>933.6</ele>
        <time>2025-08-06T16:13:14Z</time>
      </trkpt>
      <trkpt lat="47.80458" lon="6.84167">
        <ele>932.2</ele>
        <time>2025-08-06T16:13:16Z</time>
      </trkpt>
      <trkpt lat="47.80481" lon="6.84171">
        <ele>930.6</ele>
        <time>2025-08-06T16:13:18Z</time>
      </trkpt>
      <trkpt lat="47.80492" lon="6.84175">
        <ele>929.4</ele>
        <time>2025-08-06T16:13:19Z</time>
      </trkpt>
      <trkpt lat="47.80509" lon="6.84183">
        <ele>927.8</ele>
        <time>2025-08-06T16:13:21Z</time>
      </trkpt>
      <trkpt lat="47.80526" lon="6.84193">
        <ele>925.6</ele>
        <time>2025-08-06T16:13:23Z</time>
      </trkpt>
      <trkpt lat="47.80534" lon="6.84194">
        <ele>924.6</ele>
        <time>2025-08-06T16:13:24Z</time>
      </trkpt>
      <trkpt lat="47.80541" lon="6.84193">
        <ele>924</ele>
        <time>2025-08-06T16:13:25Z</time>
      </trkpt>
      <trkpt lat="47.80547" lon="6.8419">
        <ele>922.8</ele>
        <time>2025-08-06T16:13:26Z</time>
      </trkpt>
      <trkpt lat="47.80549" lon="6.84182">
        <ele>922.4</ele>
        <time>2025-08-06T16:13:27Z</time>
      </trkpt>
      <trkpt lat="47.80549" lon="6.84172">
        <ele>921.8</ele>
        <time>2025-08-06T16:13:28Z</time>
      </trkpt>
      <trkpt lat="47.80545" lon="6.84163">
        <ele>921.4</ele>
        <time>2025-08-06T16:13:29Z</time>
      </trkpt>
      <trkpt lat="47.80533" lon="6.84151">
        <ele>920.2</ele>
        <time>2025-08-06T16:13:31Z</time>
      </trkpt>
      <trkpt lat="47.80526" lon="6.84148">
        <ele>920</ele>
        <time>2025-08-06T16:13:32Z</time>
      </trkpt>
      <trkpt lat="47.80491" lon="6.84143">
        <ele>919.4</ele>
        <time>2025-08-06T16:13:36Z</time>
      </trkpt>
      <trkpt lat="47.80481" lon="6.84141">
        <ele>919</ele>
        <time>2025-08-06T16:13:37Z</time>
      </trkpt>
      <trkpt lat="47.8045" lon="6.84135">
        <ele>917.8</ele>
        <time>2025-08-06T16:13:40Z</time>
      </trkpt>
      <trkpt lat="47.8044" lon="6.84132">
        <ele>917.6</ele>
        <time>2025-08-06T16:13:41Z</time>
      </trkpt>
      <trkpt lat="47.8042" lon="6.84124">
        <ele>916.2</ele>
        <time>2025-08-06T16:13:43Z</time>
      </trkpt>
      <trkpt lat="47.80388" lon="6.84111">
        <ele>915</ele>
        <time>2025-08-06T16:13:46Z</time>
      </trkpt>
      <trkpt lat="47.80378" lon="6.84105">
        <ele>914.4</ele>
        <time>2025-08-06T16:13:47Z</time>
      </trkpt>
      <trkpt lat="47.80357" lon="6.84092">
        <ele>913.4</ele>
        <time>2025-08-06T16:13:49Z</time>
      </trkpt>
      <trkpt lat="47.80332" lon="6.8408">
        <ele>912.2</ele>
        <time>2025-08-06T16:13:51Z</time>
      </trkpt>
      <trkpt lat="47.80311" lon="6.84073">
        <ele>910.8</ele>
        <time>2025-08-06T16:13:53Z</time>
      </trkpt>
      <trkpt lat="47.80299" lon="6.84069">
        <ele>909.6</ele>
        <time>2025-08-06T16:13:54Z</time>
      </trkpt>
      <trkpt lat="47.80275" lon="6.84059">
        <ele>908.2</ele>
        <time>2025-08-06T16:13:56Z</time>
      </trkpt>
      <trkpt lat="47.80264" lon="6.84051">
        <ele>907.4</ele>
        <time>2025-08-06T16:13:57Z</time>
      </trkpt>
      <trkpt lat="47.80253" lon="6.84042">
        <ele>907</ele>
        <time>2025-08-06T16:13:58Z</time>
      </trkpt>
      <trkpt lat="47.80241" lon="6.84034">
        <ele>905.8</ele>
        <time>2025-08-06T16:13:59Z</time>
      </trkpt>
      <trkpt lat="47.8023" lon="6.84025">
        <ele>905.2</ele>
        <time>2025-08-06T16:14:00Z</time>
      </trkpt>
      <trkpt lat="47.80218" lon="6.84019">
        <ele>904.2</ele>
        <time>2025-08-06T16:14:01Z</time>
      </trkpt>
      <trkpt lat="47.80207" lon="6.84014">
        <ele>902.8</ele>
        <time>2025-08-06T16:14:02Z</time>
      </trkpt>
      <trkpt lat="47.80195" lon="6.84011">
        <ele>902.2</ele>
        <time>2025-08-06T16:14:03Z</time>
      </trkpt>
      <trkpt lat="47.80183" lon="6.84009">
        <ele>901.4</ele>
        <time>2025-08-06T16:14:04Z</time>
      </trkpt>
      <trkpt lat="47.80158" lon="6.84006">
        <ele>900</ele>
        <time>2025-08-06T16:14:06Z</time>
      </trkpt>
      <trkpt lat="47.80134" lon="6.84004">
        <ele>898.6</ele>
        <time>2025-08-06T16:14:08Z</time>
      </trkpt>
      <trkpt lat="47.80111" lon="6.84003">
        <ele>897.4</ele>
        <time>2025-08-06T16:14:10Z</time>
      </trkpt>
      <trkpt lat="47.801" lon="6.84003">
        <ele>895.8</ele>
        <time>2025-08-06T16:14:11Z</time>
      </trkpt>
      <trkpt lat="47.80079" lon="6.84004">
        <ele>894.2</ele>
        <time>2025-08-06T16:14:13Z</time>
      </trkpt>
      <trkpt lat="47.80069" lon="6.84007">
        <ele>893</ele>
        <time>2025-08-06T16:14:14Z</time>
      </trkpt>
      <trkpt lat="47.80051" lon="6.84019">
        <ele>891.4</ele>
        <time>2025-08-06T16:14:16Z</time>
      </trkpt>
      <trkpt lat="47.80034" lon="6.84035">
        <ele>889.8</ele>
        <time>2025-08-06T16:14:18Z</time>
      </trkpt>
      <trkpt lat="47.80014" lon="6.84042">
        <ele>889</ele>
        <time>2025-08-06T16:14:20Z</time>
      </trkpt>
      <trkpt lat="47.80004" lon="6.84043">
        <ele>888</ele>
        <time>2025-08-06T16:14:21Z</time>
      </trkpt>
      <trkpt lat="47.79996" lon="6.84046">
        <ele>887.4</ele>
        <time>2025-08-06T16:14:22Z</time>
      </trkpt>
      <trkpt lat="47.79989" lon="6.84053">
        <ele>886.2</ele>
        <time>2025-08-06T16:14:23Z</time>
      </trkpt>
      <trkpt lat="47.79983" lon="6.84063">
        <ele>886</ele>
        <time>2025-08-06T16:14:24Z</time>
      </trkpt>
      <trkpt lat="47.79979" lon="6.84075">
        <ele>885.2</ele>
        <time>2025-08-06T16:14:25Z</time>
      </trkpt>
      <trkpt lat="47.79975" lon="6.84087">
        <ele>884.6</ele>
        <time>2025-08-06T16:14:26Z</time>
      </trkpt>
      <trkpt lat="47.79971" lon="6.84098">
        <ele>884.2</ele>
        <time>2025-08-06T16:14:27Z</time>
      </trkpt>
      <trkpt lat="47.79965" lon="6.84105">
        <ele>884</ele>
        <time>2025-08-06T16:14:28Z</time>
      </trkpt>
      <trkpt lat="47.79959" lon="6.84109">
        <ele>883.4</ele>
        <time>2025-08-06T16:14:29Z</time>
      </trkpt>
      <trkpt lat="47.79952" lon="6.84109">
        <ele>882.8</ele>
        <time>2025-08-06T16:14:30Z</time>
      </trkpt>
      <trkpt lat="47.79946" lon="6.84104">
        <ele>882.6</ele>
        <time>2025-08-06T16:14:31Z</time>
      </trkpt>
      <trkpt lat="47.7994" lon="6.84095">
        <ele>881.6</ele>
        <time>2025-08-06T16:14:32Z</time>
      </trkpt>
      <trkpt lat="47.79935" lon="6.84084">
        <ele>880.4</ele>
        <time>2025-08-06T16:14:33Z</time>
      </trkpt>
      <trkpt lat="47.79923" lon="6.8406">
        <ele>879.4</ele>
        <time>2025-08-06T16:14:35Z</time>
      </trkpt>
      <trkpt lat="47.79916" lon="6.84049">
        <ele>879.2</ele>
        <time>2025-08-06T16:14:36Z</time>
      </trkpt>
      <trkpt lat="47.79908" lon="6.84038">
        <ele>878.6</ele>
        <time>2025-08-06T16:14:37Z</time>
      </trkpt>
      <trkpt lat="47.79899" lon="6.84027">
        <ele>877.8</ele>
        <time>2025-08-06T16:14:38Z</time>
      </trkpt>
      <trkpt lat="47.7989" lon="6.84018">
        <ele>877.4</ele>
        <time>2025-08-06T16:14:39Z</time>
      </trkpt>
      <trkpt lat="47.79879" lon="6.84012">
        <ele>876.2</ele>
        <time>2025-08-06T16:14:40Z</time>
      </trkpt>
      <trkpt lat="47.79868" lon="6.84008">
        <ele>875.8</ele>
        <time>2025-08-06T16:14:41Z</time>
      </trkpt>
      <trkpt lat="47.79857" lon="6.84005">
        <ele>875</ele>
        <time>2025-08-06T16:14:42Z</time>
      </trkpt>
      <trkpt lat="47.79846" lon="6.84005">
        <ele>874.8</ele>
        <time>2025-08-06T16:14:43Z</time>
      </trkpt>
      <trkpt lat="47.79835" lon="6.84004">
        <ele>874</ele>
        <time>2025-08-06T16:14:44Z</time>
      </trkpt>
      <trkpt lat="47.79826" lon="6.84001">
        <ele>873.2</ele>
        <time>2025-08-06T16:14:45Z</time>
      </trkpt>
      <trkpt lat="47.79817" lon="6.83995">
        <ele>873</ele>
        <time>2025-08-06T16:14:46Z</time>
      </trkpt>
      <trkpt lat="47.79811" lon="6.83985">
        <ele>871.8</ele>
        <time>2025-08-06T16:14:47Z</time>
      </trkpt>
      <trkpt lat="47.79805" lon="6.83973">
        <ele>871.4</ele>
        <time>2025-08-06T16:14:48Z</time>
      </trkpt>
      <trkpt lat="47.798" lon="6.8396">
        <ele>870.2</ele>
        <time>2025-08-06T16:14:49Z</time>
      </trkpt>
      <trkpt lat="47.79784" lon="6.83941">
        <ele>869</ele>
        <time>2025-08-06T16:14:51Z</time>
      </trkpt>
      <trkpt lat="47.79774" lon="6.83935">
        <ele>868</ele>
        <time>2025-08-06T16:14:52Z</time>
      </trkpt>
      <trkpt lat="47.79763" lon="6.83932">
        <ele>867.6</ele>
        <time>2025-08-06T16:14:53Z</time>
      </trkpt>
      <trkpt lat="47.79753" lon="6.83931">
        <ele>866.4</ele>
        <time>2025-08-06T16:14:54Z</time>
      </trkpt>
      <trkpt lat="47.79743" lon="6.83933">
        <ele>866</ele>
        <time>2025-08-06T16:14:55Z</time>
      </trkpt>
      <trkpt lat="47.79734" lon="6.83935">
        <ele>865</ele>
        <time>2025-08-06T16:14:56Z</time>
      </trkpt>
      <trkpt lat="47.79717" lon="6.83938">
        <ele>863.6</ele>
        <time>2025-08-06T16:14:58Z</time>
      </trkpt>
      <trkpt lat="47.79712" lon="6.83933">
        <ele>862.6</ele>
        <time>2025-08-06T16:14:59Z</time>
      </trkpt>
      <trkpt lat="47.79712" lon="6.83923">
        <ele>861.8</ele>
        <time>2025-08-06T16:15:00Z</time>
      </trkpt>
      <trkpt lat="47.79714" lon="6.83916">
        <ele>860.6</ele>
        <time>2025-08-06T16:15:01Z</time>
      </trkpt>
      <trkpt lat="47.79718" lon="6.83912">
        <ele>859.8</ele>
        <time>2025-08-06T16:15:02Z</time>
      </trkpt>
      <trkpt lat="47.79725" lon="6.8391">
        <ele>859.4</ele>
        <time>2025-08-06T16:15:03Z</time>
      </trkpt>
      <trkpt lat="47.7974" lon="6.83912">
        <ele>858.2</ele>
        <time>2025-08-06T16:15:05Z</time>
      </trkpt>
      <trkpt lat="47.79775" lon="6.83919">
        <ele>857</ele>
        <time>2025-08-06T16:15:09Z</time>
      </trkpt>
      <trkpt lat="47.79802" lon="6.83927">
        <ele>856</ele>
        <time>2025-08-06T16:15:12Z</time>
      </trkpt>
      <trkpt lat="47.79811" lon="6.83933">
        <ele>855.6</ele>
        <time>2025-08-06T16:15:13Z</time>
      </trkpt>
      <trkpt lat="47.79829" lon="6.83945">
        <ele>854.8</ele>
        <time>2025-08-06T16:15:15Z</time>
      </trkpt>
      <trkpt lat="47.7984" lon="6.83946">
        <ele>854</ele>
        <time>2025-08-06T16:15:16Z</time>
      </trkpt>
      <trkpt lat="47.79851" lon="6.83944">
        <ele>853.6</ele>
        <time>2025-08-06T16:15:17Z</time>
      </trkpt>
      <trkpt lat="47.79861" lon="6.83941">
        <ele>852.8</ele>
        <time>2025-08-06T16:15:18Z</time>
      </trkpt>
      <trkpt lat="47.79873" lon="6.83941">
        <ele>852.6</ele>
        <time>2025-08-06T16:15:19Z</time>
      </trkpt>
      <trkpt lat="47.79884" lon="6.83941">
        <ele>851.8</ele>
        <time>2025-08-06T16:15:20Z</time>
      </trkpt>
      <trkpt lat="47.79894" lon="6.83944">
        <ele>851</ele>
        <time>2025-08-06T16:15:21Z</time>
      </trkpt>
      <trkpt lat="47.79903" lon="6.83949">
        <ele>850.6</ele>
        <time>2025-08-06T16:15:22Z</time>
      </trkpt>
      <trkpt lat="47.79913" lon="6.83953">
        <ele>850.2</ele>
        <time>2025-08-06T16:15:23Z</time>
      </trkpt>
      <trkpt lat="47.79924" lon="6.83955">
        <ele>849.6</ele>
        <time>2025-08-06T16:15:24Z</time>
      </trkpt>
      <trkpt lat="47.79935" lon="6.83954">
        <ele>848.6</ele>
        <time>2025-08-06T16:15:25Z</time>
      </trkpt>
      <trkpt lat="47.79945" lon="6.8395">
        <ele>847.6</ele>
        <time>2025-08-06T16:15:26Z</time>
      </trkpt>
      <trkpt lat="47.79957" lon="6.83942">
        <ele>847.2</ele>
        <time>2025-08-06T16:15:27Z</time>
      </trkpt>
      <trkpt lat="47.79968" lon="6.83931">
        <ele>846.2</ele>
        <time>2025-08-06T16:15:28Z</time>
      </trkpt>
      <trkpt lat="47.79985" lon="6.8391">
        <ele>845</ele>
        <time>2025-08-06T16:15:30Z</time>
      </trkpt>
      <trkpt lat="47.80005" lon="6.8389">
        <ele>843.6</ele>
        <time>2025-08-06T16:15:32Z</time>
      </trkpt>
      <trkpt lat="47.80014" lon="6.83882">
        <ele>842.4</ele>
        <time>2025-08-06T16:15:33Z</time>
      </trkpt>
      <trkpt lat="47.80024" lon="6.83876">
        <ele>842</ele>
        <time>2025-08-06T16:15:34Z</time>
      </trkpt>
      <trkpt lat="47.80034" lon="6.83871">
        <ele>841</ele>
        <time>2025-08-06T16:15:35Z</time>
      </trkpt>
      <trkpt lat="47.80045" lon="6.83868">
        <ele>840.6</ele>
        <time>2025-08-06T16:15:36Z</time>
      </trkpt>
      <trkpt lat="47.80057" lon="6.83865">
        <ele>839.8</ele>
        <time>2025-08-06T16:15:37Z</time>
      </trkpt>
      <trkpt lat="47.80068" lon="6.83862">
        <ele>838.4</ele>
        <time>2025-08-06T16:15:38Z</time>
      </trkpt>
      <trkpt lat="47.80089" lon="6.83854">
        <ele>836.6</ele>
        <time>2025-08-06T16:15:40Z</time>
      </trkpt>
      <trkpt lat="47.8011" lon="6.83846">
        <ele>835.2</ele>
        <time>2025-08-06T16:15:42Z</time>
      </trkpt>
      <trkpt lat="47.80132" lon="6.83838">
        <ele>833.8</ele>
        <time>2025-08-06T16:15:44Z</time>
      </trkpt>
      <trkpt lat="47.80152" lon="6.83832">
        <ele>832.6</ele>
        <time>2025-08-06T16:15:46Z</time>
      </trkpt>
      <trkpt lat="47.80161" lon="6.83828">
        <ele>831.8</ele>
        <time>2025-08-06T16:15:47Z</time>
      </trkpt>
      <trkpt lat="47.8017" lon="6.83821">
        <ele>831.4</ele>
        <time>2025-08-06T16:15:48Z</time>
      </trkpt>
      <trkpt lat="47.80177" lon="6.83811">
        <ele>830.4</ele>
        <time>2025-08-06T16:15:49Z</time>
      </trkpt>
      <trkpt lat="47.80182" lon="6.83801">
        <ele>830</ele>
        <time>2025-08-06T16:15:50Z</time>
      </trkpt>
      <trkpt lat="47.80186" lon="6.83788">
        <ele>829</ele>
        <time>2025-08-06T16:15:51Z</time>
      </trkpt>
      <trkpt lat="47.80187" lon="6.83775">
        <ele>828.4</ele>
        <time>2025-08-06T16:15:52Z</time>
      </trkpt>
      <trkpt lat="47.80188" lon="6.83747">
        <ele>827.4</ele>
        <time>2025-08-06T16:15:54Z</time>
      </trkpt>
      <trkpt lat="47.80184" lon="6.83734">
        <ele>827</ele>
        <time>2025-08-06T16:15:55Z</time>
      </trkpt>
      <trkpt lat="47.80179" lon="6.83721">
        <ele>826.4</ele>
        <time>2025-08-06T16:15:56Z</time>
      </trkpt>
      <trkpt lat="47.8017" lon="6.83694">
        <ele>825.6</ele>
        <time>2025-08-06T16:15:58Z</time>
      </trkpt>
      <trkpt lat="47.80166" lon="6.8368">
        <ele>825</ele>
        <time>2025-08-06T16:15:59Z</time>
      </trkpt>
      <trkpt lat="47.80162" lon="6.83665">
        <ele>824.8</ele>
        <time>2025-08-06T16:16:00Z</time>
      </trkpt>
      <trkpt lat="47.80154" lon="6.83633">
        <ele>823.8</ele>
        <time>2025-08-06T16:16:02Z</time>
      </trkpt>
      <trkpt lat="47.80144" lon="6.836">
        <ele>822.8</ele>
        <time>2025-08-06T16:16:04Z</time>
      </trkpt>
      <trkpt lat="47.80137" lon="6.83566">
        <ele>821.2</ele>
        <time>2025-08-06T16:16:06Z</time>
      </trkpt>
      <trkpt lat="47.8013" lon="6.83532">
        <ele>819.8</ele>
        <time>2025-08-06T16:16:08Z</time>
      </trkpt>
      <trkpt lat="47.80127" lon="6.83514">
        <ele>818.8</ele>
        <time>2025-08-06T16:16:09Z</time>
      </trkpt>
      <trkpt lat="47.80124" lon="6.83497">
        <ele>818.4</ele>
        <time>2025-08-06T16:16:10Z</time>
      </trkpt>
      <trkpt lat="47.80122" lon="6.8348">
        <ele>817.2</ele>
        <time>2025-08-06T16:16:11Z</time>
      </trkpt>
      <trkpt lat="47.80123" lon="6.83465">
        <ele>816.4</ele>
        <time>2025-08-06T16:16:12Z</time>
      </trkpt>
      <trkpt lat="47.80125" lon="6.83451">
        <ele>815.4</ele>
        <time>2025-08-06T16:16:13Z</time>
      </trkpt>
      <trkpt lat="47.80133" lon="6.83426">
        <ele>813.8</ele>
        <time>2025-08-06T16:16:15Z</time>
      </trkpt>
      <trkpt lat="47.80137" lon="6.83415">
        <ele>812.6</ele>
        <time>2025-08-06T16:16:16Z</time>
      </trkpt>
      <trkpt lat="47.80139" lon="6.83406">
        <ele>812</ele>
        <time>2025-08-06T16:16:17Z</time>
      </trkpt>
      <trkpt lat="47.8014" lon="6.83396">
        <ele>810.6</ele>
        <time>2025-08-06T16:16:18Z</time>
      </trkpt>
      <trkpt lat="47.80137" lon="6.83388">
        <ele>809.8</ele>
        <time>2025-08-06T16:16:19Z</time>
      </trkpt>
      <trkpt lat="47.80132" lon="6.83383">
        <ele>809</ele>
        <time>2025-08-06T16:16:20Z</time>
      </trkpt>
      <trkpt lat="47.80127" lon="6.83382">
        <ele>807.8</ele>
        <time>2025-08-06T16:16:21Z</time>
      </trkpt>
      <trkpt lat="47.80117" lon="6.83392">
        <ele>806.8</ele>
        <time>2025-08-06T16:16:23Z</time>
      </trkpt>
      <trkpt lat="47.80105" lon="6.8341">
        <ele>806</ele>
        <time>2025-08-06T16:16:25Z</time>
      </trkpt>
      <trkpt lat="47.80097" lon="6.83419">
        <ele>805.8</ele>
        <time>2025-08-06T16:16:26Z</time>
      </trkpt>
      <trkpt lat="47.80081" lon="6.83436">
        <ele>804.6</ele>
        <time>2025-08-06T16:16:28Z</time>
      </trkpt>
      <trkpt lat="47.80059" lon="6.83465">
        <ele>803.2</ele>
        <time>2025-08-06T16:16:31Z</time>
      </trkpt>
      <trkpt lat="47.80048" lon="6.83492">
        <ele>802.2</ele>
        <time>2025-08-06T16:16:33Z</time>
      </trkpt>
      <trkpt lat="47.80046" lon="6.83508">
        <ele>801.4</ele>
        <time>2025-08-06T16:16:34Z</time>
      </trkpt>
      <trkpt lat="47.80044" lon="6.83523">
        <ele>801</ele>
        <time>2025-08-06T16:16:35Z</time>
      </trkpt>
      <trkpt lat="47.80043" lon="6.83538">
        <ele>800.8</ele>
        <time>2025-08-06T16:16:36Z</time>
      </trkpt>
      <trkpt lat="47.80045" lon="6.83556">
        <ele>800</ele>
        <time>2025-08-06T16:16:37Z</time>
      </trkpt>
      <trkpt lat="47.80047" lon="6.83571">
        <ele>799.6</ele>
        <time>2025-08-06T16:16:38Z</time>
      </trkpt>
      <trkpt lat="47.80051" lon="6.83599">
        <ele>798.8</ele>
        <time>2025-08-06T16:16:40Z</time>
      </trkpt>
      <trkpt lat="47.80051" lon="6.83619">
        <ele>798.4</ele>
        <time>2025-08-06T16:16:41Z</time>
      </trkpt>
      <trkpt lat="47.8005" lon="6.83635">
        <ele>797.6</ele>
        <time>2025-08-06T16:16:42Z</time>
      </trkpt>
      <trkpt lat="47.80046" lon="6.8365">
        <ele>797.4</ele>
        <time>2025-08-06T16:16:43Z</time>
      </trkpt>
      <trkpt lat="47.8004" lon="6.8366">
        <ele>797</ele>
        <time>2025-08-06T16:16:44Z</time>
      </trkpt>
      <trkpt lat="47.80031" lon="6.8367">
        <ele>796.8</ele>
        <time>2025-08-06T16:16:45Z</time>
      </trkpt>
      <trkpt lat="47.80021" lon="6.83676">
        <ele>795.2</ele>
        <time>2025-08-06T16:16:46Z</time>
      </trkpt>
      <trkpt lat="47.80008" lon="6.83679">
        <ele>794.2</ele>
        <time>2025-08-06T16:16:47Z</time>
      </trkpt>
      <trkpt lat="47.79998" lon="6.83683">
        <ele>793.6</ele>
        <time>2025-08-06T16:16:48Z</time>
      </trkpt>
      <trkpt lat="47.79991" lon="6.8369">
        <ele>792.4</ele>
        <time>2025-08-06T16:16:49Z</time>
      </trkpt>
      <trkpt lat="47.79982" lon="6.83699">
        <ele>791.8</ele>
        <time>2025-08-06T16:16:50Z</time>
      </trkpt>
      <trkpt lat="47.7997" lon="6.83708">
        <ele>790.6</ele>
        <time>2025-08-06T16:16:51Z</time>
      </trkpt>
      <trkpt lat="47.79959" lon="6.83713">
        <ele>789.6</ele>
        <time>2025-08-06T16:16:52Z</time>
      </trkpt>
      <trkpt lat="47.79949" lon="6.83714">
        <ele>789.4</ele>
        <time>2025-08-06T16:16:53Z</time>
      </trkpt>
      <trkpt lat="47.79926" lon="6.83714">
        <ele>788.2</ele>
        <time>2025-08-06T16:16:55Z</time>
      </trkpt>
      <trkpt lat="47.79914" lon="6.83712">
        <ele>787.2</ele>
        <time>2025-08-06T16:16:56Z</time>
      </trkpt>
      <trkpt lat="47.79902" lon="6.83709">
        <ele>787</ele>
        <time>2025-08-06T16:16:57Z</time>
      </trkpt>
      <trkpt lat="47.7989" lon="6.83705">
        <ele>785.6</ele>
        <time>2025-08-06T16:16:58Z</time>
      </trkpt>
      <trkpt lat="47.79878" lon="6.837">
        <ele>783.8</ele>
        <time>2025-08-06T16:16:59Z</time>
      </trkpt>
      <trkpt lat="47.79866" lon="6.83694">
        <ele>783</ele>
        <time>2025-08-06T16:17:00Z</time>
      </trkpt>
      <trkpt lat="47.79854" lon="6.83689">
        <ele>781.8</ele>
        <time>2025-08-06T16:17:01Z</time>
      </trkpt>
      <trkpt lat="47.79842" lon="6.83685">
        <ele>781.2</ele>
        <time>2025-08-06T16:17:02Z</time>
      </trkpt>
      <trkpt lat="47.7983" lon="6.83683">
        <ele>780.2</ele>
        <time>2025-08-06T16:17:03Z</time>
      </trkpt>
      <trkpt lat="47.79817" lon="6.83682">
        <ele>779.2</ele>
        <time>2025-08-06T16:17:04Z</time>
      </trkpt>
      <trkpt lat="47.79794" lon="6.83681">
        <ele>777.6</ele>
        <time>2025-08-06T16:17:06Z</time>
      </trkpt>
      <trkpt lat="47.79771" lon="6.83682">
        <ele>775.6</ele>
        <time>2025-08-06T16:17:08Z</time>
      </trkpt>
      <trkpt lat="47.79751" lon="6.83682">
        <ele>773.6</ele>
        <time>2025-08-06T16:17:10Z</time>
      </trkpt>
      <trkpt lat="47.79743" lon="6.83681">
        <ele>772</ele>
        <time>2025-08-06T16:17:11Z</time>
      </trkpt>
      <trkpt lat="47.7973" lon="6.83676">
        <ele>770.6</ele>
        <time>2025-08-06T16:17:13Z</time>
      </trkpt>
      <trkpt lat="47.79726" lon="6.83671">
        <ele>770</ele>
        <time>2025-08-06T16:17:14Z</time>
      </trkpt>
      <trkpt lat="47.79725" lon="6.83665">
        <ele>769</ele>
        <time>2025-08-06T16:17:15Z</time>
      </trkpt>
      <trkpt lat="47.79726" lon="6.8366">
        <ele>768.2</ele>
        <time>2025-08-06T16:17:16Z</time>
      </trkpt>
      <trkpt lat="47.7973" lon="6.83656">
        <ele>767.2</ele>
        <time>2025-08-06T16:17:17Z</time>
      </trkpt>
      <trkpt lat="47.79736" lon="6.83655">
        <ele>766.4</ele>
        <time>2025-08-06T16:17:18Z</time>
      </trkpt>
      <trkpt lat="47.79743" lon="6.83653">
        <ele>766.2</ele>
        <time>2025-08-06T16:17:19Z</time>
      </trkpt>
      <trkpt lat="47.79758" lon="6.83652">
        <ele>765.2</ele>
        <time>2025-08-06T16:17:21Z</time>
      </trkpt>
      <trkpt lat="47.79767" lon="6.83648">
        <ele>764.8</ele>
        <time>2025-08-06T16:17:22Z</time>
      </trkpt>
      <trkpt lat="47.79787" lon="6.83637">
        <ele>764.2</ele>
        <time>2025-08-06T16:17:24Z</time>
      </trkpt>
      <trkpt lat="47.79798" lon="6.83632">
        <ele>763.6</ele>
        <time>2025-08-06T16:17:25Z</time>
      </trkpt>
      <trkpt lat="47.79819" lon="6.83619">
        <ele>762.6</ele>
        <time>2025-08-06T16:17:27Z</time>
      </trkpt>
      <trkpt lat="47.7983" lon="6.83614">
        <ele>762.2</ele>
        <time>2025-08-06T16:17:28Z</time>
      </trkpt>
      <trkpt lat="47.79841" lon="6.8361">
        <ele>761.4</ele>
        <time>2025-08-06T16:17:29Z</time>
      </trkpt>
      <trkpt lat="47.79853" lon="6.83606">
        <ele>760.4</ele>
        <time>2025-08-06T16:17:30Z</time>
      </trkpt>
      <trkpt lat="47.79865" lon="6.836">
        <ele>760</ele>
        <time>2025-08-06T16:17:31Z</time>
      </trkpt>
      <trkpt lat="47.79875" lon="6.83592">
        <ele>759</ele>
        <time>2025-08-06T16:17:32Z</time>
      </trkpt>
      <trkpt lat="47.79885" lon="6.83581">
        <ele>758.6</ele>
        <time>2025-08-06T16:17:33Z</time>
      </trkpt>
      <trkpt lat="47.79892" lon="6.83569">
        <ele>757.8</ele>
        <time>2025-08-06T16:17:34Z</time>
      </trkpt>
      <trkpt lat="47.79896" lon="6.83553">
        <ele>757</ele>
        <time>2025-08-06T16:17:35Z</time>
      </trkpt>
      <trkpt lat="47.79897" lon="6.83537">
        <ele>756.6</ele>
        <time>2025-08-06T16:17:36Z</time>
      </trkpt>
      <trkpt lat="47.79896" lon="6.83521">
        <ele>755.4</ele>
        <time>2025-08-06T16:17:37Z</time>
      </trkpt>
      <trkpt lat="47.79896" lon="6.83506">
        <ele>755</ele>
        <time>2025-08-06T16:17:38Z</time>
      </trkpt>
      <trkpt lat="47.799" lon="6.83474">
        <ele>754.2</ele>
        <time>2025-08-06T16:17:40Z</time>
      </trkpt>
      <trkpt lat="47.79908" lon="6.83444">
        <ele>752.6</ele>
        <time>2025-08-06T16:17:42Z</time>
      </trkpt>
      <trkpt lat="47.79916" lon="6.83414">
        <ele>751.6</ele>
        <time>2025-08-06T16:17:44Z</time>
      </trkpt>
      <trkpt lat="47.79922" lon="6.83399">
        <ele>751.2</ele>
        <time>2025-08-06T16:17:45Z</time>
      </trkpt>
      <trkpt lat="47.79928" lon="6.83385">
        <ele>750.4</ele>
        <time>2025-08-06T16:17:46Z</time>
      </trkpt>
      <trkpt lat="47.79936" lon="6.83372">
        <ele>749.8</ele>
        <time>2025-08-06T16:17:47Z</time>
      </trkpt>
      <trkpt lat="47.79954" lon="6.83351">
        <ele>748.8</ele>
        <time>2025-08-06T16:17:49Z</time>
      </trkpt>
      <trkpt lat="47.79973" lon="6.83333">
        <ele>747.4</ele>
        <time>2025-08-06T16:17:51Z</time>
      </trkpt>
      <trkpt lat="47.79991" lon="6.83315">
        <ele>746.2</ele>
        <time>2025-08-06T16:17:53Z</time>
      </trkpt>
      <trkpt lat="47.79999" lon="6.83304">
        <ele>745.6</ele>
        <time>2025-08-06T16:17:54Z</time>
      </trkpt>
      <trkpt lat="47.80012" lon="6.83282">
        <ele>744.8</ele>
        <time>2025-08-06T16:17:56Z</time>
      </trkpt>
      <trkpt lat="47.80013" lon="6.83268">
        <ele>744.4</ele>
        <time>2025-08-06T16:17:57Z</time>
      </trkpt>
      <trkpt lat="47.80013" lon="6.83253">
        <ele>743.6</ele>
        <time>2025-08-06T16:17:58Z</time>
      </trkpt>
      <trkpt lat="47.80004" lon="6.83225">
        <ele>742.6</ele>
        <time>2025-08-06T16:18:00Z</time>
      </trkpt>
      <trkpt lat="47.79997" lon="6.83213">
        <ele>742</ele>
        <time>2025-08-06T16:18:01Z</time>
      </trkpt>
      <trkpt lat="47.79981" lon="6.8319">
        <ele>740.8</ele>
        <time>2025-08-06T16:18:03Z</time>
      </trkpt>
      <trkpt lat="47.79965" lon="6.83176">
        <ele>739.6</ele>
        <time>2025-08-06T16:18:05Z</time>
      </trkpt>
      <trkpt lat="47.79955" lon="6.83171">
        <ele>739</ele>
        <time>2025-08-06T16:18:06Z</time>
      </trkpt>
      <trkpt lat="47.79946" lon="6.83168">
        <ele>738.8</ele>
        <time>2025-08-06T16:18:07Z</time>
      </trkpt>
      <trkpt lat="47.79934" lon="6.83167">
        <ele>738.4</ele>
        <time>2025-08-06T16:18:08Z</time>
      </trkpt>
      <trkpt lat="47.79924" lon="6.8317">
        <ele>738.2</ele>
        <time>2025-08-06T16:18:09Z</time>
      </trkpt>
      <trkpt lat="47.79907" lon="6.83184">
        <ele>737.8</ele>
        <time>2025-08-06T16:18:11Z</time>
      </trkpt>
      <trkpt lat="47.799" lon="6.83194">
        <ele>737.4</ele>
        <time>2025-08-06T16:18:12Z</time>
      </trkpt>
      <trkpt lat="47.79894" lon="6.83205">
        <ele>736.8</ele>
        <time>2025-08-06T16:18:13Z</time>
      </trkpt>
      <trkpt lat="47.7988" lon="6.83225">
        <ele>736.2</ele>
        <time>2025-08-06T16:18:15Z</time>
      </trkpt>
      <trkpt lat="47.79863" lon="6.83231">
        <ele>735.8</ele>
        <time>2025-08-06T16:18:17Z</time>
      </trkpt>
      <trkpt lat="47.79853" lon="6.83229">
        <ele>734.8</ele>
        <time>2025-08-06T16:18:18Z</time>
      </trkpt>
      <trkpt lat="47.79833" lon="6.83224">
        <ele>733.6</ele>
        <time>2025-08-06T16:18:20Z</time>
      </trkpt>
      <trkpt lat="47.7982" lon="6.83221">
        <ele>733.4</ele>
        <time>2025-08-06T16:18:21Z</time>
      </trkpt>
      <trkpt lat="47.79797" lon="6.83215">
        <ele>732.4</ele>
        <time>2025-08-06T16:18:23Z</time>
      </trkpt>
      <trkpt lat="47.79786" lon="6.83212">
        <ele>731.4</ele>
        <time>2025-08-06T16:18:24Z</time>
      </trkpt>
      <trkpt lat="47.79776" lon="6.83207">
        <ele>729.8</ele>
        <time>2025-08-06T16:18:25Z</time>
      </trkpt>
      <trkpt lat="47.79765" lon="6.83202">
        <ele>729.4</ele>
        <time>2025-08-06T16:18:26Z</time>
      </trkpt>
      <trkpt lat="47.79754" lon="6.83196">
        <ele>728.8</ele>
        <time>2025-08-06T16:18:27Z</time>
      </trkpt>
      <trkpt lat="47.79744" lon="6.83191">
        <ele>728.4</ele>
        <time>2025-08-06T16:18:28Z</time>
      </trkpt>
      <trkpt lat="47.79735" lon="6.8319">
        <ele>727.6</ele>
        <time>2025-08-06T16:18:29Z</time>
      </trkpt>
      <trkpt lat="47.79724" lon="6.83189">
        <ele>727</ele>
        <time>2025-08-06T16:18:30Z</time>
      </trkpt>
      <trkpt lat="47.7971" lon="6.83189">
        <ele>726.2</ele>
        <time>2025-08-06T16:18:31Z</time>
      </trkpt>
      <trkpt lat="47.79699" lon="6.83189">
        <ele>725.4</ele>
        <time>2025-08-06T16:18:32Z</time>
      </trkpt>
      <trkpt lat="47.79687" lon="6.83186">
        <ele>725</ele>
        <time>2025-08-06T16:18:33Z</time>
      </trkpt>
      <trkpt lat="47.79676" lon="6.83181">
        <ele>724.4</ele>
        <time>2025-08-06T16:18:34Z</time>
      </trkpt>
      <trkpt lat="47.79665" lon="6.83175">
        <ele>723.8</ele>
        <time>2025-08-06T16:18:35Z</time>
      </trkpt>
      <trkpt lat="47.79642" lon="6.83163">
        <ele>722.4</ele>
        <time>2025-08-06T16:18:37Z</time>
      </trkpt>
      <trkpt lat="47.79631" lon="6.83157">
        <ele>722</ele>
        <time>2025-08-06T16:18:38Z</time>
      </trkpt>
      <trkpt lat="47.79619" lon="6.83151">
        <ele>721.2</ele>
        <time>2025-08-06T16:18:39Z</time>
      </trkpt>
      <trkpt lat="47.79598" lon="6.83135">
        <ele>719.8</ele>
        <time>2025-08-06T16:18:41Z</time>
      </trkpt>
      <trkpt lat="47.79587" lon="6.83126">
        <ele>719.4</ele>
        <time>2025-08-06T16:18:42Z</time>
      </trkpt>
      <trkpt lat="47.79577" lon="6.83119">
        <ele>718.2</ele>
        <time>2025-08-06T16:18:43Z</time>
      </trkpt>
      <trkpt lat="47.79554" lon="6.83112">
        <ele>716.8</ele>
        <time>2025-08-06T16:18:45Z</time>
      </trkpt>
      <trkpt lat="47.7953" lon="6.83115">
        <ele>715.6</ele>
        <time>2025-08-06T16:18:47Z</time>
      </trkpt>
      <trkpt lat="47.79517" lon="6.83118">
        <ele>714.4</ele>
        <time>2025-08-06T16:18:48Z</time>
      </trkpt>
      <trkpt lat="47.79508" lon="6.8312">
        <ele>713.6</ele>
        <time>2025-08-06T16:18:49Z</time>
      </trkpt>
      <trkpt lat="47.79494" lon="6.83123">
        <ele>713.2</ele>
        <time>2025-08-06T16:18:50Z</time>
      </trkpt>
      <trkpt lat="47.79482" lon="6.83125">
        <ele>712.6</ele>
        <time>2025-08-06T16:18:51Z</time>
      </trkpt>
      <trkpt lat="47.7947" lon="6.83124">
        <ele>712.2</ele>
        <time>2025-08-06T16:18:52Z</time>
      </trkpt>
      <trkpt lat="47.79461" lon="6.83121">
        <ele>711.4</ele>
        <time>2025-08-06T16:18:53Z</time>
      </trkpt>
      <trkpt lat="47.79451" lon="6.83116">
        <ele>711</ele>
        <time>2025-08-06T16:18:54Z</time>
      </trkpt>
      <trkpt lat="47.79438" lon="6.83108">
        <ele>709.8</ele>
        <time>2025-08-06T16:18:55Z</time>
      </trkpt>
      <trkpt lat="47.79428" lon="6.83099">
        <ele>708.8</ele>
        <time>2025-08-06T16:18:56Z</time>
      </trkpt>
      <trkpt lat="47.79408" lon="6.83081">
        <ele>707</ele>
        <time>2025-08-06T16:18:58Z</time>
      </trkpt>
      <trkpt lat="47.79385" lon="6.83068">
        <ele>705.8</ele>
        <time>2025-08-06T16:19:00Z</time>
      </trkpt>
      <trkpt lat="47.7936" lon="6.8306">
        <ele>704.4</ele>
        <time>2025-08-06T16:19:02Z</time>
      </trkpt>
      <trkpt lat="47.79351" lon="6.83059">
        <ele>703.2</ele>
        <time>2025-08-06T16:19:03Z</time>
      </trkpt>
      <trkpt lat="47.79337" lon="6.83056">
        <ele>702.8</ele>
        <time>2025-08-06T16:19:04Z</time>
      </trkpt>
      <trkpt lat="47.79326" lon="6.83053">
        <ele>701.8</ele>
        <time>2025-08-06T16:19:05Z</time>
      </trkpt>
      <trkpt lat="47.79305" lon="6.8304">
        <ele>700.6</ele>
        <time>2025-08-06T16:19:07Z</time>
      </trkpt>
      <trkpt lat="47.79287" lon="6.83018">
        <ele>699</ele>
        <time>2025-08-06T16:19:09Z</time>
      </trkpt>
      <trkpt lat="47.79278" lon="6.83006">
        <ele>698</ele>
        <time>2025-08-06T16:19:10Z</time>
      </trkpt>
      <trkpt lat="47.7927" lon="6.82993">
        <ele>697.8</ele>
        <time>2025-08-06T16:19:11Z</time>
      </trkpt>
      <trkpt lat="47.79253" lon="6.82968">
        <ele>696.4</ele>
        <time>2025-08-06T16:19:13Z</time>
      </trkpt>
      <trkpt lat="47.79245" lon="6.82955">
        <ele>695.4</ele>
        <time>2025-08-06T16:19:14Z</time>
      </trkpt>
      <trkpt lat="47.79237" lon="6.82941">
        <ele>694.2</ele>
        <time>2025-08-06T16:19:15Z</time>
      </trkpt>
      <trkpt lat="47.79223" lon="6.82916">
        <ele>693.2</ele>
        <time>2025-08-06T16:19:17Z</time>
      </trkpt>
      <trkpt lat="47.79209" lon="6.82897">
        <ele>692</ele>
        <time>2025-08-06T16:19:19Z</time>
      </trkpt>
      <trkpt lat="47.79201" lon="6.82892">
        <ele>691.2</ele>
        <time>2025-08-06T16:19:20Z</time>
      </trkpt>
      <trkpt lat="47.79192" lon="6.82891">
        <ele>690.6</ele>
        <time>2025-08-06T16:19:21Z</time>
      </trkpt>
      <trkpt lat="47.79183" lon="6.82893">
        <ele>690</ele>
        <time>2025-08-06T16:19:22Z</time>
      </trkpt>
      <trkpt lat="47.79175" lon="6.82897">
        <ele>689.6</ele>
        <time>2025-08-06T16:19:23Z</time>
      </trkpt>
      <trkpt lat="47.7916" lon="6.82911">
        <ele>689</ele>
        <time>2025-08-06T16:19:25Z</time>
      </trkpt>
      <trkpt lat="47.79152" lon="6.82918">
        <ele>688.8</ele>
        <time>2025-08-06T16:19:26Z</time>
      </trkpt>
      <trkpt lat="47.79145" lon="6.82923">
        <ele>688.2</ele>
        <time>2025-08-06T16:19:27Z</time>
      </trkpt>
      <trkpt lat="47.79119" lon="6.82941">
        <ele>687.6</ele>
        <time>2025-08-06T16:19:30Z</time>
      </trkpt>
      <trkpt lat="47.791" lon="6.82954">
        <ele>686.4</ele>
        <time>2025-08-06T16:19:32Z</time>
      </trkpt>
      <trkpt lat="47.79081" lon="6.82965">
        <ele>685.2</ele>
        <time>2025-08-06T16:19:34Z</time>
      </trkpt>
      <trkpt lat="47.79071" lon="6.82967">
        <ele>684.8</ele>
        <time>2025-08-06T16:19:35Z</time>
      </trkpt>
      <trkpt lat="47.79061" lon="6.82966">
        <ele>684</ele>
        <time>2025-08-06T16:19:36Z</time>
      </trkpt>
      <trkpt lat="47.79041" lon="6.82957">
        <ele>683.2</ele>
        <time>2025-08-06T16:19:38Z</time>
      </trkpt>
      <trkpt lat="47.79031" lon="6.82952">
        <ele>682.4</ele>
        <time>2025-08-06T16:19:39Z</time>
      </trkpt>
      <trkpt lat="47.79011" lon="6.82948">
        <ele>681.4</ele>
        <time>2025-08-06T16:19:41Z</time>
      </trkpt>
      <trkpt lat="47.79001" lon="6.82947">
        <ele>681</ele>
        <time>2025-08-06T16:19:42Z</time>
      </trkpt>
      <trkpt lat="47.78969" lon="6.82951">
        <ele>679.6</ele>
        <time>2025-08-06T16:19:45Z</time>
      </trkpt>
      <trkpt lat="47.78958" lon="6.82954">
        <ele>679</ele>
        <time>2025-08-06T16:19:46Z</time>
      </trkpt>
      <trkpt lat="47.78937" lon="6.82962">
        <ele>678.2</ele>
        <time>2025-08-06T16:19:48Z</time>
      </trkpt>
      <trkpt lat="47.78915" lon="6.82969">
        <ele>676.8</ele>
        <time>2025-08-06T16:19:50Z</time>
      </trkpt>
      <trkpt lat="47.78894" lon="6.8298">
        <ele>675.6</ele>
        <time>2025-08-06T16:19:52Z</time>
      </trkpt>
      <trkpt lat="47.78873" lon="6.82992">
        <ele>674.6</ele>
        <time>2025-08-06T16:19:54Z</time>
      </trkpt>
      <trkpt lat="47.78852" lon="6.83006">
        <ele>673.4</ele>
        <time>2025-08-06T16:19:56Z</time>
      </trkpt>
      <trkpt lat="47.7883" lon="6.83021">
        <ele>671.6</ele>
        <time>2025-08-06T16:19:58Z</time>
      </trkpt>
      <trkpt lat="47.78809" lon="6.83036">
        <ele>670.2</ele>
        <time>2025-08-06T16:20:00Z</time>
      </trkpt>
      <trkpt lat="47.78787" lon="6.83052">
        <ele>669</ele>
        <time>2025-08-06T16:20:02Z</time>
      </trkpt>
      <trkpt lat="47.78766" lon="6.83069">
        <ele>667.8</ele>
        <time>2025-08-06T16:20:04Z</time>
      </trkpt>
      <trkpt lat="47.78755" lon="6.83079">
        <ele>666.8</ele>
        <time>2025-08-06T16:20:05Z</time>
      </trkpt>
      <trkpt lat="47.78735" lon="6.83098">
        <ele>665.6</ele>
        <time>2025-08-06T16:20:07Z</time>
      </trkpt>
      <trkpt lat="47.78714" lon="6.83117">
        <ele>664.2</ele>
        <time>2025-08-06T16:20:09Z</time>
      </trkpt>
      <trkpt lat="47.78694" lon="6.83137">
        <ele>663.2</ele>
        <time>2025-08-06T16:20:11Z</time>
      </trkpt>
      <trkpt lat="47.78673" lon="6.83158">
        <ele>661.6</ele>
        <time>2025-08-06T16:20:13Z</time>
      </trkpt>
      <trkpt lat="47.78663" lon="6.83168">
        <ele>660.6</ele>
        <time>2025-08-06T16:20:14Z</time>
      </trkpt>
      <trkpt lat="47.78652" lon="6.83177">
        <ele>659.8</ele>
        <time>2025-08-06T16:20:15Z</time>
      </trkpt>
      <trkpt lat="47.78632" lon="6.83196">
        <ele>658.4</ele>
        <time>2025-08-06T16:20:17Z</time>
      </trkpt>
      <trkpt lat="47.78612" lon="6.83218">
        <ele>657</ele>
        <time>2025-08-06T16:20:19Z</time>
      </trkpt>
      <trkpt lat="47.78603" lon="6.8323">
        <ele>656.6</ele>
        <time>2025-08-06T16:20:20Z</time>
      </trkpt>
      <trkpt lat="47.78594" lon="6.83243">
        <ele>655.4</ele>
        <time>2025-08-06T16:20:21Z</time>
      </trkpt>
      <trkpt lat="47.78577" lon="6.83268">
        <ele>654.2</ele>
        <time>2025-08-06T16:20:23Z</time>
      </trkpt>
      <trkpt lat="47.78559" lon="6.83295">
        <ele>653</ele>
        <time>2025-08-06T16:20:25Z</time>
      </trkpt>
      <trkpt lat="47.7855" lon="6.83309">
        <ele>651.8</ele>
        <time>2025-08-06T16:20:26Z</time>
      </trkpt>
      <trkpt lat="47.78542" lon="6.83322">
        <ele>651.2</ele>
        <time>2025-08-06T16:20:27Z</time>
      </trkpt>
      <trkpt lat="47.78533" lon="6.83335">
        <ele>650</ele>
        <time>2025-08-06T16:20:28Z</time>
      </trkpt>
      <trkpt lat="47.78525" lon="6.83349">
        <ele>648.8</ele>
        <time>2025-08-06T16:20:29Z</time>
      </trkpt>
      <trkpt lat="47.78509" lon="6.83376">
        <ele>647.8</ele>
        <time>2025-08-06T16:20:31Z</time>
      </trkpt>
      <trkpt lat="47.78501" lon="6.83386">
        <ele>647.4</ele>
        <time>2025-08-06T16:20:32Z</time>
      </trkpt>
      <trkpt lat="47.78492" lon="6.83395">
        <ele>646.8</ele>
        <time>2025-08-06T16:20:33Z</time>
      </trkpt>
      <trkpt lat="47.78481" lon="6.83401">
        <ele>645.6</ele>
        <time>2025-08-06T16:20:34Z</time>
      </trkpt>
      <trkpt lat="47.7847" lon="6.83405">
        <ele>645</ele>
        <time>2025-08-06T16:20:35Z</time>
      </trkpt>
      <trkpt lat="47.78456" lon="6.83408">
        <ele>644</ele>
        <time>2025-08-06T16:20:36Z</time>
      </trkpt>
      <trkpt lat="47.78431" lon="6.8341">
        <ele>642.4</ele>
        <time>2025-08-06T16:20:38Z</time>
      </trkpt>
      <trkpt lat="47.78422" lon="6.83411">
        <ele>642</ele>
        <time>2025-08-06T16:20:39Z</time>
      </trkpt>
      <trkpt lat="47.78407" lon="6.83412">
        <ele>640.8</ele>
        <time>2025-08-06T16:20:40Z</time>
      </trkpt>
      <trkpt lat="47.78395" lon="6.83414">
        <ele>639.4</ele>
        <time>2025-08-06T16:20:41Z</time>
      </trkpt>
      <trkpt lat="47.78371" lon="6.83416">
        <ele>637.8</ele>
        <time>2025-08-06T16:20:43Z</time>
      </trkpt>
      <trkpt lat="47.78348" lon="6.83418">
        <ele>636.2</ele>
        <time>2025-08-06T16:20:45Z</time>
      </trkpt>
      <trkpt lat="47.78336" lon="6.83419">
        <ele>635</ele>
        <time>2025-08-06T16:20:46Z</time>
      </trkpt>
      <trkpt lat="47.78325" lon="6.83418">
        <ele>634.6</ele>
        <time>2025-08-06T16:20:47Z</time>
      </trkpt>
      <trkpt lat="47.78314" lon="6.83416">
        <ele>633.6</ele>
        <time>2025-08-06T16:20:48Z</time>
      </trkpt>
      <trkpt lat="47.78303" lon="6.83413">
        <ele>633.2</ele>
        <time>2025-08-06T16:20:49Z</time>
      </trkpt>
      <trkpt lat="47.78285" lon="6.83402">
        <ele>632.6</ele>
        <time>2025-08-06T16:20:51Z</time>
      </trkpt>
      <trkpt lat="47.78266" lon="6.83388">
        <ele>631.2</ele>
        <time>2025-08-06T16:20:53Z</time>
      </trkpt>
      <trkpt lat="47.78236" lon="6.83366">
        <ele>630</ele>
        <time>2025-08-06T16:20:56Z</time>
      </trkpt>
      <trkpt lat="47.78216" lon="6.8335">
        <ele>628.4</ele>
        <time>2025-08-06T16:20:58Z</time>
      </trkpt>
      <trkpt lat="47.78196" lon="6.83331">
        <ele>627.4</ele>
        <time>2025-08-06T16:21:00Z</time>
      </trkpt>
      <trkpt lat="47.78186" lon="6.83323">
        <ele>627.2</ele>
        <time>2025-08-06T16:21:01Z</time>
      </trkpt>
      <trkpt lat="47.78178" lon="6.83318">
        <ele>626.6</ele>
        <time>2025-08-06T16:21:02Z</time>
      </trkpt>
      <trkpt lat="47.78165" lon="6.83313">
        <ele>626.4</ele>
        <time>2025-08-06T16:21:03Z</time>
      </trkpt>
      <trkpt lat="47.78154" lon="6.83314">
        <ele>625.6</ele>
        <time>2025-08-06T16:21:04Z</time>
      </trkpt>
      <trkpt lat="47.78143" lon="6.83317">
        <ele>624.6</ele>
        <time>2025-08-06T16:21:05Z</time>
      </trkpt>
      <trkpt lat="47.78133" lon="6.83322">
        <ele>624.4</ele>
        <time>2025-08-06T16:21:06Z</time>
      </trkpt>
      <trkpt lat="47.78122" lon="6.83328">
        <ele>623.2</ele>
        <time>2025-08-06T16:21:07Z</time>
      </trkpt>
      <trkpt lat="47.78112" lon="6.83335">
        <ele>622.8</ele>
        <time>2025-08-06T16:21:08Z</time>
      </trkpt>
      <trkpt lat="47.78101" lon="6.83341">
        <ele>621.8</ele>
        <time>2025-08-06T16:21:09Z</time>
      </trkpt>
      <trkpt lat="47.78079" lon="6.83354">
        <ele>620.4</ele>
        <time>2025-08-06T16:21:11Z</time>
      </trkpt>
      <trkpt lat="47.78056" lon="6.83365">
        <ele>619.6</ele>
        <time>2025-08-06T16:21:13Z</time>
      </trkpt>
      <trkpt lat="47.78045" lon="6.8337">
        <ele>619.2</ele>
        <time>2025-08-06T16:21:14Z</time>
      </trkpt>
      <trkpt lat="47.78022" lon="6.8338">
        <ele>617.8</ele>
        <time>2025-08-06T16:21:16Z</time>
      </trkpt>
      <trkpt lat="47.78013" lon="6.83382">
        <ele>616.4</ele>
        <time>2025-08-06T16:21:17Z</time>
      </trkpt>
      <trkpt lat="47.78" lon="6.83385">
        <ele>615.8</ele>
        <time>2025-08-06T16:21:18Z</time>
      </trkpt>
      <trkpt lat="47.77989" lon="6.83384">
        <ele>614.6</ele>
        <time>2025-08-06T16:21:19Z</time>
      </trkpt>
      <trkpt lat="47.77967" lon="6.83385">
        <ele>613.4</ele>
        <time>2025-08-06T16:21:21Z</time>
      </trkpt>
      <trkpt lat="47.77945" lon="6.83388">
        <ele>612.2</ele>
        <time>2025-08-06T16:21:23Z</time>
      </trkpt>
      <trkpt lat="47.77912" lon="6.83399">
        <ele>610.6</ele>
        <time>2025-08-06T16:21:26Z</time>
      </trkpt>
      <trkpt lat="47.77902" lon="6.83402">
        <ele>610.4</ele>
        <time>2025-08-06T16:21:27Z</time>
      </trkpt>
      <trkpt lat="47.77883" lon="6.83411">
        <ele>609.4</ele>
        <time>2025-08-06T16:21:29Z</time>
      </trkpt>
      <trkpt lat="47.77874" lon="6.83416">
        <ele>609.2</ele>
        <time>2025-08-06T16:21:30Z</time>
      </trkpt>
      <trkpt lat="47.77866" lon="6.83424">
        <ele>608.8</ele>
        <time>2025-08-06T16:21:31Z</time>
      </trkpt>
      <trkpt lat="47.77861" lon="6.83431">
        <ele>608.6</ele>
        <time>2025-08-06T16:21:32Z</time>
      </trkpt>
      <trkpt lat="47.77853" lon="6.83443">
        <ele>608</ele>
        <time>2025-08-06T16:21:33Z</time>
      </trkpt>
      <trkpt lat="47.77848" lon="6.83452">
        <ele>607.8</ele>
        <time>2025-08-06T16:21:34Z</time>
      </trkpt>
      <trkpt lat="47.77843" lon="6.83466">
        <ele>607.4</ele>
        <time>2025-08-06T16:21:35Z</time>
      </trkpt>
      <trkpt lat="47.77836" lon="6.83488">
        <ele>607</ele>
        <time>2025-08-06T16:21:37Z</time>
      </trkpt>
      <trkpt lat="47.77834" lon="6.83504">
        <ele>606.8</ele>
        <time>2025-08-06T16:21:38Z</time>
      </trkpt>
      <trkpt lat="47.7783" lon="6.83552">
        <ele>606.2</ele>
        <time>2025-08-06T16:21:42Z</time>
      </trkpt>
      <trkpt lat="47.77826" lon="6.83563">
        <ele>606</ele>
        <time>2025-08-06T16:21:43Z</time>
      </trkpt>
      <trkpt lat="47.77821" lon="6.83571">
        <ele>605.8</ele>
        <time>2025-08-06T16:21:44Z</time>
      </trkpt>
      <trkpt lat="47.77813" lon="6.83576">
        <ele>605.6</ele>
        <time>2025-08-06T16:21:45Z</time>
      </trkpt>
      <trkpt lat="47.77805" lon="6.83579">
        <ele>605.6</ele>
        <time>2025-08-06T16:21:46Z</time>
      </trkpt>
      <trkpt lat="47.77789" lon="6.83574">
        <ele>605.2</ele>
        <time>2025-08-06T16:21:48Z</time>
      </trkpt>
      <trkpt lat="47.77771" lon="6.83564">
        <ele>605</ele>
        <time>2025-08-06T16:21:50Z</time>
      </trkpt>
      <trkpt lat="47.77761" lon="6.8356">
        <ele>605</ele>
        <time>2025-08-06T16:21:51Z</time>
      </trkpt>
      <trkpt lat="47.7774" lon="6.8355">
        <ele>603.6</ele>
        <time>2025-08-06T16:21:53Z</time>
      </trkpt>
      <trkpt lat="47.7772" lon="6.83534">
        <ele>602.4</ele>
        <time>2025-08-06T16:21:55Z</time>
      </trkpt>
      <trkpt lat="47.77702" lon="6.8351">
        <ele>600.8</ele>
        <time>2025-08-06T16:21:57Z</time>
      </trkpt>
      <trkpt lat="47.77685" lon="6.83485">
        <ele>599.2</ele>
        <time>2025-08-06T16:21:59Z</time>
      </trkpt>
      <trkpt lat="47.77677" lon="6.83473">
        <ele>598.2</ele>
        <time>2025-08-06T16:22:00Z</time>
      </trkpt>
      <trkpt lat="47.77659" lon="6.8345">
        <ele>596.6</ele>
        <time>2025-08-06T16:22:02Z</time>
      </trkpt>
      <trkpt lat="47.77641" lon="6.83428">
        <ele>595.4</ele>
        <time>2025-08-06T16:22:04Z</time>
      </trkpt>
      <trkpt lat="47.77622" lon="6.83405">
        <ele>594</ele>
        <time>2025-08-06T16:22:06Z</time>
      </trkpt>
      <trkpt lat="47.77613" lon="6.83394">
        <ele>593</ele>
        <time>2025-08-06T16:22:07Z</time>
      </trkpt>
      <trkpt lat="47.77594" lon="6.83371">
        <ele>591.6</ele>
        <time>2025-08-06T16:22:09Z</time>
      </trkpt>
      <trkpt lat="47.77575" lon="6.83349">
        <ele>590.6</ele>
        <time>2025-08-06T16:22:11Z</time>
      </trkpt>
      <trkpt lat="47.77549" lon="6.83317">
        <ele>588.6</ele>
        <time>2025-08-06T16:22:14Z</time>
      </trkpt>
      <trkpt lat="47.7754" lon="6.83307">
        <ele>588.4</ele>
        <time>2025-08-06T16:22:15Z</time>
      </trkpt>
      <trkpt lat="47.77532" lon="6.83297">
        <ele>587.8</ele>
        <time>2025-08-06T16:22:16Z</time>
      </trkpt>
      <trkpt lat="47.77524" lon="6.83285">
        <ele>587.6</ele>
        <time>2025-08-06T16:22:17Z</time>
      </trkpt>
      <trkpt lat="47.7751" lon="6.8326">
        <ele>586.4</ele>
        <time>2025-08-06T16:22:19Z</time>
      </trkpt>
      <trkpt lat="47.77492" lon="6.83219">
        <ele>585.4</ele>
        <time>2025-08-06T16:22:22Z</time>
      </trkpt>
      <trkpt lat="47.77476" lon="6.83177">
        <ele>584.2</ele>
        <time>2025-08-06T16:22:25Z</time>
      </trkpt>
      <trkpt lat="47.7746" lon="6.83135">
        <ele>583.2</ele>
        <time>2025-08-06T16:22:28Z</time>
      </trkpt>
      <trkpt lat="47.77444" lon="6.83094">
        <ele>582</ele>
        <time>2025-08-06T16:22:31Z</time>
      </trkpt>
      <trkpt lat="47.77426" lon="6.83054">
        <ele>581.2</ele>
        <time>2025-08-06T16:22:34Z</time>
      </trkpt>
      <trkpt lat="47.77414" lon="6.83029">
        <ele>581</ele>
        <time>2025-08-06T16:22:36Z</time>
      </trkpt>
      <trkpt lat="47.7739" lon="6.8298">
        <ele>579.8</ele>
        <time>2025-08-06T16:22:40Z</time>
      </trkpt>
      <trkpt lat="47.77376" lon="6.82958">
        <ele>579.2</ele>
        <time>2025-08-06T16:22:42Z</time>
      </trkpt>
      <trkpt lat="47.77368" lon="6.82949">
        <ele>578.8</ele>
        <time>2025-08-06T16:22:43Z</time>
      </trkpt>
      <trkpt lat="47.77359" lon="6.82939">
        <ele>578.6</ele>
        <time>2025-08-06T16:22:44Z</time>
      </trkpt>
      <trkpt lat="47.77344" lon="6.82927">
        <ele>578.2</ele>
        <time>2025-08-06T16:22:46Z</time>
      </trkpt>
      <trkpt lat="47.77326" lon="6.82915">
        <ele>577.8</ele>
        <time>2025-08-06T16:22:48Z</time>
      </trkpt>
      <trkpt lat="47.773" lon="6.82905">
        <ele>577</ele>
        <time>2025-08-06T16:22:51Z</time>
      </trkpt>
      <trkpt lat="47.77291" lon="6.82903">
        <ele>576.8</ele>
        <time>2025-08-06T16:22:52Z</time>
      </trkpt>
      <trkpt lat="47.77273" lon="6.82902">
        <ele>576.6</ele>
        <time>2025-08-06T16:22:54Z</time>
      </trkpt>
      <trkpt lat="47.77256" lon="6.82903">
        <ele>576.4</ele>
        <time>2025-08-06T16:22:56Z</time>
      </trkpt>
      <trkpt lat="47.77204" lon="6.82902">
        <ele>575.8</ele>
        <time>2025-08-06T16:23:02Z</time>
      </trkpt>
      <trkpt lat="47.77195" lon="6.829">
        <ele>575.6</ele>
        <time>2025-08-06T16:23:03Z</time>
      </trkpt>
      <trkpt lat="47.77156" lon="6.82879">
        <ele>575.2</ele>
        <time>2025-08-06T16:23:08Z</time>
      </trkpt>
      <trkpt lat="47.7711" lon="6.82853">
        <ele>574.8</ele>
        <time>2025-08-06T16:23:14Z</time>
      </trkpt>
      <trkpt lat="47.77094" lon="6.82846">
        <ele>574.8</ele>
        <time>2025-08-06T16:23:16Z</time>
      </trkpt>
      <trkpt lat="47.77041" lon="6.82829">
        <ele>574.2</ele>
        <time>2025-08-06T16:23:22Z</time>
      </trkpt>
      <trkpt lat="47.77033" lon="6.82827">
        <ele>573.8</ele>
        <time>2025-08-06T16:23:23Z</time>
      </trkpt>
      <trkpt lat="47.76998" lon="6.82815">
        <ele>572.6</ele>
        <time>2025-08-06T16:23:27Z</time>
      </trkpt>
      <trkpt lat="47.76973" lon="6.82807">
        <ele>571.8</ele>
        <time>2025-08-06T16:23:30Z</time>
      </trkpt>
      <trkpt lat="47.76965" lon="6.82804">
        <ele>571.6</ele>
        <time>2025-08-06T16:23:31Z</time>
      </trkpt>
      <trkpt lat="47.76931" lon="6.8279">
        <ele>570.8</ele>
        <time>2025-08-06T16:23:35Z</time>
      </trkpt>
      <trkpt lat="47.76923" lon="6.82784">
        <ele>570.6</ele>
        <time>2025-08-06T16:23:36Z</time>
      </trkpt>
      <trkpt lat="47.76896" lon="6.82758">
        <ele>569.6</ele>
        <time>2025-08-06T16:23:40Z</time>
      </trkpt>
      <trkpt lat="47.76889" lon="6.8275">
        <ele>569.6</ele>
        <time>2025-08-06T16:23:41Z</time>
      </trkpt>
      <trkpt lat="47.76857" lon="6.82712">
        <ele>568.6</ele>
        <time>2025-08-06T16:23:46Z</time>
      </trkpt>
      <trkpt lat="47.76846" lon="6.82697">
        <ele>568.4</ele>
        <time>2025-08-06T16:23:48Z</time>
      </trkpt>
      <trkpt lat="47.76817" lon="6.82666">
        <ele>568.4</ele>
        <time>2025-08-06T16:23:53Z</time>
      </trkpt>
      <trkpt lat="47.76782" lon="6.82639">
        <ele>568.4</ele>
        <time>2025-08-06T16:23:59Z</time>
      </trkpt>
      <trkpt lat="47.76744" lon="6.82611">
        <ele>569</ele>
        <time>2025-08-06T16:24:06Z</time>
      </trkpt>
      <trkpt lat="47.76709" lon="6.82587">
        <ele>569.6</ele>
        <time>2025-08-06T16:24:12Z</time>
      </trkpt>
      <trkpt lat="47.76703" lon="6.82581">
        <ele>569.6</ele>
        <time>2025-08-06T16:24:13Z</time>
      </trkpt>
      <trkpt lat="47.76697" lon="6.82572">
        <ele>569.6</ele>
        <time>2025-08-06T16:24:14Z</time>
      </trkpt>
      <trkpt lat="47.76679" lon="6.82543">
        <ele>569.4</ele>
        <time>2025-08-06T16:24:17Z</time>
      </trkpt>
      <trkpt lat="47.76672" lon="6.82534">
        <ele>569.2</ele>
        <time>2025-08-06T16:24:18Z</time>
      </trkpt>
      <trkpt lat="47.76655" lon="6.82519">
        <ele>568.8</ele>
        <time>2025-08-06T16:24:20Z</time>
      </trkpt>
      <trkpt lat="47.76637" lon="6.8251">
        <ele>567.4</ele>
        <time>2025-08-06T16:24:22Z</time>
      </trkpt>
      <trkpt lat="47.76618" lon="6.82503">
        <ele>566.4</ele>
        <time>2025-08-06T16:24:24Z</time>
      </trkpt>
      <trkpt lat="47.76608" lon="6.825">
        <ele>565.6</ele>
        <time>2025-08-06T16:24:25Z</time>
      </trkpt>
      <trkpt lat="47.76589" lon="6.82492">
        <ele>564.6</ele>
        <time>2025-08-06T16:24:27Z</time>
      </trkpt>
      <trkpt lat="47.76571" lon="6.82483">
        <ele>563.4</ele>
        <time>2025-08-06T16:24:29Z</time>
      </trkpt>
      <trkpt lat="47.76553" lon="6.82474">
        <ele>562.6</ele>
        <time>2025-08-06T16:24:31Z</time>
      </trkpt>
      <trkpt lat="47.76545" lon="6.82469">
        <ele>562.2</ele>
        <time>2025-08-06T16:24:32Z</time>
      </trkpt>
      <trkpt lat="47.76521" lon="6.82451">
        <ele>561.8</ele>
        <time>2025-08-06T16:24:35Z</time>
      </trkpt>
      <trkpt lat="47.76496" lon="6.82415">
        <ele>561.2</ele>
        <time>2025-08-06T16:24:39Z</time>
      </trkpt>
      <trkpt lat="47.76492" lon="6.82404">
        <ele>561</ele>
        <time>2025-08-06T16:24:40Z</time>
      </trkpt>
      <trkpt lat="47.76479" lon="6.82367">
        <ele>560.6</ele>
        <time>2025-08-06T16:24:43Z</time>
      </trkpt>
      <trkpt lat="47.76475" lon="6.82353">
        <ele>560.2</ele>
        <time>2025-08-06T16:24:44Z</time>
      </trkpt>
      <trkpt lat="47.76465" lon="6.82327">
        <ele>559.4</ele>
        <time>2025-08-06T16:24:46Z</time>
      </trkpt>
      <trkpt lat="47.76458" lon="6.82315">
        <ele>559</ele>
        <time>2025-08-06T16:24:47Z</time>
      </trkpt>
      <trkpt lat="47.76451" lon="6.82304">
        <ele>558.4</ele>
        <time>2025-08-06T16:24:48Z</time>
      </trkpt>
      <trkpt lat="47.76443" lon="6.82294">
        <ele>558</ele>
        <time>2025-08-06T16:24:49Z</time>
      </trkpt>
      <trkpt lat="47.76434" lon="6.82285">
        <ele>557.6</ele>
        <time>2025-08-06T16:24:50Z</time>
      </trkpt>
      <trkpt lat="47.76425" lon="6.82278">
        <ele>556.8</ele>
        <time>2025-08-06T16:24:51Z</time>
      </trkpt>
      <trkpt lat="47.76389" lon="6.82253">
        <ele>555.4</ele>
        <time>2025-08-06T16:24:55Z</time>
      </trkpt>
      <trkpt lat="47.76346" lon="6.82229">
        <ele>554.4</ele>
        <time>2025-08-06T16:25:00Z</time>
      </trkpt>
      <trkpt lat="47.76329" lon="6.82223">
        <ele>554.2</ele>
        <time>2025-08-06T16:25:02Z</time>
      </trkpt>
      <trkpt lat="47.76295" lon="6.82213">
        <ele>553.4</ele>
        <time>2025-08-06T16:25:06Z</time>
      </trkpt>
      <trkpt lat="47.76261" lon="6.82201">
        <ele>552.8</ele>
        <time>2025-08-06T16:25:10Z</time>
      </trkpt>
      <trkpt lat="47.76244" lon="6.82193">
        <ele>552.4</ele>
        <time>2025-08-06T16:25:12Z</time>
      </trkpt>
      <trkpt lat="47.7622" lon="6.82176">
        <ele>551.6</ele>
        <time>2025-08-06T16:25:15Z</time>
      </trkpt>
      <trkpt lat="47.76198" lon="6.82157">
        <ele>551.6</ele>
        <time>2025-08-06T16:25:18Z</time>
      </trkpt>
      <trkpt lat="47.76168" lon="6.82135">
        <ele>551</ele>
        <time>2025-08-06T16:25:22Z</time>
      </trkpt>
      <trkpt lat="47.76154" lon="6.82125">
        <ele>550.4</ele>
        <time>2025-08-06T16:25:24Z</time>
      </trkpt>
      <trkpt lat="47.76108" lon="6.82098">
        <ele>550</ele>
        <time>2025-08-06T16:25:30Z</time>
      </trkpt>
      <trkpt lat="47.76057" lon="6.82066">
        <ele>549.6</ele>
        <time>2025-08-06T16:25:37Z</time>
      </trkpt>
      <trkpt lat="47.76049" lon="6.82062">
        <ele>549.6</ele>
        <time>2025-08-06T16:25:38Z</time>
      </trkpt>
      <trkpt lat="47.76027" lon="6.82048">
        <ele>549.6</ele>
        <time>2025-08-06T16:25:41Z</time>
      </trkpt>
      <trkpt lat="47.75983" lon="6.82022">
        <ele>549</ele>
        <time>2025-08-06T16:25:47Z</time>
      </trkpt>
      <trkpt lat="47.75962" lon="6.82014">
        <ele>548.4</ele>
        <time>2025-08-06T16:25:50Z</time>
      </trkpt>
      <trkpt lat="47.75942" lon="6.82005">
        <ele>548.2</ele>
        <time>2025-08-06T16:25:53Z</time>
      </trkpt>
      <trkpt lat="47.75904" lon="6.81988">
        <ele>547.6</ele>
        <time>2025-08-06T16:25:59Z</time>
      </trkpt>
      <trkpt lat="47.75898" lon="6.81985">
        <ele>547.6</ele>
        <time>2025-08-06T16:26:00Z</time>
      </trkpt>
      <trkpt lat="47.7587" lon="6.81962">
        <ele>547.4</ele>
        <time>2025-08-06T16:26:05Z</time>
      </trkpt>
      <trkpt lat="47.7585" lon="6.81943">
        <ele>547.4</ele>
        <time>2025-08-06T16:26:10Z</time>
      </trkpt>
      <trkpt lat="47.75843" lon="6.81937">
        <ele>547.2</ele>
        <time>2025-08-06T16:26:12Z</time>
      </trkpt>
      <trkpt lat="47.75833" lon="6.81934">
        <ele>547.2</ele>
        <time>2025-08-06T16:26:14Z</time>
      </trkpt>
      <trkpt lat="47.75806" lon="6.81929">
        <ele>547</ele>
        <time>2025-08-06T16:26:18Z</time>
      </trkpt>
      <trkpt lat="47.75777" lon="6.81918">
        <ele>546.8</ele>
        <time>2025-08-06T16:26:22Z</time>
      </trkpt>
      <trkpt lat="47.75742" lon="6.81906">
        <ele>545.8</ele>
        <time>2025-08-06T16:26:27Z</time>
      </trkpt>
      <trkpt lat="47.75735" lon="6.81904">
        <ele>545.6</ele>
        <time>2025-08-06T16:26:28Z</time>
      </trkpt>
      <trkpt lat="47.7571" lon="6.81899">
        <ele>545.4</ele>
        <time>2025-08-06T16:26:32Z</time>
      </trkpt>
      <trkpt lat="47.75659" lon="6.81896">
        <ele>545.4</ele>
        <time>2025-08-06T16:26:40Z</time>
      </trkpt>
      <trkpt lat="47.75653" lon="6.81896">
        <ele>545.4</ele>
        <time>2025-08-06T16:26:41Z</time>
      </trkpt>
      <trkpt lat="47.75606" lon="6.81904">
        <ele>545</ele>
        <time>2025-08-06T16:26:48Z</time>
      </trkpt>
      <trkpt lat="47.75587" lon="6.8191">
        <ele>544.8</ele>
        <time>2025-08-06T16:26:51Z</time>
      </trkpt>
      <trkpt lat="47.75568" lon="6.81916">
        <ele>544.8</ele>
        <time>2025-08-06T16:26:54Z</time>
      </trkpt>
      <trkpt lat="47.75511" lon="6.81935">
        <ele>545</ele>
        <time>2025-08-06T16:27:03Z</time>
      </trkpt>
      <trkpt lat="47.75505" lon="6.81937">
        <ele>545</ele>
        <time>2025-08-06T16:27:04Z</time>
      </trkpt>
      <trkpt lat="47.75478" lon="6.81936">
        <ele>544.4</ele>
        <time>2025-08-06T16:27:08Z</time>
      </trkpt>
      <trkpt lat="47.75471" lon="6.81934">
        <ele>544.4</ele>
        <time>2025-08-06T16:27:09Z</time>
      </trkpt>
      <trkpt lat="47.75442" lon="6.81911">
        <ele>544</ele>
        <time>2025-08-06T16:27:14Z</time>
      </trkpt>
      <trkpt lat="47.7542" lon="6.81892">
        <ele>543.8</ele>
        <time>2025-08-06T16:27:18Z</time>
      </trkpt>
      <trkpt lat="47.75413" lon="6.81889">
        <ele>543.8</ele>
        <time>2025-08-06T16:27:19Z</time>
      </trkpt>
      <trkpt lat="47.75407" lon="6.81887">
        <ele>543.6</ele>
        <time>2025-08-06T16:27:20Z</time>
      </trkpt>
      <trkpt lat="47.7538" lon="6.81883">
        <ele>543.4</ele>
        <time>2025-08-06T16:27:24Z</time>
      </trkpt>
      <trkpt lat="47.75353" lon="6.81885">
        <ele>543.2</ele>
        <time>2025-08-06T16:27:28Z</time>
      </trkpt>
      <trkpt lat="47.75326" lon="6.81889">
        <ele>542.8</ele>
        <time>2025-08-06T16:27:32Z</time>
      </trkpt>
      <trkpt lat="47.75314" lon="6.81894">
        <ele>542.8</ele>
        <time>2025-08-06T16:27:34Z</time>
      </trkpt>
      <trkpt lat="47.75288" lon="6.81908">
        <ele>542.6</ele>
        <time>2025-08-06T16:27:38Z</time>
      </trkpt>
      <trkpt lat="47.75275" lon="6.81916">
        <ele>542.4</ele>
        <time>2025-08-06T16:27:40Z</time>
      </trkpt>
      <trkpt lat="47.75229" lon="6.81943">
        <ele>541.6</ele>
        <time>2025-08-06T16:27:47Z</time>
      </trkpt>
      <trkpt lat="47.75195" lon="6.8196">
        <ele>541.2</ele>
        <time>2025-08-06T16:27:52Z</time>
      </trkpt>
      <trkpt lat="47.75175" lon="6.81967">
        <ele>541</ele>
        <time>2025-08-06T16:27:55Z</time>
      </trkpt>
      <trkpt lat="47.75168" lon="6.81968">
        <ele>541</ele>
        <time>2025-08-06T16:27:56Z</time>
      </trkpt>
      <trkpt lat="47.75147" lon="6.81967">
        <ele>541</ele>
        <time>2025-08-06T16:27:59Z</time>
      </trkpt>
      <trkpt lat="47.75109" lon="6.8195">
        <ele>540.8</ele>
        <time>2025-08-06T16:28:05Z</time>
      </trkpt>
      <trkpt lat="47.75078" lon="6.8194">
        <ele>540.6</ele>
        <time>2025-08-06T16:28:10Z</time>
      </trkpt>
      <trkpt lat="47.75071" lon="6.8194">
        <ele>540.6</ele>
        <time>2025-08-06T16:28:11Z</time>
      </trkpt>
      <trkpt lat="47.7504" lon="6.81942">
        <ele>540.2</ele>
        <time>2025-08-06T16:28:16Z</time>
      </trkpt>
      <trkpt lat="47.75011" lon="6.81956">
        <ele>540.2</ele>
        <time>2025-08-06T16:28:21Z</time>
      </trkpt>
      <trkpt lat="47.74993" lon="6.81971">
        <ele>540.8</ele>
        <time>2025-08-06T16:28:26Z</time>
      </trkpt>
      <trkpt lat="47.74972" lon="6.81988">
        <ele>541</ele>
        <time>2025-08-06T16:28:32Z</time>
      </trkpt>
      <trkpt lat="47.7495" lon="6.82006">
        <ele>541.6</ele>
        <time>2025-08-06T16:28:37Z</time>
      </trkpt>
      <trkpt lat="47.74946" lon="6.8201">
        <ele>541.8</ele>
        <time>2025-08-06T16:28:38Z</time>
      </trkpt>
      <trkpt lat="47.74941" lon="6.82013">
        <ele>542</ele>
        <time>2025-08-06T16:28:39Z</time>
      </trkpt>
      <trkpt lat="47.74892" lon="6.82051">
        <ele>542.6</ele>
        <time>2025-08-06T16:28:49Z</time>
      </trkpt>
      <trkpt lat="47.74887" lon="6.82055">
        <ele>542.6</ele>
        <time>2025-08-06T16:28:50Z</time>
      </trkpt>
      <trkpt lat="47.74853" lon="6.8209">
        <ele>542.4</ele>
        <time>2025-08-06T16:28:57Z</time>
      </trkpt>
      <trkpt lat="47.74815" lon="6.82136">
        <ele>542</ele>
        <time>2025-08-06T16:29:05Z</time>
      </trkpt>
      <trkpt lat="47.7478" lon="6.8218">
        <ele>541.2</ele>
        <time>2025-08-06T16:29:12Z</time>
      </trkpt>
      <trkpt lat="47.74764" lon="6.82202">
        <ele>540.8</ele>
        <time>2025-08-06T16:29:15Z</time>
      </trkpt>
      <trkpt lat="47.74723" lon="6.82253">
        <ele>540.2</ele>
        <time>2025-08-06T16:29:23Z</time>
      </trkpt>
      <trkpt lat="47.7469" lon="6.82287">
        <ele>540.4</ele>
        <time>2025-08-06T16:29:29Z</time>
      </trkpt>
      <trkpt lat="47.74685" lon="6.82293">
        <ele>540.2</ele>
        <time>2025-08-06T16:29:30Z</time>
      </trkpt>
      <trkpt lat="47.74659" lon="6.82328">
        <ele>540</ele>
        <time>2025-08-06T16:29:36Z</time>
      </trkpt>
      <trkpt lat="47.74625" lon="6.82377">
        <ele>539.8</ele>
        <time>2025-08-06T16:29:44Z</time>
      </trkpt>
      <trkpt lat="47.74618" lon="6.82384">
        <ele>539.8</ele>
        <time>2025-08-06T16:29:45Z</time>
      </trkpt>
      <trkpt lat="47.74589" lon="6.82408">
        <ele>539.2</ele>
        <time>2025-08-06T16:29:50Z</time>
      </trkpt>
      <trkpt lat="47.74575" lon="6.82417">
        <ele>537.8</ele>
        <time>2025-08-06T16:29:53Z</time>
      </trkpt>
      <trkpt lat="47.74545" lon="6.82432">
        <ele>536.8</ele>
        <time>2025-08-06T16:29:56Z</time>
      </trkpt>
      <trkpt lat="47.74531" lon="6.82439">
        <ele>535.8</ele>
        <time>2025-08-06T16:29:58Z</time>
      </trkpt>
      <trkpt lat="47.74497" lon="6.82453">
        <ele>534.4</ele>
        <time>2025-08-06T16:30:02Z</time>
      </trkpt>
      <trkpt lat="47.74489" lon="6.82456">
        <ele>534</ele>
        <time>2025-08-06T16:30:03Z</time>
      </trkpt>
      <trkpt lat="47.74466" lon="6.82464">
        <ele>533.6</ele>
        <time>2025-08-06T16:30:06Z</time>
      </trkpt>
      <trkpt lat="47.74436" lon="6.82472">
        <ele>532.6</ele>
        <time>2025-08-06T16:30:10Z</time>
      </trkpt>
      <trkpt lat="47.7442" lon="6.82477">
        <ele>532.4</ele>
        <time>2025-08-06T16:30:12Z</time>
      </trkpt>
      <trkpt lat="47.74378" lon="6.82487">
        <ele>530.8</ele>
        <time>2025-08-06T16:30:17Z</time>
      </trkpt>
      <trkpt lat="47.74341" lon="6.8249">
        <ele>529</ele>
        <time>2025-08-06T16:30:21Z</time>
      </trkpt>
      <trkpt lat="47.74324" lon="6.82493">
        <ele>527.8</ele>
        <time>2025-08-06T16:30:23Z</time>
      </trkpt>
      <trkpt lat="47.743" lon="6.82499">
        <ele>526.6</ele>
        <time>2025-08-06T16:30:26Z</time>
      </trkpt>
      <trkpt lat="47.74286" lon="6.82503">
        <ele>526.4</ele>
        <time>2025-08-06T16:30:28Z</time>
      </trkpt>
      <trkpt lat="47.74253" lon="6.82512">
        <ele>525.6</ele>
        <time>2025-08-06T16:30:33Z</time>
      </trkpt>
      <trkpt lat="47.74246" lon="6.82513">
        <ele>525.4</ele>
        <time>2025-08-06T16:30:34Z</time>
      </trkpt>
      <trkpt lat="47.74227" lon="6.82515">
        <ele>525</ele>
        <time>2025-08-06T16:30:37Z</time>
      </trkpt>
      <trkpt lat="47.74214" lon="6.82521">
        <ele>524.6</ele>
        <time>2025-08-06T16:30:39Z</time>
      </trkpt>
      <trkpt lat="47.74208" lon="6.82524">
        <ele>524.4</ele>
        <time>2025-08-06T16:30:40Z</time>
      </trkpt>
      <trkpt lat="47.74197" lon="6.82533">
        <ele>524</ele>
        <time>2025-08-06T16:30:42Z</time>
      </trkpt>
      <trkpt lat="47.74189" lon="6.82546">
        <ele>523.8</ele>
        <time>2025-08-06T16:30:44Z</time>
      </trkpt>
      <trkpt lat="47.74181" lon="6.82576">
        <ele>523.4</ele>
        <time>2025-08-06T16:30:47Z</time>
      </trkpt>
      <trkpt lat="47.74179" lon="6.82585">
        <ele>523.4</ele>
        <time>2025-08-06T16:30:48Z</time>
      </trkpt>
      <trkpt lat="47.74164" lon="6.82627">
        <ele>523</ele>
        <time>2025-08-06T16:30:53Z</time>
      </trkpt>
      <trkpt lat="47.74158" lon="6.8264">
        <ele>522.2</ele>
        <time>2025-08-06T16:30:55Z</time>
      </trkpt>
      <trkpt lat="47.74149" lon="6.8266">
        <ele>521.6</ele>
        <time>2025-08-06T16:30:58Z</time>
      </trkpt>
      <trkpt lat="47.74145" lon="6.82668">
        <ele>521</ele>
        <time>2025-08-06T16:31:00Z</time>
      </trkpt>
      <trkpt lat="47.74142" lon="6.82672">
        <ele>520.2</ele>
        <time>2025-08-06T16:31:02Z</time>
      </trkpt>
      <trkpt lat="47.7414" lon="6.82675">
        <ele>519.8</ele>
        <time>2025-08-06T16:31:04Z</time>
      </trkpt>
      <trkpt lat="47.74139" lon="6.82676">
        <ele>519.4</ele>
        <time>2025-08-06T16:31:07Z</time>
      </trkpt>
      <trkpt lat="47.74135" lon="6.82682">
        <ele>519</ele>
        <time>2025-08-06T16:32:31Z</time>
      </trkpt>
      <trkpt lat="47.74132" lon="6.82685">
        <ele>518.8</ele>
        <time>2025-08-06T16:32:33Z</time>
      </trkpt>
      <trkpt lat="47.7412" lon="6.82691">
        <ele>518.6</ele>
        <time>2025-08-06T16:32:38Z</time>
      </trkpt>
      <trkpt lat="47.74098" lon="6.82703">
        <ele>518</ele>
        <time>2025-08-06T16:32:44Z</time>
      </trkpt>
      <trkpt lat="47.74066" lon="6.82719">
        <ele>517.2</ele>
        <time>2025-08-06T16:32:52Z</time>
      </trkpt>
      <trkpt lat="47.74038" lon="6.82732">
        <ele>517.2</ele>
        <time>2025-08-06T16:32:59Z</time>
      </trkpt>
      <trkpt lat="47.74033" lon="6.82734">
        <ele>517.2</ele>
        <time>2025-08-06T16:33:00Z</time>
      </trkpt>
      <trkpt lat="47.74026" lon="6.82739">
        <ele>517.2</ele>
        <time>2025-08-06T16:33:02Z</time>
      </trkpt>
      <trkpt lat="47.74016" lon="6.82742">
        <ele>517.4</ele>
        <time>2025-08-06T16:33:05Z</time>
      </trkpt>
      <trkpt lat="47.73987" lon="6.82753">
        <ele>517.8</ele>
        <time>2025-08-06T16:33:13Z</time>
      </trkpt>
      <trkpt lat="47.73961" lon="6.82759">
        <ele>518.2</ele>
        <time>2025-08-06T16:33:19Z</time>
      </trkpt>
      <trkpt lat="47.73949" lon="6.8276">
        <ele>518.4</ele>
        <time>2025-08-06T16:33:23Z</time>
      </trkpt>
      <trkpt lat="47.73936" lon="6.82758">
        <ele>518.4</ele>
        <time>2025-08-06T16:33:29Z</time>
      </trkpt>
      <trkpt lat="47.73934" lon="6.82756">
        <ele>518.4</ele>
        <time>2025-08-06T16:33:33Z</time>
      </trkpt>
      <trkpt lat="47.73934" lon="6.82756">
        <ele>518.4</ele>
        <time>2025-08-06T16:33:34Z</time>
      </trkpt>
      <trkpt lat="47.73924" lon="6.82765">
        <ele>519</ele>
        <time>2025-08-06T16:45:33Z</time>
      </trkpt>
      <trkpt lat="47.7392" lon="6.82768">
        <ele>519</ele>
        <time>2025-08-06T16:45:35Z</time>
      </trkpt>
      <trkpt lat="47.73905" lon="6.82778">
        <ele>518.8</ele>
        <time>2025-08-06T16:45:40Z</time>
      </trkpt>
      <trkpt lat="47.73888" lon="6.82789">
        <ele>518.4</ele>
        <time>2025-08-06T16:45:45Z</time>
      </trkpt>
      <trkpt lat="47.73881" lon="6.82795">
        <ele>518</ele>
        <time>2025-08-06T16:45:47Z</time>
      </trkpt>
      <trkpt lat="47.73866" lon="6.82805">
        <ele>517.8</ele>
        <time>2025-08-06T16:45:50Z</time>
      </trkpt>
      <trkpt lat="47.73834" lon="6.82831">
        <ele>517.6</ele>
        <time>2025-08-06T16:45:56Z</time>
      </trkpt>
      <trkpt lat="47.73795" lon="6.82863">
        <ele>517.2</ele>
        <time>2025-08-06T16:46:03Z</time>
      </trkpt>
      <trkpt lat="47.73756" lon="6.82886">
        <ele>517.2</ele>
        <time>2025-08-06T16:46:10Z</time>
      </trkpt>
      <trkpt lat="47.7375" lon="6.82889">
        <ele>517.2</ele>
        <time>2025-08-06T16:46:11Z</time>
      </trkpt>
      <trkpt lat="47.73715" lon="6.82906">
        <ele>516.6</ele>
        <time>2025-08-06T16:46:17Z</time>
      </trkpt>
      <trkpt lat="47.73709" lon="6.82908">
        <ele>516.4</ele>
        <time>2025-08-06T16:46:18Z</time>
      </trkpt>
      <trkpt lat="47.73703" lon="6.8291">
        <ele>516.2</ele>
        <time>2025-08-06T16:46:19Z</time>
      </trkpt>
      <trkpt lat="47.73663" lon="6.82921">
        <ele>515.6</ele>
        <time>2025-08-06T16:46:25Z</time>
      </trkpt>
      <trkpt lat="47.73644" lon="6.82926">
        <ele>515.2</ele>
        <time>2025-08-06T16:46:28Z</time>
      </trkpt>
      <trkpt lat="47.73597" lon="6.82938">
        <ele>514.2</ele>
        <time>2025-08-06T16:46:35Z</time>
      </trkpt>
      <trkpt lat="47.73578" lon="6.82944">
        <ele>513.6</ele>
        <time>2025-08-06T16:46:38Z</time>
      </trkpt>
      <trkpt lat="47.73551" lon="6.82951">
        <ele>513</ele>
        <time>2025-08-06T16:46:42Z</time>
      </trkpt>
      <trkpt lat="47.73518" lon="6.8296">
        <ele>512.4</ele>
        <time>2025-08-06T16:46:47Z</time>
      </trkpt>
      <trkpt lat="47.73483" lon="6.82969">
        <ele>512.2</ele>
        <time>2025-08-06T16:46:52Z</time>
      </trkpt>
      <trkpt lat="47.73476" lon="6.82971">
        <ele>512.2</ele>
        <time>2025-08-06T16:46:53Z</time>
      </trkpt>
      <trkpt lat="47.73426" lon="6.82983">
        <ele>511.2</ele>
        <time>2025-08-06T16:47:00Z</time>
      </trkpt>
      <trkpt lat="47.73419" lon="6.82985">
        <ele>511</ele>
        <time>2025-08-06T16:47:01Z</time>
      </trkpt>
      <trkpt lat="47.73397" lon="6.82989">
        <ele>510.8</ele>
        <time>2025-08-06T16:47:04Z</time>
      </trkpt>
      <trkpt lat="47.73354" lon="6.82994">
        <ele>510.4</ele>
        <time>2025-08-06T16:47:10Z</time>
      </trkpt>
      <trkpt lat="47.73347" lon="6.82994">
        <ele>510.2</ele>
        <time>2025-08-06T16:47:11Z</time>
      </trkpt>
      <trkpt lat="47.73304" lon="6.82996">
        <ele>510.2</ele>
        <time>2025-08-06T16:47:17Z</time>
      </trkpt>
      <trkpt lat="47.73268" lon="6.83">
        <ele>509.8</ele>
        <time>2025-08-06T16:47:22Z</time>
      </trkpt>
      <trkpt lat="47.73233" lon="6.82999">
        <ele>509.6</ele>
        <time>2025-08-06T16:47:27Z</time>
      </trkpt>
      <trkpt lat="47.73196" lon="6.83004">
        <ele>509.4</ele>
        <time>2025-08-06T16:47:32Z</time>
      </trkpt>
      <trkpt lat="47.7318" lon="6.83009">
        <ele>509</ele>
        <time>2025-08-06T16:47:34Z</time>
      </trkpt>
      <trkpt lat="47.73144" lon="6.83036">
        <ele>508.4</ele>
        <time>2025-08-06T16:47:39Z</time>
      </trkpt>
      <trkpt lat="47.73138" lon="6.83042">
        <ele>508.4</ele>
        <time>2025-08-06T16:47:40Z</time>
      </trkpt>
      <trkpt lat="47.73123" lon="6.83054">
        <ele>508.2</ele>
        <time>2025-08-06T16:47:42Z</time>
      </trkpt>
      <trkpt lat="47.73107" lon="6.83063">
        <ele>507.6</ele>
        <time>2025-08-06T16:47:44Z</time>
      </trkpt>
      <trkpt lat="47.731" lon="6.83066">
        <ele>507.4</ele>
        <time>2025-08-06T16:47:45Z</time>
      </trkpt>
      <trkpt lat="47.73092" lon="6.83068">
        <ele>507.2</ele>
        <time>2025-08-06T16:47:46Z</time>
      </trkpt>
      <trkpt lat="47.73067" lon="6.83072">
        <ele>506.8</ele>
        <time>2025-08-06T16:47:49Z</time>
      </trkpt>
      <trkpt lat="47.73032" lon="6.83072">
        <ele>506.2</ele>
        <time>2025-08-06T16:47:53Z</time>
      </trkpt>
      <trkpt lat="47.73014" lon="6.83071">
        <ele>506</ele>
        <time>2025-08-06T16:47:55Z</time>
      </trkpt>
      <trkpt lat="47.72977" lon="6.83071">
        <ele>505.2</ele>
        <time>2025-08-06T16:47:59Z</time>
      </trkpt>
      <trkpt lat="47.7295" lon="6.83074">
        <ele>504.8</ele>
        <time>2025-08-06T16:48:02Z</time>
      </trkpt>
      <trkpt lat="47.72914" lon="6.83083">
        <ele>504.2</ele>
        <time>2025-08-06T16:48:06Z</time>
      </trkpt>
      <trkpt lat="47.72881" lon="6.83093">
        <ele>503.2</ele>
        <time>2025-08-06T16:48:10Z</time>
      </trkpt>
      <trkpt lat="47.72873" lon="6.83096">
        <ele>503.2</ele>
        <time>2025-08-06T16:48:11Z</time>
      </trkpt>
      <trkpt lat="47.72824" lon="6.83109">
        <ele>502.4</ele>
        <time>2025-08-06T16:48:17Z</time>
      </trkpt>
      <trkpt lat="47.72816" lon="6.83111">
        <ele>502.2</ele>
        <time>2025-08-06T16:48:18Z</time>
      </trkpt>
      <trkpt lat="47.72767" lon="6.83124">
        <ele>501</ele>
        <time>2025-08-06T16:48:24Z</time>
      </trkpt>
      <trkpt lat="47.72734" lon="6.83131">
        <ele>500.4</ele>
        <time>2025-08-06T16:48:28Z</time>
      </trkpt>
      <trkpt lat="47.72717" lon="6.83135">
        <ele>500.2</ele>
        <time>2025-08-06T16:48:30Z</time>
      </trkpt>
      <trkpt lat="47.72692" lon="6.8314">
        <ele>499.8</ele>
        <time>2025-08-06T16:48:33Z</time>
      </trkpt>
      <trkpt lat="47.72668" lon="6.83146">
        <ele>499.4</ele>
        <time>2025-08-06T16:48:36Z</time>
      </trkpt>
      <trkpt lat="47.72627" lon="6.83154">
        <ele>499</ele>
        <time>2025-08-06T16:48:41Z</time>
      </trkpt>
      <trkpt lat="47.72603" lon="6.83158">
        <ele>498.4</ele>
        <time>2025-08-06T16:48:44Z</time>
      </trkpt>
      <trkpt lat="47.7257" lon="6.83164">
        <ele>498</ele>
        <time>2025-08-06T16:48:48Z</time>
      </trkpt>
      <trkpt lat="47.72522" lon="6.83173">
        <ele>497.2</ele>
        <time>2025-08-06T16:48:54Z</time>
      </trkpt>
      <trkpt lat="47.72505" lon="6.83176">
        <ele>496.8</ele>
        <time>2025-08-06T16:48:56Z</time>
      </trkpt>
      <trkpt lat="47.72449" lon="6.83184">
        <ele>496</ele>
        <time>2025-08-06T16:49:03Z</time>
      </trkpt>
      <trkpt lat="47.72433" lon="6.83186">
        <ele>495.8</ele>
        <time>2025-08-06T16:49:05Z</time>
      </trkpt>
      <trkpt lat="47.72409" lon="6.8319">
        <ele>495.2</ele>
        <time>2025-08-06T16:49:08Z</time>
      </trkpt>
      <trkpt lat="47.72393" lon="6.83191">
        <ele>494.6</ele>
        <time>2025-08-06T16:49:10Z</time>
      </trkpt>
      <trkpt lat="47.72335" lon="6.83198">
        <ele>493.8</ele>
        <time>2025-08-06T16:49:17Z</time>
      </trkpt>
      <trkpt lat="47.72309" lon="6.83201">
        <ele>493.6</ele>
        <time>2025-08-06T16:49:20Z</time>
      </trkpt>
      <trkpt lat="47.72301" lon="6.83202">
        <ele>493.8</ele>
        <time>2025-08-06T16:49:21Z</time>
      </trkpt>
      <trkpt lat="47.72266" lon="6.83208">
        <ele>492.6</ele>
        <time>2025-08-06T16:49:25Z</time>
      </trkpt>
      <trkpt lat="47.72225" lon="6.83216">
        <ele>491.8</ele>
        <time>2025-08-06T16:49:30Z</time>
      </trkpt>
      <trkpt lat="47.72217" lon="6.83218">
        <ele>491.6</ele>
        <time>2025-08-06T16:49:31Z</time>
      </trkpt>
      <trkpt lat="47.72173" lon="6.83225">
        <ele>491.2</ele>
        <time>2025-08-06T16:49:36Z</time>
      </trkpt>
      <trkpt lat="47.72142" lon="6.83231">
        <ele>490.4</ele>
        <time>2025-08-06T16:49:40Z</time>
      </trkpt>
      <trkpt lat="47.72093" lon="6.83243">
        <ele>489.8</ele>
        <time>2025-08-06T16:49:46Z</time>
      </trkpt>
      <trkpt lat="47.72076" lon="6.83248">
        <ele>489.6</ele>
        <time>2025-08-06T16:49:48Z</time>
      </trkpt>
      <trkpt lat="47.72044" lon="6.83255">
        <ele>489.4</ele>
        <time>2025-08-06T16:49:52Z</time>
      </trkpt>
      <trkpt lat="47.72036" lon="6.83256">
        <ele>489.4</ele>
        <time>2025-08-06T16:49:53Z</time>
      </trkpt>
      <trkpt lat="47.71986" lon="6.83258">
        <ele>488.4</ele>
        <time>2025-08-06T16:49:59Z</time>
      </trkpt>
      <trkpt lat="47.71977" lon="6.83258">
        <ele>488.4</ele>
        <time>2025-08-06T16:50:00Z</time>
      </trkpt>
      <trkpt lat="47.71917" lon="6.83258">
        <ele>487.6</ele>
        <time>2025-08-06T16:50:07Z</time>
      </trkpt>
      <trkpt lat="47.71908" lon="6.83258">
        <ele>487.4</ele>
        <time>2025-08-06T16:50:08Z</time>
      </trkpt>
      <trkpt lat="47.71891" lon="6.83258">
        <ele>487.2</ele>
        <time>2025-08-06T16:50:10Z</time>
      </trkpt>
      <trkpt lat="47.71856" lon="6.83259">
        <ele>486.4</ele>
        <time>2025-08-06T16:50:14Z</time>
      </trkpt>
      <trkpt lat="47.7183" lon="6.8326">
        <ele>486</ele>
        <time>2025-08-06T16:50:17Z</time>
      </trkpt>
      <trkpt lat="47.71804" lon="6.83266">
        <ele>485.8</ele>
        <time>2025-08-06T16:50:20Z</time>
      </trkpt>
      <trkpt lat="47.71796" lon="6.8327">
        <ele>485.6</ele>
        <time>2025-08-06T16:50:21Z</time>
      </trkpt>
      <trkpt lat="47.71788" lon="6.83275">
        <ele>485.4</ele>
        <time>2025-08-06T16:50:22Z</time>
      </trkpt>
      <trkpt lat="47.7178" lon="6.8328">
        <ele>485.4</ele>
        <time>2025-08-06T16:50:23Z</time>
      </trkpt>
      <trkpt lat="47.71758" lon="6.833">
        <ele>484.8</ele>
        <time>2025-08-06T16:50:26Z</time>
      </trkpt>
      <trkpt lat="47.71744" lon="6.83314">
        <ele>484.4</ele>
        <time>2025-08-06T16:50:28Z</time>
      </trkpt>
      <trkpt lat="47.71694" lon="6.83366">
        <ele>483.4</ele>
        <time>2025-08-06T16:50:35Z</time>
      </trkpt>
      <trkpt lat="47.71679" lon="6.8338">
        <ele>483.2</ele>
        <time>2025-08-06T16:50:37Z</time>
      </trkpt>
      <trkpt lat="47.7163" lon="6.83429">
        <ele>482.8</ele>
        <time>2025-08-06T16:50:44Z</time>
      </trkpt>
      <trkpt lat="47.71623" lon="6.83435">
        <ele>482.8</ele>
        <time>2025-08-06T16:50:45Z</time>
      </trkpt>
      <trkpt lat="47.71609" lon="6.83448">
        <ele>482.6</ele>
        <time>2025-08-06T16:50:47Z</time>
      </trkpt>
      <trkpt lat="47.71569" lon="6.83489">
        <ele>482.2</ele>
        <time>2025-08-06T16:50:53Z</time>
      </trkpt>
      <trkpt lat="47.71526" lon="6.83521">
        <ele>481.4</ele>
        <time>2025-08-06T16:50:59Z</time>
      </trkpt>
      <trkpt lat="47.71501" lon="6.83527">
        <ele>481</ele>
        <time>2025-08-06T16:51:02Z</time>
      </trkpt>
      <trkpt lat="47.71483" lon="6.83527">
        <ele>480.8</ele>
        <time>2025-08-06T16:51:04Z</time>
      </trkpt>
      <trkpt lat="47.71465" lon="6.83528">
        <ele>480.2</ele>
        <time>2025-08-06T16:51:06Z</time>
      </trkpt>
      <trkpt lat="47.71431" lon="6.83535">
        <ele>479.2</ele>
        <time>2025-08-06T16:51:10Z</time>
      </trkpt>
      <trkpt lat="47.71398" lon="6.83552">
        <ele>478.2</ele>
        <time>2025-08-06T16:51:14Z</time>
      </trkpt>
      <trkpt lat="47.7139" lon="6.83557">
        <ele>478</ele>
        <time>2025-08-06T16:51:15Z</time>
      </trkpt>
      <trkpt lat="47.71343" lon="6.83587">
        <ele>477.2</ele>
        <time>2025-08-06T16:51:21Z</time>
      </trkpt>
      <trkpt lat="47.71336" lon="6.83592">
        <ele>477.2</ele>
        <time>2025-08-06T16:51:22Z</time>
      </trkpt>
      <trkpt lat="47.71329" lon="6.83595">
        <ele>477</ele>
        <time>2025-08-06T16:51:23Z</time>
      </trkpt>
      <trkpt lat="47.71318" lon="6.83601">
        <ele>476.6</ele>
        <time>2025-08-06T16:51:25Z</time>
      </trkpt>
      <trkpt lat="47.71309" lon="6.83604">
        <ele>476.2</ele>
        <time>2025-08-06T16:51:27Z</time>
      </trkpt>
      <trkpt lat="47.71303" lon="6.83605">
        <ele>476</ele>
        <time>2025-08-06T16:51:30Z</time>
      </trkpt>
      <trkpt lat="47.71302" lon="6.83606">
        <ele>475.8</ele>
        <time>2025-08-06T16:51:31Z</time>
      </trkpt>
      <trkpt lat="47.71288" lon="6.83609">
        <ele>475.4</ele>
        <time>2025-08-06T16:51:35Z</time>
      </trkpt>
      <trkpt lat="47.7126" lon="6.8361">
        <ele>475</ele>
        <time>2025-08-06T16:51:40Z</time>
      </trkpt>
      <trkpt lat="47.71254" lon="6.83608">
        <ele>474.8</ele>
        <time>2025-08-06T16:51:41Z</time>
      </trkpt>
      <trkpt lat="47.71228" lon="6.836">
        <ele>474.6</ele>
        <time>2025-08-06T16:51:45Z</time>
      </trkpt>
      <trkpt lat="47.71193" lon="6.83593">
        <ele>474.6</ele>
        <time>2025-08-06T16:51:50Z</time>
      </trkpt>
      <trkpt lat="47.7117" lon="6.83589">
        <ele>474.4</ele>
        <time>2025-08-06T16:51:53Z</time>
      </trkpt>
      <trkpt lat="47.71155" lon="6.83584">
        <ele>474</ele>
        <time>2025-08-06T16:51:55Z</time>
      </trkpt>
      <trkpt lat="47.71147" lon="6.83582">
        <ele>474</ele>
        <time>2025-08-06T16:51:56Z</time>
      </trkpt>
      <trkpt lat="47.71125" lon="6.83571">
        <ele>473.6</ele>
        <time>2025-08-06T16:51:59Z</time>
      </trkpt>
      <trkpt lat="47.71094" lon="6.83564">
        <ele>473.4</ele>
        <time>2025-08-06T16:52:03Z</time>
      </trkpt>
      <trkpt lat="47.71086" lon="6.83566">
        <ele>473.4</ele>
        <time>2025-08-06T16:52:04Z</time>
      </trkpt>
      <trkpt lat="47.71054" lon="6.83574">
        <ele>473</ele>
        <time>2025-08-06T16:52:08Z</time>
      </trkpt>
      <trkpt lat="47.71029" lon="6.83578">
        <ele>472.6</ele>
        <time>2025-08-06T16:52:11Z</time>
      </trkpt>
      <trkpt lat="47.70971" lon="6.83575">
        <ele>471.8</ele>
        <time>2025-08-06T16:52:18Z</time>
      </trkpt>
      <trkpt lat="47.70962" lon="6.83574">
        <ele>471.8</ele>
        <time>2025-08-06T16:52:19Z</time>
      </trkpt>
      <trkpt lat="47.70937" lon="6.83571">
        <ele>471.6</ele>
        <time>2025-08-06T16:52:22Z</time>
      </trkpt>
      <trkpt lat="47.70913" lon="6.83574">
        <ele>471.4</ele>
        <time>2025-08-06T16:52:25Z</time>
      </trkpt>
      <trkpt lat="47.70889" lon="6.83584">
        <ele>471</ele>
        <time>2025-08-06T16:52:28Z</time>
      </trkpt>
      <trkpt lat="47.70867" lon="6.83598">
        <ele>470.6</ele>
        <time>2025-08-06T16:52:31Z</time>
      </trkpt>
      <trkpt lat="47.70815" lon="6.83633">
        <ele>470.4</ele>
        <time>2025-08-06T16:52:38Z</time>
      </trkpt>
      <trkpt lat="47.70786" lon="6.83649">
        <ele>469.8</ele>
        <time>2025-08-06T16:52:42Z</time>
      </trkpt>
      <trkpt lat="47.70763" lon="6.83661">
        <ele>469.8</ele>
        <time>2025-08-06T16:52:45Z</time>
      </trkpt>
      <trkpt lat="47.70748" lon="6.83668">
        <ele>469.6</ele>
        <time>2025-08-06T16:52:47Z</time>
      </trkpt>
      <trkpt lat="47.70725" lon="6.83675">
        <ele>469.6</ele>
        <time>2025-08-06T16:52:50Z</time>
      </trkpt>
      <trkpt lat="47.70675" lon="6.8368">
        <ele>468.6</ele>
        <time>2025-08-06T16:52:56Z</time>
      </trkpt>
      <trkpt lat="47.70667" lon="6.8368">
        <ele>468.8</ele>
        <time>2025-08-06T16:52:57Z</time>
      </trkpt>
      <trkpt lat="47.70618" lon="6.83684">
        <ele>467.8</ele>
        <time>2025-08-06T16:53:03Z</time>
      </trkpt>
      <trkpt lat="47.70578" lon="6.83699">
        <ele>467.6</ele>
        <time>2025-08-06T16:53:08Z</time>
      </trkpt>
      <trkpt lat="47.70537" lon="6.83706">
        <ele>466.8</ele>
        <time>2025-08-06T16:53:13Z</time>
      </trkpt>
      <trkpt lat="47.70528" lon="6.83705">
        <ele>466.8</ele>
        <time>2025-08-06T16:53:14Z</time>
      </trkpt>
      <trkpt lat="47.70495" lon="6.83695">
        <ele>466.4</ele>
        <time>2025-08-06T16:53:18Z</time>
      </trkpt>
      <trkpt lat="47.70463" lon="6.8368">
        <ele>466</ele>
        <time>2025-08-06T16:53:22Z</time>
      </trkpt>
      <trkpt lat="47.70424" lon="6.83661">
        <ele>465.6</ele>
        <time>2025-08-06T16:53:27Z</time>
      </trkpt>
      <trkpt lat="47.70369" lon="6.83634">
        <ele>465</ele>
        <time>2025-08-06T16:53:34Z</time>
      </trkpt>
      <trkpt lat="47.70346" lon="6.83618">
        <ele>464.8</ele>
        <time>2025-08-06T16:53:37Z</time>
      </trkpt>
      <trkpt lat="47.70338" lon="6.83614">
        <ele>464.6</ele>
        <time>2025-08-06T16:53:38Z</time>
      </trkpt>
      <trkpt lat="47.70313" lon="6.83604">
        <ele>464.4</ele>
        <time>2025-08-06T16:53:41Z</time>
      </trkpt>
      <trkpt lat="47.70263" lon="6.83584">
        <ele>464.2</ele>
        <time>2025-08-06T16:53:47Z</time>
      </trkpt>
      <trkpt lat="47.70222" lon="6.83565">
        <ele>463.8</ele>
        <time>2025-08-06T16:53:52Z</time>
      </trkpt>
      <trkpt lat="47.7018" lon="6.83546">
        <ele>463</ele>
        <time>2025-08-06T16:53:57Z</time>
      </trkpt>
      <trkpt lat="47.70155" lon="6.83535">
        <ele>463</ele>
        <time>2025-08-06T16:54:00Z</time>
      </trkpt>
      <trkpt lat="47.70094" lon="6.83519">
        <ele>462.4</ele>
        <time>2025-08-06T16:54:07Z</time>
      </trkpt>
      <trkpt lat="47.70086" lon="6.83517">
        <ele>462.4</ele>
        <time>2025-08-06T16:54:08Z</time>
      </trkpt>
      <trkpt lat="47.70068" lon="6.83514">
        <ele>461.8</ele>
        <time>2025-08-06T16:54:10Z</time>
      </trkpt>
      <trkpt lat="47.70025" lon="6.83505">
        <ele>461</ele>
        <time>2025-08-06T16:54:15Z</time>
      </trkpt>
      <trkpt lat="47.69991" lon="6.83498">
        <ele>460.6</ele>
        <time>2025-08-06T16:54:19Z</time>
      </trkpt>
      <trkpt lat="47.69931" lon="6.83486">
        <ele>460</ele>
        <time>2025-08-06T16:54:26Z</time>
      </trkpt>
      <trkpt lat="47.69914" lon="6.83485">
        <ele>460</ele>
        <time>2025-08-06T16:54:28Z</time>
      </trkpt>
      <trkpt lat="47.69855" lon="6.8349">
        <ele>460</ele>
        <time>2025-08-06T16:54:35Z</time>
      </trkpt>
      <trkpt lat="47.69839" lon="6.83491">
        <ele>460</ele>
        <time>2025-08-06T16:54:37Z</time>
      </trkpt>
      <trkpt lat="47.6978" lon="6.83497">
        <ele>459</ele>
        <time>2025-08-06T16:54:44Z</time>
      </trkpt>
      <trkpt lat="47.69747" lon="6.835">
        <ele>458.4</ele>
        <time>2025-08-06T16:54:48Z</time>
      </trkpt>
      <trkpt lat="47.69739" lon="6.83501">
        <ele>458</ele>
        <time>2025-08-06T16:54:49Z</time>
      </trkpt>
      <trkpt lat="47.6968" lon="6.83507">
        <ele>456.8</ele>
        <time>2025-08-06T16:54:56Z</time>
      </trkpt>
      <trkpt lat="47.6962" lon="6.83514">
        <ele>455.8</ele>
        <time>2025-08-06T16:55:03Z</time>
      </trkpt>
      <trkpt lat="47.69603" lon="6.83515">
        <ele>455.8</ele>
        <time>2025-08-06T16:55:05Z</time>
      </trkpt>
      <trkpt lat="47.69586" lon="6.83516">
        <ele>455.6</ele>
        <time>2025-08-06T16:55:07Z</time>
      </trkpt>
      <trkpt lat="47.69526" lon="6.83507">
        <ele>454.8</ele>
        <time>2025-08-06T16:55:14Z</time>
      </trkpt>
      <trkpt lat="47.69464" lon="6.83493">
        <ele>454.2</ele>
        <time>2025-08-06T16:55:21Z</time>
      </trkpt>
      <trkpt lat="47.69448" lon="6.8349">
        <ele>454</ele>
        <time>2025-08-06T16:55:23Z</time>
      </trkpt>
      <trkpt lat="47.69419" lon="6.83487">
        <ele>453.6</ele>
        <time>2025-08-06T16:55:26Z</time>
      </trkpt>
      <trkpt lat="47.69394" lon="6.83489">
        <ele>453</ele>
        <time>2025-08-06T16:55:29Z</time>
      </trkpt>
      <trkpt lat="47.6936" lon="6.83496">
        <ele>452.8</ele>
        <time>2025-08-06T16:55:33Z</time>
      </trkpt>
      <trkpt lat="47.69343" lon="6.83502">
        <ele>452.8</ele>
        <time>2025-08-06T16:55:35Z</time>
      </trkpt>
      <trkpt lat="47.69294" lon="6.83526">
        <ele>452.2</ele>
        <time>2025-08-06T16:55:41Z</time>
      </trkpt>
      <trkpt lat="47.6924" lon="6.83559">
        <ele>451.8</ele>
        <time>2025-08-06T16:55:48Z</time>
      </trkpt>
      <trkpt lat="47.69216" lon="6.83573">
        <ele>451.6</ele>
        <time>2025-08-06T16:55:51Z</time>
      </trkpt>
      <trkpt lat="47.69169" lon="6.83595">
        <ele>450.8</ele>
        <time>2025-08-06T16:55:57Z</time>
      </trkpt>
      <trkpt lat="47.69161" lon="6.83597">
        <ele>450.6</ele>
        <time>2025-08-06T16:55:58Z</time>
      </trkpt>
      <trkpt lat="47.69153" lon="6.83598">
        <ele>450.6</ele>
        <time>2025-08-06T16:55:59Z</time>
      </trkpt>
      <trkpt lat="47.69128" lon="6.83597">
        <ele>450.4</ele>
        <time>2025-08-06T16:56:02Z</time>
      </trkpt>
      <trkpt lat="47.6907" lon="6.8358">
        <ele>450</ele>
        <time>2025-08-06T16:56:09Z</time>
      </trkpt>
      <trkpt lat="47.69036" lon="6.83572">
        <ele>449.8</ele>
        <time>2025-08-06T16:56:13Z</time>
      </trkpt>
      <trkpt lat="47.69012" lon="6.83569">
        <ele>449.4</ele>
        <time>2025-08-06T16:56:16Z</time>
      </trkpt>
      <trkpt lat="47.68955" lon="6.83565">
        <ele>449</ele>
        <time>2025-08-06T16:56:23Z</time>
      </trkpt>
      <trkpt lat="47.68939" lon="6.83565">
        <ele>448.8</ele>
        <time>2025-08-06T16:56:25Z</time>
      </trkpt>
      <trkpt lat="47.68932" lon="6.83565">
        <ele>448.8</ele>
        <time>2025-08-06T16:56:26Z</time>
      </trkpt>
      <trkpt lat="47.68887" lon="6.83567">
        <ele>448.4</ele>
        <time>2025-08-06T16:56:32Z</time>
      </trkpt>
      <trkpt lat="47.68876" lon="6.83565">
        <ele>448.4</ele>
        <time>2025-08-06T16:56:34Z</time>
      </trkpt>
      <trkpt lat="47.68872" lon="6.83566">
        <ele>448.4</ele>
        <time>2025-08-06T16:56:35Z</time>
      </trkpt>
      <trkpt lat="47.68865" lon="6.8357">
        <ele>448.4</ele>
        <time>2025-08-06T16:56:38Z</time>
      </trkpt>
      <trkpt lat="47.68864" lon="6.83571">
        <ele>448.4</ele>
        <time>2025-08-06T16:56:39Z</time>
      </trkpt>
      <trkpt lat="47.68863" lon="6.83573">
        <ele>448.6</ele>
        <time>2025-08-06T16:56:41Z</time>
      </trkpt>
      <trkpt lat="47.68859" lon="6.83582">
        <ele>448.8</ele>
        <time>2025-08-06T16:56:47Z</time>
      </trkpt>
      <trkpt lat="47.68849" lon="6.83591">
        <ele>449.2</ele>
        <time>2025-08-06T16:56:52Z</time>
      </trkpt>
      <trkpt lat="47.68838" lon="6.83602">
        <ele>449.6</ele>
        <time>2025-08-06T16:56:56Z</time>
      </trkpt>
      <trkpt lat="47.68818" lon="6.83629">
        <ele>449.8</ele>
        <time>2025-08-06T16:57:02Z</time>
      </trkpt>
      <trkpt lat="47.68792" lon="6.83674">
        <ele>449.8</ele>
        <time>2025-08-06T16:57:09Z</time>
      </trkpt>
      <trkpt lat="47.68774" lon="6.83707">
        <ele>450.2</ele>
        <time>2025-08-06T16:57:13Z</time>
      </trkpt>
      <trkpt lat="47.6877" lon="6.83716">
        <ele>450.2</ele>
        <time>2025-08-06T16:57:14Z</time>
      </trkpt>
      <trkpt lat="47.68739" lon="6.83782">
        <ele>449.6</ele>
        <time>2025-08-06T16:57:21Z</time>
      </trkpt>
      <trkpt lat="47.68732" lon="6.838">
        <ele>449.2</ele>
        <time>2025-08-06T16:57:23Z</time>
      </trkpt>
      <trkpt lat="47.68723" lon="6.83814">
        <ele>448.8</ele>
        <time>2025-08-06T16:57:25Z</time>
      </trkpt>
      <trkpt lat="47.68718" lon="6.8382">
        <ele>448.8</ele>
        <time>2025-08-06T16:57:26Z</time>
      </trkpt>
      <trkpt lat="47.68694" lon="6.83843">
        <ele>448.8</ele>
        <time>2025-08-06T16:57:30Z</time>
      </trkpt>
      <trkpt lat="47.68659" lon="6.83872">
        <ele>449</ele>
        <time>2025-08-06T16:57:36Z</time>
      </trkpt>
      <trkpt lat="47.6863" lon="6.83887">
        <ele>450</ele>
        <time>2025-08-06T16:57:41Z</time>
      </trkpt>
      <trkpt lat="47.68617" lon="6.83892">
        <ele>450.4</ele>
        <time>2025-08-06T16:57:43Z</time>
      </trkpt>
      <trkpt lat="47.68586" lon="6.839">
        <ele>451.6</ele>
        <time>2025-08-06T16:57:48Z</time>
      </trkpt>
      <trkpt lat="47.68526" lon="6.83903">
        <ele>452.4</ele>
        <time>2025-08-06T16:57:57Z</time>
      </trkpt>
      <trkpt lat="47.6852" lon="6.83904">
        <ele>452.4</ele>
        <time>2025-08-06T16:57:58Z</time>
      </trkpt>
      <trkpt lat="47.68476" lon="6.83914">
        <ele>452.4</ele>
        <time>2025-08-06T16:58:04Z</time>
      </trkpt>
      <trkpt lat="47.68419" lon="6.83928">
        <ele>451.4</ele>
        <time>2025-08-06T16:58:11Z</time>
      </trkpt>
      <trkpt lat="47.68377" lon="6.8394">
        <ele>450.4</ele>
        <time>2025-08-06T16:58:16Z</time>
      </trkpt>
      <trkpt lat="47.68343" lon="6.8395">
        <ele>450</ele>
        <time>2025-08-06T16:58:20Z</time>
      </trkpt>
      <trkpt lat="47.68318" lon="6.83957">
        <ele>449.4</ele>
        <time>2025-08-06T16:58:23Z</time>
      </trkpt>
      <trkpt lat="47.68259" lon="6.83974">
        <ele>448.4</ele>
        <time>2025-08-06T16:58:30Z</time>
      </trkpt>
      <trkpt lat="47.68202" lon="6.83989">
        <ele>447.6</ele>
        <time>2025-08-06T16:58:37Z</time>
      </trkpt>
      <trkpt lat="47.68178" lon="6.83995">
        <ele>447.6</ele>
        <time>2025-08-06T16:58:40Z</time>
      </trkpt>
      <trkpt lat="47.68131" lon="6.84008">
        <ele>447.4</ele>
        <time>2025-08-06T16:58:46Z</time>
      </trkpt>
      <trkpt lat="47.68084" lon="6.84017">
        <ele>447.6</ele>
        <time>2025-08-06T16:58:52Z</time>
      </trkpt>
      <trkpt lat="47.68025" lon="6.84028">
        <ele>447.6</ele>
        <time>2025-08-06T16:58:59Z</time>
      </trkpt>
      <trkpt lat="47.68007" lon="6.84032">
        <ele>447.4</ele>
        <time>2025-08-06T16:59:01Z</time>
      </trkpt>
      <trkpt lat="47.67947" lon="6.84042">
        <ele>446.8</ele>
        <time>2025-08-06T16:59:08Z</time>
      </trkpt>
      <trkpt lat="47.67921" lon="6.84046">
        <ele>446.6</ele>
        <time>2025-08-06T16:59:11Z</time>
      </trkpt>
      <trkpt lat="47.67866" lon="6.84053">
        <ele>446.2</ele>
        <time>2025-08-06T16:59:18Z</time>
      </trkpt>
      <trkpt lat="47.67851" lon="6.84054">
        <ele>446.2</ele>
        <time>2025-08-06T16:59:20Z</time>
      </trkpt>
      <trkpt lat="47.67809" lon="6.84057">
        <ele>446.6</ele>
        <time>2025-08-06T16:59:26Z</time>
      </trkpt>
      <trkpt lat="47.67773" lon="6.84054">
        <ele>447</ele>
        <time>2025-08-06T16:59:31Z</time>
      </trkpt>
      <trkpt lat="47.67734" lon="6.84056">
        <ele>447.2</ele>
        <time>2025-08-06T16:59:36Z</time>
      </trkpt>
      <trkpt lat="47.67727" lon="6.84057">
        <ele>447.4</ele>
        <time>2025-08-06T16:59:37Z</time>
      </trkpt>
      <trkpt lat="47.67712" lon="6.84058">
        <ele>447.4</ele>
        <time>2025-08-06T16:59:39Z</time>
      </trkpt>
      <trkpt lat="47.67691" lon="6.84055">
        <ele>447.6</ele>
        <time>2025-08-06T16:59:42Z</time>
      </trkpt>
      <trkpt lat="47.67678" lon="6.84055">
        <ele>447.8</ele>
        <time>2025-08-06T16:59:44Z</time>
      </trkpt>
      <trkpt lat="47.67656" lon="6.84059">
        <ele>448</ele>
        <time>2025-08-06T16:59:47Z</time>
      </trkpt>
      <trkpt lat="47.67619" lon="6.84072">
        <ele>447.6</ele>
        <time>2025-08-06T16:59:52Z</time>
      </trkpt>
      <trkpt lat="47.67567" lon="6.84102">
        <ele>447</ele>
        <time>2025-08-06T16:59:59Z</time>
      </trkpt>
      <trkpt lat="47.67551" lon="6.84112">
        <ele>446.8</ele>
        <time>2025-08-06T17:00:01Z</time>
      </trkpt>
      <trkpt lat="47.67522" lon="6.84131">
        <ele>445.8</ele>
        <time>2025-08-06T17:00:05Z</time>
      </trkpt>
      <trkpt lat="47.67509" lon="6.84141">
        <ele>445</ele>
        <time>2025-08-06T17:00:07Z</time>
      </trkpt>
      <trkpt lat="47.67503" lon="6.84146">
        <ele>444.4</ele>
        <time>2025-08-06T17:00:08Z</time>
      </trkpt>
      <trkpt lat="47.67497" lon="6.84151">
        <ele>444</ele>
        <time>2025-08-06T17:00:09Z</time>
      </trkpt>
      <trkpt lat="47.67485" lon="6.84165">
        <ele>443.4</ele>
        <time>2025-08-06T17:00:11Z</time>
      </trkpt>
      <trkpt lat="47.6748" lon="6.84173">
        <ele>443.2</ele>
        <time>2025-08-06T17:00:12Z</time>
      </trkpt>
      <trkpt lat="47.67467" lon="6.84204">
        <ele>442.2</ele>
        <time>2025-08-06T17:00:15Z</time>
      </trkpt>
      <trkpt lat="47.67463" lon="6.84216">
        <ele>441.8</ele>
        <time>2025-08-06T17:00:16Z</time>
      </trkpt>
      <trkpt lat="47.67448" lon="6.84266">
        <ele>440.6</ele>
        <time>2025-08-06T17:00:20Z</time>
      </trkpt>
      <trkpt lat="47.67434" lon="6.84286">
        <ele>439.4</ele>
        <time>2025-08-06T17:00:22Z</time>
      </trkpt>
      <trkpt lat="47.67412" lon="6.84305">
        <ele>437.8</ele>
        <time>2025-08-06T17:00:26Z</time>
      </trkpt>
      <trkpt lat="47.67393" lon="6.84319">
        <ele>437.2</ele>
        <time>2025-08-06T17:00:28Z</time>
      </trkpt>
      <trkpt lat="47.67377" lon="6.84333">
        <ele>436.8</ele>
        <time>2025-08-06T17:00:30Z</time>
      </trkpt>
      <trkpt lat="47.67361" lon="6.84345">
        <ele>435.4</ele>
        <time>2025-08-06T17:00:32Z</time>
      </trkpt>
      <trkpt lat="47.67346" lon="6.84357">
        <ele>434.4</ele>
        <time>2025-08-06T17:00:34Z</time>
      </trkpt>
      <trkpt lat="47.67339" lon="6.84363">
        <ele>434</ele>
        <time>2025-08-06T17:00:35Z</time>
      </trkpt>
      <trkpt lat="47.67318" lon="6.84377">
        <ele>433.2</ele>
        <time>2025-08-06T17:00:38Z</time>
      </trkpt>
      <trkpt lat="47.67303" lon="6.84382">
        <ele>432.8</ele>
        <time>2025-08-06T17:00:40Z</time>
      </trkpt>
      <trkpt lat="47.67286" lon="6.84384">
        <ele>432.6</ele>
        <time>2025-08-06T17:00:42Z</time>
      </trkpt>
      <trkpt lat="47.67269" lon="6.84382">
        <ele>432.4</ele>
        <time>2025-08-06T17:00:44Z</time>
      </trkpt>
      <trkpt lat="47.67261" lon="6.84379">
        <ele>432.4</ele>
        <time>2025-08-06T17:00:45Z</time>
      </trkpt>
      <trkpt lat="47.67253" lon="6.84375">
        <ele>432.2</ele>
        <time>2025-08-06T17:00:46Z</time>
      </trkpt>
      <trkpt lat="47.67246" lon="6.84371">
        <ele>432.2</ele>
        <time>2025-08-06T17:00:47Z</time>
      </trkpt>
      <trkpt lat="47.67238" lon="6.84365">
        <ele>432</ele>
        <time>2025-08-06T17:00:48Z</time>
      </trkpt>
      <trkpt lat="47.67187" lon="6.84323">
        <ele>431.4</ele>
        <time>2025-08-06T17:00:55Z</time>
      </trkpt>
      <trkpt lat="47.67172" lon="6.84312">
        <ele>431.4</ele>
        <time>2025-08-06T17:00:57Z</time>
      </trkpt>
      <trkpt lat="47.67123" lon="6.84275">
        <ele>431.2</ele>
        <time>2025-08-06T17:01:04Z</time>
      </trkpt>
      <trkpt lat="47.67116" lon="6.8427">
        <ele>431.2</ele>
        <time>2025-08-06T17:01:05Z</time>
      </trkpt>
      <trkpt lat="47.67109" lon="6.84263">
        <ele>431.2</ele>
        <time>2025-08-06T17:01:06Z</time>
      </trkpt>
      <trkpt lat="47.67103" lon="6.84256">
        <ele>431.2</ele>
        <time>2025-08-06T17:01:07Z</time>
      </trkpt>
      <trkpt lat="47.67092" lon="6.8424">
        <ele>431</ele>
        <time>2025-08-06T17:01:09Z</time>
      </trkpt>
      <trkpt lat="47.67087" lon="6.84231">
        <ele>431</ele>
        <time>2025-08-06T17:01:10Z</time>
      </trkpt>
      <trkpt lat="47.67058" lon="6.84181">
        <ele>430.8</ele>
        <time>2025-08-06T17:01:16Z</time>
      </trkpt>
      <trkpt lat="47.67054" lon="6.84173">
        <ele>430.8</ele>
        <time>2025-08-06T17:01:17Z</time>
      </trkpt>
      <trkpt lat="47.67049" lon="6.84166">
        <ele>430.8</ele>
        <time>2025-08-06T17:01:18Z</time>
      </trkpt>
      <trkpt lat="47.67037" lon="6.8416">
        <ele>430.6</ele>
        <time>2025-08-06T17:01:20Z</time>
      </trkpt>
      <trkpt lat="47.67027" lon="6.84166">
        <ele>430.4</ele>
        <time>2025-08-06T17:01:22Z</time>
      </trkpt>
      <trkpt lat="47.67023" lon="6.84173">
        <ele>430.4</ele>
        <time>2025-08-06T17:01:23Z</time>
      </trkpt>
      <trkpt lat="47.67018" lon="6.84179">
        <ele>430.2</ele>
        <time>2025-08-06T17:01:24Z</time>
      </trkpt>
      <trkpt lat="47.67012" lon="6.84183">
        <ele>430</ele>
        <time>2025-08-06T17:01:25Z</time>
      </trkpt>
      <trkpt lat="47.67005" lon="6.84183">
        <ele>430</ele>
        <time>2025-08-06T17:01:26Z</time>
      </trkpt>
      <trkpt lat="47.6699" lon="6.8418">
        <ele>429.8</ele>
        <time>2025-08-06T17:01:28Z</time>
      </trkpt>
      <trkpt lat="47.66942" lon="6.84168">
        <ele>429.2</ele>
        <time>2025-08-06T17:01:34Z</time>
      </trkpt>
      <trkpt lat="47.66934" lon="6.84167">
        <ele>429</ele>
        <time>2025-08-06T17:01:35Z</time>
      </trkpt>
      <trkpt lat="47.66893" lon="6.84171">
        <ele>428.6</ele>
        <time>2025-08-06T17:01:40Z</time>
      </trkpt>
      <trkpt lat="47.66836" lon="6.84182">
        <ele>428.4</ele>
        <time>2025-08-06T17:01:47Z</time>
      </trkpt>
      <trkpt lat="47.66789" lon="6.84187">
        <ele>428.2</ele>
        <time>2025-08-06T17:01:53Z</time>
      </trkpt>
      <trkpt lat="47.66744" lon="6.84205">
        <ele>428</ele>
        <time>2025-08-06T17:01:59Z</time>
      </trkpt>
      <trkpt lat="47.66706" lon="6.84233">
        <ele>427.2</ele>
        <time>2025-08-06T17:02:05Z</time>
      </trkpt>
      <trkpt lat="47.66689" lon="6.84244">
        <ele>426.6</ele>
        <time>2025-08-06T17:02:09Z</time>
      </trkpt>
      <trkpt lat="47.66684" lon="6.84249">
        <ele>426.4</ele>
        <time>2025-08-06T17:02:10Z</time>
      </trkpt>
      <trkpt lat="47.66674" lon="6.84255">
        <ele>426.2</ele>
        <time>2025-08-06T17:02:12Z</time>
      </trkpt>
      <trkpt lat="47.66661" lon="6.84256">
        <ele>426.2</ele>
        <time>2025-08-06T17:02:14Z</time>
      </trkpt>
      <trkpt lat="47.66647" lon="6.84251">
        <ele>426.2</ele>
        <time>2025-08-06T17:02:16Z</time>
      </trkpt>
      <trkpt lat="47.66635" lon="6.84243">
        <ele>426.6</ele>
        <time>2025-08-06T17:02:18Z</time>
      </trkpt>
      <trkpt lat="47.66618" lon="6.8423">
        <ele>427</ele>
        <time>2025-08-06T17:02:21Z</time>
      </trkpt>
      <trkpt lat="47.66612" lon="6.84225">
        <ele>427</ele>
        <time>2025-08-06T17:02:22Z</time>
      </trkpt>
      <trkpt lat="47.66602" lon="6.84216">
        <ele>427.4</ele>
        <time>2025-08-06T17:02:24Z</time>
      </trkpt>
      <trkpt lat="47.66588" lon="6.842">
        <ele>427.6</ele>
        <time>2025-08-06T17:02:27Z</time>
      </trkpt>
      <trkpt lat="47.66558" lon="6.84168">
        <ele>428</ele>
        <time>2025-08-06T17:02:33Z</time>
      </trkpt>
      <trkpt lat="47.66552" lon="6.84163">
        <ele>428</ele>
        <time>2025-08-06T17:02:34Z</time>
      </trkpt>
      <trkpt lat="47.66539" lon="6.84158">
        <ele>427.8</ele>
        <time>2025-08-06T17:02:36Z</time>
      </trkpt>
      <trkpt lat="47.66515" lon="6.84168">
        <ele>427.2</ele>
        <time>2025-08-06T17:02:40Z</time>
      </trkpt>
      <trkpt lat="47.66496" lon="6.84176">
        <ele>426.4</ele>
        <time>2025-08-06T17:02:44Z</time>
      </trkpt>
      <trkpt lat="47.66493" lon="6.84178">
        <ele>426.6</ele>
        <time>2025-08-06T17:02:45Z</time>
      </trkpt>
      <trkpt lat="47.66485" lon="6.84179">
        <ele>426.2</ele>
        <time>2025-08-06T17:02:48Z</time>
      </trkpt>
      <trkpt lat="47.66481" lon="6.84181">
        <ele>426</ele>
        <time>2025-08-06T17:02:53Z</time>
      </trkpt>
      <trkpt lat="47.66481" lon="6.8418">
        <ele>426</ele>
        <time>2025-08-06T17:02:55Z</time>
      </trkpt>
      <trkpt lat="47.66476" lon="6.84181">
        <ele>425.8</ele>
        <time>2025-08-06T17:02:59Z</time>
      </trkpt>
      <trkpt lat="47.66473" lon="6.84182">
        <ele>425.8</ele>
        <time>2025-08-06T17:03:00Z</time>
      </trkpt>
      <trkpt lat="47.66456" lon="6.84192">
        <ele>425.8</ele>
        <time>2025-08-06T17:03:04Z</time>
      </trkpt>
      <trkpt lat="47.66451" lon="6.84195">
        <ele>425.8</ele>
        <time>2025-08-06T17:03:05Z</time>
      </trkpt>
      <trkpt lat="47.66446" lon="6.84197">
        <ele>425.8</ele>
        <time>2025-08-06T17:03:06Z</time>
      </trkpt>
      <trkpt lat="47.66429" lon="6.84204">
        <ele>425.6</ele>
        <time>2025-08-06T17:03:09Z</time>
      </trkpt>
      <trkpt lat="47.66417" lon="6.84209">
        <ele>425.4</ele>
        <time>2025-08-06T17:03:11Z</time>
      </trkpt>
      <trkpt lat="47.66386" lon="6.84221">
        <ele>425.4</ele>
        <time>2025-08-06T17:03:16Z</time>
      </trkpt>
      <trkpt lat="47.66333" lon="6.84243">
        <ele>424.8</ele>
        <time>2025-08-06T17:03:24Z</time>
      </trkpt>
      <trkpt lat="47.66312" lon="6.84252">
        <ele>424.4</ele>
        <time>2025-08-06T17:03:27Z</time>
      </trkpt>
      <trkpt lat="47.66285" lon="6.84267">
        <ele>424.4</ele>
        <time>2025-08-06T17:03:31Z</time>
      </trkpt>
      <trkpt lat="47.66278" lon="6.84272">
        <ele>424.2</ele>
        <time>2025-08-06T17:03:32Z</time>
      </trkpt>
      <trkpt lat="47.66226" lon="6.84309">
        <ele>424.8</ele>
        <time>2025-08-06T17:03:40Z</time>
      </trkpt>
      <trkpt lat="47.66219" lon="6.84313">
        <ele>424.8</ele>
        <time>2025-08-06T17:03:41Z</time>
      </trkpt>
      <trkpt lat="47.66166" lon="6.84333">
        <ele>424.6</ele>
        <time>2025-08-06T17:03:49Z</time>
      </trkpt>
      <trkpt lat="47.66153" lon="6.84338">
        <ele>424.4</ele>
        <time>2025-08-06T17:03:51Z</time>
      </trkpt>
      <trkpt lat="47.66142" lon="6.84342">
        <ele>424.4</ele>
        <time>2025-08-06T17:03:53Z</time>
      </trkpt>
      <trkpt lat="47.66131" lon="6.84345">
        <ele>424.4</ele>
        <time>2025-08-06T17:03:55Z</time>
      </trkpt>
      <trkpt lat="47.66112" lon="6.84351">
        <ele>424.4</ele>
        <time>2025-08-06T17:04:00Z</time>
      </trkpt>
      <trkpt lat="47.6611" lon="6.84352">
        <ele>424.4</ele>
        <time>2025-08-06T17:04:01Z</time>
      </trkpt>
      <trkpt lat="47.6611" lon="6.84352">
        <ele>424.4</ele>
        <time>2025-08-06T17:04:03Z</time>
      </trkpt>
      <trkpt lat="47.6611" lon="6.84352">
        <ele>424.4</ele>
        <time>2025-08-06T17:04:04Z</time>
      </trkpt>
      <trkpt lat="47.66104" lon="6.84357">
        <ele>424</ele>
        <time>2025-08-06T17:09:44Z</time>
      </trkpt>
      <trkpt lat="47.66097" lon="6.84361">
        <ele>424</ele>
        <time>2025-08-06T17:09:46Z</time>
      </trkpt>
      <trkpt lat="47.66081" lon="6.84369">
        <ele>423.8</ele>
        <time>2025-08-06T17:09:50Z</time>
      </trkpt>
      <trkpt lat="47.66076" lon="6.84369">
        <ele>423.8</ele>
        <time>2025-08-06T17:09:51Z</time>
      </trkpt>
      <trkpt lat="47.66044" lon="6.8438">
        <ele>423.6</ele>
        <time>2025-08-06T17:09:57Z</time>
      </trkpt>
      <trkpt lat="47.66004" lon="6.84394">
        <ele>423.8</ele>
        <time>2025-08-06T17:10:04Z</time>
      </trkpt>
      <trkpt lat="47.6595" lon="6.84414">
        <ele>423.6</ele>
        <time>2025-08-06T17:10:13Z</time>
      </trkpt>
      <trkpt lat="47.65894" lon="6.84434">
        <ele>423.6</ele>
        <time>2025-08-06T17:10:22Z</time>
      </trkpt>
      <trkpt lat="47.65863" lon="6.84447">
        <ele>423.6</ele>
        <time>2025-08-06T17:10:27Z</time>
      </trkpt>
      <trkpt lat="47.65851" lon="6.8445">
        <ele>423.6</ele>
        <time>2025-08-06T17:10:29Z</time>
      </trkpt>
      <trkpt lat="47.65826" lon="6.84461">
        <ele>423.2</ele>
        <time>2025-08-06T17:10:34Z</time>
      </trkpt>
      <trkpt lat="47.65815" lon="6.84465">
        <ele>423.2</ele>
        <time>2025-08-06T17:10:36Z</time>
      </trkpt>
      <trkpt lat="47.65796" lon="6.84475">
        <ele>422.6</ele>
        <time>2025-08-06T17:10:41Z</time>
      </trkpt>
      <trkpt lat="47.65779" lon="6.84485">
        <ele>422.6</ele>
        <time>2025-08-06T17:10:45Z</time>
      </trkpt>
      <trkpt lat="47.65769" lon="6.84492">
        <ele>422.6</ele>
        <time>2025-08-06T17:10:47Z</time>
      </trkpt>
      <trkpt lat="47.65764" lon="6.84495">
        <ele>422.4</ele>
        <time>2025-08-06T17:10:48Z</time>
      </trkpt>
      <trkpt lat="47.65749" lon="6.84504">
        <ele>422.4</ele>
        <time>2025-08-06T17:10:51Z</time>
      </trkpt>
      <trkpt lat="47.65703" lon="6.84539">
        <ele>422.4</ele>
        <time>2025-08-06T17:11:00Z</time>
      </trkpt>
      <trkpt lat="47.65682" lon="6.84555">
        <ele>422.2</ele>
        <time>2025-08-06T17:11:04Z</time>
      </trkpt>
      <trkpt lat="47.65666" lon="6.84568">
        <ele>422</ele>
        <time>2025-08-06T17:11:07Z</time>
      </trkpt>
      <trkpt lat="47.6562" lon="6.84604">
        <ele>421.8</ele>
        <time>2025-08-06T17:11:15Z</time>
      </trkpt>
      <trkpt lat="47.65581" lon="6.8464">
        <ele>421.6</ele>
        <time>2025-08-06T17:11:22Z</time>
      </trkpt>
      <trkpt lat="47.65576" lon="6.84647">
        <ele>421.4</ele>
        <time>2025-08-06T17:11:23Z</time>
      </trkpt>
      <trkpt lat="47.65546" lon="6.84685">
        <ele>421</ele>
        <time>2025-08-06T17:11:29Z</time>
      </trkpt>
      <trkpt lat="47.65512" lon="6.84729">
        <ele>420.8</ele>
        <time>2025-08-06T17:11:36Z</time>
      </trkpt>
      <trkpt lat="47.6548" lon="6.8477">
        <ele>420.4</ele>
        <time>2025-08-06T17:11:43Z</time>
      </trkpt>
      <trkpt lat="47.65477" lon="6.84774">
        <ele>420.4</ele>
        <time>2025-08-06T17:11:44Z</time>
      </trkpt>
      <trkpt lat="47.65474" lon="6.84778">
        <ele>420.4</ele>
        <time>2025-08-06T17:11:45Z</time>
      </trkpt>
      <trkpt lat="47.65466" lon="6.8479">
        <ele>420.2</ele>
        <time>2025-08-06T17:11:49Z</time>
      </trkpt>
      <trkpt lat="47.65465" lon="6.84791">
        <ele>420</ele>
        <time>2025-08-06T17:11:52Z</time>
      </trkpt>
      <trkpt lat="47.65463" lon="6.84794">
        <ele>420</ele>
        <time>2025-08-06T17:12:00Z</time>
      </trkpt>
      <trkpt lat="47.65453" lon="6.84807">
        <ele>419.8</ele>
        <time>2025-08-06T17:12:04Z</time>
      </trkpt>
      <trkpt lat="47.6544" lon="6.84824">
        <ele>419.8</ele>
        <time>2025-08-06T17:12:08Z</time>
      </trkpt>
      <trkpt lat="47.65433" lon="6.84834">
        <ele>419.8</ele>
        <time>2025-08-06T17:12:10Z</time>
      </trkpt>
      <trkpt lat="47.654" lon="6.84876">
        <ele>419.6</ele>
        <time>2025-08-06T17:12:18Z</time>
      </trkpt>
      <trkpt lat="47.65387" lon="6.84892">
        <ele>419.6</ele>
        <time>2025-08-06T17:12:21Z</time>
      </trkpt>
      <trkpt lat="47.65373" lon="6.84907">
        <ele>419.8</ele>
        <time>2025-08-06T17:12:24Z</time>
      </trkpt>
      <trkpt lat="47.65342" lon="6.84933">
        <ele>420.2</ele>
        <time>2025-08-06T17:12:30Z</time>
      </trkpt>
      <trkpt lat="47.6531" lon="6.84962">
        <ele>420.2</ele>
        <time>2025-08-06T17:12:36Z</time>
      </trkpt>
      <trkpt lat="47.65279" lon="6.84992">
        <ele>420</ele>
        <time>2025-08-06T17:12:42Z</time>
      </trkpt>
      <trkpt lat="47.65268" lon="6.85">
        <ele>420</ele>
        <time>2025-08-06T17:12:44Z</time>
      </trkpt>
      <trkpt lat="47.65238" lon="6.85027">
        <ele>419.8</ele>
        <time>2025-08-06T17:12:50Z</time>
      </trkpt>
      <trkpt lat="47.65191" lon="6.85069">
        <ele>419.8</ele>
        <time>2025-08-06T17:12:59Z</time>
      </trkpt>
      <trkpt lat="47.65186" lon="6.85073">
        <ele>419.8</ele>
        <time>2025-08-06T17:13:00Z</time>
      </trkpt>
      <trkpt lat="47.65149" lon="6.85107">
        <ele>419.8</ele>
        <time>2025-08-06T17:13:07Z</time>
      </trkpt>
      <trkpt lat="47.65139" lon="6.85116">
        <ele>419.8</ele>
        <time>2025-08-06T17:13:09Z</time>
      </trkpt>
      <trkpt lat="47.65111" lon="6.85142">
        <ele>419.4</ele>
        <time>2025-08-06T17:13:14Z</time>
      </trkpt>
      <trkpt lat="47.65081" lon="6.85173">
        <ele>419.4</ele>
        <time>2025-08-06T17:13:20Z</time>
      </trkpt>
      <trkpt lat="47.65074" lon="6.85179">
        <ele>419.4</ele>
        <time>2025-08-06T17:13:21Z</time>
      </trkpt>
      <trkpt lat="47.65044" lon="6.85208">
        <ele>419.2</ele>
        <time>2025-08-06T17:13:27Z</time>
      </trkpt>
      <trkpt lat="47.65022" lon="6.85225">
        <ele>418.8</ele>
        <time>2025-08-06T17:13:32Z</time>
      </trkpt>
      <trkpt lat="47.65018" lon="6.85228">
        <ele>418.8</ele>
        <time>2025-08-06T17:13:34Z</time>
      </trkpt>
      <trkpt lat="47.65018" lon="6.85228">
        <ele>418.6</ele>
        <time>2025-08-06T17:13:35Z</time>
      </trkpt>
      <trkpt lat="47.65018" lon="6.85228">
        <ele>418.6</ele>
        <time>2025-08-06T17:13:37Z</time>
      </trkpt>
      <trkpt lat="47.65016" lon="6.8523">
        <ele>418.6</ele>
        <time>2025-08-06T17:14:16Z</time>
      </trkpt>
      <trkpt lat="47.65014" lon="6.85232">
        <ele>418.6</ele>
        <time>2025-08-06T17:14:17Z</time>
      </trkpt>
      <trkpt lat="47.64994" lon="6.85248">
        <ele>418.4</ele>
        <time>2025-08-06T17:14:22Z</time>
      </trkpt>
      <trkpt lat="47.64964" lon="6.85271">
        <ele>418.4</ele>
        <time>2025-08-06T17:14:28Z</time>
      </trkpt>
      <trkpt lat="47.64932" lon="6.85299">
        <ele>418.2</ele>
        <time>2025-08-06T17:14:34Z</time>
      </trkpt>
      <trkpt lat="47.64889" lon="6.85335">
        <ele>418.2</ele>
        <time>2025-08-06T17:14:42Z</time>
      </trkpt>
      <trkpt lat="47.64878" lon="6.85343">
        <ele>418.2</ele>
        <time>2025-08-06T17:14:44Z</time>
      </trkpt>
      <trkpt lat="47.64867" lon="6.85354">
        <ele>418.2</ele>
        <time>2025-08-06T17:14:46Z</time>
      </trkpt>
      <trkpt lat="47.64861" lon="6.85358">
        <ele>418.2</ele>
        <time>2025-08-06T17:14:47Z</time>
      </trkpt>
      <trkpt lat="47.64827" lon="6.85386">
        <ele>418</ele>
        <time>2025-08-06T17:14:53Z</time>
      </trkpt>
      <trkpt lat="47.64799" lon="6.85408">
        <ele>418</ele>
        <time>2025-08-06T17:14:58Z</time>
      </trkpt>
      <trkpt lat="47.64794" lon="6.85414">
        <ele>418</ele>
        <time>2025-08-06T17:14:59Z</time>
      </trkpt>
      <trkpt lat="47.64785" lon="6.85421">
        <ele>417.8</ele>
        <time>2025-08-06T17:15:01Z</time>
      </trkpt>
      <trkpt lat="47.64779" lon="6.85425">
        <ele>417.6</ele>
        <time>2025-08-06T17:15:03Z</time>
      </trkpt>
      <trkpt lat="47.64776" lon="6.8543">
        <ele>417.6</ele>
        <time>2025-08-06T17:15:05Z</time>
      </trkpt>
      <trkpt lat="47.64771" lon="6.85433">
        <ele>417.4</ele>
        <time>2025-08-06T17:15:09Z</time>
      </trkpt>
      <trkpt lat="47.64758" lon="6.85439">
        <ele>417.4</ele>
        <time>2025-08-06T17:15:13Z</time>
      </trkpt>
      <trkpt lat="47.64753" lon="6.85441">
        <ele>417.2</ele>
        <time>2025-08-06T17:15:14Z</time>
      </trkpt>
      <trkpt lat="47.64739" lon="6.85448">
        <ele>417.2</ele>
        <time>2025-08-06T17:15:17Z</time>
      </trkpt>
      <trkpt lat="47.64712" lon="6.85461">
        <ele>417</ele>
        <time>2025-08-06T17:15:22Z</time>
      </trkpt>
      <trkpt lat="47.64707" lon="6.85464">
        <ele>417</ele>
        <time>2025-08-06T17:15:23Z</time>
      </trkpt>
      <trkpt lat="47.64696" lon="6.85471">
        <ele>417</ele>
        <time>2025-08-06T17:15:25Z</time>
      </trkpt>
      <trkpt lat="47.64684" lon="6.85477">
        <ele>417.2</ele>
        <time>2025-08-06T17:15:27Z</time>
      </trkpt>
      <trkpt lat="47.64651" lon="6.85492">
        <ele>417</ele>
        <time>2025-08-06T17:15:32Z</time>
      </trkpt>
      <trkpt lat="47.64605" lon="6.85516">
        <ele>416.8</ele>
        <time>2025-08-06T17:15:39Z</time>
      </trkpt>
      <trkpt lat="47.64587" lon="6.85524">
        <ele>416.8</ele>
        <time>2025-08-06T17:15:42Z</time>
      </trkpt>
      <trkpt lat="47.64568" lon="6.85534">
        <ele>416.6</ele>
        <time>2025-08-06T17:15:45Z</time>
      </trkpt>
      <trkpt lat="47.6455" lon="6.85544">
        <ele>416.4</ele>
        <time>2025-08-06T17:15:48Z</time>
      </trkpt>
      <trkpt lat="47.6453" lon="6.85554">
        <ele>416.2</ele>
        <time>2025-08-06T17:15:51Z</time>
      </trkpt>
      <trkpt lat="47.64497" lon="6.8557">
        <ele>415.6</ele>
        <time>2025-08-06T17:15:56Z</time>
      </trkpt>
      <trkpt lat="47.64476" lon="6.8558">
        <ele>415.2</ele>
        <time>2025-08-06T17:15:59Z</time>
      </trkpt>
      <trkpt lat="47.64469" lon="6.85583">
        <ele>415.2</ele>
        <time>2025-08-06T17:16:00Z</time>
      </trkpt>
      <trkpt lat="47.64463" lon="6.85586">
        <ele>415.2</ele>
        <time>2025-08-06T17:16:01Z</time>
      </trkpt>
      <trkpt lat="47.64421" lon="6.85605">
        <ele>414.8</ele>
        <time>2025-08-06T17:16:07Z</time>
      </trkpt>
      <trkpt lat="47.64367" lon="6.85632">
        <ele>414.6</ele>
        <time>2025-08-06T17:16:15Z</time>
      </trkpt>
      <trkpt lat="47.64361" lon="6.85635">
        <ele>414.8</ele>
        <time>2025-08-06T17:16:16Z</time>
      </trkpt>
      <trkpt lat="47.64313" lon="6.85658">
        <ele>414.8</ele>
        <time>2025-08-06T17:16:23Z</time>
      </trkpt>
      <trkpt lat="47.64286" lon="6.85672">
        <ele>414.8</ele>
        <time>2025-08-06T17:16:27Z</time>
      </trkpt>
      <trkpt lat="47.64233" lon="6.85698">
        <ele>414.6</ele>
        <time>2025-08-06T17:16:35Z</time>
      </trkpt>
      <trkpt lat="47.64201" lon="6.85701">
        <ele>414.8</ele>
        <time>2025-08-06T17:16:40Z</time>
      </trkpt>
      <trkpt lat="47.64178" lon="6.85701">
        <ele>414.8</ele>
        <time>2025-08-06T17:16:45Z</time>
      </trkpt>
      <trkpt lat="47.64173" lon="6.85702">
        <ele>414.6</ele>
        <time>2025-08-06T17:16:48Z</time>
      </trkpt>
      <trkpt lat="47.64173" lon="6.85702">
        <ele>414.6</ele>
        <time>2025-08-06T17:16:49Z</time>
      </trkpt>
      <trkpt lat="47.6417" lon="6.85702">
        <ele>414.2</ele>
        <time>2025-08-06T17:17:15Z</time>
      </trkpt>
      <trkpt lat="47.64163" lon="6.857">
        <ele>414.2</ele>
        <time>2025-08-06T17:17:17Z</time>
      </trkpt>
      <trkpt lat="47.64156" lon="6.85683">
        <ele>414.2</ele>
        <time>2025-08-06T17:17:20Z</time>
      </trkpt>
      <trkpt lat="47.64155" lon="6.85677">
        <ele>414.2</ele>
        <time>2025-08-06T17:17:21Z</time>
      </trkpt>
      <trkpt lat="47.64152" lon="6.85664">
        <ele>414</ele>
        <time>2025-08-06T17:17:23Z</time>
      </trkpt>
      <trkpt lat="47.64151" lon="6.8564">
        <ele>413.8</ele>
        <time>2025-08-06T17:17:26Z</time>
      </trkpt>
      <trkpt lat="47.6415" lon="6.85613">
        <ele>413.6</ele>
        <time>2025-08-06T17:17:31Z</time>
      </trkpt>
      <trkpt lat="47.6415" lon="6.85613">
        <ele>413.4</ele>
        <time>2025-08-06T17:17:34Z</time>
      </trkpt>
      <trkpt lat="47.6415" lon="6.85608">
        <ele>413</ele>
        <time>2025-08-06T17:17:54Z</time>
      </trkpt>
      <trkpt lat="47.6415" lon="6.85598">
        <ele>413</ele>
        <time>2025-08-06T17:17:56Z</time>
      </trkpt>
      <trkpt lat="47.64147" lon="6.85585">
        <ele>413.4</ele>
        <time>2025-08-06T17:18:00Z</time>
      </trkpt>
      <trkpt lat="47.64136" lon="6.85572">
        <ele>413</ele>
        <time>2025-08-06T17:18:04Z</time>
      </trkpt>
      <trkpt lat="47.64131" lon="6.85571">
        <ele>413</ele>
        <time>2025-08-06T17:18:05Z</time>
      </trkpt>
      <trkpt lat="47.6412" lon="6.85572">
        <ele>413</ele>
        <time>2025-08-06T17:18:07Z</time>
      </trkpt>
      <trkpt lat="47.64082" lon="6.85574">
        <ele>412.6</ele>
        <time>2025-08-06T17:18:13Z</time>
      </trkpt>
      <trkpt lat="47.64039" lon="6.85577">
        <ele>412.6</ele>
        <time>2025-08-06T17:18:19Z</time>
      </trkpt>
      <trkpt lat="47.64024" lon="6.85578">
        <ele>412.4</ele>
        <time>2025-08-06T17:18:21Z</time>
      </trkpt>
      <trkpt lat="47.6401" lon="6.85579">
        <ele>412.4</ele>
        <time>2025-08-06T17:18:23Z</time>
      </trkpt>
      <trkpt lat="47.64003" lon="6.85581">
        <ele>412.4</ele>
        <time>2025-08-06T17:18:24Z</time>
      </trkpt>
      <trkpt lat="47.63967" lon="6.85586">
        <ele>412.4</ele>
        <time>2025-08-06T17:18:29Z</time>
      </trkpt>
      <trkpt lat="47.63959" lon="6.85588">
        <ele>412.4</ele>
        <time>2025-08-06T17:18:30Z</time>
      </trkpt>
      <trkpt lat="47.6392" lon="6.85592">
        <ele>412.6</ele>
        <time>2025-08-06T17:18:36Z</time>
      </trkpt>
      <trkpt lat="47.63866" lon="6.85599">
        <ele>412.6</ele>
        <time>2025-08-06T17:18:44Z</time>
      </trkpt>
      <trkpt lat="47.6386" lon="6.856">
        <ele>412.6</ele>
        <time>2025-08-06T17:18:45Z</time>
      </trkpt>
      <trkpt lat="47.63837" lon="6.85604">
        <ele>412.2</ele>
        <time>2025-08-06T17:18:50Z</time>
      </trkpt>
      <trkpt lat="47.63835" lon="6.85606">
        <ele>412.2</ele>
        <time>2025-08-06T17:18:51Z</time>
      </trkpt>
      <trkpt lat="47.63835" lon="6.85606">
        <ele>412.2</ele>
        <time>2025-08-06T17:18:52Z</time>
      </trkpt>
      <trkpt lat="47.63835" lon="6.85606">
        <ele>412.2</ele>
        <time>2025-08-06T17:18:53Z</time>
      </trkpt>
      <trkpt lat="47.63835" lon="6.85606">
        <ele>412.2</ele>
        <time>2025-08-06T17:18:54Z</time>
      </trkpt>
      <trkpt lat="47.63831" lon="6.85607">
        <ele>411.4</ele>
        <time>2025-08-06T17:19:11Z</time>
      </trkpt>
      <trkpt lat="47.63822" lon="6.8561">
        <ele>411.4</ele>
        <time>2025-08-06T17:19:13Z</time>
      </trkpt>
      <trkpt lat="47.63815" lon="6.85607">
        <ele>411.4</ele>
        <time>2025-08-06T17:19:15Z</time>
      </trkpt>
      <trkpt lat="47.63812" lon="6.85604">
        <ele>411.4</ele>
        <time>2025-08-06T17:19:16Z</time>
      </trkpt>
      <trkpt lat="47.63809" lon="6.8559">
        <ele>411.4</ele>
        <time>2025-08-06T17:19:18Z</time>
      </trkpt>
      <trkpt lat="47.6381" lon="6.85574">
        <ele>411.4</ele>
        <time>2025-08-06T17:19:20Z</time>
      </trkpt>
      <trkpt lat="47.63812" lon="6.85557">
        <ele>411.6</ele>
        <time>2025-08-06T17:19:22Z</time>
      </trkpt>
      <trkpt lat="47.63812" lon="6.85541">
        <ele>411.4</ele>
        <time>2025-08-06T17:19:24Z</time>
      </trkpt>
      <trkpt lat="47.63814" lon="6.85515">
        <ele>411.4</ele>
        <time>2025-08-06T17:19:29Z</time>
      </trkpt>
      <trkpt lat="47.63814" lon="6.85515">
        <ele>411.6</ele>
        <time>2025-08-06T17:19:32Z</time>
      </trkpt>
      <trkpt lat="47.63815" lon="6.85504">
        <ele>411.8</ele>
        <time>2025-08-06T17:20:04Z</time>
      </trkpt>
      <trkpt lat="47.63814" lon="6.85484">
        <ele>411.8</ele>
        <time>2025-08-06T17:20:07Z</time>
      </trkpt>
      <trkpt lat="47.63813" lon="6.85476">
        <ele>411.8</ele>
        <time>2025-08-06T17:20:08Z</time>
      </trkpt>
      <trkpt lat="47.63812" lon="6.85461">
        <ele>411.8</ele>
        <time>2025-08-06T17:20:10Z</time>
      </trkpt>
      <trkpt lat="47.63814" lon="6.85431">
        <ele>411.8</ele>
        <time>2025-08-06T17:20:13Z</time>
      </trkpt>
      <trkpt lat="47.63817" lon="6.85419">
        <ele>411.6</ele>
        <time>2025-08-06T17:20:14Z</time>
      </trkpt>
      <trkpt lat="47.63827" lon="6.85387">
        <ele>411.8</ele>
        <time>2025-08-06T17:20:17Z</time>
      </trkpt>
      <trkpt lat="47.6384" lon="6.85344">
        <ele>412</ele>
        <time>2025-08-06T17:20:22Z</time>
      </trkpt>
      <trkpt lat="47.63844" lon="6.85334">
        <ele>412.2</ele>
        <time>2025-08-06T17:20:23Z</time>
      </trkpt>
      <trkpt lat="47.63853" lon="6.85312">
        <ele>413.2</ele>
        <time>2025-08-06T17:20:26Z</time>
      </trkpt>
      <trkpt lat="47.63855" lon="6.85305">
        <ele>413.4</ele>
        <time>2025-08-06T17:20:27Z</time>
      </trkpt>
      <trkpt lat="47.63858" lon="6.85289">
        <ele>414.8</ele>
        <time>2025-08-06T17:20:29Z</time>
      </trkpt>
      <trkpt lat="47.63861" lon="6.85275">
        <ele>415.4</ele>
        <time>2025-08-06T17:20:31Z</time>
      </trkpt>
      <trkpt lat="47.63863" lon="6.85257">
        <ele>415.8</ele>
        <time>2025-08-06T17:20:33Z</time>
      </trkpt>
      <trkpt lat="47.63863" lon="6.85249">
        <ele>416</ele>
        <time>2025-08-06T17:20:34Z</time>
      </trkpt>
      <trkpt lat="47.63862" lon="6.8521">
        <ele>416.8</ele>
        <time>2025-08-06T17:20:39Z</time>
      </trkpt>
      <trkpt lat="47.6386" lon="6.85196">
        <ele>417</ele>
        <time>2025-08-06T17:20:41Z</time>
      </trkpt>
      <trkpt lat="47.63856" lon="6.8518">
        <ele>417</ele>
        <time>2025-08-06T17:20:43Z</time>
      </trkpt>
      <trkpt lat="47.63852" lon="6.85164">
        <ele>416.8</ele>
        <time>2025-08-06T17:20:45Z</time>
      </trkpt>
      <trkpt lat="47.63843" lon="6.85151">
        <ele>416.4</ele>
        <time>2025-08-06T17:20:47Z</time>
      </trkpt>
      <trkpt lat="47.63829" lon="6.85152">
        <ele>415.6</ele>
        <time>2025-08-06T17:20:50Z</time>
      </trkpt>
      <trkpt lat="47.63805" lon="6.85164">
        <ele>414.8</ele>
        <time>2025-08-06T17:20:54Z</time>
      </trkpt>
      <trkpt lat="47.63788" lon="6.85174">
        <ele>414.6</ele>
        <time>2025-08-06T17:20:57Z</time>
      </trkpt>
      <trkpt lat="47.63778" lon="6.85179">
        <ele>414.4</ele>
        <time>2025-08-06T17:20:59Z</time>
      </trkpt>
      <trkpt lat="47.63747" lon="6.85189">
        <ele>414.2</ele>
        <time>2025-08-06T17:21:04Z</time>
      </trkpt>
      <trkpt lat="47.63708" lon="6.85204">
        <ele>413.8</ele>
        <time>2025-08-06T17:21:10Z</time>
      </trkpt>
      <trkpt lat="47.63695" lon="6.8521">
        <ele>413.6</ele>
        <time>2025-08-06T17:21:12Z</time>
      </trkpt>
      <trkpt lat="47.63675" lon="6.85215">
        <ele>413.6</ele>
        <time>2025-08-06T17:21:15Z</time>
      </trkpt>
      <trkpt lat="47.6366" lon="6.85223">
        <ele>413.4</ele>
        <time>2025-08-06T17:21:17Z</time>
      </trkpt>
      <trkpt lat="47.63647" lon="6.8523">
        <ele>413.4</ele>
        <time>2025-08-06T17:21:19Z</time>
      </trkpt>
      <trkpt lat="47.6362" lon="6.85242">
        <ele>413.2</ele>
        <time>2025-08-06T17:21:23Z</time>
      </trkpt>
      <trkpt lat="47.63613" lon="6.85245">
        <ele>413.2</ele>
        <time>2025-08-06T17:21:24Z</time>
      </trkpt>
      <trkpt lat="47.6359" lon="6.8526">
        <ele>413.2</ele>
        <time>2025-08-06T17:21:28Z</time>
      </trkpt>
      <trkpt lat="47.63563" lon="6.85277">
        <ele>414.2</ele>
        <time>2025-08-06T17:21:34Z</time>
      </trkpt>
      <trkpt lat="47.63557" lon="6.85282">
        <ele>414.6</ele>
        <time>2025-08-06T17:21:37Z</time>
      </trkpt>
      <trkpt lat="47.63557" lon="6.85283">
        <ele>414.8</ele>
        <time>2025-08-06T17:21:38Z</time>
      </trkpt>
      <trkpt lat="47.63557" lon="6.85283">
        <ele>415</ele>
        <time>2025-08-06T17:21:39Z</time>
      </trkpt>
      <trkpt lat="47.63557" lon="6.85283">
        <ele>415.2</ele>
        <time>2025-08-06T17:21:40Z</time>
      </trkpt>
      <trkpt lat="47.63556" lon="6.85286">
        <ele>415.8</ele>
        <time>2025-08-06T17:22:29Z</time>
      </trkpt>
      <trkpt lat="47.63555" lon="6.85293">
        <ele>415.8</ele>
        <time>2025-08-06T17:22:30Z</time>
      </trkpt>
      <trkpt lat="47.63557" lon="6.85305">
        <ele>415.8</ele>
        <time>2025-08-06T17:22:32Z</time>
      </trkpt>
      <trkpt lat="47.63561" lon="6.85318">
        <ele>415.8</ele>
        <time>2025-08-06T17:22:34Z</time>
      </trkpt>
      <trkpt lat="47.63581" lon="6.85366">
        <ele>415</ele>
        <time>2025-08-06T17:22:41Z</time>
      </trkpt>
      <trkpt lat="47.6359" lon="6.85387">
        <ele>414.2</ele>
        <time>2025-08-06T17:22:44Z</time>
      </trkpt>
      <trkpt lat="47.63591" lon="6.85393">
        <ele>414</ele>
        <time>2025-08-06T17:22:45Z</time>
      </trkpt>
      <trkpt lat="47.63592" lon="6.85399">
        <ele>413.8</ele>
        <time>2025-08-06T17:22:46Z</time>
      </trkpt>
      <trkpt lat="47.63592" lon="6.85406">
        <ele>413.6</ele>
        <time>2025-08-06T17:22:47Z</time>
      </trkpt>
      <trkpt lat="47.63591" lon="6.85413">
        <ele>413.2</ele>
        <time>2025-08-06T17:22:48Z</time>
      </trkpt>
      <trkpt lat="47.63591" lon="6.85419">
        <ele>412.8</ele>
        <time>2025-08-06T17:22:50Z</time>
      </trkpt>
      <trkpt lat="47.63588" lon="6.85434">
        <ele>412.6</ele>
        <time>2025-08-06T17:22:52Z</time>
      </trkpt>
      <trkpt lat="47.63586" lon="6.85437">
        <ele>412.2</ele>
        <time>2025-08-06T17:22:54Z</time>
      </trkpt>
      <trkpt lat="47.63585" lon="6.8544">
        <ele>411.8</ele>
        <time>2025-08-06T17:22:55Z</time>
      </trkpt>
      <trkpt lat="47.63584" lon="6.85444">
        <ele>411.8</ele>
        <time>2025-08-06T17:22:56Z</time>
      </trkpt>
      <trkpt lat="47.63586" lon="6.85457">
        <ele>411.4</ele>
        <time>2025-08-06T17:22:58Z</time>
      </trkpt>
      <trkpt lat="47.63587" lon="6.85467">
        <ele>411.4</ele>
        <time>2025-08-06T17:23:00Z</time>
      </trkpt>
      <trkpt lat="47.63585" lon="6.8548">
        <ele>411.2</ele>
        <time>2025-08-06T17:23:02Z</time>
      </trkpt>
      <trkpt lat="47.63581" lon="6.85509">
        <ele>410.6</ele>
        <time>2025-08-06T17:23:06Z</time>
      </trkpt>
      <trkpt lat="47.63581" lon="6.85517">
        <ele>410.6</ele>
        <time>2025-08-06T17:23:07Z</time>
      </trkpt>
      <trkpt lat="47.63581" lon="6.85533">
        <ele>410.4</ele>
        <time>2025-08-06T17:23:09Z</time>
      </trkpt>
      <trkpt lat="47.63583" lon="6.85546">
        <ele>410.4</ele>
        <time>2025-08-06T17:23:11Z</time>
      </trkpt>
      <trkpt lat="47.63585" lon="6.85556">
        <ele>410.4</ele>
        <time>2025-08-06T17:23:12Z</time>
      </trkpt>
      <trkpt lat="47.63586" lon="6.85584">
        <ele>410.4</ele>
        <time>2025-08-06T17:23:16Z</time>
      </trkpt>
      <trkpt lat="47.63586" lon="6.85607">
        <ele>410.6</ele>
        <time>2025-08-06T17:23:19Z</time>
      </trkpt>
      <trkpt lat="47.63585" lon="6.85656">
        <ele>410.8</ele>
        <time>2025-08-06T17:23:25Z</time>
      </trkpt>
      <trkpt lat="47.63585" lon="6.85664">
        <ele>410.8</ele>
        <time>2025-08-06T17:23:26Z</time>
      </trkpt>
      <trkpt lat="47.63585" lon="6.85671">
        <ele>410.8</ele>
        <time>2025-08-06T17:23:27Z</time>
      </trkpt>
      <trkpt lat="47.63585" lon="6.85686">
        <ele>411</ele>
        <time>2025-08-06T17:23:29Z</time>
      </trkpt>
      <trkpt lat="47.63584" lon="6.85692">
        <ele>411</ele>
        <time>2025-08-06T17:23:30Z</time>
      </trkpt>
      <trkpt lat="47.63583" lon="6.85706">
        <ele>411.4</ele>
        <time>2025-08-06T17:23:32Z</time>
      </trkpt>
      <trkpt lat="47.63582" lon="6.85725">
        <ele>411.4</ele>
        <time>2025-08-06T17:23:35Z</time>
      </trkpt>
      <trkpt lat="47.6358" lon="6.85734">
        <ele>411.2</ele>
        <time>2025-08-06T17:23:39Z</time>
      </trkpt>
      <trkpt lat="47.63579" lon="6.85735">
        <ele>411.2</ele>
        <time>2025-08-06T17:23:41Z</time>
      </trkpt>
      <trkpt lat="47.63582" lon="6.85709">
        <ele>411.2</ele>
        <time>2025-08-06T17:27:43Z</time>
      </trkpt>
      <trkpt lat="47.63579" lon="6.85709">
        <ele>411.2</ele>
        <time>2025-08-06T17:27:44Z</time>
      </trkpt>
      <trkpt lat="47.63572" lon="6.85711">
        <ele>411.4</ele>
        <time>2025-08-06T17:27:47Z</time>
      </trkpt>
    </trkseg>
  </trk>
</gpx>